<?xml version="1.0" encoding="UTF-8" standalone="no" ?>
<gpx xmlns="http://www.topografix.com/GPX/1/1" xmlns:xsi="http://www.w3.org/2001/XMLSchema-instance" xsi:schemaLocation="http://www.topografix.com/GPX/1/1 http://www.topografix.com/GPX/1/1/gpx.xsd" version="1.1" creator="VisuGPX - https://www.visugpx.com">
  <metadata>
    <name>Crevant-Laveine Cyclisme</name>
  </metadata>
  <trk>
    <name><![CDATA[Crevant-Laveine Cyclisme_1]]></name>
    <trkseg>
      <trkpt lat="45.913" lon="3.37366">
        <ele>309.6</ele>
        <time>2024-04-28T07:10:12Z</time>
      </trkpt>
      <trkpt lat="45.913" lon="3.37366">
        <ele>309.6</ele>
        <time>2024-04-28T07:10:13Z</time>
      </trkpt>
      <trkpt lat="45.913" lon="3.37366">
        <ele>309.6</ele>
        <time>2024-04-28T07:10:14Z</time>
      </trkpt>
      <trkpt lat="45.9129" lon="3.3737">
        <ele>309.6</ele>
        <time>2024-04-28T07:10:15Z</time>
      </trkpt>
      <trkpt lat="45.91286" lon="3.37372">
        <ele>309.6</ele>
        <time>2024-04-28T07:10:16Z</time>
      </trkpt>
      <trkpt lat="45.91282" lon="3.37373">
        <ele>309.6</ele>
        <time>2024-04-28T07:10:17Z</time>
      </trkpt>
      <trkpt lat="45.91278" lon="3.37375">
        <ele>309.6</ele>
        <time>2024-04-28T07:10:18Z</time>
      </trkpt>
      <trkpt lat="45.91274" lon="3.37377">
        <ele>309.8</ele>
        <time>2024-04-28T07:10:19Z</time>
      </trkpt>
      <trkpt lat="45.91271" lon="3.37378">
        <ele>309.8</ele>
        <time>2024-04-28T07:10:20Z</time>
      </trkpt>
      <trkpt lat="45.91267" lon="3.37385">
        <ele>309.8</ele>
        <time>2024-04-28T07:10:21Z</time>
      </trkpt>
      <trkpt lat="45.91265" lon="3.3739">
        <ele>310</ele>
        <time>2024-04-28T07:10:22Z</time>
      </trkpt>
      <trkpt lat="45.91264" lon="3.37395">
        <ele>310</ele>
        <time>2024-04-28T07:10:23Z</time>
      </trkpt>
      <trkpt lat="45.91263" lon="3.374">
        <ele>310.2</ele>
        <time>2024-04-28T07:10:24Z</time>
      </trkpt>
      <trkpt lat="45.91262" lon="3.37406">
        <ele>310.2</ele>
        <time>2024-04-28T07:10:25Z</time>
      </trkpt>
      <trkpt lat="45.9126" lon="3.37412">
        <ele>310.4</ele>
        <time>2024-04-28T07:10:26Z</time>
      </trkpt>
      <trkpt lat="45.91259" lon="3.37418">
        <ele>310.4</ele>
        <time>2024-04-28T07:10:27Z</time>
      </trkpt>
      <trkpt lat="45.91258" lon="3.37423">
        <ele>310.6</ele>
        <time>2024-04-28T07:10:28Z</time>
      </trkpt>
      <trkpt lat="45.91256" lon="3.37428">
        <ele>310.6</ele>
        <time>2024-04-28T07:10:29Z</time>
      </trkpt>
      <trkpt lat="45.91254" lon="3.37433">
        <ele>310.8</ele>
        <time>2024-04-28T07:10:30Z</time>
      </trkpt>
      <trkpt lat="45.91251" lon="3.37438">
        <ele>311</ele>
        <time>2024-04-28T07:10:31Z</time>
      </trkpt>
      <trkpt lat="45.91249" lon="3.37443">
        <ele>311</ele>
        <time>2024-04-28T07:10:32Z</time>
      </trkpt>
      <trkpt lat="45.91247" lon="3.37448">
        <ele>311.2</ele>
        <time>2024-04-28T07:10:33Z</time>
      </trkpt>
      <trkpt lat="45.91245" lon="3.37452">
        <ele>311.2</ele>
        <time>2024-04-28T07:10:34Z</time>
      </trkpt>
      <trkpt lat="45.91242" lon="3.37456">
        <ele>311.4</ele>
        <time>2024-04-28T07:10:35Z</time>
      </trkpt>
      <trkpt lat="45.9124" lon="3.3746">
        <ele>311.4</ele>
        <time>2024-04-28T07:10:36Z</time>
      </trkpt>
      <trkpt lat="45.91237" lon="3.37464">
        <ele>311.6</ele>
        <time>2024-04-28T07:10:37Z</time>
      </trkpt>
      <trkpt lat="45.91234" lon="3.37468">
        <ele>311.6</ele>
        <time>2024-04-28T07:10:38Z</time>
      </trkpt>
      <trkpt lat="45.91231" lon="3.37472">
        <ele>311.8</ele>
        <time>2024-04-28T07:10:39Z</time>
      </trkpt>
      <trkpt lat="45.91228" lon="3.37476">
        <ele>311.8</ele>
        <time>2024-04-28T07:10:40Z</time>
      </trkpt>
      <trkpt lat="45.91226" lon="3.3748">
        <ele>311.8</ele>
        <time>2024-04-28T07:10:41Z</time>
      </trkpt>
      <trkpt lat="45.91223" lon="3.37484">
        <ele>312</ele>
        <time>2024-04-28T07:10:42Z</time>
      </trkpt>
      <trkpt lat="45.9122" lon="3.37488">
        <ele>312.2</ele>
        <time>2024-04-28T07:10:43Z</time>
      </trkpt>
      <trkpt lat="45.91217" lon="3.37492">
        <ele>312.2</ele>
        <time>2024-04-28T07:10:44Z</time>
      </trkpt>
      <trkpt lat="45.91215" lon="3.37496">
        <ele>312.2</ele>
        <time>2024-04-28T07:10:45Z</time>
      </trkpt>
      <trkpt lat="45.91212" lon="3.37499">
        <ele>312.4</ele>
        <time>2024-04-28T07:10:46Z</time>
      </trkpt>
      <trkpt lat="45.9121" lon="3.37503">
        <ele>312.4</ele>
        <time>2024-04-28T07:10:47Z</time>
      </trkpt>
      <trkpt lat="45.91207" lon="3.37507">
        <ele>312.6</ele>
        <time>2024-04-28T07:10:48Z</time>
      </trkpt>
      <trkpt lat="45.91204" lon="3.37511">
        <ele>312.6</ele>
        <time>2024-04-28T07:10:49Z</time>
      </trkpt>
      <trkpt lat="45.91202" lon="3.37515">
        <ele>312.8</ele>
        <time>2024-04-28T07:10:50Z</time>
      </trkpt>
      <trkpt lat="45.91199" lon="3.37519">
        <ele>312.8</ele>
        <time>2024-04-28T07:10:51Z</time>
      </trkpt>
      <trkpt lat="45.91196" lon="3.37523">
        <ele>313</ele>
        <time>2024-04-28T07:10:52Z</time>
      </trkpt>
      <trkpt lat="45.91193" lon="3.37528">
        <ele>313</ele>
        <time>2024-04-28T07:10:53Z</time>
      </trkpt>
      <trkpt lat="45.91189" lon="3.37532">
        <ele>313.2</ele>
        <time>2024-04-28T07:10:54Z</time>
      </trkpt>
      <trkpt lat="45.91186" lon="3.37537">
        <ele>313.4</ele>
        <time>2024-04-28T07:10:55Z</time>
      </trkpt>
      <trkpt lat="45.91183" lon="3.37542">
        <ele>313.4</ele>
        <time>2024-04-28T07:10:56Z</time>
      </trkpt>
      <trkpt lat="45.9118" lon="3.37547">
        <ele>313.4</ele>
        <time>2024-04-28T07:10:57Z</time>
      </trkpt>
      <trkpt lat="45.91177" lon="3.37551">
        <ele>313.6</ele>
        <time>2024-04-28T07:10:58Z</time>
      </trkpt>
      <trkpt lat="45.91173" lon="3.37556">
        <ele>313.6</ele>
        <time>2024-04-28T07:10:59Z</time>
      </trkpt>
      <trkpt lat="45.9117" lon="3.3756">
        <ele>313.8</ele>
        <time>2024-04-28T07:11:00Z</time>
      </trkpt>
      <trkpt lat="45.91164" lon="3.37569">
        <ele>313.8</ele>
        <time>2024-04-28T07:11:01Z</time>
      </trkpt>
      <trkpt lat="45.91164" lon="3.37569">
        <ele>313.8</ele>
        <time>2024-04-28T07:11:02Z</time>
      </trkpt>
      <trkpt lat="45.91161" lon="3.37573">
        <ele>314</ele>
        <time>2024-04-28T07:11:03Z</time>
      </trkpt>
      <trkpt lat="45.91158" lon="3.37578">
        <ele>314</ele>
        <time>2024-04-28T07:11:04Z</time>
      </trkpt>
      <trkpt lat="45.91155" lon="3.37582">
        <ele>314</ele>
        <time>2024-04-28T07:11:05Z</time>
      </trkpt>
      <trkpt lat="45.91152" lon="3.37586">
        <ele>314.2</ele>
        <time>2024-04-28T07:11:06Z</time>
      </trkpt>
      <trkpt lat="45.91149" lon="3.3759">
        <ele>314.2</ele>
        <time>2024-04-28T07:11:07Z</time>
      </trkpt>
      <trkpt lat="45.91147" lon="3.37595">
        <ele>314.2</ele>
        <time>2024-04-28T07:11:08Z</time>
      </trkpt>
      <trkpt lat="45.91144" lon="3.376">
        <ele>314.2</ele>
        <time>2024-04-28T07:11:09Z</time>
      </trkpt>
      <trkpt lat="45.91141" lon="3.37606">
        <ele>314.4</ele>
        <time>2024-04-28T07:11:10Z</time>
      </trkpt>
      <trkpt lat="45.91138" lon="3.37611">
        <ele>314.4</ele>
        <time>2024-04-28T07:11:11Z</time>
      </trkpt>
      <trkpt lat="45.91136" lon="3.37616">
        <ele>314.4</ele>
        <time>2024-04-28T07:11:12Z</time>
      </trkpt>
      <trkpt lat="45.91133" lon="3.37621">
        <ele>314.6</ele>
        <time>2024-04-28T07:11:13Z</time>
      </trkpt>
      <trkpt lat="45.9113" lon="3.37627">
        <ele>314.6</ele>
        <time>2024-04-28T07:11:14Z</time>
      </trkpt>
      <trkpt lat="45.91127" lon="3.37632">
        <ele>314.6</ele>
        <time>2024-04-28T07:11:15Z</time>
      </trkpt>
      <trkpt lat="45.91124" lon="3.37638">
        <ele>314.6</ele>
        <time>2024-04-28T07:11:16Z</time>
      </trkpt>
      <trkpt lat="45.91121" lon="3.37643">
        <ele>314.8</ele>
        <time>2024-04-28T07:11:17Z</time>
      </trkpt>
      <trkpt lat="45.91118" lon="3.37648">
        <ele>314.8</ele>
        <time>2024-04-28T07:11:18Z</time>
      </trkpt>
      <trkpt lat="45.91116" lon="3.37655">
        <ele>315</ele>
        <time>2024-04-28T07:11:19Z</time>
      </trkpt>
      <trkpt lat="45.91115" lon="3.37661">
        <ele>315</ele>
        <time>2024-04-28T07:11:20Z</time>
      </trkpt>
      <trkpt lat="45.91114" lon="3.37668">
        <ele>315</ele>
        <time>2024-04-28T07:11:21Z</time>
      </trkpt>
      <trkpt lat="45.91112" lon="3.37674">
        <ele>315.2</ele>
        <time>2024-04-28T07:11:22Z</time>
      </trkpt>
      <trkpt lat="45.91107" lon="3.3768">
        <ele>315.2</ele>
        <time>2024-04-28T07:11:23Z</time>
      </trkpt>
      <trkpt lat="45.91102" lon="3.37682">
        <ele>315.2</ele>
        <time>2024-04-28T07:11:24Z</time>
      </trkpt>
      <trkpt lat="45.91098" lon="3.37685">
        <ele>315.4</ele>
        <time>2024-04-28T07:11:25Z</time>
      </trkpt>
      <trkpt lat="45.91094" lon="3.37687">
        <ele>315.4</ele>
        <time>2024-04-28T07:11:26Z</time>
      </trkpt>
      <trkpt lat="45.91089" lon="3.3769">
        <ele>315.4</ele>
        <time>2024-04-28T07:11:27Z</time>
      </trkpt>
      <trkpt lat="45.91085" lon="3.37692">
        <ele>315.6</ele>
        <time>2024-04-28T07:11:28Z</time>
      </trkpt>
      <trkpt lat="45.9108" lon="3.37695">
        <ele>315.8</ele>
        <time>2024-04-28T07:11:29Z</time>
      </trkpt>
      <trkpt lat="45.91076" lon="3.37697">
        <ele>315.8</ele>
        <time>2024-04-28T07:11:30Z</time>
      </trkpt>
      <trkpt lat="45.91071" lon="3.377">
        <ele>315.8</ele>
        <time>2024-04-28T07:11:31Z</time>
      </trkpt>
      <trkpt lat="45.91067" lon="3.37702">
        <ele>315.8</ele>
        <time>2024-04-28T07:11:32Z</time>
      </trkpt>
      <trkpt lat="45.91063" lon="3.37705">
        <ele>316</ele>
        <time>2024-04-28T07:11:33Z</time>
      </trkpt>
      <trkpt lat="45.91058" lon="3.37708">
        <ele>316</ele>
        <time>2024-04-28T07:11:34Z</time>
      </trkpt>
      <trkpt lat="45.91053" lon="3.3771">
        <ele>316</ele>
        <time>2024-04-28T07:11:35Z</time>
      </trkpt>
      <trkpt lat="45.91048" lon="3.37713">
        <ele>316.2</ele>
        <time>2024-04-28T07:11:36Z</time>
      </trkpt>
      <trkpt lat="45.91043" lon="3.37716">
        <ele>316.2</ele>
        <time>2024-04-28T07:11:37Z</time>
      </trkpt>
      <trkpt lat="45.91039" lon="3.37718">
        <ele>316.2</ele>
        <time>2024-04-28T07:11:38Z</time>
      </trkpt>
      <trkpt lat="45.91034" lon="3.37721">
        <ele>316.2</ele>
        <time>2024-04-28T07:11:39Z</time>
      </trkpt>
      <trkpt lat="45.91029" lon="3.37724">
        <ele>316.4</ele>
        <time>2024-04-28T07:11:40Z</time>
      </trkpt>
      <trkpt lat="45.91025" lon="3.37727">
        <ele>316.4</ele>
        <time>2024-04-28T07:11:41Z</time>
      </trkpt>
      <trkpt lat="45.9102" lon="3.37729">
        <ele>316.4</ele>
        <time>2024-04-28T07:11:42Z</time>
      </trkpt>
      <trkpt lat="45.91015" lon="3.37732">
        <ele>316.4</ele>
        <time>2024-04-28T07:11:43Z</time>
      </trkpt>
      <trkpt lat="45.9101" lon="3.37735">
        <ele>316.4</ele>
        <time>2024-04-28T07:11:44Z</time>
      </trkpt>
      <trkpt lat="45.91005" lon="3.37738">
        <ele>316.4</ele>
        <time>2024-04-28T07:11:45Z</time>
      </trkpt>
      <trkpt lat="45.91" lon="3.37741">
        <ele>316.4</ele>
        <time>2024-04-28T07:11:46Z</time>
      </trkpt>
      <trkpt lat="45.90995" lon="3.37743">
        <ele>316.6</ele>
        <time>2024-04-28T07:11:47Z</time>
      </trkpt>
      <trkpt lat="45.9099" lon="3.37746">
        <ele>316.6</ele>
        <time>2024-04-28T07:11:48Z</time>
      </trkpt>
      <trkpt lat="45.90985" lon="3.37749">
        <ele>316.6</ele>
        <time>2024-04-28T07:11:49Z</time>
      </trkpt>
      <trkpt lat="45.9098" lon="3.37752">
        <ele>316.6</ele>
        <time>2024-04-28T07:11:50Z</time>
      </trkpt>
      <trkpt lat="45.90975" lon="3.37754">
        <ele>316.6</ele>
        <time>2024-04-28T07:11:51Z</time>
      </trkpt>
      <trkpt lat="45.90971" lon="3.37757">
        <ele>316.6</ele>
        <time>2024-04-28T07:11:52Z</time>
      </trkpt>
      <trkpt lat="45.90966" lon="3.3776">
        <ele>316.8</ele>
        <time>2024-04-28T07:11:53Z</time>
      </trkpt>
      <trkpt lat="45.90961" lon="3.37763">
        <ele>316.8</ele>
        <time>2024-04-28T07:11:54Z</time>
      </trkpt>
      <trkpt lat="45.90956" lon="3.37765">
        <ele>316.6</ele>
        <time>2024-04-28T07:11:55Z</time>
      </trkpt>
      <trkpt lat="45.90951" lon="3.37768">
        <ele>316.8</ele>
        <time>2024-04-28T07:11:56Z</time>
      </trkpt>
      <trkpt lat="45.90946" lon="3.37771">
        <ele>316.8</ele>
        <time>2024-04-28T07:11:57Z</time>
      </trkpt>
      <trkpt lat="45.90941" lon="3.37774">
        <ele>316.8</ele>
        <time>2024-04-28T07:11:58Z</time>
      </trkpt>
      <trkpt lat="45.90936" lon="3.37777">
        <ele>317</ele>
        <time>2024-04-28T07:11:59Z</time>
      </trkpt>
      <trkpt lat="45.9093" lon="3.3778">
        <ele>317</ele>
        <time>2024-04-28T07:12:00Z</time>
      </trkpt>
      <trkpt lat="45.90925" lon="3.37783">
        <ele>317</ele>
        <time>2024-04-28T07:12:01Z</time>
      </trkpt>
      <trkpt lat="45.9092" lon="3.37786">
        <ele>317.2</ele>
        <time>2024-04-28T07:12:02Z</time>
      </trkpt>
      <trkpt lat="45.90915" lon="3.37789">
        <ele>317.2</ele>
        <time>2024-04-28T07:12:03Z</time>
      </trkpt>
      <trkpt lat="45.90909" lon="3.37792">
        <ele>317.2</ele>
        <time>2024-04-28T07:12:04Z</time>
      </trkpt>
      <trkpt lat="45.90904" lon="3.37795">
        <ele>317.2</ele>
        <time>2024-04-28T07:12:05Z</time>
      </trkpt>
      <trkpt lat="45.90899" lon="3.37798">
        <ele>317.2</ele>
        <time>2024-04-28T07:12:06Z</time>
      </trkpt>
      <trkpt lat="45.90894" lon="3.37801">
        <ele>317.4</ele>
        <time>2024-04-28T07:12:07Z</time>
      </trkpt>
      <trkpt lat="45.90889" lon="3.37804">
        <ele>317.4</ele>
        <time>2024-04-28T07:12:08Z</time>
      </trkpt>
      <trkpt lat="45.90884" lon="3.37807">
        <ele>317.4</ele>
        <time>2024-04-28T07:12:09Z</time>
      </trkpt>
      <trkpt lat="45.90879" lon="3.3781">
        <ele>317.4</ele>
        <time>2024-04-28T07:12:10Z</time>
      </trkpt>
      <trkpt lat="45.90873" lon="3.37813">
        <ele>317.4</ele>
        <time>2024-04-28T07:12:11Z</time>
      </trkpt>
      <trkpt lat="45.90868" lon="3.37815">
        <ele>317.6</ele>
        <time>2024-04-28T07:12:12Z</time>
      </trkpt>
      <trkpt lat="45.90863" lon="3.37818">
        <ele>317.6</ele>
        <time>2024-04-28T07:12:13Z</time>
      </trkpt>
      <trkpt lat="45.90858" lon="3.37821">
        <ele>317.6</ele>
        <time>2024-04-28T07:12:14Z</time>
      </trkpt>
      <trkpt lat="45.90853" lon="3.37824">
        <ele>317.6</ele>
        <time>2024-04-28T07:12:15Z</time>
      </trkpt>
      <trkpt lat="45.90848" lon="3.37827">
        <ele>317.6</ele>
        <time>2024-04-28T07:12:16Z</time>
      </trkpt>
      <trkpt lat="45.90844" lon="3.37829">
        <ele>317.8</ele>
        <time>2024-04-28T07:12:17Z</time>
      </trkpt>
      <trkpt lat="45.90839" lon="3.37832">
        <ele>317.8</ele>
        <time>2024-04-28T07:12:18Z</time>
      </trkpt>
      <trkpt lat="45.90835" lon="3.37834">
        <ele>317.8</ele>
        <time>2024-04-28T07:12:19Z</time>
      </trkpt>
      <trkpt lat="45.9083" lon="3.37837">
        <ele>317.8</ele>
        <time>2024-04-28T07:12:20Z</time>
      </trkpt>
      <trkpt lat="45.90825" lon="3.3784">
        <ele>317.8</ele>
        <time>2024-04-28T07:12:21Z</time>
      </trkpt>
      <trkpt lat="45.9082" lon="3.37843">
        <ele>317.8</ele>
        <time>2024-04-28T07:12:22Z</time>
      </trkpt>
      <trkpt lat="45.90815" lon="3.37845">
        <ele>318</ele>
        <time>2024-04-28T07:12:23Z</time>
      </trkpt>
      <trkpt lat="45.9081" lon="3.37849">
        <ele>318</ele>
        <time>2024-04-28T07:12:24Z</time>
      </trkpt>
      <trkpt lat="45.90806" lon="3.37852">
        <ele>318</ele>
        <time>2024-04-28T07:12:25Z</time>
      </trkpt>
      <trkpt lat="45.90801" lon="3.37855">
        <ele>318</ele>
        <time>2024-04-28T07:12:26Z</time>
      </trkpt>
      <trkpt lat="45.90795" lon="3.37858">
        <ele>318</ele>
        <time>2024-04-28T07:12:27Z</time>
      </trkpt>
      <trkpt lat="45.90791" lon="3.37861">
        <ele>318.2</ele>
        <time>2024-04-28T07:12:28Z</time>
      </trkpt>
      <trkpt lat="45.90786" lon="3.37864">
        <ele>318.2</ele>
        <time>2024-04-28T07:12:29Z</time>
      </trkpt>
      <trkpt lat="45.90781" lon="3.37867">
        <ele>318.2</ele>
        <time>2024-04-28T07:12:30Z</time>
      </trkpt>
      <trkpt lat="45.90776" lon="3.3787">
        <ele>318.4</ele>
        <time>2024-04-28T07:12:31Z</time>
      </trkpt>
      <trkpt lat="45.90771" lon="3.37874">
        <ele>318.4</ele>
        <time>2024-04-28T07:12:32Z</time>
      </trkpt>
      <trkpt lat="45.90766" lon="3.37877">
        <ele>318.4</ele>
        <time>2024-04-28T07:12:33Z</time>
      </trkpt>
      <trkpt lat="45.90761" lon="3.3788">
        <ele>318.4</ele>
        <time>2024-04-28T07:12:34Z</time>
      </trkpt>
      <trkpt lat="45.90756" lon="3.37883">
        <ele>318.6</ele>
        <time>2024-04-28T07:12:35Z</time>
      </trkpt>
      <trkpt lat="45.90751" lon="3.37886">
        <ele>318.6</ele>
        <time>2024-04-28T07:12:36Z</time>
      </trkpt>
      <trkpt lat="45.90746" lon="3.37889">
        <ele>318.6</ele>
        <time>2024-04-28T07:12:37Z</time>
      </trkpt>
      <trkpt lat="45.90741" lon="3.37892">
        <ele>318.6</ele>
        <time>2024-04-28T07:12:38Z</time>
      </trkpt>
      <trkpt lat="45.90736" lon="3.37895">
        <ele>318.8</ele>
        <time>2024-04-28T07:12:39Z</time>
      </trkpt>
      <trkpt lat="45.90731" lon="3.37898">
        <ele>318.8</ele>
        <time>2024-04-28T07:12:40Z</time>
      </trkpt>
      <trkpt lat="45.90726" lon="3.37901">
        <ele>318.8</ele>
        <time>2024-04-28T07:12:41Z</time>
      </trkpt>
      <trkpt lat="45.90722" lon="3.37904">
        <ele>319</ele>
        <time>2024-04-28T07:12:42Z</time>
      </trkpt>
      <trkpt lat="45.90717" lon="3.37908">
        <ele>319</ele>
        <time>2024-04-28T07:12:43Z</time>
      </trkpt>
      <trkpt lat="45.90712" lon="3.37911">
        <ele>319</ele>
        <time>2024-04-28T07:12:44Z</time>
      </trkpt>
      <trkpt lat="45.90707" lon="3.37913">
        <ele>319</ele>
        <time>2024-04-28T07:12:45Z</time>
      </trkpt>
      <trkpt lat="45.90702" lon="3.37916">
        <ele>319.2</ele>
        <time>2024-04-28T07:12:46Z</time>
      </trkpt>
      <trkpt lat="45.90698" lon="3.3792">
        <ele>319.2</ele>
        <time>2024-04-28T07:12:47Z</time>
      </trkpt>
      <trkpt lat="45.90697" lon="3.3792">
        <ele>319.4</ele>
        <time>2024-04-28T07:12:48Z</time>
      </trkpt>
      <trkpt lat="45.90684" lon="3.37915">
        <ele>319.4</ele>
        <time>2024-04-28T07:12:49Z</time>
      </trkpt>
      <trkpt lat="45.90677" lon="3.37926">
        <ele>319.4</ele>
        <time>2024-04-28T07:12:50Z</time>
      </trkpt>
      <trkpt lat="45.90675" lon="3.37932">
        <ele>319.4</ele>
        <time>2024-04-28T07:12:51Z</time>
      </trkpt>
      <trkpt lat="45.90674" lon="3.37938">
        <ele>319.4</ele>
        <time>2024-04-28T07:12:52Z</time>
      </trkpt>
      <trkpt lat="45.90684" lon="3.37954">
        <ele>319.6</ele>
        <time>2024-04-28T07:12:53Z</time>
      </trkpt>
      <trkpt lat="45.90684" lon="3.37956">
        <ele>319.6</ele>
        <time>2024-04-28T07:12:54Z</time>
      </trkpt>
      <trkpt lat="45.90684" lon="3.37963">
        <ele>319.8</ele>
        <time>2024-04-28T07:12:55Z</time>
      </trkpt>
      <trkpt lat="45.90683" lon="3.3797">
        <ele>319.8</ele>
        <time>2024-04-28T07:12:56Z</time>
      </trkpt>
      <trkpt lat="45.90682" lon="3.37977">
        <ele>319.8</ele>
        <time>2024-04-28T07:12:57Z</time>
      </trkpt>
      <trkpt lat="45.90681" lon="3.37985">
        <ele>319.8</ele>
        <time>2024-04-28T07:12:58Z</time>
      </trkpt>
      <trkpt lat="45.90681" lon="3.37992">
        <ele>320</ele>
        <time>2024-04-28T07:12:59Z</time>
      </trkpt>
      <trkpt lat="45.9068" lon="3.38">
        <ele>320</ele>
        <time>2024-04-28T07:13:00Z</time>
      </trkpt>
      <trkpt lat="45.90679" lon="3.38007">
        <ele>320</ele>
        <time>2024-04-28T07:13:01Z</time>
      </trkpt>
      <trkpt lat="45.90678" lon="3.38015">
        <ele>320.2</ele>
        <time>2024-04-28T07:13:02Z</time>
      </trkpt>
      <trkpt lat="45.90678" lon="3.38023">
        <ele>320.2</ele>
        <time>2024-04-28T07:13:03Z</time>
      </trkpt>
      <trkpt lat="45.90677" lon="3.3803">
        <ele>320.2</ele>
        <time>2024-04-28T07:13:04Z</time>
      </trkpt>
      <trkpt lat="45.90676" lon="3.38038">
        <ele>320.4</ele>
        <time>2024-04-28T07:13:05Z</time>
      </trkpt>
      <trkpt lat="45.90675" lon="3.38046">
        <ele>320.4</ele>
        <time>2024-04-28T07:13:06Z</time>
      </trkpt>
      <trkpt lat="45.90675" lon="3.38054">
        <ele>320.4</ele>
        <time>2024-04-28T07:13:07Z</time>
      </trkpt>
      <trkpt lat="45.90674" lon="3.38062">
        <ele>320.4</ele>
        <time>2024-04-28T07:13:08Z</time>
      </trkpt>
      <trkpt lat="45.90673" lon="3.3807">
        <ele>320.6</ele>
        <time>2024-04-28T07:13:09Z</time>
      </trkpt>
      <trkpt lat="45.90672" lon="3.38077">
        <ele>320.6</ele>
        <time>2024-04-28T07:13:10Z</time>
      </trkpt>
      <trkpt lat="45.90672" lon="3.38085">
        <ele>320.6</ele>
        <time>2024-04-28T07:13:11Z</time>
      </trkpt>
      <trkpt lat="45.90671" lon="3.38093">
        <ele>320.8</ele>
        <time>2024-04-28T07:13:12Z</time>
      </trkpt>
      <trkpt lat="45.9067" lon="3.38101">
        <ele>320.8</ele>
        <time>2024-04-28T07:13:13Z</time>
      </trkpt>
      <trkpt lat="45.90669" lon="3.38109">
        <ele>321</ele>
        <time>2024-04-28T07:13:14Z</time>
      </trkpt>
      <trkpt lat="45.90669" lon="3.38116">
        <ele>321</ele>
        <time>2024-04-28T07:13:15Z</time>
      </trkpt>
      <trkpt lat="45.90668" lon="3.38124">
        <ele>321</ele>
        <time>2024-04-28T07:13:16Z</time>
      </trkpt>
      <trkpt lat="45.90667" lon="3.38132">
        <ele>321.2</ele>
        <time>2024-04-28T07:13:17Z</time>
      </trkpt>
      <trkpt lat="45.90666" lon="3.3814">
        <ele>321.2</ele>
        <time>2024-04-28T07:13:18Z</time>
      </trkpt>
      <trkpt lat="45.90665" lon="3.38148">
        <ele>321.2</ele>
        <time>2024-04-28T07:13:19Z</time>
      </trkpt>
      <trkpt lat="45.90665" lon="3.38156">
        <ele>321.4</ele>
        <time>2024-04-28T07:13:20Z</time>
      </trkpt>
      <trkpt lat="45.90664" lon="3.38164">
        <ele>321.4</ele>
        <time>2024-04-28T07:13:21Z</time>
      </trkpt>
      <trkpt lat="45.90663" lon="3.38172">
        <ele>321.4</ele>
        <time>2024-04-28T07:13:22Z</time>
      </trkpt>
      <trkpt lat="45.90662" lon="3.3818">
        <ele>321.6</ele>
        <time>2024-04-28T07:13:23Z</time>
      </trkpt>
      <trkpt lat="45.90662" lon="3.38188">
        <ele>321.6</ele>
        <time>2024-04-28T07:13:24Z</time>
      </trkpt>
      <trkpt lat="45.90661" lon="3.38195">
        <ele>321.6</ele>
        <time>2024-04-28T07:13:25Z</time>
      </trkpt>
      <trkpt lat="45.9066" lon="3.38203">
        <ele>321.8</ele>
        <time>2024-04-28T07:13:26Z</time>
      </trkpt>
      <trkpt lat="45.90659" lon="3.3821">
        <ele>321.8</ele>
        <time>2024-04-28T07:13:27Z</time>
      </trkpt>
      <trkpt lat="45.90659" lon="3.38218">
        <ele>321.8</ele>
        <time>2024-04-28T07:13:28Z</time>
      </trkpt>
      <trkpt lat="45.90658" lon="3.38225">
        <ele>322</ele>
        <time>2024-04-28T07:13:29Z</time>
      </trkpt>
      <trkpt lat="45.90657" lon="3.38233">
        <ele>322</ele>
        <time>2024-04-28T07:13:30Z</time>
      </trkpt>
      <trkpt lat="45.90656" lon="3.3824">
        <ele>322.2</ele>
        <time>2024-04-28T07:13:31Z</time>
      </trkpt>
      <trkpt lat="45.90656" lon="3.38248">
        <ele>322.2</ele>
        <time>2024-04-28T07:13:32Z</time>
      </trkpt>
      <trkpt lat="45.90655" lon="3.38256">
        <ele>322.2</ele>
        <time>2024-04-28T07:13:33Z</time>
      </trkpt>
      <trkpt lat="45.90654" lon="3.38264">
        <ele>322.4</ele>
        <time>2024-04-28T07:13:34Z</time>
      </trkpt>
      <trkpt lat="45.90653" lon="3.38271">
        <ele>322.4</ele>
        <time>2024-04-28T07:13:35Z</time>
      </trkpt>
      <trkpt lat="45.90653" lon="3.38279">
        <ele>322.6</ele>
        <time>2024-04-28T07:13:36Z</time>
      </trkpt>
      <trkpt lat="45.90652" lon="3.38286">
        <ele>322.6</ele>
        <time>2024-04-28T07:13:37Z</time>
      </trkpt>
      <trkpt lat="45.90651" lon="3.38294">
        <ele>322.6</ele>
        <time>2024-04-28T07:13:38Z</time>
      </trkpt>
      <trkpt lat="45.9065" lon="3.38301">
        <ele>322.6</ele>
        <time>2024-04-28T07:13:39Z</time>
      </trkpt>
      <trkpt lat="45.9065" lon="3.38309">
        <ele>322.8</ele>
        <time>2024-04-28T07:13:40Z</time>
      </trkpt>
      <trkpt lat="45.90649" lon="3.38316">
        <ele>322.8</ele>
        <time>2024-04-28T07:13:41Z</time>
      </trkpt>
      <trkpt lat="45.90648" lon="3.38324">
        <ele>322.8</ele>
        <time>2024-04-28T07:13:42Z</time>
      </trkpt>
      <trkpt lat="45.90648" lon="3.38331">
        <ele>323</ele>
        <time>2024-04-28T07:13:43Z</time>
      </trkpt>
      <trkpt lat="45.90647" lon="3.38338">
        <ele>323.2</ele>
        <time>2024-04-28T07:13:44Z</time>
      </trkpt>
      <trkpt lat="45.90646" lon="3.38345">
        <ele>323.2</ele>
        <time>2024-04-28T07:13:45Z</time>
      </trkpt>
      <trkpt lat="45.90645" lon="3.38353">
        <ele>323.4</ele>
        <time>2024-04-28T07:13:46Z</time>
      </trkpt>
      <trkpt lat="45.90645" lon="3.3836">
        <ele>323.4</ele>
        <time>2024-04-28T07:13:47Z</time>
      </trkpt>
      <trkpt lat="45.90644" lon="3.38368">
        <ele>323.4</ele>
        <time>2024-04-28T07:13:48Z</time>
      </trkpt>
      <trkpt lat="45.90642" lon="3.38375">
        <ele>323.6</ele>
        <time>2024-04-28T07:13:49Z</time>
      </trkpt>
      <trkpt lat="45.9064" lon="3.38382">
        <ele>323.6</ele>
        <time>2024-04-28T07:13:50Z</time>
      </trkpt>
      <trkpt lat="45.90638" lon="3.38389">
        <ele>323.6</ele>
        <time>2024-04-28T07:13:51Z</time>
      </trkpt>
      <trkpt lat="45.90636" lon="3.38396">
        <ele>323.8</ele>
        <time>2024-04-28T07:13:52Z</time>
      </trkpt>
      <trkpt lat="45.90634" lon="3.38403">
        <ele>323.8</ele>
        <time>2024-04-28T07:13:53Z</time>
      </trkpt>
      <trkpt lat="45.90632" lon="3.3841">
        <ele>323.8</ele>
        <time>2024-04-28T07:13:54Z</time>
      </trkpt>
      <trkpt lat="45.9063" lon="3.38417">
        <ele>324</ele>
        <time>2024-04-28T07:13:55Z</time>
      </trkpt>
      <trkpt lat="45.90628" lon="3.38423">
        <ele>324</ele>
        <time>2024-04-28T07:13:56Z</time>
      </trkpt>
      <trkpt lat="45.90626" lon="3.3843">
        <ele>324</ele>
        <time>2024-04-28T07:13:57Z</time>
      </trkpt>
      <trkpt lat="45.90625" lon="3.38436">
        <ele>324</ele>
        <time>2024-04-28T07:13:58Z</time>
      </trkpt>
      <trkpt lat="45.90623" lon="3.38443">
        <ele>324.2</ele>
        <time>2024-04-28T07:13:59Z</time>
      </trkpt>
      <trkpt lat="45.90621" lon="3.3845">
        <ele>324.2</ele>
        <time>2024-04-28T07:14:00Z</time>
      </trkpt>
      <trkpt lat="45.90618" lon="3.38457">
        <ele>324.2</ele>
        <time>2024-04-28T07:14:01Z</time>
      </trkpt>
      <trkpt lat="45.90617" lon="3.38464">
        <ele>324.2</ele>
        <time>2024-04-28T07:14:02Z</time>
      </trkpt>
      <trkpt lat="45.90615" lon="3.3847">
        <ele>324.2</ele>
        <time>2024-04-28T07:14:03Z</time>
      </trkpt>
      <trkpt lat="45.90613" lon="3.38477">
        <ele>324.2</ele>
        <time>2024-04-28T07:14:04Z</time>
      </trkpt>
      <trkpt lat="45.90611" lon="3.38483">
        <ele>324.2</ele>
        <time>2024-04-28T07:14:05Z</time>
      </trkpt>
      <trkpt lat="45.90609" lon="3.3849">
        <ele>324.2</ele>
        <time>2024-04-28T07:14:06Z</time>
      </trkpt>
      <trkpt lat="45.90607" lon="3.38497">
        <ele>324.4</ele>
        <time>2024-04-28T07:14:07Z</time>
      </trkpt>
      <trkpt lat="45.90605" lon="3.38504">
        <ele>324.4</ele>
        <time>2024-04-28T07:14:08Z</time>
      </trkpt>
      <trkpt lat="45.90603" lon="3.3851">
        <ele>324.2</ele>
        <time>2024-04-28T07:14:09Z</time>
      </trkpt>
      <trkpt lat="45.90601" lon="3.38517">
        <ele>324.4</ele>
        <time>2024-04-28T07:14:10Z</time>
      </trkpt>
      <trkpt lat="45.90599" lon="3.38523">
        <ele>324.2</ele>
        <time>2024-04-28T07:14:11Z</time>
      </trkpt>
      <trkpt lat="45.90597" lon="3.38529">
        <ele>324.4</ele>
        <time>2024-04-28T07:14:12Z</time>
      </trkpt>
      <trkpt lat="45.90596" lon="3.38536">
        <ele>324.4</ele>
        <time>2024-04-28T07:14:13Z</time>
      </trkpt>
      <trkpt lat="45.90594" lon="3.38542">
        <ele>324.4</ele>
        <time>2024-04-28T07:14:14Z</time>
      </trkpt>
      <trkpt lat="45.90592" lon="3.38549">
        <ele>324.4</ele>
        <time>2024-04-28T07:14:15Z</time>
      </trkpt>
      <trkpt lat="45.9059" lon="3.38555">
        <ele>324.4</ele>
        <time>2024-04-28T07:14:16Z</time>
      </trkpt>
      <trkpt lat="45.90588" lon="3.38561">
        <ele>324.4</ele>
        <time>2024-04-28T07:14:17Z</time>
      </trkpt>
      <trkpt lat="45.90586" lon="3.38568">
        <ele>324.4</ele>
        <time>2024-04-28T07:14:18Z</time>
      </trkpt>
      <trkpt lat="45.90585" lon="3.38575">
        <ele>324.2</ele>
        <time>2024-04-28T07:14:19Z</time>
      </trkpt>
      <trkpt lat="45.90584" lon="3.38582">
        <ele>324.6</ele>
        <time>2024-04-28T07:14:20Z</time>
      </trkpt>
      <trkpt lat="45.90583" lon="3.38588">
        <ele>324.4</ele>
        <time>2024-04-28T07:14:21Z</time>
      </trkpt>
      <trkpt lat="45.90582" lon="3.38595">
        <ele>324</ele>
        <time>2024-04-28T07:14:22Z</time>
      </trkpt>
      <trkpt lat="45.90581" lon="3.38602">
        <ele>324</ele>
        <time>2024-04-28T07:14:23Z</time>
      </trkpt>
      <trkpt lat="45.9058" lon="3.38608">
        <ele>324</ele>
        <time>2024-04-28T07:14:24Z</time>
      </trkpt>
      <trkpt lat="45.90579" lon="3.38613">
        <ele>323.8</ele>
        <time>2024-04-28T07:14:25Z</time>
      </trkpt>
      <trkpt lat="45.90578" lon="3.3862">
        <ele>323.8</ele>
        <time>2024-04-28T07:14:26Z</time>
      </trkpt>
      <trkpt lat="45.90577" lon="3.38625">
        <ele>323.8</ele>
        <time>2024-04-28T07:14:27Z</time>
      </trkpt>
      <trkpt lat="45.90576" lon="3.38632">
        <ele>323.8</ele>
        <time>2024-04-28T07:14:28Z</time>
      </trkpt>
      <trkpt lat="45.90575" lon="3.38638">
        <ele>323.6</ele>
        <time>2024-04-28T07:14:29Z</time>
      </trkpt>
      <trkpt lat="45.90574" lon="3.38644">
        <ele>323.6</ele>
        <time>2024-04-28T07:14:30Z</time>
      </trkpt>
      <trkpt lat="45.90573" lon="3.3865">
        <ele>323.4</ele>
        <time>2024-04-28T07:14:31Z</time>
      </trkpt>
      <trkpt lat="45.90572" lon="3.38656">
        <ele>323.2</ele>
        <time>2024-04-28T07:14:32Z</time>
      </trkpt>
      <trkpt lat="45.90571" lon="3.38662">
        <ele>323.2</ele>
        <time>2024-04-28T07:14:33Z</time>
      </trkpt>
      <trkpt lat="45.9057" lon="3.38669">
        <ele>323</ele>
        <time>2024-04-28T07:14:34Z</time>
      </trkpt>
      <trkpt lat="45.90569" lon="3.38675">
        <ele>322.8</ele>
        <time>2024-04-28T07:14:35Z</time>
      </trkpt>
      <trkpt lat="45.90568" lon="3.38682">
        <ele>322.6</ele>
        <time>2024-04-28T07:14:36Z</time>
      </trkpt>
      <trkpt lat="45.90567" lon="3.38689">
        <ele>322.6</ele>
        <time>2024-04-28T07:14:37Z</time>
      </trkpt>
      <trkpt lat="45.90566" lon="3.38695">
        <ele>322.4</ele>
        <time>2024-04-28T07:14:38Z</time>
      </trkpt>
      <trkpt lat="45.90565" lon="3.38702">
        <ele>322.2</ele>
        <time>2024-04-28T07:14:39Z</time>
      </trkpt>
      <trkpt lat="45.90564" lon="3.38708">
        <ele>322.2</ele>
        <time>2024-04-28T07:14:40Z</time>
      </trkpt>
      <trkpt lat="45.90563" lon="3.38714">
        <ele>322</ele>
        <time>2024-04-28T07:14:41Z</time>
      </trkpt>
      <trkpt lat="45.90562" lon="3.3872">
        <ele>321.8</ele>
        <time>2024-04-28T07:14:42Z</time>
      </trkpt>
      <trkpt lat="45.90561" lon="3.38726">
        <ele>321.6</ele>
        <time>2024-04-28T07:14:43Z</time>
      </trkpt>
      <trkpt lat="45.9056" lon="3.38731">
        <ele>321.4</ele>
        <time>2024-04-28T07:14:44Z</time>
      </trkpt>
      <trkpt lat="45.90559" lon="3.38738">
        <ele>321.2</ele>
        <time>2024-04-28T07:14:45Z</time>
      </trkpt>
      <trkpt lat="45.90558" lon="3.38743">
        <ele>321</ele>
        <time>2024-04-28T07:14:46Z</time>
      </trkpt>
      <trkpt lat="45.90557" lon="3.38749">
        <ele>320.8</ele>
        <time>2024-04-28T07:14:47Z</time>
      </trkpt>
      <trkpt lat="45.90556" lon="3.38756">
        <ele>320.8</ele>
        <time>2024-04-28T07:14:48Z</time>
      </trkpt>
      <trkpt lat="45.90555" lon="3.38761">
        <ele>320.6</ele>
        <time>2024-04-28T07:14:49Z</time>
      </trkpt>
      <trkpt lat="45.90554" lon="3.38768">
        <ele>320.4</ele>
        <time>2024-04-28T07:14:50Z</time>
      </trkpt>
      <trkpt lat="45.90553" lon="3.38775">
        <ele>320.2</ele>
        <time>2024-04-28T07:14:51Z</time>
      </trkpt>
      <trkpt lat="45.90552" lon="3.38781">
        <ele>320</ele>
        <time>2024-04-28T07:14:52Z</time>
      </trkpt>
      <trkpt lat="45.90551" lon="3.38786">
        <ele>319.8</ele>
        <time>2024-04-28T07:14:53Z</time>
      </trkpt>
      <trkpt lat="45.9055" lon="3.38791">
        <ele>319.8</ele>
        <time>2024-04-28T07:14:54Z</time>
      </trkpt>
      <trkpt lat="45.90549" lon="3.38798">
        <ele>319.6</ele>
        <time>2024-04-28T07:14:55Z</time>
      </trkpt>
      <trkpt lat="45.90548" lon="3.38805">
        <ele>319.8</ele>
        <time>2024-04-28T07:14:56Z</time>
      </trkpt>
      <trkpt lat="45.90548" lon="3.38809">
        <ele>319.8</ele>
        <time>2024-04-28T07:14:57Z</time>
      </trkpt>
      <trkpt lat="45.90547" lon="3.38816">
        <ele>319.8</ele>
        <time>2024-04-28T07:14:58Z</time>
      </trkpt>
      <trkpt lat="45.90548" lon="3.38821">
        <ele>319.8</ele>
        <time>2024-04-28T07:14:59Z</time>
      </trkpt>
      <trkpt lat="45.90548" lon="3.38827">
        <ele>319.8</ele>
        <time>2024-04-28T07:15:00Z</time>
      </trkpt>
      <trkpt lat="45.90548" lon="3.38832">
        <ele>319.8</ele>
        <time>2024-04-28T07:15:01Z</time>
      </trkpt>
      <trkpt lat="45.90549" lon="3.38838">
        <ele>319.6</ele>
        <time>2024-04-28T07:15:02Z</time>
      </trkpt>
      <trkpt lat="45.9055" lon="3.38846">
        <ele>319.6</ele>
        <time>2024-04-28T07:15:03Z</time>
      </trkpt>
      <trkpt lat="45.90551" lon="3.38852">
        <ele>319.4</ele>
        <time>2024-04-28T07:15:04Z</time>
      </trkpt>
      <trkpt lat="45.90553" lon="3.38857">
        <ele>319.2</ele>
        <time>2024-04-28T07:15:05Z</time>
      </trkpt>
      <trkpt lat="45.90554" lon="3.38862">
        <ele>319.2</ele>
        <time>2024-04-28T07:15:06Z</time>
      </trkpt>
      <trkpt lat="45.90555" lon="3.38867">
        <ele>319.2</ele>
        <time>2024-04-28T07:15:07Z</time>
      </trkpt>
      <trkpt lat="45.90556" lon="3.38872">
        <ele>319.4</ele>
        <time>2024-04-28T07:15:08Z</time>
      </trkpt>
      <trkpt lat="45.90558" lon="3.3888">
        <ele>319.4</ele>
        <time>2024-04-28T07:15:09Z</time>
      </trkpt>
      <trkpt lat="45.9056" lon="3.38886">
        <ele>319.4</ele>
        <time>2024-04-28T07:15:10Z</time>
      </trkpt>
      <trkpt lat="45.90561" lon="3.38891">
        <ele>319.4</ele>
        <time>2024-04-28T07:15:11Z</time>
      </trkpt>
      <trkpt lat="45.90563" lon="3.38897">
        <ele>319.4</ele>
        <time>2024-04-28T07:15:12Z</time>
      </trkpt>
      <trkpt lat="45.90564" lon="3.38902">
        <ele>319.2</ele>
        <time>2024-04-28T07:15:13Z</time>
      </trkpt>
      <trkpt lat="45.90565" lon="3.38908">
        <ele>319.2</ele>
        <time>2024-04-28T07:15:14Z</time>
      </trkpt>
      <trkpt lat="45.90567" lon="3.38914">
        <ele>319.2</ele>
        <time>2024-04-28T07:15:15Z</time>
      </trkpt>
      <trkpt lat="45.90568" lon="3.3892">
        <ele>319.4</ele>
        <time>2024-04-28T07:15:16Z</time>
      </trkpt>
      <trkpt lat="45.9057" lon="3.38926">
        <ele>319.6</ele>
        <time>2024-04-28T07:15:17Z</time>
      </trkpt>
      <trkpt lat="45.90572" lon="3.38932">
        <ele>319.4</ele>
        <time>2024-04-28T07:15:18Z</time>
      </trkpt>
      <trkpt lat="45.90573" lon="3.38937">
        <ele>320</ele>
        <time>2024-04-28T07:15:19Z</time>
      </trkpt>
      <trkpt lat="45.90575" lon="3.38943">
        <ele>320</ele>
        <time>2024-04-28T07:15:20Z</time>
      </trkpt>
      <trkpt lat="45.90576" lon="3.38949">
        <ele>320.2</ele>
        <time>2024-04-28T07:15:21Z</time>
      </trkpt>
      <trkpt lat="45.90577" lon="3.38954">
        <ele>320</ele>
        <time>2024-04-28T07:15:22Z</time>
      </trkpt>
      <trkpt lat="45.90579" lon="3.3896">
        <ele>320</ele>
        <time>2024-04-28T07:15:23Z</time>
      </trkpt>
      <trkpt lat="45.9058" lon="3.38965">
        <ele>320.4</ele>
        <time>2024-04-28T07:15:24Z</time>
      </trkpt>
      <trkpt lat="45.90582" lon="3.38971">
        <ele>320.4</ele>
        <time>2024-04-28T07:15:25Z</time>
      </trkpt>
      <trkpt lat="45.90583" lon="3.38976">
        <ele>320.6</ele>
        <time>2024-04-28T07:15:26Z</time>
      </trkpt>
      <trkpt lat="45.90585" lon="3.38982">
        <ele>321.2</ele>
        <time>2024-04-28T07:15:27Z</time>
      </trkpt>
      <trkpt lat="45.90586" lon="3.38988">
        <ele>321.6</ele>
        <time>2024-04-28T07:15:28Z</time>
      </trkpt>
      <trkpt lat="45.90588" lon="3.38994">
        <ele>322.2</ele>
        <time>2024-04-28T07:15:29Z</time>
      </trkpt>
      <trkpt lat="45.9059" lon="3.39005">
        <ele>322.6</ele>
        <time>2024-04-28T07:15:30Z</time>
      </trkpt>
      <trkpt lat="45.9059" lon="3.39014">
        <ele>323</ele>
        <time>2024-04-28T07:15:31Z</time>
      </trkpt>
      <trkpt lat="45.9059" lon="3.39022">
        <ele>323.2</ele>
        <time>2024-04-28T07:15:32Z</time>
      </trkpt>
      <trkpt lat="45.90591" lon="3.39029">
        <ele>323.6</ele>
        <time>2024-04-28T07:15:33Z</time>
      </trkpt>
      <trkpt lat="45.90591" lon="3.39036">
        <ele>323.8</ele>
        <time>2024-04-28T07:15:34Z</time>
      </trkpt>
      <trkpt lat="45.90591" lon="3.39043">
        <ele>324</ele>
        <time>2024-04-28T07:15:35Z</time>
      </trkpt>
      <trkpt lat="45.90591" lon="3.3905">
        <ele>324.4</ele>
        <time>2024-04-28T07:15:36Z</time>
      </trkpt>
      <trkpt lat="45.90591" lon="3.39057">
        <ele>324.6</ele>
        <time>2024-04-28T07:15:37Z</time>
      </trkpt>
      <trkpt lat="45.90591" lon="3.39063">
        <ele>324.8</ele>
        <time>2024-04-28T07:15:38Z</time>
      </trkpt>
      <trkpt lat="45.90591" lon="3.3907">
        <ele>325</ele>
        <time>2024-04-28T07:15:39Z</time>
      </trkpt>
      <trkpt lat="45.90592" lon="3.39077">
        <ele>325.2</ele>
        <time>2024-04-28T07:15:40Z</time>
      </trkpt>
      <trkpt lat="45.90592" lon="3.39084">
        <ele>325.4</ele>
        <time>2024-04-28T07:15:41Z</time>
      </trkpt>
      <trkpt lat="45.90592" lon="3.39091">
        <ele>325.6</ele>
        <time>2024-04-28T07:15:42Z</time>
      </trkpt>
      <trkpt lat="45.90592" lon="3.39098">
        <ele>325.8</ele>
        <time>2024-04-28T07:15:43Z</time>
      </trkpt>
      <trkpt lat="45.90592" lon="3.39105">
        <ele>326</ele>
        <time>2024-04-28T07:15:44Z</time>
      </trkpt>
      <trkpt lat="45.90592" lon="3.39113">
        <ele>326.2</ele>
        <time>2024-04-28T07:15:45Z</time>
      </trkpt>
      <trkpt lat="45.90591" lon="3.3912">
        <ele>326.4</ele>
        <time>2024-04-28T07:15:46Z</time>
      </trkpt>
      <trkpt lat="45.90591" lon="3.39128">
        <ele>326.4</ele>
        <time>2024-04-28T07:15:47Z</time>
      </trkpt>
      <trkpt lat="45.90591" lon="3.39135">
        <ele>326.6</ele>
        <time>2024-04-28T07:15:48Z</time>
      </trkpt>
      <trkpt lat="45.9059" lon="3.39142">
        <ele>326.8</ele>
        <time>2024-04-28T07:15:49Z</time>
      </trkpt>
      <trkpt lat="45.9059" lon="3.3915">
        <ele>327</ele>
        <time>2024-04-28T07:15:50Z</time>
      </trkpt>
      <trkpt lat="45.90589" lon="3.39157">
        <ele>327.2</ele>
        <time>2024-04-28T07:15:51Z</time>
      </trkpt>
      <trkpt lat="45.90589" lon="3.39164">
        <ele>327.4</ele>
        <time>2024-04-28T07:15:52Z</time>
      </trkpt>
      <trkpt lat="45.90588" lon="3.39171">
        <ele>327.6</ele>
        <time>2024-04-28T07:15:53Z</time>
      </trkpt>
      <trkpt lat="45.90588" lon="3.39178">
        <ele>327.8</ele>
        <time>2024-04-28T07:15:54Z</time>
      </trkpt>
      <trkpt lat="45.90587" lon="3.39186">
        <ele>328</ele>
        <time>2024-04-28T07:15:55Z</time>
      </trkpt>
      <trkpt lat="45.90586" lon="3.39192">
        <ele>328</ele>
        <time>2024-04-28T07:15:56Z</time>
      </trkpt>
      <trkpt lat="45.90585" lon="3.39199">
        <ele>328.2</ele>
        <time>2024-04-28T07:15:57Z</time>
      </trkpt>
      <trkpt lat="45.90584" lon="3.39206">
        <ele>328.4</ele>
        <time>2024-04-28T07:15:58Z</time>
      </trkpt>
      <trkpt lat="45.90583" lon="3.39213">
        <ele>328.6</ele>
        <time>2024-04-28T07:15:59Z</time>
      </trkpt>
      <trkpt lat="45.90582" lon="3.3922">
        <ele>328.8</ele>
        <time>2024-04-28T07:16:00Z</time>
      </trkpt>
      <trkpt lat="45.90581" lon="3.39226">
        <ele>329</ele>
        <time>2024-04-28T07:16:01Z</time>
      </trkpt>
      <trkpt lat="45.9058" lon="3.39233">
        <ele>329.2</ele>
        <time>2024-04-28T07:16:02Z</time>
      </trkpt>
      <trkpt lat="45.90579" lon="3.3924">
        <ele>329.4</ele>
        <time>2024-04-28T07:16:03Z</time>
      </trkpt>
      <trkpt lat="45.90578" lon="3.39246">
        <ele>329.6</ele>
        <time>2024-04-28T07:16:04Z</time>
      </trkpt>
      <trkpt lat="45.90577" lon="3.39253">
        <ele>329.8</ele>
        <time>2024-04-28T07:16:05Z</time>
      </trkpt>
      <trkpt lat="45.90576" lon="3.39259">
        <ele>330</ele>
        <time>2024-04-28T07:16:06Z</time>
      </trkpt>
      <trkpt lat="45.90575" lon="3.39266">
        <ele>330.2</ele>
        <time>2024-04-28T07:16:07Z</time>
      </trkpt>
      <trkpt lat="45.90574" lon="3.39272">
        <ele>330.4</ele>
        <time>2024-04-28T07:16:08Z</time>
      </trkpt>
      <trkpt lat="45.90573" lon="3.39279">
        <ele>330.6</ele>
        <time>2024-04-28T07:16:09Z</time>
      </trkpt>
      <trkpt lat="45.90572" lon="3.39285">
        <ele>330.8</ele>
        <time>2024-04-28T07:16:10Z</time>
      </trkpt>
      <trkpt lat="45.90571" lon="3.39292">
        <ele>330.8</ele>
        <time>2024-04-28T07:16:11Z</time>
      </trkpt>
      <trkpt lat="45.9057" lon="3.39298">
        <ele>331</ele>
        <time>2024-04-28T07:16:12Z</time>
      </trkpt>
      <trkpt lat="45.90569" lon="3.39305">
        <ele>331.2</ele>
        <time>2024-04-28T07:16:13Z</time>
      </trkpt>
      <trkpt lat="45.90568" lon="3.39311">
        <ele>331.2</ele>
        <time>2024-04-28T07:16:14Z</time>
      </trkpt>
      <trkpt lat="45.90567" lon="3.39317">
        <ele>331.4</ele>
        <time>2024-04-28T07:16:15Z</time>
      </trkpt>
      <trkpt lat="45.90566" lon="3.39324">
        <ele>331.6</ele>
        <time>2024-04-28T07:16:16Z</time>
      </trkpt>
      <trkpt lat="45.90565" lon="3.3933">
        <ele>331.6</ele>
        <time>2024-04-28T07:16:17Z</time>
      </trkpt>
      <trkpt lat="45.90564" lon="3.39337">
        <ele>331.8</ele>
        <time>2024-04-28T07:16:18Z</time>
      </trkpt>
      <trkpt lat="45.90563" lon="3.39343">
        <ele>332</ele>
        <time>2024-04-28T07:16:19Z</time>
      </trkpt>
      <trkpt lat="45.90562" lon="3.3935">
        <ele>332</ele>
        <time>2024-04-28T07:16:20Z</time>
      </trkpt>
      <trkpt lat="45.90561" lon="3.39356">
        <ele>332.2</ele>
        <time>2024-04-28T07:16:21Z</time>
      </trkpt>
      <trkpt lat="45.9056" lon="3.39363">
        <ele>332.2</ele>
        <time>2024-04-28T07:16:22Z</time>
      </trkpt>
      <trkpt lat="45.90559" lon="3.39369">
        <ele>332.4</ele>
        <time>2024-04-28T07:16:23Z</time>
      </trkpt>
      <trkpt lat="45.90557" lon="3.39376">
        <ele>332.4</ele>
        <time>2024-04-28T07:16:24Z</time>
      </trkpt>
      <trkpt lat="45.90556" lon="3.39382">
        <ele>332.4</ele>
        <time>2024-04-28T07:16:25Z</time>
      </trkpt>
      <trkpt lat="45.90555" lon="3.39389">
        <ele>332.4</ele>
        <time>2024-04-28T07:16:26Z</time>
      </trkpt>
      <trkpt lat="45.90553" lon="3.39396">
        <ele>332.4</ele>
        <time>2024-04-28T07:16:27Z</time>
      </trkpt>
      <trkpt lat="45.90552" lon="3.39403">
        <ele>332.6</ele>
        <time>2024-04-28T07:16:28Z</time>
      </trkpt>
      <trkpt lat="45.9055" lon="3.3941">
        <ele>332.6</ele>
        <time>2024-04-28T07:16:29Z</time>
      </trkpt>
      <trkpt lat="45.90549" lon="3.39417">
        <ele>332.8</ele>
        <time>2024-04-28T07:16:30Z</time>
      </trkpt>
      <trkpt lat="45.90547" lon="3.39424">
        <ele>332.8</ele>
        <time>2024-04-28T07:16:31Z</time>
      </trkpt>
      <trkpt lat="45.90545" lon="3.39431">
        <ele>332.8</ele>
        <time>2024-04-28T07:16:32Z</time>
      </trkpt>
      <trkpt lat="45.90544" lon="3.39439">
        <ele>332.8</ele>
        <time>2024-04-28T07:16:33Z</time>
      </trkpt>
      <trkpt lat="45.90542" lon="3.39446">
        <ele>333</ele>
        <time>2024-04-28T07:16:34Z</time>
      </trkpt>
      <trkpt lat="45.90541" lon="3.39453">
        <ele>333</ele>
        <time>2024-04-28T07:16:35Z</time>
      </trkpt>
      <trkpt lat="45.90539" lon="3.39461">
        <ele>333</ele>
        <time>2024-04-28T07:16:36Z</time>
      </trkpt>
      <trkpt lat="45.90537" lon="3.39469">
        <ele>333</ele>
        <time>2024-04-28T07:16:37Z</time>
      </trkpt>
      <trkpt lat="45.90536" lon="3.39477">
        <ele>333.2</ele>
        <time>2024-04-28T07:16:38Z</time>
      </trkpt>
      <trkpt lat="45.90534" lon="3.39485">
        <ele>333.2</ele>
        <time>2024-04-28T07:16:39Z</time>
      </trkpt>
      <trkpt lat="45.90532" lon="3.39493">
        <ele>333.4</ele>
        <time>2024-04-28T07:16:40Z</time>
      </trkpt>
      <trkpt lat="45.9053" lon="3.39501">
        <ele>333.4</ele>
        <time>2024-04-28T07:16:41Z</time>
      </trkpt>
      <trkpt lat="45.90529" lon="3.39509">
        <ele>333.4</ele>
        <time>2024-04-28T07:16:42Z</time>
      </trkpt>
      <trkpt lat="45.90527" lon="3.39517">
        <ele>333.6</ele>
        <time>2024-04-28T07:16:43Z</time>
      </trkpt>
      <trkpt lat="45.90525" lon="3.39525">
        <ele>333.6</ele>
        <time>2024-04-28T07:16:44Z</time>
      </trkpt>
      <trkpt lat="45.90524" lon="3.39532">
        <ele>333.8</ele>
        <time>2024-04-28T07:16:45Z</time>
      </trkpt>
      <trkpt lat="45.90522" lon="3.3954">
        <ele>333.8</ele>
        <time>2024-04-28T07:16:46Z</time>
      </trkpt>
      <trkpt lat="45.9052" lon="3.39548">
        <ele>333.8</ele>
        <time>2024-04-28T07:16:47Z</time>
      </trkpt>
      <trkpt lat="45.90519" lon="3.39556">
        <ele>333.8</ele>
        <time>2024-04-28T07:16:48Z</time>
      </trkpt>
      <trkpt lat="45.90517" lon="3.39563">
        <ele>333.8</ele>
        <time>2024-04-28T07:16:49Z</time>
      </trkpt>
      <trkpt lat="45.90515" lon="3.39571">
        <ele>333.8</ele>
        <time>2024-04-28T07:16:50Z</time>
      </trkpt>
      <trkpt lat="45.90514" lon="3.39579">
        <ele>333.8</ele>
        <time>2024-04-28T07:16:51Z</time>
      </trkpt>
      <trkpt lat="45.90512" lon="3.39586">
        <ele>334</ele>
        <time>2024-04-28T07:16:52Z</time>
      </trkpt>
      <trkpt lat="45.9051" lon="3.39594">
        <ele>334</ele>
        <time>2024-04-28T07:16:53Z</time>
      </trkpt>
      <trkpt lat="45.90509" lon="3.39602">
        <ele>334</ele>
        <time>2024-04-28T07:16:54Z</time>
      </trkpt>
      <trkpt lat="45.90507" lon="3.3961">
        <ele>334.2</ele>
        <time>2024-04-28T07:16:55Z</time>
      </trkpt>
      <trkpt lat="45.90505" lon="3.39618">
        <ele>334.2</ele>
        <time>2024-04-28T07:16:56Z</time>
      </trkpt>
      <trkpt lat="45.90504" lon="3.39625">
        <ele>334.2</ele>
        <time>2024-04-28T07:16:57Z</time>
      </trkpt>
      <trkpt lat="45.90502" lon="3.39633">
        <ele>334.2</ele>
        <time>2024-04-28T07:16:58Z</time>
      </trkpt>
      <trkpt lat="45.905" lon="3.39641">
        <ele>334.2</ele>
        <time>2024-04-28T07:16:59Z</time>
      </trkpt>
      <trkpt lat="45.90499" lon="3.39649">
        <ele>334.2</ele>
        <time>2024-04-28T07:17:00Z</time>
      </trkpt>
      <trkpt lat="45.90499" lon="3.39657">
        <ele>334.2</ele>
        <time>2024-04-28T07:17:01Z</time>
      </trkpt>
      <trkpt lat="45.90498" lon="3.39666">
        <ele>334.2</ele>
        <time>2024-04-28T07:17:02Z</time>
      </trkpt>
      <trkpt lat="45.90497" lon="3.39674">
        <ele>334.2</ele>
        <time>2024-04-28T07:17:03Z</time>
      </trkpt>
      <trkpt lat="45.90496" lon="3.39683">
        <ele>334.2</ele>
        <time>2024-04-28T07:17:04Z</time>
      </trkpt>
      <trkpt lat="45.90496" lon="3.39692">
        <ele>334.2</ele>
        <time>2024-04-28T07:17:05Z</time>
      </trkpt>
      <trkpt lat="45.90497" lon="3.39701">
        <ele>334.2</ele>
        <time>2024-04-28T07:17:06Z</time>
      </trkpt>
      <trkpt lat="45.90497" lon="3.3971">
        <ele>334.2</ele>
        <time>2024-04-28T07:17:07Z</time>
      </trkpt>
      <trkpt lat="45.90498" lon="3.39719">
        <ele>334.2</ele>
        <time>2024-04-28T07:17:08Z</time>
      </trkpt>
      <trkpt lat="45.90499" lon="3.39727">
        <ele>334.4</ele>
        <time>2024-04-28T07:17:09Z</time>
      </trkpt>
      <trkpt lat="45.905" lon="3.39736">
        <ele>334.4</ele>
        <time>2024-04-28T07:17:10Z</time>
      </trkpt>
      <trkpt lat="45.905" lon="3.39745">
        <ele>334.4</ele>
        <time>2024-04-28T07:17:11Z</time>
      </trkpt>
      <trkpt lat="45.90501" lon="3.39754">
        <ele>334.4</ele>
        <time>2024-04-28T07:17:12Z</time>
      </trkpt>
      <trkpt lat="45.90502" lon="3.39763">
        <ele>334.6</ele>
        <time>2024-04-28T07:17:13Z</time>
      </trkpt>
      <trkpt lat="45.90502" lon="3.39772">
        <ele>334.6</ele>
        <time>2024-04-28T07:17:14Z</time>
      </trkpt>
      <trkpt lat="45.90503" lon="3.39781">
        <ele>334.6</ele>
        <time>2024-04-28T07:17:15Z</time>
      </trkpt>
      <trkpt lat="45.90504" lon="3.39789">
        <ele>334.8</ele>
        <time>2024-04-28T07:17:16Z</time>
      </trkpt>
      <trkpt lat="45.90505" lon="3.39798">
        <ele>334.8</ele>
        <time>2024-04-28T07:17:17Z</time>
      </trkpt>
      <trkpt lat="45.90505" lon="3.39807">
        <ele>335</ele>
        <time>2024-04-28T07:17:18Z</time>
      </trkpt>
      <trkpt lat="45.90506" lon="3.39815">
        <ele>335</ele>
        <time>2024-04-28T07:17:19Z</time>
      </trkpt>
      <trkpt lat="45.90507" lon="3.39823">
        <ele>335.2</ele>
        <time>2024-04-28T07:17:20Z</time>
      </trkpt>
      <trkpt lat="45.90507" lon="3.39832">
        <ele>335.2</ele>
        <time>2024-04-28T07:17:21Z</time>
      </trkpt>
      <trkpt lat="45.90508" lon="3.39839">
        <ele>335.4</ele>
        <time>2024-04-28T07:17:22Z</time>
      </trkpt>
      <trkpt lat="45.90508" lon="3.39847">
        <ele>335.6</ele>
        <time>2024-04-28T07:17:23Z</time>
      </trkpt>
      <trkpt lat="45.90509" lon="3.39855">
        <ele>335.6</ele>
        <time>2024-04-28T07:17:24Z</time>
      </trkpt>
      <trkpt lat="45.9051" lon="3.39863">
        <ele>335.8</ele>
        <time>2024-04-28T07:17:25Z</time>
      </trkpt>
      <trkpt lat="45.9051" lon="3.3987">
        <ele>335.8</ele>
        <time>2024-04-28T07:17:26Z</time>
      </trkpt>
      <trkpt lat="45.90511" lon="3.39878">
        <ele>336</ele>
        <time>2024-04-28T07:17:27Z</time>
      </trkpt>
      <trkpt lat="45.90512" lon="3.39885">
        <ele>336.2</ele>
        <time>2024-04-28T07:17:28Z</time>
      </trkpt>
      <trkpt lat="45.90512" lon="3.39893">
        <ele>336.4</ele>
        <time>2024-04-28T07:17:29Z</time>
      </trkpt>
      <trkpt lat="45.90513" lon="3.399">
        <ele>336.6</ele>
        <time>2024-04-28T07:17:30Z</time>
      </trkpt>
      <trkpt lat="45.90513" lon="3.39908">
        <ele>336.6</ele>
        <time>2024-04-28T07:17:31Z</time>
      </trkpt>
      <trkpt lat="45.90514" lon="3.39916">
        <ele>336.8</ele>
        <time>2024-04-28T07:17:32Z</time>
      </trkpt>
      <trkpt lat="45.90514" lon="3.39923">
        <ele>337</ele>
        <time>2024-04-28T07:17:33Z</time>
      </trkpt>
      <trkpt lat="45.90515" lon="3.39931">
        <ele>337.2</ele>
        <time>2024-04-28T07:17:34Z</time>
      </trkpt>
      <trkpt lat="45.90515" lon="3.39939">
        <ele>337.2</ele>
        <time>2024-04-28T07:17:35Z</time>
      </trkpt>
      <trkpt lat="45.90516" lon="3.39947">
        <ele>337.4</ele>
        <time>2024-04-28T07:17:36Z</time>
      </trkpt>
      <trkpt lat="45.90516" lon="3.39955">
        <ele>337.6</ele>
        <time>2024-04-28T07:17:37Z</time>
      </trkpt>
      <trkpt lat="45.90517" lon="3.39963">
        <ele>337.6</ele>
        <time>2024-04-28T07:17:38Z</time>
      </trkpt>
      <trkpt lat="45.90516" lon="3.39971">
        <ele>337.8</ele>
        <time>2024-04-28T07:17:39Z</time>
      </trkpt>
      <trkpt lat="45.90516" lon="3.39979">
        <ele>337.8</ele>
        <time>2024-04-28T07:17:40Z</time>
      </trkpt>
      <trkpt lat="45.90515" lon="3.39986">
        <ele>338</ele>
        <time>2024-04-28T07:17:41Z</time>
      </trkpt>
      <trkpt lat="45.90514" lon="3.39994">
        <ele>338.2</ele>
        <time>2024-04-28T07:17:42Z</time>
      </trkpt>
      <trkpt lat="45.90513" lon="3.40002">
        <ele>338.2</ele>
        <time>2024-04-28T07:17:43Z</time>
      </trkpt>
      <trkpt lat="45.90512" lon="3.40009">
        <ele>338.4</ele>
        <time>2024-04-28T07:17:44Z</time>
      </trkpt>
      <trkpt lat="45.90512" lon="3.40017">
        <ele>338.4</ele>
        <time>2024-04-28T07:17:45Z</time>
      </trkpt>
      <trkpt lat="45.90511" lon="3.40024">
        <ele>338.6</ele>
        <time>2024-04-28T07:17:46Z</time>
      </trkpt>
      <trkpt lat="45.90509" lon="3.40031">
        <ele>338.8</ele>
        <time>2024-04-28T07:17:47Z</time>
      </trkpt>
      <trkpt lat="45.90507" lon="3.40039">
        <ele>338.8</ele>
        <time>2024-04-28T07:17:48Z</time>
      </trkpt>
      <trkpt lat="45.90505" lon="3.40046">
        <ele>339</ele>
        <time>2024-04-28T07:17:49Z</time>
      </trkpt>
      <trkpt lat="45.90503" lon="3.40053">
        <ele>339</ele>
        <time>2024-04-28T07:17:50Z</time>
      </trkpt>
      <trkpt lat="45.90502" lon="3.4006">
        <ele>339.2</ele>
        <time>2024-04-28T07:17:51Z</time>
      </trkpt>
      <trkpt lat="45.905" lon="3.40067">
        <ele>339.4</ele>
        <time>2024-04-28T07:17:52Z</time>
      </trkpt>
      <trkpt lat="45.90498" lon="3.40074">
        <ele>339.6</ele>
        <time>2024-04-28T07:17:53Z</time>
      </trkpt>
      <trkpt lat="45.90496" lon="3.40082">
        <ele>339.6</ele>
        <time>2024-04-28T07:17:54Z</time>
      </trkpt>
      <trkpt lat="45.90494" lon="3.40089">
        <ele>339.8</ele>
        <time>2024-04-28T07:17:55Z</time>
      </trkpt>
      <trkpt lat="45.90492" lon="3.40096">
        <ele>340</ele>
        <time>2024-04-28T07:17:56Z</time>
      </trkpt>
      <trkpt lat="45.9049" lon="3.40103">
        <ele>340</ele>
        <time>2024-04-28T07:17:57Z</time>
      </trkpt>
      <trkpt lat="45.90488" lon="3.4011">
        <ele>340.2</ele>
        <time>2024-04-28T07:17:58Z</time>
      </trkpt>
      <trkpt lat="45.90486" lon="3.40118">
        <ele>340.4</ele>
        <time>2024-04-28T07:17:59Z</time>
      </trkpt>
      <trkpt lat="45.90484" lon="3.40125">
        <ele>340.4</ele>
        <time>2024-04-28T07:18:00Z</time>
      </trkpt>
      <trkpt lat="45.90482" lon="3.40132">
        <ele>340.6</ele>
        <time>2024-04-28T07:18:01Z</time>
      </trkpt>
      <trkpt lat="45.9048" lon="3.40139">
        <ele>340.8</ele>
        <time>2024-04-28T07:18:02Z</time>
      </trkpt>
      <trkpt lat="45.90478" lon="3.40146">
        <ele>341</ele>
        <time>2024-04-28T07:18:03Z</time>
      </trkpt>
      <trkpt lat="45.90476" lon="3.40154">
        <ele>341</ele>
        <time>2024-04-28T07:18:04Z</time>
      </trkpt>
      <trkpt lat="45.90474" lon="3.40161">
        <ele>341.2</ele>
        <time>2024-04-28T07:18:05Z</time>
      </trkpt>
      <trkpt lat="45.90472" lon="3.40168">
        <ele>341.4</ele>
        <time>2024-04-28T07:18:06Z</time>
      </trkpt>
      <trkpt lat="45.9047" lon="3.40175">
        <ele>341.4</ele>
        <time>2024-04-28T07:18:07Z</time>
      </trkpt>
      <trkpt lat="45.90468" lon="3.40182">
        <ele>341.6</ele>
        <time>2024-04-28T07:18:08Z</time>
      </trkpt>
      <trkpt lat="45.90466" lon="3.40189">
        <ele>341.8</ele>
        <time>2024-04-28T07:18:09Z</time>
      </trkpt>
      <trkpt lat="45.90464" lon="3.40196">
        <ele>341.8</ele>
        <time>2024-04-28T07:18:10Z</time>
      </trkpt>
      <trkpt lat="45.90462" lon="3.40203">
        <ele>342</ele>
        <time>2024-04-28T07:18:11Z</time>
      </trkpt>
      <trkpt lat="45.9046" lon="3.4021">
        <ele>342.2</ele>
        <time>2024-04-28T07:18:12Z</time>
      </trkpt>
      <trkpt lat="45.90458" lon="3.40217">
        <ele>342.2</ele>
        <time>2024-04-28T07:18:13Z</time>
      </trkpt>
      <trkpt lat="45.90456" lon="3.40224">
        <ele>342.4</ele>
        <time>2024-04-28T07:18:14Z</time>
      </trkpt>
      <trkpt lat="45.90454" lon="3.40231">
        <ele>342.6</ele>
        <time>2024-04-28T07:18:15Z</time>
      </trkpt>
      <trkpt lat="45.90452" lon="3.40238">
        <ele>342.6</ele>
        <time>2024-04-28T07:18:16Z</time>
      </trkpt>
      <trkpt lat="45.9045" lon="3.40246">
        <ele>342.8</ele>
        <time>2024-04-28T07:18:17Z</time>
      </trkpt>
      <trkpt lat="45.90448" lon="3.40253">
        <ele>342.8</ele>
        <time>2024-04-28T07:18:18Z</time>
      </trkpt>
      <trkpt lat="45.90446" lon="3.4026">
        <ele>343</ele>
        <time>2024-04-28T07:18:19Z</time>
      </trkpt>
      <trkpt lat="45.90445" lon="3.40267">
        <ele>343</ele>
        <time>2024-04-28T07:18:20Z</time>
      </trkpt>
      <trkpt lat="45.90443" lon="3.40274">
        <ele>343.2</ele>
        <time>2024-04-28T07:18:21Z</time>
      </trkpt>
      <trkpt lat="45.90441" lon="3.40281">
        <ele>343.2</ele>
        <time>2024-04-28T07:18:22Z</time>
      </trkpt>
      <trkpt lat="45.90439" lon="3.40289">
        <ele>343.4</ele>
        <time>2024-04-28T07:18:23Z</time>
      </trkpt>
      <trkpt lat="45.90437" lon="3.40296">
        <ele>343.4</ele>
        <time>2024-04-28T07:18:24Z</time>
      </trkpt>
      <trkpt lat="45.90435" lon="3.40303">
        <ele>343.6</ele>
        <time>2024-04-28T07:18:25Z</time>
      </trkpt>
      <trkpt lat="45.90432" lon="3.40311">
        <ele>343.6</ele>
        <time>2024-04-28T07:18:26Z</time>
      </trkpt>
      <trkpt lat="45.9043" lon="3.40318">
        <ele>343.8</ele>
        <time>2024-04-28T07:18:27Z</time>
      </trkpt>
      <trkpt lat="45.90428" lon="3.40325">
        <ele>343.8</ele>
        <time>2024-04-28T07:18:28Z</time>
      </trkpt>
      <trkpt lat="45.90426" lon="3.40332">
        <ele>344</ele>
        <time>2024-04-28T07:18:29Z</time>
      </trkpt>
      <trkpt lat="45.90424" lon="3.4034">
        <ele>344</ele>
        <time>2024-04-28T07:18:30Z</time>
      </trkpt>
      <trkpt lat="45.90421" lon="3.40347">
        <ele>344.2</ele>
        <time>2024-04-28T07:18:31Z</time>
      </trkpt>
      <trkpt lat="45.90419" lon="3.40355">
        <ele>344.2</ele>
        <time>2024-04-28T07:18:32Z</time>
      </trkpt>
      <trkpt lat="45.90417" lon="3.40362">
        <ele>344.4</ele>
        <time>2024-04-28T07:18:33Z</time>
      </trkpt>
      <trkpt lat="45.90414" lon="3.40371">
        <ele>344.4</ele>
        <time>2024-04-28T07:18:34Z</time>
      </trkpt>
      <trkpt lat="45.9041" lon="3.40377">
        <ele>344.6</ele>
        <time>2024-04-28T07:18:35Z</time>
      </trkpt>
      <trkpt lat="45.90406" lon="3.40383">
        <ele>344.6</ele>
        <time>2024-04-28T07:18:36Z</time>
      </trkpt>
      <trkpt lat="45.90402" lon="3.40389">
        <ele>344.8</ele>
        <time>2024-04-28T07:18:37Z</time>
      </trkpt>
      <trkpt lat="45.90398" lon="3.40395">
        <ele>344.8</ele>
        <time>2024-04-28T07:18:38Z</time>
      </trkpt>
      <trkpt lat="45.90394" lon="3.40401">
        <ele>345</ele>
        <time>2024-04-28T07:18:39Z</time>
      </trkpt>
      <trkpt lat="45.9039" lon="3.40406">
        <ele>345.2</ele>
        <time>2024-04-28T07:18:40Z</time>
      </trkpt>
      <trkpt lat="45.90386" lon="3.40412">
        <ele>345.2</ele>
        <time>2024-04-28T07:18:41Z</time>
      </trkpt>
      <trkpt lat="45.90382" lon="3.40418">
        <ele>345.2</ele>
        <time>2024-04-28T07:18:42Z</time>
      </trkpt>
      <trkpt lat="45.90378" lon="3.40425">
        <ele>345.4</ele>
        <time>2024-04-28T07:18:43Z</time>
      </trkpt>
      <trkpt lat="45.90374" lon="3.40431">
        <ele>345.4</ele>
        <time>2024-04-28T07:18:44Z</time>
      </trkpt>
      <trkpt lat="45.9037" lon="3.40437">
        <ele>345.4</ele>
        <time>2024-04-28T07:18:45Z</time>
      </trkpt>
      <trkpt lat="45.90366" lon="3.40443">
        <ele>345.6</ele>
        <time>2024-04-28T07:18:46Z</time>
      </trkpt>
      <trkpt lat="45.90362" lon="3.40449">
        <ele>345.6</ele>
        <time>2024-04-28T07:18:47Z</time>
      </trkpt>
      <trkpt lat="45.90358" lon="3.40455">
        <ele>345.8</ele>
        <time>2024-04-28T07:18:48Z</time>
      </trkpt>
      <trkpt lat="45.90354" lon="3.40461">
        <ele>345.8</ele>
        <time>2024-04-28T07:18:49Z</time>
      </trkpt>
      <trkpt lat="45.9035" lon="3.40467">
        <ele>345.8</ele>
        <time>2024-04-28T07:18:50Z</time>
      </trkpt>
      <trkpt lat="45.90346" lon="3.40473">
        <ele>345.8</ele>
        <time>2024-04-28T07:18:51Z</time>
      </trkpt>
      <trkpt lat="45.90342" lon="3.40479">
        <ele>346</ele>
        <time>2024-04-28T07:18:52Z</time>
      </trkpt>
      <trkpt lat="45.90338" lon="3.40485">
        <ele>346.2</ele>
        <time>2024-04-28T07:18:53Z</time>
      </trkpt>
      <trkpt lat="45.90334" lon="3.40491">
        <ele>346.2</ele>
        <time>2024-04-28T07:18:54Z</time>
      </trkpt>
      <trkpt lat="45.9033" lon="3.40497">
        <ele>346.4</ele>
        <time>2024-04-28T07:18:55Z</time>
      </trkpt>
      <trkpt lat="45.90326" lon="3.40503">
        <ele>346.4</ele>
        <time>2024-04-28T07:18:56Z</time>
      </trkpt>
      <trkpt lat="45.90322" lon="3.40508">
        <ele>346.4</ele>
        <time>2024-04-28T07:18:57Z</time>
      </trkpt>
      <trkpt lat="45.90318" lon="3.40514">
        <ele>346.6</ele>
        <time>2024-04-28T07:18:58Z</time>
      </trkpt>
      <trkpt lat="45.90314" lon="3.4052">
        <ele>346.6</ele>
        <time>2024-04-28T07:18:59Z</time>
      </trkpt>
      <trkpt lat="45.9031" lon="3.40526">
        <ele>346.8</ele>
        <time>2024-04-28T07:19:00Z</time>
      </trkpt>
      <trkpt lat="45.90306" lon="3.40532">
        <ele>346.8</ele>
        <time>2024-04-28T07:19:01Z</time>
      </trkpt>
      <trkpt lat="45.90303" lon="3.40538">
        <ele>347</ele>
        <time>2024-04-28T07:19:02Z</time>
      </trkpt>
      <trkpt lat="45.90299" lon="3.40544">
        <ele>347</ele>
        <time>2024-04-28T07:19:03Z</time>
      </trkpt>
      <trkpt lat="45.90295" lon="3.4055">
        <ele>347</ele>
        <time>2024-04-28T07:19:04Z</time>
      </trkpt>
      <trkpt lat="45.90291" lon="3.40556">
        <ele>347.2</ele>
        <time>2024-04-28T07:19:05Z</time>
      </trkpt>
      <trkpt lat="45.90287" lon="3.40561">
        <ele>347.2</ele>
        <time>2024-04-28T07:19:06Z</time>
      </trkpt>
      <trkpt lat="45.90283" lon="3.40567">
        <ele>347.4</ele>
        <time>2024-04-28T07:19:07Z</time>
      </trkpt>
      <trkpt lat="45.90279" lon="3.40573">
        <ele>347.4</ele>
        <time>2024-04-28T07:19:08Z</time>
      </trkpt>
      <trkpt lat="45.90275" lon="3.40579">
        <ele>347.4</ele>
        <time>2024-04-28T07:19:09Z</time>
      </trkpt>
      <trkpt lat="45.90271" lon="3.40585">
        <ele>347.6</ele>
        <time>2024-04-28T07:19:10Z</time>
      </trkpt>
      <trkpt lat="45.90267" lon="3.40591">
        <ele>347.6</ele>
        <time>2024-04-28T07:19:11Z</time>
      </trkpt>
      <trkpt lat="45.90263" lon="3.40596">
        <ele>347.6</ele>
        <time>2024-04-28T07:19:12Z</time>
      </trkpt>
      <trkpt lat="45.90259" lon="3.40602">
        <ele>347.8</ele>
        <time>2024-04-28T07:19:13Z</time>
      </trkpt>
      <trkpt lat="45.90255" lon="3.40608">
        <ele>347.8</ele>
        <time>2024-04-28T07:19:14Z</time>
      </trkpt>
      <trkpt lat="45.9025" lon="3.40613">
        <ele>348</ele>
        <time>2024-04-28T07:19:15Z</time>
      </trkpt>
      <trkpt lat="45.90246" lon="3.40619">
        <ele>348</ele>
        <time>2024-04-28T07:19:16Z</time>
      </trkpt>
      <trkpt lat="45.90242" lon="3.40625">
        <ele>348</ele>
        <time>2024-04-28T07:19:17Z</time>
      </trkpt>
      <trkpt lat="45.90237" lon="3.40631">
        <ele>348</ele>
        <time>2024-04-28T07:19:18Z</time>
      </trkpt>
      <trkpt lat="45.90233" lon="3.40637">
        <ele>348.2</ele>
        <time>2024-04-28T07:19:19Z</time>
      </trkpt>
      <trkpt lat="45.90228" lon="3.40644">
        <ele>348.2</ele>
        <time>2024-04-28T07:19:20Z</time>
      </trkpt>
      <trkpt lat="45.90224" lon="3.4065">
        <ele>348.2</ele>
        <time>2024-04-28T07:19:21Z</time>
      </trkpt>
      <trkpt lat="45.90219" lon="3.40656">
        <ele>348.4</ele>
        <time>2024-04-28T07:19:22Z</time>
      </trkpt>
      <trkpt lat="45.90215" lon="3.40662">
        <ele>348.4</ele>
        <time>2024-04-28T07:19:23Z</time>
      </trkpt>
      <trkpt lat="45.90211" lon="3.40668">
        <ele>348.4</ele>
        <time>2024-04-28T07:19:24Z</time>
      </trkpt>
      <trkpt lat="45.90206" lon="3.40674">
        <ele>348.6</ele>
        <time>2024-04-28T07:19:25Z</time>
      </trkpt>
      <trkpt lat="45.90202" lon="3.4068">
        <ele>348.6</ele>
        <time>2024-04-28T07:19:26Z</time>
      </trkpt>
      <trkpt lat="45.90197" lon="3.40686">
        <ele>348.6</ele>
        <time>2024-04-28T07:19:27Z</time>
      </trkpt>
      <trkpt lat="45.90193" lon="3.40692">
        <ele>348.6</ele>
        <time>2024-04-28T07:19:28Z</time>
      </trkpt>
      <trkpt lat="45.90189" lon="3.40698">
        <ele>348.8</ele>
        <time>2024-04-28T07:19:29Z</time>
      </trkpt>
      <trkpt lat="45.90184" lon="3.40703">
        <ele>348.8</ele>
        <time>2024-04-28T07:19:30Z</time>
      </trkpt>
      <trkpt lat="45.9018" lon="3.4071">
        <ele>349</ele>
        <time>2024-04-28T07:19:31Z</time>
      </trkpt>
      <trkpt lat="45.90177" lon="3.40717">
        <ele>349</ele>
        <time>2024-04-28T07:19:32Z</time>
      </trkpt>
      <trkpt lat="45.90174" lon="3.40724">
        <ele>349</ele>
        <time>2024-04-28T07:19:33Z</time>
      </trkpt>
      <trkpt lat="45.90171" lon="3.40731">
        <ele>349.2</ele>
        <time>2024-04-28T07:19:34Z</time>
      </trkpt>
      <trkpt lat="45.90168" lon="3.40738">
        <ele>349.2</ele>
        <time>2024-04-28T07:19:35Z</time>
      </trkpt>
      <trkpt lat="45.90164" lon="3.40746">
        <ele>349.2</ele>
        <time>2024-04-28T07:19:36Z</time>
      </trkpt>
      <trkpt lat="45.90161" lon="3.40753">
        <ele>349.2</ele>
        <time>2024-04-28T07:19:37Z</time>
      </trkpt>
      <trkpt lat="45.90158" lon="3.40761">
        <ele>349.4</ele>
        <time>2024-04-28T07:19:38Z</time>
      </trkpt>
      <trkpt lat="45.90154" lon="3.40769">
        <ele>349.4</ele>
        <time>2024-04-28T07:19:39Z</time>
      </trkpt>
      <trkpt lat="45.90151" lon="3.40776">
        <ele>349.4</ele>
        <time>2024-04-28T07:19:40Z</time>
      </trkpt>
      <trkpt lat="45.90148" lon="3.40784">
        <ele>349.4</ele>
        <time>2024-04-28T07:19:41Z</time>
      </trkpt>
      <trkpt lat="45.90144" lon="3.40792">
        <ele>349.6</ele>
        <time>2024-04-28T07:19:42Z</time>
      </trkpt>
      <trkpt lat="45.90141" lon="3.408">
        <ele>349.6</ele>
        <time>2024-04-28T07:19:43Z</time>
      </trkpt>
      <trkpt lat="45.90138" lon="3.40807">
        <ele>349.6</ele>
        <time>2024-04-28T07:19:44Z</time>
      </trkpt>
      <trkpt lat="45.90135" lon="3.40815">
        <ele>349.6</ele>
        <time>2024-04-28T07:19:45Z</time>
      </trkpt>
      <trkpt lat="45.90131" lon="3.40822">
        <ele>349.6</ele>
        <time>2024-04-28T07:19:46Z</time>
      </trkpt>
      <trkpt lat="45.90128" lon="3.4083">
        <ele>349.8</ele>
        <time>2024-04-28T07:19:47Z</time>
      </trkpt>
      <trkpt lat="45.90125" lon="3.40837">
        <ele>349.8</ele>
        <time>2024-04-28T07:19:48Z</time>
      </trkpt>
      <trkpt lat="45.90122" lon="3.40845">
        <ele>349.8</ele>
        <time>2024-04-28T07:19:49Z</time>
      </trkpt>
      <trkpt lat="45.90118" lon="3.40852">
        <ele>349.8</ele>
        <time>2024-04-28T07:19:50Z</time>
      </trkpt>
      <trkpt lat="45.90115" lon="3.4086">
        <ele>349.8</ele>
        <time>2024-04-28T07:19:51Z</time>
      </trkpt>
      <trkpt lat="45.90112" lon="3.40867">
        <ele>349.8</ele>
        <time>2024-04-28T07:19:52Z</time>
      </trkpt>
      <trkpt lat="45.90109" lon="3.40875">
        <ele>350</ele>
        <time>2024-04-28T07:19:53Z</time>
      </trkpt>
      <trkpt lat="45.90106" lon="3.40882">
        <ele>350</ele>
        <time>2024-04-28T07:19:54Z</time>
      </trkpt>
      <trkpt lat="45.90102" lon="3.4089">
        <ele>350</ele>
        <time>2024-04-28T07:19:55Z</time>
      </trkpt>
      <trkpt lat="45.90099" lon="3.40897">
        <ele>350</ele>
        <time>2024-04-28T07:19:56Z</time>
      </trkpt>
      <trkpt lat="45.90096" lon="3.40905">
        <ele>350</ele>
        <time>2024-04-28T07:19:57Z</time>
      </trkpt>
      <trkpt lat="45.90092" lon="3.40913">
        <ele>350</ele>
        <time>2024-04-28T07:19:58Z</time>
      </trkpt>
      <trkpt lat="45.90089" lon="3.40921">
        <ele>350</ele>
        <time>2024-04-28T07:19:59Z</time>
      </trkpt>
      <trkpt lat="45.90085" lon="3.40929">
        <ele>350</ele>
        <time>2024-04-28T07:20:00Z</time>
      </trkpt>
      <trkpt lat="45.90081" lon="3.40937">
        <ele>350</ele>
        <time>2024-04-28T07:20:01Z</time>
      </trkpt>
      <trkpt lat="45.90077" lon="3.40945">
        <ele>350</ele>
        <time>2024-04-28T07:20:02Z</time>
      </trkpt>
      <trkpt lat="45.90073" lon="3.40953">
        <ele>350</ele>
        <time>2024-04-28T07:20:03Z</time>
      </trkpt>
      <trkpt lat="45.90069" lon="3.40961">
        <ele>350</ele>
        <time>2024-04-28T07:20:04Z</time>
      </trkpt>
      <trkpt lat="45.90064" lon="3.40969">
        <ele>350</ele>
        <time>2024-04-28T07:20:05Z</time>
      </trkpt>
      <trkpt lat="45.9006" lon="3.40977">
        <ele>350</ele>
        <time>2024-04-28T07:20:06Z</time>
      </trkpt>
      <trkpt lat="45.90056" lon="3.40985">
        <ele>350</ele>
        <time>2024-04-28T07:20:07Z</time>
      </trkpt>
      <trkpt lat="45.90051" lon="3.40993">
        <ele>350</ele>
        <time>2024-04-28T07:20:08Z</time>
      </trkpt>
      <trkpt lat="45.90046" lon="3.40999">
        <ele>350</ele>
        <time>2024-04-28T07:20:09Z</time>
      </trkpt>
      <trkpt lat="45.90041" lon="3.41006">
        <ele>350</ele>
        <time>2024-04-28T07:20:10Z</time>
      </trkpt>
      <trkpt lat="45.90037" lon="3.41013">
        <ele>350</ele>
        <time>2024-04-28T07:20:11Z</time>
      </trkpt>
      <trkpt lat="45.90032" lon="3.41019">
        <ele>350.2</ele>
        <time>2024-04-28T07:20:12Z</time>
      </trkpt>
      <trkpt lat="45.90027" lon="3.41026">
        <ele>349.8</ele>
        <time>2024-04-28T07:20:13Z</time>
      </trkpt>
      <trkpt lat="45.90022" lon="3.41032">
        <ele>349.6</ele>
        <time>2024-04-28T07:20:14Z</time>
      </trkpt>
      <trkpt lat="45.90018" lon="3.41039">
        <ele>349.8</ele>
        <time>2024-04-28T07:20:15Z</time>
      </trkpt>
      <trkpt lat="45.90013" lon="3.41045">
        <ele>349.8</ele>
        <time>2024-04-28T07:20:16Z</time>
      </trkpt>
      <trkpt lat="45.90008" lon="3.41052">
        <ele>349.6</ele>
        <time>2024-04-28T07:20:17Z</time>
      </trkpt>
      <trkpt lat="45.90003" lon="3.41058">
        <ele>349.6</ele>
        <time>2024-04-28T07:20:18Z</time>
      </trkpt>
      <trkpt lat="45.89999" lon="3.41065">
        <ele>349.6</ele>
        <time>2024-04-28T07:20:19Z</time>
      </trkpt>
      <trkpt lat="45.89994" lon="3.41071">
        <ele>349.4</ele>
        <time>2024-04-28T07:20:20Z</time>
      </trkpt>
      <trkpt lat="45.89989" lon="3.41078">
        <ele>349.4</ele>
        <time>2024-04-28T07:20:21Z</time>
      </trkpt>
      <trkpt lat="45.89985" lon="3.41085">
        <ele>349.2</ele>
        <time>2024-04-28T07:20:22Z</time>
      </trkpt>
      <trkpt lat="45.89981" lon="3.41093">
        <ele>349.2</ele>
        <time>2024-04-28T07:20:23Z</time>
      </trkpt>
      <trkpt lat="45.89977" lon="3.411">
        <ele>349</ele>
        <time>2024-04-28T07:20:24Z</time>
      </trkpt>
      <trkpt lat="45.89973" lon="3.41108">
        <ele>349</ele>
        <time>2024-04-28T07:20:25Z</time>
      </trkpt>
      <trkpt lat="45.8997" lon="3.41115">
        <ele>348.8</ele>
        <time>2024-04-28T07:20:26Z</time>
      </trkpt>
      <trkpt lat="45.89966" lon="3.41122">
        <ele>348.8</ele>
        <time>2024-04-28T07:20:27Z</time>
      </trkpt>
      <trkpt lat="45.89962" lon="3.4113">
        <ele>348.6</ele>
        <time>2024-04-28T07:20:28Z</time>
      </trkpt>
      <trkpt lat="45.89959" lon="3.41137">
        <ele>348.6</ele>
        <time>2024-04-28T07:20:29Z</time>
      </trkpt>
      <trkpt lat="45.89955" lon="3.41144">
        <ele>348.4</ele>
        <time>2024-04-28T07:20:30Z</time>
      </trkpt>
      <trkpt lat="45.89951" lon="3.41152">
        <ele>348.4</ele>
        <time>2024-04-28T07:20:31Z</time>
      </trkpt>
      <trkpt lat="45.89948" lon="3.41159">
        <ele>348.2</ele>
        <time>2024-04-28T07:20:32Z</time>
      </trkpt>
      <trkpt lat="45.89945" lon="3.41166">
        <ele>348.2</ele>
        <time>2024-04-28T07:20:33Z</time>
      </trkpt>
      <trkpt lat="45.89934" lon="3.4117">
        <ele>348.2</ele>
        <time>2024-04-28T07:20:34Z</time>
      </trkpt>
      <trkpt lat="45.89929" lon="3.41169">
        <ele>348.2</ele>
        <time>2024-04-28T07:20:35Z</time>
      </trkpt>
      <trkpt lat="45.89922" lon="3.41171">
        <ele>348.2</ele>
        <time>2024-04-28T07:20:36Z</time>
      </trkpt>
      <trkpt lat="45.89915" lon="3.41173">
        <ele>348.2</ele>
        <time>2024-04-28T07:20:37Z</time>
      </trkpt>
      <trkpt lat="45.89909" lon="3.41176">
        <ele>348.2</ele>
        <time>2024-04-28T07:20:38Z</time>
      </trkpt>
      <trkpt lat="45.89903" lon="3.41179">
        <ele>348.2</ele>
        <time>2024-04-28T07:20:39Z</time>
      </trkpt>
      <trkpt lat="45.89897" lon="3.41181">
        <ele>348.2</ele>
        <time>2024-04-28T07:20:40Z</time>
      </trkpt>
      <trkpt lat="45.89892" lon="3.41184">
        <ele>348.2</ele>
        <time>2024-04-28T07:20:41Z</time>
      </trkpt>
      <trkpt lat="45.89886" lon="3.41186">
        <ele>348.2</ele>
        <time>2024-04-28T07:20:42Z</time>
      </trkpt>
      <trkpt lat="45.8988" lon="3.41189">
        <ele>348.2</ele>
        <time>2024-04-28T07:20:43Z</time>
      </trkpt>
      <trkpt lat="45.89874" lon="3.41191">
        <ele>348.2</ele>
        <time>2024-04-28T07:20:44Z</time>
      </trkpt>
      <trkpt lat="45.89869" lon="3.41194">
        <ele>348</ele>
        <time>2024-04-28T07:20:45Z</time>
      </trkpt>
      <trkpt lat="45.89863" lon="3.41196">
        <ele>348.2</ele>
        <time>2024-04-28T07:20:46Z</time>
      </trkpt>
      <trkpt lat="45.89857" lon="3.41199">
        <ele>348.2</ele>
        <time>2024-04-28T07:20:47Z</time>
      </trkpt>
      <trkpt lat="45.89851" lon="3.41201">
        <ele>348.2</ele>
        <time>2024-04-28T07:20:48Z</time>
      </trkpt>
      <trkpt lat="45.89845" lon="3.41203">
        <ele>348.2</ele>
        <time>2024-04-28T07:20:49Z</time>
      </trkpt>
      <trkpt lat="45.8984" lon="3.41206">
        <ele>348.2</ele>
        <time>2024-04-28T07:20:50Z</time>
      </trkpt>
      <trkpt lat="45.89834" lon="3.41208">
        <ele>348.4</ele>
        <time>2024-04-28T07:20:51Z</time>
      </trkpt>
      <trkpt lat="45.89829" lon="3.41211">
        <ele>347.6</ele>
        <time>2024-04-28T07:20:52Z</time>
      </trkpt>
      <trkpt lat="45.89823" lon="3.41213">
        <ele>348</ele>
        <time>2024-04-28T07:20:53Z</time>
      </trkpt>
      <trkpt lat="45.89818" lon="3.41215">
        <ele>348.4</ele>
        <time>2024-04-28T07:20:54Z</time>
      </trkpt>
      <trkpt lat="45.89812" lon="3.41218">
        <ele>348.6</ele>
        <time>2024-04-28T07:20:55Z</time>
      </trkpt>
      <trkpt lat="45.89806" lon="3.4122">
        <ele>348.6</ele>
        <time>2024-04-28T07:20:56Z</time>
      </trkpt>
      <trkpt lat="45.89801" lon="3.41223">
        <ele>349</ele>
        <time>2024-04-28T07:20:57Z</time>
      </trkpt>
      <trkpt lat="45.89795" lon="3.41225">
        <ele>348.6</ele>
        <time>2024-04-28T07:20:58Z</time>
      </trkpt>
      <trkpt lat="45.8979" lon="3.41228">
        <ele>348.6</ele>
        <time>2024-04-28T07:20:59Z</time>
      </trkpt>
      <trkpt lat="45.89784" lon="3.4123">
        <ele>348.6</ele>
        <time>2024-04-28T07:21:00Z</time>
      </trkpt>
      <trkpt lat="45.89779" lon="3.41232">
        <ele>348.6</ele>
        <time>2024-04-28T07:21:01Z</time>
      </trkpt>
      <trkpt lat="45.89773" lon="3.41235">
        <ele>348.8</ele>
        <time>2024-04-28T07:21:02Z</time>
      </trkpt>
      <trkpt lat="45.89768" lon="3.41237">
        <ele>348.8</ele>
        <time>2024-04-28T07:21:03Z</time>
      </trkpt>
      <trkpt lat="45.89762" lon="3.41239">
        <ele>348.8</ele>
        <time>2024-04-28T07:21:04Z</time>
      </trkpt>
      <trkpt lat="45.89757" lon="3.41241">
        <ele>348.8</ele>
        <time>2024-04-28T07:21:05Z</time>
      </trkpt>
      <trkpt lat="45.89752" lon="3.41243">
        <ele>348.8</ele>
        <time>2024-04-28T07:21:06Z</time>
      </trkpt>
      <trkpt lat="45.89747" lon="3.41245">
        <ele>349</ele>
        <time>2024-04-28T07:21:07Z</time>
      </trkpt>
      <trkpt lat="45.89741" lon="3.41247">
        <ele>349</ele>
        <time>2024-04-28T07:21:08Z</time>
      </trkpt>
      <trkpt lat="45.89736" lon="3.41249">
        <ele>349</ele>
        <time>2024-04-28T07:21:09Z</time>
      </trkpt>
      <trkpt lat="45.8973" lon="3.41251">
        <ele>349</ele>
        <time>2024-04-28T07:21:10Z</time>
      </trkpt>
      <trkpt lat="45.89725" lon="3.41254">
        <ele>349.2</ele>
        <time>2024-04-28T07:21:11Z</time>
      </trkpt>
      <trkpt lat="45.8972" lon="3.41256">
        <ele>349.2</ele>
        <time>2024-04-28T07:21:12Z</time>
      </trkpt>
      <trkpt lat="45.89715" lon="3.41259">
        <ele>349.2</ele>
        <time>2024-04-28T07:21:13Z</time>
      </trkpt>
      <trkpt lat="45.89709" lon="3.41261">
        <ele>349.4</ele>
        <time>2024-04-28T07:21:14Z</time>
      </trkpt>
      <trkpt lat="45.89704" lon="3.41264">
        <ele>349.4</ele>
        <time>2024-04-28T07:21:15Z</time>
      </trkpt>
      <trkpt lat="45.89699" lon="3.41267">
        <ele>349.4</ele>
        <time>2024-04-28T07:21:16Z</time>
      </trkpt>
      <trkpt lat="45.89694" lon="3.4127">
        <ele>349.6</ele>
        <time>2024-04-28T07:21:17Z</time>
      </trkpt>
      <trkpt lat="45.89689" lon="3.41272">
        <ele>349.6</ele>
        <time>2024-04-28T07:21:18Z</time>
      </trkpt>
      <trkpt lat="45.89683" lon="3.41275">
        <ele>349.6</ele>
        <time>2024-04-28T07:21:19Z</time>
      </trkpt>
      <trkpt lat="45.89678" lon="3.41278">
        <ele>349.8</ele>
        <time>2024-04-28T07:21:20Z</time>
      </trkpt>
      <trkpt lat="45.89673" lon="3.41281">
        <ele>349.8</ele>
        <time>2024-04-28T07:21:21Z</time>
      </trkpt>
      <trkpt lat="45.89667" lon="3.41283">
        <ele>349.8</ele>
        <time>2024-04-28T07:21:22Z</time>
      </trkpt>
      <trkpt lat="45.89662" lon="3.41286">
        <ele>349.8</ele>
        <time>2024-04-28T07:21:23Z</time>
      </trkpt>
      <trkpt lat="45.89656" lon="3.41289">
        <ele>350</ele>
        <time>2024-04-28T07:21:24Z</time>
      </trkpt>
      <trkpt lat="45.89651" lon="3.41292">
        <ele>350</ele>
        <time>2024-04-28T07:21:25Z</time>
      </trkpt>
      <trkpt lat="45.89645" lon="3.41295">
        <ele>350</ele>
        <time>2024-04-28T07:21:26Z</time>
      </trkpt>
      <trkpt lat="45.8964" lon="3.41298">
        <ele>350</ele>
        <time>2024-04-28T07:21:27Z</time>
      </trkpt>
      <trkpt lat="45.89634" lon="3.41301">
        <ele>350</ele>
        <time>2024-04-28T07:21:28Z</time>
      </trkpt>
      <trkpt lat="45.89629" lon="3.41304">
        <ele>350.2</ele>
        <time>2024-04-28T07:21:29Z</time>
      </trkpt>
      <trkpt lat="45.89623" lon="3.41307">
        <ele>350.2</ele>
        <time>2024-04-28T07:21:30Z</time>
      </trkpt>
      <trkpt lat="45.89617" lon="3.4131">
        <ele>350.2</ele>
        <time>2024-04-28T07:21:31Z</time>
      </trkpt>
      <trkpt lat="45.89612" lon="3.41313">
        <ele>350.4</ele>
        <time>2024-04-28T07:21:32Z</time>
      </trkpt>
      <trkpt lat="45.89606" lon="3.41315">
        <ele>350.4</ele>
        <time>2024-04-28T07:21:33Z</time>
      </trkpt>
      <trkpt lat="45.89601" lon="3.41318">
        <ele>350.4</ele>
        <time>2024-04-28T07:21:34Z</time>
      </trkpt>
      <trkpt lat="45.89595" lon="3.41321">
        <ele>350.4</ele>
        <time>2024-04-28T07:21:35Z</time>
      </trkpt>
      <trkpt lat="45.8959" lon="3.41324">
        <ele>350.4</ele>
        <time>2024-04-28T07:21:36Z</time>
      </trkpt>
      <trkpt lat="45.89585" lon="3.41328">
        <ele>350.4</ele>
        <time>2024-04-28T07:21:37Z</time>
      </trkpt>
      <trkpt lat="45.89579" lon="3.41331">
        <ele>350.6</ele>
        <time>2024-04-28T07:21:38Z</time>
      </trkpt>
      <trkpt lat="45.89574" lon="3.41335">
        <ele>350.6</ele>
        <time>2024-04-28T07:21:39Z</time>
      </trkpt>
      <trkpt lat="45.89569" lon="3.41338">
        <ele>350.6</ele>
        <time>2024-04-28T07:21:40Z</time>
      </trkpt>
      <trkpt lat="45.89563" lon="3.41342">
        <ele>350.8</ele>
        <time>2024-04-28T07:21:41Z</time>
      </trkpt>
      <trkpt lat="45.89558" lon="3.41345">
        <ele>350.8</ele>
        <time>2024-04-28T07:21:42Z</time>
      </trkpt>
      <trkpt lat="45.89553" lon="3.41349">
        <ele>350.8</ele>
        <time>2024-04-28T07:21:43Z</time>
      </trkpt>
      <trkpt lat="45.89547" lon="3.41354">
        <ele>350.8</ele>
        <time>2024-04-28T07:21:44Z</time>
      </trkpt>
      <trkpt lat="45.89542" lon="3.41359">
        <ele>351</ele>
        <time>2024-04-28T07:21:45Z</time>
      </trkpt>
      <trkpt lat="45.89537" lon="3.41364">
        <ele>351</ele>
        <time>2024-04-28T07:21:46Z</time>
      </trkpt>
      <trkpt lat="45.89532" lon="3.41368">
        <ele>351</ele>
        <time>2024-04-28T07:21:47Z</time>
      </trkpt>
      <trkpt lat="45.89527" lon="3.41373">
        <ele>351</ele>
        <time>2024-04-28T07:21:48Z</time>
      </trkpt>
      <trkpt lat="45.89522" lon="3.41378">
        <ele>351.2</ele>
        <time>2024-04-28T07:21:49Z</time>
      </trkpt>
      <trkpt lat="45.89517" lon="3.41382">
        <ele>351.2</ele>
        <time>2024-04-28T07:21:50Z</time>
      </trkpt>
      <trkpt lat="45.89512" lon="3.41387">
        <ele>351.2</ele>
        <time>2024-04-28T07:21:51Z</time>
      </trkpt>
      <trkpt lat="45.89507" lon="3.41392">
        <ele>351.2</ele>
        <time>2024-04-28T07:21:52Z</time>
      </trkpt>
      <trkpt lat="45.89501" lon="3.41396">
        <ele>351.2</ele>
        <time>2024-04-28T07:21:53Z</time>
      </trkpt>
      <trkpt lat="45.89496" lon="3.41399">
        <ele>351.2</ele>
        <time>2024-04-28T07:21:54Z</time>
      </trkpt>
      <trkpt lat="45.8949" lon="3.41403">
        <ele>351.2</ele>
        <time>2024-04-28T07:21:55Z</time>
      </trkpt>
      <trkpt lat="45.89484" lon="3.41407">
        <ele>351.4</ele>
        <time>2024-04-28T07:21:56Z</time>
      </trkpt>
      <trkpt lat="45.89478" lon="3.41409">
        <ele>351.4</ele>
        <time>2024-04-28T07:21:57Z</time>
      </trkpt>
      <trkpt lat="45.89472" lon="3.41411">
        <ele>351.4</ele>
        <time>2024-04-28T07:21:58Z</time>
      </trkpt>
      <trkpt lat="45.89467" lon="3.41412">
        <ele>351.4</ele>
        <time>2024-04-28T07:21:59Z</time>
      </trkpt>
      <trkpt lat="45.89461" lon="3.41414">
        <ele>351.4</ele>
        <time>2024-04-28T07:22:00Z</time>
      </trkpt>
      <trkpt lat="45.89456" lon="3.41415">
        <ele>351.4</ele>
        <time>2024-04-28T07:22:01Z</time>
      </trkpt>
      <trkpt lat="45.8945" lon="3.41416">
        <ele>351.4</ele>
        <time>2024-04-28T07:22:02Z</time>
      </trkpt>
      <trkpt lat="45.89444" lon="3.41418">
        <ele>351.4</ele>
        <time>2024-04-28T07:22:03Z</time>
      </trkpt>
      <trkpt lat="45.89439" lon="3.41419">
        <ele>351.6</ele>
        <time>2024-04-28T07:22:04Z</time>
      </trkpt>
      <trkpt lat="45.89433" lon="3.41419">
        <ele>351.6</ele>
        <time>2024-04-28T07:22:05Z</time>
      </trkpt>
      <trkpt lat="45.89427" lon="3.41419">
        <ele>351.6</ele>
        <time>2024-04-28T07:22:06Z</time>
      </trkpt>
      <trkpt lat="45.89421" lon="3.41419">
        <ele>351.6</ele>
        <time>2024-04-28T07:22:07Z</time>
      </trkpt>
      <trkpt lat="45.89415" lon="3.41419">
        <ele>351.6</ele>
        <time>2024-04-28T07:22:08Z</time>
      </trkpt>
      <trkpt lat="45.89409" lon="3.41419">
        <ele>351.6</ele>
        <time>2024-04-28T07:22:09Z</time>
      </trkpt>
      <trkpt lat="45.89403" lon="3.41419">
        <ele>351.6</ele>
        <time>2024-04-28T07:22:10Z</time>
      </trkpt>
      <trkpt lat="45.89397" lon="3.41419">
        <ele>351.6</ele>
        <time>2024-04-28T07:22:11Z</time>
      </trkpt>
      <trkpt lat="45.89391" lon="3.41419">
        <ele>351.6</ele>
        <time>2024-04-28T07:22:12Z</time>
      </trkpt>
      <trkpt lat="45.89385" lon="3.41418">
        <ele>351.6</ele>
        <time>2024-04-28T07:22:13Z</time>
      </trkpt>
      <trkpt lat="45.89379" lon="3.41417">
        <ele>351.8</ele>
        <time>2024-04-28T07:22:14Z</time>
      </trkpt>
      <trkpt lat="45.89373" lon="3.41415">
        <ele>351.8</ele>
        <time>2024-04-28T07:22:15Z</time>
      </trkpt>
      <trkpt lat="45.89367" lon="3.41414">
        <ele>351.8</ele>
        <time>2024-04-28T07:22:16Z</time>
      </trkpt>
      <trkpt lat="45.89362" lon="3.41413">
        <ele>351.8</ele>
        <time>2024-04-28T07:22:17Z</time>
      </trkpt>
      <trkpt lat="45.89356" lon="3.41412">
        <ele>351.8</ele>
        <time>2024-04-28T07:22:18Z</time>
      </trkpt>
      <trkpt lat="45.8935" lon="3.4141">
        <ele>352</ele>
        <time>2024-04-28T07:22:19Z</time>
      </trkpt>
      <trkpt lat="45.89344" lon="3.41409">
        <ele>352</ele>
        <time>2024-04-28T07:22:20Z</time>
      </trkpt>
      <trkpt lat="45.89338" lon="3.41408">
        <ele>352</ele>
        <time>2024-04-28T07:22:21Z</time>
      </trkpt>
      <trkpt lat="45.89333" lon="3.41406">
        <ele>352</ele>
        <time>2024-04-28T07:22:22Z</time>
      </trkpt>
      <trkpt lat="45.89327" lon="3.41405">
        <ele>352</ele>
        <time>2024-04-28T07:22:23Z</time>
      </trkpt>
      <trkpt lat="45.89321" lon="3.41404">
        <ele>352.2</ele>
        <time>2024-04-28T07:22:24Z</time>
      </trkpt>
      <trkpt lat="45.89315" lon="3.41402">
        <ele>352.2</ele>
        <time>2024-04-28T07:22:25Z</time>
      </trkpt>
      <trkpt lat="45.8931" lon="3.41401">
        <ele>352.2</ele>
        <time>2024-04-28T07:22:26Z</time>
      </trkpt>
      <trkpt lat="45.89304" lon="3.41399">
        <ele>352.2</ele>
        <time>2024-04-28T07:22:27Z</time>
      </trkpt>
      <trkpt lat="45.89298" lon="3.41397">
        <ele>352.4</ele>
        <time>2024-04-28T07:22:28Z</time>
      </trkpt>
      <trkpt lat="45.89292" lon="3.41396">
        <ele>352.4</ele>
        <time>2024-04-28T07:22:29Z</time>
      </trkpt>
      <trkpt lat="45.89287" lon="3.41394">
        <ele>352.4</ele>
        <time>2024-04-28T07:22:30Z</time>
      </trkpt>
      <trkpt lat="45.89281" lon="3.41393">
        <ele>352.4</ele>
        <time>2024-04-28T07:22:31Z</time>
      </trkpt>
      <trkpt lat="45.89275" lon="3.41391">
        <ele>352.4</ele>
        <time>2024-04-28T07:22:32Z</time>
      </trkpt>
      <trkpt lat="45.89269" lon="3.41389">
        <ele>352.4</ele>
        <time>2024-04-28T07:22:33Z</time>
      </trkpt>
      <trkpt lat="45.89264" lon="3.41388">
        <ele>352.4</ele>
        <time>2024-04-28T07:22:34Z</time>
      </trkpt>
      <trkpt lat="45.89258" lon="3.41386">
        <ele>352.4</ele>
        <time>2024-04-28T07:22:35Z</time>
      </trkpt>
      <trkpt lat="45.89252" lon="3.41384">
        <ele>352.6</ele>
        <time>2024-04-28T07:22:36Z</time>
      </trkpt>
      <trkpt lat="45.89247" lon="3.41383">
        <ele>352.6</ele>
        <time>2024-04-28T07:22:37Z</time>
      </trkpt>
      <trkpt lat="45.89241" lon="3.41381">
        <ele>352.6</ele>
        <time>2024-04-28T07:22:38Z</time>
      </trkpt>
      <trkpt lat="45.89235" lon="3.4138">
        <ele>352.6</ele>
        <time>2024-04-28T07:22:39Z</time>
      </trkpt>
      <trkpt lat="45.89229" lon="3.41378">
        <ele>352.6</ele>
        <time>2024-04-28T07:22:40Z</time>
      </trkpt>
      <trkpt lat="45.89224" lon="3.41376">
        <ele>352.8</ele>
        <time>2024-04-28T07:22:41Z</time>
      </trkpt>
      <trkpt lat="45.89218" lon="3.41375">
        <ele>352.8</ele>
        <time>2024-04-28T07:22:42Z</time>
      </trkpt>
      <trkpt lat="45.89212" lon="3.41373">
        <ele>352.8</ele>
        <time>2024-04-28T07:22:43Z</time>
      </trkpt>
      <trkpt lat="45.89206" lon="3.41371">
        <ele>352.8</ele>
        <time>2024-04-28T07:22:44Z</time>
      </trkpt>
      <trkpt lat="45.89201" lon="3.4137">
        <ele>352.8</ele>
        <time>2024-04-28T07:22:45Z</time>
      </trkpt>
      <trkpt lat="45.89195" lon="3.41368">
        <ele>352.8</ele>
        <time>2024-04-28T07:22:46Z</time>
      </trkpt>
      <trkpt lat="45.89188" lon="3.41366">
        <ele>352.8</ele>
        <time>2024-04-28T07:22:47Z</time>
      </trkpt>
      <trkpt lat="45.89182" lon="3.41364">
        <ele>353</ele>
        <time>2024-04-28T07:22:48Z</time>
      </trkpt>
      <trkpt lat="45.89176" lon="3.41361">
        <ele>353</ele>
        <time>2024-04-28T07:22:49Z</time>
      </trkpt>
      <trkpt lat="45.89171" lon="3.41358">
        <ele>353</ele>
        <time>2024-04-28T07:22:50Z</time>
      </trkpt>
      <trkpt lat="45.89165" lon="3.41356">
        <ele>353</ele>
        <time>2024-04-28T07:22:51Z</time>
      </trkpt>
      <trkpt lat="45.89159" lon="3.41353">
        <ele>353.2</ele>
        <time>2024-04-28T07:22:52Z</time>
      </trkpt>
      <trkpt lat="45.89153" lon="3.4135">
        <ele>353.2</ele>
        <time>2024-04-28T07:22:53Z</time>
      </trkpt>
      <trkpt lat="45.89148" lon="3.41348">
        <ele>353.2</ele>
        <time>2024-04-28T07:22:54Z</time>
      </trkpt>
      <trkpt lat="45.89142" lon="3.41345">
        <ele>353.4</ele>
        <time>2024-04-28T07:22:55Z</time>
      </trkpt>
      <trkpt lat="45.89136" lon="3.41342">
        <ele>353.4</ele>
        <time>2024-04-28T07:22:56Z</time>
      </trkpt>
      <trkpt lat="45.89131" lon="3.4134">
        <ele>353.4</ele>
        <time>2024-04-28T07:22:57Z</time>
      </trkpt>
      <trkpt lat="45.89125" lon="3.41337">
        <ele>353.6</ele>
        <time>2024-04-28T07:22:58Z</time>
      </trkpt>
      <trkpt lat="45.8912" lon="3.41335">
        <ele>353.6</ele>
        <time>2024-04-28T07:22:59Z</time>
      </trkpt>
      <trkpt lat="45.89114" lon="3.41332">
        <ele>353.6</ele>
        <time>2024-04-28T07:23:00Z</time>
      </trkpt>
      <trkpt lat="45.89108" lon="3.4133">
        <ele>353.8</ele>
        <time>2024-04-28T07:23:01Z</time>
      </trkpt>
      <trkpt lat="45.89103" lon="3.41327">
        <ele>353.8</ele>
        <time>2024-04-28T07:23:02Z</time>
      </trkpt>
      <trkpt lat="45.89097" lon="3.41326">
        <ele>353.8</ele>
        <time>2024-04-28T07:23:03Z</time>
      </trkpt>
      <trkpt lat="45.89091" lon="3.41325">
        <ele>354</ele>
        <time>2024-04-28T07:23:04Z</time>
      </trkpt>
      <trkpt lat="45.89085" lon="3.41324">
        <ele>354</ele>
        <time>2024-04-28T07:23:05Z</time>
      </trkpt>
      <trkpt lat="45.8908" lon="3.41322">
        <ele>354</ele>
        <time>2024-04-28T07:23:06Z</time>
      </trkpt>
      <trkpt lat="45.89074" lon="3.41321">
        <ele>354</ele>
        <time>2024-04-28T07:23:07Z</time>
      </trkpt>
      <trkpt lat="45.89068" lon="3.4132">
        <ele>354</ele>
        <time>2024-04-28T07:23:08Z</time>
      </trkpt>
      <trkpt lat="45.89062" lon="3.41319">
        <ele>354</ele>
        <time>2024-04-28T07:23:09Z</time>
      </trkpt>
      <trkpt lat="45.89056" lon="3.41318">
        <ele>354.2</ele>
        <time>2024-04-28T07:23:10Z</time>
      </trkpt>
      <trkpt lat="45.8905" lon="3.41316">
        <ele>354.2</ele>
        <time>2024-04-28T07:23:11Z</time>
      </trkpt>
      <trkpt lat="45.89044" lon="3.41315">
        <ele>354.2</ele>
        <time>2024-04-28T07:23:12Z</time>
      </trkpt>
      <trkpt lat="45.89038" lon="3.41314">
        <ele>354.2</ele>
        <time>2024-04-28T07:23:13Z</time>
      </trkpt>
      <trkpt lat="45.89032" lon="3.41313">
        <ele>354.2</ele>
        <time>2024-04-28T07:23:14Z</time>
      </trkpt>
      <trkpt lat="45.89026" lon="3.41311">
        <ele>354.4</ele>
        <time>2024-04-28T07:23:15Z</time>
      </trkpt>
      <trkpt lat="45.8902" lon="3.4131">
        <ele>354.4</ele>
        <time>2024-04-28T07:23:16Z</time>
      </trkpt>
      <trkpt lat="45.89013" lon="3.41309">
        <ele>354.4</ele>
        <time>2024-04-28T07:23:17Z</time>
      </trkpt>
      <trkpt lat="45.89007" lon="3.41307">
        <ele>354.6</ele>
        <time>2024-04-28T07:23:18Z</time>
      </trkpt>
      <trkpt lat="45.89001" lon="3.41306">
        <ele>354.6</ele>
        <time>2024-04-28T07:23:19Z</time>
      </trkpt>
      <trkpt lat="45.88995" lon="3.41305">
        <ele>354.6</ele>
        <time>2024-04-28T07:23:20Z</time>
      </trkpt>
      <trkpt lat="45.88989" lon="3.41304">
        <ele>354.6</ele>
        <time>2024-04-28T07:23:21Z</time>
      </trkpt>
      <trkpt lat="45.88983" lon="3.41302">
        <ele>354.8</ele>
        <time>2024-04-28T07:23:22Z</time>
      </trkpt>
      <trkpt lat="45.88977" lon="3.41301">
        <ele>354.8</ele>
        <time>2024-04-28T07:23:23Z</time>
      </trkpt>
      <trkpt lat="45.88971" lon="3.413">
        <ele>355</ele>
        <time>2024-04-28T07:23:24Z</time>
      </trkpt>
      <trkpt lat="45.88965" lon="3.41299">
        <ele>355</ele>
        <time>2024-04-28T07:23:25Z</time>
      </trkpt>
      <trkpt lat="45.88959" lon="3.41298">
        <ele>355.2</ele>
        <time>2024-04-28T07:23:26Z</time>
      </trkpt>
      <trkpt lat="45.88953" lon="3.41297">
        <ele>355.2</ele>
        <time>2024-04-28T07:23:27Z</time>
      </trkpt>
      <trkpt lat="45.88947" lon="3.41296">
        <ele>355.2</ele>
        <time>2024-04-28T07:23:28Z</time>
      </trkpt>
      <trkpt lat="45.88941" lon="3.41295">
        <ele>355.4</ele>
        <time>2024-04-28T07:23:29Z</time>
      </trkpt>
      <trkpt lat="45.88935" lon="3.41294">
        <ele>355.4</ele>
        <time>2024-04-28T07:23:30Z</time>
      </trkpt>
      <trkpt lat="45.88929" lon="3.41293">
        <ele>355.4</ele>
        <time>2024-04-28T07:23:31Z</time>
      </trkpt>
      <trkpt lat="45.88923" lon="3.41292">
        <ele>355.6</ele>
        <time>2024-04-28T07:23:32Z</time>
      </trkpt>
      <trkpt lat="45.88917" lon="3.41291">
        <ele>355.6</ele>
        <time>2024-04-28T07:23:33Z</time>
      </trkpt>
      <trkpt lat="45.8891" lon="3.4129">
        <ele>355.6</ele>
        <time>2024-04-28T07:23:34Z</time>
      </trkpt>
      <trkpt lat="45.88904" lon="3.41289">
        <ele>355.6</ele>
        <time>2024-04-28T07:23:35Z</time>
      </trkpt>
      <trkpt lat="45.88898" lon="3.41288">
        <ele>355.8</ele>
        <time>2024-04-28T07:23:36Z</time>
      </trkpt>
      <trkpt lat="45.88892" lon="3.41287">
        <ele>355.8</ele>
        <time>2024-04-28T07:23:37Z</time>
      </trkpt>
      <trkpt lat="45.88886" lon="3.41286">
        <ele>355.8</ele>
        <time>2024-04-28T07:23:38Z</time>
      </trkpt>
      <trkpt lat="45.8888" lon="3.41285">
        <ele>355.8</ele>
        <time>2024-04-28T07:23:39Z</time>
      </trkpt>
      <trkpt lat="45.88874" lon="3.41284">
        <ele>355.8</ele>
        <time>2024-04-28T07:23:40Z</time>
      </trkpt>
      <trkpt lat="45.88868" lon="3.41283">
        <ele>356</ele>
        <time>2024-04-28T07:23:41Z</time>
      </trkpt>
      <trkpt lat="45.88862" lon="3.41282">
        <ele>356.2</ele>
        <time>2024-04-28T07:23:42Z</time>
      </trkpt>
      <trkpt lat="45.88857" lon="3.41281">
        <ele>356.2</ele>
        <time>2024-04-28T07:23:43Z</time>
      </trkpt>
      <trkpt lat="45.88851" lon="3.4128">
        <ele>356.2</ele>
        <time>2024-04-28T07:23:44Z</time>
      </trkpt>
      <trkpt lat="45.88845" lon="3.41279">
        <ele>356.4</ele>
        <time>2024-04-28T07:23:45Z</time>
      </trkpt>
      <trkpt lat="45.88839" lon="3.41278">
        <ele>356.4</ele>
        <time>2024-04-28T07:23:46Z</time>
      </trkpt>
      <trkpt lat="45.88832" lon="3.41277">
        <ele>356.4</ele>
        <time>2024-04-28T07:23:47Z</time>
      </trkpt>
      <trkpt lat="45.88826" lon="3.41276">
        <ele>356.4</ele>
        <time>2024-04-28T07:23:48Z</time>
      </trkpt>
      <trkpt lat="45.8882" lon="3.41275">
        <ele>356.6</ele>
        <time>2024-04-28T07:23:49Z</time>
      </trkpt>
      <trkpt lat="45.88814" lon="3.41275">
        <ele>356.6</ele>
        <time>2024-04-28T07:23:50Z</time>
      </trkpt>
      <trkpt lat="45.88808" lon="3.41274">
        <ele>356.6</ele>
        <time>2024-04-28T07:23:51Z</time>
      </trkpt>
      <trkpt lat="45.88802" lon="3.41273">
        <ele>356.6</ele>
        <time>2024-04-28T07:23:52Z</time>
      </trkpt>
      <trkpt lat="45.88796" lon="3.41272">
        <ele>356.8</ele>
        <time>2024-04-28T07:23:53Z</time>
      </trkpt>
      <trkpt lat="45.88791" lon="3.41271">
        <ele>356.8</ele>
        <time>2024-04-28T07:23:54Z</time>
      </trkpt>
      <trkpt lat="45.88785" lon="3.4127">
        <ele>356.8</ele>
        <time>2024-04-28T07:23:55Z</time>
      </trkpt>
      <trkpt lat="45.88779" lon="3.41269">
        <ele>356.8</ele>
        <time>2024-04-28T07:23:56Z</time>
      </trkpt>
      <trkpt lat="45.88773" lon="3.41268">
        <ele>357</ele>
        <time>2024-04-28T07:23:57Z</time>
      </trkpt>
      <trkpt lat="45.88767" lon="3.41267">
        <ele>357</ele>
        <time>2024-04-28T07:23:58Z</time>
      </trkpt>
      <trkpt lat="45.88761" lon="3.41266">
        <ele>357</ele>
        <time>2024-04-28T07:23:59Z</time>
      </trkpt>
      <trkpt lat="45.88756" lon="3.41265">
        <ele>357.2</ele>
        <time>2024-04-28T07:24:00Z</time>
      </trkpt>
      <trkpt lat="45.8875" lon="3.41264">
        <ele>357.2</ele>
        <time>2024-04-28T07:24:01Z</time>
      </trkpt>
      <trkpt lat="45.88744" lon="3.41263">
        <ele>357.2</ele>
        <time>2024-04-28T07:24:02Z</time>
      </trkpt>
      <trkpt lat="45.88738" lon="3.41263">
        <ele>357.2</ele>
        <time>2024-04-28T07:24:03Z</time>
      </trkpt>
      <trkpt lat="45.88732" lon="3.41263">
        <ele>357.2</ele>
        <time>2024-04-28T07:24:04Z</time>
      </trkpt>
      <trkpt lat="45.88726" lon="3.41264">
        <ele>357.4</ele>
        <time>2024-04-28T07:24:05Z</time>
      </trkpt>
      <trkpt lat="45.8872" lon="3.41264">
        <ele>357.4</ele>
        <time>2024-04-28T07:24:06Z</time>
      </trkpt>
      <trkpt lat="45.88714" lon="3.41264">
        <ele>357.4</ele>
        <time>2024-04-28T07:24:07Z</time>
      </trkpt>
      <trkpt lat="45.88708" lon="3.41265">
        <ele>357.4</ele>
        <time>2024-04-28T07:24:08Z</time>
      </trkpt>
      <trkpt lat="45.88702" lon="3.41265">
        <ele>357.4</ele>
        <time>2024-04-28T07:24:09Z</time>
      </trkpt>
      <trkpt lat="45.88695" lon="3.41266">
        <ele>357.4</ele>
        <time>2024-04-28T07:24:10Z</time>
      </trkpt>
      <trkpt lat="45.88689" lon="3.41268">
        <ele>357.6</ele>
        <time>2024-04-28T07:24:11Z</time>
      </trkpt>
      <trkpt lat="45.88683" lon="3.41269">
        <ele>357.6</ele>
        <time>2024-04-28T07:24:12Z</time>
      </trkpt>
      <trkpt lat="45.88677" lon="3.41271">
        <ele>357.6</ele>
        <time>2024-04-28T07:24:13Z</time>
      </trkpt>
      <trkpt lat="45.88672" lon="3.41272">
        <ele>357.8</ele>
        <time>2024-04-28T07:24:14Z</time>
      </trkpt>
      <trkpt lat="45.88666" lon="3.41274">
        <ele>357.8</ele>
        <time>2024-04-28T07:24:15Z</time>
      </trkpt>
      <trkpt lat="45.8866" lon="3.41276">
        <ele>357.8</ele>
        <time>2024-04-28T07:24:16Z</time>
      </trkpt>
      <trkpt lat="45.88654" lon="3.41277">
        <ele>357.8</ele>
        <time>2024-04-28T07:24:17Z</time>
      </trkpt>
      <trkpt lat="45.88648" lon="3.41279">
        <ele>358</ele>
        <time>2024-04-28T07:24:18Z</time>
      </trkpt>
      <trkpt lat="45.88642" lon="3.4128">
        <ele>358</ele>
        <time>2024-04-28T07:24:19Z</time>
      </trkpt>
      <trkpt lat="45.88636" lon="3.41282">
        <ele>358</ele>
        <time>2024-04-28T07:24:20Z</time>
      </trkpt>
      <trkpt lat="45.8863" lon="3.41284">
        <ele>358</ele>
        <time>2024-04-28T07:24:21Z</time>
      </trkpt>
      <trkpt lat="45.88624" lon="3.41285">
        <ele>358</ele>
        <time>2024-04-28T07:24:22Z</time>
      </trkpt>
      <trkpt lat="45.88618" lon="3.41287">
        <ele>358.2</ele>
        <time>2024-04-28T07:24:23Z</time>
      </trkpt>
      <trkpt lat="45.88612" lon="3.41288">
        <ele>358.2</ele>
        <time>2024-04-28T07:24:24Z</time>
      </trkpt>
      <trkpt lat="45.88606" lon="3.4129">
        <ele>358.2</ele>
        <time>2024-04-28T07:24:25Z</time>
      </trkpt>
      <trkpt lat="45.886" lon="3.41292">
        <ele>358.2</ele>
        <time>2024-04-28T07:24:26Z</time>
      </trkpt>
      <trkpt lat="45.88594" lon="3.41296">
        <ele>358.4</ele>
        <time>2024-04-28T07:24:27Z</time>
      </trkpt>
      <trkpt lat="45.88588" lon="3.41299">
        <ele>358.4</ele>
        <time>2024-04-28T07:24:28Z</time>
      </trkpt>
      <trkpt lat="45.88582" lon="3.41302">
        <ele>358.4</ele>
        <time>2024-04-28T07:24:29Z</time>
      </trkpt>
      <trkpt lat="45.88576" lon="3.41306">
        <ele>358.4</ele>
        <time>2024-04-28T07:24:30Z</time>
      </trkpt>
      <trkpt lat="45.8857" lon="3.41309">
        <ele>358.4</ele>
        <time>2024-04-28T07:24:31Z</time>
      </trkpt>
      <trkpt lat="45.88564" lon="3.41312">
        <ele>358.4</ele>
        <time>2024-04-28T07:24:32Z</time>
      </trkpt>
      <trkpt lat="45.88558" lon="3.41315">
        <ele>358.4</ele>
        <time>2024-04-28T07:24:33Z</time>
      </trkpt>
      <trkpt lat="45.88553" lon="3.41318">
        <ele>358.6</ele>
        <time>2024-04-28T07:24:34Z</time>
      </trkpt>
      <trkpt lat="45.88547" lon="3.41322">
        <ele>358.6</ele>
        <time>2024-04-28T07:24:35Z</time>
      </trkpt>
      <trkpt lat="45.88541" lon="3.41325">
        <ele>358.6</ele>
        <time>2024-04-28T07:24:36Z</time>
      </trkpt>
      <trkpt lat="45.88535" lon="3.41328">
        <ele>358.6</ele>
        <time>2024-04-28T07:24:37Z</time>
      </trkpt>
      <trkpt lat="45.8853" lon="3.41331">
        <ele>358.6</ele>
        <time>2024-04-28T07:24:38Z</time>
      </trkpt>
      <trkpt lat="45.88524" lon="3.41334">
        <ele>358.6</ele>
        <time>2024-04-28T07:24:39Z</time>
      </trkpt>
      <trkpt lat="45.88518" lon="3.41338">
        <ele>358.6</ele>
        <time>2024-04-28T07:24:40Z</time>
      </trkpt>
      <trkpt lat="45.88512" lon="3.41341">
        <ele>358.6</ele>
        <time>2024-04-28T07:24:41Z</time>
      </trkpt>
      <trkpt lat="45.88506" lon="3.41344">
        <ele>358.6</ele>
        <time>2024-04-28T07:24:42Z</time>
      </trkpt>
      <trkpt lat="45.885" lon="3.41347">
        <ele>358.6</ele>
        <time>2024-04-28T07:24:43Z</time>
      </trkpt>
      <trkpt lat="45.88494" lon="3.4135">
        <ele>358.6</ele>
        <time>2024-04-28T07:24:44Z</time>
      </trkpt>
      <trkpt lat="45.88487" lon="3.41352">
        <ele>358.6</ele>
        <time>2024-04-28T07:24:45Z</time>
      </trkpt>
      <trkpt lat="45.8848" lon="3.41355">
        <ele>358.6</ele>
        <time>2024-04-28T07:24:46Z</time>
      </trkpt>
      <trkpt lat="45.88474" lon="3.41357">
        <ele>358.6</ele>
        <time>2024-04-28T07:24:47Z</time>
      </trkpt>
      <trkpt lat="45.88467" lon="3.41359">
        <ele>358.8</ele>
        <time>2024-04-28T07:24:48Z</time>
      </trkpt>
      <trkpt lat="45.8846" lon="3.41362">
        <ele>358.8</ele>
        <time>2024-04-28T07:24:49Z</time>
      </trkpt>
      <trkpt lat="45.88453" lon="3.41365">
        <ele>358.8</ele>
        <time>2024-04-28T07:24:50Z</time>
      </trkpt>
      <trkpt lat="45.88447" lon="3.41367">
        <ele>359</ele>
        <time>2024-04-28T07:24:51Z</time>
      </trkpt>
      <trkpt lat="45.8844" lon="3.4137">
        <ele>359</ele>
        <time>2024-04-28T07:24:52Z</time>
      </trkpt>
      <trkpt lat="45.88433" lon="3.41372">
        <ele>359.2</ele>
        <time>2024-04-28T07:24:53Z</time>
      </trkpt>
      <trkpt lat="45.88426" lon="3.41375">
        <ele>359.2</ele>
        <time>2024-04-28T07:24:54Z</time>
      </trkpt>
      <trkpt lat="45.8842" lon="3.41376">
        <ele>359.4</ele>
        <time>2024-04-28T07:24:55Z</time>
      </trkpt>
      <trkpt lat="45.88413" lon="3.41378">
        <ele>359.4</ele>
        <time>2024-04-28T07:24:56Z</time>
      </trkpt>
      <trkpt lat="45.88406" lon="3.4138">
        <ele>359.6</ele>
        <time>2024-04-28T07:24:57Z</time>
      </trkpt>
      <trkpt lat="45.884" lon="3.41381">
        <ele>359.6</ele>
        <time>2024-04-28T07:24:58Z</time>
      </trkpt>
      <trkpt lat="45.88393" lon="3.41383">
        <ele>359.6</ele>
        <time>2024-04-28T07:24:59Z</time>
      </trkpt>
      <trkpt lat="45.88386" lon="3.41385">
        <ele>359.8</ele>
        <time>2024-04-28T07:25:00Z</time>
      </trkpt>
      <trkpt lat="45.8838" lon="3.41387">
        <ele>359.8</ele>
        <time>2024-04-28T07:25:01Z</time>
      </trkpt>
      <trkpt lat="45.88373" lon="3.41388">
        <ele>359.8</ele>
        <time>2024-04-28T07:25:02Z</time>
      </trkpt>
      <trkpt lat="45.88367" lon="3.4139">
        <ele>359.8</ele>
        <time>2024-04-28T07:25:03Z</time>
      </trkpt>
      <trkpt lat="45.8836" lon="3.41392">
        <ele>360</ele>
        <time>2024-04-28T07:25:04Z</time>
      </trkpt>
      <trkpt lat="45.88354" lon="3.41393">
        <ele>360</ele>
        <time>2024-04-28T07:25:05Z</time>
      </trkpt>
      <trkpt lat="45.88347" lon="3.41395">
        <ele>360</ele>
        <time>2024-04-28T07:25:06Z</time>
      </trkpt>
      <trkpt lat="45.8834" lon="3.41397">
        <ele>360</ele>
        <time>2024-04-28T07:25:07Z</time>
      </trkpt>
      <trkpt lat="45.88334" lon="3.41398">
        <ele>360.2</ele>
        <time>2024-04-28T07:25:08Z</time>
      </trkpt>
      <trkpt lat="45.88327" lon="3.414">
        <ele>360.2</ele>
        <time>2024-04-28T07:25:09Z</time>
      </trkpt>
      <trkpt lat="45.88321" lon="3.41402">
        <ele>360.2</ele>
        <time>2024-04-28T07:25:10Z</time>
      </trkpt>
      <trkpt lat="45.88314" lon="3.41403">
        <ele>360.2</ele>
        <time>2024-04-28T07:25:11Z</time>
      </trkpt>
      <trkpt lat="45.88307" lon="3.41405">
        <ele>360.2</ele>
        <time>2024-04-28T07:25:12Z</time>
      </trkpt>
      <trkpt lat="45.883" lon="3.41407">
        <ele>360.4</ele>
        <time>2024-04-28T07:25:13Z</time>
      </trkpt>
      <trkpt lat="45.88294" lon="3.41409">
        <ele>360.4</ele>
        <time>2024-04-28T07:25:14Z</time>
      </trkpt>
      <trkpt lat="45.88287" lon="3.4141">
        <ele>360.4</ele>
        <time>2024-04-28T07:25:15Z</time>
      </trkpt>
      <trkpt lat="45.8828" lon="3.41412">
        <ele>360.4</ele>
        <time>2024-04-28T07:25:16Z</time>
      </trkpt>
      <trkpt lat="45.88274" lon="3.41414">
        <ele>360.6</ele>
        <time>2024-04-28T07:25:17Z</time>
      </trkpt>
      <trkpt lat="45.88267" lon="3.41415">
        <ele>360.6</ele>
        <time>2024-04-28T07:25:18Z</time>
      </trkpt>
      <trkpt lat="45.8826" lon="3.41414">
        <ele>360.6</ele>
        <time>2024-04-28T07:25:19Z</time>
      </trkpt>
      <trkpt lat="45.88253" lon="3.41413">
        <ele>360.6</ele>
        <time>2024-04-28T07:25:20Z</time>
      </trkpt>
      <trkpt lat="45.88246" lon="3.41412">
        <ele>360.8</ele>
        <time>2024-04-28T07:25:21Z</time>
      </trkpt>
      <trkpt lat="45.88239" lon="3.41411">
        <ele>360.8</ele>
        <time>2024-04-28T07:25:22Z</time>
      </trkpt>
      <trkpt lat="45.88232" lon="3.4141">
        <ele>360.8</ele>
        <time>2024-04-28T07:25:23Z</time>
      </trkpt>
      <trkpt lat="45.88226" lon="3.41409">
        <ele>360.8</ele>
        <time>2024-04-28T07:25:24Z</time>
      </trkpt>
      <trkpt lat="45.88219" lon="3.41408">
        <ele>361</ele>
        <time>2024-04-28T07:25:25Z</time>
      </trkpt>
      <trkpt lat="45.88212" lon="3.41406">
        <ele>361</ele>
        <time>2024-04-28T07:25:26Z</time>
      </trkpt>
      <trkpt lat="45.88206" lon="3.41404">
        <ele>361</ele>
        <time>2024-04-28T07:25:27Z</time>
      </trkpt>
      <trkpt lat="45.88199" lon="3.41402">
        <ele>361</ele>
        <time>2024-04-28T07:25:28Z</time>
      </trkpt>
      <trkpt lat="45.88193" lon="3.41398">
        <ele>361.2</ele>
        <time>2024-04-28T07:25:29Z</time>
      </trkpt>
      <trkpt lat="45.88187" lon="3.41394">
        <ele>361.2</ele>
        <time>2024-04-28T07:25:30Z</time>
      </trkpt>
      <trkpt lat="45.88181" lon="3.4139">
        <ele>361.2</ele>
        <time>2024-04-28T07:25:31Z</time>
      </trkpt>
      <trkpt lat="45.88174" lon="3.41386">
        <ele>361.2</ele>
        <time>2024-04-28T07:25:32Z</time>
      </trkpt>
      <trkpt lat="45.88169" lon="3.41383">
        <ele>361.4</ele>
        <time>2024-04-28T07:25:33Z</time>
      </trkpt>
      <trkpt lat="45.88162" lon="3.41379">
        <ele>361.4</ele>
        <time>2024-04-28T07:25:34Z</time>
      </trkpt>
      <trkpt lat="45.88157" lon="3.41374">
        <ele>361.4</ele>
        <time>2024-04-28T07:25:35Z</time>
      </trkpt>
      <trkpt lat="45.88151" lon="3.41368">
        <ele>361.4</ele>
        <time>2024-04-28T07:25:36Z</time>
      </trkpt>
      <trkpt lat="45.88146" lon="3.41363">
        <ele>361.6</ele>
        <time>2024-04-28T07:25:37Z</time>
      </trkpt>
      <trkpt lat="45.88141" lon="3.41357">
        <ele>361.6</ele>
        <time>2024-04-28T07:25:38Z</time>
      </trkpt>
      <trkpt lat="45.88136" lon="3.41351">
        <ele>361.6</ele>
        <time>2024-04-28T07:25:39Z</time>
      </trkpt>
      <trkpt lat="45.88131" lon="3.41346">
        <ele>361.6</ele>
        <time>2024-04-28T07:25:40Z</time>
      </trkpt>
      <trkpt lat="45.88125" lon="3.4134">
        <ele>361.8</ele>
        <time>2024-04-28T07:25:41Z</time>
      </trkpt>
      <trkpt lat="45.8812" lon="3.41335">
        <ele>361.8</ele>
        <time>2024-04-28T07:25:42Z</time>
      </trkpt>
      <trkpt lat="45.88115" lon="3.41329">
        <ele>361.8</ele>
        <time>2024-04-28T07:25:43Z</time>
      </trkpt>
      <trkpt lat="45.8811" lon="3.41324">
        <ele>361.8</ele>
        <time>2024-04-28T07:25:44Z</time>
      </trkpt>
      <trkpt lat="45.88105" lon="3.41319">
        <ele>361.8</ele>
        <time>2024-04-28T07:25:45Z</time>
      </trkpt>
      <trkpt lat="45.881" lon="3.41313">
        <ele>362</ele>
        <time>2024-04-28T07:25:46Z</time>
      </trkpt>
      <trkpt lat="45.88095" lon="3.41308">
        <ele>362</ele>
        <time>2024-04-28T07:25:47Z</time>
      </trkpt>
      <trkpt lat="45.8809" lon="3.41302">
        <ele>362</ele>
        <time>2024-04-28T07:25:48Z</time>
      </trkpt>
      <trkpt lat="45.88085" lon="3.41297">
        <ele>362</ele>
        <time>2024-04-28T07:25:49Z</time>
      </trkpt>
      <trkpt lat="45.8808" lon="3.41292">
        <ele>362</ele>
        <time>2024-04-28T07:25:50Z</time>
      </trkpt>
      <trkpt lat="45.88074" lon="3.41288">
        <ele>362.2</ele>
        <time>2024-04-28T07:25:51Z</time>
      </trkpt>
      <trkpt lat="45.88068" lon="3.41284">
        <ele>362.2</ele>
        <time>2024-04-28T07:25:52Z</time>
      </trkpt>
      <trkpt lat="45.88062" lon="3.41281">
        <ele>362.2</ele>
        <time>2024-04-28T07:25:53Z</time>
      </trkpt>
      <trkpt lat="45.88055" lon="3.41279">
        <ele>362.2</ele>
        <time>2024-04-28T07:25:54Z</time>
      </trkpt>
      <trkpt lat="45.88049" lon="3.41277">
        <ele>362.2</ele>
        <time>2024-04-28T07:25:55Z</time>
      </trkpt>
      <trkpt lat="45.88043" lon="3.41275">
        <ele>362.2</ele>
        <time>2024-04-28T07:25:56Z</time>
      </trkpt>
      <trkpt lat="45.88037" lon="3.41273">
        <ele>362.2</ele>
        <time>2024-04-28T07:25:57Z</time>
      </trkpt>
      <trkpt lat="45.8803" lon="3.41271">
        <ele>362.2</ele>
        <time>2024-04-28T07:25:58Z</time>
      </trkpt>
      <trkpt lat="45.88024" lon="3.41269">
        <ele>362.2</ele>
        <time>2024-04-28T07:25:59Z</time>
      </trkpt>
      <trkpt lat="45.88018" lon="3.41267">
        <ele>362.2</ele>
        <time>2024-04-28T07:26:00Z</time>
      </trkpt>
      <trkpt lat="45.88011" lon="3.41265">
        <ele>362.2</ele>
        <time>2024-04-28T07:26:01Z</time>
      </trkpt>
      <trkpt lat="45.88005" lon="3.41263">
        <ele>362.2</ele>
        <time>2024-04-28T07:26:02Z</time>
      </trkpt>
      <trkpt lat="45.87998" lon="3.4126">
        <ele>362.2</ele>
        <time>2024-04-28T07:26:03Z</time>
      </trkpt>
      <trkpt lat="45.87992" lon="3.41258">
        <ele>362.4</ele>
        <time>2024-04-28T07:26:04Z</time>
      </trkpt>
      <trkpt lat="45.87985" lon="3.41256">
        <ele>362.4</ele>
        <time>2024-04-28T07:26:05Z</time>
      </trkpt>
      <trkpt lat="45.87978" lon="3.41254">
        <ele>362.4</ele>
        <time>2024-04-28T07:26:06Z</time>
      </trkpt>
      <trkpt lat="45.87971" lon="3.41252">
        <ele>362.4</ele>
        <time>2024-04-28T07:26:07Z</time>
      </trkpt>
      <trkpt lat="45.87965" lon="3.4125">
        <ele>362.4</ele>
        <time>2024-04-28T07:26:08Z</time>
      </trkpt>
      <trkpt lat="45.87958" lon="3.41247">
        <ele>362.4</ele>
        <time>2024-04-28T07:26:09Z</time>
      </trkpt>
      <trkpt lat="45.87952" lon="3.41245">
        <ele>362.4</ele>
        <time>2024-04-28T07:26:10Z</time>
      </trkpt>
      <trkpt lat="45.87945" lon="3.41244">
        <ele>362.4</ele>
        <time>2024-04-28T07:26:11Z</time>
      </trkpt>
      <trkpt lat="45.87938" lon="3.41244">
        <ele>362.4</ele>
        <time>2024-04-28T07:26:12Z</time>
      </trkpt>
      <trkpt lat="45.87932" lon="3.41244">
        <ele>362.4</ele>
        <time>2024-04-28T07:26:13Z</time>
      </trkpt>
      <trkpt lat="45.87925" lon="3.41244">
        <ele>362.4</ele>
        <time>2024-04-28T07:26:14Z</time>
      </trkpt>
      <trkpt lat="45.87918" lon="3.41244">
        <ele>362.4</ele>
        <time>2024-04-28T07:26:15Z</time>
      </trkpt>
      <trkpt lat="45.87912" lon="3.41244">
        <ele>362.4</ele>
        <time>2024-04-28T07:26:16Z</time>
      </trkpt>
      <trkpt lat="45.87905" lon="3.41244">
        <ele>362.4</ele>
        <time>2024-04-28T07:26:17Z</time>
      </trkpt>
      <trkpt lat="45.87898" lon="3.41245">
        <ele>362.4</ele>
        <time>2024-04-28T07:26:18Z</time>
      </trkpt>
      <trkpt lat="45.87892" lon="3.41245">
        <ele>362.6</ele>
        <time>2024-04-28T07:26:19Z</time>
      </trkpt>
      <trkpt lat="45.87886" lon="3.41245">
        <ele>362.6</ele>
        <time>2024-04-28T07:26:20Z</time>
      </trkpt>
      <trkpt lat="45.87879" lon="3.41245">
        <ele>362.6</ele>
        <time>2024-04-28T07:26:21Z</time>
      </trkpt>
      <trkpt lat="45.87873" lon="3.41245">
        <ele>362.6</ele>
        <time>2024-04-28T07:26:22Z</time>
      </trkpt>
      <trkpt lat="45.87866" lon="3.41245">
        <ele>362.6</ele>
        <time>2024-04-28T07:26:23Z</time>
      </trkpt>
      <trkpt lat="45.8786" lon="3.41245">
        <ele>362.6</ele>
        <time>2024-04-28T07:26:24Z</time>
      </trkpt>
      <trkpt lat="45.87853" lon="3.41246">
        <ele>362.8</ele>
        <time>2024-04-28T07:26:25Z</time>
      </trkpt>
      <trkpt lat="45.87846" lon="3.41244">
        <ele>362.8</ele>
        <time>2024-04-28T07:26:26Z</time>
      </trkpt>
      <trkpt lat="45.8784" lon="3.41243">
        <ele>362.8</ele>
        <time>2024-04-28T07:26:27Z</time>
      </trkpt>
      <trkpt lat="45.87833" lon="3.41242">
        <ele>362.8</ele>
        <time>2024-04-28T07:26:28Z</time>
      </trkpt>
      <trkpt lat="45.87826" lon="3.4124">
        <ele>363</ele>
        <time>2024-04-28T07:26:29Z</time>
      </trkpt>
      <trkpt lat="45.8782" lon="3.41239">
        <ele>363</ele>
        <time>2024-04-28T07:26:30Z</time>
      </trkpt>
      <trkpt lat="45.87813" lon="3.41238">
        <ele>363</ele>
        <time>2024-04-28T07:26:31Z</time>
      </trkpt>
      <trkpt lat="45.87807" lon="3.41236">
        <ele>363</ele>
        <time>2024-04-28T07:26:32Z</time>
      </trkpt>
      <trkpt lat="45.87801" lon="3.41235">
        <ele>363.2</ele>
        <time>2024-04-28T07:26:33Z</time>
      </trkpt>
      <trkpt lat="45.87795" lon="3.41234">
        <ele>363.2</ele>
        <time>2024-04-28T07:26:34Z</time>
      </trkpt>
      <trkpt lat="45.87788" lon="3.41232">
        <ele>363.4</ele>
        <time>2024-04-28T07:26:35Z</time>
      </trkpt>
      <trkpt lat="45.87782" lon="3.41231">
        <ele>363.4</ele>
        <time>2024-04-28T07:26:36Z</time>
      </trkpt>
      <trkpt lat="45.87776" lon="3.4123">
        <ele>363.6</ele>
        <time>2024-04-28T07:26:37Z</time>
      </trkpt>
      <trkpt lat="45.8777" lon="3.41229">
        <ele>363.6</ele>
        <time>2024-04-28T07:26:38Z</time>
      </trkpt>
      <trkpt lat="45.87764" lon="3.41227">
        <ele>363.6</ele>
        <time>2024-04-28T07:26:39Z</time>
      </trkpt>
      <trkpt lat="45.87758" lon="3.41226">
        <ele>363.6</ele>
        <time>2024-04-28T07:26:40Z</time>
      </trkpt>
      <trkpt lat="45.87751" lon="3.41224">
        <ele>363.6</ele>
        <time>2024-04-28T07:26:41Z</time>
      </trkpt>
      <trkpt lat="45.87745" lon="3.41223">
        <ele>363.8</ele>
        <time>2024-04-28T07:26:42Z</time>
      </trkpt>
      <trkpt lat="45.87739" lon="3.41222">
        <ele>363.8</ele>
        <time>2024-04-28T07:26:43Z</time>
      </trkpt>
      <trkpt lat="45.87732" lon="3.41221">
        <ele>363.8</ele>
        <time>2024-04-28T07:26:44Z</time>
      </trkpt>
      <trkpt lat="45.87726" lon="3.41219">
        <ele>363.8</ele>
        <time>2024-04-28T07:26:45Z</time>
      </trkpt>
      <trkpt lat="45.8772" lon="3.41218">
        <ele>363.8</ele>
        <time>2024-04-28T07:26:46Z</time>
      </trkpt>
      <trkpt lat="45.87713" lon="3.41216">
        <ele>363.8</ele>
        <time>2024-04-28T07:26:47Z</time>
      </trkpt>
      <trkpt lat="45.87707" lon="3.41213">
        <ele>363.8</ele>
        <time>2024-04-28T07:26:48Z</time>
      </trkpt>
      <trkpt lat="45.877" lon="3.41211">
        <ele>363.8</ele>
        <time>2024-04-28T07:26:49Z</time>
      </trkpt>
      <trkpt lat="45.87694" lon="3.41209">
        <ele>363.8</ele>
        <time>2024-04-28T07:26:50Z</time>
      </trkpt>
      <trkpt lat="45.87687" lon="3.41205">
        <ele>363.8</ele>
        <time>2024-04-28T07:26:51Z</time>
      </trkpt>
      <trkpt lat="45.87682" lon="3.412">
        <ele>364</ele>
        <time>2024-04-28T07:26:52Z</time>
      </trkpt>
      <trkpt lat="45.87677" lon="3.41194">
        <ele>364</ele>
        <time>2024-04-28T07:26:53Z</time>
      </trkpt>
      <trkpt lat="45.87672" lon="3.41189">
        <ele>364.2</ele>
        <time>2024-04-28T07:26:54Z</time>
      </trkpt>
      <trkpt lat="45.87667" lon="3.41183">
        <ele>364.2</ele>
        <time>2024-04-28T07:26:55Z</time>
      </trkpt>
      <trkpt lat="45.87662" lon="3.41178">
        <ele>364.2</ele>
        <time>2024-04-28T07:26:56Z</time>
      </trkpt>
      <trkpt lat="45.87658" lon="3.41172">
        <ele>364.2</ele>
        <time>2024-04-28T07:26:57Z</time>
      </trkpt>
      <trkpt lat="45.87653" lon="3.41167">
        <ele>364.4</ele>
        <time>2024-04-28T07:26:58Z</time>
      </trkpt>
      <trkpt lat="45.87648" lon="3.41162">
        <ele>364.6</ele>
        <time>2024-04-28T07:26:59Z</time>
      </trkpt>
      <trkpt lat="45.87643" lon="3.41156">
        <ele>364.6</ele>
        <time>2024-04-28T07:27:00Z</time>
      </trkpt>
      <trkpt lat="45.87638" lon="3.41151">
        <ele>364.6</ele>
        <time>2024-04-28T07:27:01Z</time>
      </trkpt>
      <trkpt lat="45.87633" lon="3.41145">
        <ele>364.6</ele>
        <time>2024-04-28T07:27:02Z</time>
      </trkpt>
      <trkpt lat="45.87627" lon="3.41139">
        <ele>364.8</ele>
        <time>2024-04-28T07:27:03Z</time>
      </trkpt>
      <trkpt lat="45.87622" lon="3.41134">
        <ele>364.8</ele>
        <time>2024-04-28T07:27:04Z</time>
      </trkpt>
      <trkpt lat="45.87617" lon="3.41128">
        <ele>365</ele>
        <time>2024-04-28T07:27:05Z</time>
      </trkpt>
      <trkpt lat="45.87612" lon="3.41123">
        <ele>365</ele>
        <time>2024-04-28T07:27:06Z</time>
      </trkpt>
      <trkpt lat="45.87607" lon="3.41117">
        <ele>365.2</ele>
        <time>2024-04-28T07:27:07Z</time>
      </trkpt>
      <trkpt lat="45.87601" lon="3.41112">
        <ele>365.2</ele>
        <time>2024-04-28T07:27:08Z</time>
      </trkpt>
      <trkpt lat="45.87595" lon="3.41109">
        <ele>365.2</ele>
        <time>2024-04-28T07:27:09Z</time>
      </trkpt>
      <trkpt lat="45.87588" lon="3.41107">
        <ele>365.2</ele>
        <time>2024-04-28T07:27:10Z</time>
      </trkpt>
      <trkpt lat="45.87582" lon="3.41104">
        <ele>365.2</ele>
        <time>2024-04-28T07:27:11Z</time>
      </trkpt>
      <trkpt lat="45.87575" lon="3.41102">
        <ele>365.4</ele>
        <time>2024-04-28T07:27:12Z</time>
      </trkpt>
      <trkpt lat="45.87568" lon="3.41099">
        <ele>365.4</ele>
        <time>2024-04-28T07:27:13Z</time>
      </trkpt>
      <trkpt lat="45.87562" lon="3.41097">
        <ele>365.4</ele>
        <time>2024-04-28T07:27:14Z</time>
      </trkpt>
      <trkpt lat="45.87555" lon="3.41094">
        <ele>365.4</ele>
        <time>2024-04-28T07:27:15Z</time>
      </trkpt>
      <trkpt lat="45.87549" lon="3.41092">
        <ele>365.6</ele>
        <time>2024-04-28T07:27:16Z</time>
      </trkpt>
      <trkpt lat="45.87542" lon="3.41089">
        <ele>365.6</ele>
        <time>2024-04-28T07:27:17Z</time>
      </trkpt>
      <trkpt lat="45.87535" lon="3.41086">
        <ele>365.6</ele>
        <time>2024-04-28T07:27:18Z</time>
      </trkpt>
      <trkpt lat="45.87529" lon="3.41084">
        <ele>365.6</ele>
        <time>2024-04-28T07:27:19Z</time>
      </trkpt>
      <trkpt lat="45.87523" lon="3.41081">
        <ele>365.6</ele>
        <time>2024-04-28T07:27:20Z</time>
      </trkpt>
      <trkpt lat="45.87516" lon="3.41079">
        <ele>365.6</ele>
        <time>2024-04-28T07:27:21Z</time>
      </trkpt>
      <trkpt lat="45.8751" lon="3.41076">
        <ele>365.8</ele>
        <time>2024-04-28T07:27:22Z</time>
      </trkpt>
      <trkpt lat="45.87503" lon="3.41074">
        <ele>365.8</ele>
        <time>2024-04-28T07:27:23Z</time>
      </trkpt>
      <trkpt lat="45.87497" lon="3.41071">
        <ele>365.8</ele>
        <time>2024-04-28T07:27:24Z</time>
      </trkpt>
      <trkpt lat="45.87491" lon="3.41069">
        <ele>365.8</ele>
        <time>2024-04-28T07:27:25Z</time>
      </trkpt>
      <trkpt lat="45.87484" lon="3.41067">
        <ele>366</ele>
        <time>2024-04-28T07:27:26Z</time>
      </trkpt>
      <trkpt lat="45.87478" lon="3.41064">
        <ele>366</ele>
        <time>2024-04-28T07:27:27Z</time>
      </trkpt>
      <trkpt lat="45.87471" lon="3.41062">
        <ele>366</ele>
        <time>2024-04-28T07:27:28Z</time>
      </trkpt>
      <trkpt lat="45.87465" lon="3.41059">
        <ele>366.2</ele>
        <time>2024-04-28T07:27:29Z</time>
      </trkpt>
      <trkpt lat="45.87459" lon="3.41057">
        <ele>366.2</ele>
        <time>2024-04-28T07:27:30Z</time>
      </trkpt>
      <trkpt lat="45.87453" lon="3.41054">
        <ele>366.4</ele>
        <time>2024-04-28T07:27:31Z</time>
      </trkpt>
      <trkpt lat="45.87446" lon="3.41052">
        <ele>366.4</ele>
        <time>2024-04-28T07:27:32Z</time>
      </trkpt>
      <trkpt lat="45.8744" lon="3.4105">
        <ele>366.6</ele>
        <time>2024-04-28T07:27:33Z</time>
      </trkpt>
      <trkpt lat="45.87434" lon="3.41047">
        <ele>366.6</ele>
        <time>2024-04-28T07:27:34Z</time>
      </trkpt>
      <trkpt lat="45.87428" lon="3.41045">
        <ele>366.8</ele>
        <time>2024-04-28T07:27:35Z</time>
      </trkpt>
      <trkpt lat="45.87422" lon="3.41043">
        <ele>366.8</ele>
        <time>2024-04-28T07:27:36Z</time>
      </trkpt>
      <trkpt lat="45.87416" lon="3.4104">
        <ele>366.8</ele>
        <time>2024-04-28T07:27:37Z</time>
      </trkpt>
      <trkpt lat="45.87409" lon="3.41038">
        <ele>366.8</ele>
        <time>2024-04-28T07:27:38Z</time>
      </trkpt>
      <trkpt lat="45.87403" lon="3.41036">
        <ele>366.8</ele>
        <time>2024-04-28T07:27:39Z</time>
      </trkpt>
      <trkpt lat="45.87397" lon="3.41033">
        <ele>367</ele>
        <time>2024-04-28T07:27:40Z</time>
      </trkpt>
      <trkpt lat="45.87391" lon="3.41031">
        <ele>367.2</ele>
        <time>2024-04-28T07:27:41Z</time>
      </trkpt>
      <trkpt lat="45.87385" lon="3.41029">
        <ele>367.2</ele>
        <time>2024-04-28T07:27:42Z</time>
      </trkpt>
      <trkpt lat="45.87379" lon="3.41027">
        <ele>367.2</ele>
        <time>2024-04-28T07:27:43Z</time>
      </trkpt>
      <trkpt lat="45.87372" lon="3.41024">
        <ele>367.2</ele>
        <time>2024-04-28T07:27:44Z</time>
      </trkpt>
      <trkpt lat="45.87366" lon="3.41022">
        <ele>367.2</ele>
        <time>2024-04-28T07:27:45Z</time>
      </trkpt>
      <trkpt lat="45.8736" lon="3.4102">
        <ele>367.4</ele>
        <time>2024-04-28T07:27:46Z</time>
      </trkpt>
      <trkpt lat="45.87353" lon="3.41017">
        <ele>367.4</ele>
        <time>2024-04-28T07:27:47Z</time>
      </trkpt>
      <trkpt lat="45.87347" lon="3.41015">
        <ele>367.4</ele>
        <time>2024-04-28T07:27:48Z</time>
      </trkpt>
      <trkpt lat="45.87341" lon="3.41012">
        <ele>367.4</ele>
        <time>2024-04-28T07:27:49Z</time>
      </trkpt>
      <trkpt lat="45.87334" lon="3.4101">
        <ele>367.6</ele>
        <time>2024-04-28T07:27:50Z</time>
      </trkpt>
      <trkpt lat="45.87328" lon="3.41008">
        <ele>367.6</ele>
        <time>2024-04-28T07:27:51Z</time>
      </trkpt>
      <trkpt lat="45.87321" lon="3.41005">
        <ele>367.6</ele>
        <time>2024-04-28T07:27:52Z</time>
      </trkpt>
      <trkpt lat="45.87314" lon="3.41003">
        <ele>367.8</ele>
        <time>2024-04-28T07:27:53Z</time>
      </trkpt>
      <trkpt lat="45.87308" lon="3.41">
        <ele>367.8</ele>
        <time>2024-04-28T07:27:54Z</time>
      </trkpt>
      <trkpt lat="45.87301" lon="3.40998">
        <ele>367.8</ele>
        <time>2024-04-28T07:27:55Z</time>
      </trkpt>
      <trkpt lat="45.87295" lon="3.40995">
        <ele>367.8</ele>
        <time>2024-04-28T07:27:56Z</time>
      </trkpt>
      <trkpt lat="45.87288" lon="3.40993">
        <ele>368</ele>
        <time>2024-04-28T07:27:57Z</time>
      </trkpt>
      <trkpt lat="45.87282" lon="3.40991">
        <ele>368</ele>
        <time>2024-04-28T07:27:58Z</time>
      </trkpt>
      <trkpt lat="45.87275" lon="3.40988">
        <ele>368</ele>
        <time>2024-04-28T07:27:59Z</time>
      </trkpt>
      <trkpt lat="45.87269" lon="3.40986">
        <ele>368</ele>
        <time>2024-04-28T07:28:00Z</time>
      </trkpt>
      <trkpt lat="45.87263" lon="3.40983">
        <ele>368.2</ele>
        <time>2024-04-28T07:28:01Z</time>
      </trkpt>
      <trkpt lat="45.87257" lon="3.40981">
        <ele>368.2</ele>
        <time>2024-04-28T07:28:02Z</time>
      </trkpt>
      <trkpt lat="45.8725" lon="3.40979">
        <ele>368.2</ele>
        <time>2024-04-28T07:28:03Z</time>
      </trkpt>
      <trkpt lat="45.87244" lon="3.40977">
        <ele>368.4</ele>
        <time>2024-04-28T07:28:04Z</time>
      </trkpt>
      <trkpt lat="45.87238" lon="3.40974">
        <ele>368.4</ele>
        <time>2024-04-28T07:28:05Z</time>
      </trkpt>
      <trkpt lat="45.87232" lon="3.40972">
        <ele>368.6</ele>
        <time>2024-04-28T07:28:06Z</time>
      </trkpt>
      <trkpt lat="45.87226" lon="3.4097">
        <ele>368.6</ele>
        <time>2024-04-28T07:28:07Z</time>
      </trkpt>
      <trkpt lat="45.8722" lon="3.40968">
        <ele>368.6</ele>
        <time>2024-04-28T07:28:08Z</time>
      </trkpt>
      <trkpt lat="45.87214" lon="3.40965">
        <ele>368.6</ele>
        <time>2024-04-28T07:28:09Z</time>
      </trkpt>
      <trkpt lat="45.87208" lon="3.40963">
        <ele>368.6</ele>
        <time>2024-04-28T07:28:10Z</time>
      </trkpt>
      <trkpt lat="45.87202" lon="3.40961">
        <ele>368.6</ele>
        <time>2024-04-28T07:28:11Z</time>
      </trkpt>
      <trkpt lat="45.87196" lon="3.40959">
        <ele>368.8</ele>
        <time>2024-04-28T07:28:12Z</time>
      </trkpt>
      <trkpt lat="45.8719" lon="3.40957">
        <ele>368.8</ele>
        <time>2024-04-28T07:28:13Z</time>
      </trkpt>
      <trkpt lat="45.87184" lon="3.40954">
        <ele>368.8</ele>
        <time>2024-04-28T07:28:14Z</time>
      </trkpt>
      <trkpt lat="45.87178" lon="3.40952">
        <ele>368.8</ele>
        <time>2024-04-28T07:28:15Z</time>
      </trkpt>
      <trkpt lat="45.87172" lon="3.4095">
        <ele>369</ele>
        <time>2024-04-28T07:28:16Z</time>
      </trkpt>
      <trkpt lat="45.87167" lon="3.40948">
        <ele>369</ele>
        <time>2024-04-28T07:28:17Z</time>
      </trkpt>
      <trkpt lat="45.87161" lon="3.40946">
        <ele>369</ele>
        <time>2024-04-28T07:28:18Z</time>
      </trkpt>
      <trkpt lat="45.87155" lon="3.40944">
        <ele>369.2</ele>
        <time>2024-04-28T07:28:19Z</time>
      </trkpt>
      <trkpt lat="45.87149" lon="3.40942">
        <ele>369.2</ele>
        <time>2024-04-28T07:28:20Z</time>
      </trkpt>
      <trkpt lat="45.87143" lon="3.4094">
        <ele>369.2</ele>
        <time>2024-04-28T07:28:21Z</time>
      </trkpt>
      <trkpt lat="45.87138" lon="3.40937">
        <ele>369.2</ele>
        <time>2024-04-28T07:28:22Z</time>
      </trkpt>
      <trkpt lat="45.87132" lon="3.40935">
        <ele>369.2</ele>
        <time>2024-04-28T07:28:23Z</time>
      </trkpt>
      <trkpt lat="45.87126" lon="3.40933">
        <ele>369.2</ele>
        <time>2024-04-28T07:28:24Z</time>
      </trkpt>
      <trkpt lat="45.87121" lon="3.40931">
        <ele>369.2</ele>
        <time>2024-04-28T07:28:25Z</time>
      </trkpt>
      <trkpt lat="45.87115" lon="3.40929">
        <ele>369.2</ele>
        <time>2024-04-28T07:28:26Z</time>
      </trkpt>
      <trkpt lat="45.87109" lon="3.40927">
        <ele>369.2</ele>
        <time>2024-04-28T07:28:27Z</time>
      </trkpt>
      <trkpt lat="45.87104" lon="3.40925">
        <ele>369.2</ele>
        <time>2024-04-28T07:28:28Z</time>
      </trkpt>
      <trkpt lat="45.87098" lon="3.40923">
        <ele>369</ele>
        <time>2024-04-28T07:28:29Z</time>
      </trkpt>
      <trkpt lat="45.87092" lon="3.40921">
        <ele>369</ele>
        <time>2024-04-28T07:28:30Z</time>
      </trkpt>
      <trkpt lat="45.87086" lon="3.40918">
        <ele>369</ele>
        <time>2024-04-28T07:28:31Z</time>
      </trkpt>
      <trkpt lat="45.8708" lon="3.40916">
        <ele>369.2</ele>
        <time>2024-04-28T07:28:32Z</time>
      </trkpt>
      <trkpt lat="45.87074" lon="3.40914">
        <ele>368.4</ele>
        <time>2024-04-28T07:28:33Z</time>
      </trkpt>
      <trkpt lat="45.87068" lon="3.40912">
        <ele>368.6</ele>
        <time>2024-04-28T07:28:34Z</time>
      </trkpt>
      <trkpt lat="45.87061" lon="3.4091">
        <ele>368.4</ele>
        <time>2024-04-28T07:28:35Z</time>
      </trkpt>
      <trkpt lat="45.87055" lon="3.40907">
        <ele>368.4</ele>
        <time>2024-04-28T07:28:36Z</time>
      </trkpt>
      <trkpt lat="45.87049" lon="3.40905">
        <ele>368.2</ele>
        <time>2024-04-28T07:28:37Z</time>
      </trkpt>
      <trkpt lat="45.87043" lon="3.40903">
        <ele>368.2</ele>
        <time>2024-04-28T07:28:38Z</time>
      </trkpt>
      <trkpt lat="45.87036" lon="3.409">
        <ele>368</ele>
        <time>2024-04-28T07:28:39Z</time>
      </trkpt>
      <trkpt lat="45.8703" lon="3.40898">
        <ele>367.8</ele>
        <time>2024-04-28T07:28:40Z</time>
      </trkpt>
      <trkpt lat="45.87023" lon="3.40895">
        <ele>367.8</ele>
        <time>2024-04-28T07:28:41Z</time>
      </trkpt>
      <trkpt lat="45.87017" lon="3.40893">
        <ele>367.6</ele>
        <time>2024-04-28T07:28:42Z</time>
      </trkpt>
      <trkpt lat="45.87011" lon="3.40891">
        <ele>367.4</ele>
        <time>2024-04-28T07:28:43Z</time>
      </trkpt>
      <trkpt lat="45.87005" lon="3.40889">
        <ele>367.4</ele>
        <time>2024-04-28T07:28:44Z</time>
      </trkpt>
      <trkpt lat="45.86998" lon="3.40886">
        <ele>367</ele>
        <time>2024-04-28T07:28:45Z</time>
      </trkpt>
      <trkpt lat="45.86992" lon="3.40884">
        <ele>366.8</ele>
        <time>2024-04-28T07:28:46Z</time>
      </trkpt>
      <trkpt lat="45.86986" lon="3.40882">
        <ele>366.6</ele>
        <time>2024-04-28T07:28:47Z</time>
      </trkpt>
      <trkpt lat="45.8698" lon="3.4088">
        <ele>366.4</ele>
        <time>2024-04-28T07:28:48Z</time>
      </trkpt>
      <trkpt lat="45.86974" lon="3.40877">
        <ele>366.2</ele>
        <time>2024-04-28T07:28:49Z</time>
      </trkpt>
      <trkpt lat="45.86968" lon="3.40875">
        <ele>366</ele>
        <time>2024-04-28T07:28:50Z</time>
      </trkpt>
      <trkpt lat="45.86962" lon="3.40873">
        <ele>365.8</ele>
        <time>2024-04-28T07:28:51Z</time>
      </trkpt>
      <trkpt lat="45.86956" lon="3.40871">
        <ele>365.6</ele>
        <time>2024-04-28T07:28:52Z</time>
      </trkpt>
      <trkpt lat="45.86949" lon="3.40868">
        <ele>365.4</ele>
        <time>2024-04-28T07:28:53Z</time>
      </trkpt>
      <trkpt lat="45.86943" lon="3.40866">
        <ele>365</ele>
        <time>2024-04-28T07:28:54Z</time>
      </trkpt>
      <trkpt lat="45.86937" lon="3.40864">
        <ele>364.8</ele>
        <time>2024-04-28T07:28:55Z</time>
      </trkpt>
      <trkpt lat="45.86931" lon="3.40862">
        <ele>364.6</ele>
        <time>2024-04-28T07:28:56Z</time>
      </trkpt>
      <trkpt lat="45.86925" lon="3.40859">
        <ele>364.4</ele>
        <time>2024-04-28T07:28:57Z</time>
      </trkpt>
      <trkpt lat="45.86919" lon="3.40857">
        <ele>364.4</ele>
        <time>2024-04-28T07:28:58Z</time>
      </trkpt>
      <trkpt lat="45.86913" lon="3.40855">
        <ele>364.4</ele>
        <time>2024-04-28T07:28:59Z</time>
      </trkpt>
      <trkpt lat="45.86907" lon="3.40853">
        <ele>364.4</ele>
        <time>2024-04-28T07:29:00Z</time>
      </trkpt>
      <trkpt lat="45.86901" lon="3.4085">
        <ele>364.4</ele>
        <time>2024-04-28T07:29:01Z</time>
      </trkpt>
      <trkpt lat="45.86895" lon="3.40847">
        <ele>364.6</ele>
        <time>2024-04-28T07:29:02Z</time>
      </trkpt>
      <trkpt lat="45.86889" lon="3.40843">
        <ele>364.6</ele>
        <time>2024-04-28T07:29:03Z</time>
      </trkpt>
      <trkpt lat="45.86883" lon="3.40839">
        <ele>364.6</ele>
        <time>2024-04-28T07:29:04Z</time>
      </trkpt>
      <trkpt lat="45.86877" lon="3.40835">
        <ele>365</ele>
        <time>2024-04-28T07:29:05Z</time>
      </trkpt>
      <trkpt lat="45.86872" lon="3.40832">
        <ele>365.2</ele>
        <time>2024-04-28T07:29:06Z</time>
      </trkpt>
      <trkpt lat="45.86866" lon="3.40829">
        <ele>365.4</ele>
        <time>2024-04-28T07:29:07Z</time>
      </trkpt>
      <trkpt lat="45.8686" lon="3.40825">
        <ele>364.2</ele>
        <time>2024-04-28T07:29:08Z</time>
      </trkpt>
      <trkpt lat="45.86854" lon="3.40821">
        <ele>365</ele>
        <time>2024-04-28T07:29:09Z</time>
      </trkpt>
      <trkpt lat="45.86848" lon="3.40817">
        <ele>366</ele>
        <time>2024-04-28T07:29:10Z</time>
      </trkpt>
      <trkpt lat="45.86843" lon="3.40814">
        <ele>366.6</ele>
        <time>2024-04-28T07:29:11Z</time>
      </trkpt>
      <trkpt lat="45.86837" lon="3.4081">
        <ele>367.2</ele>
        <time>2024-04-28T07:29:12Z</time>
      </trkpt>
      <trkpt lat="45.86831" lon="3.40806">
        <ele>367.6</ele>
        <time>2024-04-28T07:29:13Z</time>
      </trkpt>
      <trkpt lat="45.86825" lon="3.40803">
        <ele>368.2</ele>
        <time>2024-04-28T07:29:14Z</time>
      </trkpt>
      <trkpt lat="45.86819" lon="3.40799">
        <ele>366.4</ele>
        <time>2024-04-28T07:29:15Z</time>
      </trkpt>
      <trkpt lat="45.86813" lon="3.40795">
        <ele>366.4</ele>
        <time>2024-04-28T07:29:16Z</time>
      </trkpt>
      <trkpt lat="45.86808" lon="3.40792">
        <ele>366.4</ele>
        <time>2024-04-28T07:29:17Z</time>
      </trkpt>
      <trkpt lat="45.86802" lon="3.40788">
        <ele>366.6</ele>
        <time>2024-04-28T07:29:18Z</time>
      </trkpt>
      <trkpt lat="45.86796" lon="3.40784">
        <ele>366.6</ele>
        <time>2024-04-28T07:29:19Z</time>
      </trkpt>
      <trkpt lat="45.8679" lon="3.40781">
        <ele>366.6</ele>
        <time>2024-04-28T07:29:20Z</time>
      </trkpt>
      <trkpt lat="45.86784" lon="3.40777">
        <ele>366.8</ele>
        <time>2024-04-28T07:29:21Z</time>
      </trkpt>
      <trkpt lat="45.86779" lon="3.40773">
        <ele>366.8</ele>
        <time>2024-04-28T07:29:22Z</time>
      </trkpt>
      <trkpt lat="45.86773" lon="3.4077">
        <ele>366.8</ele>
        <time>2024-04-28T07:29:23Z</time>
      </trkpt>
      <trkpt lat="45.86768" lon="3.40766">
        <ele>367</ele>
        <time>2024-04-28T07:29:24Z</time>
      </trkpt>
      <trkpt lat="45.86762" lon="3.40763">
        <ele>367</ele>
        <time>2024-04-28T07:29:25Z</time>
      </trkpt>
      <trkpt lat="45.86757" lon="3.40759">
        <ele>367.2</ele>
        <time>2024-04-28T07:29:26Z</time>
      </trkpt>
      <trkpt lat="45.86751" lon="3.40756">
        <ele>367.4</ele>
        <time>2024-04-28T07:29:27Z</time>
      </trkpt>
      <trkpt lat="45.86746" lon="3.40753">
        <ele>367.4</ele>
        <time>2024-04-28T07:29:28Z</time>
      </trkpt>
      <trkpt lat="45.8674" lon="3.40749">
        <ele>367.6</ele>
        <time>2024-04-28T07:29:29Z</time>
      </trkpt>
      <trkpt lat="45.86735" lon="3.40746">
        <ele>367.8</ele>
        <time>2024-04-28T07:29:30Z</time>
      </trkpt>
      <trkpt lat="45.8673" lon="3.40742">
        <ele>368</ele>
        <time>2024-04-28T07:29:31Z</time>
      </trkpt>
      <trkpt lat="45.86724" lon="3.40739">
        <ele>368.2</ele>
        <time>2024-04-28T07:29:32Z</time>
      </trkpt>
      <trkpt lat="45.86719" lon="3.40735">
        <ele>368.4</ele>
        <time>2024-04-28T07:29:33Z</time>
      </trkpt>
      <trkpt lat="45.86713" lon="3.40732">
        <ele>368.4</ele>
        <time>2024-04-28T07:29:34Z</time>
      </trkpt>
      <trkpt lat="45.86708" lon="3.40728">
        <ele>368.6</ele>
        <time>2024-04-28T07:29:35Z</time>
      </trkpt>
      <trkpt lat="45.86702" lon="3.40725">
        <ele>368.8</ele>
        <time>2024-04-28T07:29:36Z</time>
      </trkpt>
      <trkpt lat="45.86691" lon="3.40719">
        <ele>368.8</ele>
        <time>2024-04-28T07:29:37Z</time>
      </trkpt>
      <trkpt lat="45.86691" lon="3.40719">
        <ele>369</ele>
        <time>2024-04-28T07:29:38Z</time>
      </trkpt>
      <trkpt lat="45.86685" lon="3.40716">
        <ele>369.2</ele>
        <time>2024-04-28T07:29:39Z</time>
      </trkpt>
      <trkpt lat="45.8668" lon="3.40713">
        <ele>369.4</ele>
        <time>2024-04-28T07:29:40Z</time>
      </trkpt>
      <trkpt lat="45.86674" lon="3.4071">
        <ele>369.6</ele>
        <time>2024-04-28T07:29:41Z</time>
      </trkpt>
      <trkpt lat="45.86668" lon="3.40707">
        <ele>369.6</ele>
        <time>2024-04-28T07:29:42Z</time>
      </trkpt>
      <trkpt lat="45.86662" lon="3.40704">
        <ele>369.8</ele>
        <time>2024-04-28T07:29:43Z</time>
      </trkpt>
      <trkpt lat="45.86657" lon="3.40701">
        <ele>370</ele>
        <time>2024-04-28T07:29:44Z</time>
      </trkpt>
      <trkpt lat="45.86651" lon="3.40698">
        <ele>370.2</ele>
        <time>2024-04-28T07:29:45Z</time>
      </trkpt>
      <trkpt lat="45.86645" lon="3.40695">
        <ele>370.4</ele>
        <time>2024-04-28T07:29:46Z</time>
      </trkpt>
      <trkpt lat="45.86639" lon="3.40692">
        <ele>370.4</ele>
        <time>2024-04-28T07:29:47Z</time>
      </trkpt>
      <trkpt lat="45.86633" lon="3.40689">
        <ele>370.6</ele>
        <time>2024-04-28T07:29:48Z</time>
      </trkpt>
      <trkpt lat="45.86627" lon="3.40686">
        <ele>370.6</ele>
        <time>2024-04-28T07:29:49Z</time>
      </trkpt>
      <trkpt lat="45.86621" lon="3.40683">
        <ele>370.8</ele>
        <time>2024-04-28T07:29:50Z</time>
      </trkpt>
      <trkpt lat="45.86614" lon="3.40679">
        <ele>370.8</ele>
        <time>2024-04-28T07:29:51Z</time>
      </trkpt>
      <trkpt lat="45.86608" lon="3.40676">
        <ele>371</ele>
        <time>2024-04-28T07:29:52Z</time>
      </trkpt>
      <trkpt lat="45.86602" lon="3.40671">
        <ele>371</ele>
        <time>2024-04-28T07:29:53Z</time>
      </trkpt>
      <trkpt lat="45.86597" lon="3.40667">
        <ele>371.2</ele>
        <time>2024-04-28T07:29:54Z</time>
      </trkpt>
      <trkpt lat="45.86591" lon="3.40662">
        <ele>371.4</ele>
        <time>2024-04-28T07:29:55Z</time>
      </trkpt>
      <trkpt lat="45.86586" lon="3.40657">
        <ele>371.4</ele>
        <time>2024-04-28T07:29:56Z</time>
      </trkpt>
      <trkpt lat="45.8658" lon="3.40653">
        <ele>371.6</ele>
        <time>2024-04-28T07:29:57Z</time>
      </trkpt>
      <trkpt lat="45.86575" lon="3.40648">
        <ele>371.8</ele>
        <time>2024-04-28T07:29:58Z</time>
      </trkpt>
      <trkpt lat="45.86569" lon="3.40644">
        <ele>372</ele>
        <time>2024-04-28T07:29:59Z</time>
      </trkpt>
      <trkpt lat="45.86564" lon="3.4064">
        <ele>372</ele>
        <time>2024-04-28T07:30:00Z</time>
      </trkpt>
      <trkpt lat="45.86558" lon="3.40635">
        <ele>372.2</ele>
        <time>2024-04-28T07:30:01Z</time>
      </trkpt>
      <trkpt lat="45.86553" lon="3.4063">
        <ele>372.4</ele>
        <time>2024-04-28T07:30:02Z</time>
      </trkpt>
      <trkpt lat="45.86547" lon="3.40627">
        <ele>372.4</ele>
        <time>2024-04-28T07:30:03Z</time>
      </trkpt>
      <trkpt lat="45.86541" lon="3.40624">
        <ele>372.6</ele>
        <time>2024-04-28T07:30:04Z</time>
      </trkpt>
      <trkpt lat="45.86535" lon="3.4062">
        <ele>372.8</ele>
        <time>2024-04-28T07:30:05Z</time>
      </trkpt>
      <trkpt lat="45.86529" lon="3.40617">
        <ele>372.8</ele>
        <time>2024-04-28T07:30:06Z</time>
      </trkpt>
      <trkpt lat="45.86523" lon="3.40613">
        <ele>373</ele>
        <time>2024-04-28T07:30:07Z</time>
      </trkpt>
      <trkpt lat="45.86517" lon="3.4061">
        <ele>373</ele>
        <time>2024-04-28T07:30:08Z</time>
      </trkpt>
      <trkpt lat="45.86511" lon="3.40607">
        <ele>373.2</ele>
        <time>2024-04-28T07:30:09Z</time>
      </trkpt>
      <trkpt lat="45.86505" lon="3.40604">
        <ele>373.4</ele>
        <time>2024-04-28T07:30:10Z</time>
      </trkpt>
      <trkpt lat="45.86499" lon="3.406">
        <ele>373.4</ele>
        <time>2024-04-28T07:30:11Z</time>
      </trkpt>
      <trkpt lat="45.86493" lon="3.40597">
        <ele>373.6</ele>
        <time>2024-04-28T07:30:12Z</time>
      </trkpt>
      <trkpt lat="45.86487" lon="3.40593">
        <ele>373.6</ele>
        <time>2024-04-28T07:30:13Z</time>
      </trkpt>
      <trkpt lat="45.86482" lon="3.4059">
        <ele>373.8</ele>
        <time>2024-04-28T07:30:14Z</time>
      </trkpt>
      <trkpt lat="45.86476" lon="3.40587">
        <ele>373.8</ele>
        <time>2024-04-28T07:30:15Z</time>
      </trkpt>
      <trkpt lat="45.8647" lon="3.40583">
        <ele>374</ele>
        <time>2024-04-28T07:30:16Z</time>
      </trkpt>
      <trkpt lat="45.86464" lon="3.4058">
        <ele>374</ele>
        <time>2024-04-28T07:30:17Z</time>
      </trkpt>
      <trkpt lat="45.86458" lon="3.40577">
        <ele>374</ele>
        <time>2024-04-28T07:30:18Z</time>
      </trkpt>
      <trkpt lat="45.86452" lon="3.40573">
        <ele>374.2</ele>
        <time>2024-04-28T07:30:19Z</time>
      </trkpt>
      <trkpt lat="45.86446" lon="3.4057">
        <ele>374.2</ele>
        <time>2024-04-28T07:30:20Z</time>
      </trkpt>
      <trkpt lat="45.8644" lon="3.40567">
        <ele>374.2</ele>
        <time>2024-04-28T07:30:21Z</time>
      </trkpt>
      <trkpt lat="45.86435" lon="3.40562">
        <ele>374.4</ele>
        <time>2024-04-28T07:30:22Z</time>
      </trkpt>
      <trkpt lat="45.86429" lon="3.40556">
        <ele>374.4</ele>
        <time>2024-04-28T07:30:23Z</time>
      </trkpt>
      <trkpt lat="45.86424" lon="3.4055">
        <ele>374.6</ele>
        <time>2024-04-28T07:30:24Z</time>
      </trkpt>
      <trkpt lat="45.86419" lon="3.40544">
        <ele>374.6</ele>
        <time>2024-04-28T07:30:25Z</time>
      </trkpt>
      <trkpt lat="45.86414" lon="3.40539">
        <ele>374.6</ele>
        <time>2024-04-28T07:30:26Z</time>
      </trkpt>
      <trkpt lat="45.86408" lon="3.40533">
        <ele>374.8</ele>
        <time>2024-04-28T07:30:27Z</time>
      </trkpt>
      <trkpt lat="45.86403" lon="3.40527">
        <ele>374.8</ele>
        <time>2024-04-28T07:30:28Z</time>
      </trkpt>
      <trkpt lat="45.86398" lon="3.40521">
        <ele>374.8</ele>
        <time>2024-04-28T07:30:29Z</time>
      </trkpt>
      <trkpt lat="45.86393" lon="3.40515">
        <ele>374.8</ele>
        <time>2024-04-28T07:30:30Z</time>
      </trkpt>
      <trkpt lat="45.86389" lon="3.40507">
        <ele>374.8</ele>
        <time>2024-04-28T07:30:31Z</time>
      </trkpt>
      <trkpt lat="45.86385" lon="3.40499">
        <ele>374.8</ele>
        <time>2024-04-28T07:30:32Z</time>
      </trkpt>
      <trkpt lat="45.8638" lon="3.40492">
        <ele>375</ele>
        <time>2024-04-28T07:30:33Z</time>
      </trkpt>
      <trkpt lat="45.86376" lon="3.40484">
        <ele>375</ele>
        <time>2024-04-28T07:30:34Z</time>
      </trkpt>
      <trkpt lat="45.86372" lon="3.40476">
        <ele>375.2</ele>
        <time>2024-04-28T07:30:35Z</time>
      </trkpt>
      <trkpt lat="45.86368" lon="3.40469">
        <ele>375.2</ele>
        <time>2024-04-28T07:30:36Z</time>
      </trkpt>
      <trkpt lat="45.86364" lon="3.40461">
        <ele>375.4</ele>
        <time>2024-04-28T07:30:37Z</time>
      </trkpt>
      <trkpt lat="45.8636" lon="3.40453">
        <ele>375.6</ele>
        <time>2024-04-28T07:30:38Z</time>
      </trkpt>
      <trkpt lat="45.86354" lon="3.40446">
        <ele>375.6</ele>
        <time>2024-04-28T07:30:39Z</time>
      </trkpt>
      <trkpt lat="45.86349" lon="3.40442">
        <ele>375.8</ele>
        <time>2024-04-28T07:30:40Z</time>
      </trkpt>
      <trkpt lat="45.86343" lon="3.40437">
        <ele>375.8</ele>
        <time>2024-04-28T07:30:41Z</time>
      </trkpt>
      <trkpt lat="45.86337" lon="3.40433">
        <ele>376</ele>
        <time>2024-04-28T07:30:42Z</time>
      </trkpt>
      <trkpt lat="45.86331" lon="3.40428">
        <ele>376</ele>
        <time>2024-04-28T07:30:43Z</time>
      </trkpt>
      <trkpt lat="45.86325" lon="3.40424">
        <ele>376.2</ele>
        <time>2024-04-28T07:30:44Z</time>
      </trkpt>
      <trkpt lat="45.8632" lon="3.40419">
        <ele>376.2</ele>
        <time>2024-04-28T07:30:45Z</time>
      </trkpt>
      <trkpt lat="45.86314" lon="3.40415">
        <ele>376.2</ele>
        <time>2024-04-28T07:30:46Z</time>
      </trkpt>
      <trkpt lat="45.86308" lon="3.4041">
        <ele>376.4</ele>
        <time>2024-04-28T07:30:47Z</time>
      </trkpt>
      <trkpt lat="45.86302" lon="3.40406">
        <ele>376.4</ele>
        <time>2024-04-28T07:30:48Z</time>
      </trkpt>
      <trkpt lat="45.86297" lon="3.40402">
        <ele>376.4</ele>
        <time>2024-04-28T07:30:49Z</time>
      </trkpt>
      <trkpt lat="45.86291" lon="3.40397">
        <ele>376.4</ele>
        <time>2024-04-28T07:30:50Z</time>
      </trkpt>
      <trkpt lat="45.86285" lon="3.40393">
        <ele>376.6</ele>
        <time>2024-04-28T07:30:51Z</time>
      </trkpt>
      <trkpt lat="45.8628" lon="3.40388">
        <ele>376.6</ele>
        <time>2024-04-28T07:30:52Z</time>
      </trkpt>
      <trkpt lat="45.86275" lon="3.40383">
        <ele>376.6</ele>
        <time>2024-04-28T07:30:53Z</time>
      </trkpt>
      <trkpt lat="45.8627" lon="3.40377">
        <ele>376.8</ele>
        <time>2024-04-28T07:30:54Z</time>
      </trkpt>
      <trkpt lat="45.86265" lon="3.40372">
        <ele>376.8</ele>
        <time>2024-04-28T07:30:55Z</time>
      </trkpt>
      <trkpt lat="45.8626" lon="3.40367">
        <ele>376.8</ele>
        <time>2024-04-28T07:30:56Z</time>
      </trkpt>
      <trkpt lat="45.86255" lon="3.40362">
        <ele>377</ele>
        <time>2024-04-28T07:30:57Z</time>
      </trkpt>
      <trkpt lat="45.8625" lon="3.40357">
        <ele>377</ele>
        <time>2024-04-28T07:30:58Z</time>
      </trkpt>
      <trkpt lat="45.86245" lon="3.40351">
        <ele>377.2</ele>
        <time>2024-04-28T07:30:59Z</time>
      </trkpt>
      <trkpt lat="45.8624" lon="3.40346">
        <ele>377.2</ele>
        <time>2024-04-28T07:31:00Z</time>
      </trkpt>
      <trkpt lat="45.86235" lon="3.40341">
        <ele>377.2</ele>
        <time>2024-04-28T07:31:01Z</time>
      </trkpt>
      <trkpt lat="45.8623" lon="3.40336">
        <ele>377.4</ele>
        <time>2024-04-28T07:31:02Z</time>
      </trkpt>
      <trkpt lat="45.86225" lon="3.40331">
        <ele>377.4</ele>
        <time>2024-04-28T07:31:03Z</time>
      </trkpt>
      <trkpt lat="45.8622" lon="3.40326">
        <ele>377.6</ele>
        <time>2024-04-28T07:31:04Z</time>
      </trkpt>
      <trkpt lat="45.86216" lon="3.40321">
        <ele>377.6</ele>
        <time>2024-04-28T07:31:05Z</time>
      </trkpt>
      <trkpt lat="45.86211" lon="3.40316">
        <ele>377.6</ele>
        <time>2024-04-28T07:31:06Z</time>
      </trkpt>
      <trkpt lat="45.86206" lon="3.40311">
        <ele>377.8</ele>
        <time>2024-04-28T07:31:07Z</time>
      </trkpt>
      <trkpt lat="45.86202" lon="3.40306">
        <ele>377.8</ele>
        <time>2024-04-28T07:31:08Z</time>
      </trkpt>
      <trkpt lat="45.86197" lon="3.40301">
        <ele>378</ele>
        <time>2024-04-28T07:31:09Z</time>
      </trkpt>
      <trkpt lat="45.86193" lon="3.40297">
        <ele>378</ele>
        <time>2024-04-28T07:31:10Z</time>
      </trkpt>
      <trkpt lat="45.86188" lon="3.40293">
        <ele>378.2</ele>
        <time>2024-04-28T07:31:11Z</time>
      </trkpt>
      <trkpt lat="45.86182" lon="3.40289">
        <ele>378.2</ele>
        <time>2024-04-28T07:31:12Z</time>
      </trkpt>
      <trkpt lat="45.86177" lon="3.40285">
        <ele>378.4</ele>
        <time>2024-04-28T07:31:13Z</time>
      </trkpt>
      <trkpt lat="45.86172" lon="3.40281">
        <ele>378.6</ele>
        <time>2024-04-28T07:31:14Z</time>
      </trkpt>
      <trkpt lat="45.86168" lon="3.40277">
        <ele>378.6</ele>
        <time>2024-04-28T07:31:15Z</time>
      </trkpt>
      <trkpt lat="45.86163" lon="3.40273">
        <ele>378.8</ele>
        <time>2024-04-28T07:31:16Z</time>
      </trkpt>
      <trkpt lat="45.86158" lon="3.40269">
        <ele>378.8</ele>
        <time>2024-04-28T07:31:17Z</time>
      </trkpt>
      <trkpt lat="45.86153" lon="3.40266">
        <ele>378.8</ele>
        <time>2024-04-28T07:31:18Z</time>
      </trkpt>
      <trkpt lat="45.86143" lon="3.40258">
        <ele>379</ele>
        <time>2024-04-28T07:31:19Z</time>
      </trkpt>
      <trkpt lat="45.86143" lon="3.40258">
        <ele>379</ele>
        <time>2024-04-28T07:31:20Z</time>
      </trkpt>
      <trkpt lat="45.86137" lon="3.40255">
        <ele>379.2</ele>
        <time>2024-04-28T07:31:21Z</time>
      </trkpt>
      <trkpt lat="45.86131" lon="3.40251">
        <ele>379.2</ele>
        <time>2024-04-28T07:31:22Z</time>
      </trkpt>
      <trkpt lat="45.86125" lon="3.40248">
        <ele>379.4</ele>
        <time>2024-04-28T07:31:23Z</time>
      </trkpt>
      <trkpt lat="45.8612" lon="3.40245">
        <ele>379.4</ele>
        <time>2024-04-28T07:31:24Z</time>
      </trkpt>
      <trkpt lat="45.86114" lon="3.40242">
        <ele>379.6</ele>
        <time>2024-04-28T07:31:25Z</time>
      </trkpt>
      <trkpt lat="45.86109" lon="3.40239">
        <ele>379.6</ele>
        <time>2024-04-28T07:31:26Z</time>
      </trkpt>
      <trkpt lat="45.86104" lon="3.40236">
        <ele>379.8</ele>
        <time>2024-04-28T07:31:27Z</time>
      </trkpt>
      <trkpt lat="45.86098" lon="3.40234">
        <ele>379.8</ele>
        <time>2024-04-28T07:31:28Z</time>
      </trkpt>
      <trkpt lat="45.86092" lon="3.40232">
        <ele>380</ele>
        <time>2024-04-28T07:31:29Z</time>
      </trkpt>
      <trkpt lat="45.86086" lon="3.40229">
        <ele>380</ele>
        <time>2024-04-28T07:31:30Z</time>
      </trkpt>
      <trkpt lat="45.8608" lon="3.40227">
        <ele>380</ele>
        <time>2024-04-28T07:31:31Z</time>
      </trkpt>
      <trkpt lat="45.86075" lon="3.40224">
        <ele>380.2</ele>
        <time>2024-04-28T07:31:32Z</time>
      </trkpt>
      <trkpt lat="45.86068" lon="3.40221">
        <ele>380.2</ele>
        <time>2024-04-28T07:31:33Z</time>
      </trkpt>
      <trkpt lat="45.86062" lon="3.40219">
        <ele>380.2</ele>
        <time>2024-04-28T07:31:34Z</time>
      </trkpt>
      <trkpt lat="45.86056" lon="3.40216">
        <ele>380.4</ele>
        <time>2024-04-28T07:31:35Z</time>
      </trkpt>
      <trkpt lat="45.8605" lon="3.40214">
        <ele>380.4</ele>
        <time>2024-04-28T07:31:36Z</time>
      </trkpt>
      <trkpt lat="45.86044" lon="3.40211">
        <ele>380.4</ele>
        <time>2024-04-28T07:31:37Z</time>
      </trkpt>
      <trkpt lat="45.86037" lon="3.40208">
        <ele>380.4</ele>
        <time>2024-04-28T07:31:38Z</time>
      </trkpt>
      <trkpt lat="45.86031" lon="3.40206">
        <ele>380.6</ele>
        <time>2024-04-28T07:31:39Z</time>
      </trkpt>
      <trkpt lat="45.86025" lon="3.40203">
        <ele>380.6</ele>
        <time>2024-04-28T07:31:40Z</time>
      </trkpt>
      <trkpt lat="45.86019" lon="3.402">
        <ele>380.6</ele>
        <time>2024-04-28T07:31:41Z</time>
      </trkpt>
      <trkpt lat="45.86012" lon="3.40198">
        <ele>380.6</ele>
        <time>2024-04-28T07:31:42Z</time>
      </trkpt>
      <trkpt lat="45.86006" lon="3.40195">
        <ele>380.6</ele>
        <time>2024-04-28T07:31:43Z</time>
      </trkpt>
      <trkpt lat="45.86" lon="3.40192">
        <ele>380.6</ele>
        <time>2024-04-28T07:31:44Z</time>
      </trkpt>
      <trkpt lat="45.85994" lon="3.4019">
        <ele>380.6</ele>
        <time>2024-04-28T07:31:45Z</time>
      </trkpt>
      <trkpt lat="45.85988" lon="3.40187">
        <ele>380.4</ele>
        <time>2024-04-28T07:31:46Z</time>
      </trkpt>
      <trkpt lat="45.85982" lon="3.40185">
        <ele>380.4</ele>
        <time>2024-04-28T07:31:47Z</time>
      </trkpt>
      <trkpt lat="45.85976" lon="3.40182">
        <ele>380.4</ele>
        <time>2024-04-28T07:31:48Z</time>
      </trkpt>
      <trkpt lat="45.8597" lon="3.40179">
        <ele>380.2</ele>
        <time>2024-04-28T07:31:49Z</time>
      </trkpt>
      <trkpt lat="45.85964" lon="3.40177">
        <ele>380.2</ele>
        <time>2024-04-28T07:31:50Z</time>
      </trkpt>
      <trkpt lat="45.85958" lon="3.40174">
        <ele>380.6</ele>
        <time>2024-04-28T07:31:51Z</time>
      </trkpt>
      <trkpt lat="45.85952" lon="3.40172">
        <ele>380</ele>
        <time>2024-04-28T07:31:52Z</time>
      </trkpt>
      <trkpt lat="45.85946" lon="3.40169">
        <ele>379.2</ele>
        <time>2024-04-28T07:31:53Z</time>
      </trkpt>
      <trkpt lat="45.8594" lon="3.40167">
        <ele>379.6</ele>
        <time>2024-04-28T07:31:54Z</time>
      </trkpt>
      <trkpt lat="45.85934" lon="3.40164">
        <ele>379.6</ele>
        <time>2024-04-28T07:31:55Z</time>
      </trkpt>
      <trkpt lat="45.85928" lon="3.40162">
        <ele>379.4</ele>
        <time>2024-04-28T07:31:56Z</time>
      </trkpt>
      <trkpt lat="45.85922" lon="3.40159">
        <ele>379.2</ele>
        <time>2024-04-28T07:31:57Z</time>
      </trkpt>
      <trkpt lat="45.85915" lon="3.40157">
        <ele>379.2</ele>
        <time>2024-04-28T07:31:58Z</time>
      </trkpt>
      <trkpt lat="45.85909" lon="3.40156">
        <ele>379</ele>
        <time>2024-04-28T07:31:59Z</time>
      </trkpt>
      <trkpt lat="45.85903" lon="3.40155">
        <ele>378.8</ele>
        <time>2024-04-28T07:32:00Z</time>
      </trkpt>
      <trkpt lat="45.85897" lon="3.40154">
        <ele>378.6</ele>
        <time>2024-04-28T07:32:01Z</time>
      </trkpt>
      <trkpt lat="45.85891" lon="3.40153">
        <ele>378.4</ele>
        <time>2024-04-28T07:32:02Z</time>
      </trkpt>
      <trkpt lat="45.85885" lon="3.40151">
        <ele>378.2</ele>
        <time>2024-04-28T07:32:03Z</time>
      </trkpt>
      <trkpt lat="45.85879" lon="3.4015">
        <ele>378.2</ele>
        <time>2024-04-28T07:32:04Z</time>
      </trkpt>
      <trkpt lat="45.85872" lon="3.40149">
        <ele>378</ele>
        <time>2024-04-28T07:32:05Z</time>
      </trkpt>
      <trkpt lat="45.85866" lon="3.40148">
        <ele>378.2</ele>
        <time>2024-04-28T07:32:06Z</time>
      </trkpt>
      <trkpt lat="45.8586" lon="3.40147">
        <ele>378.4</ele>
        <time>2024-04-28T07:32:07Z</time>
      </trkpt>
      <trkpt lat="45.85854" lon="3.40146">
        <ele>378.6</ele>
        <time>2024-04-28T07:32:08Z</time>
      </trkpt>
      <trkpt lat="45.85847" lon="3.40145">
        <ele>378.6</ele>
        <time>2024-04-28T07:32:09Z</time>
      </trkpt>
      <trkpt lat="45.85841" lon="3.40143">
        <ele>378.8</ele>
        <time>2024-04-28T07:32:10Z</time>
      </trkpt>
      <trkpt lat="45.85835" lon="3.40142">
        <ele>379</ele>
        <time>2024-04-28T07:32:11Z</time>
      </trkpt>
      <trkpt lat="45.85829" lon="3.40141">
        <ele>379</ele>
        <time>2024-04-28T07:32:12Z</time>
      </trkpt>
      <trkpt lat="45.85823" lon="3.4014">
        <ele>378</ele>
        <time>2024-04-28T07:32:13Z</time>
      </trkpt>
      <trkpt lat="45.85817" lon="3.40139">
        <ele>378.8</ele>
        <time>2024-04-28T07:32:14Z</time>
      </trkpt>
      <trkpt lat="45.85811" lon="3.40138">
        <ele>379.8</ele>
        <time>2024-04-28T07:32:15Z</time>
      </trkpt>
      <trkpt lat="45.85805" lon="3.40137">
        <ele>380.4</ele>
        <time>2024-04-28T07:32:16Z</time>
      </trkpt>
      <trkpt lat="45.85799" lon="3.40136">
        <ele>380.8</ele>
        <time>2024-04-28T07:32:17Z</time>
      </trkpt>
      <trkpt lat="45.85793" lon="3.40135">
        <ele>379.8</ele>
        <time>2024-04-28T07:32:18Z</time>
      </trkpt>
      <trkpt lat="45.85787" lon="3.40133">
        <ele>379.8</ele>
        <time>2024-04-28T07:32:19Z</time>
      </trkpt>
      <trkpt lat="45.8578" lon="3.40132">
        <ele>379.8</ele>
        <time>2024-04-28T07:32:20Z</time>
      </trkpt>
      <trkpt lat="45.85774" lon="3.40131">
        <ele>379.8</ele>
        <time>2024-04-28T07:32:21Z</time>
      </trkpt>
      <trkpt lat="45.85768" lon="3.4013">
        <ele>379.8</ele>
        <time>2024-04-28T07:32:22Z</time>
      </trkpt>
      <trkpt lat="45.85762" lon="3.40129">
        <ele>379.8</ele>
        <time>2024-04-28T07:32:23Z</time>
      </trkpt>
      <trkpt lat="45.85755" lon="3.40128">
        <ele>379.8</ele>
        <time>2024-04-28T07:32:24Z</time>
      </trkpt>
      <trkpt lat="45.85749" lon="3.40127">
        <ele>379.8</ele>
        <time>2024-04-28T07:32:25Z</time>
      </trkpt>
      <trkpt lat="45.85743" lon="3.40126">
        <ele>379.8</ele>
        <time>2024-04-28T07:32:26Z</time>
      </trkpt>
      <trkpt lat="45.85737" lon="3.40124">
        <ele>379.8</ele>
        <time>2024-04-28T07:32:27Z</time>
      </trkpt>
      <trkpt lat="45.85731" lon="3.40123">
        <ele>379.8</ele>
        <time>2024-04-28T07:32:28Z</time>
      </trkpt>
      <trkpt lat="45.85724" lon="3.40122">
        <ele>380</ele>
        <time>2024-04-28T07:32:29Z</time>
      </trkpt>
      <trkpt lat="45.85718" lon="3.40121">
        <ele>380</ele>
        <time>2024-04-28T07:32:30Z</time>
      </trkpt>
      <trkpt lat="45.85712" lon="3.40119">
        <ele>380</ele>
        <time>2024-04-28T07:32:31Z</time>
      </trkpt>
      <trkpt lat="45.85705" lon="3.40118">
        <ele>380</ele>
        <time>2024-04-28T07:32:32Z</time>
      </trkpt>
      <trkpt lat="45.85699" lon="3.40116">
        <ele>380.2</ele>
        <time>2024-04-28T07:32:33Z</time>
      </trkpt>
      <trkpt lat="45.85693" lon="3.40114">
        <ele>380.2</ele>
        <time>2024-04-28T07:32:34Z</time>
      </trkpt>
      <trkpt lat="45.85687" lon="3.40112">
        <ele>380.2</ele>
        <time>2024-04-28T07:32:35Z</time>
      </trkpt>
      <trkpt lat="45.85681" lon="3.4011">
        <ele>380.2</ele>
        <time>2024-04-28T07:32:36Z</time>
      </trkpt>
      <trkpt lat="45.85675" lon="3.40108">
        <ele>380.2</ele>
        <time>2024-04-28T07:32:37Z</time>
      </trkpt>
      <trkpt lat="45.85669" lon="3.40107">
        <ele>380.4</ele>
        <time>2024-04-28T07:32:38Z</time>
      </trkpt>
      <trkpt lat="45.85663" lon="3.40105">
        <ele>380.4</ele>
        <time>2024-04-28T07:32:39Z</time>
      </trkpt>
      <trkpt lat="45.85657" lon="3.40103">
        <ele>380.4</ele>
        <time>2024-04-28T07:32:40Z</time>
      </trkpt>
      <trkpt lat="45.85651" lon="3.40101">
        <ele>380.6</ele>
        <time>2024-04-28T07:32:41Z</time>
      </trkpt>
      <trkpt lat="45.85644" lon="3.401">
        <ele>380.6</ele>
        <time>2024-04-28T07:32:42Z</time>
      </trkpt>
      <trkpt lat="45.85638" lon="3.40099">
        <ele>380.6</ele>
        <time>2024-04-28T07:32:43Z</time>
      </trkpt>
      <trkpt lat="45.85631" lon="3.40099">
        <ele>380.6</ele>
        <time>2024-04-28T07:32:44Z</time>
      </trkpt>
      <trkpt lat="45.85626" lon="3.40098">
        <ele>380.6</ele>
        <time>2024-04-28T07:32:45Z</time>
      </trkpt>
      <trkpt lat="45.8562" lon="3.40098">
        <ele>380.6</ele>
        <time>2024-04-28T07:32:46Z</time>
      </trkpt>
      <trkpt lat="45.85614" lon="3.40098">
        <ele>380.6</ele>
        <time>2024-04-28T07:32:47Z</time>
      </trkpt>
      <trkpt lat="45.85608" lon="3.40098">
        <ele>380.6</ele>
        <time>2024-04-28T07:32:48Z</time>
      </trkpt>
      <trkpt lat="45.85601" lon="3.40099">
        <ele>380.6</ele>
        <time>2024-04-28T07:32:49Z</time>
      </trkpt>
      <trkpt lat="45.85595" lon="3.40099">
        <ele>380.6</ele>
        <time>2024-04-28T07:32:50Z</time>
      </trkpt>
      <trkpt lat="45.85588" lon="3.401">
        <ele>380.6</ele>
        <time>2024-04-28T07:32:51Z</time>
      </trkpt>
      <trkpt lat="45.85581" lon="3.401">
        <ele>380.4</ele>
        <time>2024-04-28T07:32:52Z</time>
      </trkpt>
      <trkpt lat="45.85575" lon="3.401">
        <ele>380.4</ele>
        <time>2024-04-28T07:32:53Z</time>
      </trkpt>
      <trkpt lat="45.85568" lon="3.40101">
        <ele>380.4</ele>
        <time>2024-04-28T07:32:54Z</time>
      </trkpt>
      <trkpt lat="45.85561" lon="3.40101">
        <ele>380.8</ele>
        <time>2024-04-28T07:32:55Z</time>
      </trkpt>
      <trkpt lat="45.85554" lon="3.40102">
        <ele>380.6</ele>
        <time>2024-04-28T07:32:56Z</time>
      </trkpt>
      <trkpt lat="45.85548" lon="3.40102">
        <ele>380.6</ele>
        <time>2024-04-28T07:32:57Z</time>
      </trkpt>
      <trkpt lat="45.85541" lon="3.40103">
        <ele>380.8</ele>
        <time>2024-04-28T07:32:58Z</time>
      </trkpt>
      <trkpt lat="45.85534" lon="3.40103">
        <ele>380.6</ele>
        <time>2024-04-28T07:32:59Z</time>
      </trkpt>
      <trkpt lat="45.85527" lon="3.40103">
        <ele>380.6</ele>
        <time>2024-04-28T07:33:00Z</time>
      </trkpt>
      <trkpt lat="45.8552" lon="3.40104">
        <ele>380.6</ele>
        <time>2024-04-28T07:33:01Z</time>
      </trkpt>
      <trkpt lat="45.85513" lon="3.40104">
        <ele>380.6</ele>
        <time>2024-04-28T07:33:02Z</time>
      </trkpt>
      <trkpt lat="45.85506" lon="3.40103">
        <ele>380.6</ele>
        <time>2024-04-28T07:33:03Z</time>
      </trkpt>
      <trkpt lat="45.85499" lon="3.40102">
        <ele>380.6</ele>
        <time>2024-04-28T07:33:04Z</time>
      </trkpt>
      <trkpt lat="45.85493" lon="3.40101">
        <ele>380.6</ele>
        <time>2024-04-28T07:33:05Z</time>
      </trkpt>
      <trkpt lat="45.85486" lon="3.401">
        <ele>380.8</ele>
        <time>2024-04-28T07:33:06Z</time>
      </trkpt>
      <trkpt lat="45.85479" lon="3.40099">
        <ele>380.8</ele>
        <time>2024-04-28T07:33:07Z</time>
      </trkpt>
      <trkpt lat="45.85473" lon="3.40098">
        <ele>380.8</ele>
        <time>2024-04-28T07:33:08Z</time>
      </trkpt>
      <trkpt lat="45.85466" lon="3.40097">
        <ele>380.8</ele>
        <time>2024-04-28T07:33:09Z</time>
      </trkpt>
      <trkpt lat="45.85459" lon="3.40096">
        <ele>380.8</ele>
        <time>2024-04-28T07:33:10Z</time>
      </trkpt>
      <trkpt lat="45.85453" lon="3.40095">
        <ele>380.8</ele>
        <time>2024-04-28T07:33:11Z</time>
      </trkpt>
      <trkpt lat="45.85446" lon="3.40094">
        <ele>380.8</ele>
        <time>2024-04-28T07:33:12Z</time>
      </trkpt>
      <trkpt lat="45.8544" lon="3.40093">
        <ele>381</ele>
        <time>2024-04-28T07:33:13Z</time>
      </trkpt>
      <trkpt lat="45.85433" lon="3.40092">
        <ele>381</ele>
        <time>2024-04-28T07:33:14Z</time>
      </trkpt>
      <trkpt lat="45.85427" lon="3.40092">
        <ele>381</ele>
        <time>2024-04-28T07:33:15Z</time>
      </trkpt>
      <trkpt lat="45.85421" lon="3.40093">
        <ele>381</ele>
        <time>2024-04-28T07:33:16Z</time>
      </trkpt>
      <trkpt lat="45.85417" lon="3.40093">
        <ele>381.2</ele>
        <time>2024-04-28T07:33:17Z</time>
      </trkpt>
      <trkpt lat="45.85417" lon="3.40093">
        <ele>381.2</ele>
        <time>2024-04-28T07:33:18Z</time>
      </trkpt>
      <trkpt lat="45.854" lon="3.40097">
        <ele>381.2</ele>
        <time>2024-04-28T07:33:19Z</time>
      </trkpt>
      <trkpt lat="45.85394" lon="3.40092">
        <ele>381.2</ele>
        <time>2024-04-28T07:33:20Z</time>
      </trkpt>
      <trkpt lat="45.85389" lon="3.40088">
        <ele>381.2</ele>
        <time>2024-04-28T07:33:21Z</time>
      </trkpt>
      <trkpt lat="45.85384" lon="3.40083">
        <ele>381</ele>
        <time>2024-04-28T07:33:22Z</time>
      </trkpt>
      <trkpt lat="45.85378" lon="3.40079">
        <ele>381</ele>
        <time>2024-04-28T07:33:23Z</time>
      </trkpt>
      <trkpt lat="45.85373" lon="3.40074">
        <ele>381</ele>
        <time>2024-04-28T07:33:24Z</time>
      </trkpt>
      <trkpt lat="45.85367" lon="3.40069">
        <ele>381</ele>
        <time>2024-04-28T07:33:25Z</time>
      </trkpt>
      <trkpt lat="45.85361" lon="3.40064">
        <ele>381.2</ele>
        <time>2024-04-28T07:33:26Z</time>
      </trkpt>
      <trkpt lat="45.85356" lon="3.40059">
        <ele>380.6</ele>
        <time>2024-04-28T07:33:27Z</time>
      </trkpt>
      <trkpt lat="45.8535" lon="3.40054">
        <ele>380.6</ele>
        <time>2024-04-28T07:33:28Z</time>
      </trkpt>
      <trkpt lat="45.85344" lon="3.40049">
        <ele>380.6</ele>
        <time>2024-04-28T07:33:29Z</time>
      </trkpt>
      <trkpt lat="45.85339" lon="3.40044">
        <ele>380.4</ele>
        <time>2024-04-28T07:33:30Z</time>
      </trkpt>
      <trkpt lat="45.85333" lon="3.4004">
        <ele>380.2</ele>
        <time>2024-04-28T07:33:31Z</time>
      </trkpt>
      <trkpt lat="45.85327" lon="3.40034">
        <ele>380.2</ele>
        <time>2024-04-28T07:33:32Z</time>
      </trkpt>
      <trkpt lat="45.85322" lon="3.40028">
        <ele>380.2</ele>
        <time>2024-04-28T07:33:33Z</time>
      </trkpt>
      <trkpt lat="45.85316" lon="3.40023">
        <ele>380</ele>
        <time>2024-04-28T07:33:34Z</time>
      </trkpt>
      <trkpt lat="45.85311" lon="3.40017">
        <ele>380</ele>
        <time>2024-04-28T07:33:35Z</time>
      </trkpt>
      <trkpt lat="45.85306" lon="3.40011">
        <ele>380</ele>
        <time>2024-04-28T07:33:36Z</time>
      </trkpt>
      <trkpt lat="45.853" lon="3.40005">
        <ele>380</ele>
        <time>2024-04-28T07:33:37Z</time>
      </trkpt>
      <trkpt lat="45.85295" lon="3.4">
        <ele>380.2</ele>
        <time>2024-04-28T07:33:38Z</time>
      </trkpt>
      <trkpt lat="45.8529" lon="3.39993">
        <ele>380.2</ele>
        <time>2024-04-28T07:33:39Z</time>
      </trkpt>
      <trkpt lat="45.85286" lon="3.39986">
        <ele>380.2</ele>
        <time>2024-04-28T07:33:40Z</time>
      </trkpt>
      <trkpt lat="45.85282" lon="3.39979">
        <ele>380.2</ele>
        <time>2024-04-28T07:33:41Z</time>
      </trkpt>
      <trkpt lat="45.85278" lon="3.39972">
        <ele>380.2</ele>
        <time>2024-04-28T07:33:42Z</time>
      </trkpt>
      <trkpt lat="45.85274" lon="3.39965">
        <ele>380.2</ele>
        <time>2024-04-28T07:33:43Z</time>
      </trkpt>
      <trkpt lat="45.8527" lon="3.39958">
        <ele>380.2</ele>
        <time>2024-04-28T07:33:44Z</time>
      </trkpt>
      <trkpt lat="45.85267" lon="3.3995">
        <ele>380.4</ele>
        <time>2024-04-28T07:33:45Z</time>
      </trkpt>
      <trkpt lat="45.85264" lon="3.39942">
        <ele>380.4</ele>
        <time>2024-04-28T07:33:46Z</time>
      </trkpt>
      <trkpt lat="45.85261" lon="3.39934">
        <ele>379.8</ele>
        <time>2024-04-28T07:33:47Z</time>
      </trkpt>
      <trkpt lat="45.85258" lon="3.39926">
        <ele>380</ele>
        <time>2024-04-28T07:33:48Z</time>
      </trkpt>
      <trkpt lat="45.85255" lon="3.39917">
        <ele>380</ele>
        <time>2024-04-28T07:33:49Z</time>
      </trkpt>
      <trkpt lat="45.85252" lon="3.39909">
        <ele>380.6</ele>
        <time>2024-04-28T07:33:50Z</time>
      </trkpt>
      <trkpt lat="45.85249" lon="3.399">
        <ele>380.6</ele>
        <time>2024-04-28T07:33:51Z</time>
      </trkpt>
      <trkpt lat="45.85248" lon="3.3989">
        <ele>381.2</ele>
        <time>2024-04-28T07:33:52Z</time>
      </trkpt>
      <trkpt lat="45.85247" lon="3.3988">
        <ele>380.8</ele>
        <time>2024-04-28T07:33:53Z</time>
      </trkpt>
      <trkpt lat="45.85246" lon="3.3987">
        <ele>380.8</ele>
        <time>2024-04-28T07:33:54Z</time>
      </trkpt>
      <trkpt lat="45.85245" lon="3.3986">
        <ele>380.8</ele>
        <time>2024-04-28T07:33:55Z</time>
      </trkpt>
      <trkpt lat="45.85244" lon="3.3985">
        <ele>380.8</ele>
        <time>2024-04-28T07:33:56Z</time>
      </trkpt>
      <trkpt lat="45.85243" lon="3.3984">
        <ele>380.8</ele>
        <time>2024-04-28T07:33:57Z</time>
      </trkpt>
      <trkpt lat="45.85243" lon="3.39828">
        <ele>380.8</ele>
        <time>2024-04-28T07:33:58Z</time>
      </trkpt>
      <trkpt lat="45.85244" lon="3.39818">
        <ele>380.8</ele>
        <time>2024-04-28T07:33:59Z</time>
      </trkpt>
      <trkpt lat="45.85244" lon="3.39808">
        <ele>380.8</ele>
        <time>2024-04-28T07:34:00Z</time>
      </trkpt>
      <trkpt lat="45.85245" lon="3.39798">
        <ele>380.8</ele>
        <time>2024-04-28T07:34:01Z</time>
      </trkpt>
      <trkpt lat="45.85246" lon="3.39787">
        <ele>380.8</ele>
        <time>2024-04-28T07:34:02Z</time>
      </trkpt>
      <trkpt lat="45.85246" lon="3.39776">
        <ele>380.8</ele>
        <time>2024-04-28T07:34:03Z</time>
      </trkpt>
      <trkpt lat="45.85247" lon="3.39765">
        <ele>380.8</ele>
        <time>2024-04-28T07:34:04Z</time>
      </trkpt>
      <trkpt lat="45.85247" lon="3.39754">
        <ele>380.8</ele>
        <time>2024-04-28T07:34:05Z</time>
      </trkpt>
      <trkpt lat="45.85248" lon="3.39743">
        <ele>381</ele>
        <time>2024-04-28T07:34:06Z</time>
      </trkpt>
      <trkpt lat="45.85249" lon="3.39732">
        <ele>381</ele>
        <time>2024-04-28T07:34:07Z</time>
      </trkpt>
      <trkpt lat="45.85249" lon="3.39721">
        <ele>381</ele>
        <time>2024-04-28T07:34:08Z</time>
      </trkpt>
      <trkpt lat="45.8525" lon="3.39709">
        <ele>381.2</ele>
        <time>2024-04-28T07:34:09Z</time>
      </trkpt>
      <trkpt lat="45.85251" lon="3.39698">
        <ele>381.2</ele>
        <time>2024-04-28T07:34:10Z</time>
      </trkpt>
      <trkpt lat="45.85251" lon="3.39687">
        <ele>381.2</ele>
        <time>2024-04-28T07:34:11Z</time>
      </trkpt>
      <trkpt lat="45.85252" lon="3.39675">
        <ele>381.2</ele>
        <time>2024-04-28T07:34:12Z</time>
      </trkpt>
      <trkpt lat="45.85253" lon="3.39664">
        <ele>381.4</ele>
        <time>2024-04-28T07:34:13Z</time>
      </trkpt>
      <trkpt lat="45.85253" lon="3.39653">
        <ele>381.4</ele>
        <time>2024-04-28T07:34:14Z</time>
      </trkpt>
      <trkpt lat="45.85254" lon="3.39641">
        <ele>381.4</ele>
        <time>2024-04-28T07:34:15Z</time>
      </trkpt>
      <trkpt lat="45.85255" lon="3.3963">
        <ele>381.4</ele>
        <time>2024-04-28T07:34:16Z</time>
      </trkpt>
      <trkpt lat="45.85255" lon="3.39619">
        <ele>381.6</ele>
        <time>2024-04-28T07:34:17Z</time>
      </trkpt>
      <trkpt lat="45.85256" lon="3.39607">
        <ele>381.6</ele>
        <time>2024-04-28T07:34:18Z</time>
      </trkpt>
      <trkpt lat="45.85257" lon="3.39596">
        <ele>381.6</ele>
        <time>2024-04-28T07:34:19Z</time>
      </trkpt>
      <trkpt lat="45.85257" lon="3.39585">
        <ele>381.6</ele>
        <time>2024-04-28T07:34:20Z</time>
      </trkpt>
      <trkpt lat="45.85258" lon="3.39574">
        <ele>381.6</ele>
        <time>2024-04-28T07:34:21Z</time>
      </trkpt>
      <trkpt lat="45.85259" lon="3.39563">
        <ele>381.6</ele>
        <time>2024-04-28T07:34:22Z</time>
      </trkpt>
      <trkpt lat="45.85259" lon="3.39552">
        <ele>381.6</ele>
        <time>2024-04-28T07:34:23Z</time>
      </trkpt>
      <trkpt lat="45.85261" lon="3.3954">
        <ele>381.8</ele>
        <time>2024-04-28T07:34:24Z</time>
      </trkpt>
      <trkpt lat="45.85262" lon="3.3953">
        <ele>381.8</ele>
        <time>2024-04-28T07:34:25Z</time>
      </trkpt>
      <trkpt lat="45.85264" lon="3.39519">
        <ele>381.8</ele>
        <time>2024-04-28T07:34:26Z</time>
      </trkpt>
      <trkpt lat="45.85266" lon="3.39509">
        <ele>381.8</ele>
        <time>2024-04-28T07:34:27Z</time>
      </trkpt>
      <trkpt lat="45.85267" lon="3.39499">
        <ele>381.8</ele>
        <time>2024-04-28T07:34:28Z</time>
      </trkpt>
      <trkpt lat="45.85269" lon="3.39488">
        <ele>381.8</ele>
        <time>2024-04-28T07:34:29Z</time>
      </trkpt>
      <trkpt lat="45.85271" lon="3.39478">
        <ele>381.8</ele>
        <time>2024-04-28T07:34:30Z</time>
      </trkpt>
      <trkpt lat="45.85274" lon="3.39468">
        <ele>381.8</ele>
        <time>2024-04-28T07:34:31Z</time>
      </trkpt>
      <trkpt lat="45.85276" lon="3.39458">
        <ele>381.8</ele>
        <time>2024-04-28T07:34:32Z</time>
      </trkpt>
      <trkpt lat="45.85279" lon="3.39448">
        <ele>381.8</ele>
        <time>2024-04-28T07:34:33Z</time>
      </trkpt>
      <trkpt lat="45.85281" lon="3.39439">
        <ele>381.8</ele>
        <time>2024-04-28T07:34:34Z</time>
      </trkpt>
      <trkpt lat="45.85283" lon="3.3943">
        <ele>381.8</ele>
        <time>2024-04-28T07:34:35Z</time>
      </trkpt>
      <trkpt lat="45.85285" lon="3.39421">
        <ele>382</ele>
        <time>2024-04-28T07:34:36Z</time>
      </trkpt>
      <trkpt lat="45.85287" lon="3.39412">
        <ele>382</ele>
        <time>2024-04-28T07:34:37Z</time>
      </trkpt>
      <trkpt lat="45.8529" lon="3.39403">
        <ele>382</ele>
        <time>2024-04-28T07:34:38Z</time>
      </trkpt>
      <trkpt lat="45.85292" lon="3.39394">
        <ele>382</ele>
        <time>2024-04-28T07:34:39Z</time>
      </trkpt>
      <trkpt lat="45.85294" lon="3.39385">
        <ele>382.2</ele>
        <time>2024-04-28T07:34:40Z</time>
      </trkpt>
      <trkpt lat="45.85296" lon="3.39375">
        <ele>382.2</ele>
        <time>2024-04-28T07:34:41Z</time>
      </trkpt>
      <trkpt lat="45.85297" lon="3.39365">
        <ele>382.2</ele>
        <time>2024-04-28T07:34:42Z</time>
      </trkpt>
      <trkpt lat="45.85297" lon="3.39355">
        <ele>382.4</ele>
        <time>2024-04-28T07:34:43Z</time>
      </trkpt>
      <trkpt lat="45.85298" lon="3.39345">
        <ele>382.4</ele>
        <time>2024-04-28T07:34:44Z</time>
      </trkpt>
      <trkpt lat="45.85298" lon="3.39335">
        <ele>382.4</ele>
        <time>2024-04-28T07:34:45Z</time>
      </trkpt>
      <trkpt lat="45.85299" lon="3.39325">
        <ele>382.4</ele>
        <time>2024-04-28T07:34:46Z</time>
      </trkpt>
      <trkpt lat="45.85299" lon="3.39316">
        <ele>382.6</ele>
        <time>2024-04-28T07:34:47Z</time>
      </trkpt>
      <trkpt lat="45.85299" lon="3.39307">
        <ele>382.6</ele>
        <time>2024-04-28T07:34:48Z</time>
      </trkpt>
      <trkpt lat="45.85299" lon="3.39299">
        <ele>382.6</ele>
        <time>2024-04-28T07:34:49Z</time>
      </trkpt>
      <trkpt lat="45.85299" lon="3.39292">
        <ele>382.6</ele>
        <time>2024-04-28T07:34:50Z</time>
      </trkpt>
      <trkpt lat="45.853" lon="3.39286">
        <ele>382.6</ele>
        <time>2024-04-28T07:34:51Z</time>
      </trkpt>
      <trkpt lat="45.85301" lon="3.3928">
        <ele>382.8</ele>
        <time>2024-04-28T07:34:52Z</time>
      </trkpt>
      <trkpt lat="45.85302" lon="3.39276">
        <ele>382.8</ele>
        <time>2024-04-28T07:34:53Z</time>
      </trkpt>
      <trkpt lat="45.85302" lon="3.39273">
        <ele>383</ele>
        <time>2024-04-28T07:34:54Z</time>
      </trkpt>
      <trkpt lat="45.85303" lon="3.39271">
        <ele>383</ele>
        <time>2024-04-28T07:34:55Z</time>
      </trkpt>
      <trkpt lat="45.85292" lon="3.39255">
        <ele>383.2</ele>
        <time>2024-04-28T07:34:56Z</time>
      </trkpt>
      <trkpt lat="45.8529" lon="3.39255">
        <ele>383.2</ele>
        <time>2024-04-28T07:34:57Z</time>
      </trkpt>
      <trkpt lat="45.85287" lon="3.39256">
        <ele>383.4</ele>
        <time>2024-04-28T07:34:58Z</time>
      </trkpt>
      <trkpt lat="45.85284" lon="3.39256">
        <ele>383.4</ele>
        <time>2024-04-28T07:34:59Z</time>
      </trkpt>
      <trkpt lat="45.85281" lon="3.39257">
        <ele>383.4</ele>
        <time>2024-04-28T07:35:00Z</time>
      </trkpt>
      <trkpt lat="45.85277" lon="3.39258">
        <ele>383.6</ele>
        <time>2024-04-28T07:35:01Z</time>
      </trkpt>
      <trkpt lat="45.85272" lon="3.39259">
        <ele>383.6</ele>
        <time>2024-04-28T07:35:02Z</time>
      </trkpt>
      <trkpt lat="45.85266" lon="3.39261">
        <ele>383.6</ele>
        <time>2024-04-28T07:35:03Z</time>
      </trkpt>
      <trkpt lat="45.85261" lon="3.39262">
        <ele>383.8</ele>
        <time>2024-04-28T07:35:04Z</time>
      </trkpt>
      <trkpt lat="45.85255" lon="3.39262">
        <ele>383.8</ele>
        <time>2024-04-28T07:35:05Z</time>
      </trkpt>
      <trkpt lat="45.85249" lon="3.39263">
        <ele>384</ele>
        <time>2024-04-28T07:35:06Z</time>
      </trkpt>
      <trkpt lat="45.85243" lon="3.39264">
        <ele>384.2</ele>
        <time>2024-04-28T07:35:07Z</time>
      </trkpt>
      <trkpt lat="45.85236" lon="3.39265">
        <ele>384.2</ele>
        <time>2024-04-28T07:35:08Z</time>
      </trkpt>
      <trkpt lat="45.8523" lon="3.39266">
        <ele>384.4</ele>
        <time>2024-04-28T07:35:09Z</time>
      </trkpt>
      <trkpt lat="45.85224" lon="3.39267">
        <ele>384.4</ele>
        <time>2024-04-28T07:35:10Z</time>
      </trkpt>
      <trkpt lat="45.85217" lon="3.39268">
        <ele>384.6</ele>
        <time>2024-04-28T07:35:11Z</time>
      </trkpt>
      <trkpt lat="45.85211" lon="3.39268">
        <ele>384.8</ele>
        <time>2024-04-28T07:35:12Z</time>
      </trkpt>
      <trkpt lat="45.85205" lon="3.39269">
        <ele>384.8</ele>
        <time>2024-04-28T07:35:13Z</time>
      </trkpt>
      <trkpt lat="45.85199" lon="3.39269">
        <ele>385</ele>
        <time>2024-04-28T07:35:14Z</time>
      </trkpt>
      <trkpt lat="45.85192" lon="3.3927">
        <ele>385</ele>
        <time>2024-04-28T07:35:15Z</time>
      </trkpt>
      <trkpt lat="45.85186" lon="3.3927">
        <ele>385</ele>
        <time>2024-04-28T07:35:16Z</time>
      </trkpt>
      <trkpt lat="45.8518" lon="3.39271">
        <ele>385.2</ele>
        <time>2024-04-28T07:35:17Z</time>
      </trkpt>
      <trkpt lat="45.85174" lon="3.39271">
        <ele>385.2</ele>
        <time>2024-04-28T07:35:18Z</time>
      </trkpt>
      <trkpt lat="45.85168" lon="3.39272">
        <ele>385.2</ele>
        <time>2024-04-28T07:35:19Z</time>
      </trkpt>
      <trkpt lat="45.85161" lon="3.39272">
        <ele>385.4</ele>
        <time>2024-04-28T07:35:20Z</time>
      </trkpt>
      <trkpt lat="45.85155" lon="3.39272">
        <ele>385.6</ele>
        <time>2024-04-28T07:35:21Z</time>
      </trkpt>
      <trkpt lat="45.85149" lon="3.39273">
        <ele>385.6</ele>
        <time>2024-04-28T07:35:22Z</time>
      </trkpt>
      <trkpt lat="45.85142" lon="3.39273">
        <ele>385.6</ele>
        <time>2024-04-28T07:35:23Z</time>
      </trkpt>
      <trkpt lat="45.85137" lon="3.39274">
        <ele>385.8</ele>
        <time>2024-04-28T07:35:24Z</time>
      </trkpt>
      <trkpt lat="45.8513" lon="3.39274">
        <ele>385.8</ele>
        <time>2024-04-28T07:35:25Z</time>
      </trkpt>
      <trkpt lat="45.85124" lon="3.39275">
        <ele>385.8</ele>
        <time>2024-04-28T07:35:26Z</time>
      </trkpt>
      <trkpt lat="45.85118" lon="3.39275">
        <ele>386</ele>
        <time>2024-04-28T07:35:27Z</time>
      </trkpt>
      <trkpt lat="45.85112" lon="3.39276">
        <ele>386</ele>
        <time>2024-04-28T07:35:28Z</time>
      </trkpt>
      <trkpt lat="45.85106" lon="3.39276">
        <ele>386.2</ele>
        <time>2024-04-28T07:35:29Z</time>
      </trkpt>
      <trkpt lat="45.85099" lon="3.39277">
        <ele>386.2</ele>
        <time>2024-04-28T07:35:30Z</time>
      </trkpt>
      <trkpt lat="45.85093" lon="3.39277">
        <ele>386.2</ele>
        <time>2024-04-28T07:35:31Z</time>
      </trkpt>
      <trkpt lat="45.85087" lon="3.39278">
        <ele>386.4</ele>
        <time>2024-04-28T07:35:32Z</time>
      </trkpt>
      <trkpt lat="45.85081" lon="3.39278">
        <ele>386.4</ele>
        <time>2024-04-28T07:35:33Z</time>
      </trkpt>
      <trkpt lat="45.85074" lon="3.39278">
        <ele>386.6</ele>
        <time>2024-04-28T07:35:34Z</time>
      </trkpt>
      <trkpt lat="45.85068" lon="3.39277">
        <ele>386.6</ele>
        <time>2024-04-28T07:35:35Z</time>
      </trkpt>
      <trkpt lat="45.85062" lon="3.39277">
        <ele>386.6</ele>
        <time>2024-04-28T07:35:36Z</time>
      </trkpt>
      <trkpt lat="45.85056" lon="3.39277">
        <ele>386.8</ele>
        <time>2024-04-28T07:35:37Z</time>
      </trkpt>
      <trkpt lat="45.8505" lon="3.39277">
        <ele>386.8</ele>
        <time>2024-04-28T07:35:38Z</time>
      </trkpt>
      <trkpt lat="45.85043" lon="3.39277">
        <ele>386.8</ele>
        <time>2024-04-28T07:35:39Z</time>
      </trkpt>
      <trkpt lat="45.85037" lon="3.39276">
        <ele>386.8</ele>
        <time>2024-04-28T07:35:40Z</time>
      </trkpt>
      <trkpt lat="45.85031" lon="3.39276">
        <ele>387</ele>
        <time>2024-04-28T07:35:41Z</time>
      </trkpt>
      <trkpt lat="45.85025" lon="3.39276">
        <ele>387</ele>
        <time>2024-04-28T07:35:42Z</time>
      </trkpt>
      <trkpt lat="45.85018" lon="3.39276">
        <ele>387</ele>
        <time>2024-04-28T07:35:43Z</time>
      </trkpt>
      <trkpt lat="45.85012" lon="3.39275">
        <ele>387.2</ele>
        <time>2024-04-28T07:35:44Z</time>
      </trkpt>
      <trkpt lat="45.85006" lon="3.39275">
        <ele>387.2</ele>
        <time>2024-04-28T07:35:45Z</time>
      </trkpt>
      <trkpt lat="45.84999" lon="3.39275">
        <ele>387.2</ele>
        <time>2024-04-28T07:35:46Z</time>
      </trkpt>
      <trkpt lat="45.84993" lon="3.39275">
        <ele>387.2</ele>
        <time>2024-04-28T07:35:47Z</time>
      </trkpt>
      <trkpt lat="45.84986" lon="3.39274">
        <ele>387.4</ele>
        <time>2024-04-28T07:35:48Z</time>
      </trkpt>
      <trkpt lat="45.8498" lon="3.39274">
        <ele>387.2</ele>
        <time>2024-04-28T07:35:49Z</time>
      </trkpt>
      <trkpt lat="45.84973" lon="3.39274">
        <ele>387.2</ele>
        <time>2024-04-28T07:35:50Z</time>
      </trkpt>
      <trkpt lat="45.84967" lon="3.39274">
        <ele>387.2</ele>
        <time>2024-04-28T07:35:51Z</time>
      </trkpt>
      <trkpt lat="45.8496" lon="3.39273">
        <ele>387.4</ele>
        <time>2024-04-28T07:35:52Z</time>
      </trkpt>
      <trkpt lat="45.84953" lon="3.39273">
        <ele>387.4</ele>
        <time>2024-04-28T07:35:53Z</time>
      </trkpt>
      <trkpt lat="45.84947" lon="3.39273">
        <ele>387.4</ele>
        <time>2024-04-28T07:35:54Z</time>
      </trkpt>
      <trkpt lat="45.8494" lon="3.39273">
        <ele>387.6</ele>
        <time>2024-04-28T07:35:55Z</time>
      </trkpt>
      <trkpt lat="45.84934" lon="3.39272">
        <ele>387.6</ele>
        <time>2024-04-28T07:35:56Z</time>
      </trkpt>
      <trkpt lat="45.84927" lon="3.39272">
        <ele>387.4</ele>
        <time>2024-04-28T07:35:57Z</time>
      </trkpt>
      <trkpt lat="45.8492" lon="3.39272">
        <ele>387.6</ele>
        <time>2024-04-28T07:35:58Z</time>
      </trkpt>
      <trkpt lat="45.84913" lon="3.39272">
        <ele>387.6</ele>
        <time>2024-04-28T07:35:59Z</time>
      </trkpt>
      <trkpt lat="45.84906" lon="3.39271">
        <ele>387.6</ele>
        <time>2024-04-28T07:36:00Z</time>
      </trkpt>
      <trkpt lat="45.849" lon="3.39271">
        <ele>387.6</ele>
        <time>2024-04-28T07:36:01Z</time>
      </trkpt>
      <trkpt lat="45.84893" lon="3.3927">
        <ele>387.8</ele>
        <time>2024-04-28T07:36:02Z</time>
      </trkpt>
      <trkpt lat="45.84887" lon="3.39269">
        <ele>387.8</ele>
        <time>2024-04-28T07:36:03Z</time>
      </trkpt>
      <trkpt lat="45.8488" lon="3.39269">
        <ele>387.8</ele>
        <time>2024-04-28T07:36:04Z</time>
      </trkpt>
      <trkpt lat="45.84873" lon="3.39268">
        <ele>387.8</ele>
        <time>2024-04-28T07:36:05Z</time>
      </trkpt>
      <trkpt lat="45.84867" lon="3.39268">
        <ele>387.8</ele>
        <time>2024-04-28T07:36:06Z</time>
      </trkpt>
      <trkpt lat="45.8486" lon="3.39267">
        <ele>388</ele>
        <time>2024-04-28T07:36:07Z</time>
      </trkpt>
      <trkpt lat="45.84853" lon="3.39266">
        <ele>388</ele>
        <time>2024-04-28T07:36:08Z</time>
      </trkpt>
      <trkpt lat="45.84846" lon="3.39265">
        <ele>388.2</ele>
        <time>2024-04-28T07:36:09Z</time>
      </trkpt>
      <trkpt lat="45.84839" lon="3.39263">
        <ele>388.2</ele>
        <time>2024-04-28T07:36:10Z</time>
      </trkpt>
      <trkpt lat="45.84832" lon="3.39262">
        <ele>388.2</ele>
        <time>2024-04-28T07:36:11Z</time>
      </trkpt>
      <trkpt lat="45.84825" lon="3.39261">
        <ele>388.4</ele>
        <time>2024-04-28T07:36:12Z</time>
      </trkpt>
      <trkpt lat="45.84818" lon="3.3926">
        <ele>388.4</ele>
        <time>2024-04-28T07:36:13Z</time>
      </trkpt>
      <trkpt lat="45.84814" lon="3.39259">
        <ele>388.4</ele>
        <time>2024-04-28T07:36:14Z</time>
      </trkpt>
      <trkpt lat="45.84807" lon="3.3925">
        <ele>388.6</ele>
        <time>2024-04-28T07:36:15Z</time>
      </trkpt>
      <trkpt lat="45.84798" lon="3.39246">
        <ele>388.6</ele>
        <time>2024-04-28T07:36:16Z</time>
      </trkpt>
      <trkpt lat="45.84791" lon="3.39248">
        <ele>388.6</ele>
        <time>2024-04-28T07:36:17Z</time>
      </trkpt>
      <trkpt lat="45.84784" lon="3.39255">
        <ele>388.8</ele>
        <time>2024-04-28T07:36:18Z</time>
      </trkpt>
      <trkpt lat="45.84778" lon="3.39259">
        <ele>388.8</ele>
        <time>2024-04-28T07:36:19Z</time>
      </trkpt>
      <trkpt lat="45.84771" lon="3.39263">
        <ele>388.8</ele>
        <time>2024-04-28T07:36:20Z</time>
      </trkpt>
      <trkpt lat="45.84763" lon="3.39264">
        <ele>388.8</ele>
        <time>2024-04-28T07:36:21Z</time>
      </trkpt>
      <trkpt lat="45.84756" lon="3.39266">
        <ele>388.8</ele>
        <time>2024-04-28T07:36:22Z</time>
      </trkpt>
      <trkpt lat="45.84748" lon="3.39267">
        <ele>388.8</ele>
        <time>2024-04-28T07:36:23Z</time>
      </trkpt>
      <trkpt lat="45.8474" lon="3.39269">
        <ele>388.8</ele>
        <time>2024-04-28T07:36:24Z</time>
      </trkpt>
      <trkpt lat="45.84733" lon="3.39269">
        <ele>388.8</ele>
        <time>2024-04-28T07:36:25Z</time>
      </trkpt>
      <trkpt lat="45.84725" lon="3.39269">
        <ele>388.8</ele>
        <time>2024-04-28T07:36:26Z</time>
      </trkpt>
      <trkpt lat="45.84718" lon="3.39269">
        <ele>388.8</ele>
        <time>2024-04-28T07:36:27Z</time>
      </trkpt>
      <trkpt lat="45.8471" lon="3.39269">
        <ele>388.8</ele>
        <time>2024-04-28T07:36:28Z</time>
      </trkpt>
      <trkpt lat="45.84703" lon="3.39269">
        <ele>389</ele>
        <time>2024-04-28T07:36:29Z</time>
      </trkpt>
      <trkpt lat="45.84696" lon="3.39269">
        <ele>389</ele>
        <time>2024-04-28T07:36:30Z</time>
      </trkpt>
      <trkpt lat="45.84689" lon="3.39269">
        <ele>389</ele>
        <time>2024-04-28T07:36:31Z</time>
      </trkpt>
      <trkpt lat="45.84681" lon="3.39269">
        <ele>389</ele>
        <time>2024-04-28T07:36:32Z</time>
      </trkpt>
      <trkpt lat="45.84674" lon="3.39269">
        <ele>389</ele>
        <time>2024-04-28T07:36:33Z</time>
      </trkpt>
      <trkpt lat="45.84667" lon="3.39269">
        <ele>389</ele>
        <time>2024-04-28T07:36:34Z</time>
      </trkpt>
      <trkpt lat="45.8466" lon="3.39269">
        <ele>389</ele>
        <time>2024-04-28T07:36:35Z</time>
      </trkpt>
      <trkpt lat="45.84653" lon="3.39269">
        <ele>389</ele>
        <time>2024-04-28T07:36:36Z</time>
      </trkpt>
      <trkpt lat="45.84645" lon="3.39269">
        <ele>389</ele>
        <time>2024-04-28T07:36:37Z</time>
      </trkpt>
      <trkpt lat="45.84638" lon="3.39269">
        <ele>389</ele>
        <time>2024-04-28T07:36:38Z</time>
      </trkpt>
      <trkpt lat="45.84631" lon="3.39269">
        <ele>389</ele>
        <time>2024-04-28T07:36:39Z</time>
      </trkpt>
      <trkpt lat="45.84624" lon="3.39269">
        <ele>389</ele>
        <time>2024-04-28T07:36:40Z</time>
      </trkpt>
      <trkpt lat="45.84617" lon="3.39269">
        <ele>389.2</ele>
        <time>2024-04-28T07:36:41Z</time>
      </trkpt>
      <trkpt lat="45.8461" lon="3.39269">
        <ele>389.2</ele>
        <time>2024-04-28T07:36:42Z</time>
      </trkpt>
      <trkpt lat="45.84602" lon="3.39269">
        <ele>389.2</ele>
        <time>2024-04-28T07:36:43Z</time>
      </trkpt>
      <trkpt lat="45.84595" lon="3.39269">
        <ele>389.2</ele>
        <time>2024-04-28T07:36:44Z</time>
      </trkpt>
      <trkpt lat="45.84588" lon="3.39269">
        <ele>389.2</ele>
        <time>2024-04-28T07:36:45Z</time>
      </trkpt>
      <trkpt lat="45.84581" lon="3.39269">
        <ele>389.2</ele>
        <time>2024-04-28T07:36:46Z</time>
      </trkpt>
      <trkpt lat="45.84573" lon="3.39269">
        <ele>389.2</ele>
        <time>2024-04-28T07:36:47Z</time>
      </trkpt>
      <trkpt lat="45.84566" lon="3.39269">
        <ele>389.2</ele>
        <time>2024-04-28T07:36:48Z</time>
      </trkpt>
      <trkpt lat="45.84559" lon="3.39269">
        <ele>389.2</ele>
        <time>2024-04-28T07:36:49Z</time>
      </trkpt>
      <trkpt lat="45.84552" lon="3.39269">
        <ele>389.2</ele>
        <time>2024-04-28T07:36:50Z</time>
      </trkpt>
      <trkpt lat="45.84544" lon="3.39269">
        <ele>389.2</ele>
        <time>2024-04-28T07:36:51Z</time>
      </trkpt>
      <trkpt lat="45.84537" lon="3.39269">
        <ele>389.4</ele>
        <time>2024-04-28T07:36:52Z</time>
      </trkpt>
      <trkpt lat="45.8453" lon="3.39269">
        <ele>389.4</ele>
        <time>2024-04-28T07:36:53Z</time>
      </trkpt>
      <trkpt lat="45.84523" lon="3.39269">
        <ele>389.4</ele>
        <time>2024-04-28T07:36:54Z</time>
      </trkpt>
      <trkpt lat="45.84516" lon="3.39269">
        <ele>389.4</ele>
        <time>2024-04-28T07:36:55Z</time>
      </trkpt>
      <trkpt lat="45.84509" lon="3.39269">
        <ele>389.4</ele>
        <time>2024-04-28T07:36:56Z</time>
      </trkpt>
      <trkpt lat="45.84502" lon="3.39269">
        <ele>389.4</ele>
        <time>2024-04-28T07:36:57Z</time>
      </trkpt>
      <trkpt lat="45.84495" lon="3.39269">
        <ele>389.4</ele>
        <time>2024-04-28T07:36:58Z</time>
      </trkpt>
      <trkpt lat="45.84488" lon="3.39269">
        <ele>389.6</ele>
        <time>2024-04-28T07:36:59Z</time>
      </trkpt>
      <trkpt lat="45.84481" lon="3.39269">
        <ele>389.6</ele>
        <time>2024-04-28T07:37:00Z</time>
      </trkpt>
      <trkpt lat="45.84474" lon="3.39269">
        <ele>389.6</ele>
        <time>2024-04-28T07:37:01Z</time>
      </trkpt>
      <trkpt lat="45.84467" lon="3.39269">
        <ele>389.6</ele>
        <time>2024-04-28T07:37:02Z</time>
      </trkpt>
      <trkpt lat="45.8446" lon="3.39269">
        <ele>389.6</ele>
        <time>2024-04-28T07:37:03Z</time>
      </trkpt>
      <trkpt lat="45.84453" lon="3.39269">
        <ele>389.6</ele>
        <time>2024-04-28T07:37:04Z</time>
      </trkpt>
      <trkpt lat="45.84446" lon="3.39269">
        <ele>389.6</ele>
        <time>2024-04-28T07:37:05Z</time>
      </trkpt>
      <trkpt lat="45.84439" lon="3.39269">
        <ele>389.6</ele>
        <time>2024-04-28T07:37:06Z</time>
      </trkpt>
      <trkpt lat="45.84432" lon="3.39269">
        <ele>389.6</ele>
        <time>2024-04-28T07:37:07Z</time>
      </trkpt>
      <trkpt lat="45.84425" lon="3.39269">
        <ele>389.8</ele>
        <time>2024-04-28T07:37:08Z</time>
      </trkpt>
      <trkpt lat="45.84418" lon="3.39269">
        <ele>389.6</ele>
        <time>2024-04-28T07:37:09Z</time>
      </trkpt>
      <trkpt lat="45.84411" lon="3.39269">
        <ele>389.6</ele>
        <time>2024-04-28T07:37:10Z</time>
      </trkpt>
      <trkpt lat="45.84404" lon="3.39269">
        <ele>389.6</ele>
        <time>2024-04-28T07:37:11Z</time>
      </trkpt>
      <trkpt lat="45.84397" lon="3.39269">
        <ele>389.6</ele>
        <time>2024-04-28T07:37:12Z</time>
      </trkpt>
      <trkpt lat="45.8439" lon="3.39269">
        <ele>389.6</ele>
        <time>2024-04-28T07:37:13Z</time>
      </trkpt>
      <trkpt lat="45.84383" lon="3.39269">
        <ele>389.6</ele>
        <time>2024-04-28T07:37:14Z</time>
      </trkpt>
      <trkpt lat="45.84376" lon="3.39269">
        <ele>389.6</ele>
        <time>2024-04-28T07:37:15Z</time>
      </trkpt>
      <trkpt lat="45.8437" lon="3.39269">
        <ele>389.6</ele>
        <time>2024-04-28T07:37:16Z</time>
      </trkpt>
      <trkpt lat="45.84363" lon="3.39268">
        <ele>389.6</ele>
        <time>2024-04-28T07:37:17Z</time>
      </trkpt>
      <trkpt lat="45.84356" lon="3.39266">
        <ele>389.6</ele>
        <time>2024-04-28T07:37:18Z</time>
      </trkpt>
      <trkpt lat="45.84349" lon="3.39263">
        <ele>389.4</ele>
        <time>2024-04-28T07:37:19Z</time>
      </trkpt>
      <trkpt lat="45.84343" lon="3.39259">
        <ele>389.4</ele>
        <time>2024-04-28T07:37:20Z</time>
      </trkpt>
      <trkpt lat="45.84337" lon="3.39254">
        <ele>389.4</ele>
        <time>2024-04-28T07:37:21Z</time>
      </trkpt>
      <trkpt lat="45.84331" lon="3.39249">
        <ele>389.2</ele>
        <time>2024-04-28T07:37:22Z</time>
      </trkpt>
      <trkpt lat="45.84324" lon="3.39244">
        <ele>389</ele>
        <time>2024-04-28T07:37:23Z</time>
      </trkpt>
      <trkpt lat="45.84318" lon="3.39238">
        <ele>389</ele>
        <time>2024-04-28T07:37:24Z</time>
      </trkpt>
      <trkpt lat="45.84311" lon="3.39233">
        <ele>389</ele>
        <time>2024-04-28T07:37:25Z</time>
      </trkpt>
      <trkpt lat="45.84304" lon="3.39228">
        <ele>388.8</ele>
        <time>2024-04-28T07:37:26Z</time>
      </trkpt>
      <trkpt lat="45.84298" lon="3.39223">
        <ele>388.8</ele>
        <time>2024-04-28T07:37:27Z</time>
      </trkpt>
      <trkpt lat="45.84291" lon="3.39217">
        <ele>388.6</ele>
        <time>2024-04-28T07:37:28Z</time>
      </trkpt>
      <trkpt lat="45.84284" lon="3.39211">
        <ele>388.6</ele>
        <time>2024-04-28T07:37:29Z</time>
      </trkpt>
      <trkpt lat="45.84277" lon="3.39206">
        <ele>388.6</ele>
        <time>2024-04-28T07:37:30Z</time>
      </trkpt>
      <trkpt lat="45.8427" lon="3.392">
        <ele>388.4</ele>
        <time>2024-04-28T07:37:31Z</time>
      </trkpt>
      <trkpt lat="45.84263" lon="3.39194">
        <ele>388.4</ele>
        <time>2024-04-28T07:37:32Z</time>
      </trkpt>
      <trkpt lat="45.84256" lon="3.39188">
        <ele>388.4</ele>
        <time>2024-04-28T07:37:33Z</time>
      </trkpt>
      <trkpt lat="45.84248" lon="3.39183">
        <ele>388.2</ele>
        <time>2024-04-28T07:37:34Z</time>
      </trkpt>
      <trkpt lat="45.84241" lon="3.39177">
        <ele>388.2</ele>
        <time>2024-04-28T07:37:35Z</time>
      </trkpt>
      <trkpt lat="45.84234" lon="3.39171">
        <ele>388.2</ele>
        <time>2024-04-28T07:37:36Z</time>
      </trkpt>
      <trkpt lat="45.84228" lon="3.39166">
        <ele>388</ele>
        <time>2024-04-28T07:37:37Z</time>
      </trkpt>
      <trkpt lat="45.84221" lon="3.3916">
        <ele>388</ele>
        <time>2024-04-28T07:37:38Z</time>
      </trkpt>
      <trkpt lat="45.84214" lon="3.39155">
        <ele>388</ele>
        <time>2024-04-28T07:37:39Z</time>
      </trkpt>
      <trkpt lat="45.84207" lon="3.39149">
        <ele>387.8</ele>
        <time>2024-04-28T07:37:40Z</time>
      </trkpt>
      <trkpt lat="45.842" lon="3.39143">
        <ele>387.8</ele>
        <time>2024-04-28T07:37:41Z</time>
      </trkpt>
      <trkpt lat="45.84193" lon="3.39138">
        <ele>387.8</ele>
        <time>2024-04-28T07:37:42Z</time>
      </trkpt>
      <trkpt lat="45.84186" lon="3.39132">
        <ele>387.6</ele>
        <time>2024-04-28T07:37:43Z</time>
      </trkpt>
      <trkpt lat="45.84179" lon="3.39127">
        <ele>387.6</ele>
        <time>2024-04-28T07:37:44Z</time>
      </trkpt>
      <trkpt lat="45.84173" lon="3.39121">
        <ele>387.6</ele>
        <time>2024-04-28T07:37:45Z</time>
      </trkpt>
      <trkpt lat="45.84166" lon="3.39116">
        <ele>387.4</ele>
        <time>2024-04-28T07:37:46Z</time>
      </trkpt>
      <trkpt lat="45.84159" lon="3.3911">
        <ele>387.4</ele>
        <time>2024-04-28T07:37:47Z</time>
      </trkpt>
      <trkpt lat="45.84152" lon="3.39105">
        <ele>387.4</ele>
        <time>2024-04-28T07:37:48Z</time>
      </trkpt>
      <trkpt lat="45.84146" lon="3.39099">
        <ele>387.4</ele>
        <time>2024-04-28T07:37:49Z</time>
      </trkpt>
      <trkpt lat="45.84139" lon="3.39094">
        <ele>387.2</ele>
        <time>2024-04-28T07:37:50Z</time>
      </trkpt>
      <trkpt lat="45.84132" lon="3.39089">
        <ele>387.2</ele>
        <time>2024-04-28T07:37:51Z</time>
      </trkpt>
      <trkpt lat="45.84126" lon="3.39083">
        <ele>387.2</ele>
        <time>2024-04-28T07:37:52Z</time>
      </trkpt>
      <trkpt lat="45.84119" lon="3.39078">
        <ele>387.2</ele>
        <time>2024-04-28T07:37:53Z</time>
      </trkpt>
      <trkpt lat="45.84113" lon="3.39073">
        <ele>387</ele>
        <time>2024-04-28T07:37:54Z</time>
      </trkpt>
      <trkpt lat="45.84107" lon="3.39068">
        <ele>386.8</ele>
        <time>2024-04-28T07:37:55Z</time>
      </trkpt>
      <trkpt lat="45.841" lon="3.39063">
        <ele>386.8</ele>
        <time>2024-04-28T07:37:56Z</time>
      </trkpt>
      <trkpt lat="45.84094" lon="3.39058">
        <ele>386.8</ele>
        <time>2024-04-28T07:37:57Z</time>
      </trkpt>
      <trkpt lat="45.84088" lon="3.39053">
        <ele>386.8</ele>
        <time>2024-04-28T07:37:58Z</time>
      </trkpt>
      <trkpt lat="45.84081" lon="3.39048">
        <ele>386.8</ele>
        <time>2024-04-28T07:37:59Z</time>
      </trkpt>
      <trkpt lat="45.84075" lon="3.39043">
        <ele>386.6</ele>
        <time>2024-04-28T07:38:00Z</time>
      </trkpt>
      <trkpt lat="45.84069" lon="3.39038">
        <ele>386.6</ele>
        <time>2024-04-28T07:38:01Z</time>
      </trkpt>
      <trkpt lat="45.84063" lon="3.39033">
        <ele>386.6</ele>
        <time>2024-04-28T07:38:02Z</time>
      </trkpt>
      <trkpt lat="45.84057" lon="3.39028">
        <ele>386.6</ele>
        <time>2024-04-28T07:38:03Z</time>
      </trkpt>
      <trkpt lat="45.84051" lon="3.39023">
        <ele>386.6</ele>
        <time>2024-04-28T07:38:04Z</time>
      </trkpt>
      <trkpt lat="45.84045" lon="3.39018">
        <ele>386.6</ele>
        <time>2024-04-28T07:38:05Z</time>
      </trkpt>
      <trkpt lat="45.84039" lon="3.39013">
        <ele>386.6</ele>
        <time>2024-04-28T07:38:06Z</time>
      </trkpt>
      <trkpt lat="45.84033" lon="3.39008">
        <ele>386.4</ele>
        <time>2024-04-28T07:38:07Z</time>
      </trkpt>
      <trkpt lat="45.84026" lon="3.39003">
        <ele>386.4</ele>
        <time>2024-04-28T07:38:08Z</time>
      </trkpt>
      <trkpt lat="45.8402" lon="3.38998">
        <ele>386.4</ele>
        <time>2024-04-28T07:38:09Z</time>
      </trkpt>
      <trkpt lat="45.84014" lon="3.38993">
        <ele>386.2</ele>
        <time>2024-04-28T07:38:10Z</time>
      </trkpt>
      <trkpt lat="45.84007" lon="3.38988">
        <ele>386.2</ele>
        <time>2024-04-28T07:38:11Z</time>
      </trkpt>
      <trkpt lat="45.84001" lon="3.38982">
        <ele>386</ele>
        <time>2024-04-28T07:38:12Z</time>
      </trkpt>
      <trkpt lat="45.83994" lon="3.38977">
        <ele>386</ele>
        <time>2024-04-28T07:38:13Z</time>
      </trkpt>
      <trkpt lat="45.83988" lon="3.38972">
        <ele>385.8</ele>
        <time>2024-04-28T07:38:14Z</time>
      </trkpt>
      <trkpt lat="45.83981" lon="3.38966">
        <ele>385.8</ele>
        <time>2024-04-28T07:38:15Z</time>
      </trkpt>
      <trkpt lat="45.83975" lon="3.38961">
        <ele>385.8</ele>
        <time>2024-04-28T07:38:16Z</time>
      </trkpt>
      <trkpt lat="45.83968" lon="3.38955">
        <ele>385.6</ele>
        <time>2024-04-28T07:38:17Z</time>
      </trkpt>
      <trkpt lat="45.83961" lon="3.3895">
        <ele>385.6</ele>
        <time>2024-04-28T07:38:18Z</time>
      </trkpt>
      <trkpt lat="45.83954" lon="3.38945">
        <ele>385.4</ele>
        <time>2024-04-28T07:38:19Z</time>
      </trkpt>
      <trkpt lat="45.83948" lon="3.38939">
        <ele>385.4</ele>
        <time>2024-04-28T07:38:20Z</time>
      </trkpt>
      <trkpt lat="45.83941" lon="3.38934">
        <ele>385.2</ele>
        <time>2024-04-28T07:38:21Z</time>
      </trkpt>
      <trkpt lat="45.83934" lon="3.38929">
        <ele>385.2</ele>
        <time>2024-04-28T07:38:22Z</time>
      </trkpt>
      <trkpt lat="45.83928" lon="3.38923">
        <ele>385</ele>
        <time>2024-04-28T07:38:23Z</time>
      </trkpt>
      <trkpt lat="45.83921" lon="3.38918">
        <ele>385</ele>
        <time>2024-04-28T07:38:24Z</time>
      </trkpt>
      <trkpt lat="45.83915" lon="3.38913">
        <ele>385</ele>
        <time>2024-04-28T07:38:25Z</time>
      </trkpt>
      <trkpt lat="45.83908" lon="3.38908">
        <ele>384.8</ele>
        <time>2024-04-28T07:38:26Z</time>
      </trkpt>
      <trkpt lat="45.83902" lon="3.38902">
        <ele>384.8</ele>
        <time>2024-04-28T07:38:27Z</time>
      </trkpt>
      <trkpt lat="45.83895" lon="3.38897">
        <ele>384.6</ele>
        <time>2024-04-28T07:38:28Z</time>
      </trkpt>
      <trkpt lat="45.83888" lon="3.38891">
        <ele>384.4</ele>
        <time>2024-04-28T07:38:29Z</time>
      </trkpt>
      <trkpt lat="45.83881" lon="3.38886">
        <ele>384.4</ele>
        <time>2024-04-28T07:38:30Z</time>
      </trkpt>
      <trkpt lat="45.83875" lon="3.3888">
        <ele>384.2</ele>
        <time>2024-04-28T07:38:31Z</time>
      </trkpt>
      <trkpt lat="45.83868" lon="3.38875">
        <ele>384.2</ele>
        <time>2024-04-28T07:38:32Z</time>
      </trkpt>
      <trkpt lat="45.83861" lon="3.38869">
        <ele>384</ele>
        <time>2024-04-28T07:38:33Z</time>
      </trkpt>
      <trkpt lat="45.83854" lon="3.38864">
        <ele>384</ele>
        <time>2024-04-28T07:38:34Z</time>
      </trkpt>
      <trkpt lat="45.83847" lon="3.38858">
        <ele>383.8</ele>
        <time>2024-04-28T07:38:35Z</time>
      </trkpt>
      <trkpt lat="45.8384" lon="3.38852">
        <ele>383.8</ele>
        <time>2024-04-28T07:38:36Z</time>
      </trkpt>
      <trkpt lat="45.83833" lon="3.38846">
        <ele>383.8</ele>
        <time>2024-04-28T07:38:37Z</time>
      </trkpt>
      <trkpt lat="45.83826" lon="3.38841">
        <ele>383.6</ele>
        <time>2024-04-28T07:38:38Z</time>
      </trkpt>
      <trkpt lat="45.83819" lon="3.38835">
        <ele>383.4</ele>
        <time>2024-04-28T07:38:39Z</time>
      </trkpt>
      <trkpt lat="45.83812" lon="3.38829">
        <ele>383.4</ele>
        <time>2024-04-28T07:38:40Z</time>
      </trkpt>
      <trkpt lat="45.83804" lon="3.38823">
        <ele>383.4</ele>
        <time>2024-04-28T07:38:41Z</time>
      </trkpt>
      <trkpt lat="45.83797" lon="3.38817">
        <ele>383.2</ele>
        <time>2024-04-28T07:38:42Z</time>
      </trkpt>
      <trkpt lat="45.8379" lon="3.38812">
        <ele>383</ele>
        <time>2024-04-28T07:38:43Z</time>
      </trkpt>
      <trkpt lat="45.83782" lon="3.38805">
        <ele>383</ele>
        <time>2024-04-28T07:38:44Z</time>
      </trkpt>
      <trkpt lat="45.83774" lon="3.38799">
        <ele>382.8</ele>
        <time>2024-04-28T07:38:45Z</time>
      </trkpt>
      <trkpt lat="45.83767" lon="3.38793">
        <ele>382.6</ele>
        <time>2024-04-28T07:38:46Z</time>
      </trkpt>
      <trkpt lat="45.83759" lon="3.38787">
        <ele>382.4</ele>
        <time>2024-04-28T07:38:47Z</time>
      </trkpt>
      <trkpt lat="45.83751" lon="3.38781">
        <ele>382.4</ele>
        <time>2024-04-28T07:38:48Z</time>
      </trkpt>
      <trkpt lat="45.83744" lon="3.38775">
        <ele>382.2</ele>
        <time>2024-04-28T07:38:49Z</time>
      </trkpt>
      <trkpt lat="45.83736" lon="3.38768">
        <ele>382.2</ele>
        <time>2024-04-28T07:38:50Z</time>
      </trkpt>
      <trkpt lat="45.83729" lon="3.38762">
        <ele>382</ele>
        <time>2024-04-28T07:38:51Z</time>
      </trkpt>
      <trkpt lat="45.83721" lon="3.38756">
        <ele>382</ele>
        <time>2024-04-28T07:38:52Z</time>
      </trkpt>
      <trkpt lat="45.83713" lon="3.3875">
        <ele>381.8</ele>
        <time>2024-04-28T07:38:53Z</time>
      </trkpt>
      <trkpt lat="45.83706" lon="3.38744">
        <ele>381.8</ele>
        <time>2024-04-28T07:38:54Z</time>
      </trkpt>
      <trkpt lat="45.83698" lon="3.38738">
        <ele>381.6</ele>
        <time>2024-04-28T07:38:55Z</time>
      </trkpt>
      <trkpt lat="45.83691" lon="3.38732">
        <ele>381.6</ele>
        <time>2024-04-28T07:38:56Z</time>
      </trkpt>
      <trkpt lat="45.83683" lon="3.38726">
        <ele>381.4</ele>
        <time>2024-04-28T07:38:57Z</time>
      </trkpt>
      <trkpt lat="45.83676" lon="3.3872">
        <ele>381.4</ele>
        <time>2024-04-28T07:38:58Z</time>
      </trkpt>
      <trkpt lat="45.83669" lon="3.38714">
        <ele>381.2</ele>
        <time>2024-04-28T07:38:59Z</time>
      </trkpt>
      <trkpt lat="45.83662" lon="3.38709">
        <ele>381</ele>
        <time>2024-04-28T07:39:00Z</time>
      </trkpt>
      <trkpt lat="45.83656" lon="3.38703">
        <ele>381</ele>
        <time>2024-04-28T07:39:01Z</time>
      </trkpt>
      <trkpt lat="45.83649" lon="3.38698">
        <ele>380.8</ele>
        <time>2024-04-28T07:39:02Z</time>
      </trkpt>
      <trkpt lat="45.83642" lon="3.38692">
        <ele>380.6</ele>
        <time>2024-04-28T07:39:03Z</time>
      </trkpt>
      <trkpt lat="45.83635" lon="3.38687">
        <ele>380.6</ele>
        <time>2024-04-28T07:39:04Z</time>
      </trkpt>
      <trkpt lat="45.83628" lon="3.38681">
        <ele>380.6</ele>
        <time>2024-04-28T07:39:05Z</time>
      </trkpt>
      <trkpt lat="45.83622" lon="3.38676">
        <ele>380.4</ele>
        <time>2024-04-28T07:39:06Z</time>
      </trkpt>
      <trkpt lat="45.83615" lon="3.3867">
        <ele>380.4</ele>
        <time>2024-04-28T07:39:07Z</time>
      </trkpt>
      <trkpt lat="45.83608" lon="3.38665">
        <ele>380.2</ele>
        <time>2024-04-28T07:39:08Z</time>
      </trkpt>
      <trkpt lat="45.83602" lon="3.3866">
        <ele>380.2</ele>
        <time>2024-04-28T07:39:09Z</time>
      </trkpt>
      <trkpt lat="45.83595" lon="3.38654">
        <ele>380.2</ele>
        <time>2024-04-28T07:39:10Z</time>
      </trkpt>
      <trkpt lat="45.83589" lon="3.38649">
        <ele>380</ele>
        <time>2024-04-28T07:39:11Z</time>
      </trkpt>
      <trkpt lat="45.83583" lon="3.38644">
        <ele>380</ele>
        <time>2024-04-28T07:39:12Z</time>
      </trkpt>
      <trkpt lat="45.83576" lon="3.38639">
        <ele>379.8</ele>
        <time>2024-04-28T07:39:13Z</time>
      </trkpt>
      <trkpt lat="45.8357" lon="3.38634">
        <ele>379.8</ele>
        <time>2024-04-28T07:39:14Z</time>
      </trkpt>
      <trkpt lat="45.83564" lon="3.38629">
        <ele>379.8</ele>
        <time>2024-04-28T07:39:15Z</time>
      </trkpt>
      <trkpt lat="45.83557" lon="3.38623">
        <ele>379.6</ele>
        <time>2024-04-28T07:39:16Z</time>
      </trkpt>
      <trkpt lat="45.83551" lon="3.38618">
        <ele>379.6</ele>
        <time>2024-04-28T07:39:17Z</time>
      </trkpt>
      <trkpt lat="45.83545" lon="3.38613">
        <ele>379.4</ele>
        <time>2024-04-28T07:39:18Z</time>
      </trkpt>
      <trkpt lat="45.83539" lon="3.38608">
        <ele>379.4</ele>
        <time>2024-04-28T07:39:19Z</time>
      </trkpt>
      <trkpt lat="45.83533" lon="3.38603">
        <ele>379.4</ele>
        <time>2024-04-28T07:39:20Z</time>
      </trkpt>
      <trkpt lat="45.83527" lon="3.38598">
        <ele>379.2</ele>
        <time>2024-04-28T07:39:21Z</time>
      </trkpt>
      <trkpt lat="45.83521" lon="3.38593">
        <ele>379.2</ele>
        <time>2024-04-28T07:39:22Z</time>
      </trkpt>
      <trkpt lat="45.83514" lon="3.38588">
        <ele>379.2</ele>
        <time>2024-04-28T07:39:23Z</time>
      </trkpt>
      <trkpt lat="45.83508" lon="3.38582">
        <ele>379</ele>
        <time>2024-04-28T07:39:24Z</time>
      </trkpt>
      <trkpt lat="45.83501" lon="3.38577">
        <ele>379</ele>
        <time>2024-04-28T07:39:25Z</time>
      </trkpt>
      <trkpt lat="45.83495" lon="3.38572">
        <ele>379</ele>
        <time>2024-04-28T07:39:26Z</time>
      </trkpt>
      <trkpt lat="45.83488" lon="3.38567">
        <ele>378.8</ele>
        <time>2024-04-28T07:39:27Z</time>
      </trkpt>
      <trkpt lat="45.83482" lon="3.38561">
        <ele>378.6</ele>
        <time>2024-04-28T07:39:28Z</time>
      </trkpt>
      <trkpt lat="45.83476" lon="3.38556">
        <ele>378.6</ele>
        <time>2024-04-28T07:39:29Z</time>
      </trkpt>
      <trkpt lat="45.83469" lon="3.38551">
        <ele>378.4</ele>
        <time>2024-04-28T07:39:30Z</time>
      </trkpt>
      <trkpt lat="45.83463" lon="3.38546">
        <ele>378.4</ele>
        <time>2024-04-28T07:39:31Z</time>
      </trkpt>
      <trkpt lat="45.83456" lon="3.3854">
        <ele>378.4</ele>
        <time>2024-04-28T07:39:32Z</time>
      </trkpt>
      <trkpt lat="45.8345" lon="3.38535">
        <ele>378.4</ele>
        <time>2024-04-28T07:39:33Z</time>
      </trkpt>
      <trkpt lat="45.83444" lon="3.38531">
        <ele>378.2</ele>
        <time>2024-04-28T07:39:34Z</time>
      </trkpt>
      <trkpt lat="45.83438" lon="3.38526">
        <ele>378.2</ele>
        <time>2024-04-28T07:39:35Z</time>
      </trkpt>
      <trkpt lat="45.83432" lon="3.38521">
        <ele>378.2</ele>
        <time>2024-04-28T07:39:36Z</time>
      </trkpt>
      <trkpt lat="45.83425" lon="3.38515">
        <ele>378</ele>
        <time>2024-04-28T07:39:37Z</time>
      </trkpt>
      <trkpt lat="45.83419" lon="3.3851">
        <ele>378</ele>
        <time>2024-04-28T07:39:38Z</time>
      </trkpt>
      <trkpt lat="45.83412" lon="3.38505">
        <ele>378</ele>
        <time>2024-04-28T07:39:39Z</time>
      </trkpt>
      <trkpt lat="45.83406" lon="3.385">
        <ele>378</ele>
        <time>2024-04-28T07:39:40Z</time>
      </trkpt>
      <trkpt lat="45.834" lon="3.38495">
        <ele>378</ele>
        <time>2024-04-28T07:39:41Z</time>
      </trkpt>
      <trkpt lat="45.83393" lon="3.3849">
        <ele>377.8</ele>
        <time>2024-04-28T07:39:42Z</time>
      </trkpt>
      <trkpt lat="45.83387" lon="3.38485">
        <ele>377.8</ele>
        <time>2024-04-28T07:39:43Z</time>
      </trkpt>
      <trkpt lat="45.83381" lon="3.3848">
        <ele>377.6</ele>
        <time>2024-04-28T07:39:44Z</time>
      </trkpt>
      <trkpt lat="45.83375" lon="3.38475">
        <ele>377.6</ele>
        <time>2024-04-28T07:39:45Z</time>
      </trkpt>
      <trkpt lat="45.83369" lon="3.3847">
        <ele>377.4</ele>
        <time>2024-04-28T07:39:46Z</time>
      </trkpt>
      <trkpt lat="45.83364" lon="3.38466">
        <ele>377.2</ele>
        <time>2024-04-28T07:39:47Z</time>
      </trkpt>
      <trkpt lat="45.83358" lon="3.38461">
        <ele>377</ele>
        <time>2024-04-28T07:39:48Z</time>
      </trkpt>
      <trkpt lat="45.83352" lon="3.38456">
        <ele>376.8</ele>
        <time>2024-04-28T07:39:49Z</time>
      </trkpt>
      <trkpt lat="45.83345" lon="3.38451">
        <ele>376.6</ele>
        <time>2024-04-28T07:39:50Z</time>
      </trkpt>
      <trkpt lat="45.83339" lon="3.38446">
        <ele>376.6</ele>
        <time>2024-04-28T07:39:51Z</time>
      </trkpt>
      <trkpt lat="45.83333" lon="3.38441">
        <ele>376.4</ele>
        <time>2024-04-28T07:39:52Z</time>
      </trkpt>
      <trkpt lat="45.83326" lon="3.38436">
        <ele>376.4</ele>
        <time>2024-04-28T07:39:53Z</time>
      </trkpt>
      <trkpt lat="45.83319" lon="3.3843">
        <ele>376.2</ele>
        <time>2024-04-28T07:39:54Z</time>
      </trkpt>
      <trkpt lat="45.83313" lon="3.38425">
        <ele>376.2</ele>
        <time>2024-04-28T07:39:55Z</time>
      </trkpt>
      <trkpt lat="45.83306" lon="3.3842">
        <ele>376</ele>
        <time>2024-04-28T07:39:56Z</time>
      </trkpt>
      <trkpt lat="45.83299" lon="3.38414">
        <ele>376</ele>
        <time>2024-04-28T07:39:57Z</time>
      </trkpt>
      <trkpt lat="45.83292" lon="3.38409">
        <ele>375.8</ele>
        <time>2024-04-28T07:39:58Z</time>
      </trkpt>
      <trkpt lat="45.83286" lon="3.38403">
        <ele>375.8</ele>
        <time>2024-04-28T07:39:59Z</time>
      </trkpt>
      <trkpt lat="45.83279" lon="3.38398">
        <ele>375.6</ele>
        <time>2024-04-28T07:40:00Z</time>
      </trkpt>
      <trkpt lat="45.83272" lon="3.38393">
        <ele>375.6</ele>
        <time>2024-04-28T07:40:01Z</time>
      </trkpt>
      <trkpt lat="45.83265" lon="3.38387">
        <ele>375.4</ele>
        <time>2024-04-28T07:40:02Z</time>
      </trkpt>
      <trkpt lat="45.83258" lon="3.38382">
        <ele>375.2</ele>
        <time>2024-04-28T07:40:03Z</time>
      </trkpt>
      <trkpt lat="45.83251" lon="3.38376">
        <ele>375.2</ele>
        <time>2024-04-28T07:40:04Z</time>
      </trkpt>
      <trkpt lat="45.83244" lon="3.38371">
        <ele>375</ele>
        <time>2024-04-28T07:40:05Z</time>
      </trkpt>
      <trkpt lat="45.83238" lon="3.38365">
        <ele>374.8</ele>
        <time>2024-04-28T07:40:06Z</time>
      </trkpt>
      <trkpt lat="45.83231" lon="3.3836">
        <ele>374.8</ele>
        <time>2024-04-28T07:40:07Z</time>
      </trkpt>
      <trkpt lat="45.83224" lon="3.38354">
        <ele>374.6</ele>
        <time>2024-04-28T07:40:08Z</time>
      </trkpt>
      <trkpt lat="45.83218" lon="3.38349">
        <ele>374.6</ele>
        <time>2024-04-28T07:40:09Z</time>
      </trkpt>
      <trkpt lat="45.83211" lon="3.38343">
        <ele>374.4</ele>
        <time>2024-04-28T07:40:10Z</time>
      </trkpt>
      <trkpt lat="45.83204" lon="3.38338">
        <ele>374.4</ele>
        <time>2024-04-28T07:40:11Z</time>
      </trkpt>
      <trkpt lat="45.83198" lon="3.38332">
        <ele>374.4</ele>
        <time>2024-04-28T07:40:12Z</time>
      </trkpt>
      <trkpt lat="45.83191" lon="3.38327">
        <ele>374.2</ele>
        <time>2024-04-28T07:40:13Z</time>
      </trkpt>
      <trkpt lat="45.83184" lon="3.38322">
        <ele>374.4</ele>
        <time>2024-04-28T07:40:14Z</time>
      </trkpt>
      <trkpt lat="45.83177" lon="3.38317">
        <ele>374.2</ele>
        <time>2024-04-28T07:40:15Z</time>
      </trkpt>
      <trkpt lat="45.8317" lon="3.38313">
        <ele>374</ele>
        <time>2024-04-28T07:40:16Z</time>
      </trkpt>
      <trkpt lat="45.83163" lon="3.38308">
        <ele>374</ele>
        <time>2024-04-28T07:40:17Z</time>
      </trkpt>
      <trkpt lat="45.83157" lon="3.38302">
        <ele>373.8</ele>
        <time>2024-04-28T07:40:18Z</time>
      </trkpt>
      <trkpt lat="45.8315" lon="3.38297">
        <ele>373.6</ele>
        <time>2024-04-28T07:40:19Z</time>
      </trkpt>
      <trkpt lat="45.83143" lon="3.38291">
        <ele>373.6</ele>
        <time>2024-04-28T07:40:20Z</time>
      </trkpt>
      <trkpt lat="45.83137" lon="3.38285">
        <ele>373.4</ele>
        <time>2024-04-28T07:40:21Z</time>
      </trkpt>
      <trkpt lat="45.8313" lon="3.38283">
        <ele>373.4</ele>
        <time>2024-04-28T07:40:22Z</time>
      </trkpt>
      <trkpt lat="45.83121" lon="3.38279">
        <ele>373.2</ele>
        <time>2024-04-28T07:40:23Z</time>
      </trkpt>
      <trkpt lat="45.83114" lon="3.38273">
        <ele>373</ele>
        <time>2024-04-28T07:40:24Z</time>
      </trkpt>
      <trkpt lat="45.83107" lon="3.38267">
        <ele>373</ele>
        <time>2024-04-28T07:40:25Z</time>
      </trkpt>
      <trkpt lat="45.83101" lon="3.38261">
        <ele>372.8</ele>
        <time>2024-04-28T07:40:26Z</time>
      </trkpt>
      <trkpt lat="45.83094" lon="3.38255">
        <ele>372.6</ele>
        <time>2024-04-28T07:40:27Z</time>
      </trkpt>
      <trkpt lat="45.83087" lon="3.3825">
        <ele>372.6</ele>
        <time>2024-04-28T07:40:28Z</time>
      </trkpt>
      <trkpt lat="45.8308" lon="3.38244">
        <ele>372.4</ele>
        <time>2024-04-28T07:40:29Z</time>
      </trkpt>
      <trkpt lat="45.83074" lon="3.38238">
        <ele>372.2</ele>
        <time>2024-04-28T07:40:30Z</time>
      </trkpt>
      <trkpt lat="45.83067" lon="3.38232">
        <ele>372.2</ele>
        <time>2024-04-28T07:40:31Z</time>
      </trkpt>
      <trkpt lat="45.8306" lon="3.38226">
        <ele>372</ele>
        <time>2024-04-28T07:40:32Z</time>
      </trkpt>
      <trkpt lat="45.83053" lon="3.3822">
        <ele>371.8</ele>
        <time>2024-04-28T07:40:33Z</time>
      </trkpt>
      <trkpt lat="45.83046" lon="3.38215">
        <ele>371.8</ele>
        <time>2024-04-28T07:40:34Z</time>
      </trkpt>
      <trkpt lat="45.83039" lon="3.38208">
        <ele>371.6</ele>
        <time>2024-04-28T07:40:35Z</time>
      </trkpt>
      <trkpt lat="45.83032" lon="3.38202">
        <ele>371.6</ele>
        <time>2024-04-28T07:40:36Z</time>
      </trkpt>
      <trkpt lat="45.83025" lon="3.38196">
        <ele>371.4</ele>
        <time>2024-04-28T07:40:37Z</time>
      </trkpt>
      <trkpt lat="45.83018" lon="3.38191">
        <ele>371.2</ele>
        <time>2024-04-28T07:40:38Z</time>
      </trkpt>
      <trkpt lat="45.8301" lon="3.38185">
        <ele>371</ele>
        <time>2024-04-28T07:40:39Z</time>
      </trkpt>
      <trkpt lat="45.83003" lon="3.38178">
        <ele>371</ele>
        <time>2024-04-28T07:40:40Z</time>
      </trkpt>
      <trkpt lat="45.82996" lon="3.38172">
        <ele>370.8</ele>
        <time>2024-04-28T07:40:41Z</time>
      </trkpt>
      <trkpt lat="45.82988" lon="3.38166">
        <ele>370.6</ele>
        <time>2024-04-28T07:40:42Z</time>
      </trkpt>
      <trkpt lat="45.82981" lon="3.3816">
        <ele>370.4</ele>
        <time>2024-04-28T07:40:43Z</time>
      </trkpt>
      <trkpt lat="45.82974" lon="3.38154">
        <ele>370.4</ele>
        <time>2024-04-28T07:40:44Z</time>
      </trkpt>
      <trkpt lat="45.82966" lon="3.38148">
        <ele>370.2</ele>
        <time>2024-04-28T07:40:45Z</time>
      </trkpt>
      <trkpt lat="45.82959" lon="3.38142">
        <ele>370</ele>
        <time>2024-04-28T07:40:46Z</time>
      </trkpt>
      <trkpt lat="45.82952" lon="3.38136">
        <ele>369.8</ele>
        <time>2024-04-28T07:40:47Z</time>
      </trkpt>
      <trkpt lat="45.82944" lon="3.3813">
        <ele>369.6</ele>
        <time>2024-04-28T07:40:48Z</time>
      </trkpt>
      <trkpt lat="45.82937" lon="3.38124">
        <ele>369.4</ele>
        <time>2024-04-28T07:40:49Z</time>
      </trkpt>
      <trkpt lat="45.82929" lon="3.38118">
        <ele>369</ele>
        <time>2024-04-28T07:40:50Z</time>
      </trkpt>
      <trkpt lat="45.82922" lon="3.38112">
        <ele>368.8</ele>
        <time>2024-04-28T07:40:51Z</time>
      </trkpt>
      <trkpt lat="45.82915" lon="3.38106">
        <ele>368.4</ele>
        <time>2024-04-28T07:40:52Z</time>
      </trkpt>
      <trkpt lat="45.82907" lon="3.38099">
        <ele>368.2</ele>
        <time>2024-04-28T07:40:53Z</time>
      </trkpt>
      <trkpt lat="45.829" lon="3.38093">
        <ele>368</ele>
        <time>2024-04-28T07:40:54Z</time>
      </trkpt>
      <trkpt lat="45.82892" lon="3.38087">
        <ele>367.8</ele>
        <time>2024-04-28T07:40:55Z</time>
      </trkpt>
      <trkpt lat="45.82885" lon="3.38081">
        <ele>367.4</ele>
        <time>2024-04-28T07:40:56Z</time>
      </trkpt>
      <trkpt lat="45.82877" lon="3.38074">
        <ele>367.2</ele>
        <time>2024-04-28T07:40:57Z</time>
      </trkpt>
      <trkpt lat="45.8287" lon="3.38068">
        <ele>367</ele>
        <time>2024-04-28T07:40:58Z</time>
      </trkpt>
      <trkpt lat="45.82863" lon="3.38062">
        <ele>366.8</ele>
        <time>2024-04-28T07:40:59Z</time>
      </trkpt>
      <trkpt lat="45.82856" lon="3.38056">
        <ele>366.6</ele>
        <time>2024-04-28T07:41:00Z</time>
      </trkpt>
      <trkpt lat="45.82849" lon="3.38051">
        <ele>366.2</ele>
        <time>2024-04-28T07:41:01Z</time>
      </trkpt>
      <trkpt lat="45.82842" lon="3.38046">
        <ele>366</ele>
        <time>2024-04-28T07:41:02Z</time>
      </trkpt>
      <trkpt lat="45.82836" lon="3.38041">
        <ele>365.8</ele>
        <time>2024-04-28T07:41:03Z</time>
      </trkpt>
      <trkpt lat="45.82831" lon="3.38037">
        <ele>365.6</ele>
        <time>2024-04-28T07:41:04Z</time>
      </trkpt>
      <trkpt lat="45.82825" lon="3.38033">
        <ele>365.4</ele>
        <time>2024-04-28T07:41:05Z</time>
      </trkpt>
      <trkpt lat="45.82821" lon="3.3803">
        <ele>365.2</ele>
        <time>2024-04-28T07:41:06Z</time>
      </trkpt>
      <trkpt lat="45.82814" lon="3.38028">
        <ele>365.2</ele>
        <time>2024-04-28T07:41:07Z</time>
      </trkpt>
      <trkpt lat="45.82808" lon="3.38027">
        <ele>365</ele>
        <time>2024-04-28T07:41:08Z</time>
      </trkpt>
      <trkpt lat="45.82802" lon="3.38025">
        <ele>364.8</ele>
        <time>2024-04-28T07:41:09Z</time>
      </trkpt>
      <trkpt lat="45.82797" lon="3.38022">
        <ele>364.6</ele>
        <time>2024-04-28T07:41:10Z</time>
      </trkpt>
      <trkpt lat="45.82791" lon="3.38019">
        <ele>364.4</ele>
        <time>2024-04-28T07:41:11Z</time>
      </trkpt>
      <trkpt lat="45.82786" lon="3.38017">
        <ele>364.2</ele>
        <time>2024-04-28T07:41:12Z</time>
      </trkpt>
      <trkpt lat="45.82782" lon="3.38012">
        <ele>364.2</ele>
        <time>2024-04-28T07:41:13Z</time>
      </trkpt>
      <trkpt lat="45.82776" lon="3.38008">
        <ele>364</ele>
        <time>2024-04-28T07:41:14Z</time>
      </trkpt>
      <trkpt lat="45.82771" lon="3.38005">
        <ele>364</ele>
        <time>2024-04-28T07:41:15Z</time>
      </trkpt>
      <trkpt lat="45.82766" lon="3.38001">
        <ele>363.8</ele>
        <time>2024-04-28T07:41:16Z</time>
      </trkpt>
      <trkpt lat="45.82762" lon="3.37996">
        <ele>363.8</ele>
        <time>2024-04-28T07:41:17Z</time>
      </trkpt>
      <trkpt lat="45.82755" lon="3.3799">
        <ele>363.8</ele>
        <time>2024-04-28T07:41:18Z</time>
      </trkpt>
      <trkpt lat="45.82749" lon="3.37989">
        <ele>363.6</ele>
        <time>2024-04-28T07:41:19Z</time>
      </trkpt>
      <trkpt lat="45.82743" lon="3.37987">
        <ele>363.4</ele>
        <time>2024-04-28T07:41:20Z</time>
      </trkpt>
      <trkpt lat="45.82738" lon="3.37986">
        <ele>363.4</ele>
        <time>2024-04-28T07:41:21Z</time>
      </trkpt>
      <trkpt lat="45.82732" lon="3.37984">
        <ele>363.2</ele>
        <time>2024-04-28T07:41:22Z</time>
      </trkpt>
      <trkpt lat="45.82726" lon="3.37982">
        <ele>363</ele>
        <time>2024-04-28T07:41:23Z</time>
      </trkpt>
      <trkpt lat="45.8272" lon="3.3798">
        <ele>362.8</ele>
        <time>2024-04-28T07:41:24Z</time>
      </trkpt>
      <trkpt lat="45.82714" lon="3.37977">
        <ele>362.8</ele>
        <time>2024-04-28T07:41:25Z</time>
      </trkpt>
      <trkpt lat="45.82708" lon="3.37975">
        <ele>362.6</ele>
        <time>2024-04-28T07:41:26Z</time>
      </trkpt>
      <trkpt lat="45.82702" lon="3.37973">
        <ele>362.4</ele>
        <time>2024-04-28T07:41:27Z</time>
      </trkpt>
      <trkpt lat="45.82696" lon="3.37971">
        <ele>362.2</ele>
        <time>2024-04-28T07:41:28Z</time>
      </trkpt>
      <trkpt lat="45.82691" lon="3.37969">
        <ele>362.2</ele>
        <time>2024-04-28T07:41:29Z</time>
      </trkpt>
      <trkpt lat="45.82687" lon="3.37968">
        <ele>362</ele>
        <time>2024-04-28T07:41:30Z</time>
      </trkpt>
      <trkpt lat="45.82683" lon="3.37967">
        <ele>361.8</ele>
        <time>2024-04-28T07:41:31Z</time>
      </trkpt>
      <trkpt lat="45.8268" lon="3.37967">
        <ele>361.6</ele>
        <time>2024-04-28T07:41:32Z</time>
      </trkpt>
      <trkpt lat="45.82675" lon="3.37967">
        <ele>361.6</ele>
        <time>2024-04-28T07:41:33Z</time>
      </trkpt>
      <trkpt lat="45.82671" lon="3.37967">
        <ele>361.4</ele>
        <time>2024-04-28T07:41:34Z</time>
      </trkpt>
      <trkpt lat="45.82666" lon="3.37967">
        <ele>361.4</ele>
        <time>2024-04-28T07:41:35Z</time>
      </trkpt>
      <trkpt lat="45.82661" lon="3.37967">
        <ele>361.2</ele>
        <time>2024-04-28T07:41:36Z</time>
      </trkpt>
      <trkpt lat="45.82655" lon="3.37967">
        <ele>361.2</ele>
        <time>2024-04-28T07:41:37Z</time>
      </trkpt>
      <trkpt lat="45.8265" lon="3.37966">
        <ele>361</ele>
        <time>2024-04-28T07:41:38Z</time>
      </trkpt>
      <trkpt lat="45.82644" lon="3.37965">
        <ele>361</ele>
        <time>2024-04-28T07:41:39Z</time>
      </trkpt>
      <trkpt lat="45.82638" lon="3.37964">
        <ele>360.8</ele>
        <time>2024-04-28T07:41:40Z</time>
      </trkpt>
      <trkpt lat="45.82632" lon="3.37962">
        <ele>360.8</ele>
        <time>2024-04-28T07:41:41Z</time>
      </trkpt>
      <trkpt lat="45.82625" lon="3.37961">
        <ele>360.6</ele>
        <time>2024-04-28T07:41:42Z</time>
      </trkpt>
      <trkpt lat="45.82618" lon="3.3796">
        <ele>360.6</ele>
        <time>2024-04-28T07:41:43Z</time>
      </trkpt>
      <trkpt lat="45.82611" lon="3.37958">
        <ele>360.4</ele>
        <time>2024-04-28T07:41:44Z</time>
      </trkpt>
      <trkpt lat="45.82603" lon="3.37957">
        <ele>360.4</ele>
        <time>2024-04-28T07:41:45Z</time>
      </trkpt>
      <trkpt lat="45.82596" lon="3.37956">
        <ele>360.2</ele>
        <time>2024-04-28T07:41:46Z</time>
      </trkpt>
      <trkpt lat="45.82589" lon="3.37954">
        <ele>360</ele>
        <time>2024-04-28T07:41:47Z</time>
      </trkpt>
      <trkpt lat="45.82582" lon="3.37953">
        <ele>359.8</ele>
        <time>2024-04-28T07:41:48Z</time>
      </trkpt>
      <trkpt lat="45.82575" lon="3.3795">
        <ele>359.6</ele>
        <time>2024-04-28T07:41:49Z</time>
      </trkpt>
      <trkpt lat="45.82568" lon="3.37949">
        <ele>359.8</ele>
        <time>2024-04-28T07:41:50Z</time>
      </trkpt>
      <trkpt lat="45.8256" lon="3.37949">
        <ele>359.6</ele>
        <time>2024-04-28T07:41:51Z</time>
      </trkpt>
      <trkpt lat="45.82553" lon="3.37948">
        <ele>359.6</ele>
        <time>2024-04-28T07:41:52Z</time>
      </trkpt>
      <trkpt lat="45.82545" lon="3.37948">
        <ele>359.4</ele>
        <time>2024-04-28T07:41:53Z</time>
      </trkpt>
      <trkpt lat="45.82538" lon="3.37948">
        <ele>359.4</ele>
        <time>2024-04-28T07:41:54Z</time>
      </trkpt>
      <trkpt lat="45.82532" lon="3.37948">
        <ele>359.2</ele>
        <time>2024-04-28T07:41:55Z</time>
      </trkpt>
      <trkpt lat="45.82525" lon="3.37948">
        <ele>359.2</ele>
        <time>2024-04-28T07:41:56Z</time>
      </trkpt>
      <trkpt lat="45.82517" lon="3.37948">
        <ele>359</ele>
        <time>2024-04-28T07:41:57Z</time>
      </trkpt>
      <trkpt lat="45.8251" lon="3.37948">
        <ele>358.6</ele>
        <time>2024-04-28T07:41:58Z</time>
      </trkpt>
      <trkpt lat="45.82502" lon="3.37948">
        <ele>358.4</ele>
        <time>2024-04-28T07:41:59Z</time>
      </trkpt>
      <trkpt lat="45.82495" lon="3.37948">
        <ele>358.4</ele>
        <time>2024-04-28T07:42:00Z</time>
      </trkpt>
      <trkpt lat="45.82487" lon="3.37948">
        <ele>358.2</ele>
        <time>2024-04-28T07:42:01Z</time>
      </trkpt>
      <trkpt lat="45.82479" lon="3.37948">
        <ele>358</ele>
        <time>2024-04-28T07:42:02Z</time>
      </trkpt>
      <trkpt lat="45.82472" lon="3.37948">
        <ele>357.8</ele>
        <time>2024-04-28T07:42:03Z</time>
      </trkpt>
      <trkpt lat="45.82465" lon="3.37948">
        <ele>357.8</ele>
        <time>2024-04-28T07:42:04Z</time>
      </trkpt>
      <trkpt lat="45.82457" lon="3.37948">
        <ele>357.6</ele>
        <time>2024-04-28T07:42:05Z</time>
      </trkpt>
      <trkpt lat="45.8245" lon="3.37948">
        <ele>357.4</ele>
        <time>2024-04-28T07:42:06Z</time>
      </trkpt>
      <trkpt lat="45.82443" lon="3.37948">
        <ele>357.4</ele>
        <time>2024-04-28T07:42:07Z</time>
      </trkpt>
      <trkpt lat="45.82436" lon="3.37948">
        <ele>357.2</ele>
        <time>2024-04-28T07:42:08Z</time>
      </trkpt>
      <trkpt lat="45.82429" lon="3.37948">
        <ele>357</ele>
        <time>2024-04-28T07:42:09Z</time>
      </trkpt>
      <trkpt lat="45.82422" lon="3.37948">
        <ele>356.8</ele>
        <time>2024-04-28T07:42:10Z</time>
      </trkpt>
      <trkpt lat="45.82416" lon="3.37948">
        <ele>356.6</ele>
        <time>2024-04-28T07:42:11Z</time>
      </trkpt>
      <trkpt lat="45.82408" lon="3.37947">
        <ele>356.4</ele>
        <time>2024-04-28T07:42:12Z</time>
      </trkpt>
      <trkpt lat="45.82402" lon="3.37945">
        <ele>356.2</ele>
        <time>2024-04-28T07:42:13Z</time>
      </trkpt>
      <trkpt lat="45.82396" lon="3.37944">
        <ele>356</ele>
        <time>2024-04-28T07:42:14Z</time>
      </trkpt>
      <trkpt lat="45.82389" lon="3.37942">
        <ele>356</ele>
        <time>2024-04-28T07:42:15Z</time>
      </trkpt>
      <trkpt lat="45.82383" lon="3.3794">
        <ele>355.8</ele>
        <time>2024-04-28T07:42:16Z</time>
      </trkpt>
      <trkpt lat="45.82377" lon="3.37939">
        <ele>355.4</ele>
        <time>2024-04-28T07:42:17Z</time>
      </trkpt>
      <trkpt lat="45.82371" lon="3.37937">
        <ele>355.4</ele>
        <time>2024-04-28T07:42:18Z</time>
      </trkpt>
      <trkpt lat="45.82365" lon="3.37935">
        <ele>355.2</ele>
        <time>2024-04-28T07:42:19Z</time>
      </trkpt>
      <trkpt lat="45.82359" lon="3.37934">
        <ele>355</ele>
        <time>2024-04-28T07:42:20Z</time>
      </trkpt>
      <trkpt lat="45.82354" lon="3.37933">
        <ele>355</ele>
        <time>2024-04-28T07:42:21Z</time>
      </trkpt>
      <trkpt lat="45.8235" lon="3.37931">
        <ele>355.2</ele>
        <time>2024-04-28T07:42:22Z</time>
      </trkpt>
      <trkpt lat="45.82344" lon="3.3793">
        <ele>355.2</ele>
        <time>2024-04-28T07:42:23Z</time>
      </trkpt>
      <trkpt lat="45.82339" lon="3.37928">
        <ele>355</ele>
        <time>2024-04-28T07:42:24Z</time>
      </trkpt>
      <trkpt lat="45.82333" lon="3.37924">
        <ele>355</ele>
        <time>2024-04-28T07:42:25Z</time>
      </trkpt>
      <trkpt lat="45.8233" lon="3.37923">
        <ele>354.8</ele>
        <time>2024-04-28T07:42:26Z</time>
      </trkpt>
      <trkpt lat="45.82325" lon="3.37921">
        <ele>354.8</ele>
        <time>2024-04-28T07:42:27Z</time>
      </trkpt>
      <trkpt lat="45.82323" lon="3.37932">
        <ele>354.6</ele>
        <time>2024-04-28T07:42:28Z</time>
      </trkpt>
      <trkpt lat="45.82319" lon="3.37935">
        <ele>354.4</ele>
        <time>2024-04-28T07:42:29Z</time>
      </trkpt>
      <trkpt lat="45.82315" lon="3.37938">
        <ele>354.4</ele>
        <time>2024-04-28T07:42:30Z</time>
      </trkpt>
      <trkpt lat="45.82309" lon="3.37942">
        <ele>354.2</ele>
        <time>2024-04-28T07:42:31Z</time>
      </trkpt>
      <trkpt lat="45.82303" lon="3.37947">
        <ele>354.2</ele>
        <time>2024-04-28T07:42:32Z</time>
      </trkpt>
      <trkpt lat="45.82297" lon="3.37951">
        <ele>354</ele>
        <time>2024-04-28T07:42:33Z</time>
      </trkpt>
      <trkpt lat="45.82292" lon="3.37956">
        <ele>354</ele>
        <time>2024-04-28T07:42:34Z</time>
      </trkpt>
      <trkpt lat="45.82286" lon="3.3796">
        <ele>353.8</ele>
        <time>2024-04-28T07:42:35Z</time>
      </trkpt>
      <trkpt lat="45.8228" lon="3.37964">
        <ele>353.8</ele>
        <time>2024-04-28T07:42:36Z</time>
      </trkpt>
      <trkpt lat="45.82275" lon="3.3797">
        <ele>353.6</ele>
        <time>2024-04-28T07:42:37Z</time>
      </trkpt>
      <trkpt lat="45.8227" lon="3.37975">
        <ele>353.4</ele>
        <time>2024-04-28T07:42:38Z</time>
      </trkpt>
      <trkpt lat="45.82264" lon="3.37982">
        <ele>353.4</ele>
        <time>2024-04-28T07:42:39Z</time>
      </trkpt>
      <trkpt lat="45.82259" lon="3.37988">
        <ele>353.4</ele>
        <time>2024-04-28T07:42:40Z</time>
      </trkpt>
      <trkpt lat="45.82253" lon="3.37994">
        <ele>353.2</ele>
        <time>2024-04-28T07:42:41Z</time>
      </trkpt>
      <trkpt lat="45.82247" lon="3.38001">
        <ele>353.2</ele>
        <time>2024-04-28T07:42:42Z</time>
      </trkpt>
      <trkpt lat="45.82242" lon="3.38007">
        <ele>353</ele>
        <time>2024-04-28T07:42:43Z</time>
      </trkpt>
      <trkpt lat="45.82237" lon="3.38013">
        <ele>353</ele>
        <time>2024-04-28T07:42:44Z</time>
      </trkpt>
      <trkpt lat="45.82231" lon="3.38019">
        <ele>352.8</ele>
        <time>2024-04-28T07:42:45Z</time>
      </trkpt>
      <trkpt lat="45.82226" lon="3.38025">
        <ele>352.8</ele>
        <time>2024-04-28T07:42:46Z</time>
      </trkpt>
      <trkpt lat="45.82221" lon="3.38031">
        <ele>352.6</ele>
        <time>2024-04-28T07:42:47Z</time>
      </trkpt>
      <trkpt lat="45.82215" lon="3.38037">
        <ele>352.4</ele>
        <time>2024-04-28T07:42:48Z</time>
      </trkpt>
      <trkpt lat="45.8221" lon="3.38042">
        <ele>352.4</ele>
        <time>2024-04-28T07:42:49Z</time>
      </trkpt>
      <trkpt lat="45.82205" lon="3.38049">
        <ele>352.2</ele>
        <time>2024-04-28T07:42:50Z</time>
      </trkpt>
      <trkpt lat="45.82199" lon="3.38055">
        <ele>352</ele>
        <time>2024-04-28T07:42:51Z</time>
      </trkpt>
      <trkpt lat="45.82194" lon="3.38061">
        <ele>352</ele>
        <time>2024-04-28T07:42:52Z</time>
      </trkpt>
      <trkpt lat="45.82188" lon="3.38067">
        <ele>352</ele>
        <time>2024-04-28T07:42:53Z</time>
      </trkpt>
      <trkpt lat="45.82182" lon="3.38074">
        <ele>351.8</ele>
        <time>2024-04-28T07:42:54Z</time>
      </trkpt>
      <trkpt lat="45.82177" lon="3.3808">
        <ele>351.8</ele>
        <time>2024-04-28T07:42:55Z</time>
      </trkpt>
      <trkpt lat="45.8217" lon="3.38085">
        <ele>351.8</ele>
        <time>2024-04-28T07:42:56Z</time>
      </trkpt>
      <trkpt lat="45.82163" lon="3.38085">
        <ele>351.6</ele>
        <time>2024-04-28T07:42:57Z</time>
      </trkpt>
      <trkpt lat="45.82156" lon="3.38086">
        <ele>351.6</ele>
        <time>2024-04-28T07:42:58Z</time>
      </trkpt>
      <trkpt lat="45.82149" lon="3.38086">
        <ele>351.6</ele>
        <time>2024-04-28T07:42:59Z</time>
      </trkpt>
      <trkpt lat="45.82143" lon="3.38086">
        <ele>351.4</ele>
        <time>2024-04-28T07:43:00Z</time>
      </trkpt>
      <trkpt lat="45.82136" lon="3.38086">
        <ele>351.4</ele>
        <time>2024-04-28T07:43:01Z</time>
      </trkpt>
      <trkpt lat="45.8213" lon="3.38087">
        <ele>351.2</ele>
        <time>2024-04-28T07:43:02Z</time>
      </trkpt>
      <trkpt lat="45.82123" lon="3.38087">
        <ele>351.2</ele>
        <time>2024-04-28T07:43:03Z</time>
      </trkpt>
      <trkpt lat="45.82117" lon="3.38087">
        <ele>351.2</ele>
        <time>2024-04-28T07:43:04Z</time>
      </trkpt>
      <trkpt lat="45.8211" lon="3.38088">
        <ele>351</ele>
        <time>2024-04-28T07:43:05Z</time>
      </trkpt>
      <trkpt lat="45.82103" lon="3.38088">
        <ele>351</ele>
        <time>2024-04-28T07:43:06Z</time>
      </trkpt>
      <trkpt lat="45.82096" lon="3.38088">
        <ele>351</ele>
        <time>2024-04-28T07:43:07Z</time>
      </trkpt>
      <trkpt lat="45.82089" lon="3.38088">
        <ele>351</ele>
        <time>2024-04-28T07:43:08Z</time>
      </trkpt>
      <trkpt lat="45.82082" lon="3.38089">
        <ele>350.8</ele>
        <time>2024-04-28T07:43:09Z</time>
      </trkpt>
      <trkpt lat="45.82076" lon="3.38089">
        <ele>350.8</ele>
        <time>2024-04-28T07:43:10Z</time>
      </trkpt>
      <trkpt lat="45.8207" lon="3.3809">
        <ele>350.8</ele>
        <time>2024-04-28T07:43:11Z</time>
      </trkpt>
      <trkpt lat="45.82063" lon="3.38094">
        <ele>350.8</ele>
        <time>2024-04-28T07:43:12Z</time>
      </trkpt>
      <trkpt lat="45.82057" lon="3.38098">
        <ele>350.6</ele>
        <time>2024-04-28T07:43:13Z</time>
      </trkpt>
      <trkpt lat="45.8205" lon="3.38102">
        <ele>350.6</ele>
        <time>2024-04-28T07:43:14Z</time>
      </trkpt>
      <trkpt lat="45.82044" lon="3.38105">
        <ele>350.6</ele>
        <time>2024-04-28T07:43:15Z</time>
      </trkpt>
      <trkpt lat="45.82037" lon="3.38109">
        <ele>350.4</ele>
        <time>2024-04-28T07:43:16Z</time>
      </trkpt>
      <trkpt lat="45.8203" lon="3.38113">
        <ele>350.4</ele>
        <time>2024-04-28T07:43:17Z</time>
      </trkpt>
      <trkpt lat="45.82023" lon="3.38115">
        <ele>350.4</ele>
        <time>2024-04-28T07:43:18Z</time>
      </trkpt>
      <trkpt lat="45.82016" lon="3.38116">
        <ele>350.4</ele>
        <time>2024-04-28T07:43:19Z</time>
      </trkpt>
      <trkpt lat="45.82009" lon="3.38118">
        <ele>350.2</ele>
        <time>2024-04-28T07:43:20Z</time>
      </trkpt>
      <trkpt lat="45.82002" lon="3.3812">
        <ele>350.2</ele>
        <time>2024-04-28T07:43:21Z</time>
      </trkpt>
      <trkpt lat="45.81996" lon="3.38121">
        <ele>350.2</ele>
        <time>2024-04-28T07:43:22Z</time>
      </trkpt>
      <trkpt lat="45.81989" lon="3.38123">
        <ele>350.2</ele>
        <time>2024-04-28T07:43:23Z</time>
      </trkpt>
      <trkpt lat="45.81982" lon="3.38125">
        <ele>350.2</ele>
        <time>2024-04-28T07:43:24Z</time>
      </trkpt>
      <trkpt lat="45.81976" lon="3.38126">
        <ele>350</ele>
        <time>2024-04-28T07:43:25Z</time>
      </trkpt>
      <trkpt lat="45.81969" lon="3.38128">
        <ele>350</ele>
        <time>2024-04-28T07:43:26Z</time>
      </trkpt>
      <trkpt lat="45.81963" lon="3.38129">
        <ele>350</ele>
        <time>2024-04-28T07:43:27Z</time>
      </trkpt>
      <trkpt lat="45.81957" lon="3.38131">
        <ele>350</ele>
        <time>2024-04-28T07:43:28Z</time>
      </trkpt>
      <trkpt lat="45.8195" lon="3.38133">
        <ele>350.2</ele>
        <time>2024-04-28T07:43:29Z</time>
      </trkpt>
      <trkpt lat="45.81943" lon="3.38134">
        <ele>350.2</ele>
        <time>2024-04-28T07:43:30Z</time>
      </trkpt>
      <trkpt lat="45.81936" lon="3.38136">
        <ele>350</ele>
        <time>2024-04-28T07:43:31Z</time>
      </trkpt>
      <trkpt lat="45.81929" lon="3.38137">
        <ele>350</ele>
        <time>2024-04-28T07:43:32Z</time>
      </trkpt>
      <trkpt lat="45.81921" lon="3.38139">
        <ele>349.8</ele>
        <time>2024-04-28T07:43:33Z</time>
      </trkpt>
      <trkpt lat="45.81913" lon="3.38141">
        <ele>349.8</ele>
        <time>2024-04-28T07:43:34Z</time>
      </trkpt>
      <trkpt lat="45.81906" lon="3.38143">
        <ele>349.6</ele>
        <time>2024-04-28T07:43:35Z</time>
      </trkpt>
      <trkpt lat="45.81898" lon="3.38144">
        <ele>349.6</ele>
        <time>2024-04-28T07:43:36Z</time>
      </trkpt>
      <trkpt lat="45.81891" lon="3.38146">
        <ele>349.4</ele>
        <time>2024-04-28T07:43:37Z</time>
      </trkpt>
      <trkpt lat="45.81883" lon="3.38148">
        <ele>349.4</ele>
        <time>2024-04-28T07:43:38Z</time>
      </trkpt>
      <trkpt lat="45.81876" lon="3.3815">
        <ele>349.2</ele>
        <time>2024-04-28T07:43:39Z</time>
      </trkpt>
      <trkpt lat="45.81868" lon="3.38151">
        <ele>349.2</ele>
        <time>2024-04-28T07:43:40Z</time>
      </trkpt>
      <trkpt lat="45.8186" lon="3.38153">
        <ele>349</ele>
        <time>2024-04-28T07:43:41Z</time>
      </trkpt>
      <trkpt lat="45.81852" lon="3.38155">
        <ele>349</ele>
        <time>2024-04-28T07:43:42Z</time>
      </trkpt>
      <trkpt lat="45.81845" lon="3.38157">
        <ele>349</ele>
        <time>2024-04-28T07:43:43Z</time>
      </trkpt>
      <trkpt lat="45.81837" lon="3.38158">
        <ele>348.8</ele>
        <time>2024-04-28T07:43:44Z</time>
      </trkpt>
      <trkpt lat="45.81829" lon="3.3816">
        <ele>348.8</ele>
        <time>2024-04-28T07:43:45Z</time>
      </trkpt>
      <trkpt lat="45.81821" lon="3.38162">
        <ele>348.8</ele>
        <time>2024-04-28T07:43:46Z</time>
      </trkpt>
      <trkpt lat="45.81813" lon="3.38166">
        <ele>348.8</ele>
        <time>2024-04-28T07:43:47Z</time>
      </trkpt>
      <trkpt lat="45.81805" lon="3.38168">
        <ele>348.8</ele>
        <time>2024-04-28T07:43:48Z</time>
      </trkpt>
      <trkpt lat="45.81796" lon="3.38167">
        <ele>348.8</ele>
        <time>2024-04-28T07:43:49Z</time>
      </trkpt>
      <trkpt lat="45.81788" lon="3.38166">
        <ele>348.6</ele>
        <time>2024-04-28T07:43:50Z</time>
      </trkpt>
      <trkpt lat="45.81779" lon="3.38165">
        <ele>348.6</ele>
        <time>2024-04-28T07:43:51Z</time>
      </trkpt>
      <trkpt lat="45.81771" lon="3.38165">
        <ele>348.4</ele>
        <time>2024-04-28T07:43:52Z</time>
      </trkpt>
      <trkpt lat="45.81762" lon="3.38164">
        <ele>348.4</ele>
        <time>2024-04-28T07:43:53Z</time>
      </trkpt>
      <trkpt lat="45.81754" lon="3.38163">
        <ele>348.2</ele>
        <time>2024-04-28T07:43:54Z</time>
      </trkpt>
      <trkpt lat="45.81746" lon="3.38162">
        <ele>348.2</ele>
        <time>2024-04-28T07:43:55Z</time>
      </trkpt>
      <trkpt lat="45.81738" lon="3.38161">
        <ele>348</ele>
        <time>2024-04-28T07:43:56Z</time>
      </trkpt>
      <trkpt lat="45.81729" lon="3.3816">
        <ele>347.8</ele>
        <time>2024-04-28T07:43:57Z</time>
      </trkpt>
      <trkpt lat="45.81721" lon="3.3816">
        <ele>347.6</ele>
        <time>2024-04-28T07:43:58Z</time>
      </trkpt>
      <trkpt lat="45.81713" lon="3.38159">
        <ele>347.6</ele>
        <time>2024-04-28T07:43:59Z</time>
      </trkpt>
      <trkpt lat="45.81704" lon="3.38158">
        <ele>347.4</ele>
        <time>2024-04-28T07:44:00Z</time>
      </trkpt>
      <trkpt lat="45.81696" lon="3.38157">
        <ele>347.4</ele>
        <time>2024-04-28T07:44:01Z</time>
      </trkpt>
      <trkpt lat="45.81688" lon="3.38156">
        <ele>347.2</ele>
        <time>2024-04-28T07:44:02Z</time>
      </trkpt>
      <trkpt lat="45.81679" lon="3.38155">
        <ele>347</ele>
        <time>2024-04-28T07:44:03Z</time>
      </trkpt>
      <trkpt lat="45.8167" lon="3.38154">
        <ele>347</ele>
        <time>2024-04-28T07:44:04Z</time>
      </trkpt>
      <trkpt lat="45.81661" lon="3.38154">
        <ele>346.8</ele>
        <time>2024-04-28T07:44:05Z</time>
      </trkpt>
      <trkpt lat="45.81653" lon="3.38156">
        <ele>346.6</ele>
        <time>2024-04-28T07:44:06Z</time>
      </trkpt>
      <trkpt lat="45.81644" lon="3.38158">
        <ele>346.6</ele>
        <time>2024-04-28T07:44:07Z</time>
      </trkpt>
      <trkpt lat="45.81635" lon="3.3816">
        <ele>346.4</ele>
        <time>2024-04-28T07:44:08Z</time>
      </trkpt>
      <trkpt lat="45.81626" lon="3.38163">
        <ele>346.2</ele>
        <time>2024-04-28T07:44:09Z</time>
      </trkpt>
      <trkpt lat="45.81618" lon="3.38165">
        <ele>346</ele>
        <time>2024-04-28T07:44:10Z</time>
      </trkpt>
      <trkpt lat="45.81609" lon="3.38167">
        <ele>346</ele>
        <time>2024-04-28T07:44:11Z</time>
      </trkpt>
      <trkpt lat="45.816" lon="3.38169">
        <ele>345.6</ele>
        <time>2024-04-28T07:44:12Z</time>
      </trkpt>
      <trkpt lat="45.81592" lon="3.38171">
        <ele>345.6</ele>
        <time>2024-04-28T07:44:13Z</time>
      </trkpt>
      <trkpt lat="45.81583" lon="3.38173">
        <ele>345.4</ele>
        <time>2024-04-28T07:44:14Z</time>
      </trkpt>
      <trkpt lat="45.81574" lon="3.38175">
        <ele>345.4</ele>
        <time>2024-04-28T07:44:15Z</time>
      </trkpt>
      <trkpt lat="45.81565" lon="3.38177">
        <ele>345.2</ele>
        <time>2024-04-28T07:44:16Z</time>
      </trkpt>
      <trkpt lat="45.81556" lon="3.38179">
        <ele>345</ele>
        <time>2024-04-28T07:44:17Z</time>
      </trkpt>
      <trkpt lat="45.81548" lon="3.38183">
        <ele>344.8</ele>
        <time>2024-04-28T07:44:18Z</time>
      </trkpt>
      <trkpt lat="45.81539" lon="3.38186">
        <ele>344.8</ele>
        <time>2024-04-28T07:44:19Z</time>
      </trkpt>
      <trkpt lat="45.81531" lon="3.3819">
        <ele>344.6</ele>
        <time>2024-04-28T07:44:20Z</time>
      </trkpt>
      <trkpt lat="45.81522" lon="3.38193">
        <ele>344.4</ele>
        <time>2024-04-28T07:44:21Z</time>
      </trkpt>
      <trkpt lat="45.81513" lon="3.38197">
        <ele>344.4</ele>
        <time>2024-04-28T07:44:22Z</time>
      </trkpt>
      <trkpt lat="45.81505" lon="3.382">
        <ele>344.2</ele>
        <time>2024-04-28T07:44:23Z</time>
      </trkpt>
      <trkpt lat="45.81497" lon="3.38204">
        <ele>344</ele>
        <time>2024-04-28T07:44:24Z</time>
      </trkpt>
      <trkpt lat="45.81489" lon="3.38209">
        <ele>343.8</ele>
        <time>2024-04-28T07:44:25Z</time>
      </trkpt>
      <trkpt lat="45.81481" lon="3.38214">
        <ele>343.8</ele>
        <time>2024-04-28T07:44:26Z</time>
      </trkpt>
      <trkpt lat="45.81473" lon="3.38219">
        <ele>343.6</ele>
        <time>2024-04-28T07:44:27Z</time>
      </trkpt>
      <trkpt lat="45.81457" lon="3.38229">
        <ele>343.4</ele>
        <time>2024-04-28T07:44:28Z</time>
      </trkpt>
      <trkpt lat="45.81457" lon="3.38229">
        <ele>343.2</ele>
        <time>2024-04-28T07:44:29Z</time>
      </trkpt>
      <trkpt lat="45.81451" lon="3.38237">
        <ele>343.2</ele>
        <time>2024-04-28T07:44:30Z</time>
      </trkpt>
      <trkpt lat="45.81445" lon="3.38246">
        <ele>343</ele>
        <time>2024-04-28T07:44:31Z</time>
      </trkpt>
      <trkpt lat="45.81439" lon="3.38254">
        <ele>342.8</ele>
        <time>2024-04-28T07:44:32Z</time>
      </trkpt>
      <trkpt lat="45.81433" lon="3.38262">
        <ele>342.6</ele>
        <time>2024-04-28T07:44:33Z</time>
      </trkpt>
      <trkpt lat="45.81427" lon="3.3827">
        <ele>342.6</ele>
        <time>2024-04-28T07:44:34Z</time>
      </trkpt>
      <trkpt lat="45.81421" lon="3.38279">
        <ele>342.4</ele>
        <time>2024-04-28T07:44:35Z</time>
      </trkpt>
      <trkpt lat="45.81415" lon="3.38287">
        <ele>342.2</ele>
        <time>2024-04-28T07:44:36Z</time>
      </trkpt>
      <trkpt lat="45.81409" lon="3.38295">
        <ele>342.2</ele>
        <time>2024-04-28T07:44:37Z</time>
      </trkpt>
      <trkpt lat="45.81402" lon="3.38302">
        <ele>342</ele>
        <time>2024-04-28T07:44:38Z</time>
      </trkpt>
      <trkpt lat="45.81396" lon="3.3831">
        <ele>341.8</ele>
        <time>2024-04-28T07:44:39Z</time>
      </trkpt>
      <trkpt lat="45.81389" lon="3.38317">
        <ele>341.8</ele>
        <time>2024-04-28T07:44:40Z</time>
      </trkpt>
      <trkpt lat="45.81383" lon="3.38324">
        <ele>341.6</ele>
        <time>2024-04-28T07:44:41Z</time>
      </trkpt>
      <trkpt lat="45.81376" lon="3.38332">
        <ele>341.6</ele>
        <time>2024-04-28T07:44:42Z</time>
      </trkpt>
      <trkpt lat="45.8137" lon="3.38339">
        <ele>341.4</ele>
        <time>2024-04-28T07:44:43Z</time>
      </trkpt>
      <trkpt lat="45.81364" lon="3.38346">
        <ele>341.4</ele>
        <time>2024-04-28T07:44:44Z</time>
      </trkpt>
      <trkpt lat="45.81358" lon="3.38353">
        <ele>341.2</ele>
        <time>2024-04-28T07:44:45Z</time>
      </trkpt>
      <trkpt lat="45.81352" lon="3.3836">
        <ele>341</ele>
        <time>2024-04-28T07:44:46Z</time>
      </trkpt>
      <trkpt lat="45.81346" lon="3.38367">
        <ele>341</ele>
        <time>2024-04-28T07:44:47Z</time>
      </trkpt>
      <trkpt lat="45.8134" lon="3.38373">
        <ele>340.8</ele>
        <time>2024-04-28T07:44:48Z</time>
      </trkpt>
      <trkpt lat="45.81334" lon="3.3838">
        <ele>340.8</ele>
        <time>2024-04-28T07:44:49Z</time>
      </trkpt>
      <trkpt lat="45.81328" lon="3.38387">
        <ele>340.8</ele>
        <time>2024-04-28T07:44:50Z</time>
      </trkpt>
      <trkpt lat="45.81323" lon="3.38393">
        <ele>340.6</ele>
        <time>2024-04-28T07:44:51Z</time>
      </trkpt>
      <trkpt lat="45.81317" lon="3.384">
        <ele>340.6</ele>
        <time>2024-04-28T07:44:52Z</time>
      </trkpt>
      <trkpt lat="45.81311" lon="3.38407">
        <ele>340.4</ele>
        <time>2024-04-28T07:44:53Z</time>
      </trkpt>
      <trkpt lat="45.81305" lon="3.38414">
        <ele>340.4</ele>
        <time>2024-04-28T07:44:54Z</time>
      </trkpt>
      <trkpt lat="45.81299" lon="3.38421">
        <ele>340.2</ele>
        <time>2024-04-28T07:44:55Z</time>
      </trkpt>
      <trkpt lat="45.81293" lon="3.38427">
        <ele>340.2</ele>
        <time>2024-04-28T07:44:56Z</time>
      </trkpt>
      <trkpt lat="45.81287" lon="3.38434">
        <ele>340</ele>
        <time>2024-04-28T07:44:57Z</time>
      </trkpt>
      <trkpt lat="45.81282" lon="3.3844">
        <ele>339.8</ele>
        <time>2024-04-28T07:44:58Z</time>
      </trkpt>
      <trkpt lat="45.81277" lon="3.38446">
        <ele>339.8</ele>
        <time>2024-04-28T07:44:59Z</time>
      </trkpt>
      <trkpt lat="45.81271" lon="3.38452">
        <ele>339.6</ele>
        <time>2024-04-28T07:45:00Z</time>
      </trkpt>
      <trkpt lat="45.81266" lon="3.38458">
        <ele>339.4</ele>
        <time>2024-04-28T07:45:01Z</time>
      </trkpt>
      <trkpt lat="45.8126" lon="3.38465">
        <ele>339.4</ele>
        <time>2024-04-28T07:45:02Z</time>
      </trkpt>
      <trkpt lat="45.81254" lon="3.38472">
        <ele>339.2</ele>
        <time>2024-04-28T07:45:03Z</time>
      </trkpt>
      <trkpt lat="45.81248" lon="3.38479">
        <ele>339</ele>
        <time>2024-04-28T07:45:04Z</time>
      </trkpt>
      <trkpt lat="45.81242" lon="3.38486">
        <ele>339</ele>
        <time>2024-04-28T07:45:05Z</time>
      </trkpt>
      <trkpt lat="45.81236" lon="3.38492">
        <ele>338.8</ele>
        <time>2024-04-28T07:45:06Z</time>
      </trkpt>
      <trkpt lat="45.8123" lon="3.38499">
        <ele>338.8</ele>
        <time>2024-04-28T07:45:07Z</time>
      </trkpt>
      <trkpt lat="45.81224" lon="3.38506">
        <ele>338.6</ele>
        <time>2024-04-28T07:45:08Z</time>
      </trkpt>
      <trkpt lat="45.81218" lon="3.38513">
        <ele>338.6</ele>
        <time>2024-04-28T07:45:09Z</time>
      </trkpt>
      <trkpt lat="45.81211" lon="3.3852">
        <ele>338.6</ele>
        <time>2024-04-28T07:45:10Z</time>
      </trkpt>
      <trkpt lat="45.81205" lon="3.38528">
        <ele>338.4</ele>
        <time>2024-04-28T07:45:11Z</time>
      </trkpt>
      <trkpt lat="45.81199" lon="3.38534">
        <ele>338.4</ele>
        <time>2024-04-28T07:45:12Z</time>
      </trkpt>
      <trkpt lat="45.81193" lon="3.38541">
        <ele>338.2</ele>
        <time>2024-04-28T07:45:13Z</time>
      </trkpt>
      <trkpt lat="45.81187" lon="3.38548">
        <ele>338.2</ele>
        <time>2024-04-28T07:45:14Z</time>
      </trkpt>
      <trkpt lat="45.81181" lon="3.38555">
        <ele>338</ele>
        <time>2024-04-28T07:45:15Z</time>
      </trkpt>
      <trkpt lat="45.81175" lon="3.38562">
        <ele>338</ele>
        <time>2024-04-28T07:45:16Z</time>
      </trkpt>
      <trkpt lat="45.81169" lon="3.38569">
        <ele>337.8</ele>
        <time>2024-04-28T07:45:17Z</time>
      </trkpt>
      <trkpt lat="45.81162" lon="3.38574">
        <ele>337.8</ele>
        <time>2024-04-28T07:45:18Z</time>
      </trkpt>
      <trkpt lat="45.81155" lon="3.38578">
        <ele>337.6</ele>
        <time>2024-04-28T07:45:19Z</time>
      </trkpt>
      <trkpt lat="45.81148" lon="3.38583">
        <ele>337.6</ele>
        <time>2024-04-28T07:45:20Z</time>
      </trkpt>
      <trkpt lat="45.81141" lon="3.38587">
        <ele>337.4</ele>
        <time>2024-04-28T07:45:21Z</time>
      </trkpt>
      <trkpt lat="45.81135" lon="3.38592">
        <ele>337.4</ele>
        <time>2024-04-28T07:45:22Z</time>
      </trkpt>
      <trkpt lat="45.81128" lon="3.38596">
        <ele>337.2</ele>
        <time>2024-04-28T07:45:23Z</time>
      </trkpt>
      <trkpt lat="45.81121" lon="3.386">
        <ele>337.2</ele>
        <time>2024-04-28T07:45:24Z</time>
      </trkpt>
      <trkpt lat="45.81114" lon="3.38605">
        <ele>337</ele>
        <time>2024-04-28T07:45:25Z</time>
      </trkpt>
      <trkpt lat="45.81107" lon="3.38609">
        <ele>337</ele>
        <time>2024-04-28T07:45:26Z</time>
      </trkpt>
      <trkpt lat="45.81101" lon="3.38614">
        <ele>336.8</ele>
        <time>2024-04-28T07:45:27Z</time>
      </trkpt>
      <trkpt lat="45.81094" lon="3.38618">
        <ele>336.8</ele>
        <time>2024-04-28T07:45:28Z</time>
      </trkpt>
      <trkpt lat="45.81087" lon="3.38622">
        <ele>336.8</ele>
        <time>2024-04-28T07:45:29Z</time>
      </trkpt>
      <trkpt lat="45.8108" lon="3.38627">
        <ele>336.6</ele>
        <time>2024-04-28T07:45:30Z</time>
      </trkpt>
      <trkpt lat="45.81073" lon="3.38631">
        <ele>336.6</ele>
        <time>2024-04-28T07:45:31Z</time>
      </trkpt>
      <trkpt lat="45.81066" lon="3.38636">
        <ele>336.4</ele>
        <time>2024-04-28T07:45:32Z</time>
      </trkpt>
      <trkpt lat="45.8106" lon="3.3864">
        <ele>336.4</ele>
        <time>2024-04-28T07:45:33Z</time>
      </trkpt>
      <trkpt lat="45.81054" lon="3.38644">
        <ele>336.4</ele>
        <time>2024-04-28T07:45:34Z</time>
      </trkpt>
      <trkpt lat="45.81048" lon="3.38648">
        <ele>336.4</ele>
        <time>2024-04-28T07:45:35Z</time>
      </trkpt>
      <trkpt lat="45.81042" lon="3.38652">
        <ele>336.4</ele>
        <time>2024-04-28T07:45:36Z</time>
      </trkpt>
      <trkpt lat="45.81036" lon="3.38658">
        <ele>336.2</ele>
        <time>2024-04-28T07:45:37Z</time>
      </trkpt>
      <trkpt lat="45.8103" lon="3.38665">
        <ele>336.2</ele>
        <time>2024-04-28T07:45:38Z</time>
      </trkpt>
      <trkpt lat="45.81025" lon="3.38671">
        <ele>336.2</ele>
        <time>2024-04-28T07:45:39Z</time>
      </trkpt>
      <trkpt lat="45.8102" lon="3.38678">
        <ele>336.2</ele>
        <time>2024-04-28T07:45:40Z</time>
      </trkpt>
      <trkpt lat="45.81015" lon="3.38684">
        <ele>336.2</ele>
        <time>2024-04-28T07:45:41Z</time>
      </trkpt>
      <trkpt lat="45.8101" lon="3.3869">
        <ele>336.2</ele>
        <time>2024-04-28T07:45:42Z</time>
      </trkpt>
      <trkpt lat="45.81003" lon="3.38696">
        <ele>336.2</ele>
        <time>2024-04-28T07:45:43Z</time>
      </trkpt>
      <trkpt lat="45.80997" lon="3.387">
        <ele>336.2</ele>
        <time>2024-04-28T07:45:44Z</time>
      </trkpt>
      <trkpt lat="45.8099" lon="3.38705">
        <ele>336</ele>
        <time>2024-04-28T07:45:45Z</time>
      </trkpt>
      <trkpt lat="45.80982" lon="3.38709">
        <ele>336.2</ele>
        <time>2024-04-28T07:45:46Z</time>
      </trkpt>
      <trkpt lat="45.80975" lon="3.38713">
        <ele>336.2</ele>
        <time>2024-04-28T07:45:47Z</time>
      </trkpt>
      <trkpt lat="45.80968" lon="3.38718">
        <ele>336.2</ele>
        <time>2024-04-28T07:45:48Z</time>
      </trkpt>
      <trkpt lat="45.80961" lon="3.38721">
        <ele>336</ele>
        <time>2024-04-28T07:45:49Z</time>
      </trkpt>
      <trkpt lat="45.80954" lon="3.38725">
        <ele>336</ele>
        <time>2024-04-28T07:45:50Z</time>
      </trkpt>
      <trkpt lat="45.80948" lon="3.38729">
        <ele>336</ele>
        <time>2024-04-28T07:45:51Z</time>
      </trkpt>
      <trkpt lat="45.80941" lon="3.38733">
        <ele>336</ele>
        <time>2024-04-28T07:45:52Z</time>
      </trkpt>
      <trkpt lat="45.80935" lon="3.38737">
        <ele>336</ele>
        <time>2024-04-28T07:45:53Z</time>
      </trkpt>
      <trkpt lat="45.80927" lon="3.38741">
        <ele>335.8</ele>
        <time>2024-04-28T07:45:54Z</time>
      </trkpt>
      <trkpt lat="45.8092" lon="3.38746">
        <ele>335.8</ele>
        <time>2024-04-28T07:45:55Z</time>
      </trkpt>
      <trkpt lat="45.80913" lon="3.3875">
        <ele>335.8</ele>
        <time>2024-04-28T07:45:56Z</time>
      </trkpt>
      <trkpt lat="45.80906" lon="3.38755">
        <ele>335.8</ele>
        <time>2024-04-28T07:45:57Z</time>
      </trkpt>
      <trkpt lat="45.809" lon="3.3876">
        <ele>335.6</ele>
        <time>2024-04-28T07:45:58Z</time>
      </trkpt>
      <trkpt lat="45.80893" lon="3.38766">
        <ele>335.6</ele>
        <time>2024-04-28T07:45:59Z</time>
      </trkpt>
      <trkpt lat="45.80886" lon="3.38771">
        <ele>335.4</ele>
        <time>2024-04-28T07:46:00Z</time>
      </trkpt>
      <trkpt lat="45.8088" lon="3.38776">
        <ele>335.4</ele>
        <time>2024-04-28T07:46:01Z</time>
      </trkpt>
      <trkpt lat="45.80873" lon="3.38782">
        <ele>335.2</ele>
        <time>2024-04-28T07:46:02Z</time>
      </trkpt>
      <trkpt lat="45.80866" lon="3.38787">
        <ele>335.2</ele>
        <time>2024-04-28T07:46:03Z</time>
      </trkpt>
      <trkpt lat="45.80859" lon="3.38792">
        <ele>335</ele>
        <time>2024-04-28T07:46:04Z</time>
      </trkpt>
      <trkpt lat="45.80852" lon="3.38798">
        <ele>335</ele>
        <time>2024-04-28T07:46:05Z</time>
      </trkpt>
      <trkpt lat="45.80845" lon="3.38803">
        <ele>334.8</ele>
        <time>2024-04-28T07:46:06Z</time>
      </trkpt>
      <trkpt lat="45.80838" lon="3.38809">
        <ele>334.8</ele>
        <time>2024-04-28T07:46:07Z</time>
      </trkpt>
      <trkpt lat="45.80831" lon="3.38814">
        <ele>334.8</ele>
        <time>2024-04-28T07:46:08Z</time>
      </trkpt>
      <trkpt lat="45.80825" lon="3.38822">
        <ele>334.6</ele>
        <time>2024-04-28T07:46:09Z</time>
      </trkpt>
      <trkpt lat="45.80819" lon="3.3883">
        <ele>334.6</ele>
        <time>2024-04-28T07:46:10Z</time>
      </trkpt>
      <trkpt lat="45.80813" lon="3.38838">
        <ele>334.6</ele>
        <time>2024-04-28T07:46:11Z</time>
      </trkpt>
      <trkpt lat="45.80807" lon="3.38846">
        <ele>334.4</ele>
        <time>2024-04-28T07:46:12Z</time>
      </trkpt>
      <trkpt lat="45.80801" lon="3.38854">
        <ele>334.4</ele>
        <time>2024-04-28T07:46:13Z</time>
      </trkpt>
      <trkpt lat="45.80794" lon="3.38862">
        <ele>334.2</ele>
        <time>2024-04-28T07:46:14Z</time>
      </trkpt>
      <trkpt lat="45.80788" lon="3.3887">
        <ele>334.2</ele>
        <time>2024-04-28T07:46:15Z</time>
      </trkpt>
      <trkpt lat="45.80781" lon="3.38875">
        <ele>334</ele>
        <time>2024-04-28T07:46:16Z</time>
      </trkpt>
      <trkpt lat="45.80774" lon="3.3888">
        <ele>334</ele>
        <time>2024-04-28T07:46:17Z</time>
      </trkpt>
      <trkpt lat="45.80767" lon="3.38884">
        <ele>333.8</ele>
        <time>2024-04-28T07:46:18Z</time>
      </trkpt>
      <trkpt lat="45.80761" lon="3.38888">
        <ele>333.8</ele>
        <time>2024-04-28T07:46:19Z</time>
      </trkpt>
      <trkpt lat="45.80754" lon="3.38892">
        <ele>333.8</ele>
        <time>2024-04-28T07:46:20Z</time>
      </trkpt>
      <trkpt lat="45.80748" lon="3.38895">
        <ele>333.6</ele>
        <time>2024-04-28T07:46:21Z</time>
      </trkpt>
      <trkpt lat="45.80741" lon="3.38897">
        <ele>333.6</ele>
        <time>2024-04-28T07:46:22Z</time>
      </trkpt>
      <trkpt lat="45.80735" lon="3.38899">
        <ele>333.6</ele>
        <time>2024-04-28T07:46:23Z</time>
      </trkpt>
      <trkpt lat="45.8073" lon="3.38901">
        <ele>333.6</ele>
        <time>2024-04-28T07:46:24Z</time>
      </trkpt>
      <trkpt lat="45.80724" lon="3.38903">
        <ele>333.6</ele>
        <time>2024-04-28T07:46:25Z</time>
      </trkpt>
      <trkpt lat="45.80718" lon="3.38905">
        <ele>333.6</ele>
        <time>2024-04-28T07:46:26Z</time>
      </trkpt>
      <trkpt lat="45.80712" lon="3.38907">
        <ele>333.6</ele>
        <time>2024-04-28T07:46:27Z</time>
      </trkpt>
      <trkpt lat="45.80706" lon="3.3891">
        <ele>333.4</ele>
        <time>2024-04-28T07:46:28Z</time>
      </trkpt>
      <trkpt lat="45.80699" lon="3.38916">
        <ele>333.4</ele>
        <time>2024-04-28T07:46:29Z</time>
      </trkpt>
      <trkpt lat="45.80692" lon="3.38921">
        <ele>333.4</ele>
        <time>2024-04-28T07:46:30Z</time>
      </trkpt>
      <trkpt lat="45.80686" lon="3.38927">
        <ele>333.4</ele>
        <time>2024-04-28T07:46:31Z</time>
      </trkpt>
      <trkpt lat="45.8068" lon="3.38932">
        <ele>333.2</ele>
        <time>2024-04-28T07:46:32Z</time>
      </trkpt>
      <trkpt lat="45.80674" lon="3.38938">
        <ele>333.2</ele>
        <time>2024-04-28T07:46:33Z</time>
      </trkpt>
      <trkpt lat="45.80668" lon="3.38943">
        <ele>333.2</ele>
        <time>2024-04-28T07:46:34Z</time>
      </trkpt>
      <trkpt lat="45.80662" lon="3.38949">
        <ele>333</ele>
        <time>2024-04-28T07:46:35Z</time>
      </trkpt>
      <trkpt lat="45.80655" lon="3.38954">
        <ele>333</ele>
        <time>2024-04-28T07:46:36Z</time>
      </trkpt>
      <trkpt lat="45.80649" lon="3.3896">
        <ele>332.8</ele>
        <time>2024-04-28T07:46:37Z</time>
      </trkpt>
      <trkpt lat="45.80642" lon="3.38966">
        <ele>332.8</ele>
        <time>2024-04-28T07:46:38Z</time>
      </trkpt>
      <trkpt lat="45.80636" lon="3.38971">
        <ele>332.6</ele>
        <time>2024-04-28T07:46:39Z</time>
      </trkpt>
      <trkpt lat="45.80627" lon="3.38975">
        <ele>332.4</ele>
        <time>2024-04-28T07:46:40Z</time>
      </trkpt>
      <trkpt lat="45.8062" lon="3.38978">
        <ele>332.4</ele>
        <time>2024-04-28T07:46:41Z</time>
      </trkpt>
      <trkpt lat="45.80612" lon="3.3898">
        <ele>332.2</ele>
        <time>2024-04-28T07:46:42Z</time>
      </trkpt>
      <trkpt lat="45.80605" lon="3.38983">
        <ele>332.2</ele>
        <time>2024-04-28T07:46:43Z</time>
      </trkpt>
      <trkpt lat="45.80598" lon="3.38985">
        <ele>332.2</ele>
        <time>2024-04-28T07:46:44Z</time>
      </trkpt>
      <trkpt lat="45.8059" lon="3.38988">
        <ele>332</ele>
        <time>2024-04-28T07:46:45Z</time>
      </trkpt>
      <trkpt lat="45.80582" lon="3.38991">
        <ele>332</ele>
        <time>2024-04-28T07:46:46Z</time>
      </trkpt>
      <trkpt lat="45.80574" lon="3.38993">
        <ele>332</ele>
        <time>2024-04-28T07:46:47Z</time>
      </trkpt>
      <trkpt lat="45.80567" lon="3.38996">
        <ele>331.8</ele>
        <time>2024-04-28T07:46:48Z</time>
      </trkpt>
      <trkpt lat="45.8056" lon="3.38998">
        <ele>331.8</ele>
        <time>2024-04-28T07:46:49Z</time>
      </trkpt>
      <trkpt lat="45.80553" lon="3.39">
        <ele>331.6</ele>
        <time>2024-04-28T07:46:50Z</time>
      </trkpt>
      <trkpt lat="45.80546" lon="3.39003">
        <ele>331.4</ele>
        <time>2024-04-28T07:46:51Z</time>
      </trkpt>
      <trkpt lat="45.80539" lon="3.39005">
        <ele>331.2</ele>
        <time>2024-04-28T07:46:52Z</time>
      </trkpt>
      <trkpt lat="45.80532" lon="3.39007">
        <ele>331.2</ele>
        <time>2024-04-28T07:46:53Z</time>
      </trkpt>
      <trkpt lat="45.80525" lon="3.3901">
        <ele>331</ele>
        <time>2024-04-28T07:46:54Z</time>
      </trkpt>
      <trkpt lat="45.80517" lon="3.39012">
        <ele>331</ele>
        <time>2024-04-28T07:46:55Z</time>
      </trkpt>
      <trkpt lat="45.8051" lon="3.39015">
        <ele>330.8</ele>
        <time>2024-04-28T07:46:56Z</time>
      </trkpt>
      <trkpt lat="45.80502" lon="3.39018">
        <ele>330.8</ele>
        <time>2024-04-28T07:46:57Z</time>
      </trkpt>
      <trkpt lat="45.80494" lon="3.3902">
        <ele>330.8</ele>
        <time>2024-04-28T07:46:58Z</time>
      </trkpt>
      <trkpt lat="45.80486" lon="3.39023">
        <ele>330.6</ele>
        <time>2024-04-28T07:46:59Z</time>
      </trkpt>
      <trkpt lat="45.80478" lon="3.39026">
        <ele>330.6</ele>
        <time>2024-04-28T07:47:00Z</time>
      </trkpt>
      <trkpt lat="45.8047" lon="3.39028">
        <ele>330.6</ele>
        <time>2024-04-28T07:47:01Z</time>
      </trkpt>
      <trkpt lat="45.80463" lon="3.3903">
        <ele>330.6</ele>
        <time>2024-04-28T07:47:02Z</time>
      </trkpt>
      <trkpt lat="45.80457" lon="3.39033">
        <ele>330.6</ele>
        <time>2024-04-28T07:47:03Z</time>
      </trkpt>
      <trkpt lat="45.8045" lon="3.39035">
        <ele>330.6</ele>
        <time>2024-04-28T07:47:04Z</time>
      </trkpt>
      <trkpt lat="45.80444" lon="3.39037">
        <ele>330.4</ele>
        <time>2024-04-28T07:47:05Z</time>
      </trkpt>
      <trkpt lat="45.80437" lon="3.39039">
        <ele>330.4</ele>
        <time>2024-04-28T07:47:06Z</time>
      </trkpt>
      <trkpt lat="45.8043" lon="3.39042">
        <ele>330.4</ele>
        <time>2024-04-28T07:47:07Z</time>
      </trkpt>
      <trkpt lat="45.80424" lon="3.39044">
        <ele>330.4</ele>
        <time>2024-04-28T07:47:08Z</time>
      </trkpt>
      <trkpt lat="45.80417" lon="3.39046">
        <ele>330.4</ele>
        <time>2024-04-28T07:47:09Z</time>
      </trkpt>
      <trkpt lat="45.8041" lon="3.39048">
        <ele>330.2</ele>
        <time>2024-04-28T07:47:10Z</time>
      </trkpt>
      <trkpt lat="45.80403" lon="3.39051">
        <ele>330.2</ele>
        <time>2024-04-28T07:47:11Z</time>
      </trkpt>
      <trkpt lat="45.80396" lon="3.39053">
        <ele>330.2</ele>
        <time>2024-04-28T07:47:12Z</time>
      </trkpt>
      <trkpt lat="45.80388" lon="3.39056">
        <ele>330.2</ele>
        <time>2024-04-28T07:47:13Z</time>
      </trkpt>
      <trkpt lat="45.80379" lon="3.39059">
        <ele>330.2</ele>
        <time>2024-04-28T07:47:14Z</time>
      </trkpt>
      <trkpt lat="45.80371" lon="3.39061">
        <ele>330</ele>
        <time>2024-04-28T07:47:15Z</time>
      </trkpt>
      <trkpt lat="45.80363" lon="3.39064">
        <ele>330</ele>
        <time>2024-04-28T07:47:16Z</time>
      </trkpt>
      <trkpt lat="45.80356" lon="3.39067">
        <ele>329.8</ele>
        <time>2024-04-28T07:47:17Z</time>
      </trkpt>
      <trkpt lat="45.80348" lon="3.39069">
        <ele>329.8</ele>
        <time>2024-04-28T07:47:18Z</time>
      </trkpt>
      <trkpt lat="45.8034" lon="3.39072">
        <ele>329.8</ele>
        <time>2024-04-28T07:47:19Z</time>
      </trkpt>
      <trkpt lat="45.80332" lon="3.39075">
        <ele>329.6</ele>
        <time>2024-04-28T07:47:20Z</time>
      </trkpt>
      <trkpt lat="45.80323" lon="3.39077">
        <ele>329.6</ele>
        <time>2024-04-28T07:47:21Z</time>
      </trkpt>
      <trkpt lat="45.80315" lon="3.39077">
        <ele>329.4</ele>
        <time>2024-04-28T07:47:22Z</time>
      </trkpt>
      <trkpt lat="45.80306" lon="3.39078">
        <ele>329.4</ele>
        <time>2024-04-28T07:47:23Z</time>
      </trkpt>
      <trkpt lat="45.80297" lon="3.39079">
        <ele>329.2</ele>
        <time>2024-04-28T07:47:24Z</time>
      </trkpt>
      <trkpt lat="45.80289" lon="3.3908">
        <ele>329.2</ele>
        <time>2024-04-28T07:47:25Z</time>
      </trkpt>
      <trkpt lat="45.8028" lon="3.3908">
        <ele>329.2</ele>
        <time>2024-04-28T07:47:26Z</time>
      </trkpt>
      <trkpt lat="45.80272" lon="3.39081">
        <ele>329.2</ele>
        <time>2024-04-28T07:47:27Z</time>
      </trkpt>
      <trkpt lat="45.80264" lon="3.39082">
        <ele>329</ele>
        <time>2024-04-28T07:47:28Z</time>
      </trkpt>
      <trkpt lat="45.80256" lon="3.39082">
        <ele>329</ele>
        <time>2024-04-28T07:47:29Z</time>
      </trkpt>
      <trkpt lat="45.80247" lon="3.39083">
        <ele>329</ele>
        <time>2024-04-28T07:47:30Z</time>
      </trkpt>
      <trkpt lat="45.80239" lon="3.39084">
        <ele>329</ele>
        <time>2024-04-28T07:47:31Z</time>
      </trkpt>
      <trkpt lat="45.80231" lon="3.39085">
        <ele>328.8</ele>
        <time>2024-04-28T07:47:32Z</time>
      </trkpt>
      <trkpt lat="45.80223" lon="3.39086">
        <ele>328.8</ele>
        <time>2024-04-28T07:47:33Z</time>
      </trkpt>
      <trkpt lat="45.80215" lon="3.39086">
        <ele>328.8</ele>
        <time>2024-04-28T07:47:34Z</time>
      </trkpt>
      <trkpt lat="45.80207" lon="3.39087">
        <ele>328.8</ele>
        <time>2024-04-28T07:47:35Z</time>
      </trkpt>
      <trkpt lat="45.80199" lon="3.39088">
        <ele>328.6</ele>
        <time>2024-04-28T07:47:36Z</time>
      </trkpt>
      <trkpt lat="45.80191" lon="3.39089">
        <ele>328.6</ele>
        <time>2024-04-28T07:47:37Z</time>
      </trkpt>
      <trkpt lat="45.80183" lon="3.3909">
        <ele>328.6</ele>
        <time>2024-04-28T07:47:38Z</time>
      </trkpt>
      <trkpt lat="45.80175" lon="3.39091">
        <ele>328.6</ele>
        <time>2024-04-28T07:47:39Z</time>
      </trkpt>
      <trkpt lat="45.80167" lon="3.39092">
        <ele>328.6</ele>
        <time>2024-04-28T07:47:40Z</time>
      </trkpt>
      <trkpt lat="45.80159" lon="3.39093">
        <ele>328.6</ele>
        <time>2024-04-28T07:47:41Z</time>
      </trkpt>
      <trkpt lat="45.80152" lon="3.39094">
        <ele>328.6</ele>
        <time>2024-04-28T07:47:42Z</time>
      </trkpt>
      <trkpt lat="45.80144" lon="3.39095">
        <ele>328.4</ele>
        <time>2024-04-28T07:47:43Z</time>
      </trkpt>
      <trkpt lat="45.80136" lon="3.39096">
        <ele>328.4</ele>
        <time>2024-04-28T07:47:44Z</time>
      </trkpt>
      <trkpt lat="45.80128" lon="3.39097">
        <ele>328.4</ele>
        <time>2024-04-28T07:47:45Z</time>
      </trkpt>
      <trkpt lat="45.8012" lon="3.39098">
        <ele>328.4</ele>
        <time>2024-04-28T07:47:46Z</time>
      </trkpt>
      <trkpt lat="45.80112" lon="3.39099">
        <ele>328.2</ele>
        <time>2024-04-28T07:47:47Z</time>
      </trkpt>
      <trkpt lat="45.80104" lon="3.391">
        <ele>328.2</ele>
        <time>2024-04-28T07:47:48Z</time>
      </trkpt>
      <trkpt lat="45.80096" lon="3.39101">
        <ele>328.2</ele>
        <time>2024-04-28T07:47:49Z</time>
      </trkpt>
      <trkpt lat="45.80088" lon="3.39102">
        <ele>328.2</ele>
        <time>2024-04-28T07:47:50Z</time>
      </trkpt>
      <trkpt lat="45.8008" lon="3.39104">
        <ele>328.2</ele>
        <time>2024-04-28T07:47:51Z</time>
      </trkpt>
      <trkpt lat="45.80072" lon="3.39107">
        <ele>328.2</ele>
        <time>2024-04-28T07:47:52Z</time>
      </trkpt>
      <trkpt lat="45.80064" lon="3.3911">
        <ele>328</ele>
        <time>2024-04-28T07:47:53Z</time>
      </trkpt>
      <trkpt lat="45.80056" lon="3.39113">
        <ele>328</ele>
        <time>2024-04-28T07:47:54Z</time>
      </trkpt>
      <trkpt lat="45.80049" lon="3.39116">
        <ele>328</ele>
        <time>2024-04-28T07:47:55Z</time>
      </trkpt>
      <trkpt lat="45.80041" lon="3.39119">
        <ele>328</ele>
        <time>2024-04-28T07:47:56Z</time>
      </trkpt>
      <trkpt lat="45.80033" lon="3.39122">
        <ele>327.8</ele>
        <time>2024-04-28T07:47:57Z</time>
      </trkpt>
      <trkpt lat="45.80025" lon="3.39124">
        <ele>327.8</ele>
        <time>2024-04-28T07:47:58Z</time>
      </trkpt>
      <trkpt lat="45.80017" lon="3.39127">
        <ele>327.8</ele>
        <time>2024-04-28T07:47:59Z</time>
      </trkpt>
      <trkpt lat="45.80009" lon="3.3913">
        <ele>327.8</ele>
        <time>2024-04-28T07:48:00Z</time>
      </trkpt>
      <trkpt lat="45.80002" lon="3.39133">
        <ele>327.8</ele>
        <time>2024-04-28T07:48:01Z</time>
      </trkpt>
      <trkpt lat="45.79994" lon="3.39136">
        <ele>327.6</ele>
        <time>2024-04-28T07:48:02Z</time>
      </trkpt>
      <trkpt lat="45.79986" lon="3.39139">
        <ele>327.6</ele>
        <time>2024-04-28T07:48:03Z</time>
      </trkpt>
      <trkpt lat="45.79978" lon="3.39142">
        <ele>327.6</ele>
        <time>2024-04-28T07:48:04Z</time>
      </trkpt>
      <trkpt lat="45.79971" lon="3.39144">
        <ele>327.6</ele>
        <time>2024-04-28T07:48:05Z</time>
      </trkpt>
      <trkpt lat="45.79963" lon="3.39147">
        <ele>327.4</ele>
        <time>2024-04-28T07:48:06Z</time>
      </trkpt>
      <trkpt lat="45.79955" lon="3.3915">
        <ele>327.4</ele>
        <time>2024-04-28T07:48:07Z</time>
      </trkpt>
      <trkpt lat="45.79948" lon="3.39152">
        <ele>327.4</ele>
        <time>2024-04-28T07:48:08Z</time>
      </trkpt>
      <trkpt lat="45.7994" lon="3.39153">
        <ele>327.4</ele>
        <time>2024-04-28T07:48:09Z</time>
      </trkpt>
      <trkpt lat="45.79933" lon="3.39154">
        <ele>327.2</ele>
        <time>2024-04-28T07:48:10Z</time>
      </trkpt>
      <trkpt lat="45.79925" lon="3.39155">
        <ele>327.2</ele>
        <time>2024-04-28T07:48:11Z</time>
      </trkpt>
      <trkpt lat="45.79918" lon="3.39156">
        <ele>327.4</ele>
        <time>2024-04-28T07:48:12Z</time>
      </trkpt>
      <trkpt lat="45.79902" lon="3.39158">
        <ele>327.2</ele>
        <time>2024-04-28T07:48:13Z</time>
      </trkpt>
      <trkpt lat="45.79902" lon="3.39158">
        <ele>327.2</ele>
        <time>2024-04-28T07:48:14Z</time>
      </trkpt>
      <trkpt lat="45.79894" lon="3.3916">
        <ele>327.2</ele>
        <time>2024-04-28T07:48:15Z</time>
      </trkpt>
      <trkpt lat="45.79887" lon="3.39161">
        <ele>327.2</ele>
        <time>2024-04-28T07:48:16Z</time>
      </trkpt>
      <trkpt lat="45.79879" lon="3.39163">
        <ele>327.2</ele>
        <time>2024-04-28T07:48:17Z</time>
      </trkpt>
      <trkpt lat="45.79871" lon="3.39164">
        <ele>327.2</ele>
        <time>2024-04-28T07:48:18Z</time>
      </trkpt>
      <trkpt lat="45.79863" lon="3.39166">
        <ele>327</ele>
        <time>2024-04-28T07:48:19Z</time>
      </trkpt>
      <trkpt lat="45.79855" lon="3.39167">
        <ele>327</ele>
        <time>2024-04-28T07:48:20Z</time>
      </trkpt>
      <trkpt lat="45.79847" lon="3.39169">
        <ele>327</ele>
        <time>2024-04-28T07:48:21Z</time>
      </trkpt>
      <trkpt lat="45.7984" lon="3.3917">
        <ele>327</ele>
        <time>2024-04-28T07:48:22Z</time>
      </trkpt>
      <trkpt lat="45.79832" lon="3.39172">
        <ele>327</ele>
        <time>2024-04-28T07:48:23Z</time>
      </trkpt>
      <trkpt lat="45.79825" lon="3.39173">
        <ele>326.8</ele>
        <time>2024-04-28T07:48:24Z</time>
      </trkpt>
      <trkpt lat="45.79817" lon="3.39175">
        <ele>326.8</ele>
        <time>2024-04-28T07:48:25Z</time>
      </trkpt>
      <trkpt lat="45.79809" lon="3.39176">
        <ele>326.8</ele>
        <time>2024-04-28T07:48:26Z</time>
      </trkpt>
      <trkpt lat="45.79802" lon="3.39178">
        <ele>326.6</ele>
        <time>2024-04-28T07:48:27Z</time>
      </trkpt>
      <trkpt lat="45.79794" lon="3.3918">
        <ele>326.6</ele>
        <time>2024-04-28T07:48:28Z</time>
      </trkpt>
      <trkpt lat="45.79786" lon="3.39181">
        <ele>326.6</ele>
        <time>2024-04-28T07:48:29Z</time>
      </trkpt>
      <trkpt lat="45.79778" lon="3.39183">
        <ele>326.6</ele>
        <time>2024-04-28T07:48:30Z</time>
      </trkpt>
      <trkpt lat="45.79771" lon="3.39185">
        <ele>326.6</ele>
        <time>2024-04-28T07:48:31Z</time>
      </trkpt>
      <trkpt lat="45.79763" lon="3.39186">
        <ele>326.6</ele>
        <time>2024-04-28T07:48:32Z</time>
      </trkpt>
      <trkpt lat="45.79755" lon="3.39188">
        <ele>326.6</ele>
        <time>2024-04-28T07:48:33Z</time>
      </trkpt>
      <trkpt lat="45.79747" lon="3.39189">
        <ele>326.6</ele>
        <time>2024-04-28T07:48:34Z</time>
      </trkpt>
      <trkpt lat="45.7974" lon="3.39191">
        <ele>326.6</ele>
        <time>2024-04-28T07:48:35Z</time>
      </trkpt>
      <trkpt lat="45.79732" lon="3.39193">
        <ele>326.6</ele>
        <time>2024-04-28T07:48:36Z</time>
      </trkpt>
      <trkpt lat="45.79724" lon="3.39194">
        <ele>326.6</ele>
        <time>2024-04-28T07:48:37Z</time>
      </trkpt>
      <trkpt lat="45.79716" lon="3.39196">
        <ele>326.6</ele>
        <time>2024-04-28T07:48:38Z</time>
      </trkpt>
      <trkpt lat="45.79709" lon="3.39197">
        <ele>326.6</ele>
        <time>2024-04-28T07:48:39Z</time>
      </trkpt>
      <trkpt lat="45.79702" lon="3.39199">
        <ele>326.6</ele>
        <time>2024-04-28T07:48:40Z</time>
      </trkpt>
      <trkpt lat="45.79695" lon="3.39203">
        <ele>326.4</ele>
        <time>2024-04-28T07:48:41Z</time>
      </trkpt>
      <trkpt lat="45.79688" lon="3.39207">
        <ele>326.4</ele>
        <time>2024-04-28T07:48:42Z</time>
      </trkpt>
      <trkpt lat="45.79682" lon="3.39211">
        <ele>326.6</ele>
        <time>2024-04-28T07:48:43Z</time>
      </trkpt>
      <trkpt lat="45.79675" lon="3.39215">
        <ele>326.6</ele>
        <time>2024-04-28T07:48:44Z</time>
      </trkpt>
      <trkpt lat="45.79668" lon="3.3922">
        <ele>326.6</ele>
        <time>2024-04-28T07:48:45Z</time>
      </trkpt>
      <trkpt lat="45.79661" lon="3.39224">
        <ele>326.6</ele>
        <time>2024-04-28T07:48:46Z</time>
      </trkpt>
      <trkpt lat="45.79655" lon="3.39228">
        <ele>326.6</ele>
        <time>2024-04-28T07:48:47Z</time>
      </trkpt>
      <trkpt lat="45.79648" lon="3.39232">
        <ele>326.6</ele>
        <time>2024-04-28T07:48:48Z</time>
      </trkpt>
      <trkpt lat="45.79641" lon="3.39236">
        <ele>326.6</ele>
        <time>2024-04-28T07:48:49Z</time>
      </trkpt>
      <trkpt lat="45.79635" lon="3.3924">
        <ele>326.6</ele>
        <time>2024-04-28T07:48:50Z</time>
      </trkpt>
      <trkpt lat="45.79628" lon="3.39244">
        <ele>326.6</ele>
        <time>2024-04-28T07:48:51Z</time>
      </trkpt>
      <trkpt lat="45.79622" lon="3.39248">
        <ele>326.4</ele>
        <time>2024-04-28T07:48:52Z</time>
      </trkpt>
      <trkpt lat="45.79615" lon="3.39252">
        <ele>326.4</ele>
        <time>2024-04-28T07:48:53Z</time>
      </trkpt>
      <trkpt lat="45.79609" lon="3.39256">
        <ele>326.4</ele>
        <time>2024-04-28T07:48:54Z</time>
      </trkpt>
      <trkpt lat="45.79602" lon="3.3926">
        <ele>326.4</ele>
        <time>2024-04-28T07:48:55Z</time>
      </trkpt>
      <trkpt lat="45.79595" lon="3.39263">
        <ele>326.4</ele>
        <time>2024-04-28T07:48:56Z</time>
      </trkpt>
      <trkpt lat="45.79588" lon="3.39266">
        <ele>326.2</ele>
        <time>2024-04-28T07:48:57Z</time>
      </trkpt>
      <trkpt lat="45.79582" lon="3.39269">
        <ele>326.2</ele>
        <time>2024-04-28T07:48:58Z</time>
      </trkpt>
      <trkpt lat="45.79576" lon="3.39273">
        <ele>326.2</ele>
        <time>2024-04-28T07:48:59Z</time>
      </trkpt>
      <trkpt lat="45.79569" lon="3.39275">
        <ele>326.2</ele>
        <time>2024-04-28T07:49:00Z</time>
      </trkpt>
      <trkpt lat="45.79562" lon="3.39278">
        <ele>326.2</ele>
        <time>2024-04-28T07:49:01Z</time>
      </trkpt>
      <trkpt lat="45.79555" lon="3.3928">
        <ele>326.2</ele>
        <time>2024-04-28T07:49:02Z</time>
      </trkpt>
      <trkpt lat="45.79548" lon="3.39283">
        <ele>326.2</ele>
        <time>2024-04-28T07:49:03Z</time>
      </trkpt>
      <trkpt lat="45.79541" lon="3.39285">
        <ele>326.2</ele>
        <time>2024-04-28T07:49:04Z</time>
      </trkpt>
      <trkpt lat="45.79534" lon="3.39288">
        <ele>326.2</ele>
        <time>2024-04-28T07:49:05Z</time>
      </trkpt>
      <trkpt lat="45.79527" lon="3.39291">
        <ele>326.2</ele>
        <time>2024-04-28T07:49:06Z</time>
      </trkpt>
      <trkpt lat="45.79521" lon="3.39293">
        <ele>326.2</ele>
        <time>2024-04-28T07:49:07Z</time>
      </trkpt>
      <trkpt lat="45.79514" lon="3.39296">
        <ele>326.2</ele>
        <time>2024-04-28T07:49:08Z</time>
      </trkpt>
      <trkpt lat="45.79507" lon="3.39298">
        <ele>326</ele>
        <time>2024-04-28T07:49:09Z</time>
      </trkpt>
      <trkpt lat="45.795" lon="3.39298">
        <ele>326</ele>
        <time>2024-04-28T07:49:10Z</time>
      </trkpt>
      <trkpt lat="45.79493" lon="3.39299">
        <ele>326</ele>
        <time>2024-04-28T07:49:11Z</time>
      </trkpt>
      <trkpt lat="45.79486" lon="3.393">
        <ele>326</ele>
        <time>2024-04-28T07:49:12Z</time>
      </trkpt>
      <trkpt lat="45.79479" lon="3.39301">
        <ele>325.8</ele>
        <time>2024-04-28T07:49:13Z</time>
      </trkpt>
      <trkpt lat="45.79472" lon="3.39302">
        <ele>325.8</ele>
        <time>2024-04-28T07:49:14Z</time>
      </trkpt>
      <trkpt lat="45.79466" lon="3.39302">
        <ele>325.8</ele>
        <time>2024-04-28T07:49:15Z</time>
      </trkpt>
      <trkpt lat="45.79459" lon="3.39303">
        <ele>325.8</ele>
        <time>2024-04-28T07:49:16Z</time>
      </trkpt>
      <trkpt lat="45.79452" lon="3.39304">
        <ele>325.8</ele>
        <time>2024-04-28T07:49:17Z</time>
      </trkpt>
      <trkpt lat="45.79445" lon="3.39305">
        <ele>325.8</ele>
        <time>2024-04-28T07:49:18Z</time>
      </trkpt>
      <trkpt lat="45.79438" lon="3.39306">
        <ele>325.8</ele>
        <time>2024-04-28T07:49:19Z</time>
      </trkpt>
      <trkpt lat="45.7943" lon="3.39305">
        <ele>325.8</ele>
        <time>2024-04-28T07:49:20Z</time>
      </trkpt>
      <trkpt lat="45.79423" lon="3.39305">
        <ele>325.8</ele>
        <time>2024-04-28T07:49:21Z</time>
      </trkpt>
      <trkpt lat="45.79416" lon="3.39304">
        <ele>325.6</ele>
        <time>2024-04-28T07:49:22Z</time>
      </trkpt>
      <trkpt lat="45.79408" lon="3.39304">
        <ele>325.6</ele>
        <time>2024-04-28T07:49:23Z</time>
      </trkpt>
      <trkpt lat="45.79401" lon="3.39303">
        <ele>325.6</ele>
        <time>2024-04-28T07:49:24Z</time>
      </trkpt>
      <trkpt lat="45.79393" lon="3.39302">
        <ele>325.6</ele>
        <time>2024-04-28T07:49:25Z</time>
      </trkpt>
      <trkpt lat="45.79385" lon="3.39302">
        <ele>325.6</ele>
        <time>2024-04-28T07:49:26Z</time>
      </trkpt>
      <trkpt lat="45.79378" lon="3.39301">
        <ele>325.6</ele>
        <time>2024-04-28T07:49:27Z</time>
      </trkpt>
      <trkpt lat="45.7937" lon="3.393">
        <ele>325.6</ele>
        <time>2024-04-28T07:49:28Z</time>
      </trkpt>
      <trkpt lat="45.79363" lon="3.393">
        <ele>325.6</ele>
        <time>2024-04-28T07:49:29Z</time>
      </trkpt>
      <trkpt lat="45.79355" lon="3.39299">
        <ele>325.6</ele>
        <time>2024-04-28T07:49:30Z</time>
      </trkpt>
      <trkpt lat="45.79348" lon="3.39298">
        <ele>325.6</ele>
        <time>2024-04-28T07:49:31Z</time>
      </trkpt>
      <trkpt lat="45.7934" lon="3.39298">
        <ele>325.6</ele>
        <time>2024-04-28T07:49:32Z</time>
      </trkpt>
      <trkpt lat="45.79333" lon="3.39297">
        <ele>325.6</ele>
        <time>2024-04-28T07:49:33Z</time>
      </trkpt>
      <trkpt lat="45.79325" lon="3.39297">
        <ele>325.6</ele>
        <time>2024-04-28T07:49:34Z</time>
      </trkpt>
      <trkpt lat="45.79318" lon="3.39296">
        <ele>325.4</ele>
        <time>2024-04-28T07:49:35Z</time>
      </trkpt>
      <trkpt lat="45.79311" lon="3.39295">
        <ele>325.4</ele>
        <time>2024-04-28T07:49:36Z</time>
      </trkpt>
      <trkpt lat="45.79304" lon="3.39295">
        <ele>325.4</ele>
        <time>2024-04-28T07:49:37Z</time>
      </trkpt>
      <trkpt lat="45.79296" lon="3.39293">
        <ele>325.4</ele>
        <time>2024-04-28T07:49:38Z</time>
      </trkpt>
      <trkpt lat="45.79289" lon="3.39292">
        <ele>325.4</ele>
        <time>2024-04-28T07:49:39Z</time>
      </trkpt>
      <trkpt lat="45.79282" lon="3.39291">
        <ele>325.4</ele>
        <time>2024-04-28T07:49:40Z</time>
      </trkpt>
      <trkpt lat="45.79274" lon="3.3929">
        <ele>325.4</ele>
        <time>2024-04-28T07:49:41Z</time>
      </trkpt>
      <trkpt lat="45.79267" lon="3.39288">
        <ele>325.4</ele>
        <time>2024-04-28T07:49:42Z</time>
      </trkpt>
      <trkpt lat="45.79259" lon="3.39287">
        <ele>325.4</ele>
        <time>2024-04-28T07:49:43Z</time>
      </trkpt>
      <trkpt lat="45.79251" lon="3.39286">
        <ele>325.4</ele>
        <time>2024-04-28T07:49:44Z</time>
      </trkpt>
      <trkpt lat="45.79244" lon="3.39285">
        <ele>325.4</ele>
        <time>2024-04-28T07:49:45Z</time>
      </trkpt>
      <trkpt lat="45.79236" lon="3.39283">
        <ele>325.4</ele>
        <time>2024-04-28T07:49:46Z</time>
      </trkpt>
      <trkpt lat="45.79229" lon="3.39282">
        <ele>325.4</ele>
        <time>2024-04-28T07:49:47Z</time>
      </trkpt>
      <trkpt lat="45.79221" lon="3.39281">
        <ele>325.4</ele>
        <time>2024-04-28T07:49:48Z</time>
      </trkpt>
      <trkpt lat="45.79214" lon="3.3928">
        <ele>325.4</ele>
        <time>2024-04-28T07:49:49Z</time>
      </trkpt>
      <trkpt lat="45.79206" lon="3.39279">
        <ele>325.4</ele>
        <time>2024-04-28T07:49:50Z</time>
      </trkpt>
      <trkpt lat="45.79199" lon="3.39277">
        <ele>325.2</ele>
        <time>2024-04-28T07:49:51Z</time>
      </trkpt>
      <trkpt lat="45.79191" lon="3.39276">
        <ele>325.2</ele>
        <time>2024-04-28T07:49:52Z</time>
      </trkpt>
      <trkpt lat="45.79184" lon="3.39275">
        <ele>325.2</ele>
        <time>2024-04-28T07:49:53Z</time>
      </trkpt>
      <trkpt lat="45.79176" lon="3.39274">
        <ele>325.2</ele>
        <time>2024-04-28T07:49:54Z</time>
      </trkpt>
      <trkpt lat="45.79168" lon="3.39274">
        <ele>325.2</ele>
        <time>2024-04-28T07:49:55Z</time>
      </trkpt>
      <trkpt lat="45.79161" lon="3.39275">
        <ele>325.2</ele>
        <time>2024-04-28T07:49:56Z</time>
      </trkpt>
      <trkpt lat="45.79153" lon="3.39275">
        <ele>325</ele>
        <time>2024-04-28T07:49:57Z</time>
      </trkpt>
      <trkpt lat="45.79145" lon="3.39275">
        <ele>325</ele>
        <time>2024-04-28T07:49:58Z</time>
      </trkpt>
      <trkpt lat="45.79137" lon="3.39276">
        <ele>325</ele>
        <time>2024-04-28T07:49:59Z</time>
      </trkpt>
      <trkpt lat="45.79129" lon="3.39276">
        <ele>325</ele>
        <time>2024-04-28T07:50:00Z</time>
      </trkpt>
      <trkpt lat="45.79122" lon="3.39277">
        <ele>324.8</ele>
        <time>2024-04-28T07:50:01Z</time>
      </trkpt>
      <trkpt lat="45.79114" lon="3.39277">
        <ele>325</ele>
        <time>2024-04-28T07:50:02Z</time>
      </trkpt>
      <trkpt lat="45.79106" lon="3.39277">
        <ele>324.8</ele>
        <time>2024-04-28T07:50:03Z</time>
      </trkpt>
      <trkpt lat="45.79098" lon="3.39278">
        <ele>325</ele>
        <time>2024-04-28T07:50:04Z</time>
      </trkpt>
      <trkpt lat="45.7909" lon="3.39279">
        <ele>324.8</ele>
        <time>2024-04-28T07:50:05Z</time>
      </trkpt>
      <trkpt lat="45.79082" lon="3.39281">
        <ele>324.8</ele>
        <time>2024-04-28T07:50:06Z</time>
      </trkpt>
      <trkpt lat="45.79074" lon="3.39282">
        <ele>324.8</ele>
        <time>2024-04-28T07:50:07Z</time>
      </trkpt>
      <trkpt lat="45.79067" lon="3.39284">
        <ele>324.6</ele>
        <time>2024-04-28T07:50:08Z</time>
      </trkpt>
      <trkpt lat="45.79059" lon="3.39285">
        <ele>324.6</ele>
        <time>2024-04-28T07:50:09Z</time>
      </trkpt>
      <trkpt lat="45.79051" lon="3.39287">
        <ele>324.6</ele>
        <time>2024-04-28T07:50:10Z</time>
      </trkpt>
      <trkpt lat="45.79044" lon="3.39289">
        <ele>324.6</ele>
        <time>2024-04-28T07:50:11Z</time>
      </trkpt>
      <trkpt lat="45.79036" lon="3.3929">
        <ele>324.6</ele>
        <time>2024-04-28T07:50:12Z</time>
      </trkpt>
      <trkpt lat="45.79029" lon="3.39292">
        <ele>324.6</ele>
        <time>2024-04-28T07:50:13Z</time>
      </trkpt>
      <trkpt lat="45.79021" lon="3.39293">
        <ele>324.6</ele>
        <time>2024-04-28T07:50:14Z</time>
      </trkpt>
      <trkpt lat="45.79014" lon="3.39295">
        <ele>324.6</ele>
        <time>2024-04-28T07:50:15Z</time>
      </trkpt>
      <trkpt lat="45.79006" lon="3.39296">
        <ele>324.6</ele>
        <time>2024-04-28T07:50:16Z</time>
      </trkpt>
      <trkpt lat="45.78999" lon="3.39298">
        <ele>324.6</ele>
        <time>2024-04-28T07:50:17Z</time>
      </trkpt>
      <trkpt lat="45.78991" lon="3.393">
        <ele>324.6</ele>
        <time>2024-04-28T07:50:18Z</time>
      </trkpt>
      <trkpt lat="45.78984" lon="3.39301">
        <ele>324.6</ele>
        <time>2024-04-28T07:50:19Z</time>
      </trkpt>
      <trkpt lat="45.78975" lon="3.39308">
        <ele>324.6</ele>
        <time>2024-04-28T07:50:20Z</time>
      </trkpt>
      <trkpt lat="45.78969" lon="3.39314">
        <ele>324.6</ele>
        <time>2024-04-28T07:50:21Z</time>
      </trkpt>
      <trkpt lat="45.78963" lon="3.39321">
        <ele>324.6</ele>
        <time>2024-04-28T07:50:22Z</time>
      </trkpt>
      <trkpt lat="45.78957" lon="3.39327">
        <ele>324.6</ele>
        <time>2024-04-28T07:50:23Z</time>
      </trkpt>
      <trkpt lat="45.7895" lon="3.39334">
        <ele>324.6</ele>
        <time>2024-04-28T07:50:24Z</time>
      </trkpt>
      <trkpt lat="45.78944" lon="3.39341">
        <ele>324.6</ele>
        <time>2024-04-28T07:50:25Z</time>
      </trkpt>
      <trkpt lat="45.78938" lon="3.39347">
        <ele>324.6</ele>
        <time>2024-04-28T07:50:26Z</time>
      </trkpt>
      <trkpt lat="45.78931" lon="3.39354">
        <ele>324.6</ele>
        <time>2024-04-28T07:50:27Z</time>
      </trkpt>
      <trkpt lat="45.78925" lon="3.3936">
        <ele>324.6</ele>
        <time>2024-04-28T07:50:28Z</time>
      </trkpt>
      <trkpt lat="45.7892" lon="3.39367">
        <ele>324.4</ele>
        <time>2024-04-28T07:50:29Z</time>
      </trkpt>
      <trkpt lat="45.78913" lon="3.39374">
        <ele>324.2</ele>
        <time>2024-04-28T07:50:30Z</time>
      </trkpt>
      <trkpt lat="45.78907" lon="3.39379">
        <ele>324.6</ele>
        <time>2024-04-28T07:50:31Z</time>
      </trkpt>
      <trkpt lat="45.78901" lon="3.39384">
        <ele>324.4</ele>
        <time>2024-04-28T07:50:32Z</time>
      </trkpt>
      <trkpt lat="45.78895" lon="3.39389">
        <ele>324.8</ele>
        <time>2024-04-28T07:50:33Z</time>
      </trkpt>
      <trkpt lat="45.78889" lon="3.39394">
        <ele>324.8</ele>
        <time>2024-04-28T07:50:34Z</time>
      </trkpt>
      <trkpt lat="45.78883" lon="3.39399">
        <ele>324.8</ele>
        <time>2024-04-28T07:50:35Z</time>
      </trkpt>
      <trkpt lat="45.78878" lon="3.39403">
        <ele>324.8</ele>
        <time>2024-04-28T07:50:36Z</time>
      </trkpt>
      <trkpt lat="45.7887" lon="3.39406">
        <ele>324.8</ele>
        <time>2024-04-28T07:50:37Z</time>
      </trkpt>
      <trkpt lat="45.78864" lon="3.39407">
        <ele>324.8</ele>
        <time>2024-04-28T07:50:38Z</time>
      </trkpt>
      <trkpt lat="45.78859" lon="3.39408">
        <ele>325</ele>
        <time>2024-04-28T07:50:39Z</time>
      </trkpt>
      <trkpt lat="45.78853" lon="3.3941">
        <ele>325</ele>
        <time>2024-04-28T07:50:40Z</time>
      </trkpt>
      <trkpt lat="45.78847" lon="3.39411">
        <ele>325</ele>
        <time>2024-04-28T07:50:41Z</time>
      </trkpt>
      <trkpt lat="45.78841" lon="3.39412">
        <ele>325.2</ele>
        <time>2024-04-28T07:50:42Z</time>
      </trkpt>
      <trkpt lat="45.78836" lon="3.39413">
        <ele>325.2</ele>
        <time>2024-04-28T07:50:43Z</time>
      </trkpt>
      <trkpt lat="45.78831" lon="3.39414">
        <ele>325.2</ele>
        <time>2024-04-28T07:50:44Z</time>
      </trkpt>
      <trkpt lat="45.78825" lon="3.39415">
        <ele>325.2</ele>
        <time>2024-04-28T07:50:45Z</time>
      </trkpt>
      <trkpt lat="45.7882" lon="3.39417">
        <ele>325.4</ele>
        <time>2024-04-28T07:50:46Z</time>
      </trkpt>
      <trkpt lat="45.78814" lon="3.39418">
        <ele>325.4</ele>
        <time>2024-04-28T07:50:47Z</time>
      </trkpt>
      <trkpt lat="45.78808" lon="3.39419">
        <ele>325.4</ele>
        <time>2024-04-28T07:50:48Z</time>
      </trkpt>
      <trkpt lat="45.78803" lon="3.3942">
        <ele>325.6</ele>
        <time>2024-04-28T07:50:49Z</time>
      </trkpt>
      <trkpt lat="45.78797" lon="3.39422">
        <ele>325.6</ele>
        <time>2024-04-28T07:50:50Z</time>
      </trkpt>
      <trkpt lat="45.78791" lon="3.39423">
        <ele>325.8</ele>
        <time>2024-04-28T07:50:51Z</time>
      </trkpt>
      <trkpt lat="45.78786" lon="3.39424">
        <ele>325.8</ele>
        <time>2024-04-28T07:50:52Z</time>
      </trkpt>
      <trkpt lat="45.78779" lon="3.39424">
        <ele>325.8</ele>
        <time>2024-04-28T07:50:53Z</time>
      </trkpt>
      <trkpt lat="45.78773" lon="3.39425">
        <ele>326</ele>
        <time>2024-04-28T07:50:54Z</time>
      </trkpt>
      <trkpt lat="45.78767" lon="3.39425">
        <ele>326</ele>
        <time>2024-04-28T07:50:55Z</time>
      </trkpt>
      <trkpt lat="45.78761" lon="3.39425">
        <ele>326</ele>
        <time>2024-04-28T07:50:56Z</time>
      </trkpt>
      <trkpt lat="45.78755" lon="3.39425">
        <ele>326</ele>
        <time>2024-04-28T07:50:57Z</time>
      </trkpt>
      <trkpt lat="45.78749" lon="3.39426">
        <ele>326</ele>
        <time>2024-04-28T07:50:58Z</time>
      </trkpt>
      <trkpt lat="45.78742" lon="3.39426">
        <ele>326.2</ele>
        <time>2024-04-28T07:50:59Z</time>
      </trkpt>
      <trkpt lat="45.78736" lon="3.39428">
        <ele>326.2</ele>
        <time>2024-04-28T07:51:00Z</time>
      </trkpt>
      <trkpt lat="45.7873" lon="3.3943">
        <ele>326.2</ele>
        <time>2024-04-28T07:51:01Z</time>
      </trkpt>
      <trkpt lat="45.78724" lon="3.39433">
        <ele>326.2</ele>
        <time>2024-04-28T07:51:02Z</time>
      </trkpt>
      <trkpt lat="45.78718" lon="3.39435">
        <ele>326.2</ele>
        <time>2024-04-28T07:51:03Z</time>
      </trkpt>
      <trkpt lat="45.78711" lon="3.39437">
        <ele>326.4</ele>
        <time>2024-04-28T07:51:04Z</time>
      </trkpt>
      <trkpt lat="45.78705" lon="3.39439">
        <ele>326.4</ele>
        <time>2024-04-28T07:51:05Z</time>
      </trkpt>
      <trkpt lat="45.78699" lon="3.39441">
        <ele>326.4</ele>
        <time>2024-04-28T07:51:06Z</time>
      </trkpt>
      <trkpt lat="45.78693" lon="3.39443">
        <ele>326.4</ele>
        <time>2024-04-28T07:51:07Z</time>
      </trkpt>
      <trkpt lat="45.78686" lon="3.39445">
        <ele>326.6</ele>
        <time>2024-04-28T07:51:08Z</time>
      </trkpt>
      <trkpt lat="45.7868" lon="3.39447">
        <ele>326.6</ele>
        <time>2024-04-28T07:51:09Z</time>
      </trkpt>
      <trkpt lat="45.78674" lon="3.39449">
        <ele>326.6</ele>
        <time>2024-04-28T07:51:10Z</time>
      </trkpt>
      <trkpt lat="45.78668" lon="3.39451">
        <ele>326.6</ele>
        <time>2024-04-28T07:51:11Z</time>
      </trkpt>
      <trkpt lat="45.78662" lon="3.39453">
        <ele>326.6</ele>
        <time>2024-04-28T07:51:12Z</time>
      </trkpt>
      <trkpt lat="45.78655" lon="3.39455">
        <ele>326.8</ele>
        <time>2024-04-28T07:51:13Z</time>
      </trkpt>
      <trkpt lat="45.78649" lon="3.39457">
        <ele>326.8</ele>
        <time>2024-04-28T07:51:14Z</time>
      </trkpt>
      <trkpt lat="45.78643" lon="3.3946">
        <ele>326.8</ele>
        <time>2024-04-28T07:51:15Z</time>
      </trkpt>
      <trkpt lat="45.78636" lon="3.39462">
        <ele>326.8</ele>
        <time>2024-04-28T07:51:16Z</time>
      </trkpt>
      <trkpt lat="45.7863" lon="3.39464">
        <ele>326.8</ele>
        <time>2024-04-28T07:51:17Z</time>
      </trkpt>
      <trkpt lat="45.78617" lon="3.39465">
        <ele>326.8</ele>
        <time>2024-04-28T07:51:18Z</time>
      </trkpt>
      <trkpt lat="45.78611" lon="3.39463">
        <ele>326.8</ele>
        <time>2024-04-28T07:51:19Z</time>
      </trkpt>
      <trkpt lat="45.78605" lon="3.3946">
        <ele>326.8</ele>
        <time>2024-04-28T07:51:20Z</time>
      </trkpt>
      <trkpt lat="45.78599" lon="3.39458">
        <ele>327</ele>
        <time>2024-04-28T07:51:21Z</time>
      </trkpt>
      <trkpt lat="45.78593" lon="3.39455">
        <ele>327</ele>
        <time>2024-04-28T07:51:22Z</time>
      </trkpt>
      <trkpt lat="45.78587" lon="3.39453">
        <ele>327</ele>
        <time>2024-04-28T07:51:23Z</time>
      </trkpt>
      <trkpt lat="45.78581" lon="3.39451">
        <ele>327</ele>
        <time>2024-04-28T07:51:24Z</time>
      </trkpt>
      <trkpt lat="45.78575" lon="3.39448">
        <ele>327</ele>
        <time>2024-04-28T07:51:25Z</time>
      </trkpt>
      <trkpt lat="45.78569" lon="3.39446">
        <ele>327</ele>
        <time>2024-04-28T07:51:26Z</time>
      </trkpt>
      <trkpt lat="45.78563" lon="3.39443">
        <ele>327</ele>
        <time>2024-04-28T07:51:27Z</time>
      </trkpt>
      <trkpt lat="45.78557" lon="3.39441">
        <ele>327.2</ele>
        <time>2024-04-28T07:51:28Z</time>
      </trkpt>
      <trkpt lat="45.78548" lon="3.39439">
        <ele>327.2</ele>
        <time>2024-04-28T07:51:29Z</time>
      </trkpt>
      <trkpt lat="45.78541" lon="3.3944">
        <ele>327.2</ele>
        <time>2024-04-28T07:51:30Z</time>
      </trkpt>
      <trkpt lat="45.78534" lon="3.39441">
        <ele>327.2</ele>
        <time>2024-04-28T07:51:31Z</time>
      </trkpt>
      <trkpt lat="45.78527" lon="3.39441">
        <ele>327.2</ele>
        <time>2024-04-28T07:51:32Z</time>
      </trkpt>
      <trkpt lat="45.7852" lon="3.39442">
        <ele>327.2</ele>
        <time>2024-04-28T07:51:33Z</time>
      </trkpt>
      <trkpt lat="45.78514" lon="3.39442">
        <ele>327.4</ele>
        <time>2024-04-28T07:51:34Z</time>
      </trkpt>
      <trkpt lat="45.78507" lon="3.39443">
        <ele>327.2</ele>
        <time>2024-04-28T07:51:35Z</time>
      </trkpt>
      <trkpt lat="45.785" lon="3.39444">
        <ele>327.2</ele>
        <time>2024-04-28T07:51:36Z</time>
      </trkpt>
      <trkpt lat="45.78494" lon="3.39444">
        <ele>327.2</ele>
        <time>2024-04-28T07:51:37Z</time>
      </trkpt>
      <trkpt lat="45.78487" lon="3.39445">
        <ele>327.4</ele>
        <time>2024-04-28T07:51:38Z</time>
      </trkpt>
      <trkpt lat="45.78481" lon="3.39445">
        <ele>327.2</ele>
        <time>2024-04-28T07:51:39Z</time>
      </trkpt>
      <trkpt lat="45.78474" lon="3.39444">
        <ele>327.2</ele>
        <time>2024-04-28T07:51:40Z</time>
      </trkpt>
      <trkpt lat="45.78468" lon="3.39443">
        <ele>327.2</ele>
        <time>2024-04-28T07:51:41Z</time>
      </trkpt>
      <trkpt lat="45.78461" lon="3.39442">
        <ele>327.2</ele>
        <time>2024-04-28T07:51:42Z</time>
      </trkpt>
      <trkpt lat="45.78455" lon="3.39441">
        <ele>327.4</ele>
        <time>2024-04-28T07:51:43Z</time>
      </trkpt>
      <trkpt lat="45.78448" lon="3.3944">
        <ele>327.4</ele>
        <time>2024-04-28T07:51:44Z</time>
      </trkpt>
      <trkpt lat="45.78442" lon="3.39439">
        <ele>327.4</ele>
        <time>2024-04-28T07:51:45Z</time>
      </trkpt>
      <trkpt lat="45.78433" lon="3.39441">
        <ele>327.4</ele>
        <time>2024-04-28T07:51:46Z</time>
      </trkpt>
      <trkpt lat="45.78427" lon="3.39444">
        <ele>327.4</ele>
        <time>2024-04-28T07:51:47Z</time>
      </trkpt>
      <trkpt lat="45.78421" lon="3.39447">
        <ele>327.4</ele>
        <time>2024-04-28T07:51:48Z</time>
      </trkpt>
      <trkpt lat="45.78415" lon="3.39449">
        <ele>327.6</ele>
        <time>2024-04-28T07:51:49Z</time>
      </trkpt>
      <trkpt lat="45.78409" lon="3.39452">
        <ele>327.6</ele>
        <time>2024-04-28T07:51:50Z</time>
      </trkpt>
      <trkpt lat="45.78403" lon="3.39455">
        <ele>327.6</ele>
        <time>2024-04-28T07:51:51Z</time>
      </trkpt>
      <trkpt lat="45.78397" lon="3.39458">
        <ele>327.6</ele>
        <time>2024-04-28T07:51:52Z</time>
      </trkpt>
      <trkpt lat="45.78391" lon="3.3946">
        <ele>327.6</ele>
        <time>2024-04-28T07:51:53Z</time>
      </trkpt>
      <trkpt lat="45.78385" lon="3.39463">
        <ele>327.6</ele>
        <time>2024-04-28T07:51:54Z</time>
      </trkpt>
      <trkpt lat="45.78376" lon="3.39467">
        <ele>327.6</ele>
        <time>2024-04-28T07:51:55Z</time>
      </trkpt>
      <trkpt lat="45.7837" lon="3.39466">
        <ele>327.8</ele>
        <time>2024-04-28T07:51:56Z</time>
      </trkpt>
      <trkpt lat="45.78364" lon="3.39466">
        <ele>327.8</ele>
        <time>2024-04-28T07:51:57Z</time>
      </trkpt>
      <trkpt lat="45.78357" lon="3.39465">
        <ele>327.8</ele>
        <time>2024-04-28T07:51:58Z</time>
      </trkpt>
      <trkpt lat="45.7835" lon="3.39465">
        <ele>327.8</ele>
        <time>2024-04-28T07:51:59Z</time>
      </trkpt>
      <trkpt lat="45.78344" lon="3.39464">
        <ele>328</ele>
        <time>2024-04-28T07:52:00Z</time>
      </trkpt>
      <trkpt lat="45.78337" lon="3.39464">
        <ele>328</ele>
        <time>2024-04-28T07:52:01Z</time>
      </trkpt>
      <trkpt lat="45.78331" lon="3.39463">
        <ele>328</ele>
        <time>2024-04-28T07:52:02Z</time>
      </trkpt>
      <trkpt lat="45.78325" lon="3.39463">
        <ele>328</ele>
        <time>2024-04-28T07:52:03Z</time>
      </trkpt>
      <trkpt lat="45.78318" lon="3.39462">
        <ele>328</ele>
        <time>2024-04-28T07:52:04Z</time>
      </trkpt>
      <trkpt lat="45.78312" lon="3.39462">
        <ele>328</ele>
        <time>2024-04-28T07:52:05Z</time>
      </trkpt>
      <trkpt lat="45.78305" lon="3.39461">
        <ele>328</ele>
        <time>2024-04-28T07:52:06Z</time>
      </trkpt>
      <trkpt lat="45.78298" lon="3.39461">
        <ele>328.2</ele>
        <time>2024-04-28T07:52:07Z</time>
      </trkpt>
      <trkpt lat="45.78292" lon="3.3946">
        <ele>328.2</ele>
        <time>2024-04-28T07:52:08Z</time>
      </trkpt>
      <trkpt lat="45.78285" lon="3.3946">
        <ele>328.2</ele>
        <time>2024-04-28T07:52:09Z</time>
      </trkpt>
      <trkpt lat="45.78279" lon="3.39459">
        <ele>328.2</ele>
        <time>2024-04-28T07:52:10Z</time>
      </trkpt>
      <trkpt lat="45.78273" lon="3.39459">
        <ele>328.4</ele>
        <time>2024-04-28T07:52:11Z</time>
      </trkpt>
      <trkpt lat="45.78265" lon="3.39459">
        <ele>328.4</ele>
        <time>2024-04-28T07:52:12Z</time>
      </trkpt>
      <trkpt lat="45.78259" lon="3.39462">
        <ele>328.4</ele>
        <time>2024-04-28T07:52:13Z</time>
      </trkpt>
      <trkpt lat="45.78253" lon="3.39464">
        <ele>328.4</ele>
        <time>2024-04-28T07:52:14Z</time>
      </trkpt>
      <trkpt lat="45.78247" lon="3.39467">
        <ele>328.4</ele>
        <time>2024-04-28T07:52:15Z</time>
      </trkpt>
      <trkpt lat="45.78241" lon="3.39469">
        <ele>328.6</ele>
        <time>2024-04-28T07:52:16Z</time>
      </trkpt>
      <trkpt lat="45.78235" lon="3.39472">
        <ele>328.6</ele>
        <time>2024-04-28T07:52:17Z</time>
      </trkpt>
      <trkpt lat="45.78229" lon="3.39475">
        <ele>328.8</ele>
        <time>2024-04-28T07:52:18Z</time>
      </trkpt>
      <trkpt lat="45.78223" lon="3.39477">
        <ele>328.8</ele>
        <time>2024-04-28T07:52:19Z</time>
      </trkpt>
      <trkpt lat="45.78217" lon="3.3948">
        <ele>328.8</ele>
        <time>2024-04-28T07:52:20Z</time>
      </trkpt>
      <trkpt lat="45.78211" lon="3.39482">
        <ele>328.8</ele>
        <time>2024-04-28T07:52:21Z</time>
      </trkpt>
      <trkpt lat="45.78205" lon="3.39485">
        <ele>328.8</ele>
        <time>2024-04-28T07:52:22Z</time>
      </trkpt>
      <trkpt lat="45.78199" lon="3.39487">
        <ele>328.8</ele>
        <time>2024-04-28T07:52:23Z</time>
      </trkpt>
      <trkpt lat="45.78193" lon="3.3949">
        <ele>329</ele>
        <time>2024-04-28T07:52:24Z</time>
      </trkpt>
      <trkpt lat="45.78186" lon="3.39491">
        <ele>329</ele>
        <time>2024-04-28T07:52:25Z</time>
      </trkpt>
      <trkpt lat="45.7818" lon="3.39491">
        <ele>329</ele>
        <time>2024-04-28T07:52:26Z</time>
      </trkpt>
      <trkpt lat="45.78173" lon="3.39492">
        <ele>329</ele>
        <time>2024-04-28T07:52:27Z</time>
      </trkpt>
      <trkpt lat="45.78167" lon="3.39492">
        <ele>329.2</ele>
        <time>2024-04-28T07:52:28Z</time>
      </trkpt>
      <trkpt lat="45.7816" lon="3.39492">
        <ele>329.2</ele>
        <time>2024-04-28T07:52:29Z</time>
      </trkpt>
      <trkpt lat="45.78153" lon="3.39493">
        <ele>329.2</ele>
        <time>2024-04-28T07:52:30Z</time>
      </trkpt>
      <trkpt lat="45.78147" lon="3.39493">
        <ele>329.2</ele>
        <time>2024-04-28T07:52:31Z</time>
      </trkpt>
      <trkpt lat="45.78141" lon="3.39493">
        <ele>329.4</ele>
        <time>2024-04-28T07:52:32Z</time>
      </trkpt>
      <trkpt lat="45.78134" lon="3.39494">
        <ele>329.4</ele>
        <time>2024-04-28T07:52:33Z</time>
      </trkpt>
      <trkpt lat="45.78128" lon="3.39494">
        <ele>329.6</ele>
        <time>2024-04-28T07:52:34Z</time>
      </trkpt>
      <trkpt lat="45.78122" lon="3.39495">
        <ele>329.6</ele>
        <time>2024-04-28T07:52:35Z</time>
      </trkpt>
      <trkpt lat="45.78115" lon="3.39496">
        <ele>329.6</ele>
        <time>2024-04-28T07:52:36Z</time>
      </trkpt>
      <trkpt lat="45.78108" lon="3.39499">
        <ele>329.6</ele>
        <time>2024-04-28T07:52:37Z</time>
      </trkpt>
      <trkpt lat="45.78101" lon="3.39501">
        <ele>329.6</ele>
        <time>2024-04-28T07:52:38Z</time>
      </trkpt>
      <trkpt lat="45.78095" lon="3.39503">
        <ele>329.8</ele>
        <time>2024-04-28T07:52:39Z</time>
      </trkpt>
      <trkpt lat="45.78088" lon="3.39506">
        <ele>329.8</ele>
        <time>2024-04-28T07:52:40Z</time>
      </trkpt>
      <trkpt lat="45.78081" lon="3.39508">
        <ele>329.8</ele>
        <time>2024-04-28T07:52:41Z</time>
      </trkpt>
      <trkpt lat="45.78074" lon="3.39511">
        <ele>330</ele>
        <time>2024-04-28T07:52:42Z</time>
      </trkpt>
      <trkpt lat="45.78068" lon="3.39513">
        <ele>330</ele>
        <time>2024-04-28T07:52:43Z</time>
      </trkpt>
      <trkpt lat="45.78062" lon="3.39515">
        <ele>330.2</ele>
        <time>2024-04-28T07:52:44Z</time>
      </trkpt>
      <trkpt lat="45.78056" lon="3.39517">
        <ele>330.2</ele>
        <time>2024-04-28T07:52:45Z</time>
      </trkpt>
      <trkpt lat="45.7805" lon="3.39518">
        <ele>330.4</ele>
        <time>2024-04-28T07:52:46Z</time>
      </trkpt>
      <trkpt lat="45.78044" lon="3.3952">
        <ele>330.4</ele>
        <time>2024-04-28T07:52:47Z</time>
      </trkpt>
      <trkpt lat="45.78039" lon="3.39521">
        <ele>330.4</ele>
        <time>2024-04-28T07:52:48Z</time>
      </trkpt>
      <trkpt lat="45.78034" lon="3.39522">
        <ele>330.4</ele>
        <time>2024-04-28T07:52:49Z</time>
      </trkpt>
      <trkpt lat="45.78029" lon="3.39524">
        <ele>330.6</ele>
        <time>2024-04-28T07:52:50Z</time>
      </trkpt>
      <trkpt lat="45.78023" lon="3.39525">
        <ele>330.6</ele>
        <time>2024-04-28T07:52:51Z</time>
      </trkpt>
      <trkpt lat="45.78017" lon="3.39526">
        <ele>330.6</ele>
        <time>2024-04-28T07:52:52Z</time>
      </trkpt>
      <trkpt lat="45.78012" lon="3.39528">
        <ele>330.8</ele>
        <time>2024-04-28T07:52:53Z</time>
      </trkpt>
      <trkpt lat="45.78007" lon="3.39529">
        <ele>330.8</ele>
        <time>2024-04-28T07:52:54Z</time>
      </trkpt>
      <trkpt lat="45.78003" lon="3.3953">
        <ele>330.8</ele>
        <time>2024-04-28T07:52:55Z</time>
      </trkpt>
      <trkpt lat="45.78" lon="3.39531">
        <ele>330.8</ele>
        <time>2024-04-28T07:52:56Z</time>
      </trkpt>
      <trkpt lat="45.77995" lon="3.39532">
        <ele>331</ele>
        <time>2024-04-28T07:52:57Z</time>
      </trkpt>
      <trkpt lat="45.77989" lon="3.39534">
        <ele>331</ele>
        <time>2024-04-28T07:52:58Z</time>
      </trkpt>
      <trkpt lat="45.77983" lon="3.39535">
        <ele>331</ele>
        <time>2024-04-28T07:52:59Z</time>
      </trkpt>
      <trkpt lat="45.77976" lon="3.39537">
        <ele>331.2</ele>
        <time>2024-04-28T07:53:00Z</time>
      </trkpt>
      <trkpt lat="45.77968" lon="3.39541">
        <ele>331.2</ele>
        <time>2024-04-28T07:53:01Z</time>
      </trkpt>
      <trkpt lat="45.77963" lon="3.39545">
        <ele>331.4</ele>
        <time>2024-04-28T07:53:02Z</time>
      </trkpt>
      <trkpt lat="45.77957" lon="3.39549">
        <ele>331.4</ele>
        <time>2024-04-28T07:53:03Z</time>
      </trkpt>
      <trkpt lat="45.77951" lon="3.39552">
        <ele>331.6</ele>
        <time>2024-04-28T07:53:04Z</time>
      </trkpt>
      <trkpt lat="45.77946" lon="3.39556">
        <ele>331.6</ele>
        <time>2024-04-28T07:53:05Z</time>
      </trkpt>
      <trkpt lat="45.77941" lon="3.39559">
        <ele>331.6</ele>
        <time>2024-04-28T07:53:06Z</time>
      </trkpt>
      <trkpt lat="45.77936" lon="3.39563">
        <ele>331.6</ele>
        <time>2024-04-28T07:53:07Z</time>
      </trkpt>
      <trkpt lat="45.77932" lon="3.39566">
        <ele>331.6</ele>
        <time>2024-04-28T07:53:08Z</time>
      </trkpt>
      <trkpt lat="45.77926" lon="3.3957">
        <ele>331.8</ele>
        <time>2024-04-28T07:53:09Z</time>
      </trkpt>
      <trkpt lat="45.77922" lon="3.39571">
        <ele>332</ele>
        <time>2024-04-28T07:53:10Z</time>
      </trkpt>
      <trkpt lat="45.77917" lon="3.39572">
        <ele>332</ele>
        <time>2024-04-28T07:53:11Z</time>
      </trkpt>
      <trkpt lat="45.77912" lon="3.39574">
        <ele>332</ele>
        <time>2024-04-28T07:53:12Z</time>
      </trkpt>
      <trkpt lat="45.77908" lon="3.39576">
        <ele>332</ele>
        <time>2024-04-28T07:53:13Z</time>
      </trkpt>
      <trkpt lat="45.77902" lon="3.39579">
        <ele>332</ele>
        <time>2024-04-28T07:53:14Z</time>
      </trkpt>
      <trkpt lat="45.77896" lon="3.39581">
        <ele>332</ele>
        <time>2024-04-28T07:53:15Z</time>
      </trkpt>
      <trkpt lat="45.77891" lon="3.39582">
        <ele>332</ele>
        <time>2024-04-28T07:53:16Z</time>
      </trkpt>
      <trkpt lat="45.77886" lon="3.39584">
        <ele>332</ele>
        <time>2024-04-28T07:53:17Z</time>
      </trkpt>
      <trkpt lat="45.77881" lon="3.39586">
        <ele>332</ele>
        <time>2024-04-28T07:53:18Z</time>
      </trkpt>
      <trkpt lat="45.77876" lon="3.39587">
        <ele>332</ele>
        <time>2024-04-28T07:53:19Z</time>
      </trkpt>
      <trkpt lat="45.77869" lon="3.39589">
        <ele>332</ele>
        <time>2024-04-28T07:53:20Z</time>
      </trkpt>
      <trkpt lat="45.77863" lon="3.39588">
        <ele>332</ele>
        <time>2024-04-28T07:53:21Z</time>
      </trkpt>
      <trkpt lat="45.77857" lon="3.39588">
        <ele>332.2</ele>
        <time>2024-04-28T07:53:22Z</time>
      </trkpt>
      <trkpt lat="45.77851" lon="3.39587">
        <ele>332.2</ele>
        <time>2024-04-28T07:53:23Z</time>
      </trkpt>
      <trkpt lat="45.77843" lon="3.39589">
        <ele>332.2</ele>
        <time>2024-04-28T07:53:24Z</time>
      </trkpt>
      <trkpt lat="45.77838" lon="3.39592">
        <ele>332.2</ele>
        <time>2024-04-28T07:53:25Z</time>
      </trkpt>
      <trkpt lat="45.77831" lon="3.39596">
        <ele>332.2</ele>
        <time>2024-04-28T07:53:26Z</time>
      </trkpt>
      <trkpt lat="45.77824" lon="3.39599">
        <ele>332</ele>
        <time>2024-04-28T07:53:27Z</time>
      </trkpt>
      <trkpt lat="45.77818" lon="3.39602">
        <ele>332</ele>
        <time>2024-04-28T07:53:28Z</time>
      </trkpt>
      <trkpt lat="45.77811" lon="3.39604">
        <ele>332</ele>
        <time>2024-04-28T07:53:29Z</time>
      </trkpt>
      <trkpt lat="45.77803" lon="3.39606">
        <ele>332</ele>
        <time>2024-04-28T07:53:30Z</time>
      </trkpt>
      <trkpt lat="45.77796" lon="3.39609">
        <ele>332</ele>
        <time>2024-04-28T07:53:31Z</time>
      </trkpt>
      <trkpt lat="45.77789" lon="3.39613">
        <ele>332</ele>
        <time>2024-04-28T07:53:32Z</time>
      </trkpt>
      <trkpt lat="45.7778" lon="3.39611">
        <ele>332</ele>
        <time>2024-04-28T07:53:33Z</time>
      </trkpt>
      <trkpt lat="45.77772" lon="3.39612">
        <ele>332</ele>
        <time>2024-04-28T07:53:34Z</time>
      </trkpt>
      <trkpt lat="45.77765" lon="3.39613">
        <ele>332</ele>
        <time>2024-04-28T07:53:35Z</time>
      </trkpt>
      <trkpt lat="45.77758" lon="3.39616">
        <ele>332.2</ele>
        <time>2024-04-28T07:53:36Z</time>
      </trkpt>
      <trkpt lat="45.77752" lon="3.39619">
        <ele>332.2</ele>
        <time>2024-04-28T07:53:37Z</time>
      </trkpt>
      <trkpt lat="45.77746" lon="3.39622">
        <ele>332.2</ele>
        <time>2024-04-28T07:53:38Z</time>
      </trkpt>
      <trkpt lat="45.7774" lon="3.39625">
        <ele>332.4</ele>
        <time>2024-04-28T07:53:39Z</time>
      </trkpt>
      <trkpt lat="45.77734" lon="3.39629">
        <ele>332.4</ele>
        <time>2024-04-28T07:53:40Z</time>
      </trkpt>
      <trkpt lat="45.77728" lon="3.39632">
        <ele>332.4</ele>
        <time>2024-04-28T07:53:41Z</time>
      </trkpt>
      <trkpt lat="45.77722" lon="3.39635">
        <ele>332.4</ele>
        <time>2024-04-28T07:53:42Z</time>
      </trkpt>
      <trkpt lat="45.77716" lon="3.39638">
        <ele>332.4</ele>
        <time>2024-04-28T07:53:43Z</time>
      </trkpt>
      <trkpt lat="45.77711" lon="3.39641">
        <ele>332.4</ele>
        <time>2024-04-28T07:53:44Z</time>
      </trkpt>
      <trkpt lat="45.77705" lon="3.39644">
        <ele>332.4</ele>
        <time>2024-04-28T07:53:45Z</time>
      </trkpt>
      <trkpt lat="45.777" lon="3.39646">
        <ele>332.4</ele>
        <time>2024-04-28T07:53:46Z</time>
      </trkpt>
      <trkpt lat="45.77695" lon="3.39649">
        <ele>332.4</ele>
        <time>2024-04-28T07:53:47Z</time>
      </trkpt>
      <trkpt lat="45.77689" lon="3.39652">
        <ele>332.4</ele>
        <time>2024-04-28T07:53:48Z</time>
      </trkpt>
      <trkpt lat="45.77683" lon="3.39656">
        <ele>332.4</ele>
        <time>2024-04-28T07:53:49Z</time>
      </trkpt>
      <trkpt lat="45.77676" lon="3.39659">
        <ele>332.6</ele>
        <time>2024-04-28T07:53:50Z</time>
      </trkpt>
      <trkpt lat="45.77669" lon="3.39663">
        <ele>332.6</ele>
        <time>2024-04-28T07:53:51Z</time>
      </trkpt>
      <trkpt lat="45.77663" lon="3.39667">
        <ele>332.6</ele>
        <time>2024-04-28T07:53:52Z</time>
      </trkpt>
      <trkpt lat="45.77656" lon="3.39671">
        <ele>332.8</ele>
        <time>2024-04-28T07:53:53Z</time>
      </trkpt>
      <trkpt lat="45.77648" lon="3.39675">
        <ele>332.8</ele>
        <time>2024-04-28T07:53:54Z</time>
      </trkpt>
      <trkpt lat="45.7764" lon="3.3968">
        <ele>332.8</ele>
        <time>2024-04-28T07:53:55Z</time>
      </trkpt>
      <trkpt lat="45.77633" lon="3.39684">
        <ele>332.8</ele>
        <time>2024-04-28T07:53:56Z</time>
      </trkpt>
      <trkpt lat="45.77626" lon="3.39688">
        <ele>332.8</ele>
        <time>2024-04-28T07:53:57Z</time>
      </trkpt>
      <trkpt lat="45.77619" lon="3.39692">
        <ele>332.8</ele>
        <time>2024-04-28T07:53:58Z</time>
      </trkpt>
      <trkpt lat="45.77612" lon="3.39695">
        <ele>333</ele>
        <time>2024-04-28T07:53:59Z</time>
      </trkpt>
      <trkpt lat="45.77605" lon="3.39699">
        <ele>333</ele>
        <time>2024-04-28T07:54:00Z</time>
      </trkpt>
      <trkpt lat="45.77598" lon="3.39703">
        <ele>333</ele>
        <time>2024-04-28T07:54:01Z</time>
      </trkpt>
      <trkpt lat="45.77591" lon="3.39707">
        <ele>333</ele>
        <time>2024-04-28T07:54:02Z</time>
      </trkpt>
      <trkpt lat="45.77584" lon="3.39711">
        <ele>333.2</ele>
        <time>2024-04-28T07:54:03Z</time>
      </trkpt>
      <trkpt lat="45.77577" lon="3.39715">
        <ele>333</ele>
        <time>2024-04-28T07:54:04Z</time>
      </trkpt>
      <trkpt lat="45.7757" lon="3.39719">
        <ele>333.2</ele>
        <time>2024-04-28T07:54:05Z</time>
      </trkpt>
      <trkpt lat="45.77563" lon="3.39723">
        <ele>333.2</ele>
        <time>2024-04-28T07:54:06Z</time>
      </trkpt>
      <trkpt lat="45.77556" lon="3.39727">
        <ele>333.2</ele>
        <time>2024-04-28T07:54:07Z</time>
      </trkpt>
      <trkpt lat="45.77549" lon="3.39728">
        <ele>333.2</ele>
        <time>2024-04-28T07:54:08Z</time>
      </trkpt>
      <trkpt lat="45.77542" lon="3.3973">
        <ele>333.2</ele>
        <time>2024-04-28T07:54:09Z</time>
      </trkpt>
      <trkpt lat="45.77535" lon="3.39732">
        <ele>333.2</ele>
        <time>2024-04-28T07:54:10Z</time>
      </trkpt>
      <trkpt lat="45.77528" lon="3.39733">
        <ele>333.2</ele>
        <time>2024-04-28T07:54:11Z</time>
      </trkpt>
      <trkpt lat="45.77521" lon="3.39735">
        <ele>333.2</ele>
        <time>2024-04-28T07:54:12Z</time>
      </trkpt>
      <trkpt lat="45.77514" lon="3.39737">
        <ele>333.2</ele>
        <time>2024-04-28T07:54:13Z</time>
      </trkpt>
      <trkpt lat="45.77507" lon="3.39738">
        <ele>333.2</ele>
        <time>2024-04-28T07:54:14Z</time>
      </trkpt>
      <trkpt lat="45.775" lon="3.3974">
        <ele>333.2</ele>
        <time>2024-04-28T07:54:15Z</time>
      </trkpt>
      <trkpt lat="45.77493" lon="3.39742">
        <ele>333.2</ele>
        <time>2024-04-28T07:54:16Z</time>
      </trkpt>
      <trkpt lat="45.77487" lon="3.39743">
        <ele>333.2</ele>
        <time>2024-04-28T07:54:17Z</time>
      </trkpt>
      <trkpt lat="45.7748" lon="3.39739">
        <ele>333.2</ele>
        <time>2024-04-28T07:54:18Z</time>
      </trkpt>
      <trkpt lat="45.77474" lon="3.39735">
        <ele>333.2</ele>
        <time>2024-04-28T07:54:19Z</time>
      </trkpt>
      <trkpt lat="45.77469" lon="3.39735">
        <ele>333.2</ele>
        <time>2024-04-28T07:54:20Z</time>
      </trkpt>
      <trkpt lat="45.77465" lon="3.39735">
        <ele>333.2</ele>
        <time>2024-04-28T07:54:21Z</time>
      </trkpt>
      <trkpt lat="45.7746" lon="3.39735">
        <ele>333.2</ele>
        <time>2024-04-28T07:54:22Z</time>
      </trkpt>
      <trkpt lat="45.77455" lon="3.39745">
        <ele>333.2</ele>
        <time>2024-04-28T07:54:23Z</time>
      </trkpt>
      <trkpt lat="45.77451" lon="3.39752">
        <ele>333.2</ele>
        <time>2024-04-28T07:54:24Z</time>
      </trkpt>
      <trkpt lat="45.77448" lon="3.3976">
        <ele>333.2</ele>
        <time>2024-04-28T07:54:25Z</time>
      </trkpt>
      <trkpt lat="45.77444" lon="3.39768">
        <ele>333.2</ele>
        <time>2024-04-28T07:54:26Z</time>
      </trkpt>
      <trkpt lat="45.77439" lon="3.39775">
        <ele>333.2</ele>
        <time>2024-04-28T07:54:27Z</time>
      </trkpt>
      <trkpt lat="45.77433" lon="3.3978">
        <ele>333.2</ele>
        <time>2024-04-28T07:54:28Z</time>
      </trkpt>
      <trkpt lat="45.77427" lon="3.39786">
        <ele>333.2</ele>
        <time>2024-04-28T07:54:29Z</time>
      </trkpt>
      <trkpt lat="45.77421" lon="3.39791">
        <ele>333.2</ele>
        <time>2024-04-28T07:54:30Z</time>
      </trkpt>
      <trkpt lat="45.77415" lon="3.39796">
        <ele>333.2</ele>
        <time>2024-04-28T07:54:31Z</time>
      </trkpt>
      <trkpt lat="45.7741" lon="3.39801">
        <ele>333.4</ele>
        <time>2024-04-28T07:54:32Z</time>
      </trkpt>
      <trkpt lat="45.77404" lon="3.39806">
        <ele>333.2</ele>
        <time>2024-04-28T07:54:33Z</time>
      </trkpt>
      <trkpt lat="45.77398" lon="3.39811">
        <ele>333.2</ele>
        <time>2024-04-28T07:54:34Z</time>
      </trkpt>
      <trkpt lat="45.77392" lon="3.39817">
        <ele>333.2</ele>
        <time>2024-04-28T07:54:35Z</time>
      </trkpt>
      <trkpt lat="45.77385" lon="3.39824">
        <ele>333.2</ele>
        <time>2024-04-28T07:54:36Z</time>
      </trkpt>
      <trkpt lat="45.77381" lon="3.3983">
        <ele>333.4</ele>
        <time>2024-04-28T07:54:37Z</time>
      </trkpt>
      <trkpt lat="45.77376" lon="3.39837">
        <ele>333.4</ele>
        <time>2024-04-28T07:54:38Z</time>
      </trkpt>
      <trkpt lat="45.77371" lon="3.39844">
        <ele>333.4</ele>
        <time>2024-04-28T07:54:39Z</time>
      </trkpt>
      <trkpt lat="45.77366" lon="3.39851">
        <ele>333.4</ele>
        <time>2024-04-28T07:54:40Z</time>
      </trkpt>
      <trkpt lat="45.77361" lon="3.39858">
        <ele>333.4</ele>
        <time>2024-04-28T07:54:41Z</time>
      </trkpt>
      <trkpt lat="45.77356" lon="3.39865">
        <ele>333.4</ele>
        <time>2024-04-28T07:54:42Z</time>
      </trkpt>
      <trkpt lat="45.77352" lon="3.39872">
        <ele>333.6</ele>
        <time>2024-04-28T07:54:43Z</time>
      </trkpt>
      <trkpt lat="45.77347" lon="3.39879">
        <ele>333.6</ele>
        <time>2024-04-28T07:54:44Z</time>
      </trkpt>
      <trkpt lat="45.77343" lon="3.39886">
        <ele>333.6</ele>
        <time>2024-04-28T07:54:45Z</time>
      </trkpt>
      <trkpt lat="45.77339" lon="3.39894">
        <ele>333.6</ele>
        <time>2024-04-28T07:54:46Z</time>
      </trkpt>
      <trkpt lat="45.77335" lon="3.39902">
        <ele>333.6</ele>
        <time>2024-04-28T07:54:47Z</time>
      </trkpt>
      <trkpt lat="45.77332" lon="3.39909">
        <ele>333.6</ele>
        <time>2024-04-28T07:54:48Z</time>
      </trkpt>
      <trkpt lat="45.77329" lon="3.39917">
        <ele>333.6</ele>
        <time>2024-04-28T07:54:49Z</time>
      </trkpt>
      <trkpt lat="45.77325" lon="3.39925">
        <ele>333.6</ele>
        <time>2024-04-28T07:54:50Z</time>
      </trkpt>
      <trkpt lat="45.77321" lon="3.39933">
        <ele>333.8</ele>
        <time>2024-04-28T07:54:51Z</time>
      </trkpt>
      <trkpt lat="45.77318" lon="3.3994">
        <ele>333.8</ele>
        <time>2024-04-28T07:54:52Z</time>
      </trkpt>
      <trkpt lat="45.77315" lon="3.39947">
        <ele>333.8</ele>
        <time>2024-04-28T07:54:53Z</time>
      </trkpt>
      <trkpt lat="45.77312" lon="3.39954">
        <ele>333.8</ele>
        <time>2024-04-28T07:54:54Z</time>
      </trkpt>
      <trkpt lat="45.77309" lon="3.39961">
        <ele>334</ele>
        <time>2024-04-28T07:54:55Z</time>
      </trkpt>
      <trkpt lat="45.77306" lon="3.39968">
        <ele>334</ele>
        <time>2024-04-28T07:54:56Z</time>
      </trkpt>
      <trkpt lat="45.77302" lon="3.39974">
        <ele>334</ele>
        <time>2024-04-28T07:54:57Z</time>
      </trkpt>
      <trkpt lat="45.77299" lon="3.39981">
        <ele>334</ele>
        <time>2024-04-28T07:54:58Z</time>
      </trkpt>
      <trkpt lat="45.77297" lon="3.39987">
        <ele>334</ele>
        <time>2024-04-28T07:54:59Z</time>
      </trkpt>
      <trkpt lat="45.77293" lon="3.39994">
        <ele>334.2</ele>
        <time>2024-04-28T07:55:00Z</time>
      </trkpt>
      <trkpt lat="45.7729" lon="3.40001">
        <ele>334.2</ele>
        <time>2024-04-28T07:55:01Z</time>
      </trkpt>
      <trkpt lat="45.77287" lon="3.40008">
        <ele>334.4</ele>
        <time>2024-04-28T07:55:02Z</time>
      </trkpt>
      <trkpt lat="45.77284" lon="3.40014">
        <ele>334.4</ele>
        <time>2024-04-28T07:55:03Z</time>
      </trkpt>
      <trkpt lat="45.77281" lon="3.40021">
        <ele>334.4</ele>
        <time>2024-04-28T07:55:04Z</time>
      </trkpt>
      <trkpt lat="45.77278" lon="3.40028">
        <ele>334.6</ele>
        <time>2024-04-28T07:55:05Z</time>
      </trkpt>
      <trkpt lat="45.77275" lon="3.40034">
        <ele>334.6</ele>
        <time>2024-04-28T07:55:06Z</time>
      </trkpt>
      <trkpt lat="45.77272" lon="3.40041">
        <ele>334.6</ele>
        <time>2024-04-28T07:55:07Z</time>
      </trkpt>
      <trkpt lat="45.7727" lon="3.40047">
        <ele>334.8</ele>
        <time>2024-04-28T07:55:08Z</time>
      </trkpt>
      <trkpt lat="45.77267" lon="3.40053">
        <ele>334.8</ele>
        <time>2024-04-28T07:55:09Z</time>
      </trkpt>
      <trkpt lat="45.77263" lon="3.4006">
        <ele>334.8</ele>
        <time>2024-04-28T07:55:10Z</time>
      </trkpt>
      <trkpt lat="45.7726" lon="3.40066">
        <ele>335</ele>
        <time>2024-04-28T07:55:11Z</time>
      </trkpt>
      <trkpt lat="45.77258" lon="3.40073">
        <ele>335</ele>
        <time>2024-04-28T07:55:12Z</time>
      </trkpt>
      <trkpt lat="45.77255" lon="3.4008">
        <ele>335.2</ele>
        <time>2024-04-28T07:55:13Z</time>
      </trkpt>
      <trkpt lat="45.77253" lon="3.40086">
        <ele>335.2</ele>
        <time>2024-04-28T07:55:14Z</time>
      </trkpt>
      <trkpt lat="45.77251" lon="3.40093">
        <ele>335.2</ele>
        <time>2024-04-28T07:55:15Z</time>
      </trkpt>
      <trkpt lat="45.77248" lon="3.401">
        <ele>335.4</ele>
        <time>2024-04-28T07:55:16Z</time>
      </trkpt>
      <trkpt lat="45.77246" lon="3.40107">
        <ele>335.4</ele>
        <time>2024-04-28T07:55:17Z</time>
      </trkpt>
      <trkpt lat="45.77244" lon="3.40114">
        <ele>335.6</ele>
        <time>2024-04-28T07:55:18Z</time>
      </trkpt>
      <trkpt lat="45.77242" lon="3.40121">
        <ele>335.6</ele>
        <time>2024-04-28T07:55:19Z</time>
      </trkpt>
      <trkpt lat="45.77241" lon="3.40128">
        <ele>335.6</ele>
        <time>2024-04-28T07:55:20Z</time>
      </trkpt>
      <trkpt lat="45.77239" lon="3.40135">
        <ele>335.6</ele>
        <time>2024-04-28T07:55:21Z</time>
      </trkpt>
      <trkpt lat="45.77237" lon="3.40142">
        <ele>335.8</ele>
        <time>2024-04-28T07:55:22Z</time>
      </trkpt>
      <trkpt lat="45.77235" lon="3.40149">
        <ele>336</ele>
        <time>2024-04-28T07:55:23Z</time>
      </trkpt>
      <trkpt lat="45.77234" lon="3.40156">
        <ele>336</ele>
        <time>2024-04-28T07:55:24Z</time>
      </trkpt>
      <trkpt lat="45.77232" lon="3.40162">
        <ele>336.2</ele>
        <time>2024-04-28T07:55:25Z</time>
      </trkpt>
      <trkpt lat="45.7723" lon="3.40169">
        <ele>336.4</ele>
        <time>2024-04-28T07:55:26Z</time>
      </trkpt>
      <trkpt lat="45.77229" lon="3.40176">
        <ele>336.4</ele>
        <time>2024-04-28T07:55:27Z</time>
      </trkpt>
      <trkpt lat="45.77227" lon="3.40183">
        <ele>336.4</ele>
        <time>2024-04-28T07:55:28Z</time>
      </trkpt>
      <trkpt lat="45.77226" lon="3.4019">
        <ele>336.6</ele>
        <time>2024-04-28T07:55:29Z</time>
      </trkpt>
      <trkpt lat="45.77225" lon="3.40197">
        <ele>336.6</ele>
        <time>2024-04-28T07:55:30Z</time>
      </trkpt>
      <trkpt lat="45.77223" lon="3.40204">
        <ele>336.8</ele>
        <time>2024-04-28T07:55:31Z</time>
      </trkpt>
      <trkpt lat="45.77222" lon="3.40211">
        <ele>336.8</ele>
        <time>2024-04-28T07:55:32Z</time>
      </trkpt>
      <trkpt lat="45.77221" lon="3.40218">
        <ele>337</ele>
        <time>2024-04-28T07:55:33Z</time>
      </trkpt>
      <trkpt lat="45.77219" lon="3.40225">
        <ele>337</ele>
        <time>2024-04-28T07:55:34Z</time>
      </trkpt>
      <trkpt lat="45.77218" lon="3.40231">
        <ele>337.2</ele>
        <time>2024-04-28T07:55:35Z</time>
      </trkpt>
      <trkpt lat="45.77217" lon="3.40238">
        <ele>337.2</ele>
        <time>2024-04-28T07:55:36Z</time>
      </trkpt>
      <trkpt lat="45.77216" lon="3.40245">
        <ele>337.4</ele>
        <time>2024-04-28T07:55:37Z</time>
      </trkpt>
      <trkpt lat="45.77214" lon="3.40252">
        <ele>337.4</ele>
        <time>2024-04-28T07:55:38Z</time>
      </trkpt>
      <trkpt lat="45.77213" lon="3.40259">
        <ele>337.6</ele>
        <time>2024-04-28T07:55:39Z</time>
      </trkpt>
      <trkpt lat="45.77212" lon="3.40266">
        <ele>337.8</ele>
        <time>2024-04-28T07:55:40Z</time>
      </trkpt>
      <trkpt lat="45.7721" lon="3.40273">
        <ele>337.8</ele>
        <time>2024-04-28T07:55:41Z</time>
      </trkpt>
      <trkpt lat="45.77209" lon="3.40279">
        <ele>337.8</ele>
        <time>2024-04-28T07:55:42Z</time>
      </trkpt>
      <trkpt lat="45.77208" lon="3.40286">
        <ele>338</ele>
        <time>2024-04-28T07:55:43Z</time>
      </trkpt>
      <trkpt lat="45.77207" lon="3.40292">
        <ele>338</ele>
        <time>2024-04-28T07:55:44Z</time>
      </trkpt>
      <trkpt lat="45.77206" lon="3.40299">
        <ele>338.2</ele>
        <time>2024-04-28T07:55:45Z</time>
      </trkpt>
      <trkpt lat="45.77204" lon="3.40306">
        <ele>338.2</ele>
        <time>2024-04-28T07:55:46Z</time>
      </trkpt>
      <trkpt lat="45.77203" lon="3.40312">
        <ele>338.4</ele>
        <time>2024-04-28T07:55:47Z</time>
      </trkpt>
      <trkpt lat="45.77202" lon="3.40319">
        <ele>338.6</ele>
        <time>2024-04-28T07:55:48Z</time>
      </trkpt>
      <trkpt lat="45.77201" lon="3.40326">
        <ele>338.6</ele>
        <time>2024-04-28T07:55:49Z</time>
      </trkpt>
      <trkpt lat="45.77199" lon="3.40332">
        <ele>338.8</ele>
        <time>2024-04-28T07:55:50Z</time>
      </trkpt>
      <trkpt lat="45.77198" lon="3.40339">
        <ele>339</ele>
        <time>2024-04-28T07:55:51Z</time>
      </trkpt>
      <trkpt lat="45.77197" lon="3.40345">
        <ele>339</ele>
        <time>2024-04-28T07:55:52Z</time>
      </trkpt>
      <trkpt lat="45.77196" lon="3.40352">
        <ele>339.2</ele>
        <time>2024-04-28T07:55:53Z</time>
      </trkpt>
      <trkpt lat="45.77194" lon="3.40359">
        <ele>339.4</ele>
        <time>2024-04-28T07:55:54Z</time>
      </trkpt>
      <trkpt lat="45.77193" lon="3.40366">
        <ele>339.4</ele>
        <time>2024-04-28T07:55:55Z</time>
      </trkpt>
      <trkpt lat="45.77192" lon="3.40373">
        <ele>339.6</ele>
        <time>2024-04-28T07:55:56Z</time>
      </trkpt>
      <trkpt lat="45.77191" lon="3.40379">
        <ele>339.6</ele>
        <time>2024-04-28T07:55:57Z</time>
      </trkpt>
      <trkpt lat="45.77189" lon="3.40386">
        <ele>339.8</ele>
        <time>2024-04-28T07:55:58Z</time>
      </trkpt>
      <trkpt lat="45.77188" lon="3.40393">
        <ele>340</ele>
        <time>2024-04-28T07:55:59Z</time>
      </trkpt>
      <trkpt lat="45.77187" lon="3.404">
        <ele>340.2</ele>
        <time>2024-04-28T07:56:00Z</time>
      </trkpt>
      <trkpt lat="45.77185" lon="3.40407">
        <ele>340.2</ele>
        <time>2024-04-28T07:56:01Z</time>
      </trkpt>
      <trkpt lat="45.77184" lon="3.40415">
        <ele>340.4</ele>
        <time>2024-04-28T07:56:02Z</time>
      </trkpt>
      <trkpt lat="45.77183" lon="3.40422">
        <ele>340.6</ele>
        <time>2024-04-28T07:56:03Z</time>
      </trkpt>
      <trkpt lat="45.77181" lon="3.40429">
        <ele>340.8</ele>
        <time>2024-04-28T07:56:04Z</time>
      </trkpt>
      <trkpt lat="45.7718" lon="3.40437">
        <ele>340.8</ele>
        <time>2024-04-28T07:56:05Z</time>
      </trkpt>
      <trkpt lat="45.77178" lon="3.40444">
        <ele>340.8</ele>
        <time>2024-04-28T07:56:06Z</time>
      </trkpt>
      <trkpt lat="45.77177" lon="3.40452">
        <ele>341</ele>
        <time>2024-04-28T07:56:07Z</time>
      </trkpt>
      <trkpt lat="45.77176" lon="3.40459">
        <ele>341</ele>
        <time>2024-04-28T07:56:08Z</time>
      </trkpt>
      <trkpt lat="45.77174" lon="3.40467">
        <ele>341.2</ele>
        <time>2024-04-28T07:56:09Z</time>
      </trkpt>
      <trkpt lat="45.77173" lon="3.40475">
        <ele>341.2</ele>
        <time>2024-04-28T07:56:10Z</time>
      </trkpt>
      <trkpt lat="45.77171" lon="3.40483">
        <ele>341.4</ele>
        <time>2024-04-28T07:56:11Z</time>
      </trkpt>
      <trkpt lat="45.7717" lon="3.40491">
        <ele>341.4</ele>
        <time>2024-04-28T07:56:12Z</time>
      </trkpt>
      <trkpt lat="45.77168" lon="3.40499">
        <ele>341.6</ele>
        <time>2024-04-28T07:56:13Z</time>
      </trkpt>
      <trkpt lat="45.77167" lon="3.40507">
        <ele>341.8</ele>
        <time>2024-04-28T07:56:14Z</time>
      </trkpt>
      <trkpt lat="45.77165" lon="3.40515">
        <ele>341.8</ele>
        <time>2024-04-28T07:56:15Z</time>
      </trkpt>
      <trkpt lat="45.77164" lon="3.40523">
        <ele>342</ele>
        <time>2024-04-28T07:56:16Z</time>
      </trkpt>
      <trkpt lat="45.77162" lon="3.40532">
        <ele>342</ele>
        <time>2024-04-28T07:56:17Z</time>
      </trkpt>
      <trkpt lat="45.77161" lon="3.4054">
        <ele>342.2</ele>
        <time>2024-04-28T07:56:18Z</time>
      </trkpt>
      <trkpt lat="45.77159" lon="3.40548">
        <ele>342.2</ele>
        <time>2024-04-28T07:56:19Z</time>
      </trkpt>
      <trkpt lat="45.77158" lon="3.40557">
        <ele>342.2</ele>
        <time>2024-04-28T07:56:20Z</time>
      </trkpt>
      <trkpt lat="45.77156" lon="3.40566">
        <ele>342.4</ele>
        <time>2024-04-28T07:56:21Z</time>
      </trkpt>
      <trkpt lat="45.77155" lon="3.40574">
        <ele>342.4</ele>
        <time>2024-04-28T07:56:22Z</time>
      </trkpt>
      <trkpt lat="45.77153" lon="3.40583">
        <ele>342.4</ele>
        <time>2024-04-28T07:56:23Z</time>
      </trkpt>
      <trkpt lat="45.77152" lon="3.40592">
        <ele>342.6</ele>
        <time>2024-04-28T07:56:24Z</time>
      </trkpt>
      <trkpt lat="45.7715" lon="3.40601">
        <ele>342.6</ele>
        <time>2024-04-28T07:56:25Z</time>
      </trkpt>
      <trkpt lat="45.77148" lon="3.4061">
        <ele>342.6</ele>
        <time>2024-04-28T07:56:26Z</time>
      </trkpt>
      <trkpt lat="45.77147" lon="3.40619">
        <ele>342.8</ele>
        <time>2024-04-28T07:56:27Z</time>
      </trkpt>
      <trkpt lat="45.77145" lon="3.40628">
        <ele>342.8</ele>
        <time>2024-04-28T07:56:28Z</time>
      </trkpt>
      <trkpt lat="45.77143" lon="3.40637">
        <ele>343</ele>
        <time>2024-04-28T07:56:29Z</time>
      </trkpt>
      <trkpt lat="45.77142" lon="3.40646">
        <ele>343</ele>
        <time>2024-04-28T07:56:30Z</time>
      </trkpt>
      <trkpt lat="45.7714" lon="3.40655">
        <ele>343</ele>
        <time>2024-04-28T07:56:31Z</time>
      </trkpt>
      <trkpt lat="45.77139" lon="3.40664">
        <ele>343</ele>
        <time>2024-04-28T07:56:32Z</time>
      </trkpt>
      <trkpt lat="45.77137" lon="3.40673">
        <ele>343.2</ele>
        <time>2024-04-28T07:56:33Z</time>
      </trkpt>
      <trkpt lat="45.77135" lon="3.40682">
        <ele>343.2</ele>
        <time>2024-04-28T07:56:34Z</time>
      </trkpt>
      <trkpt lat="45.77134" lon="3.40692">
        <ele>343.2</ele>
        <time>2024-04-28T07:56:35Z</time>
      </trkpt>
      <trkpt lat="45.77132" lon="3.40701">
        <ele>343.2</ele>
        <time>2024-04-28T07:56:36Z</time>
      </trkpt>
      <trkpt lat="45.77131" lon="3.4071">
        <ele>343.2</ele>
        <time>2024-04-28T07:56:37Z</time>
      </trkpt>
      <trkpt lat="45.77129" lon="3.40719">
        <ele>343.4</ele>
        <time>2024-04-28T07:56:38Z</time>
      </trkpt>
      <trkpt lat="45.77127" lon="3.40729">
        <ele>343.4</ele>
        <time>2024-04-28T07:56:39Z</time>
      </trkpt>
      <trkpt lat="45.77125" lon="3.40738">
        <ele>343.4</ele>
        <time>2024-04-28T07:56:40Z</time>
      </trkpt>
      <trkpt lat="45.77124" lon="3.40747">
        <ele>343.4</ele>
        <time>2024-04-28T07:56:41Z</time>
      </trkpt>
      <trkpt lat="45.77122" lon="3.40757">
        <ele>343.4</ele>
        <time>2024-04-28T07:56:42Z</time>
      </trkpt>
      <trkpt lat="45.7712" lon="3.40767">
        <ele>343.4</ele>
        <time>2024-04-28T07:56:43Z</time>
      </trkpt>
      <trkpt lat="45.77119" lon="3.40776">
        <ele>343.6</ele>
        <time>2024-04-28T07:56:44Z</time>
      </trkpt>
      <trkpt lat="45.77117" lon="3.40785">
        <ele>343.6</ele>
        <time>2024-04-28T07:56:45Z</time>
      </trkpt>
      <trkpt lat="45.77115" lon="3.40794">
        <ele>343.6</ele>
        <time>2024-04-28T07:56:46Z</time>
      </trkpt>
      <trkpt lat="45.77114" lon="3.40804">
        <ele>343.6</ele>
        <time>2024-04-28T07:56:47Z</time>
      </trkpt>
      <trkpt lat="45.77112" lon="3.40813">
        <ele>343.6</ele>
        <time>2024-04-28T07:56:48Z</time>
      </trkpt>
      <trkpt lat="45.7711" lon="3.40823">
        <ele>343.6</ele>
        <time>2024-04-28T07:56:49Z</time>
      </trkpt>
      <trkpt lat="45.7711" lon="3.40832">
        <ele>343.6</ele>
        <time>2024-04-28T07:56:50Z</time>
      </trkpt>
      <trkpt lat="45.77109" lon="3.40842">
        <ele>343.8</ele>
        <time>2024-04-28T07:56:51Z</time>
      </trkpt>
      <trkpt lat="45.77108" lon="3.40852">
        <ele>343.8</ele>
        <time>2024-04-28T07:56:52Z</time>
      </trkpt>
      <trkpt lat="45.77107" lon="3.40861">
        <ele>343.8</ele>
        <time>2024-04-28T07:56:53Z</time>
      </trkpt>
      <trkpt lat="45.77107" lon="3.40871">
        <ele>343.8</ele>
        <time>2024-04-28T07:56:54Z</time>
      </trkpt>
      <trkpt lat="45.77106" lon="3.40881">
        <ele>343.8</ele>
        <time>2024-04-28T07:56:55Z</time>
      </trkpt>
      <trkpt lat="45.77105" lon="3.40891">
        <ele>343.8</ele>
        <time>2024-04-28T07:56:56Z</time>
      </trkpt>
      <trkpt lat="45.77105" lon="3.40901">
        <ele>343.8</ele>
        <time>2024-04-28T07:56:57Z</time>
      </trkpt>
      <trkpt lat="45.77104" lon="3.40911">
        <ele>343.8</ele>
        <time>2024-04-28T07:56:58Z</time>
      </trkpt>
      <trkpt lat="45.77102" lon="3.40921">
        <ele>343.8</ele>
        <time>2024-04-28T07:56:59Z</time>
      </trkpt>
      <trkpt lat="45.77101" lon="3.4093">
        <ele>343.8</ele>
        <time>2024-04-28T07:57:00Z</time>
      </trkpt>
      <trkpt lat="45.77099" lon="3.4094">
        <ele>343.8</ele>
        <time>2024-04-28T07:57:01Z</time>
      </trkpt>
      <trkpt lat="45.77098" lon="3.4095">
        <ele>343.8</ele>
        <time>2024-04-28T07:57:02Z</time>
      </trkpt>
      <trkpt lat="45.77096" lon="3.4096">
        <ele>343.8</ele>
        <time>2024-04-28T07:57:03Z</time>
      </trkpt>
      <trkpt lat="45.77094" lon="3.40969">
        <ele>343.8</ele>
        <time>2024-04-28T07:57:04Z</time>
      </trkpt>
      <trkpt lat="45.77093" lon="3.40977">
        <ele>343.8</ele>
        <time>2024-04-28T07:57:05Z</time>
      </trkpt>
      <trkpt lat="45.7709" lon="3.40982">
        <ele>343.8</ele>
        <time>2024-04-28T07:57:06Z</time>
      </trkpt>
      <trkpt lat="45.77088" lon="3.40986">
        <ele>343.8</ele>
        <time>2024-04-28T07:57:07Z</time>
      </trkpt>
      <trkpt lat="45.77087" lon="3.40988">
        <ele>344</ele>
        <time>2024-04-28T07:57:08Z</time>
      </trkpt>
      <trkpt lat="45.77078" lon="3.4099">
        <ele>343.8</ele>
        <time>2024-04-28T07:57:09Z</time>
      </trkpt>
      <trkpt lat="45.77078" lon="3.4099">
        <ele>343.6</ele>
        <time>2024-04-28T07:57:10Z</time>
      </trkpt>
      <trkpt lat="45.77075" lon="3.40989">
        <ele>343.4</ele>
        <time>2024-04-28T07:57:11Z</time>
      </trkpt>
      <trkpt lat="45.77071" lon="3.40986">
        <ele>343.6</ele>
        <time>2024-04-28T07:57:12Z</time>
      </trkpt>
      <trkpt lat="45.77066" lon="3.40984">
        <ele>343.6</ele>
        <time>2024-04-28T07:57:13Z</time>
      </trkpt>
      <trkpt lat="45.77061" lon="3.4098">
        <ele>343.6</ele>
        <time>2024-04-28T07:57:14Z</time>
      </trkpt>
      <trkpt lat="45.77056" lon="3.40975">
        <ele>343.6</ele>
        <time>2024-04-28T07:57:15Z</time>
      </trkpt>
      <trkpt lat="45.77051" lon="3.4097">
        <ele>343.6</ele>
        <time>2024-04-28T07:57:16Z</time>
      </trkpt>
      <trkpt lat="45.77045" lon="3.40965">
        <ele>343.6</ele>
        <time>2024-04-28T07:57:17Z</time>
      </trkpt>
      <trkpt lat="45.7704" lon="3.4096">
        <ele>343.6</ele>
        <time>2024-04-28T07:57:18Z</time>
      </trkpt>
      <trkpt lat="45.77035" lon="3.40955">
        <ele>343.4</ele>
        <time>2024-04-28T07:57:19Z</time>
      </trkpt>
      <trkpt lat="45.7703" lon="3.40951">
        <ele>343.6</ele>
        <time>2024-04-28T07:57:20Z</time>
      </trkpt>
      <trkpt lat="45.77024" lon="3.40946">
        <ele>343.6</ele>
        <time>2024-04-28T07:57:21Z</time>
      </trkpt>
      <trkpt lat="45.77019" lon="3.40941">
        <ele>343.6</ele>
        <time>2024-04-28T07:57:22Z</time>
      </trkpt>
      <trkpt lat="45.77014" lon="3.40936">
        <ele>343.4</ele>
        <time>2024-04-28T07:57:23Z</time>
      </trkpt>
      <trkpt lat="45.77009" lon="3.40931">
        <ele>343.4</ele>
        <time>2024-04-28T07:57:24Z</time>
      </trkpt>
      <trkpt lat="45.77003" lon="3.40926">
        <ele>343.6</ele>
        <time>2024-04-28T07:57:25Z</time>
      </trkpt>
      <trkpt lat="45.76998" lon="3.4092">
        <ele>344</ele>
        <time>2024-04-28T07:57:26Z</time>
      </trkpt>
      <trkpt lat="45.76994" lon="3.40914">
        <ele>343.8</ele>
        <time>2024-04-28T07:57:27Z</time>
      </trkpt>
      <trkpt lat="45.7699" lon="3.40907">
        <ele>343.8</ele>
        <time>2024-04-28T07:57:28Z</time>
      </trkpt>
      <trkpt lat="45.76985" lon="3.40901">
        <ele>344</ele>
        <time>2024-04-28T07:57:29Z</time>
      </trkpt>
      <trkpt lat="45.76981" lon="3.40895">
        <ele>344</ele>
        <time>2024-04-28T07:57:30Z</time>
      </trkpt>
      <trkpt lat="45.76978" lon="3.40889">
        <ele>344</ele>
        <time>2024-04-28T07:57:31Z</time>
      </trkpt>
      <trkpt lat="45.76974" lon="3.40882">
        <ele>344</ele>
        <time>2024-04-28T07:57:32Z</time>
      </trkpt>
      <trkpt lat="45.7697" lon="3.40876">
        <ele>344.2</ele>
        <time>2024-04-28T07:57:33Z</time>
      </trkpt>
      <trkpt lat="45.76967" lon="3.40869">
        <ele>344.2</ele>
        <time>2024-04-28T07:57:34Z</time>
      </trkpt>
      <trkpt lat="45.76963" lon="3.40863">
        <ele>344.2</ele>
        <time>2024-04-28T07:57:35Z</time>
      </trkpt>
      <trkpt lat="45.7696" lon="3.40856">
        <ele>344.2</ele>
        <time>2024-04-28T07:57:36Z</time>
      </trkpt>
      <trkpt lat="45.76956" lon="3.40849">
        <ele>344.2</ele>
        <time>2024-04-28T07:57:37Z</time>
      </trkpt>
      <trkpt lat="45.76953" lon="3.40841">
        <ele>344.4</ele>
        <time>2024-04-28T07:57:38Z</time>
      </trkpt>
      <trkpt lat="45.7695" lon="3.40834">
        <ele>344.4</ele>
        <time>2024-04-28T07:57:39Z</time>
      </trkpt>
      <trkpt lat="45.76948" lon="3.40826">
        <ele>344.4</ele>
        <time>2024-04-28T07:57:40Z</time>
      </trkpt>
      <trkpt lat="45.76945" lon="3.40818">
        <ele>344.4</ele>
        <time>2024-04-28T07:57:41Z</time>
      </trkpt>
      <trkpt lat="45.76942" lon="3.40809">
        <ele>344.4</ele>
        <time>2024-04-28T07:57:42Z</time>
      </trkpt>
      <trkpt lat="45.76939" lon="3.40801">
        <ele>344.4</ele>
        <time>2024-04-28T07:57:43Z</time>
      </trkpt>
      <trkpt lat="45.76936" lon="3.40792">
        <ele>344.6</ele>
        <time>2024-04-28T07:57:44Z</time>
      </trkpt>
      <trkpt lat="45.76932" lon="3.40784">
        <ele>344.6</ele>
        <time>2024-04-28T07:57:45Z</time>
      </trkpt>
      <trkpt lat="45.76929" lon="3.40775">
        <ele>344.6</ele>
        <time>2024-04-28T07:57:46Z</time>
      </trkpt>
      <trkpt lat="45.76926" lon="3.40766">
        <ele>344.6</ele>
        <time>2024-04-28T07:57:47Z</time>
      </trkpt>
      <trkpt lat="45.76922" lon="3.40758">
        <ele>344.8</ele>
        <time>2024-04-28T07:57:48Z</time>
      </trkpt>
      <trkpt lat="45.76918" lon="3.40749">
        <ele>344.8</ele>
        <time>2024-04-28T07:57:49Z</time>
      </trkpt>
      <trkpt lat="45.76915" lon="3.40741">
        <ele>344.8</ele>
        <time>2024-04-28T07:57:50Z</time>
      </trkpt>
      <trkpt lat="45.76911" lon="3.40733">
        <ele>344.8</ele>
        <time>2024-04-28T07:57:51Z</time>
      </trkpt>
      <trkpt lat="45.76907" lon="3.40725">
        <ele>344.8</ele>
        <time>2024-04-28T07:57:52Z</time>
      </trkpt>
      <trkpt lat="45.76903" lon="3.40716">
        <ele>344.8</ele>
        <time>2024-04-28T07:57:53Z</time>
      </trkpt>
      <trkpt lat="45.76899" lon="3.40708">
        <ele>344.8</ele>
        <time>2024-04-28T07:57:54Z</time>
      </trkpt>
      <trkpt lat="45.76895" lon="3.40699">
        <ele>344.8</ele>
        <time>2024-04-28T07:57:55Z</time>
      </trkpt>
      <trkpt lat="45.76891" lon="3.40691">
        <ele>344.8</ele>
        <time>2024-04-28T07:57:56Z</time>
      </trkpt>
      <trkpt lat="45.76886" lon="3.40683">
        <ele>345</ele>
        <time>2024-04-28T07:57:57Z</time>
      </trkpt>
      <trkpt lat="45.76882" lon="3.40675">
        <ele>344.8</ele>
        <time>2024-04-28T07:57:58Z</time>
      </trkpt>
      <trkpt lat="45.76878" lon="3.40667">
        <ele>344.8</ele>
        <time>2024-04-28T07:57:59Z</time>
      </trkpt>
      <trkpt lat="45.76873" lon="3.40658">
        <ele>344.8</ele>
        <time>2024-04-28T07:58:00Z</time>
      </trkpt>
      <trkpt lat="45.76868" lon="3.4065">
        <ele>344.8</ele>
        <time>2024-04-28T07:58:01Z</time>
      </trkpt>
      <trkpt lat="45.76864" lon="3.40641">
        <ele>344.8</ele>
        <time>2024-04-28T07:58:02Z</time>
      </trkpt>
      <trkpt lat="45.76859" lon="3.40633">
        <ele>344.8</ele>
        <time>2024-04-28T07:58:03Z</time>
      </trkpt>
      <trkpt lat="45.76854" lon="3.40624">
        <ele>344.8</ele>
        <time>2024-04-28T07:58:04Z</time>
      </trkpt>
      <trkpt lat="45.7685" lon="3.40615">
        <ele>344.8</ele>
        <time>2024-04-28T07:58:05Z</time>
      </trkpt>
      <trkpt lat="45.76845" lon="3.40607">
        <ele>344.8</ele>
        <time>2024-04-28T07:58:06Z</time>
      </trkpt>
      <trkpt lat="45.7684" lon="3.40598">
        <ele>344.8</ele>
        <time>2024-04-28T07:58:07Z</time>
      </trkpt>
      <trkpt lat="45.76836" lon="3.40589">
        <ele>344.8</ele>
        <time>2024-04-28T07:58:08Z</time>
      </trkpt>
      <trkpt lat="45.76831" lon="3.40581">
        <ele>345</ele>
        <time>2024-04-28T07:58:09Z</time>
      </trkpt>
      <trkpt lat="45.76826" lon="3.40572">
        <ele>344.8</ele>
        <time>2024-04-28T07:58:10Z</time>
      </trkpt>
      <trkpt lat="45.76821" lon="3.40563">
        <ele>344.8</ele>
        <time>2024-04-28T07:58:11Z</time>
      </trkpt>
      <trkpt lat="45.76817" lon="3.40554">
        <ele>344.8</ele>
        <time>2024-04-28T07:58:12Z</time>
      </trkpt>
      <trkpt lat="45.76812" lon="3.40546">
        <ele>344.6</ele>
        <time>2024-04-28T07:58:13Z</time>
      </trkpt>
      <trkpt lat="45.76807" lon="3.40537">
        <ele>344.4</ele>
        <time>2024-04-28T07:58:14Z</time>
      </trkpt>
      <trkpt lat="45.76803" lon="3.40528">
        <ele>344.6</ele>
        <time>2024-04-28T07:58:15Z</time>
      </trkpt>
      <trkpt lat="45.76798" lon="3.40519">
        <ele>344.6</ele>
        <time>2024-04-28T07:58:16Z</time>
      </trkpt>
      <trkpt lat="45.76793" lon="3.4051">
        <ele>344.6</ele>
        <time>2024-04-28T07:58:17Z</time>
      </trkpt>
      <trkpt lat="45.76788" lon="3.40501">
        <ele>344.4</ele>
        <time>2024-04-28T07:58:18Z</time>
      </trkpt>
      <trkpt lat="45.76783" lon="3.40492">
        <ele>344.4</ele>
        <time>2024-04-28T07:58:19Z</time>
      </trkpt>
      <trkpt lat="45.76778" lon="3.40483">
        <ele>344.4</ele>
        <time>2024-04-28T07:58:20Z</time>
      </trkpt>
      <trkpt lat="45.76773" lon="3.40474">
        <ele>344.4</ele>
        <time>2024-04-28T07:58:21Z</time>
      </trkpt>
      <trkpt lat="45.76769" lon="3.40465">
        <ele>344.2</ele>
        <time>2024-04-28T07:58:22Z</time>
      </trkpt>
      <trkpt lat="45.76764" lon="3.40456">
        <ele>344.2</ele>
        <time>2024-04-28T07:58:23Z</time>
      </trkpt>
      <trkpt lat="45.76759" lon="3.40447">
        <ele>344.2</ele>
        <time>2024-04-28T07:58:24Z</time>
      </trkpt>
      <trkpt lat="45.76754" lon="3.40439">
        <ele>344.2</ele>
        <time>2024-04-28T07:58:25Z</time>
      </trkpt>
      <trkpt lat="45.7675" lon="3.4043">
        <ele>344.2</ele>
        <time>2024-04-28T07:58:26Z</time>
      </trkpt>
      <trkpt lat="45.76745" lon="3.40422">
        <ele>344.2</ele>
        <time>2024-04-28T07:58:27Z</time>
      </trkpt>
      <trkpt lat="45.76741" lon="3.40413">
        <ele>344.2</ele>
        <time>2024-04-28T07:58:28Z</time>
      </trkpt>
      <trkpt lat="45.76736" lon="3.40405">
        <ele>344.2</ele>
        <time>2024-04-28T07:58:29Z</time>
      </trkpt>
      <trkpt lat="45.76731" lon="3.40397">
        <ele>344.2</ele>
        <time>2024-04-28T07:58:30Z</time>
      </trkpt>
      <trkpt lat="45.76726" lon="3.40389">
        <ele>344.2</ele>
        <time>2024-04-28T07:58:31Z</time>
      </trkpt>
      <trkpt lat="45.76721" lon="3.40382">
        <ele>344.2</ele>
        <time>2024-04-28T07:58:32Z</time>
      </trkpt>
      <trkpt lat="45.76717" lon="3.40374">
        <ele>344.2</ele>
        <time>2024-04-28T07:58:33Z</time>
      </trkpt>
      <trkpt lat="45.76712" lon="3.40367">
        <ele>344.2</ele>
        <time>2024-04-28T07:58:34Z</time>
      </trkpt>
      <trkpt lat="45.76707" lon="3.40359">
        <ele>344.2</ele>
        <time>2024-04-28T07:58:35Z</time>
      </trkpt>
      <trkpt lat="45.76703" lon="3.40352">
        <ele>344.2</ele>
        <time>2024-04-28T07:58:36Z</time>
      </trkpt>
      <trkpt lat="45.76698" lon="3.40345">
        <ele>344.2</ele>
        <time>2024-04-28T07:58:37Z</time>
      </trkpt>
      <trkpt lat="45.76693" lon="3.40338">
        <ele>344.2</ele>
        <time>2024-04-28T07:58:38Z</time>
      </trkpt>
      <trkpt lat="45.76689" lon="3.4033">
        <ele>344</ele>
        <time>2024-04-28T07:58:39Z</time>
      </trkpt>
      <trkpt lat="45.76684" lon="3.40323">
        <ele>344</ele>
        <time>2024-04-28T07:58:40Z</time>
      </trkpt>
      <trkpt lat="45.76679" lon="3.40316">
        <ele>344.2</ele>
        <time>2024-04-28T07:58:41Z</time>
      </trkpt>
      <trkpt lat="45.76675" lon="3.40309">
        <ele>344.2</ele>
        <time>2024-04-28T07:58:42Z</time>
      </trkpt>
      <trkpt lat="45.7667" lon="3.40302">
        <ele>343.8</ele>
        <time>2024-04-28T07:58:43Z</time>
      </trkpt>
      <trkpt lat="45.76666" lon="3.40295">
        <ele>344.2</ele>
        <time>2024-04-28T07:58:44Z</time>
      </trkpt>
      <trkpt lat="45.76661" lon="3.40287">
        <ele>344.2</ele>
        <time>2024-04-28T07:58:45Z</time>
      </trkpt>
      <trkpt lat="45.76656" lon="3.4028">
        <ele>344.4</ele>
        <time>2024-04-28T07:58:46Z</time>
      </trkpt>
      <trkpt lat="45.76652" lon="3.40273">
        <ele>344.4</ele>
        <time>2024-04-28T07:58:47Z</time>
      </trkpt>
      <trkpt lat="45.76647" lon="3.40266">
        <ele>344.6</ele>
        <time>2024-04-28T07:58:48Z</time>
      </trkpt>
      <trkpt lat="45.76643" lon="3.40259">
        <ele>344.4</ele>
        <time>2024-04-28T07:58:49Z</time>
      </trkpt>
      <trkpt lat="45.76638" lon="3.40252">
        <ele>344.4</ele>
        <time>2024-04-28T07:58:50Z</time>
      </trkpt>
      <trkpt lat="45.76634" lon="3.40245">
        <ele>344.4</ele>
        <time>2024-04-28T07:58:51Z</time>
      </trkpt>
      <trkpt lat="45.76629" lon="3.40238">
        <ele>344.4</ele>
        <time>2024-04-28T07:58:52Z</time>
      </trkpt>
      <trkpt lat="45.76625" lon="3.40231">
        <ele>344.6</ele>
        <time>2024-04-28T07:58:53Z</time>
      </trkpt>
      <trkpt lat="45.7662" lon="3.40224">
        <ele>344.6</ele>
        <time>2024-04-28T07:58:54Z</time>
      </trkpt>
      <trkpt lat="45.76616" lon="3.40217">
        <ele>344.6</ele>
        <time>2024-04-28T07:58:55Z</time>
      </trkpt>
      <trkpt lat="45.76611" lon="3.4021">
        <ele>344.6</ele>
        <time>2024-04-28T07:58:56Z</time>
      </trkpt>
      <trkpt lat="45.76607" lon="3.40203">
        <ele>344.6</ele>
        <time>2024-04-28T07:58:57Z</time>
      </trkpt>
      <trkpt lat="45.76603" lon="3.40196">
        <ele>344.6</ele>
        <time>2024-04-28T07:58:58Z</time>
      </trkpt>
      <trkpt lat="45.76598" lon="3.4019">
        <ele>344.6</ele>
        <time>2024-04-28T07:58:59Z</time>
      </trkpt>
      <trkpt lat="45.76594" lon="3.40183">
        <ele>344.6</ele>
        <time>2024-04-28T07:59:00Z</time>
      </trkpt>
      <trkpt lat="45.76589" lon="3.40176">
        <ele>344.6</ele>
        <time>2024-04-28T07:59:01Z</time>
      </trkpt>
      <trkpt lat="45.76585" lon="3.40169">
        <ele>344.6</ele>
        <time>2024-04-28T07:59:02Z</time>
      </trkpt>
      <trkpt lat="45.76581" lon="3.40162">
        <ele>344.6</ele>
        <time>2024-04-28T07:59:03Z</time>
      </trkpt>
      <trkpt lat="45.76576" lon="3.40155">
        <ele>344.8</ele>
        <time>2024-04-28T07:59:04Z</time>
      </trkpt>
      <trkpt lat="45.76572" lon="3.40148">
        <ele>344.8</ele>
        <time>2024-04-28T07:59:05Z</time>
      </trkpt>
      <trkpt lat="45.76567" lon="3.4014">
        <ele>344.8</ele>
        <time>2024-04-28T07:59:06Z</time>
      </trkpt>
      <trkpt lat="45.76564" lon="3.40133">
        <ele>344.8</ele>
        <time>2024-04-28T07:59:07Z</time>
      </trkpt>
      <trkpt lat="45.7656" lon="3.40125">
        <ele>344.8</ele>
        <time>2024-04-28T07:59:08Z</time>
      </trkpt>
      <trkpt lat="45.76556" lon="3.40118">
        <ele>344.8</ele>
        <time>2024-04-28T07:59:09Z</time>
      </trkpt>
      <trkpt lat="45.76552" lon="3.4011">
        <ele>345</ele>
        <time>2024-04-28T07:59:10Z</time>
      </trkpt>
      <trkpt lat="45.76548" lon="3.40102">
        <ele>345</ele>
        <time>2024-04-28T07:59:11Z</time>
      </trkpt>
      <trkpt lat="45.76544" lon="3.40094">
        <ele>345.2</ele>
        <time>2024-04-28T07:59:12Z</time>
      </trkpt>
      <trkpt lat="45.7654" lon="3.40086">
        <ele>345.2</ele>
        <time>2024-04-28T07:59:13Z</time>
      </trkpt>
      <trkpt lat="45.76536" lon="3.40078">
        <ele>345.2</ele>
        <time>2024-04-28T07:59:14Z</time>
      </trkpt>
      <trkpt lat="45.76532" lon="3.40071">
        <ele>345.4</ele>
        <time>2024-04-28T07:59:15Z</time>
      </trkpt>
      <trkpt lat="45.76528" lon="3.40063">
        <ele>345.4</ele>
        <time>2024-04-28T07:59:16Z</time>
      </trkpt>
      <trkpt lat="45.76524" lon="3.40055">
        <ele>345.4</ele>
        <time>2024-04-28T07:59:17Z</time>
      </trkpt>
      <trkpt lat="45.7652" lon="3.40047">
        <ele>345.4</ele>
        <time>2024-04-28T07:59:18Z</time>
      </trkpt>
      <trkpt lat="45.76516" lon="3.40039">
        <ele>345.6</ele>
        <time>2024-04-28T07:59:19Z</time>
      </trkpt>
      <trkpt lat="45.76512" lon="3.40032">
        <ele>345.6</ele>
        <time>2024-04-28T07:59:20Z</time>
      </trkpt>
      <trkpt lat="45.76508" lon="3.40024">
        <ele>345.6</ele>
        <time>2024-04-28T07:59:21Z</time>
      </trkpt>
      <trkpt lat="45.76504" lon="3.40016">
        <ele>345.6</ele>
        <time>2024-04-28T07:59:22Z</time>
      </trkpt>
      <trkpt lat="45.765" lon="3.40008">
        <ele>345.8</ele>
        <time>2024-04-28T07:59:23Z</time>
      </trkpt>
      <trkpt lat="45.76496" lon="3.40001">
        <ele>345.8</ele>
        <time>2024-04-28T07:59:24Z</time>
      </trkpt>
      <trkpt lat="45.76492" lon="3.39993">
        <ele>345.8</ele>
        <time>2024-04-28T07:59:25Z</time>
      </trkpt>
      <trkpt lat="45.76488" lon="3.39985">
        <ele>345.8</ele>
        <time>2024-04-28T07:59:26Z</time>
      </trkpt>
      <trkpt lat="45.76484" lon="3.39978">
        <ele>345.8</ele>
        <time>2024-04-28T07:59:27Z</time>
      </trkpt>
      <trkpt lat="45.7648" lon="3.3997">
        <ele>346</ele>
        <time>2024-04-28T07:59:28Z</time>
      </trkpt>
      <trkpt lat="45.76476" lon="3.39962">
        <ele>346</ele>
        <time>2024-04-28T07:59:29Z</time>
      </trkpt>
      <trkpt lat="45.76472" lon="3.39954">
        <ele>346</ele>
        <time>2024-04-28T07:59:30Z</time>
      </trkpt>
      <trkpt lat="45.76468" lon="3.39946">
        <ele>346</ele>
        <time>2024-04-28T07:59:31Z</time>
      </trkpt>
      <trkpt lat="45.76463" lon="3.39938">
        <ele>346</ele>
        <time>2024-04-28T07:59:32Z</time>
      </trkpt>
      <trkpt lat="45.76459" lon="3.3993">
        <ele>346</ele>
        <time>2024-04-28T07:59:33Z</time>
      </trkpt>
      <trkpt lat="45.76455" lon="3.39922">
        <ele>346</ele>
        <time>2024-04-28T07:59:34Z</time>
      </trkpt>
      <trkpt lat="45.76451" lon="3.39914">
        <ele>346</ele>
        <time>2024-04-28T07:59:35Z</time>
      </trkpt>
      <trkpt lat="45.76447" lon="3.39906">
        <ele>346</ele>
        <time>2024-04-28T07:59:36Z</time>
      </trkpt>
      <trkpt lat="45.76443" lon="3.39898">
        <ele>346</ele>
        <time>2024-04-28T07:59:37Z</time>
      </trkpt>
      <trkpt lat="45.76438" lon="3.3989">
        <ele>346</ele>
        <time>2024-04-28T07:59:38Z</time>
      </trkpt>
      <trkpt lat="45.76434" lon="3.39882">
        <ele>346</ele>
        <time>2024-04-28T07:59:39Z</time>
      </trkpt>
      <trkpt lat="45.7643" lon="3.39874">
        <ele>346</ele>
        <time>2024-04-28T07:59:40Z</time>
      </trkpt>
      <trkpt lat="45.76426" lon="3.39865">
        <ele>346</ele>
        <time>2024-04-28T07:59:41Z</time>
      </trkpt>
      <trkpt lat="45.76421" lon="3.39857">
        <ele>346</ele>
        <time>2024-04-28T07:59:42Z</time>
      </trkpt>
      <trkpt lat="45.76417" lon="3.39849">
        <ele>346.2</ele>
        <time>2024-04-28T07:59:43Z</time>
      </trkpt>
      <trkpt lat="45.76413" lon="3.39841">
        <ele>346.2</ele>
        <time>2024-04-28T07:59:44Z</time>
      </trkpt>
      <trkpt lat="45.76409" lon="3.39832">
        <ele>346.2</ele>
        <time>2024-04-28T07:59:45Z</time>
      </trkpt>
      <trkpt lat="45.76404" lon="3.39824">
        <ele>346.2</ele>
        <time>2024-04-28T07:59:46Z</time>
      </trkpt>
      <trkpt lat="45.764" lon="3.39816">
        <ele>346.4</ele>
        <time>2024-04-28T07:59:47Z</time>
      </trkpt>
      <trkpt lat="45.76396" lon="3.39808">
        <ele>346.4</ele>
        <time>2024-04-28T07:59:48Z</time>
      </trkpt>
      <trkpt lat="45.76392" lon="3.39799">
        <ele>346.4</ele>
        <time>2024-04-28T07:59:49Z</time>
      </trkpt>
      <trkpt lat="45.76387" lon="3.39791">
        <ele>346.4</ele>
        <time>2024-04-28T07:59:50Z</time>
      </trkpt>
      <trkpt lat="45.76384" lon="3.39782">
        <ele>346.4</ele>
        <time>2024-04-28T07:59:51Z</time>
      </trkpt>
      <trkpt lat="45.7638" lon="3.39774">
        <ele>346.4</ele>
        <time>2024-04-28T07:59:52Z</time>
      </trkpt>
      <trkpt lat="45.76376" lon="3.39765">
        <ele>346.4</ele>
        <time>2024-04-28T07:59:53Z</time>
      </trkpt>
      <trkpt lat="45.76373" lon="3.39757">
        <ele>346.4</ele>
        <time>2024-04-28T07:59:54Z</time>
      </trkpt>
      <trkpt lat="45.76369" lon="3.39748">
        <ele>346.4</ele>
        <time>2024-04-28T07:59:55Z</time>
      </trkpt>
      <trkpt lat="45.76365" lon="3.39739">
        <ele>346.6</ele>
        <time>2024-04-28T07:59:56Z</time>
      </trkpt>
      <trkpt lat="45.76361" lon="3.3973">
        <ele>346.6</ele>
        <time>2024-04-28T07:59:57Z</time>
      </trkpt>
      <trkpt lat="45.76357" lon="3.39722">
        <ele>346.6</ele>
        <time>2024-04-28T07:59:58Z</time>
      </trkpt>
      <trkpt lat="45.76354" lon="3.39713">
        <ele>346.6</ele>
        <time>2024-04-28T07:59:59Z</time>
      </trkpt>
      <trkpt lat="45.7635" lon="3.39704">
        <ele>346.4</ele>
        <time>2024-04-28T08:00:00Z</time>
      </trkpt>
      <trkpt lat="45.76346" lon="3.39695">
        <ele>346.4</ele>
        <time>2024-04-28T08:00:01Z</time>
      </trkpt>
      <trkpt lat="45.76342" lon="3.39687">
        <ele>346.4</ele>
        <time>2024-04-28T08:00:02Z</time>
      </trkpt>
      <trkpt lat="45.76338" lon="3.39678">
        <ele>346.4</ele>
        <time>2024-04-28T08:00:03Z</time>
      </trkpt>
      <trkpt lat="45.76334" lon="3.39668">
        <ele>346.4</ele>
        <time>2024-04-28T08:00:04Z</time>
      </trkpt>
      <trkpt lat="45.7633" lon="3.39659">
        <ele>346.4</ele>
        <time>2024-04-28T08:00:05Z</time>
      </trkpt>
      <trkpt lat="45.76327" lon="3.3965">
        <ele>346.4</ele>
        <time>2024-04-28T08:00:06Z</time>
      </trkpt>
      <trkpt lat="45.76323" lon="3.39641">
        <ele>346.4</ele>
        <time>2024-04-28T08:00:07Z</time>
      </trkpt>
      <trkpt lat="45.76319" lon="3.39632">
        <ele>346.4</ele>
        <time>2024-04-28T08:00:08Z</time>
      </trkpt>
      <trkpt lat="45.76315" lon="3.39623">
        <ele>346.4</ele>
        <time>2024-04-28T08:00:09Z</time>
      </trkpt>
      <trkpt lat="45.76311" lon="3.39614">
        <ele>346.4</ele>
        <time>2024-04-28T08:00:10Z</time>
      </trkpt>
      <trkpt lat="45.76307" lon="3.39605">
        <ele>346.4</ele>
        <time>2024-04-28T08:00:11Z</time>
      </trkpt>
      <trkpt lat="45.76303" lon="3.39596">
        <ele>346.4</ele>
        <time>2024-04-28T08:00:12Z</time>
      </trkpt>
      <trkpt lat="45.763" lon="3.39587">
        <ele>346.4</ele>
        <time>2024-04-28T08:00:13Z</time>
      </trkpt>
      <trkpt lat="45.76296" lon="3.39578">
        <ele>346.4</ele>
        <time>2024-04-28T08:00:14Z</time>
      </trkpt>
      <trkpt lat="45.76292" lon="3.39569">
        <ele>346.4</ele>
        <time>2024-04-28T08:00:15Z</time>
      </trkpt>
      <trkpt lat="45.76288" lon="3.3956">
        <ele>346.6</ele>
        <time>2024-04-28T08:00:16Z</time>
      </trkpt>
      <trkpt lat="45.76285" lon="3.39551">
        <ele>346.6</ele>
        <time>2024-04-28T08:00:17Z</time>
      </trkpt>
      <trkpt lat="45.76281" lon="3.39542">
        <ele>346.6</ele>
        <time>2024-04-28T08:00:18Z</time>
      </trkpt>
      <trkpt lat="45.76277" lon="3.39533">
        <ele>346.6</ele>
        <time>2024-04-28T08:00:19Z</time>
      </trkpt>
      <trkpt lat="45.76274" lon="3.39524">
        <ele>346.6</ele>
        <time>2024-04-28T08:00:20Z</time>
      </trkpt>
      <trkpt lat="45.7627" lon="3.39516">
        <ele>346.6</ele>
        <time>2024-04-28T08:00:21Z</time>
      </trkpt>
      <trkpt lat="45.76266" lon="3.39507">
        <ele>346.6</ele>
        <time>2024-04-28T08:00:22Z</time>
      </trkpt>
      <trkpt lat="45.76263" lon="3.39497">
        <ele>346.8</ele>
        <time>2024-04-28T08:00:23Z</time>
      </trkpt>
      <trkpt lat="45.76259" lon="3.39489">
        <ele>346.8</ele>
        <time>2024-04-28T08:00:24Z</time>
      </trkpt>
      <trkpt lat="45.76255" lon="3.3948">
        <ele>346.8</ele>
        <time>2024-04-28T08:00:25Z</time>
      </trkpt>
      <trkpt lat="45.76252" lon="3.39471">
        <ele>346.8</ele>
        <time>2024-04-28T08:00:26Z</time>
      </trkpt>
      <trkpt lat="45.76248" lon="3.39462">
        <ele>346.8</ele>
        <time>2024-04-28T08:00:27Z</time>
      </trkpt>
      <trkpt lat="45.76244" lon="3.39453">
        <ele>346.8</ele>
        <time>2024-04-28T08:00:28Z</time>
      </trkpt>
      <trkpt lat="45.7624" lon="3.39444">
        <ele>346.8</ele>
        <time>2024-04-28T08:00:29Z</time>
      </trkpt>
      <trkpt lat="45.76237" lon="3.39435">
        <ele>346.8</ele>
        <time>2024-04-28T08:00:30Z</time>
      </trkpt>
      <trkpt lat="45.76233" lon="3.39426">
        <ele>347</ele>
        <time>2024-04-28T08:00:31Z</time>
      </trkpt>
      <trkpt lat="45.7623" lon="3.39417">
        <ele>347</ele>
        <time>2024-04-28T08:00:32Z</time>
      </trkpt>
      <trkpt lat="45.76226" lon="3.39408">
        <ele>347</ele>
        <time>2024-04-28T08:00:33Z</time>
      </trkpt>
      <trkpt lat="45.76222" lon="3.394">
        <ele>347</ele>
        <time>2024-04-28T08:00:34Z</time>
      </trkpt>
      <trkpt lat="45.76219" lon="3.39391">
        <ele>347</ele>
        <time>2024-04-28T08:00:35Z</time>
      </trkpt>
      <trkpt lat="45.76215" lon="3.39382">
        <ele>347</ele>
        <time>2024-04-28T08:00:36Z</time>
      </trkpt>
      <trkpt lat="45.76212" lon="3.39374">
        <ele>347</ele>
        <time>2024-04-28T08:00:37Z</time>
      </trkpt>
      <trkpt lat="45.76208" lon="3.39365">
        <ele>347</ele>
        <time>2024-04-28T08:00:38Z</time>
      </trkpt>
      <trkpt lat="45.76205" lon="3.39357">
        <ele>347</ele>
        <time>2024-04-28T08:00:39Z</time>
      </trkpt>
      <trkpt lat="45.76201" lon="3.39348">
        <ele>347</ele>
        <time>2024-04-28T08:00:40Z</time>
      </trkpt>
      <trkpt lat="45.76197" lon="3.39339">
        <ele>347</ele>
        <time>2024-04-28T08:00:41Z</time>
      </trkpt>
      <trkpt lat="45.76194" lon="3.39331">
        <ele>347</ele>
        <time>2024-04-28T08:00:42Z</time>
      </trkpt>
      <trkpt lat="45.7619" lon="3.39322">
        <ele>347.2</ele>
        <time>2024-04-28T08:00:43Z</time>
      </trkpt>
      <trkpt lat="45.76187" lon="3.39313">
        <ele>347.2</ele>
        <time>2024-04-28T08:00:44Z</time>
      </trkpt>
      <trkpt lat="45.76183" lon="3.39304">
        <ele>347.2</ele>
        <time>2024-04-28T08:00:45Z</time>
      </trkpt>
      <trkpt lat="45.76179" lon="3.39295">
        <ele>347.2</ele>
        <time>2024-04-28T08:00:46Z</time>
      </trkpt>
      <trkpt lat="45.76176" lon="3.39287">
        <ele>347.4</ele>
        <time>2024-04-28T08:00:47Z</time>
      </trkpt>
      <trkpt lat="45.76172" lon="3.39278">
        <ele>347.4</ele>
        <time>2024-04-28T08:00:48Z</time>
      </trkpt>
      <trkpt lat="45.76168" lon="3.39269">
        <ele>347.4</ele>
        <time>2024-04-28T08:00:49Z</time>
      </trkpt>
      <trkpt lat="45.76165" lon="3.3926">
        <ele>347.4</ele>
        <time>2024-04-28T08:00:50Z</time>
      </trkpt>
      <trkpt lat="45.76161" lon="3.39252">
        <ele>347.4</ele>
        <time>2024-04-28T08:00:51Z</time>
      </trkpt>
      <trkpt lat="45.76158" lon="3.39243">
        <ele>347.4</ele>
        <time>2024-04-28T08:00:52Z</time>
      </trkpt>
      <trkpt lat="45.76154" lon="3.39235">
        <ele>347.4</ele>
        <time>2024-04-28T08:00:53Z</time>
      </trkpt>
      <trkpt lat="45.76151" lon="3.39227">
        <ele>347.4</ele>
        <time>2024-04-28T08:00:54Z</time>
      </trkpt>
      <trkpt lat="45.76148" lon="3.39218">
        <ele>347.4</ele>
        <time>2024-04-28T08:00:55Z</time>
      </trkpt>
      <trkpt lat="45.76144" lon="3.39209">
        <ele>347.6</ele>
        <time>2024-04-28T08:00:56Z</time>
      </trkpt>
      <trkpt lat="45.7614" lon="3.39201">
        <ele>347.6</ele>
        <time>2024-04-28T08:00:57Z</time>
      </trkpt>
      <trkpt lat="45.76137" lon="3.39192">
        <ele>347.6</ele>
        <time>2024-04-28T08:00:58Z</time>
      </trkpt>
      <trkpt lat="45.76133" lon="3.39184">
        <ele>347.6</ele>
        <time>2024-04-28T08:00:59Z</time>
      </trkpt>
      <trkpt lat="45.7613" lon="3.39175">
        <ele>347.6</ele>
        <time>2024-04-28T08:01:00Z</time>
      </trkpt>
      <trkpt lat="45.76126" lon="3.39167">
        <ele>347.6</ele>
        <time>2024-04-28T08:01:01Z</time>
      </trkpt>
      <trkpt lat="45.76123" lon="3.39158">
        <ele>347.6</ele>
        <time>2024-04-28T08:01:02Z</time>
      </trkpt>
      <trkpt lat="45.76119" lon="3.3915">
        <ele>347.6</ele>
        <time>2024-04-28T08:01:03Z</time>
      </trkpt>
      <trkpt lat="45.76116" lon="3.39141">
        <ele>347.6</ele>
        <time>2024-04-28T08:01:04Z</time>
      </trkpt>
      <trkpt lat="45.76112" lon="3.39133">
        <ele>347.8</ele>
        <time>2024-04-28T08:01:05Z</time>
      </trkpt>
      <trkpt lat="45.76109" lon="3.39124">
        <ele>347.8</ele>
        <time>2024-04-28T08:01:06Z</time>
      </trkpt>
      <trkpt lat="45.76105" lon="3.39115">
        <ele>347.8</ele>
        <time>2024-04-28T08:01:07Z</time>
      </trkpt>
      <trkpt lat="45.76102" lon="3.39107">
        <ele>347.8</ele>
        <time>2024-04-28T08:01:08Z</time>
      </trkpt>
      <trkpt lat="45.76098" lon="3.39098">
        <ele>347.8</ele>
        <time>2024-04-28T08:01:09Z</time>
      </trkpt>
      <trkpt lat="45.76094" lon="3.39089">
        <ele>347.8</ele>
        <time>2024-04-28T08:01:10Z</time>
      </trkpt>
      <trkpt lat="45.76091" lon="3.3908">
        <ele>347.8</ele>
        <time>2024-04-28T08:01:11Z</time>
      </trkpt>
      <trkpt lat="45.76087" lon="3.39071">
        <ele>347.8</ele>
        <time>2024-04-28T08:01:12Z</time>
      </trkpt>
      <trkpt lat="45.76084" lon="3.39063">
        <ele>347.8</ele>
        <time>2024-04-28T08:01:13Z</time>
      </trkpt>
      <trkpt lat="45.7608" lon="3.39054">
        <ele>347.8</ele>
        <time>2024-04-28T08:01:14Z</time>
      </trkpt>
      <trkpt lat="45.76077" lon="3.39046">
        <ele>347.8</ele>
        <time>2024-04-28T08:01:15Z</time>
      </trkpt>
      <trkpt lat="45.76073" lon="3.39037">
        <ele>347.8</ele>
        <time>2024-04-28T08:01:16Z</time>
      </trkpt>
      <trkpt lat="45.7607" lon="3.39029">
        <ele>348</ele>
        <time>2024-04-28T08:01:17Z</time>
      </trkpt>
      <trkpt lat="45.76066" lon="3.3902">
        <ele>348</ele>
        <time>2024-04-28T08:01:18Z</time>
      </trkpt>
      <trkpt lat="45.76063" lon="3.39012">
        <ele>348</ele>
        <time>2024-04-28T08:01:19Z</time>
      </trkpt>
      <trkpt lat="45.76059" lon="3.39004">
        <ele>348</ele>
        <time>2024-04-28T08:01:20Z</time>
      </trkpt>
      <trkpt lat="45.76056" lon="3.38995">
        <ele>348</ele>
        <time>2024-04-28T08:01:21Z</time>
      </trkpt>
      <trkpt lat="45.76052" lon="3.38987">
        <ele>348</ele>
        <time>2024-04-28T08:01:22Z</time>
      </trkpt>
      <trkpt lat="45.76049" lon="3.38978">
        <ele>348</ele>
        <time>2024-04-28T08:01:23Z</time>
      </trkpt>
      <trkpt lat="45.76045" lon="3.3897">
        <ele>348.2</ele>
        <time>2024-04-28T08:01:24Z</time>
      </trkpt>
      <trkpt lat="45.76042" lon="3.38962">
        <ele>348.2</ele>
        <time>2024-04-28T08:01:25Z</time>
      </trkpt>
      <trkpt lat="45.76039" lon="3.38954">
        <ele>348.2</ele>
        <time>2024-04-28T08:01:26Z</time>
      </trkpt>
      <trkpt lat="45.76035" lon="3.38946">
        <ele>348.2</ele>
        <time>2024-04-28T08:01:27Z</time>
      </trkpt>
      <trkpt lat="45.76032" lon="3.38938">
        <ele>348.4</ele>
        <time>2024-04-28T08:01:28Z</time>
      </trkpt>
      <trkpt lat="45.76029" lon="3.3893">
        <ele>348.4</ele>
        <time>2024-04-28T08:01:29Z</time>
      </trkpt>
      <trkpt lat="45.76026" lon="3.38923">
        <ele>348.4</ele>
        <time>2024-04-28T08:01:30Z</time>
      </trkpt>
      <trkpt lat="45.76023" lon="3.38915">
        <ele>348.6</ele>
        <time>2024-04-28T08:01:31Z</time>
      </trkpt>
      <trkpt lat="45.7602" lon="3.38908">
        <ele>348.6</ele>
        <time>2024-04-28T08:01:32Z</time>
      </trkpt>
      <trkpt lat="45.76017" lon="3.38901">
        <ele>348.6</ele>
        <time>2024-04-28T08:01:33Z</time>
      </trkpt>
      <trkpt lat="45.76014" lon="3.38893">
        <ele>348.8</ele>
        <time>2024-04-28T08:01:34Z</time>
      </trkpt>
      <trkpt lat="45.76011" lon="3.38886">
        <ele>348.8</ele>
        <time>2024-04-28T08:01:35Z</time>
      </trkpt>
      <trkpt lat="45.76008" lon="3.38879">
        <ele>348.8</ele>
        <time>2024-04-28T08:01:36Z</time>
      </trkpt>
      <trkpt lat="45.76005" lon="3.38872">
        <ele>348.8</ele>
        <time>2024-04-28T08:01:37Z</time>
      </trkpt>
      <trkpt lat="45.76002" lon="3.38865">
        <ele>349</ele>
        <time>2024-04-28T08:01:38Z</time>
      </trkpt>
      <trkpt lat="45.75999" lon="3.38858">
        <ele>349</ele>
        <time>2024-04-28T08:01:39Z</time>
      </trkpt>
      <trkpt lat="45.75996" lon="3.38851">
        <ele>349</ele>
        <time>2024-04-28T08:01:40Z</time>
      </trkpt>
      <trkpt lat="45.75994" lon="3.38844">
        <ele>349.2</ele>
        <time>2024-04-28T08:01:41Z</time>
      </trkpt>
      <trkpt lat="45.75991" lon="3.38837">
        <ele>349.2</ele>
        <time>2024-04-28T08:01:42Z</time>
      </trkpt>
      <trkpt lat="45.75988" lon="3.3883">
        <ele>349.4</ele>
        <time>2024-04-28T08:01:43Z</time>
      </trkpt>
      <trkpt lat="45.75985" lon="3.38823">
        <ele>349.4</ele>
        <time>2024-04-28T08:01:44Z</time>
      </trkpt>
      <trkpt lat="45.75982" lon="3.38816">
        <ele>349.4</ele>
        <time>2024-04-28T08:01:45Z</time>
      </trkpt>
      <trkpt lat="45.75979" lon="3.38808">
        <ele>349.6</ele>
        <time>2024-04-28T08:01:46Z</time>
      </trkpt>
      <trkpt lat="45.75976" lon="3.38801">
        <ele>349.6</ele>
        <time>2024-04-28T08:01:47Z</time>
      </trkpt>
      <trkpt lat="45.75973" lon="3.38794">
        <ele>349.8</ele>
        <time>2024-04-28T08:01:48Z</time>
      </trkpt>
      <trkpt lat="45.7597" lon="3.38787">
        <ele>349.8</ele>
        <time>2024-04-28T08:01:49Z</time>
      </trkpt>
      <trkpt lat="45.75967" lon="3.3878">
        <ele>349.8</ele>
        <time>2024-04-28T08:01:50Z</time>
      </trkpt>
      <trkpt lat="45.75965" lon="3.38773">
        <ele>350</ele>
        <time>2024-04-28T08:01:51Z</time>
      </trkpt>
      <trkpt lat="45.75962" lon="3.38766">
        <ele>350</ele>
        <time>2024-04-28T08:01:52Z</time>
      </trkpt>
      <trkpt lat="45.75959" lon="3.38758">
        <ele>350.2</ele>
        <time>2024-04-28T08:01:53Z</time>
      </trkpt>
      <trkpt lat="45.75956" lon="3.3875">
        <ele>350.2</ele>
        <time>2024-04-28T08:01:54Z</time>
      </trkpt>
      <trkpt lat="45.75953" lon="3.38741">
        <ele>350.2</ele>
        <time>2024-04-28T08:01:55Z</time>
      </trkpt>
      <trkpt lat="45.75951" lon="3.38733">
        <ele>350.4</ele>
        <time>2024-04-28T08:01:56Z</time>
      </trkpt>
      <trkpt lat="45.75948" lon="3.38724">
        <ele>350.4</ele>
        <time>2024-04-28T08:01:57Z</time>
      </trkpt>
      <trkpt lat="45.75946" lon="3.38716">
        <ele>350.4</ele>
        <time>2024-04-28T08:01:58Z</time>
      </trkpt>
      <trkpt lat="45.75943" lon="3.38707">
        <ele>350.4</ele>
        <time>2024-04-28T08:01:59Z</time>
      </trkpt>
      <trkpt lat="45.75941" lon="3.38699">
        <ele>350.6</ele>
        <time>2024-04-28T08:02:00Z</time>
      </trkpt>
      <trkpt lat="45.75938" lon="3.3869">
        <ele>350.6</ele>
        <time>2024-04-28T08:02:01Z</time>
      </trkpt>
      <trkpt lat="45.75935" lon="3.38681">
        <ele>350.6</ele>
        <time>2024-04-28T08:02:02Z</time>
      </trkpt>
      <trkpt lat="45.75933" lon="3.38673">
        <ele>350.6</ele>
        <time>2024-04-28T08:02:03Z</time>
      </trkpt>
      <trkpt lat="45.7593" lon="3.38665">
        <ele>350.8</ele>
        <time>2024-04-28T08:02:04Z</time>
      </trkpt>
      <trkpt lat="45.75928" lon="3.38656">
        <ele>350.8</ele>
        <time>2024-04-28T08:02:05Z</time>
      </trkpt>
      <trkpt lat="45.75925" lon="3.38648">
        <ele>350.8</ele>
        <time>2024-04-28T08:02:06Z</time>
      </trkpt>
      <trkpt lat="45.75923" lon="3.3864">
        <ele>351</ele>
        <time>2024-04-28T08:02:07Z</time>
      </trkpt>
      <trkpt lat="45.7592" lon="3.38631">
        <ele>351</ele>
        <time>2024-04-28T08:02:08Z</time>
      </trkpt>
      <trkpt lat="45.75918" lon="3.38623">
        <ele>351</ele>
        <time>2024-04-28T08:02:09Z</time>
      </trkpt>
      <trkpt lat="45.75915" lon="3.38615">
        <ele>351.2</ele>
        <time>2024-04-28T08:02:10Z</time>
      </trkpt>
      <trkpt lat="45.75913" lon="3.38607">
        <ele>351.2</ele>
        <time>2024-04-28T08:02:11Z</time>
      </trkpt>
      <trkpt lat="45.75911" lon="3.38599">
        <ele>351.2</ele>
        <time>2024-04-28T08:02:12Z</time>
      </trkpt>
      <trkpt lat="45.75908" lon="3.38591">
        <ele>351.4</ele>
        <time>2024-04-28T08:02:13Z</time>
      </trkpt>
      <trkpt lat="45.75906" lon="3.38584">
        <ele>351.4</ele>
        <time>2024-04-28T08:02:14Z</time>
      </trkpt>
      <trkpt lat="45.75904" lon="3.38577">
        <ele>351.6</ele>
        <time>2024-04-28T08:02:15Z</time>
      </trkpt>
      <trkpt lat="45.75902" lon="3.3857">
        <ele>351.6</ele>
        <time>2024-04-28T08:02:16Z</time>
      </trkpt>
      <trkpt lat="45.75899" lon="3.38562">
        <ele>351.8</ele>
        <time>2024-04-28T08:02:17Z</time>
      </trkpt>
      <trkpt lat="45.75897" lon="3.38555">
        <ele>352</ele>
        <time>2024-04-28T08:02:18Z</time>
      </trkpt>
      <trkpt lat="45.75895" lon="3.38548">
        <ele>352</ele>
        <time>2024-04-28T08:02:19Z</time>
      </trkpt>
      <trkpt lat="45.75893" lon="3.38541">
        <ele>352.2</ele>
        <time>2024-04-28T08:02:20Z</time>
      </trkpt>
      <trkpt lat="45.75891" lon="3.38535">
        <ele>352.2</ele>
        <time>2024-04-28T08:02:21Z</time>
      </trkpt>
      <trkpt lat="45.75889" lon="3.38528">
        <ele>352.2</ele>
        <time>2024-04-28T08:02:22Z</time>
      </trkpt>
      <trkpt lat="45.75887" lon="3.38522">
        <ele>352.4</ele>
        <time>2024-04-28T08:02:23Z</time>
      </trkpt>
      <trkpt lat="45.75885" lon="3.38515">
        <ele>352.4</ele>
        <time>2024-04-28T08:02:24Z</time>
      </trkpt>
      <trkpt lat="45.75883" lon="3.38509">
        <ele>352.6</ele>
        <time>2024-04-28T08:02:25Z</time>
      </trkpt>
      <trkpt lat="45.75881" lon="3.38502">
        <ele>352.6</ele>
        <time>2024-04-28T08:02:26Z</time>
      </trkpt>
      <trkpt lat="45.75879" lon="3.38496">
        <ele>352.6</ele>
        <time>2024-04-28T08:02:27Z</time>
      </trkpt>
      <trkpt lat="45.75877" lon="3.38489">
        <ele>352.8</ele>
        <time>2024-04-28T08:02:28Z</time>
      </trkpt>
      <trkpt lat="45.75875" lon="3.38483">
        <ele>352.8</ele>
        <time>2024-04-28T08:02:29Z</time>
      </trkpt>
      <trkpt lat="45.75873" lon="3.38476">
        <ele>353</ele>
        <time>2024-04-28T08:02:30Z</time>
      </trkpt>
      <trkpt lat="45.75872" lon="3.3847">
        <ele>353</ele>
        <time>2024-04-28T08:02:31Z</time>
      </trkpt>
      <trkpt lat="45.75869" lon="3.38463">
        <ele>353.2</ele>
        <time>2024-04-28T08:02:32Z</time>
      </trkpt>
      <trkpt lat="45.75868" lon="3.38457">
        <ele>353.2</ele>
        <time>2024-04-28T08:02:33Z</time>
      </trkpt>
      <trkpt lat="45.75866" lon="3.3845">
        <ele>353.2</ele>
        <time>2024-04-28T08:02:34Z</time>
      </trkpt>
      <trkpt lat="45.75864" lon="3.38444">
        <ele>353.4</ele>
        <time>2024-04-28T08:02:35Z</time>
      </trkpt>
      <trkpt lat="45.75863" lon="3.38437">
        <ele>353.6</ele>
        <time>2024-04-28T08:02:36Z</time>
      </trkpt>
      <trkpt lat="45.75862" lon="3.38431">
        <ele>353.6</ele>
        <time>2024-04-28T08:02:37Z</time>
      </trkpt>
      <trkpt lat="45.75861" lon="3.38424">
        <ele>353.8</ele>
        <time>2024-04-28T08:02:38Z</time>
      </trkpt>
      <trkpt lat="45.7586" lon="3.38417">
        <ele>353.8</ele>
        <time>2024-04-28T08:02:39Z</time>
      </trkpt>
      <trkpt lat="45.75859" lon="3.3841">
        <ele>354</ele>
        <time>2024-04-28T08:02:40Z</time>
      </trkpt>
      <trkpt lat="45.75858" lon="3.38404">
        <ele>354</ele>
        <time>2024-04-28T08:02:41Z</time>
      </trkpt>
      <trkpt lat="45.75857" lon="3.38397">
        <ele>354.2</ele>
        <time>2024-04-28T08:02:42Z</time>
      </trkpt>
      <trkpt lat="45.75856" lon="3.3839">
        <ele>354.4</ele>
        <time>2024-04-28T08:02:43Z</time>
      </trkpt>
      <trkpt lat="45.75855" lon="3.38384">
        <ele>354.4</ele>
        <time>2024-04-28T08:02:44Z</time>
      </trkpt>
      <trkpt lat="45.75855" lon="3.38377">
        <ele>354.6</ele>
        <time>2024-04-28T08:02:45Z</time>
      </trkpt>
      <trkpt lat="45.75854" lon="3.3837">
        <ele>354.8</ele>
        <time>2024-04-28T08:02:46Z</time>
      </trkpt>
      <trkpt lat="45.75853" lon="3.38364">
        <ele>354.8</ele>
        <time>2024-04-28T08:02:47Z</time>
      </trkpt>
      <trkpt lat="45.75852" lon="3.38357">
        <ele>355</ele>
        <time>2024-04-28T08:02:48Z</time>
      </trkpt>
      <trkpt lat="45.75851" lon="3.3835">
        <ele>355</ele>
        <time>2024-04-28T08:02:49Z</time>
      </trkpt>
      <trkpt lat="45.7585" lon="3.38344">
        <ele>355.2</ele>
        <time>2024-04-28T08:02:50Z</time>
      </trkpt>
      <trkpt lat="45.75849" lon="3.38337">
        <ele>355.4</ele>
        <time>2024-04-28T08:02:51Z</time>
      </trkpt>
      <trkpt lat="45.75848" lon="3.3833">
        <ele>355.4</ele>
        <time>2024-04-28T08:02:52Z</time>
      </trkpt>
      <trkpt lat="45.75847" lon="3.38324">
        <ele>355.6</ele>
        <time>2024-04-28T08:02:53Z</time>
      </trkpt>
      <trkpt lat="45.75846" lon="3.38317">
        <ele>355.6</ele>
        <time>2024-04-28T08:02:54Z</time>
      </trkpt>
      <trkpt lat="45.75845" lon="3.3831">
        <ele>355.8</ele>
        <time>2024-04-28T08:02:55Z</time>
      </trkpt>
      <trkpt lat="45.75845" lon="3.38304">
        <ele>355.8</ele>
        <time>2024-04-28T08:02:56Z</time>
      </trkpt>
      <trkpt lat="45.75844" lon="3.38297">
        <ele>356</ele>
        <time>2024-04-28T08:02:57Z</time>
      </trkpt>
      <trkpt lat="45.75843" lon="3.3829">
        <ele>356.2</ele>
        <time>2024-04-28T08:02:58Z</time>
      </trkpt>
      <trkpt lat="45.75842" lon="3.38284">
        <ele>356.4</ele>
        <time>2024-04-28T08:02:59Z</time>
      </trkpt>
      <trkpt lat="45.75841" lon="3.38277">
        <ele>356.4</ele>
        <time>2024-04-28T08:03:00Z</time>
      </trkpt>
      <trkpt lat="45.7584" lon="3.38271">
        <ele>356.6</ele>
        <time>2024-04-28T08:03:01Z</time>
      </trkpt>
      <trkpt lat="45.75839" lon="3.38264">
        <ele>356.6</ele>
        <time>2024-04-28T08:03:02Z</time>
      </trkpt>
      <trkpt lat="45.75838" lon="3.38258">
        <ele>356.8</ele>
        <time>2024-04-28T08:03:03Z</time>
      </trkpt>
      <trkpt lat="45.75837" lon="3.38251">
        <ele>356.8</ele>
        <time>2024-04-28T08:03:04Z</time>
      </trkpt>
      <trkpt lat="45.75836" lon="3.38245">
        <ele>357</ele>
        <time>2024-04-28T08:03:05Z</time>
      </trkpt>
      <trkpt lat="45.75836" lon="3.38238">
        <ele>357</ele>
        <time>2024-04-28T08:03:06Z</time>
      </trkpt>
      <trkpt lat="45.75835" lon="3.38231">
        <ele>357.2</ele>
        <time>2024-04-28T08:03:07Z</time>
      </trkpt>
      <trkpt lat="45.75834" lon="3.38225">
        <ele>357.4</ele>
        <time>2024-04-28T08:03:08Z</time>
      </trkpt>
      <trkpt lat="45.75833" lon="3.38218">
        <ele>357.4</ele>
        <time>2024-04-28T08:03:09Z</time>
      </trkpt>
      <trkpt lat="45.75832" lon="3.38211">
        <ele>357.6</ele>
        <time>2024-04-28T08:03:10Z</time>
      </trkpt>
      <trkpt lat="45.75831" lon="3.38204">
        <ele>357.8</ele>
        <time>2024-04-28T08:03:11Z</time>
      </trkpt>
      <trkpt lat="45.7583" lon="3.38197">
        <ele>357.8</ele>
        <time>2024-04-28T08:03:12Z</time>
      </trkpt>
      <trkpt lat="45.75829" lon="3.3819">
        <ele>357.8</ele>
        <time>2024-04-28T08:03:13Z</time>
      </trkpt>
      <trkpt lat="45.75828" lon="3.38183">
        <ele>358.2</ele>
        <time>2024-04-28T08:03:14Z</time>
      </trkpt>
      <trkpt lat="45.75827" lon="3.38177">
        <ele>358.2</ele>
        <time>2024-04-28T08:03:15Z</time>
      </trkpt>
      <trkpt lat="45.75826" lon="3.38169">
        <ele>358.4</ele>
        <time>2024-04-28T08:03:16Z</time>
      </trkpt>
      <trkpt lat="45.75825" lon="3.38162">
        <ele>358.6</ele>
        <time>2024-04-28T08:03:17Z</time>
      </trkpt>
      <trkpt lat="45.75824" lon="3.38155">
        <ele>358.6</ele>
        <time>2024-04-28T08:03:18Z</time>
      </trkpt>
      <trkpt lat="45.75823" lon="3.38148">
        <ele>358.8</ele>
        <time>2024-04-28T08:03:19Z</time>
      </trkpt>
      <trkpt lat="45.75822" lon="3.38141">
        <ele>358.8</ele>
        <time>2024-04-28T08:03:20Z</time>
      </trkpt>
      <trkpt lat="45.75821" lon="3.38134">
        <ele>359</ele>
        <time>2024-04-28T08:03:21Z</time>
      </trkpt>
      <trkpt lat="45.7582" lon="3.38127">
        <ele>359.2</ele>
        <time>2024-04-28T08:03:22Z</time>
      </trkpt>
      <trkpt lat="45.75819" lon="3.38119">
        <ele>359.2</ele>
        <time>2024-04-28T08:03:23Z</time>
      </trkpt>
      <trkpt lat="45.75818" lon="3.38112">
        <ele>359.4</ele>
        <time>2024-04-28T08:03:24Z</time>
      </trkpt>
      <trkpt lat="45.75817" lon="3.38104">
        <ele>359.4</ele>
        <time>2024-04-28T08:03:25Z</time>
      </trkpt>
      <trkpt lat="45.75816" lon="3.38097">
        <ele>359.6</ele>
        <time>2024-04-28T08:03:26Z</time>
      </trkpt>
      <trkpt lat="45.75815" lon="3.38089">
        <ele>359.6</ele>
        <time>2024-04-28T08:03:27Z</time>
      </trkpt>
      <trkpt lat="45.75814" lon="3.38082">
        <ele>359.8</ele>
        <time>2024-04-28T08:03:28Z</time>
      </trkpt>
      <trkpt lat="45.75813" lon="3.38075">
        <ele>359.8</ele>
        <time>2024-04-28T08:03:29Z</time>
      </trkpt>
      <trkpt lat="45.75812" lon="3.38068">
        <ele>360</ele>
        <time>2024-04-28T08:03:30Z</time>
      </trkpt>
      <trkpt lat="45.75811" lon="3.38061">
        <ele>360</ele>
        <time>2024-04-28T08:03:31Z</time>
      </trkpt>
      <trkpt lat="45.7581" lon="3.38054">
        <ele>360.2</ele>
        <time>2024-04-28T08:03:32Z</time>
      </trkpt>
      <trkpt lat="45.75809" lon="3.38047">
        <ele>360.4</ele>
        <time>2024-04-28T08:03:33Z</time>
      </trkpt>
      <trkpt lat="45.75808" lon="3.3804">
        <ele>360.4</ele>
        <time>2024-04-28T08:03:34Z</time>
      </trkpt>
      <trkpt lat="45.75807" lon="3.38033">
        <ele>360.6</ele>
        <time>2024-04-28T08:03:35Z</time>
      </trkpt>
      <trkpt lat="45.75806" lon="3.38026">
        <ele>360.6</ele>
        <time>2024-04-28T08:03:36Z</time>
      </trkpt>
      <trkpt lat="45.75805" lon="3.38019">
        <ele>360.8</ele>
        <time>2024-04-28T08:03:37Z</time>
      </trkpt>
      <trkpt lat="45.75804" lon="3.38012">
        <ele>360.8</ele>
        <time>2024-04-28T08:03:38Z</time>
      </trkpt>
      <trkpt lat="45.75802" lon="3.38005">
        <ele>361</ele>
        <time>2024-04-28T08:03:39Z</time>
      </trkpt>
      <trkpt lat="45.75801" lon="3.37998">
        <ele>361</ele>
        <time>2024-04-28T08:03:40Z</time>
      </trkpt>
      <trkpt lat="45.758" lon="3.37991">
        <ele>361.2</ele>
        <time>2024-04-28T08:03:41Z</time>
      </trkpt>
      <trkpt lat="45.75799" lon="3.37984">
        <ele>361.4</ele>
        <time>2024-04-28T08:03:42Z</time>
      </trkpt>
      <trkpt lat="45.75798" lon="3.37976">
        <ele>361.4</ele>
        <time>2024-04-28T08:03:43Z</time>
      </trkpt>
      <trkpt lat="45.75797" lon="3.37969">
        <ele>361.6</ele>
        <time>2024-04-28T08:03:44Z</time>
      </trkpt>
      <trkpt lat="45.75796" lon="3.37962">
        <ele>361.8</ele>
        <time>2024-04-28T08:03:45Z</time>
      </trkpt>
      <trkpt lat="45.75795" lon="3.37955">
        <ele>361.8</ele>
        <time>2024-04-28T08:03:46Z</time>
      </trkpt>
      <trkpt lat="45.75794" lon="3.37948">
        <ele>362</ele>
        <time>2024-04-28T08:03:47Z</time>
      </trkpt>
      <trkpt lat="45.75793" lon="3.3794">
        <ele>362.2</ele>
        <time>2024-04-28T08:03:48Z</time>
      </trkpt>
      <trkpt lat="45.75792" lon="3.37933">
        <ele>362.2</ele>
        <time>2024-04-28T08:03:49Z</time>
      </trkpt>
      <trkpt lat="45.75791" lon="3.37926">
        <ele>362.4</ele>
        <time>2024-04-28T08:03:50Z</time>
      </trkpt>
      <trkpt lat="45.7579" lon="3.37919">
        <ele>362.6</ele>
        <time>2024-04-28T08:03:51Z</time>
      </trkpt>
      <trkpt lat="45.75789" lon="3.37912">
        <ele>362.6</ele>
        <time>2024-04-28T08:03:52Z</time>
      </trkpt>
      <trkpt lat="45.75788" lon="3.37905">
        <ele>362.8</ele>
        <time>2024-04-28T08:03:53Z</time>
      </trkpt>
      <trkpt lat="45.75786" lon="3.37897">
        <ele>362.8</ele>
        <time>2024-04-28T08:03:54Z</time>
      </trkpt>
      <trkpt lat="45.75785" lon="3.3789">
        <ele>363</ele>
        <time>2024-04-28T08:03:55Z</time>
      </trkpt>
      <trkpt lat="45.75784" lon="3.37883">
        <ele>363.2</ele>
        <time>2024-04-28T08:03:56Z</time>
      </trkpt>
      <trkpt lat="45.75783" lon="3.37875">
        <ele>363.2</ele>
        <time>2024-04-28T08:03:57Z</time>
      </trkpt>
      <trkpt lat="45.75782" lon="3.37868">
        <ele>363.4</ele>
        <time>2024-04-28T08:03:58Z</time>
      </trkpt>
      <trkpt lat="45.75781" lon="3.37861">
        <ele>363.6</ele>
        <time>2024-04-28T08:03:59Z</time>
      </trkpt>
      <trkpt lat="45.7578" lon="3.37854">
        <ele>363.6</ele>
        <time>2024-04-28T08:04:00Z</time>
      </trkpt>
      <trkpt lat="45.75779" lon="3.37847">
        <ele>363.8</ele>
        <time>2024-04-28T08:04:01Z</time>
      </trkpt>
      <trkpt lat="45.75778" lon="3.3784">
        <ele>364</ele>
        <time>2024-04-28T08:04:02Z</time>
      </trkpt>
      <trkpt lat="45.75777" lon="3.37833">
        <ele>364</ele>
        <time>2024-04-28T08:04:03Z</time>
      </trkpt>
      <trkpt lat="45.75776" lon="3.37825">
        <ele>364.2</ele>
        <time>2024-04-28T08:04:04Z</time>
      </trkpt>
      <trkpt lat="45.75775" lon="3.37818">
        <ele>364.2</ele>
        <time>2024-04-28T08:04:05Z</time>
      </trkpt>
      <trkpt lat="45.75774" lon="3.37811">
        <ele>364.4</ele>
        <time>2024-04-28T08:04:06Z</time>
      </trkpt>
      <trkpt lat="45.75773" lon="3.37804">
        <ele>364.4</ele>
        <time>2024-04-28T08:04:07Z</time>
      </trkpt>
      <trkpt lat="45.75771" lon="3.37796">
        <ele>364.6</ele>
        <time>2024-04-28T08:04:08Z</time>
      </trkpt>
      <trkpt lat="45.7577" lon="3.37789">
        <ele>364.8</ele>
        <time>2024-04-28T08:04:09Z</time>
      </trkpt>
      <trkpt lat="45.75769" lon="3.37782">
        <ele>364.8</ele>
        <time>2024-04-28T08:04:10Z</time>
      </trkpt>
      <trkpt lat="45.75768" lon="3.37774">
        <ele>365</ele>
        <time>2024-04-28T08:04:11Z</time>
      </trkpt>
      <trkpt lat="45.75767" lon="3.37767">
        <ele>365.2</ele>
        <time>2024-04-28T08:04:12Z</time>
      </trkpt>
      <trkpt lat="45.75766" lon="3.3776">
        <ele>365.2</ele>
        <time>2024-04-28T08:04:13Z</time>
      </trkpt>
      <trkpt lat="45.75765" lon="3.37753">
        <ele>365.4</ele>
        <time>2024-04-28T08:04:14Z</time>
      </trkpt>
      <trkpt lat="45.75764" lon="3.37745">
        <ele>365.4</ele>
        <time>2024-04-28T08:04:15Z</time>
      </trkpt>
      <trkpt lat="45.75763" lon="3.37738">
        <ele>365.6</ele>
        <time>2024-04-28T08:04:16Z</time>
      </trkpt>
      <trkpt lat="45.75762" lon="3.37731">
        <ele>365.8</ele>
        <time>2024-04-28T08:04:17Z</time>
      </trkpt>
      <trkpt lat="45.75761" lon="3.37723">
        <ele>365.8</ele>
        <time>2024-04-28T08:04:18Z</time>
      </trkpt>
      <trkpt lat="45.7576" lon="3.37716">
        <ele>366</ele>
        <time>2024-04-28T08:04:19Z</time>
      </trkpt>
      <trkpt lat="45.75758" lon="3.37709">
        <ele>366</ele>
        <time>2024-04-28T08:04:20Z</time>
      </trkpt>
      <trkpt lat="45.75757" lon="3.37702">
        <ele>366.2</ele>
        <time>2024-04-28T08:04:21Z</time>
      </trkpt>
      <trkpt lat="45.75756" lon="3.37694">
        <ele>366.4</ele>
        <time>2024-04-28T08:04:22Z</time>
      </trkpt>
      <trkpt lat="45.75755" lon="3.37686">
        <ele>366.4</ele>
        <time>2024-04-28T08:04:23Z</time>
      </trkpt>
      <trkpt lat="45.75754" lon="3.37678">
        <ele>366.6</ele>
        <time>2024-04-28T08:04:24Z</time>
      </trkpt>
      <trkpt lat="45.75752" lon="3.37671">
        <ele>366.8</ele>
        <time>2024-04-28T08:04:25Z</time>
      </trkpt>
      <trkpt lat="45.75751" lon="3.37663">
        <ele>366.8</ele>
        <time>2024-04-28T08:04:26Z</time>
      </trkpt>
      <trkpt lat="45.7575" lon="3.37655">
        <ele>367</ele>
        <time>2024-04-28T08:04:27Z</time>
      </trkpt>
      <trkpt lat="45.75748" lon="3.37647">
        <ele>367</ele>
        <time>2024-04-28T08:04:28Z</time>
      </trkpt>
      <trkpt lat="45.75747" lon="3.37639">
        <ele>367.2</ele>
        <time>2024-04-28T08:04:29Z</time>
      </trkpt>
      <trkpt lat="45.75746" lon="3.37631">
        <ele>367.4</ele>
        <time>2024-04-28T08:04:30Z</time>
      </trkpt>
      <trkpt lat="45.75745" lon="3.37622">
        <ele>367.4</ele>
        <time>2024-04-28T08:04:31Z</time>
      </trkpt>
      <trkpt lat="45.75743" lon="3.37614">
        <ele>367.6</ele>
        <time>2024-04-28T08:04:32Z</time>
      </trkpt>
      <trkpt lat="45.75742" lon="3.37606">
        <ele>367.6</ele>
        <time>2024-04-28T08:04:33Z</time>
      </trkpt>
      <trkpt lat="45.7574" lon="3.37597">
        <ele>367.8</ele>
        <time>2024-04-28T08:04:34Z</time>
      </trkpt>
      <trkpt lat="45.75739" lon="3.37589">
        <ele>367.8</ele>
        <time>2024-04-28T08:04:35Z</time>
      </trkpt>
      <trkpt lat="45.75738" lon="3.37581">
        <ele>368</ele>
        <time>2024-04-28T08:04:36Z</time>
      </trkpt>
      <trkpt lat="45.75736" lon="3.37572">
        <ele>368</ele>
        <time>2024-04-28T08:04:37Z</time>
      </trkpt>
      <trkpt lat="45.75735" lon="3.37564">
        <ele>368.2</ele>
        <time>2024-04-28T08:04:38Z</time>
      </trkpt>
      <trkpt lat="45.75734" lon="3.37555">
        <ele>368.2</ele>
        <time>2024-04-28T08:04:39Z</time>
      </trkpt>
      <trkpt lat="45.75732" lon="3.37547">
        <ele>368.4</ele>
        <time>2024-04-28T08:04:40Z</time>
      </trkpt>
      <trkpt lat="45.75731" lon="3.37539">
        <ele>368.6</ele>
        <time>2024-04-28T08:04:41Z</time>
      </trkpt>
      <trkpt lat="45.7573" lon="3.37531">
        <ele>368.6</ele>
        <time>2024-04-28T08:04:42Z</time>
      </trkpt>
      <trkpt lat="45.75728" lon="3.37523">
        <ele>368.8</ele>
        <time>2024-04-28T08:04:43Z</time>
      </trkpt>
      <trkpt lat="45.75727" lon="3.37514">
        <ele>368.8</ele>
        <time>2024-04-28T08:04:44Z</time>
      </trkpt>
      <trkpt lat="45.75726" lon="3.37506">
        <ele>369</ele>
        <time>2024-04-28T08:04:45Z</time>
      </trkpt>
      <trkpt lat="45.75724" lon="3.37498">
        <ele>369</ele>
        <time>2024-04-28T08:04:46Z</time>
      </trkpt>
      <trkpt lat="45.75723" lon="3.3749">
        <ele>369.2</ele>
        <time>2024-04-28T08:04:47Z</time>
      </trkpt>
      <trkpt lat="45.75722" lon="3.37482">
        <ele>369.2</ele>
        <time>2024-04-28T08:04:48Z</time>
      </trkpt>
      <trkpt lat="45.7572" lon="3.37474">
        <ele>369.4</ele>
        <time>2024-04-28T08:04:49Z</time>
      </trkpt>
      <trkpt lat="45.75719" lon="3.37466">
        <ele>369.4</ele>
        <time>2024-04-28T08:04:50Z</time>
      </trkpt>
      <trkpt lat="45.75718" lon="3.37458">
        <ele>369.6</ele>
        <time>2024-04-28T08:04:51Z</time>
      </trkpt>
      <trkpt lat="45.75716" lon="3.3745">
        <ele>369.6</ele>
        <time>2024-04-28T08:04:52Z</time>
      </trkpt>
      <trkpt lat="45.75715" lon="3.37442">
        <ele>369.8</ele>
        <time>2024-04-28T08:04:53Z</time>
      </trkpt>
      <trkpt lat="45.75714" lon="3.37434">
        <ele>370</ele>
        <time>2024-04-28T08:04:54Z</time>
      </trkpt>
      <trkpt lat="45.75712" lon="3.37426">
        <ele>370</ele>
        <time>2024-04-28T08:04:55Z</time>
      </trkpt>
      <trkpt lat="45.75711" lon="3.37418">
        <ele>370.2</ele>
        <time>2024-04-28T08:04:56Z</time>
      </trkpt>
      <trkpt lat="45.7571" lon="3.3741">
        <ele>370.2</ele>
        <time>2024-04-28T08:04:57Z</time>
      </trkpt>
      <trkpt lat="45.75709" lon="3.37402">
        <ele>370.4</ele>
        <time>2024-04-28T08:04:58Z</time>
      </trkpt>
      <trkpt lat="45.75707" lon="3.37395">
        <ele>370.6</ele>
        <time>2024-04-28T08:04:59Z</time>
      </trkpt>
      <trkpt lat="45.75706" lon="3.37387">
        <ele>370.6</ele>
        <time>2024-04-28T08:05:00Z</time>
      </trkpt>
      <trkpt lat="45.75705" lon="3.37379">
        <ele>370.8</ele>
        <time>2024-04-28T08:05:01Z</time>
      </trkpt>
      <trkpt lat="45.75704" lon="3.37371">
        <ele>371</ele>
        <time>2024-04-28T08:05:02Z</time>
      </trkpt>
      <trkpt lat="45.75702" lon="3.37364">
        <ele>371</ele>
        <time>2024-04-28T08:05:03Z</time>
      </trkpt>
      <trkpt lat="45.75701" lon="3.37356">
        <ele>371.2</ele>
        <time>2024-04-28T08:05:04Z</time>
      </trkpt>
      <trkpt lat="45.757" lon="3.37349">
        <ele>371.4</ele>
        <time>2024-04-28T08:05:05Z</time>
      </trkpt>
      <trkpt lat="45.75699" lon="3.37341">
        <ele>371.4</ele>
        <time>2024-04-28T08:05:06Z</time>
      </trkpt>
      <trkpt lat="45.75698" lon="3.37334">
        <ele>371.6</ele>
        <time>2024-04-28T08:05:07Z</time>
      </trkpt>
      <trkpt lat="45.75697" lon="3.37327">
        <ele>371.8</ele>
        <time>2024-04-28T08:05:08Z</time>
      </trkpt>
      <trkpt lat="45.75695" lon="3.37319">
        <ele>371.8</ele>
        <time>2024-04-28T08:05:09Z</time>
      </trkpt>
      <trkpt lat="45.75694" lon="3.37312">
        <ele>372</ele>
        <time>2024-04-28T08:05:10Z</time>
      </trkpt>
      <trkpt lat="45.75693" lon="3.37305">
        <ele>372.2</ele>
        <time>2024-04-28T08:05:11Z</time>
      </trkpt>
      <trkpt lat="45.75692" lon="3.37297">
        <ele>372.2</ele>
        <time>2024-04-28T08:05:12Z</time>
      </trkpt>
      <trkpt lat="45.75691" lon="3.3729">
        <ele>372.4</ele>
        <time>2024-04-28T08:05:13Z</time>
      </trkpt>
      <trkpt lat="45.75689" lon="3.37283">
        <ele>372.4</ele>
        <time>2024-04-28T08:05:14Z</time>
      </trkpt>
      <trkpt lat="45.75688" lon="3.37277">
        <ele>372.6</ele>
        <time>2024-04-28T08:05:15Z</time>
      </trkpt>
      <trkpt lat="45.75686" lon="3.3727">
        <ele>372.8</ele>
        <time>2024-04-28T08:05:16Z</time>
      </trkpt>
      <trkpt lat="45.75684" lon="3.37263">
        <ele>372.8</ele>
        <time>2024-04-28T08:05:17Z</time>
      </trkpt>
      <trkpt lat="45.75682" lon="3.37256">
        <ele>373</ele>
        <time>2024-04-28T08:05:18Z</time>
      </trkpt>
      <trkpt lat="45.7568" lon="3.3725">
        <ele>373</ele>
        <time>2024-04-28T08:05:19Z</time>
      </trkpt>
      <trkpt lat="45.75678" lon="3.37243">
        <ele>373.2</ele>
        <time>2024-04-28T08:05:20Z</time>
      </trkpt>
      <trkpt lat="45.75676" lon="3.37236">
        <ele>373.4</ele>
        <time>2024-04-28T08:05:21Z</time>
      </trkpt>
      <trkpt lat="45.75674" lon="3.37229">
        <ele>373.4</ele>
        <time>2024-04-28T08:05:22Z</time>
      </trkpt>
      <trkpt lat="45.75672" lon="3.37222">
        <ele>373.6</ele>
        <time>2024-04-28T08:05:23Z</time>
      </trkpt>
      <trkpt lat="45.7567" lon="3.37215">
        <ele>373.8</ele>
        <time>2024-04-28T08:05:24Z</time>
      </trkpt>
      <trkpt lat="45.75668" lon="3.37208">
        <ele>373.8</ele>
        <time>2024-04-28T08:05:25Z</time>
      </trkpt>
      <trkpt lat="45.75665" lon="3.37201">
        <ele>374</ele>
        <time>2024-04-28T08:05:26Z</time>
      </trkpt>
      <trkpt lat="45.75662" lon="3.37194">
        <ele>374.2</ele>
        <time>2024-04-28T08:05:27Z</time>
      </trkpt>
      <trkpt lat="45.75659" lon="3.37188">
        <ele>374.4</ele>
        <time>2024-04-28T08:05:28Z</time>
      </trkpt>
      <trkpt lat="45.75656" lon="3.37181">
        <ele>374.4</ele>
        <time>2024-04-28T08:05:29Z</time>
      </trkpt>
      <trkpt lat="45.75653" lon="3.37175">
        <ele>374.6</ele>
        <time>2024-04-28T08:05:30Z</time>
      </trkpt>
      <trkpt lat="45.7565" lon="3.37169">
        <ele>374.8</ele>
        <time>2024-04-28T08:05:31Z</time>
      </trkpt>
      <trkpt lat="45.75647" lon="3.37162">
        <ele>374.8</ele>
        <time>2024-04-28T08:05:32Z</time>
      </trkpt>
      <trkpt lat="45.75644" lon="3.37156">
        <ele>375</ele>
        <time>2024-04-28T08:05:33Z</time>
      </trkpt>
      <trkpt lat="45.75641" lon="3.3715">
        <ele>375.2</ele>
        <time>2024-04-28T08:05:34Z</time>
      </trkpt>
      <trkpt lat="45.75638" lon="3.37143">
        <ele>375.2</ele>
        <time>2024-04-28T08:05:35Z</time>
      </trkpt>
      <trkpt lat="45.75635" lon="3.37137">
        <ele>375.4</ele>
        <time>2024-04-28T08:05:36Z</time>
      </trkpt>
      <trkpt lat="45.75632" lon="3.37131">
        <ele>375.6</ele>
        <time>2024-04-28T08:05:37Z</time>
      </trkpt>
      <trkpt lat="45.75629" lon="3.37124">
        <ele>375.6</ele>
        <time>2024-04-28T08:05:38Z</time>
      </trkpt>
      <trkpt lat="45.75626" lon="3.37118">
        <ele>375.8</ele>
        <time>2024-04-28T08:05:39Z</time>
      </trkpt>
      <trkpt lat="45.75623" lon="3.37112">
        <ele>376</ele>
        <time>2024-04-28T08:05:40Z</time>
      </trkpt>
      <trkpt lat="45.7562" lon="3.37105">
        <ele>376</ele>
        <time>2024-04-28T08:05:41Z</time>
      </trkpt>
      <trkpt lat="45.75617" lon="3.37099">
        <ele>376.2</ele>
        <time>2024-04-28T08:05:42Z</time>
      </trkpt>
      <trkpt lat="45.75614" lon="3.37093">
        <ele>376.2</ele>
        <time>2024-04-28T08:05:43Z</time>
      </trkpt>
      <trkpt lat="45.75611" lon="3.37086">
        <ele>376.4</ele>
        <time>2024-04-28T08:05:44Z</time>
      </trkpt>
      <trkpt lat="45.75608" lon="3.37079">
        <ele>376.6</ele>
        <time>2024-04-28T08:05:45Z</time>
      </trkpt>
      <trkpt lat="45.75605" lon="3.37072">
        <ele>376.6</ele>
        <time>2024-04-28T08:05:46Z</time>
      </trkpt>
      <trkpt lat="45.75601" lon="3.37065">
        <ele>376.8</ele>
        <time>2024-04-28T08:05:47Z</time>
      </trkpt>
      <trkpt lat="45.75598" lon="3.37058">
        <ele>377</ele>
        <time>2024-04-28T08:05:48Z</time>
      </trkpt>
      <trkpt lat="45.75595" lon="3.37051">
        <ele>377</ele>
        <time>2024-04-28T08:05:49Z</time>
      </trkpt>
      <trkpt lat="45.75591" lon="3.37044">
        <ele>377</ele>
        <time>2024-04-28T08:05:50Z</time>
      </trkpt>
      <trkpt lat="45.75588" lon="3.37037">
        <ele>377.2</ele>
        <time>2024-04-28T08:05:51Z</time>
      </trkpt>
      <trkpt lat="45.75584" lon="3.3703">
        <ele>377.2</ele>
        <time>2024-04-28T08:05:52Z</time>
      </trkpt>
      <trkpt lat="45.75581" lon="3.37023">
        <ele>377.2</ele>
        <time>2024-04-28T08:05:53Z</time>
      </trkpt>
      <trkpt lat="45.75577" lon="3.37015">
        <ele>377.4</ele>
        <time>2024-04-28T08:05:54Z</time>
      </trkpt>
      <trkpt lat="45.75574" lon="3.37008">
        <ele>377.4</ele>
        <time>2024-04-28T08:05:55Z</time>
      </trkpt>
      <trkpt lat="45.75571" lon="3.37">
        <ele>377.6</ele>
        <time>2024-04-28T08:05:56Z</time>
      </trkpt>
      <trkpt lat="45.75567" lon="3.36993">
        <ele>377.6</ele>
        <time>2024-04-28T08:05:57Z</time>
      </trkpt>
      <trkpt lat="45.75563" lon="3.36985">
        <ele>377.8</ele>
        <time>2024-04-28T08:05:58Z</time>
      </trkpt>
      <trkpt lat="45.7556" lon="3.36978">
        <ele>377.8</ele>
        <time>2024-04-28T08:05:59Z</time>
      </trkpt>
      <trkpt lat="45.75557" lon="3.36971">
        <ele>377.8</ele>
        <time>2024-04-28T08:06:00Z</time>
      </trkpt>
      <trkpt lat="45.75553" lon="3.36964">
        <ele>378</ele>
        <time>2024-04-28T08:06:01Z</time>
      </trkpt>
      <trkpt lat="45.7555" lon="3.36957">
        <ele>378</ele>
        <time>2024-04-28T08:06:02Z</time>
      </trkpt>
      <trkpt lat="45.75547" lon="3.3695">
        <ele>378</ele>
        <time>2024-04-28T08:06:03Z</time>
      </trkpt>
      <trkpt lat="45.75543" lon="3.36943">
        <ele>378.2</ele>
        <time>2024-04-28T08:06:04Z</time>
      </trkpt>
      <trkpt lat="45.7554" lon="3.36936">
        <ele>378.2</ele>
        <time>2024-04-28T08:06:05Z</time>
      </trkpt>
      <trkpt lat="45.75537" lon="3.36929">
        <ele>378.4</ele>
        <time>2024-04-28T08:06:06Z</time>
      </trkpt>
      <trkpt lat="45.75533" lon="3.36922">
        <ele>378.4</ele>
        <time>2024-04-28T08:06:07Z</time>
      </trkpt>
      <trkpt lat="45.75529" lon="3.36914">
        <ele>378.4</ele>
        <time>2024-04-28T08:06:08Z</time>
      </trkpt>
      <trkpt lat="45.75526" lon="3.36907">
        <ele>378.4</ele>
        <time>2024-04-28T08:06:09Z</time>
      </trkpt>
      <trkpt lat="45.75522" lon="3.36898">
        <ele>378.6</ele>
        <time>2024-04-28T08:06:10Z</time>
      </trkpt>
      <trkpt lat="45.75518" lon="3.36891">
        <ele>378.6</ele>
        <time>2024-04-28T08:06:11Z</time>
      </trkpt>
      <trkpt lat="45.75514" lon="3.36883">
        <ele>378.6</ele>
        <time>2024-04-28T08:06:12Z</time>
      </trkpt>
      <trkpt lat="45.7551" lon="3.36875">
        <ele>378.8</ele>
        <time>2024-04-28T08:06:13Z</time>
      </trkpt>
      <trkpt lat="45.75506" lon="3.36867">
        <ele>378.8</ele>
        <time>2024-04-28T08:06:14Z</time>
      </trkpt>
      <trkpt lat="45.75502" lon="3.36859">
        <ele>378.8</ele>
        <time>2024-04-28T08:06:15Z</time>
      </trkpt>
      <trkpt lat="45.75499" lon="3.36852">
        <ele>378.8</ele>
        <time>2024-04-28T08:06:16Z</time>
      </trkpt>
      <trkpt lat="45.75495" lon="3.36844">
        <ele>378.8</ele>
        <time>2024-04-28T08:06:17Z</time>
      </trkpt>
      <trkpt lat="45.75491" lon="3.36836">
        <ele>378.8</ele>
        <time>2024-04-28T08:06:18Z</time>
      </trkpt>
      <trkpt lat="45.75487" lon="3.36828">
        <ele>378.8</ele>
        <time>2024-04-28T08:06:19Z</time>
      </trkpt>
      <trkpt lat="45.75483" lon="3.36819">
        <ele>378.8</ele>
        <time>2024-04-28T08:06:20Z</time>
      </trkpt>
      <trkpt lat="45.75479" lon="3.36811">
        <ele>378.8</ele>
        <time>2024-04-28T08:06:21Z</time>
      </trkpt>
      <trkpt lat="45.75475" lon="3.36803">
        <ele>379</ele>
        <time>2024-04-28T08:06:22Z</time>
      </trkpt>
      <trkpt lat="45.7547" lon="3.36794">
        <ele>379</ele>
        <time>2024-04-28T08:06:23Z</time>
      </trkpt>
      <trkpt lat="45.75466" lon="3.36785">
        <ele>379</ele>
        <time>2024-04-28T08:06:24Z</time>
      </trkpt>
      <trkpt lat="45.75462" lon="3.36777">
        <ele>379</ele>
        <time>2024-04-28T08:06:25Z</time>
      </trkpt>
      <trkpt lat="45.75458" lon="3.36768">
        <ele>379</ele>
        <time>2024-04-28T08:06:26Z</time>
      </trkpt>
      <trkpt lat="45.75453" lon="3.36759">
        <ele>379</ele>
        <time>2024-04-28T08:06:27Z</time>
      </trkpt>
      <trkpt lat="45.75449" lon="3.3675">
        <ele>379</ele>
        <time>2024-04-28T08:06:28Z</time>
      </trkpt>
      <trkpt lat="45.75445" lon="3.36742">
        <ele>379</ele>
        <time>2024-04-28T08:06:29Z</time>
      </trkpt>
      <trkpt lat="45.7544" lon="3.36733">
        <ele>379</ele>
        <time>2024-04-28T08:06:30Z</time>
      </trkpt>
      <trkpt lat="45.75436" lon="3.36725">
        <ele>379</ele>
        <time>2024-04-28T08:06:31Z</time>
      </trkpt>
      <trkpt lat="45.75432" lon="3.36716">
        <ele>379</ele>
        <time>2024-04-28T08:06:32Z</time>
      </trkpt>
      <trkpt lat="45.75428" lon="3.36708">
        <ele>379</ele>
        <time>2024-04-28T08:06:33Z</time>
      </trkpt>
      <trkpt lat="45.75424" lon="3.367">
        <ele>379</ele>
        <time>2024-04-28T08:06:34Z</time>
      </trkpt>
      <trkpt lat="45.7542" lon="3.36691">
        <ele>379</ele>
        <time>2024-04-28T08:06:35Z</time>
      </trkpt>
      <trkpt lat="45.75415" lon="3.36682">
        <ele>379</ele>
        <time>2024-04-28T08:06:36Z</time>
      </trkpt>
      <trkpt lat="45.7541" lon="3.36674">
        <ele>379</ele>
        <time>2024-04-28T08:06:37Z</time>
      </trkpt>
      <trkpt lat="45.75405" lon="3.36667">
        <ele>379</ele>
        <time>2024-04-28T08:06:38Z</time>
      </trkpt>
      <trkpt lat="45.75399" lon="3.36659">
        <ele>379</ele>
        <time>2024-04-28T08:06:39Z</time>
      </trkpt>
      <trkpt lat="45.75394" lon="3.36652">
        <ele>379</ele>
        <time>2024-04-28T08:06:40Z</time>
      </trkpt>
      <trkpt lat="45.75388" lon="3.36644">
        <ele>379</ele>
        <time>2024-04-28T08:06:41Z</time>
      </trkpt>
      <trkpt lat="45.75383" lon="3.36637">
        <ele>379</ele>
        <time>2024-04-28T08:06:42Z</time>
      </trkpt>
      <trkpt lat="45.75377" lon="3.36629">
        <ele>379</ele>
        <time>2024-04-28T08:06:43Z</time>
      </trkpt>
      <trkpt lat="45.75372" lon="3.36622">
        <ele>379</ele>
        <time>2024-04-28T08:06:44Z</time>
      </trkpt>
      <trkpt lat="45.75366" lon="3.36615">
        <ele>379</ele>
        <time>2024-04-28T08:06:45Z</time>
      </trkpt>
      <trkpt lat="45.75361" lon="3.36608">
        <ele>379</ele>
        <time>2024-04-28T08:06:46Z</time>
      </trkpt>
      <trkpt lat="45.75356" lon="3.36601">
        <ele>379</ele>
        <time>2024-04-28T08:06:47Z</time>
      </trkpt>
      <trkpt lat="45.75351" lon="3.36594">
        <ele>379</ele>
        <time>2024-04-28T08:06:48Z</time>
      </trkpt>
      <trkpt lat="45.75346" lon="3.36587">
        <ele>379</ele>
        <time>2024-04-28T08:06:49Z</time>
      </trkpt>
      <trkpt lat="45.7534" lon="3.3658">
        <ele>379</ele>
        <time>2024-04-28T08:06:50Z</time>
      </trkpt>
      <trkpt lat="45.75335" lon="3.36573">
        <ele>379</ele>
        <time>2024-04-28T08:06:51Z</time>
      </trkpt>
      <trkpt lat="45.75331" lon="3.36567">
        <ele>378.8</ele>
        <time>2024-04-28T08:06:52Z</time>
      </trkpt>
      <trkpt lat="45.75325" lon="3.3656">
        <ele>379</ele>
        <time>2024-04-28T08:06:53Z</time>
      </trkpt>
      <trkpt lat="45.7532" lon="3.36553">
        <ele>379</ele>
        <time>2024-04-28T08:06:54Z</time>
      </trkpt>
      <trkpt lat="45.75315" lon="3.36546">
        <ele>379</ele>
        <time>2024-04-28T08:06:55Z</time>
      </trkpt>
      <trkpt lat="45.7531" lon="3.36539">
        <ele>379</ele>
        <time>2024-04-28T08:06:56Z</time>
      </trkpt>
      <trkpt lat="45.75305" lon="3.36532">
        <ele>379</ele>
        <time>2024-04-28T08:06:57Z</time>
      </trkpt>
      <trkpt lat="45.75299" lon="3.36525">
        <ele>379</ele>
        <time>2024-04-28T08:06:58Z</time>
      </trkpt>
      <trkpt lat="45.75294" lon="3.36518">
        <ele>379</ele>
        <time>2024-04-28T08:06:59Z</time>
      </trkpt>
      <trkpt lat="45.75289" lon="3.36511">
        <ele>379</ele>
        <time>2024-04-28T08:07:00Z</time>
      </trkpt>
      <trkpt lat="45.75279" lon="3.36495">
        <ele>379</ele>
        <time>2024-04-28T08:07:01Z</time>
      </trkpt>
      <trkpt lat="45.75279" lon="3.36495">
        <ele>379</ele>
        <time>2024-04-28T08:07:02Z</time>
      </trkpt>
      <trkpt lat="45.75273" lon="3.36487">
        <ele>379</ele>
        <time>2024-04-28T08:07:03Z</time>
      </trkpt>
      <trkpt lat="45.75268" lon="3.3648">
        <ele>379</ele>
        <time>2024-04-28T08:07:04Z</time>
      </trkpt>
      <trkpt lat="45.75263" lon="3.36472">
        <ele>379</ele>
        <time>2024-04-28T08:07:05Z</time>
      </trkpt>
      <trkpt lat="45.75258" lon="3.36464">
        <ele>379</ele>
        <time>2024-04-28T08:07:06Z</time>
      </trkpt>
      <trkpt lat="45.75254" lon="3.36456">
        <ele>379</ele>
        <time>2024-04-28T08:07:07Z</time>
      </trkpt>
      <trkpt lat="45.75251" lon="3.36447">
        <ele>379</ele>
        <time>2024-04-28T08:07:08Z</time>
      </trkpt>
      <trkpt lat="45.75247" lon="3.36438">
        <ele>379</ele>
        <time>2024-04-28T08:07:09Z</time>
      </trkpt>
      <trkpt lat="45.75239" lon="3.36421">
        <ele>378.8</ele>
        <time>2024-04-28T08:07:10Z</time>
      </trkpt>
      <trkpt lat="45.75239" lon="3.36421">
        <ele>378.8</ele>
        <time>2024-04-28T08:07:11Z</time>
      </trkpt>
      <trkpt lat="45.75236" lon="3.36411">
        <ele>378.8</ele>
        <time>2024-04-28T08:07:12Z</time>
      </trkpt>
      <trkpt lat="45.75233" lon="3.36401">
        <ele>378.8</ele>
        <time>2024-04-28T08:07:13Z</time>
      </trkpt>
      <trkpt lat="45.7523" lon="3.36391">
        <ele>378.6</ele>
        <time>2024-04-28T08:07:14Z</time>
      </trkpt>
      <trkpt lat="45.75227" lon="3.36381">
        <ele>378.4</ele>
        <time>2024-04-28T08:07:15Z</time>
      </trkpt>
      <trkpt lat="45.75224" lon="3.36371">
        <ele>378.4</ele>
        <time>2024-04-28T08:07:16Z</time>
      </trkpt>
      <trkpt lat="45.75221" lon="3.36361">
        <ele>378.4</ele>
        <time>2024-04-28T08:07:17Z</time>
      </trkpt>
      <trkpt lat="45.75218" lon="3.3635">
        <ele>378.2</ele>
        <time>2024-04-28T08:07:18Z</time>
      </trkpt>
      <trkpt lat="45.75215" lon="3.3634">
        <ele>378</ele>
        <time>2024-04-28T08:07:19Z</time>
      </trkpt>
      <trkpt lat="45.75212" lon="3.36329">
        <ele>378</ele>
        <time>2024-04-28T08:07:20Z</time>
      </trkpt>
      <trkpt lat="45.7521" lon="3.36317">
        <ele>377.8</ele>
        <time>2024-04-28T08:07:21Z</time>
      </trkpt>
      <trkpt lat="45.75209" lon="3.36306">
        <ele>377.8</ele>
        <time>2024-04-28T08:07:22Z</time>
      </trkpt>
      <trkpt lat="45.75207" lon="3.36293">
        <ele>377.6</ele>
        <time>2024-04-28T08:07:23Z</time>
      </trkpt>
      <trkpt lat="45.75206" lon="3.36281">
        <ele>377.6</ele>
        <time>2024-04-28T08:07:24Z</time>
      </trkpt>
      <trkpt lat="45.75204" lon="3.36269">
        <ele>377.4</ele>
        <time>2024-04-28T08:07:25Z</time>
      </trkpt>
      <trkpt lat="45.75203" lon="3.36256">
        <ele>377.4</ele>
        <time>2024-04-28T08:07:26Z</time>
      </trkpt>
      <trkpt lat="45.75201" lon="3.36243">
        <ele>377.2</ele>
        <time>2024-04-28T08:07:27Z</time>
      </trkpt>
      <trkpt lat="45.752" lon="3.3623">
        <ele>377</ele>
        <time>2024-04-28T08:07:28Z</time>
      </trkpt>
      <trkpt lat="45.75198" lon="3.36217">
        <ele>377</ele>
        <time>2024-04-28T08:07:29Z</time>
      </trkpt>
      <trkpt lat="45.75199" lon="3.36204">
        <ele>376.6</ele>
        <time>2024-04-28T08:07:30Z</time>
      </trkpt>
      <trkpt lat="45.75199" lon="3.3619">
        <ele>376.6</ele>
        <time>2024-04-28T08:07:31Z</time>
      </trkpt>
      <trkpt lat="45.75199" lon="3.36176">
        <ele>376.4</ele>
        <time>2024-04-28T08:07:32Z</time>
      </trkpt>
      <trkpt lat="45.752" lon="3.36162">
        <ele>376.2</ele>
        <time>2024-04-28T08:07:33Z</time>
      </trkpt>
      <trkpt lat="45.752" lon="3.36148">
        <ele>376</ele>
        <time>2024-04-28T08:07:34Z</time>
      </trkpt>
      <trkpt lat="45.75201" lon="3.36134">
        <ele>375.8</ele>
        <time>2024-04-28T08:07:35Z</time>
      </trkpt>
      <trkpt lat="45.75203" lon="3.3612">
        <ele>375.6</ele>
        <time>2024-04-28T08:07:36Z</time>
      </trkpt>
      <trkpt lat="45.75205" lon="3.36106">
        <ele>375.6</ele>
        <time>2024-04-28T08:07:37Z</time>
      </trkpt>
      <trkpt lat="45.75208" lon="3.36092">
        <ele>375.4</ele>
        <time>2024-04-28T08:07:38Z</time>
      </trkpt>
      <trkpt lat="45.7521" lon="3.36078">
        <ele>375.2</ele>
        <time>2024-04-28T08:07:39Z</time>
      </trkpt>
      <trkpt lat="45.75213" lon="3.36064">
        <ele>375</ele>
        <time>2024-04-28T08:07:40Z</time>
      </trkpt>
      <trkpt lat="45.75215" lon="3.3605">
        <ele>374.8</ele>
        <time>2024-04-28T08:07:41Z</time>
      </trkpt>
      <trkpt lat="45.75218" lon="3.36036">
        <ele>374.6</ele>
        <time>2024-04-28T08:07:42Z</time>
      </trkpt>
      <trkpt lat="45.7522" lon="3.36022">
        <ele>374.4</ele>
        <time>2024-04-28T08:07:43Z</time>
      </trkpt>
      <trkpt lat="45.75223" lon="3.36008">
        <ele>374.2</ele>
        <time>2024-04-28T08:07:44Z</time>
      </trkpt>
      <trkpt lat="45.75225" lon="3.35994">
        <ele>374.2</ele>
        <time>2024-04-28T08:07:45Z</time>
      </trkpt>
      <trkpt lat="45.75228" lon="3.3598">
        <ele>374</ele>
        <time>2024-04-28T08:07:46Z</time>
      </trkpt>
      <trkpt lat="45.7523" lon="3.35967">
        <ele>373.8</ele>
        <time>2024-04-28T08:07:47Z</time>
      </trkpt>
      <trkpt lat="45.75233" lon="3.35953">
        <ele>373.6</ele>
        <time>2024-04-28T08:07:48Z</time>
      </trkpt>
      <trkpt lat="45.75235" lon="3.3594">
        <ele>373.4</ele>
        <time>2024-04-28T08:07:49Z</time>
      </trkpt>
      <trkpt lat="45.75237" lon="3.35926">
        <ele>373.2</ele>
        <time>2024-04-28T08:07:50Z</time>
      </trkpt>
      <trkpt lat="45.7524" lon="3.35913">
        <ele>373</ele>
        <time>2024-04-28T08:07:51Z</time>
      </trkpt>
      <trkpt lat="45.75242" lon="3.359">
        <ele>373</ele>
        <time>2024-04-28T08:07:52Z</time>
      </trkpt>
      <trkpt lat="45.75244" lon="3.35887">
        <ele>372.8</ele>
        <time>2024-04-28T08:07:53Z</time>
      </trkpt>
      <trkpt lat="45.75247" lon="3.35874">
        <ele>372.8</ele>
        <time>2024-04-28T08:07:54Z</time>
      </trkpt>
      <trkpt lat="45.75249" lon="3.35862">
        <ele>372.8</ele>
        <time>2024-04-28T08:07:55Z</time>
      </trkpt>
      <trkpt lat="45.75251" lon="3.35849">
        <ele>372.6</ele>
        <time>2024-04-28T08:07:56Z</time>
      </trkpt>
      <trkpt lat="45.75253" lon="3.35836">
        <ele>372.6</ele>
        <time>2024-04-28T08:07:57Z</time>
      </trkpt>
      <trkpt lat="45.75256" lon="3.35824">
        <ele>372.4</ele>
        <time>2024-04-28T08:07:58Z</time>
      </trkpt>
      <trkpt lat="45.75258" lon="3.35812">
        <ele>372.4</ele>
        <time>2024-04-28T08:07:59Z</time>
      </trkpt>
      <trkpt lat="45.7526" lon="3.358">
        <ele>372.4</ele>
        <time>2024-04-28T08:08:00Z</time>
      </trkpt>
      <trkpt lat="45.75262" lon="3.35788">
        <ele>372.2</ele>
        <time>2024-04-28T08:08:01Z</time>
      </trkpt>
      <trkpt lat="45.75264" lon="3.35776">
        <ele>372.2</ele>
        <time>2024-04-28T08:08:02Z</time>
      </trkpt>
      <trkpt lat="45.75266" lon="3.35765">
        <ele>372</ele>
        <time>2024-04-28T08:08:03Z</time>
      </trkpt>
      <trkpt lat="45.75268" lon="3.35753">
        <ele>372</ele>
        <time>2024-04-28T08:08:04Z</time>
      </trkpt>
      <trkpt lat="45.7527" lon="3.35741">
        <ele>371.8</ele>
        <time>2024-04-28T08:08:05Z</time>
      </trkpt>
      <trkpt lat="45.75272" lon="3.3573">
        <ele>371.8</ele>
        <time>2024-04-28T08:08:06Z</time>
      </trkpt>
      <trkpt lat="45.75274" lon="3.35719">
        <ele>371.6</ele>
        <time>2024-04-28T08:08:07Z</time>
      </trkpt>
      <trkpt lat="45.75276" lon="3.35708">
        <ele>371.6</ele>
        <time>2024-04-28T08:08:08Z</time>
      </trkpt>
      <trkpt lat="45.75278" lon="3.35697">
        <ele>371.4</ele>
        <time>2024-04-28T08:08:09Z</time>
      </trkpt>
      <trkpt lat="45.7528" lon="3.35686">
        <ele>371.4</ele>
        <time>2024-04-28T08:08:10Z</time>
      </trkpt>
      <trkpt lat="45.75282" lon="3.35675">
        <ele>371.2</ele>
        <time>2024-04-28T08:08:11Z</time>
      </trkpt>
      <trkpt lat="45.75284" lon="3.35664">
        <ele>371.2</ele>
        <time>2024-04-28T08:08:12Z</time>
      </trkpt>
      <trkpt lat="45.75286" lon="3.35652">
        <ele>371</ele>
        <time>2024-04-28T08:08:13Z</time>
      </trkpt>
      <trkpt lat="45.75288" lon="3.35641">
        <ele>371</ele>
        <time>2024-04-28T08:08:14Z</time>
      </trkpt>
      <trkpt lat="45.75291" lon="3.35629">
        <ele>370.8</ele>
        <time>2024-04-28T08:08:15Z</time>
      </trkpt>
      <trkpt lat="45.75293" lon="3.35617">
        <ele>370.6</ele>
        <time>2024-04-28T08:08:16Z</time>
      </trkpt>
      <trkpt lat="45.75295" lon="3.35606">
        <ele>370.6</ele>
        <time>2024-04-28T08:08:17Z</time>
      </trkpt>
      <trkpt lat="45.75297" lon="3.35594">
        <ele>370.4</ele>
        <time>2024-04-28T08:08:18Z</time>
      </trkpt>
      <trkpt lat="45.75299" lon="3.35583">
        <ele>370.2</ele>
        <time>2024-04-28T08:08:19Z</time>
      </trkpt>
      <trkpt lat="45.75301" lon="3.35571">
        <ele>370.2</ele>
        <time>2024-04-28T08:08:20Z</time>
      </trkpt>
      <trkpt lat="45.75303" lon="3.3556">
        <ele>370</ele>
        <time>2024-04-28T08:08:21Z</time>
      </trkpt>
      <trkpt lat="45.75305" lon="3.35549">
        <ele>370</ele>
        <time>2024-04-28T08:08:22Z</time>
      </trkpt>
      <trkpt lat="45.75307" lon="3.35538">
        <ele>369.8</ele>
        <time>2024-04-28T08:08:23Z</time>
      </trkpt>
      <trkpt lat="45.75309" lon="3.35527">
        <ele>369.8</ele>
        <time>2024-04-28T08:08:24Z</time>
      </trkpt>
      <trkpt lat="45.7531" lon="3.35517">
        <ele>369.6</ele>
        <time>2024-04-28T08:08:25Z</time>
      </trkpt>
      <trkpt lat="45.75312" lon="3.35508">
        <ele>369.4</ele>
        <time>2024-04-28T08:08:26Z</time>
      </trkpt>
      <trkpt lat="45.75319" lon="3.35501">
        <ele>369.2</ele>
        <time>2024-04-28T08:08:27Z</time>
      </trkpt>
      <trkpt lat="45.7532" lon="3.35493">
        <ele>369</ele>
        <time>2024-04-28T08:08:28Z</time>
      </trkpt>
      <trkpt lat="45.75314" lon="3.35482">
        <ele>368.8</ele>
        <time>2024-04-28T08:08:29Z</time>
      </trkpt>
      <trkpt lat="45.75306" lon="3.35484">
        <ele>368.8</ele>
        <time>2024-04-28T08:08:30Z</time>
      </trkpt>
      <trkpt lat="45.753" lon="3.35479">
        <ele>368.8</ele>
        <time>2024-04-28T08:08:31Z</time>
      </trkpt>
      <trkpt lat="45.75294" lon="3.35474">
        <ele>368.6</ele>
        <time>2024-04-28T08:08:32Z</time>
      </trkpt>
      <trkpt lat="45.75289" lon="3.35468">
        <ele>368.6</ele>
        <time>2024-04-28T08:08:33Z</time>
      </trkpt>
      <trkpt lat="45.75283" lon="3.35463">
        <ele>368.4</ele>
        <time>2024-04-28T08:08:34Z</time>
      </trkpt>
      <trkpt lat="45.75277" lon="3.35457">
        <ele>368.4</ele>
        <time>2024-04-28T08:08:35Z</time>
      </trkpt>
      <trkpt lat="45.75271" lon="3.35452">
        <ele>368.2</ele>
        <time>2024-04-28T08:08:36Z</time>
      </trkpt>
      <trkpt lat="45.75265" lon="3.35447">
        <ele>368.2</ele>
        <time>2024-04-28T08:08:37Z</time>
      </trkpt>
      <trkpt lat="45.75259" lon="3.35443">
        <ele>368</ele>
        <time>2024-04-28T08:08:38Z</time>
      </trkpt>
      <trkpt lat="45.75253" lon="3.3544">
        <ele>368</ele>
        <time>2024-04-28T08:08:39Z</time>
      </trkpt>
      <trkpt lat="45.75246" lon="3.35436">
        <ele>368</ele>
        <time>2024-04-28T08:08:40Z</time>
      </trkpt>
      <trkpt lat="45.7524" lon="3.35433">
        <ele>367.8</ele>
        <time>2024-04-28T08:08:41Z</time>
      </trkpt>
      <trkpt lat="45.75233" lon="3.35429">
        <ele>367.8</ele>
        <time>2024-04-28T08:08:42Z</time>
      </trkpt>
      <trkpt lat="45.75227" lon="3.35425">
        <ele>367.8</ele>
        <time>2024-04-28T08:08:43Z</time>
      </trkpt>
      <trkpt lat="45.7522" lon="3.35422">
        <ele>367.6</ele>
        <time>2024-04-28T08:08:44Z</time>
      </trkpt>
      <trkpt lat="45.75214" lon="3.35418">
        <ele>367.6</ele>
        <time>2024-04-28T08:08:45Z</time>
      </trkpt>
      <trkpt lat="45.75208" lon="3.35415">
        <ele>367.6</ele>
        <time>2024-04-28T08:08:46Z</time>
      </trkpt>
      <trkpt lat="45.75201" lon="3.35411">
        <ele>367.4</ele>
        <time>2024-04-28T08:08:47Z</time>
      </trkpt>
      <trkpt lat="45.75195" lon="3.35408">
        <ele>367.4</ele>
        <time>2024-04-28T08:08:48Z</time>
      </trkpt>
      <trkpt lat="45.75189" lon="3.35404">
        <ele>367.4</ele>
        <time>2024-04-28T08:08:49Z</time>
      </trkpt>
      <trkpt lat="45.75183" lon="3.35401">
        <ele>367.4</ele>
        <time>2024-04-28T08:08:50Z</time>
      </trkpt>
      <trkpt lat="45.75177" lon="3.35398">
        <ele>367.4</ele>
        <time>2024-04-28T08:08:51Z</time>
      </trkpt>
      <trkpt lat="45.7517" lon="3.35394">
        <ele>367.4</ele>
        <time>2024-04-28T08:08:52Z</time>
      </trkpt>
      <trkpt lat="45.75164" lon="3.35391">
        <ele>367.4</ele>
        <time>2024-04-28T08:08:53Z</time>
      </trkpt>
      <trkpt lat="45.75158" lon="3.35387">
        <ele>367.4</ele>
        <time>2024-04-28T08:08:54Z</time>
      </trkpt>
      <trkpt lat="45.75151" lon="3.35383">
        <ele>367.2</ele>
        <time>2024-04-28T08:08:55Z</time>
      </trkpt>
      <trkpt lat="45.75145" lon="3.35381">
        <ele>367.2</ele>
        <time>2024-04-28T08:08:56Z</time>
      </trkpt>
      <trkpt lat="45.75137" lon="3.35378">
        <ele>367.2</ele>
        <time>2024-04-28T08:08:57Z</time>
      </trkpt>
      <trkpt lat="45.75131" lon="3.35374">
        <ele>367</ele>
        <time>2024-04-28T08:08:58Z</time>
      </trkpt>
      <trkpt lat="45.75124" lon="3.35371">
        <ele>367</ele>
        <time>2024-04-28T08:08:59Z</time>
      </trkpt>
      <trkpt lat="45.75118" lon="3.35368">
        <ele>367</ele>
        <time>2024-04-28T08:09:00Z</time>
      </trkpt>
      <trkpt lat="45.75111" lon="3.35365">
        <ele>366.8</ele>
        <time>2024-04-28T08:09:01Z</time>
      </trkpt>
      <trkpt lat="45.75105" lon="3.35363">
        <ele>366.8</ele>
        <time>2024-04-28T08:09:02Z</time>
      </trkpt>
      <trkpt lat="45.75099" lon="3.3536">
        <ele>366.6</ele>
        <time>2024-04-28T08:09:03Z</time>
      </trkpt>
      <trkpt lat="45.75093" lon="3.35358">
        <ele>366.6</ele>
        <time>2024-04-28T08:09:04Z</time>
      </trkpt>
      <trkpt lat="45.75086" lon="3.35355">
        <ele>366.6</ele>
        <time>2024-04-28T08:09:05Z</time>
      </trkpt>
      <trkpt lat="45.7508" lon="3.35353">
        <ele>366.6</ele>
        <time>2024-04-28T08:09:06Z</time>
      </trkpt>
      <trkpt lat="45.75073" lon="3.3535">
        <ele>366.4</ele>
        <time>2024-04-28T08:09:07Z</time>
      </trkpt>
      <trkpt lat="45.75067" lon="3.35348">
        <ele>366.4</ele>
        <time>2024-04-28T08:09:08Z</time>
      </trkpt>
      <trkpt lat="45.75061" lon="3.35345">
        <ele>366.4</ele>
        <time>2024-04-28T08:09:09Z</time>
      </trkpt>
      <trkpt lat="45.75054" lon="3.35343">
        <ele>366.2</ele>
        <time>2024-04-28T08:09:10Z</time>
      </trkpt>
      <trkpt lat="45.75048" lon="3.3534">
        <ele>366.2</ele>
        <time>2024-04-28T08:09:11Z</time>
      </trkpt>
      <trkpt lat="45.75041" lon="3.35337">
        <ele>366.2</ele>
        <time>2024-04-28T08:09:12Z</time>
      </trkpt>
      <trkpt lat="45.75035" lon="3.35335">
        <ele>366</ele>
        <time>2024-04-28T08:09:13Z</time>
      </trkpt>
      <trkpt lat="45.75028" lon="3.35332">
        <ele>366.2</ele>
        <time>2024-04-28T08:09:14Z</time>
      </trkpt>
      <trkpt lat="45.75021" lon="3.35329">
        <ele>366</ele>
        <time>2024-04-28T08:09:15Z</time>
      </trkpt>
      <trkpt lat="45.75014" lon="3.35327">
        <ele>366</ele>
        <time>2024-04-28T08:09:16Z</time>
      </trkpt>
      <trkpt lat="45.75007" lon="3.35324">
        <ele>366</ele>
        <time>2024-04-28T08:09:17Z</time>
      </trkpt>
      <trkpt lat="45.75" lon="3.35321">
        <ele>366</ele>
        <time>2024-04-28T08:09:18Z</time>
      </trkpt>
      <trkpt lat="45.74993" lon="3.35318">
        <ele>366</ele>
        <time>2024-04-28T08:09:19Z</time>
      </trkpt>
      <trkpt lat="45.74986" lon="3.35315">
        <ele>366</ele>
        <time>2024-04-28T08:09:20Z</time>
      </trkpt>
      <trkpt lat="45.74979" lon="3.35312">
        <ele>365.8</ele>
        <time>2024-04-28T08:09:21Z</time>
      </trkpt>
      <trkpt lat="45.74972" lon="3.35309">
        <ele>365.8</ele>
        <time>2024-04-28T08:09:22Z</time>
      </trkpt>
      <trkpt lat="45.74966" lon="3.35306">
        <ele>365.8</ele>
        <time>2024-04-28T08:09:23Z</time>
      </trkpt>
      <trkpt lat="45.7496" lon="3.35302">
        <ele>365.8</ele>
        <time>2024-04-28T08:09:24Z</time>
      </trkpt>
      <trkpt lat="45.74953" lon="3.35299">
        <ele>365.6</ele>
        <time>2024-04-28T08:09:25Z</time>
      </trkpt>
      <trkpt lat="45.74946" lon="3.35295">
        <ele>365.6</ele>
        <time>2024-04-28T08:09:26Z</time>
      </trkpt>
      <trkpt lat="45.7494" lon="3.35292">
        <ele>365.6</ele>
        <time>2024-04-28T08:09:27Z</time>
      </trkpt>
      <trkpt lat="45.74933" lon="3.35287">
        <ele>365.4</ele>
        <time>2024-04-28T08:09:28Z</time>
      </trkpt>
      <trkpt lat="45.74927" lon="3.35281">
        <ele>365.4</ele>
        <time>2024-04-28T08:09:29Z</time>
      </trkpt>
      <trkpt lat="45.74921" lon="3.35276">
        <ele>365.4</ele>
        <time>2024-04-28T08:09:30Z</time>
      </trkpt>
      <trkpt lat="45.74915" lon="3.35271">
        <ele>365.4</ele>
        <time>2024-04-28T08:09:31Z</time>
      </trkpt>
      <trkpt lat="45.74909" lon="3.35265">
        <ele>365.4</ele>
        <time>2024-04-28T08:09:32Z</time>
      </trkpt>
      <trkpt lat="45.74903" lon="3.3526">
        <ele>365.2</ele>
        <time>2024-04-28T08:09:33Z</time>
      </trkpt>
      <trkpt lat="45.74897" lon="3.35254">
        <ele>365.2</ele>
        <time>2024-04-28T08:09:34Z</time>
      </trkpt>
      <trkpt lat="45.74891" lon="3.35247">
        <ele>365.2</ele>
        <time>2024-04-28T08:09:35Z</time>
      </trkpt>
      <trkpt lat="45.74885" lon="3.35241">
        <ele>365.2</ele>
        <time>2024-04-28T08:09:36Z</time>
      </trkpt>
      <trkpt lat="45.74879" lon="3.35235">
        <ele>365</ele>
        <time>2024-04-28T08:09:37Z</time>
      </trkpt>
      <trkpt lat="45.74873" lon="3.35229">
        <ele>365</ele>
        <time>2024-04-28T08:09:38Z</time>
      </trkpt>
      <trkpt lat="45.74867" lon="3.35223">
        <ele>365</ele>
        <time>2024-04-28T08:09:39Z</time>
      </trkpt>
      <trkpt lat="45.74861" lon="3.35217">
        <ele>364.8</ele>
        <time>2024-04-28T08:09:40Z</time>
      </trkpt>
      <trkpt lat="45.74855" lon="3.35211">
        <ele>364.8</ele>
        <time>2024-04-28T08:09:41Z</time>
      </trkpt>
      <trkpt lat="45.74849" lon="3.35205">
        <ele>364.8</ele>
        <time>2024-04-28T08:09:42Z</time>
      </trkpt>
      <trkpt lat="45.74843" lon="3.35199">
        <ele>364.8</ele>
        <time>2024-04-28T08:09:43Z</time>
      </trkpt>
      <trkpt lat="45.74837" lon="3.35193">
        <ele>364.6</ele>
        <time>2024-04-28T08:09:44Z</time>
      </trkpt>
      <trkpt lat="45.74831" lon="3.35186">
        <ele>364.6</ele>
        <time>2024-04-28T08:09:45Z</time>
      </trkpt>
      <trkpt lat="45.74825" lon="3.3518">
        <ele>364.6</ele>
        <time>2024-04-28T08:09:46Z</time>
      </trkpt>
      <trkpt lat="45.74819" lon="3.35174">
        <ele>364.6</ele>
        <time>2024-04-28T08:09:47Z</time>
      </trkpt>
      <trkpt lat="45.74813" lon="3.35168">
        <ele>364.6</ele>
        <time>2024-04-28T08:09:48Z</time>
      </trkpt>
      <trkpt lat="45.74807" lon="3.35162">
        <ele>364.6</ele>
        <time>2024-04-28T08:09:49Z</time>
      </trkpt>
      <trkpt lat="45.74801" lon="3.35156">
        <ele>364.4</ele>
        <time>2024-04-28T08:09:50Z</time>
      </trkpt>
      <trkpt lat="45.74795" lon="3.35149">
        <ele>364.4</ele>
        <time>2024-04-28T08:09:51Z</time>
      </trkpt>
      <trkpt lat="45.74788" lon="3.35143">
        <ele>364.4</ele>
        <time>2024-04-28T08:09:52Z</time>
      </trkpt>
      <trkpt lat="45.74782" lon="3.35137">
        <ele>364.4</ele>
        <time>2024-04-28T08:09:53Z</time>
      </trkpt>
      <trkpt lat="45.74775" lon="3.3513">
        <ele>364.4</ele>
        <time>2024-04-28T08:09:54Z</time>
      </trkpt>
      <trkpt lat="45.74768" lon="3.35124">
        <ele>364.2</ele>
        <time>2024-04-28T08:09:55Z</time>
      </trkpt>
      <trkpt lat="45.74761" lon="3.35118">
        <ele>364.2</ele>
        <time>2024-04-28T08:09:56Z</time>
      </trkpt>
      <trkpt lat="45.74754" lon="3.35113">
        <ele>364</ele>
        <time>2024-04-28T08:09:57Z</time>
      </trkpt>
      <trkpt lat="45.74748" lon="3.35107">
        <ele>364</ele>
        <time>2024-04-28T08:09:58Z</time>
      </trkpt>
      <trkpt lat="45.7474" lon="3.35102">
        <ele>363.8</ele>
        <time>2024-04-28T08:09:59Z</time>
      </trkpt>
      <trkpt lat="45.74725" lon="3.35093">
        <ele>363.6</ele>
        <time>2024-04-28T08:10:00Z</time>
      </trkpt>
      <trkpt lat="45.74725" lon="3.35093">
        <ele>363.6</ele>
        <time>2024-04-28T08:10:01Z</time>
      </trkpt>
      <trkpt lat="45.74718" lon="3.35088">
        <ele>363.6</ele>
        <time>2024-04-28T08:10:02Z</time>
      </trkpt>
      <trkpt lat="45.7471" lon="3.35084">
        <ele>363.4</ele>
        <time>2024-04-28T08:10:03Z</time>
      </trkpt>
      <trkpt lat="45.74702" lon="3.35079">
        <ele>363.4</ele>
        <time>2024-04-28T08:10:04Z</time>
      </trkpt>
      <trkpt lat="45.74695" lon="3.35075">
        <ele>363.2</ele>
        <time>2024-04-28T08:10:05Z</time>
      </trkpt>
      <trkpt lat="45.74687" lon="3.3507">
        <ele>363</ele>
        <time>2024-04-28T08:10:06Z</time>
      </trkpt>
      <trkpt lat="45.74679" lon="3.35066">
        <ele>363</ele>
        <time>2024-04-28T08:10:07Z</time>
      </trkpt>
      <trkpt lat="45.74671" lon="3.35063">
        <ele>362.8</ele>
        <time>2024-04-28T08:10:08Z</time>
      </trkpt>
      <trkpt lat="45.74663" lon="3.3506">
        <ele>362.8</ele>
        <time>2024-04-28T08:10:09Z</time>
      </trkpt>
      <trkpt lat="45.74655" lon="3.35056">
        <ele>362.8</ele>
        <time>2024-04-28T08:10:10Z</time>
      </trkpt>
      <trkpt lat="45.74648" lon="3.35053">
        <ele>362.6</ele>
        <time>2024-04-28T08:10:11Z</time>
      </trkpt>
      <trkpt lat="45.74639" lon="3.3505">
        <ele>362.4</ele>
        <time>2024-04-28T08:10:12Z</time>
      </trkpt>
      <trkpt lat="45.74632" lon="3.35047">
        <ele>362.4</ele>
        <time>2024-04-28T08:10:13Z</time>
      </trkpt>
      <trkpt lat="45.74624" lon="3.35044">
        <ele>362.2</ele>
        <time>2024-04-28T08:10:14Z</time>
      </trkpt>
      <trkpt lat="45.74615" lon="3.3504">
        <ele>362</ele>
        <time>2024-04-28T08:10:15Z</time>
      </trkpt>
      <trkpt lat="45.74607" lon="3.35037">
        <ele>362</ele>
        <time>2024-04-28T08:10:16Z</time>
      </trkpt>
      <trkpt lat="45.74599" lon="3.35034">
        <ele>361.8</ele>
        <time>2024-04-28T08:10:17Z</time>
      </trkpt>
      <trkpt lat="45.74591" lon="3.35031">
        <ele>361.8</ele>
        <time>2024-04-28T08:10:18Z</time>
      </trkpt>
      <trkpt lat="45.74583" lon="3.35027">
        <ele>361.6</ele>
        <time>2024-04-28T08:10:19Z</time>
      </trkpt>
      <trkpt lat="45.74575" lon="3.35024">
        <ele>361.4</ele>
        <time>2024-04-28T08:10:20Z</time>
      </trkpt>
      <trkpt lat="45.74567" lon="3.35021">
        <ele>361.4</ele>
        <time>2024-04-28T08:10:21Z</time>
      </trkpt>
      <trkpt lat="45.74559" lon="3.35018">
        <ele>361.2</ele>
        <time>2024-04-28T08:10:22Z</time>
      </trkpt>
      <trkpt lat="45.74551" lon="3.35015">
        <ele>361.2</ele>
        <time>2024-04-28T08:10:23Z</time>
      </trkpt>
      <trkpt lat="45.74543" lon="3.35012">
        <ele>361</ele>
        <time>2024-04-28T08:10:24Z</time>
      </trkpt>
      <trkpt lat="45.74536" lon="3.35009">
        <ele>361</ele>
        <time>2024-04-28T08:10:25Z</time>
      </trkpt>
      <trkpt lat="45.74528" lon="3.35006">
        <ele>360.8</ele>
        <time>2024-04-28T08:10:26Z</time>
      </trkpt>
      <trkpt lat="45.7452" lon="3.35002">
        <ele>360.8</ele>
        <time>2024-04-28T08:10:27Z</time>
      </trkpt>
      <trkpt lat="45.74512" lon="3.34999">
        <ele>360.6</ele>
        <time>2024-04-28T08:10:28Z</time>
      </trkpt>
      <trkpt lat="45.74505" lon="3.34996">
        <ele>360.4</ele>
        <time>2024-04-28T08:10:29Z</time>
      </trkpt>
      <trkpt lat="45.74497" lon="3.34993">
        <ele>360.4</ele>
        <time>2024-04-28T08:10:30Z</time>
      </trkpt>
      <trkpt lat="45.74489" lon="3.3499">
        <ele>360.2</ele>
        <time>2024-04-28T08:10:31Z</time>
      </trkpt>
      <trkpt lat="45.74482" lon="3.34987">
        <ele>360.2</ele>
        <time>2024-04-28T08:10:32Z</time>
      </trkpt>
      <trkpt lat="45.74474" lon="3.34984">
        <ele>360</ele>
        <time>2024-04-28T08:10:33Z</time>
      </trkpt>
      <trkpt lat="45.74467" lon="3.34981">
        <ele>360</ele>
        <time>2024-04-28T08:10:34Z</time>
      </trkpt>
      <trkpt lat="45.7446" lon="3.34979">
        <ele>360</ele>
        <time>2024-04-28T08:10:35Z</time>
      </trkpt>
      <trkpt lat="45.74453" lon="3.34976">
        <ele>359.8</ele>
        <time>2024-04-28T08:10:36Z</time>
      </trkpt>
      <trkpt lat="45.74445" lon="3.34973">
        <ele>359.8</ele>
        <time>2024-04-28T08:10:37Z</time>
      </trkpt>
      <trkpt lat="45.74438" lon="3.3497">
        <ele>359.8</ele>
        <time>2024-04-28T08:10:38Z</time>
      </trkpt>
      <trkpt lat="45.74431" lon="3.34967">
        <ele>359.6</ele>
        <time>2024-04-28T08:10:39Z</time>
      </trkpt>
      <trkpt lat="45.74423" lon="3.34965">
        <ele>359.6</ele>
        <time>2024-04-28T08:10:40Z</time>
      </trkpt>
      <trkpt lat="45.74416" lon="3.34963">
        <ele>359.6</ele>
        <time>2024-04-28T08:10:41Z</time>
      </trkpt>
      <trkpt lat="45.74408" lon="3.34962">
        <ele>359.4</ele>
        <time>2024-04-28T08:10:42Z</time>
      </trkpt>
      <trkpt lat="45.74401" lon="3.34961">
        <ele>359.4</ele>
        <time>2024-04-28T08:10:43Z</time>
      </trkpt>
      <trkpt lat="45.74394" lon="3.34959">
        <ele>359.2</ele>
        <time>2024-04-28T08:10:44Z</time>
      </trkpt>
      <trkpt lat="45.74386" lon="3.34958">
        <ele>359.2</ele>
        <time>2024-04-28T08:10:45Z</time>
      </trkpt>
      <trkpt lat="45.74379" lon="3.34957">
        <ele>359.2</ele>
        <time>2024-04-28T08:10:46Z</time>
      </trkpt>
      <trkpt lat="45.74372" lon="3.34955">
        <ele>359</ele>
        <time>2024-04-28T08:10:47Z</time>
      </trkpt>
      <trkpt lat="45.74364" lon="3.34954">
        <ele>359</ele>
        <time>2024-04-28T08:10:48Z</time>
      </trkpt>
      <trkpt lat="45.74357" lon="3.34953">
        <ele>358.8</ele>
        <time>2024-04-28T08:10:49Z</time>
      </trkpt>
      <trkpt lat="45.74349" lon="3.34952">
        <ele>358.8</ele>
        <time>2024-04-28T08:10:50Z</time>
      </trkpt>
      <trkpt lat="45.74342" lon="3.3495">
        <ele>358.8</ele>
        <time>2024-04-28T08:10:51Z</time>
      </trkpt>
      <trkpt lat="45.74335" lon="3.34949">
        <ele>358.8</ele>
        <time>2024-04-28T08:10:52Z</time>
      </trkpt>
      <trkpt lat="45.74327" lon="3.34948">
        <ele>358.6</ele>
        <time>2024-04-28T08:10:53Z</time>
      </trkpt>
      <trkpt lat="45.7432" lon="3.34946">
        <ele>358.6</ele>
        <time>2024-04-28T08:10:54Z</time>
      </trkpt>
      <trkpt lat="45.74313" lon="3.34945">
        <ele>358.6</ele>
        <time>2024-04-28T08:10:55Z</time>
      </trkpt>
      <trkpt lat="45.74306" lon="3.34944">
        <ele>358.6</ele>
        <time>2024-04-28T08:10:56Z</time>
      </trkpt>
      <trkpt lat="45.74298" lon="3.34943">
        <ele>358.6</ele>
        <time>2024-04-28T08:10:57Z</time>
      </trkpt>
      <trkpt lat="45.74291" lon="3.34941">
        <ele>358.4</ele>
        <time>2024-04-28T08:10:58Z</time>
      </trkpt>
      <trkpt lat="45.74284" lon="3.3494">
        <ele>358.4</ele>
        <time>2024-04-28T08:10:59Z</time>
      </trkpt>
      <trkpt lat="45.74276" lon="3.34939">
        <ele>358.4</ele>
        <time>2024-04-28T08:11:00Z</time>
      </trkpt>
      <trkpt lat="45.74269" lon="3.34937">
        <ele>358.2</ele>
        <time>2024-04-28T08:11:01Z</time>
      </trkpt>
      <trkpt lat="45.74262" lon="3.34936">
        <ele>358.2</ele>
        <time>2024-04-28T08:11:02Z</time>
      </trkpt>
      <trkpt lat="45.74254" lon="3.34935">
        <ele>358.2</ele>
        <time>2024-04-28T08:11:03Z</time>
      </trkpt>
      <trkpt lat="45.74248" lon="3.34934">
        <ele>358.2</ele>
        <time>2024-04-28T08:11:04Z</time>
      </trkpt>
      <trkpt lat="45.7424" lon="3.34932">
        <ele>358</ele>
        <time>2024-04-28T08:11:05Z</time>
      </trkpt>
      <trkpt lat="45.74233" lon="3.34931">
        <ele>358</ele>
        <time>2024-04-28T08:11:06Z</time>
      </trkpt>
      <trkpt lat="45.74226" lon="3.34929">
        <ele>357.8</ele>
        <time>2024-04-28T08:11:07Z</time>
      </trkpt>
      <trkpt lat="45.74218" lon="3.34928">
        <ele>357.8</ele>
        <time>2024-04-28T08:11:08Z</time>
      </trkpt>
      <trkpt lat="45.74211" lon="3.34926">
        <ele>357.8</ele>
        <time>2024-04-28T08:11:09Z</time>
      </trkpt>
      <trkpt lat="45.74204" lon="3.34924">
        <ele>357.6</ele>
        <time>2024-04-28T08:11:10Z</time>
      </trkpt>
      <trkpt lat="45.74198" lon="3.34923">
        <ele>357.6</ele>
        <time>2024-04-28T08:11:11Z</time>
      </trkpt>
      <trkpt lat="45.7419" lon="3.34921">
        <ele>357.4</ele>
        <time>2024-04-28T08:11:12Z</time>
      </trkpt>
      <trkpt lat="45.74183" lon="3.34919">
        <ele>357.4</ele>
        <time>2024-04-28T08:11:13Z</time>
      </trkpt>
      <trkpt lat="45.74175" lon="3.34917">
        <ele>357.2</ele>
        <time>2024-04-28T08:11:14Z</time>
      </trkpt>
      <trkpt lat="45.74168" lon="3.34916">
        <ele>357.2</ele>
        <time>2024-04-28T08:11:15Z</time>
      </trkpt>
      <trkpt lat="45.7416" lon="3.34914">
        <ele>357</ele>
        <time>2024-04-28T08:11:16Z</time>
      </trkpt>
      <trkpt lat="45.74153" lon="3.34912">
        <ele>357</ele>
        <time>2024-04-28T08:11:17Z</time>
      </trkpt>
      <trkpt lat="45.74145" lon="3.3491">
        <ele>356.8</ele>
        <time>2024-04-28T08:11:18Z</time>
      </trkpt>
      <trkpt lat="45.74137" lon="3.34908">
        <ele>356.6</ele>
        <time>2024-04-28T08:11:19Z</time>
      </trkpt>
      <trkpt lat="45.74129" lon="3.34906">
        <ele>356.6</ele>
        <time>2024-04-28T08:11:20Z</time>
      </trkpt>
      <trkpt lat="45.74122" lon="3.34903">
        <ele>356.4</ele>
        <time>2024-04-28T08:11:21Z</time>
      </trkpt>
      <trkpt lat="45.74113" lon="3.349">
        <ele>356.4</ele>
        <time>2024-04-28T08:11:22Z</time>
      </trkpt>
      <trkpt lat="45.74105" lon="3.34897">
        <ele>356.2</ele>
        <time>2024-04-28T08:11:23Z</time>
      </trkpt>
      <trkpt lat="45.74096" lon="3.34894">
        <ele>356.2</ele>
        <time>2024-04-28T08:11:24Z</time>
      </trkpt>
      <trkpt lat="45.74088" lon="3.34891">
        <ele>356</ele>
        <time>2024-04-28T08:11:25Z</time>
      </trkpt>
      <trkpt lat="45.7408" lon="3.34888">
        <ele>355.8</ele>
        <time>2024-04-28T08:11:26Z</time>
      </trkpt>
      <trkpt lat="45.74072" lon="3.34885">
        <ele>355.8</ele>
        <time>2024-04-28T08:11:27Z</time>
      </trkpt>
      <trkpt lat="45.74063" lon="3.34882">
        <ele>355.6</ele>
        <time>2024-04-28T08:11:28Z</time>
      </trkpt>
      <trkpt lat="45.74055" lon="3.34878">
        <ele>355.6</ele>
        <time>2024-04-28T08:11:29Z</time>
      </trkpt>
      <trkpt lat="45.74046" lon="3.34875">
        <ele>355.4</ele>
        <time>2024-04-28T08:11:30Z</time>
      </trkpt>
      <trkpt lat="45.74038" lon="3.34872">
        <ele>355.2</ele>
        <time>2024-04-28T08:11:31Z</time>
      </trkpt>
      <trkpt lat="45.74029" lon="3.34869">
        <ele>355</ele>
        <time>2024-04-28T08:11:32Z</time>
      </trkpt>
      <trkpt lat="45.7402" lon="3.34866">
        <ele>355</ele>
        <time>2024-04-28T08:11:33Z</time>
      </trkpt>
      <trkpt lat="45.74012" lon="3.34862">
        <ele>354.8</ele>
        <time>2024-04-28T08:11:34Z</time>
      </trkpt>
      <trkpt lat="45.74003" lon="3.34859">
        <ele>354.6</ele>
        <time>2024-04-28T08:11:35Z</time>
      </trkpt>
      <trkpt lat="45.73994" lon="3.34856">
        <ele>354.4</ele>
        <time>2024-04-28T08:11:36Z</time>
      </trkpt>
      <trkpt lat="45.73986" lon="3.34853">
        <ele>354.4</ele>
        <time>2024-04-28T08:11:37Z</time>
      </trkpt>
      <trkpt lat="45.73977" lon="3.34849">
        <ele>354.2</ele>
        <time>2024-04-28T08:11:38Z</time>
      </trkpt>
      <trkpt lat="45.73969" lon="3.34844">
        <ele>354</ele>
        <time>2024-04-28T08:11:39Z</time>
      </trkpt>
      <trkpt lat="45.7396" lon="3.3484">
        <ele>353.8</ele>
        <time>2024-04-28T08:11:40Z</time>
      </trkpt>
      <trkpt lat="45.73952" lon="3.34835">
        <ele>353.8</ele>
        <time>2024-04-28T08:11:41Z</time>
      </trkpt>
      <trkpt lat="45.73943" lon="3.3483">
        <ele>353.6</ele>
        <time>2024-04-28T08:11:42Z</time>
      </trkpt>
      <trkpt lat="45.73935" lon="3.34824">
        <ele>353.4</ele>
        <time>2024-04-28T08:11:43Z</time>
      </trkpt>
      <trkpt lat="45.73927" lon="3.34818">
        <ele>353.4</ele>
        <time>2024-04-28T08:11:44Z</time>
      </trkpt>
      <trkpt lat="45.73919" lon="3.34812">
        <ele>353.2</ele>
        <time>2024-04-28T08:11:45Z</time>
      </trkpt>
      <trkpt lat="45.73911" lon="3.34806">
        <ele>353.2</ele>
        <time>2024-04-28T08:11:46Z</time>
      </trkpt>
      <trkpt lat="45.73904" lon="3.348">
        <ele>353</ele>
        <time>2024-04-28T08:11:47Z</time>
      </trkpt>
      <trkpt lat="45.73896" lon="3.34794">
        <ele>352.8</ele>
        <time>2024-04-28T08:11:48Z</time>
      </trkpt>
      <trkpt lat="45.73889" lon="3.34788">
        <ele>352.8</ele>
        <time>2024-04-28T08:11:49Z</time>
      </trkpt>
      <trkpt lat="45.73881" lon="3.34782">
        <ele>352.6</ele>
        <time>2024-04-28T08:11:50Z</time>
      </trkpt>
      <trkpt lat="45.73874" lon="3.34777">
        <ele>352.6</ele>
        <time>2024-04-28T08:11:51Z</time>
      </trkpt>
      <trkpt lat="45.73867" lon="3.34771">
        <ele>352.4</ele>
        <time>2024-04-28T08:11:52Z</time>
      </trkpt>
      <trkpt lat="45.73859" lon="3.34765">
        <ele>352.2</ele>
        <time>2024-04-28T08:11:53Z</time>
      </trkpt>
      <trkpt lat="45.73852" lon="3.3476">
        <ele>352.2</ele>
        <time>2024-04-28T08:11:54Z</time>
      </trkpt>
      <trkpt lat="45.73845" lon="3.34754">
        <ele>352</ele>
        <time>2024-04-28T08:11:55Z</time>
      </trkpt>
      <trkpt lat="45.73838" lon="3.34749">
        <ele>352</ele>
        <time>2024-04-28T08:11:56Z</time>
      </trkpt>
      <trkpt lat="45.73831" lon="3.34743">
        <ele>351.8</ele>
        <time>2024-04-28T08:11:57Z</time>
      </trkpt>
      <trkpt lat="45.73824" lon="3.34738">
        <ele>351.8</ele>
        <time>2024-04-28T08:11:58Z</time>
      </trkpt>
      <trkpt lat="45.73817" lon="3.34733">
        <ele>351.6</ele>
        <time>2024-04-28T08:11:59Z</time>
      </trkpt>
      <trkpt lat="45.73811" lon="3.34727">
        <ele>351.6</ele>
        <time>2024-04-28T08:12:00Z</time>
      </trkpt>
      <trkpt lat="45.73804" lon="3.34722">
        <ele>351.6</ele>
        <time>2024-04-28T08:12:01Z</time>
      </trkpt>
      <trkpt lat="45.73797" lon="3.34718">
        <ele>351.4</ele>
        <time>2024-04-28T08:12:02Z</time>
      </trkpt>
      <trkpt lat="45.7379" lon="3.34712">
        <ele>351.4</ele>
        <time>2024-04-28T08:12:03Z</time>
      </trkpt>
      <trkpt lat="45.73783" lon="3.34707">
        <ele>351.4</ele>
        <time>2024-04-28T08:12:04Z</time>
      </trkpt>
      <trkpt lat="45.73776" lon="3.34702">
        <ele>351.2</ele>
        <time>2024-04-28T08:12:05Z</time>
      </trkpt>
      <trkpt lat="45.73769" lon="3.34697">
        <ele>351.2</ele>
        <time>2024-04-28T08:12:06Z</time>
      </trkpt>
      <trkpt lat="45.73763" lon="3.34692">
        <ele>351.2</ele>
        <time>2024-04-28T08:12:07Z</time>
      </trkpt>
      <trkpt lat="45.73757" lon="3.34687">
        <ele>351.2</ele>
        <time>2024-04-28T08:12:08Z</time>
      </trkpt>
      <trkpt lat="45.73751" lon="3.34682">
        <ele>351</ele>
        <time>2024-04-28T08:12:09Z</time>
      </trkpt>
      <trkpt lat="45.73745" lon="3.34678">
        <ele>351</ele>
        <time>2024-04-28T08:12:10Z</time>
      </trkpt>
      <trkpt lat="45.73739" lon="3.34673">
        <ele>351</ele>
        <time>2024-04-28T08:12:11Z</time>
      </trkpt>
      <trkpt lat="45.73733" lon="3.34669">
        <ele>351</ele>
        <time>2024-04-28T08:12:12Z</time>
      </trkpt>
      <trkpt lat="45.73727" lon="3.34665">
        <ele>351</ele>
        <time>2024-04-28T08:12:13Z</time>
      </trkpt>
      <trkpt lat="45.73722" lon="3.34661">
        <ele>351</ele>
        <time>2024-04-28T08:12:14Z</time>
      </trkpt>
      <trkpt lat="45.73716" lon="3.34657">
        <ele>351</ele>
        <time>2024-04-28T08:12:15Z</time>
      </trkpt>
      <trkpt lat="45.73712" lon="3.34654">
        <ele>351.2</ele>
        <time>2024-04-28T08:12:16Z</time>
      </trkpt>
      <trkpt lat="45.73707" lon="3.3465">
        <ele>351.2</ele>
        <time>2024-04-28T08:12:17Z</time>
      </trkpt>
      <trkpt lat="45.73702" lon="3.34646">
        <ele>351.2</ele>
        <time>2024-04-28T08:12:18Z</time>
      </trkpt>
      <trkpt lat="45.73697" lon="3.34643">
        <ele>351</ele>
        <time>2024-04-28T08:12:19Z</time>
      </trkpt>
      <trkpt lat="45.73692" lon="3.3464">
        <ele>351</ele>
        <time>2024-04-28T08:12:20Z</time>
      </trkpt>
      <trkpt lat="45.73687" lon="3.34636">
        <ele>351</ele>
        <time>2024-04-28T08:12:21Z</time>
      </trkpt>
      <trkpt lat="45.73683" lon="3.34632">
        <ele>351.2</ele>
        <time>2024-04-28T08:12:22Z</time>
      </trkpt>
      <trkpt lat="45.73678" lon="3.34629">
        <ele>351.2</ele>
        <time>2024-04-28T08:12:23Z</time>
      </trkpt>
      <trkpt lat="45.73673" lon="3.34626">
        <ele>351.2</ele>
        <time>2024-04-28T08:12:24Z</time>
      </trkpt>
      <trkpt lat="45.73668" lon="3.34622">
        <ele>350.6</ele>
        <time>2024-04-28T08:12:25Z</time>
      </trkpt>
      <trkpt lat="45.73663" lon="3.34619">
        <ele>350.8</ele>
        <time>2024-04-28T08:12:26Z</time>
      </trkpt>
      <trkpt lat="45.73658" lon="3.34615">
        <ele>351</ele>
        <time>2024-04-28T08:12:27Z</time>
      </trkpt>
      <trkpt lat="45.73653" lon="3.34611">
        <ele>351.2</ele>
        <time>2024-04-28T08:12:28Z</time>
      </trkpt>
      <trkpt lat="45.73648" lon="3.34607">
        <ele>351.4</ele>
        <time>2024-04-28T08:12:29Z</time>
      </trkpt>
      <trkpt lat="45.73643" lon="3.34604">
        <ele>351.6</ele>
        <time>2024-04-28T08:12:30Z</time>
      </trkpt>
      <trkpt lat="45.73638" lon="3.346">
        <ele>351.8</ele>
        <time>2024-04-28T08:12:31Z</time>
      </trkpt>
      <trkpt lat="45.73633" lon="3.34596">
        <ele>351.4</ele>
        <time>2024-04-28T08:12:32Z</time>
      </trkpt>
      <trkpt lat="45.73628" lon="3.34593">
        <ele>351.4</ele>
        <time>2024-04-28T08:12:33Z</time>
      </trkpt>
      <trkpt lat="45.73623" lon="3.34589">
        <ele>351.4</ele>
        <time>2024-04-28T08:12:34Z</time>
      </trkpt>
      <trkpt lat="45.73617" lon="3.34586">
        <ele>351.4</ele>
        <time>2024-04-28T08:12:35Z</time>
      </trkpt>
      <trkpt lat="45.73612" lon="3.34583">
        <ele>351.6</ele>
        <time>2024-04-28T08:12:36Z</time>
      </trkpt>
      <trkpt lat="45.73607" lon="3.3458">
        <ele>351.6</ele>
        <time>2024-04-28T08:12:37Z</time>
      </trkpt>
      <trkpt lat="45.73602" lon="3.34577">
        <ele>351.6</ele>
        <time>2024-04-28T08:12:38Z</time>
      </trkpt>
      <trkpt lat="45.73597" lon="3.34574">
        <ele>351.8</ele>
        <time>2024-04-28T08:12:39Z</time>
      </trkpt>
      <trkpt lat="45.73592" lon="3.34571">
        <ele>351.6</ele>
        <time>2024-04-28T08:12:40Z</time>
      </trkpt>
      <trkpt lat="45.73587" lon="3.34568">
        <ele>351.8</ele>
        <time>2024-04-28T08:12:41Z</time>
      </trkpt>
      <trkpt lat="45.73582" lon="3.34565">
        <ele>351.8</ele>
        <time>2024-04-28T08:12:42Z</time>
      </trkpt>
      <trkpt lat="45.73577" lon="3.34562">
        <ele>351.8</ele>
        <time>2024-04-28T08:12:43Z</time>
      </trkpt>
      <trkpt lat="45.73572" lon="3.34558">
        <ele>351.8</ele>
        <time>2024-04-28T08:12:44Z</time>
      </trkpt>
      <trkpt lat="45.73567" lon="3.34555">
        <ele>351.8</ele>
        <time>2024-04-28T08:12:45Z</time>
      </trkpt>
      <trkpt lat="45.73561" lon="3.34552">
        <ele>351.8</ele>
        <time>2024-04-28T08:12:46Z</time>
      </trkpt>
      <trkpt lat="45.73557" lon="3.34549">
        <ele>352</ele>
        <time>2024-04-28T08:12:47Z</time>
      </trkpt>
      <trkpt lat="45.73551" lon="3.34546">
        <ele>352</ele>
        <time>2024-04-28T08:12:48Z</time>
      </trkpt>
      <trkpt lat="45.73546" lon="3.34543">
        <ele>352</ele>
        <time>2024-04-28T08:12:49Z</time>
      </trkpt>
      <trkpt lat="45.73541" lon="3.3454">
        <ele>352</ele>
        <time>2024-04-28T08:12:50Z</time>
      </trkpt>
      <trkpt lat="45.73535" lon="3.34537">
        <ele>352</ele>
        <time>2024-04-28T08:12:51Z</time>
      </trkpt>
      <trkpt lat="45.7353" lon="3.34533">
        <ele>352.2</ele>
        <time>2024-04-28T08:12:52Z</time>
      </trkpt>
      <trkpt lat="45.73525" lon="3.3453">
        <ele>352.2</ele>
        <time>2024-04-28T08:12:53Z</time>
      </trkpt>
      <trkpt lat="45.73519" lon="3.34527">
        <ele>352.2</ele>
        <time>2024-04-28T08:12:54Z</time>
      </trkpt>
      <trkpt lat="45.73514" lon="3.34524">
        <ele>352.2</ele>
        <time>2024-04-28T08:12:55Z</time>
      </trkpt>
      <trkpt lat="45.73508" lon="3.3452">
        <ele>352.2</ele>
        <time>2024-04-28T08:12:56Z</time>
      </trkpt>
      <trkpt lat="45.73503" lon="3.34517">
        <ele>352.2</ele>
        <time>2024-04-28T08:12:57Z</time>
      </trkpt>
      <trkpt lat="45.73498" lon="3.34513">
        <ele>352.2</ele>
        <time>2024-04-28T08:12:58Z</time>
      </trkpt>
      <trkpt lat="45.73493" lon="3.34509">
        <ele>352.2</ele>
        <time>2024-04-28T08:12:59Z</time>
      </trkpt>
      <trkpt lat="45.73488" lon="3.34505">
        <ele>352.4</ele>
        <time>2024-04-28T08:13:00Z</time>
      </trkpt>
      <trkpt lat="45.73483" lon="3.34501">
        <ele>352.4</ele>
        <time>2024-04-28T08:13:01Z</time>
      </trkpt>
      <trkpt lat="45.73478" lon="3.34497">
        <ele>352.4</ele>
        <time>2024-04-28T08:13:02Z</time>
      </trkpt>
      <trkpt lat="45.73473" lon="3.34493">
        <ele>352.4</ele>
        <time>2024-04-28T08:13:03Z</time>
      </trkpt>
      <trkpt lat="45.73468" lon="3.34489">
        <ele>352.6</ele>
        <time>2024-04-28T08:13:04Z</time>
      </trkpt>
      <trkpt lat="45.73463" lon="3.34485">
        <ele>352.6</ele>
        <time>2024-04-28T08:13:05Z</time>
      </trkpt>
      <trkpt lat="45.73458" lon="3.34482">
        <ele>352.6</ele>
        <time>2024-04-28T08:13:06Z</time>
      </trkpt>
      <trkpt lat="45.73453" lon="3.34478">
        <ele>352.6</ele>
        <time>2024-04-28T08:13:07Z</time>
      </trkpt>
      <trkpt lat="45.73448" lon="3.34474">
        <ele>352.6</ele>
        <time>2024-04-28T08:13:08Z</time>
      </trkpt>
      <trkpt lat="45.73443" lon="3.3447">
        <ele>352.6</ele>
        <time>2024-04-28T08:13:09Z</time>
      </trkpt>
      <trkpt lat="45.73437" lon="3.34467">
        <ele>352.8</ele>
        <time>2024-04-28T08:13:10Z</time>
      </trkpt>
      <trkpt lat="45.73432" lon="3.34463">
        <ele>352.8</ele>
        <time>2024-04-28T08:13:11Z</time>
      </trkpt>
      <trkpt lat="45.73427" lon="3.34459">
        <ele>352.8</ele>
        <time>2024-04-28T08:13:12Z</time>
      </trkpt>
      <trkpt lat="45.73422" lon="3.34456">
        <ele>352.8</ele>
        <time>2024-04-28T08:13:13Z</time>
      </trkpt>
      <trkpt lat="45.73417" lon="3.34452">
        <ele>353</ele>
        <time>2024-04-28T08:13:14Z</time>
      </trkpt>
      <trkpt lat="45.73411" lon="3.34448">
        <ele>353</ele>
        <time>2024-04-28T08:13:15Z</time>
      </trkpt>
      <trkpt lat="45.73406" lon="3.34444">
        <ele>353</ele>
        <time>2024-04-28T08:13:16Z</time>
      </trkpt>
      <trkpt lat="45.73401" lon="3.3444">
        <ele>353</ele>
        <time>2024-04-28T08:13:17Z</time>
      </trkpt>
      <trkpt lat="45.73397" lon="3.34433">
        <ele>353.2</ele>
        <time>2024-04-28T08:13:18Z</time>
      </trkpt>
      <trkpt lat="45.73393" lon="3.34426">
        <ele>353.2</ele>
        <time>2024-04-28T08:13:19Z</time>
      </trkpt>
      <trkpt lat="45.73392" lon="3.34416">
        <ele>353.2</ele>
        <time>2024-04-28T08:13:20Z</time>
      </trkpt>
      <trkpt lat="45.73388" lon="3.34409">
        <ele>353.2</ele>
        <time>2024-04-28T08:13:21Z</time>
      </trkpt>
      <trkpt lat="45.73384" lon="3.34404">
        <ele>353.2</ele>
        <time>2024-04-28T08:13:22Z</time>
      </trkpt>
      <trkpt lat="45.7338" lon="3.34398">
        <ele>353.2</ele>
        <time>2024-04-28T08:13:23Z</time>
      </trkpt>
      <trkpt lat="45.73372" lon="3.34394">
        <ele>353.2</ele>
        <time>2024-04-28T08:13:24Z</time>
      </trkpt>
      <trkpt lat="45.73367" lon="3.34394">
        <ele>353.4</ele>
        <time>2024-04-28T08:13:25Z</time>
      </trkpt>
      <trkpt lat="45.73361" lon="3.34393">
        <ele>353.4</ele>
        <time>2024-04-28T08:13:26Z</time>
      </trkpt>
      <trkpt lat="45.73355" lon="3.34389">
        <ele>353.4</ele>
        <time>2024-04-28T08:13:27Z</time>
      </trkpt>
      <trkpt lat="45.7335" lon="3.34386">
        <ele>353.4</ele>
        <time>2024-04-28T08:13:28Z</time>
      </trkpt>
      <trkpt lat="45.73344" lon="3.34383">
        <ele>353.4</ele>
        <time>2024-04-28T08:13:29Z</time>
      </trkpt>
      <trkpt lat="45.73338" lon="3.34378">
        <ele>353.6</ele>
        <time>2024-04-28T08:13:30Z</time>
      </trkpt>
      <trkpt lat="45.73334" lon="3.3437">
        <ele>353.6</ele>
        <time>2024-04-28T08:13:31Z</time>
      </trkpt>
      <trkpt lat="45.73331" lon="3.34362">
        <ele>353.6</ele>
        <time>2024-04-28T08:13:32Z</time>
      </trkpt>
      <trkpt lat="45.73328" lon="3.34354">
        <ele>353.6</ele>
        <time>2024-04-28T08:13:33Z</time>
      </trkpt>
      <trkpt lat="45.73324" lon="3.34346">
        <ele>353.6</ele>
        <time>2024-04-28T08:13:34Z</time>
      </trkpt>
      <trkpt lat="45.73321" lon="3.34338">
        <ele>353.6</ele>
        <time>2024-04-28T08:13:35Z</time>
      </trkpt>
      <trkpt lat="45.73318" lon="3.34329">
        <ele>353.6</ele>
        <time>2024-04-28T08:13:36Z</time>
      </trkpt>
      <trkpt lat="45.73314" lon="3.34321">
        <ele>353.6</ele>
        <time>2024-04-28T08:13:37Z</time>
      </trkpt>
      <trkpt lat="45.73311" lon="3.34312">
        <ele>353.6</ele>
        <time>2024-04-28T08:13:38Z</time>
      </trkpt>
      <trkpt lat="45.73308" lon="3.34302">
        <ele>353.6</ele>
        <time>2024-04-28T08:13:39Z</time>
      </trkpt>
      <trkpt lat="45.73305" lon="3.34293">
        <ele>353.6</ele>
        <time>2024-04-28T08:13:40Z</time>
      </trkpt>
      <trkpt lat="45.73301" lon="3.34284">
        <ele>353.4</ele>
        <time>2024-04-28T08:13:41Z</time>
      </trkpt>
      <trkpt lat="45.73298" lon="3.34274">
        <ele>353.4</ele>
        <time>2024-04-28T08:13:42Z</time>
      </trkpt>
      <trkpt lat="45.73294" lon="3.34265">
        <ele>353.4</ele>
        <time>2024-04-28T08:13:43Z</time>
      </trkpt>
      <trkpt lat="45.7329" lon="3.34255">
        <ele>353.8</ele>
        <time>2024-04-28T08:13:44Z</time>
      </trkpt>
      <trkpt lat="45.73287" lon="3.34245">
        <ele>353.2</ele>
        <time>2024-04-28T08:13:45Z</time>
      </trkpt>
      <trkpt lat="45.73282" lon="3.34235">
        <ele>353</ele>
        <time>2024-04-28T08:13:46Z</time>
      </trkpt>
      <trkpt lat="45.73278" lon="3.34225">
        <ele>353.2</ele>
        <time>2024-04-28T08:13:47Z</time>
      </trkpt>
      <trkpt lat="45.73273" lon="3.34214">
        <ele>353</ele>
        <time>2024-04-28T08:13:48Z</time>
      </trkpt>
      <trkpt lat="45.73268" lon="3.34203">
        <ele>352.8</ele>
        <time>2024-04-28T08:13:49Z</time>
      </trkpt>
      <trkpt lat="45.73264" lon="3.34192">
        <ele>352.8</ele>
        <time>2024-04-28T08:13:50Z</time>
      </trkpt>
      <trkpt lat="45.73259" lon="3.3418">
        <ele>352.6</ele>
        <time>2024-04-28T08:13:51Z</time>
      </trkpt>
      <trkpt lat="45.73253" lon="3.3417">
        <ele>352.6</ele>
        <time>2024-04-28T08:13:52Z</time>
      </trkpt>
      <trkpt lat="45.73246" lon="3.34159">
        <ele>352.4</ele>
        <time>2024-04-28T08:13:53Z</time>
      </trkpt>
      <trkpt lat="45.73239" lon="3.34148">
        <ele>352.4</ele>
        <time>2024-04-28T08:13:54Z</time>
      </trkpt>
      <trkpt lat="45.73232" lon="3.34138">
        <ele>352.2</ele>
        <time>2024-04-28T08:13:55Z</time>
      </trkpt>
      <trkpt lat="45.73225" lon="3.34127">
        <ele>352.2</ele>
        <time>2024-04-28T08:13:56Z</time>
      </trkpt>
      <trkpt lat="45.73216" lon="3.34118">
        <ele>352</ele>
        <time>2024-04-28T08:13:57Z</time>
      </trkpt>
      <trkpt lat="45.73208" lon="3.34109">
        <ele>351.8</ele>
        <time>2024-04-28T08:13:58Z</time>
      </trkpt>
      <trkpt lat="45.73199" lon="3.34101">
        <ele>351.8</ele>
        <time>2024-04-28T08:13:59Z</time>
      </trkpt>
      <trkpt lat="45.73191" lon="3.34093">
        <ele>351.8</ele>
        <time>2024-04-28T08:14:00Z</time>
      </trkpt>
      <trkpt lat="45.73183" lon="3.34085">
        <ele>351.8</ele>
        <time>2024-04-28T08:14:01Z</time>
      </trkpt>
      <trkpt lat="45.73175" lon="3.34077">
        <ele>351.8</ele>
        <time>2024-04-28T08:14:02Z</time>
      </trkpt>
      <trkpt lat="45.73168" lon="3.3407">
        <ele>351.8</ele>
        <time>2024-04-28T08:14:03Z</time>
      </trkpt>
      <trkpt lat="45.73159" lon="3.34065">
        <ele>351.8</ele>
        <time>2024-04-28T08:14:04Z</time>
      </trkpt>
      <trkpt lat="45.73151" lon="3.3406">
        <ele>351.8</ele>
        <time>2024-04-28T08:14:05Z</time>
      </trkpt>
      <trkpt lat="45.73143" lon="3.34055">
        <ele>351.8</ele>
        <time>2024-04-28T08:14:06Z</time>
      </trkpt>
      <trkpt lat="45.73135" lon="3.3405">
        <ele>351.8</ele>
        <time>2024-04-28T08:14:07Z</time>
      </trkpt>
      <trkpt lat="45.73127" lon="3.34045">
        <ele>351.8</ele>
        <time>2024-04-28T08:14:08Z</time>
      </trkpt>
      <trkpt lat="45.73119" lon="3.34042">
        <ele>351.8</ele>
        <time>2024-04-28T08:14:09Z</time>
      </trkpt>
      <trkpt lat="45.73111" lon="3.34039">
        <ele>351.6</ele>
        <time>2024-04-28T08:14:10Z</time>
      </trkpt>
      <trkpt lat="45.73103" lon="3.34035">
        <ele>351.6</ele>
        <time>2024-04-28T08:14:11Z</time>
      </trkpt>
      <trkpt lat="45.73096" lon="3.34032">
        <ele>351.6</ele>
        <time>2024-04-28T08:14:12Z</time>
      </trkpt>
      <trkpt lat="45.73088" lon="3.34029">
        <ele>351.4</ele>
        <time>2024-04-28T08:14:13Z</time>
      </trkpt>
      <trkpt lat="45.7308" lon="3.34026">
        <ele>351.4</ele>
        <time>2024-04-28T08:14:14Z</time>
      </trkpt>
      <trkpt lat="45.73073" lon="3.34023">
        <ele>351.4</ele>
        <time>2024-04-28T08:14:15Z</time>
      </trkpt>
      <trkpt lat="45.73066" lon="3.3402">
        <ele>351.4</ele>
        <time>2024-04-28T08:14:16Z</time>
      </trkpt>
      <trkpt lat="45.73059" lon="3.34017">
        <ele>351.4</ele>
        <time>2024-04-28T08:14:17Z</time>
      </trkpt>
      <trkpt lat="45.73052" lon="3.34014">
        <ele>351.4</ele>
        <time>2024-04-28T08:14:18Z</time>
      </trkpt>
      <trkpt lat="45.73044" lon="3.34011">
        <ele>351.2</ele>
        <time>2024-04-28T08:14:19Z</time>
      </trkpt>
      <trkpt lat="45.73037" lon="3.34008">
        <ele>351.2</ele>
        <time>2024-04-28T08:14:20Z</time>
      </trkpt>
      <trkpt lat="45.7303" lon="3.34005">
        <ele>351.2</ele>
        <time>2024-04-28T08:14:21Z</time>
      </trkpt>
      <trkpt lat="45.73023" lon="3.34002">
        <ele>351.2</ele>
        <time>2024-04-28T08:14:22Z</time>
      </trkpt>
      <trkpt lat="45.73016" lon="3.33999">
        <ele>351.2</ele>
        <time>2024-04-28T08:14:23Z</time>
      </trkpt>
      <trkpt lat="45.73009" lon="3.33996">
        <ele>351</ele>
        <time>2024-04-28T08:14:24Z</time>
      </trkpt>
      <trkpt lat="45.73002" lon="3.33994">
        <ele>351</ele>
        <time>2024-04-28T08:14:25Z</time>
      </trkpt>
      <trkpt lat="45.72995" lon="3.33991">
        <ele>351</ele>
        <time>2024-04-28T08:14:26Z</time>
      </trkpt>
      <trkpt lat="45.72989" lon="3.33987">
        <ele>351</ele>
        <time>2024-04-28T08:14:27Z</time>
      </trkpt>
      <trkpt lat="45.72983" lon="3.33983">
        <ele>351</ele>
        <time>2024-04-28T08:14:28Z</time>
      </trkpt>
      <trkpt lat="45.72977" lon="3.33979">
        <ele>351</ele>
        <time>2024-04-28T08:14:29Z</time>
      </trkpt>
      <trkpt lat="45.72971" lon="3.33974">
        <ele>350.8</ele>
        <time>2024-04-28T08:14:30Z</time>
      </trkpt>
      <trkpt lat="45.72965" lon="3.3397">
        <ele>350.8</ele>
        <time>2024-04-28T08:14:31Z</time>
      </trkpt>
      <trkpt lat="45.72959" lon="3.33965">
        <ele>350.8</ele>
        <time>2024-04-28T08:14:32Z</time>
      </trkpt>
      <trkpt lat="45.72956" lon="3.33957">
        <ele>350.8</ele>
        <time>2024-04-28T08:14:33Z</time>
      </trkpt>
      <trkpt lat="45.72953" lon="3.33948">
        <ele>350.8</ele>
        <time>2024-04-28T08:14:34Z</time>
      </trkpt>
      <trkpt lat="45.72951" lon="3.33939">
        <ele>350.8</ele>
        <time>2024-04-28T08:14:35Z</time>
      </trkpt>
      <trkpt lat="45.72948" lon="3.33931">
        <ele>350.8</ele>
        <time>2024-04-28T08:14:36Z</time>
      </trkpt>
      <trkpt lat="45.72946" lon="3.33922">
        <ele>350.8</ele>
        <time>2024-04-28T08:14:37Z</time>
      </trkpt>
      <trkpt lat="45.72943" lon="3.33914">
        <ele>350.8</ele>
        <time>2024-04-28T08:14:38Z</time>
      </trkpt>
      <trkpt lat="45.72938" lon="3.33908">
        <ele>350.8</ele>
        <time>2024-04-28T08:14:39Z</time>
      </trkpt>
      <trkpt lat="45.72932" lon="3.33904">
        <ele>350.8</ele>
        <time>2024-04-28T08:14:40Z</time>
      </trkpt>
      <trkpt lat="45.72926" lon="3.33899">
        <ele>350.6</ele>
        <time>2024-04-28T08:14:41Z</time>
      </trkpt>
      <trkpt lat="45.7292" lon="3.33894">
        <ele>350.6</ele>
        <time>2024-04-28T08:14:42Z</time>
      </trkpt>
      <trkpt lat="45.72914" lon="3.33889">
        <ele>350.6</ele>
        <time>2024-04-28T08:14:43Z</time>
      </trkpt>
      <trkpt lat="45.72908" lon="3.33883">
        <ele>350.6</ele>
        <time>2024-04-28T08:14:44Z</time>
      </trkpt>
      <trkpt lat="45.72902" lon="3.33878">
        <ele>350.6</ele>
        <time>2024-04-28T08:14:45Z</time>
      </trkpt>
      <trkpt lat="45.72896" lon="3.33873">
        <ele>350.6</ele>
        <time>2024-04-28T08:14:46Z</time>
      </trkpt>
      <trkpt lat="45.7289" lon="3.33868">
        <ele>350.8</ele>
        <time>2024-04-28T08:14:47Z</time>
      </trkpt>
      <trkpt lat="45.72884" lon="3.33862">
        <ele>350.6</ele>
        <time>2024-04-28T08:14:48Z</time>
      </trkpt>
      <trkpt lat="45.72878" lon="3.33857">
        <ele>350.6</ele>
        <time>2024-04-28T08:14:49Z</time>
      </trkpt>
      <trkpt lat="45.72872" lon="3.33852">
        <ele>350.8</ele>
        <time>2024-04-28T08:14:50Z</time>
      </trkpt>
      <trkpt lat="45.72866" lon="3.33846">
        <ele>350.4</ele>
        <time>2024-04-28T08:14:51Z</time>
      </trkpt>
      <trkpt lat="45.7286" lon="3.33841">
        <ele>350.6</ele>
        <time>2024-04-28T08:14:52Z</time>
      </trkpt>
      <trkpt lat="45.72854" lon="3.33835">
        <ele>350.6</ele>
        <time>2024-04-28T08:14:53Z</time>
      </trkpt>
      <trkpt lat="45.72848" lon="3.33829">
        <ele>350.4</ele>
        <time>2024-04-28T08:14:54Z</time>
      </trkpt>
      <trkpt lat="45.72842" lon="3.33824">
        <ele>350.6</ele>
        <time>2024-04-28T08:14:55Z</time>
      </trkpt>
      <trkpt lat="45.72836" lon="3.33819">
        <ele>350.6</ele>
        <time>2024-04-28T08:14:56Z</time>
      </trkpt>
      <trkpt lat="45.7283" lon="3.33813">
        <ele>350.6</ele>
        <time>2024-04-28T08:14:57Z</time>
      </trkpt>
      <trkpt lat="45.72824" lon="3.33808">
        <ele>350.8</ele>
        <time>2024-04-28T08:14:58Z</time>
      </trkpt>
      <trkpt lat="45.72818" lon="3.33802">
        <ele>350.8</ele>
        <time>2024-04-28T08:14:59Z</time>
      </trkpt>
      <trkpt lat="45.72812" lon="3.33797">
        <ele>350.8</ele>
        <time>2024-04-28T08:15:00Z</time>
      </trkpt>
      <trkpt lat="45.72806" lon="3.33792">
        <ele>350.8</ele>
        <time>2024-04-28T08:15:01Z</time>
      </trkpt>
      <trkpt lat="45.728" lon="3.33786">
        <ele>350.8</ele>
        <time>2024-04-28T08:15:02Z</time>
      </trkpt>
      <trkpt lat="45.72794" lon="3.33781">
        <ele>350.8</ele>
        <time>2024-04-28T08:15:03Z</time>
      </trkpt>
      <trkpt lat="45.72789" lon="3.33776">
        <ele>350.8</ele>
        <time>2024-04-28T08:15:04Z</time>
      </trkpt>
      <trkpt lat="45.72783" lon="3.3377">
        <ele>350.8</ele>
        <time>2024-04-28T08:15:05Z</time>
      </trkpt>
      <trkpt lat="45.72777" lon="3.33764">
        <ele>350.8</ele>
        <time>2024-04-28T08:15:06Z</time>
      </trkpt>
      <trkpt lat="45.72772" lon="3.33758">
        <ele>350.8</ele>
        <time>2024-04-28T08:15:07Z</time>
      </trkpt>
      <trkpt lat="45.72766" lon="3.33752">
        <ele>350.8</ele>
        <time>2024-04-28T08:15:08Z</time>
      </trkpt>
      <trkpt lat="45.72761" lon="3.33746">
        <ele>350.8</ele>
        <time>2024-04-28T08:15:09Z</time>
      </trkpt>
      <trkpt lat="45.72755" lon="3.3374">
        <ele>350.8</ele>
        <time>2024-04-28T08:15:10Z</time>
      </trkpt>
      <trkpt lat="45.7275" lon="3.33734">
        <ele>350.8</ele>
        <time>2024-04-28T08:15:11Z</time>
      </trkpt>
      <trkpt lat="45.72744" lon="3.33728">
        <ele>350.8</ele>
        <time>2024-04-28T08:15:12Z</time>
      </trkpt>
      <trkpt lat="45.72739" lon="3.33722">
        <ele>350.8</ele>
        <time>2024-04-28T08:15:13Z</time>
      </trkpt>
      <trkpt lat="45.72733" lon="3.33716">
        <ele>350.8</ele>
        <time>2024-04-28T08:15:14Z</time>
      </trkpt>
      <trkpt lat="45.72728" lon="3.3371">
        <ele>350.8</ele>
        <time>2024-04-28T08:15:15Z</time>
      </trkpt>
      <trkpt lat="45.72722" lon="3.33704">
        <ele>350.8</ele>
        <time>2024-04-28T08:15:16Z</time>
      </trkpt>
      <trkpt lat="45.72717" lon="3.33697">
        <ele>350.8</ele>
        <time>2024-04-28T08:15:17Z</time>
      </trkpt>
      <trkpt lat="45.72711" lon="3.33691">
        <ele>350.8</ele>
        <time>2024-04-28T08:15:18Z</time>
      </trkpt>
      <trkpt lat="45.72706" lon="3.33685">
        <ele>350.8</ele>
        <time>2024-04-28T08:15:19Z</time>
      </trkpt>
      <trkpt lat="45.727" lon="3.33679">
        <ele>350.8</ele>
        <time>2024-04-28T08:15:20Z</time>
      </trkpt>
      <trkpt lat="45.72695" lon="3.33673">
        <ele>351</ele>
        <time>2024-04-28T08:15:21Z</time>
      </trkpt>
      <trkpt lat="45.7269" lon="3.33668">
        <ele>350.8</ele>
        <time>2024-04-28T08:15:22Z</time>
      </trkpt>
      <trkpt lat="45.72685" lon="3.33662">
        <ele>350.8</ele>
        <time>2024-04-28T08:15:23Z</time>
      </trkpt>
      <trkpt lat="45.72679" lon="3.33656">
        <ele>350.8</ele>
        <time>2024-04-28T08:15:24Z</time>
      </trkpt>
      <trkpt lat="45.72674" lon="3.3365">
        <ele>351</ele>
        <time>2024-04-28T08:15:25Z</time>
      </trkpt>
      <trkpt lat="45.72669" lon="3.33645">
        <ele>351</ele>
        <time>2024-04-28T08:15:26Z</time>
      </trkpt>
      <trkpt lat="45.72664" lon="3.33639">
        <ele>351</ele>
        <time>2024-04-28T08:15:27Z</time>
      </trkpt>
      <trkpt lat="45.72659" lon="3.33633">
        <ele>351</ele>
        <time>2024-04-28T08:15:28Z</time>
      </trkpt>
      <trkpt lat="45.72654" lon="3.33627">
        <ele>351</ele>
        <time>2024-04-28T08:15:29Z</time>
      </trkpt>
      <trkpt lat="45.72649" lon="3.33622">
        <ele>351</ele>
        <time>2024-04-28T08:15:30Z</time>
      </trkpt>
      <trkpt lat="45.72644" lon="3.33616">
        <ele>351</ele>
        <time>2024-04-28T08:15:31Z</time>
      </trkpt>
      <trkpt lat="45.72638" lon="3.3361">
        <ele>351</ele>
        <time>2024-04-28T08:15:32Z</time>
      </trkpt>
      <trkpt lat="45.72633" lon="3.33604">
        <ele>351</ele>
        <time>2024-04-28T08:15:33Z</time>
      </trkpt>
      <trkpt lat="45.72628" lon="3.33598">
        <ele>351</ele>
        <time>2024-04-28T08:15:34Z</time>
      </trkpt>
      <trkpt lat="45.72623" lon="3.33593">
        <ele>351</ele>
        <time>2024-04-28T08:15:35Z</time>
      </trkpt>
      <trkpt lat="45.72618" lon="3.33587">
        <ele>351</ele>
        <time>2024-04-28T08:15:36Z</time>
      </trkpt>
      <trkpt lat="45.72612" lon="3.33581">
        <ele>351</ele>
        <time>2024-04-28T08:15:37Z</time>
      </trkpt>
      <trkpt lat="45.72607" lon="3.33575">
        <ele>351</ele>
        <time>2024-04-28T08:15:38Z</time>
      </trkpt>
      <trkpt lat="45.72601" lon="3.33569">
        <ele>351</ele>
        <time>2024-04-28T08:15:39Z</time>
      </trkpt>
      <trkpt lat="45.72596" lon="3.33563">
        <ele>351</ele>
        <time>2024-04-28T08:15:40Z</time>
      </trkpt>
      <trkpt lat="45.7259" lon="3.33557">
        <ele>351</ele>
        <time>2024-04-28T08:15:41Z</time>
      </trkpt>
      <trkpt lat="45.72585" lon="3.33551">
        <ele>350.8</ele>
        <time>2024-04-28T08:15:42Z</time>
      </trkpt>
      <trkpt lat="45.7258" lon="3.33545">
        <ele>350.8</ele>
        <time>2024-04-28T08:15:43Z</time>
      </trkpt>
      <trkpt lat="45.72574" lon="3.33539">
        <ele>350.8</ele>
        <time>2024-04-28T08:15:44Z</time>
      </trkpt>
      <trkpt lat="45.72569" lon="3.33533">
        <ele>350.8</ele>
        <time>2024-04-28T08:15:45Z</time>
      </trkpt>
      <trkpt lat="45.72563" lon="3.33526">
        <ele>350.8</ele>
        <time>2024-04-28T08:15:46Z</time>
      </trkpt>
      <trkpt lat="45.72557" lon="3.3352">
        <ele>351</ele>
        <time>2024-04-28T08:15:47Z</time>
      </trkpt>
      <trkpt lat="45.72551" lon="3.33513">
        <ele>351</ele>
        <time>2024-04-28T08:15:48Z</time>
      </trkpt>
      <trkpt lat="45.72545" lon="3.33507">
        <ele>351</ele>
        <time>2024-04-28T08:15:49Z</time>
      </trkpt>
      <trkpt lat="45.72539" lon="3.335">
        <ele>351</ele>
        <time>2024-04-28T08:15:50Z</time>
      </trkpt>
      <trkpt lat="45.72533" lon="3.33494">
        <ele>351</ele>
        <time>2024-04-28T08:15:51Z</time>
      </trkpt>
      <trkpt lat="45.72527" lon="3.33487">
        <ele>351</ele>
        <time>2024-04-28T08:15:52Z</time>
      </trkpt>
      <trkpt lat="45.72521" lon="3.3348">
        <ele>351.2</ele>
        <time>2024-04-28T08:15:53Z</time>
      </trkpt>
      <trkpt lat="45.72515" lon="3.33473">
        <ele>351.2</ele>
        <time>2024-04-28T08:15:54Z</time>
      </trkpt>
      <trkpt lat="45.72509" lon="3.33466">
        <ele>351.2</ele>
        <time>2024-04-28T08:15:55Z</time>
      </trkpt>
      <trkpt lat="45.72504" lon="3.33458">
        <ele>351.4</ele>
        <time>2024-04-28T08:15:56Z</time>
      </trkpt>
      <trkpt lat="45.72499" lon="3.3345">
        <ele>351.4</ele>
        <time>2024-04-28T08:15:57Z</time>
      </trkpt>
      <trkpt lat="45.72495" lon="3.33442">
        <ele>351.4</ele>
        <time>2024-04-28T08:15:58Z</time>
      </trkpt>
      <trkpt lat="45.72489" lon="3.33434">
        <ele>351.4</ele>
        <time>2024-04-28T08:15:59Z</time>
      </trkpt>
      <trkpt lat="45.72484" lon="3.33426">
        <ele>351.6</ele>
        <time>2024-04-28T08:16:00Z</time>
      </trkpt>
      <trkpt lat="45.72479" lon="3.33418">
        <ele>351.6</ele>
        <time>2024-04-28T08:16:01Z</time>
      </trkpt>
      <trkpt lat="45.72474" lon="3.3341">
        <ele>351.6</ele>
        <time>2024-04-28T08:16:02Z</time>
      </trkpt>
      <trkpt lat="45.72469" lon="3.33401">
        <ele>351.6</ele>
        <time>2024-04-28T08:16:03Z</time>
      </trkpt>
      <trkpt lat="45.72464" lon="3.33393">
        <ele>351.8</ele>
        <time>2024-04-28T08:16:04Z</time>
      </trkpt>
      <trkpt lat="45.7246" lon="3.33386">
        <ele>351.8</ele>
        <time>2024-04-28T08:16:05Z</time>
      </trkpt>
      <trkpt lat="45.72455" lon="3.33378">
        <ele>351.8</ele>
        <time>2024-04-28T08:16:06Z</time>
      </trkpt>
      <trkpt lat="45.7245" lon="3.3337">
        <ele>351.8</ele>
        <time>2024-04-28T08:16:07Z</time>
      </trkpt>
      <trkpt lat="45.72445" lon="3.33362">
        <ele>351.8</ele>
        <time>2024-04-28T08:16:08Z</time>
      </trkpt>
      <trkpt lat="45.7244" lon="3.33355">
        <ele>351.8</ele>
        <time>2024-04-28T08:16:09Z</time>
      </trkpt>
      <trkpt lat="45.72435" lon="3.33347">
        <ele>352</ele>
        <time>2024-04-28T08:16:10Z</time>
      </trkpt>
      <trkpt lat="45.72431" lon="3.3334">
        <ele>352</ele>
        <time>2024-04-28T08:16:11Z</time>
      </trkpt>
      <trkpt lat="45.72426" lon="3.33332">
        <ele>352</ele>
        <time>2024-04-28T08:16:12Z</time>
      </trkpt>
      <trkpt lat="45.72422" lon="3.33325">
        <ele>352</ele>
        <time>2024-04-28T08:16:13Z</time>
      </trkpt>
      <trkpt lat="45.72417" lon="3.33317">
        <ele>352</ele>
        <time>2024-04-28T08:16:14Z</time>
      </trkpt>
      <trkpt lat="45.72412" lon="3.33309">
        <ele>352</ele>
        <time>2024-04-28T08:16:15Z</time>
      </trkpt>
      <trkpt lat="45.72408" lon="3.33302">
        <ele>352</ele>
        <time>2024-04-28T08:16:16Z</time>
      </trkpt>
      <trkpt lat="45.72404" lon="3.33294">
        <ele>352</ele>
        <time>2024-04-28T08:16:17Z</time>
      </trkpt>
      <trkpt lat="45.724" lon="3.33286">
        <ele>352.2</ele>
        <time>2024-04-28T08:16:18Z</time>
      </trkpt>
      <trkpt lat="45.72396" lon="3.33278">
        <ele>352.2</ele>
        <time>2024-04-28T08:16:19Z</time>
      </trkpt>
      <trkpt lat="45.72392" lon="3.3327">
        <ele>352.2</ele>
        <time>2024-04-28T08:16:20Z</time>
      </trkpt>
      <trkpt lat="45.72388" lon="3.33262">
        <ele>352.4</ele>
        <time>2024-04-28T08:16:21Z</time>
      </trkpt>
      <trkpt lat="45.72384" lon="3.33254">
        <ele>352.4</ele>
        <time>2024-04-28T08:16:22Z</time>
      </trkpt>
      <trkpt lat="45.7238" lon="3.33245">
        <ele>352.4</ele>
        <time>2024-04-28T08:16:23Z</time>
      </trkpt>
      <trkpt lat="45.72378" lon="3.33235">
        <ele>352.6</ele>
        <time>2024-04-28T08:16:24Z</time>
      </trkpt>
      <trkpt lat="45.72376" lon="3.33226">
        <ele>352.6</ele>
        <time>2024-04-28T08:16:25Z</time>
      </trkpt>
      <trkpt lat="45.72373" lon="3.33217">
        <ele>352.8</ele>
        <time>2024-04-28T08:16:26Z</time>
      </trkpt>
      <trkpt lat="45.72371" lon="3.33208">
        <ele>352.8</ele>
        <time>2024-04-28T08:16:27Z</time>
      </trkpt>
      <trkpt lat="45.72369" lon="3.33199">
        <ele>352.8</ele>
        <time>2024-04-28T08:16:28Z</time>
      </trkpt>
      <trkpt lat="45.72367" lon="3.3319">
        <ele>353</ele>
        <time>2024-04-28T08:16:29Z</time>
      </trkpt>
      <trkpt lat="45.72364" lon="3.33181">
        <ele>353</ele>
        <time>2024-04-28T08:16:30Z</time>
      </trkpt>
      <trkpt lat="45.72362" lon="3.33172">
        <ele>353.2</ele>
        <time>2024-04-28T08:16:31Z</time>
      </trkpt>
      <trkpt lat="45.7236" lon="3.33163">
        <ele>353.2</ele>
        <time>2024-04-28T08:16:32Z</time>
      </trkpt>
      <trkpt lat="45.72358" lon="3.33154">
        <ele>353.2</ele>
        <time>2024-04-28T08:16:33Z</time>
      </trkpt>
      <trkpt lat="45.72355" lon="3.33145">
        <ele>353.4</ele>
        <time>2024-04-28T08:16:34Z</time>
      </trkpt>
      <trkpt lat="45.72353" lon="3.33136">
        <ele>353.4</ele>
        <time>2024-04-28T08:16:35Z</time>
      </trkpt>
      <trkpt lat="45.72351" lon="3.33127">
        <ele>353.4</ele>
        <time>2024-04-28T08:16:36Z</time>
      </trkpt>
      <trkpt lat="45.72349" lon="3.33118">
        <ele>353.6</ele>
        <time>2024-04-28T08:16:37Z</time>
      </trkpt>
      <trkpt lat="45.72347" lon="3.33109">
        <ele>353.6</ele>
        <time>2024-04-28T08:16:38Z</time>
      </trkpt>
      <trkpt lat="45.72344" lon="3.331">
        <ele>353.6</ele>
        <time>2024-04-28T08:16:39Z</time>
      </trkpt>
      <trkpt lat="45.72342" lon="3.33091">
        <ele>353.8</ele>
        <time>2024-04-28T08:16:40Z</time>
      </trkpt>
      <trkpt lat="45.7234" lon="3.33083">
        <ele>353.8</ele>
        <time>2024-04-28T08:16:41Z</time>
      </trkpt>
      <trkpt lat="45.72338" lon="3.33073">
        <ele>353.8</ele>
        <time>2024-04-28T08:16:42Z</time>
      </trkpt>
      <trkpt lat="45.72336" lon="3.33065">
        <ele>354</ele>
        <time>2024-04-28T08:16:43Z</time>
      </trkpt>
      <trkpt lat="45.72333" lon="3.33056">
        <ele>354</ele>
        <time>2024-04-28T08:16:44Z</time>
      </trkpt>
      <trkpt lat="45.72331" lon="3.33047">
        <ele>354</ele>
        <time>2024-04-28T08:16:45Z</time>
      </trkpt>
      <trkpt lat="45.72329" lon="3.33038">
        <ele>354</ele>
        <time>2024-04-28T08:16:46Z</time>
      </trkpt>
      <trkpt lat="45.72326" lon="3.3303">
        <ele>354.2</ele>
        <time>2024-04-28T08:16:47Z</time>
      </trkpt>
      <trkpt lat="45.72324" lon="3.33021">
        <ele>354.2</ele>
        <time>2024-04-28T08:16:48Z</time>
      </trkpt>
      <trkpt lat="45.72322" lon="3.33012">
        <ele>354.2</ele>
        <time>2024-04-28T08:16:49Z</time>
      </trkpt>
      <trkpt lat="45.72319" lon="3.33003">
        <ele>354.4</ele>
        <time>2024-04-28T08:16:50Z</time>
      </trkpt>
      <trkpt lat="45.72316" lon="3.32995">
        <ele>354.4</ele>
        <time>2024-04-28T08:16:51Z</time>
      </trkpt>
      <trkpt lat="45.72312" lon="3.32988">
        <ele>354.4</ele>
        <time>2024-04-28T08:16:52Z</time>
      </trkpt>
      <trkpt lat="45.72309" lon="3.3298">
        <ele>354.6</ele>
        <time>2024-04-28T08:16:53Z</time>
      </trkpt>
      <trkpt lat="45.72305" lon="3.32972">
        <ele>354.6</ele>
        <time>2024-04-28T08:16:54Z</time>
      </trkpt>
      <trkpt lat="45.72301" lon="3.32964">
        <ele>354.6</ele>
        <time>2024-04-28T08:16:55Z</time>
      </trkpt>
      <trkpt lat="45.72298" lon="3.32957">
        <ele>354.8</ele>
        <time>2024-04-28T08:16:56Z</time>
      </trkpt>
      <trkpt lat="45.72294" lon="3.32949">
        <ele>354.8</ele>
        <time>2024-04-28T08:16:57Z</time>
      </trkpt>
      <trkpt lat="45.72291" lon="3.32942">
        <ele>354.8</ele>
        <time>2024-04-28T08:16:58Z</time>
      </trkpt>
      <trkpt lat="45.72287" lon="3.32934">
        <ele>355</ele>
        <time>2024-04-28T08:16:59Z</time>
      </trkpt>
      <trkpt lat="45.72283" lon="3.32927">
        <ele>355</ele>
        <time>2024-04-28T08:17:00Z</time>
      </trkpt>
      <trkpt lat="45.72279" lon="3.3292">
        <ele>355</ele>
        <time>2024-04-28T08:17:01Z</time>
      </trkpt>
      <trkpt lat="45.72276" lon="3.32913">
        <ele>355.2</ele>
        <time>2024-04-28T08:17:02Z</time>
      </trkpt>
      <trkpt lat="45.72272" lon="3.32906">
        <ele>355.2</ele>
        <time>2024-04-28T08:17:03Z</time>
      </trkpt>
      <trkpt lat="45.72268" lon="3.32898">
        <ele>355.2</ele>
        <time>2024-04-28T08:17:04Z</time>
      </trkpt>
      <trkpt lat="45.72264" lon="3.32891">
        <ele>355.2</ele>
        <time>2024-04-28T08:17:05Z</time>
      </trkpt>
      <trkpt lat="45.7226" lon="3.32884">
        <ele>355.4</ele>
        <time>2024-04-28T08:17:06Z</time>
      </trkpt>
      <trkpt lat="45.72256" lon="3.32877">
        <ele>355.4</ele>
        <time>2024-04-28T08:17:07Z</time>
      </trkpt>
      <trkpt lat="45.72252" lon="3.3287">
        <ele>355.4</ele>
        <time>2024-04-28T08:17:08Z</time>
      </trkpt>
      <trkpt lat="45.72248" lon="3.32863">
        <ele>355.4</ele>
        <time>2024-04-28T08:17:09Z</time>
      </trkpt>
      <trkpt lat="45.72245" lon="3.32856">
        <ele>355.6</ele>
        <time>2024-04-28T08:17:10Z</time>
      </trkpt>
      <trkpt lat="45.72241" lon="3.32849">
        <ele>355.6</ele>
        <time>2024-04-28T08:17:11Z</time>
      </trkpt>
      <trkpt lat="45.72237" lon="3.32842">
        <ele>355.6</ele>
        <time>2024-04-28T08:17:12Z</time>
      </trkpt>
      <trkpt lat="45.72233" lon="3.32835">
        <ele>355.8</ele>
        <time>2024-04-28T08:17:13Z</time>
      </trkpt>
      <trkpt lat="45.7223" lon="3.32828">
        <ele>355.8</ele>
        <time>2024-04-28T08:17:14Z</time>
      </trkpt>
      <trkpt lat="45.72226" lon="3.3282">
        <ele>355.8</ele>
        <time>2024-04-28T08:17:15Z</time>
      </trkpt>
      <trkpt lat="45.72222" lon="3.32813">
        <ele>356</ele>
        <time>2024-04-28T08:17:16Z</time>
      </trkpt>
      <trkpt lat="45.72218" lon="3.32806">
        <ele>356</ele>
        <time>2024-04-28T08:17:17Z</time>
      </trkpt>
      <trkpt lat="45.72214" lon="3.32799">
        <ele>356</ele>
        <time>2024-04-28T08:17:18Z</time>
      </trkpt>
      <trkpt lat="45.7221" lon="3.32792">
        <ele>356.2</ele>
        <time>2024-04-28T08:17:19Z</time>
      </trkpt>
      <trkpt lat="45.72206" lon="3.32785">
        <ele>356.2</ele>
        <time>2024-04-28T08:17:20Z</time>
      </trkpt>
      <trkpt lat="45.72202" lon="3.32778">
        <ele>356.2</ele>
        <time>2024-04-28T08:17:21Z</time>
      </trkpt>
      <trkpt lat="45.72198" lon="3.3277">
        <ele>356.4</ele>
        <time>2024-04-28T08:17:22Z</time>
      </trkpt>
      <trkpt lat="45.72194" lon="3.32762">
        <ele>356.4</ele>
        <time>2024-04-28T08:17:23Z</time>
      </trkpt>
      <trkpt lat="45.7219" lon="3.32755">
        <ele>356.4</ele>
        <time>2024-04-28T08:17:24Z</time>
      </trkpt>
      <trkpt lat="45.72185" lon="3.32747">
        <ele>356.4</ele>
        <time>2024-04-28T08:17:25Z</time>
      </trkpt>
      <trkpt lat="45.72181" lon="3.3274">
        <ele>356.4</ele>
        <time>2024-04-28T08:17:26Z</time>
      </trkpt>
      <trkpt lat="45.72177" lon="3.32733">
        <ele>356.4</ele>
        <time>2024-04-28T08:17:27Z</time>
      </trkpt>
      <trkpt lat="45.72173" lon="3.32727">
        <ele>356.4</ele>
        <time>2024-04-28T08:17:28Z</time>
      </trkpt>
      <trkpt lat="45.72169" lon="3.32721">
        <ele>356.6</ele>
        <time>2024-04-28T08:17:29Z</time>
      </trkpt>
      <trkpt lat="45.72165" lon="3.32715">
        <ele>356.6</ele>
        <time>2024-04-28T08:17:30Z</time>
      </trkpt>
      <trkpt lat="45.7216" lon="3.3271">
        <ele>356.6</ele>
        <time>2024-04-28T08:17:31Z</time>
      </trkpt>
      <trkpt lat="45.72156" lon="3.32704">
        <ele>356.8</ele>
        <time>2024-04-28T08:17:32Z</time>
      </trkpt>
      <trkpt lat="45.72152" lon="3.32699">
        <ele>356.8</ele>
        <time>2024-04-28T08:17:33Z</time>
      </trkpt>
      <trkpt lat="45.72148" lon="3.32694">
        <ele>357</ele>
        <time>2024-04-28T08:17:34Z</time>
      </trkpt>
      <trkpt lat="45.72145" lon="3.32689">
        <ele>357</ele>
        <time>2024-04-28T08:17:35Z</time>
      </trkpt>
      <trkpt lat="45.72141" lon="3.32685">
        <ele>357</ele>
        <time>2024-04-28T08:17:36Z</time>
      </trkpt>
      <trkpt lat="45.72137" lon="3.3268">
        <ele>357.2</ele>
        <time>2024-04-28T08:17:37Z</time>
      </trkpt>
      <trkpt lat="45.72133" lon="3.32675">
        <ele>357.2</ele>
        <time>2024-04-28T08:17:38Z</time>
      </trkpt>
      <trkpt lat="45.7213" lon="3.3267">
        <ele>357.4</ele>
        <time>2024-04-28T08:17:39Z</time>
      </trkpt>
      <trkpt lat="45.72126" lon="3.32665">
        <ele>357.4</ele>
        <time>2024-04-28T08:17:40Z</time>
      </trkpt>
      <trkpt lat="45.72121" lon="3.3266">
        <ele>357.4</ele>
        <time>2024-04-28T08:17:41Z</time>
      </trkpt>
      <trkpt lat="45.72117" lon="3.32654">
        <ele>357.6</ele>
        <time>2024-04-28T08:17:42Z</time>
      </trkpt>
      <trkpt lat="45.72112" lon="3.32648">
        <ele>357.6</ele>
        <time>2024-04-28T08:17:43Z</time>
      </trkpt>
      <trkpt lat="45.72107" lon="3.32642">
        <ele>357.6</ele>
        <time>2024-04-28T08:17:44Z</time>
      </trkpt>
      <trkpt lat="45.72102" lon="3.32636">
        <ele>357.6</ele>
        <time>2024-04-28T08:17:45Z</time>
      </trkpt>
      <trkpt lat="45.72097" lon="3.3263">
        <ele>357.8</ele>
        <time>2024-04-28T08:17:46Z</time>
      </trkpt>
      <trkpt lat="45.72092" lon="3.32624">
        <ele>357.8</ele>
        <time>2024-04-28T08:17:47Z</time>
      </trkpt>
      <trkpt lat="45.72087" lon="3.32618">
        <ele>357.8</ele>
        <time>2024-04-28T08:17:48Z</time>
      </trkpt>
      <trkpt lat="45.72082" lon="3.32612">
        <ele>357.8</ele>
        <time>2024-04-28T08:17:49Z</time>
      </trkpt>
      <trkpt lat="45.72077" lon="3.32606">
        <ele>357.8</ele>
        <time>2024-04-28T08:17:50Z</time>
      </trkpt>
      <trkpt lat="45.72072" lon="3.326">
        <ele>358</ele>
        <time>2024-04-28T08:17:51Z</time>
      </trkpt>
      <trkpt lat="45.72067" lon="3.32594">
        <ele>358</ele>
        <time>2024-04-28T08:17:52Z</time>
      </trkpt>
      <trkpt lat="45.72062" lon="3.32588">
        <ele>358.2</ele>
        <time>2024-04-28T08:17:53Z</time>
      </trkpt>
      <trkpt lat="45.72057" lon="3.32582">
        <ele>358.2</ele>
        <time>2024-04-28T08:17:54Z</time>
      </trkpt>
      <trkpt lat="45.72052" lon="3.32576">
        <ele>358.2</ele>
        <time>2024-04-28T08:17:55Z</time>
      </trkpt>
      <trkpt lat="45.72047" lon="3.3257">
        <ele>358.2</ele>
        <time>2024-04-28T08:17:56Z</time>
      </trkpt>
      <trkpt lat="45.72043" lon="3.32565">
        <ele>358.2</ele>
        <time>2024-04-28T08:17:57Z</time>
      </trkpt>
      <trkpt lat="45.72038" lon="3.32559">
        <ele>358.4</ele>
        <time>2024-04-28T08:17:58Z</time>
      </trkpt>
      <trkpt lat="45.72033" lon="3.32554">
        <ele>358.4</ele>
        <time>2024-04-28T08:17:59Z</time>
      </trkpt>
      <trkpt lat="45.72029" lon="3.32548">
        <ele>358.6</ele>
        <time>2024-04-28T08:18:00Z</time>
      </trkpt>
      <trkpt lat="45.72025" lon="3.32541">
        <ele>358.6</ele>
        <time>2024-04-28T08:18:01Z</time>
      </trkpt>
      <trkpt lat="45.7202" lon="3.32535">
        <ele>358.8</ele>
        <time>2024-04-28T08:18:02Z</time>
      </trkpt>
      <trkpt lat="45.72016" lon="3.32529">
        <ele>358.8</ele>
        <time>2024-04-28T08:18:03Z</time>
      </trkpt>
      <trkpt lat="45.72012" lon="3.32522">
        <ele>359</ele>
        <time>2024-04-28T08:18:04Z</time>
      </trkpt>
      <trkpt lat="45.72007" lon="3.32516">
        <ele>359.2</ele>
        <time>2024-04-28T08:18:05Z</time>
      </trkpt>
      <trkpt lat="45.72004" lon="3.32508">
        <ele>359.2</ele>
        <time>2024-04-28T08:18:06Z</time>
      </trkpt>
      <trkpt lat="45.72" lon="3.32501">
        <ele>359.4</ele>
        <time>2024-04-28T08:18:07Z</time>
      </trkpt>
      <trkpt lat="45.71997" lon="3.32493">
        <ele>359.4</ele>
        <time>2024-04-28T08:18:08Z</time>
      </trkpt>
      <trkpt lat="45.71994" lon="3.32486">
        <ele>359.4</ele>
        <time>2024-04-28T08:18:09Z</time>
      </trkpt>
      <trkpt lat="45.71991" lon="3.32478">
        <ele>359.6</ele>
        <time>2024-04-28T08:18:10Z</time>
      </trkpt>
      <trkpt lat="45.71987" lon="3.32471">
        <ele>359.8</ele>
        <time>2024-04-28T08:18:11Z</time>
      </trkpt>
      <trkpt lat="45.71984" lon="3.32464">
        <ele>359.8</ele>
        <time>2024-04-28T08:18:12Z</time>
      </trkpt>
      <trkpt lat="45.71981" lon="3.32458">
        <ele>359.8</ele>
        <time>2024-04-28T08:18:13Z</time>
      </trkpt>
      <trkpt lat="45.71978" lon="3.32451">
        <ele>360</ele>
        <time>2024-04-28T08:18:14Z</time>
      </trkpt>
      <trkpt lat="45.71976" lon="3.32446">
        <ele>360.2</ele>
        <time>2024-04-28T08:18:15Z</time>
      </trkpt>
      <trkpt lat="45.71973" lon="3.3244">
        <ele>360.2</ele>
        <time>2024-04-28T08:18:16Z</time>
      </trkpt>
      <trkpt lat="45.71971" lon="3.32435">
        <ele>360.4</ele>
        <time>2024-04-28T08:18:17Z</time>
      </trkpt>
      <trkpt lat="45.71969" lon="3.32429">
        <ele>360.4</ele>
        <time>2024-04-28T08:18:18Z</time>
      </trkpt>
      <trkpt lat="45.71966" lon="3.32423">
        <ele>360.6</ele>
        <time>2024-04-28T08:18:19Z</time>
      </trkpt>
      <trkpt lat="45.71964" lon="3.32417">
        <ele>360.6</ele>
        <time>2024-04-28T08:18:20Z</time>
      </trkpt>
      <trkpt lat="45.71951" lon="3.32441">
        <ele>360.8</ele>
        <time>2024-04-28T08:18:21Z</time>
      </trkpt>
      <trkpt lat="45.71944" lon="3.32443">
        <ele>360.8</ele>
        <time>2024-04-28T08:18:22Z</time>
      </trkpt>
      <trkpt lat="45.71934" lon="3.32443">
        <ele>360.8</ele>
        <time>2024-04-28T08:18:23Z</time>
      </trkpt>
      <trkpt lat="45.71928" lon="3.32443">
        <ele>360.8</ele>
        <time>2024-04-28T08:18:24Z</time>
      </trkpt>
      <trkpt lat="45.71921" lon="3.32442">
        <ele>361</ele>
        <time>2024-04-28T08:18:25Z</time>
      </trkpt>
      <trkpt lat="45.71914" lon="3.32442">
        <ele>361</ele>
        <time>2024-04-28T08:18:26Z</time>
      </trkpt>
      <trkpt lat="45.71907" lon="3.32441">
        <ele>361</ele>
        <time>2024-04-28T08:18:27Z</time>
      </trkpt>
      <trkpt lat="45.71899" lon="3.32441">
        <ele>361</ele>
        <time>2024-04-28T08:18:28Z</time>
      </trkpt>
      <trkpt lat="45.71893" lon="3.3244">
        <ele>361.2</ele>
        <time>2024-04-28T08:18:29Z</time>
      </trkpt>
      <trkpt lat="45.71886" lon="3.3244">
        <ele>361.2</ele>
        <time>2024-04-28T08:18:30Z</time>
      </trkpt>
      <trkpt lat="45.71879" lon="3.32439">
        <ele>361.2</ele>
        <time>2024-04-28T08:18:31Z</time>
      </trkpt>
      <trkpt lat="45.71873" lon="3.32439">
        <ele>361.4</ele>
        <time>2024-04-28T08:18:32Z</time>
      </trkpt>
      <trkpt lat="45.71866" lon="3.32438">
        <ele>361.4</ele>
        <time>2024-04-28T08:18:33Z</time>
      </trkpt>
      <trkpt lat="45.71859" lon="3.32438">
        <ele>361.4</ele>
        <time>2024-04-28T08:18:34Z</time>
      </trkpt>
      <trkpt lat="45.71852" lon="3.32437">
        <ele>361.4</ele>
        <time>2024-04-28T08:18:35Z</time>
      </trkpt>
      <trkpt lat="45.71846" lon="3.32437">
        <ele>361.6</ele>
        <time>2024-04-28T08:18:36Z</time>
      </trkpt>
      <trkpt lat="45.71839" lon="3.32436">
        <ele>361.6</ele>
        <time>2024-04-28T08:18:37Z</time>
      </trkpt>
      <trkpt lat="45.71831" lon="3.32436">
        <ele>361.6</ele>
        <time>2024-04-28T08:18:38Z</time>
      </trkpt>
      <trkpt lat="45.71824" lon="3.32436">
        <ele>361.8</ele>
        <time>2024-04-28T08:18:39Z</time>
      </trkpt>
      <trkpt lat="45.71818" lon="3.32435">
        <ele>361.8</ele>
        <time>2024-04-28T08:18:40Z</time>
      </trkpt>
      <trkpt lat="45.71811" lon="3.32432">
        <ele>361.8</ele>
        <time>2024-04-28T08:18:41Z</time>
      </trkpt>
      <trkpt lat="45.71805" lon="3.32429">
        <ele>361.8</ele>
        <time>2024-04-28T08:18:42Z</time>
      </trkpt>
      <trkpt lat="45.71799" lon="3.32427">
        <ele>362</ele>
        <time>2024-04-28T08:18:43Z</time>
      </trkpt>
      <trkpt lat="45.71792" lon="3.32424">
        <ele>362</ele>
        <time>2024-04-28T08:18:44Z</time>
      </trkpt>
      <trkpt lat="45.71785" lon="3.32421">
        <ele>362</ele>
        <time>2024-04-28T08:18:45Z</time>
      </trkpt>
      <trkpt lat="45.71778" lon="3.32418">
        <ele>362</ele>
        <time>2024-04-28T08:18:46Z</time>
      </trkpt>
      <trkpt lat="45.71772" lon="3.32415">
        <ele>362.2</ele>
        <time>2024-04-28T08:18:47Z</time>
      </trkpt>
      <trkpt lat="45.71765" lon="3.32413">
        <ele>362.2</ele>
        <time>2024-04-28T08:18:48Z</time>
      </trkpt>
      <trkpt lat="45.71758" lon="3.3241">
        <ele>362.2</ele>
        <time>2024-04-28T08:18:49Z</time>
      </trkpt>
      <trkpt lat="45.71751" lon="3.32407">
        <ele>362.2</ele>
        <time>2024-04-28T08:18:50Z</time>
      </trkpt>
      <trkpt lat="45.71745" lon="3.32404">
        <ele>362.2</ele>
        <time>2024-04-28T08:18:51Z</time>
      </trkpt>
      <trkpt lat="45.71738" lon="3.32401">
        <ele>362.2</ele>
        <time>2024-04-28T08:18:52Z</time>
      </trkpt>
      <trkpt lat="45.71732" lon="3.32399">
        <ele>362.4</ele>
        <time>2024-04-28T08:18:53Z</time>
      </trkpt>
      <trkpt lat="45.71725" lon="3.32396">
        <ele>362.4</ele>
        <time>2024-04-28T08:18:54Z</time>
      </trkpt>
      <trkpt lat="45.71718" lon="3.32393">
        <ele>362.4</ele>
        <time>2024-04-28T08:18:55Z</time>
      </trkpt>
      <trkpt lat="45.71712" lon="3.32391">
        <ele>362.4</ele>
        <time>2024-04-28T08:18:56Z</time>
      </trkpt>
      <trkpt lat="45.71706" lon="3.32388">
        <ele>362.6</ele>
        <time>2024-04-28T08:18:57Z</time>
      </trkpt>
      <trkpt lat="45.71699" lon="3.32385">
        <ele>362.6</ele>
        <time>2024-04-28T08:18:58Z</time>
      </trkpt>
      <trkpt lat="45.71693" lon="3.32383">
        <ele>362.6</ele>
        <time>2024-04-28T08:18:59Z</time>
      </trkpt>
      <trkpt lat="45.71687" lon="3.3238">
        <ele>362.6</ele>
        <time>2024-04-28T08:19:00Z</time>
      </trkpt>
      <trkpt lat="45.7168" lon="3.32377">
        <ele>362.6</ele>
        <time>2024-04-28T08:19:01Z</time>
      </trkpt>
      <trkpt lat="45.71674" lon="3.32375">
        <ele>362.8</ele>
        <time>2024-04-28T08:19:02Z</time>
      </trkpt>
      <trkpt lat="45.71669" lon="3.32372">
        <ele>362.8</ele>
        <time>2024-04-28T08:19:03Z</time>
      </trkpt>
      <trkpt lat="45.71662" lon="3.3237">
        <ele>362.8</ele>
        <time>2024-04-28T08:19:04Z</time>
      </trkpt>
      <trkpt lat="45.71656" lon="3.32367">
        <ele>363</ele>
        <time>2024-04-28T08:19:05Z</time>
      </trkpt>
      <trkpt lat="45.7165" lon="3.32365">
        <ele>363</ele>
        <time>2024-04-28T08:19:06Z</time>
      </trkpt>
      <trkpt lat="45.71644" lon="3.32362">
        <ele>363</ele>
        <time>2024-04-28T08:19:07Z</time>
      </trkpt>
      <trkpt lat="45.71638" lon="3.3236">
        <ele>363.2</ele>
        <time>2024-04-28T08:19:08Z</time>
      </trkpt>
      <trkpt lat="45.71632" lon="3.32357">
        <ele>363.2</ele>
        <time>2024-04-28T08:19:09Z</time>
      </trkpt>
      <trkpt lat="45.71626" lon="3.32355">
        <ele>363.2</ele>
        <time>2024-04-28T08:19:10Z</time>
      </trkpt>
      <trkpt lat="45.7162" lon="3.32352">
        <ele>363.2</ele>
        <time>2024-04-28T08:19:11Z</time>
      </trkpt>
      <trkpt lat="45.71615" lon="3.3235">
        <ele>363.2</ele>
        <time>2024-04-28T08:19:12Z</time>
      </trkpt>
      <trkpt lat="45.71608" lon="3.32347">
        <ele>363.2</ele>
        <time>2024-04-28T08:19:13Z</time>
      </trkpt>
      <trkpt lat="45.71602" lon="3.32345">
        <ele>363.4</ele>
        <time>2024-04-28T08:19:14Z</time>
      </trkpt>
      <trkpt lat="45.71596" lon="3.32342">
        <ele>363.4</ele>
        <time>2024-04-28T08:19:15Z</time>
      </trkpt>
      <trkpt lat="45.7159" lon="3.3234">
        <ele>363.4</ele>
        <time>2024-04-28T08:19:16Z</time>
      </trkpt>
      <trkpt lat="45.71584" lon="3.32337">
        <ele>363.6</ele>
        <time>2024-04-28T08:19:17Z</time>
      </trkpt>
      <trkpt lat="45.71578" lon="3.32335">
        <ele>363.6</ele>
        <time>2024-04-28T08:19:18Z</time>
      </trkpt>
      <trkpt lat="45.71572" lon="3.32332">
        <ele>363.6</ele>
        <time>2024-04-28T08:19:19Z</time>
      </trkpt>
      <trkpt lat="45.71566" lon="3.32329">
        <ele>363.6</ele>
        <time>2024-04-28T08:19:20Z</time>
      </trkpt>
      <trkpt lat="45.7156" lon="3.32327">
        <ele>363.6</ele>
        <time>2024-04-28T08:19:21Z</time>
      </trkpt>
      <trkpt lat="45.71548" lon="3.32322">
        <ele>363.8</ele>
        <time>2024-04-28T08:19:22Z</time>
      </trkpt>
      <trkpt lat="45.71548" lon="3.32322">
        <ele>363.8</ele>
        <time>2024-04-28T08:19:23Z</time>
      </trkpt>
      <trkpt lat="45.71542" lon="3.32319">
        <ele>364</ele>
        <time>2024-04-28T08:19:24Z</time>
      </trkpt>
      <trkpt lat="45.71536" lon="3.32317">
        <ele>364</ele>
        <time>2024-04-28T08:19:25Z</time>
      </trkpt>
      <trkpt lat="45.71529" lon="3.32314">
        <ele>364</ele>
        <time>2024-04-28T08:19:26Z</time>
      </trkpt>
      <trkpt lat="45.71523" lon="3.32312">
        <ele>364</ele>
        <time>2024-04-28T08:19:27Z</time>
      </trkpt>
      <trkpt lat="45.71517" lon="3.32309">
        <ele>364</ele>
        <time>2024-04-28T08:19:28Z</time>
      </trkpt>
      <trkpt lat="45.7151" lon="3.32306">
        <ele>364</ele>
        <time>2024-04-28T08:19:29Z</time>
      </trkpt>
      <trkpt lat="45.71504" lon="3.32304">
        <ele>364.2</ele>
        <time>2024-04-28T08:19:30Z</time>
      </trkpt>
      <trkpt lat="45.71498" lon="3.32301">
        <ele>364.2</ele>
        <time>2024-04-28T08:19:31Z</time>
      </trkpt>
      <trkpt lat="45.71492" lon="3.32299">
        <ele>364.2</ele>
        <time>2024-04-28T08:19:32Z</time>
      </trkpt>
      <trkpt lat="45.71486" lon="3.32296">
        <ele>364.2</ele>
        <time>2024-04-28T08:19:33Z</time>
      </trkpt>
      <trkpt lat="45.7148" lon="3.32293">
        <ele>364.4</ele>
        <time>2024-04-28T08:19:34Z</time>
      </trkpt>
      <trkpt lat="45.71474" lon="3.32291">
        <ele>364.4</ele>
        <time>2024-04-28T08:19:35Z</time>
      </trkpt>
      <trkpt lat="45.71467" lon="3.32288">
        <ele>364.4</ele>
        <time>2024-04-28T08:19:36Z</time>
      </trkpt>
      <trkpt lat="45.71461" lon="3.32286">
        <ele>364.4</ele>
        <time>2024-04-28T08:19:37Z</time>
      </trkpt>
      <trkpt lat="45.71455" lon="3.32283">
        <ele>364.6</ele>
        <time>2024-04-28T08:19:38Z</time>
      </trkpt>
      <trkpt lat="45.71449" lon="3.32281">
        <ele>364.6</ele>
        <time>2024-04-28T08:19:39Z</time>
      </trkpt>
      <trkpt lat="45.71443" lon="3.32278">
        <ele>364.6</ele>
        <time>2024-04-28T08:19:40Z</time>
      </trkpt>
      <trkpt lat="45.71436" lon="3.32275">
        <ele>364.6</ele>
        <time>2024-04-28T08:19:41Z</time>
      </trkpt>
      <trkpt lat="45.7143" lon="3.32273">
        <ele>364.6</ele>
        <time>2024-04-28T08:19:42Z</time>
      </trkpt>
      <trkpt lat="45.71424" lon="3.3227">
        <ele>364.8</ele>
        <time>2024-04-28T08:19:43Z</time>
      </trkpt>
      <trkpt lat="45.71417" lon="3.32267">
        <ele>364.8</ele>
        <time>2024-04-28T08:19:44Z</time>
      </trkpt>
      <trkpt lat="45.71411" lon="3.32265">
        <ele>364.8</ele>
        <time>2024-04-28T08:19:45Z</time>
      </trkpt>
      <trkpt lat="45.71405" lon="3.32262">
        <ele>365</ele>
        <time>2024-04-28T08:19:46Z</time>
      </trkpt>
      <trkpt lat="45.71399" lon="3.3226">
        <ele>365</ele>
        <time>2024-04-28T08:19:47Z</time>
      </trkpt>
      <trkpt lat="45.71393" lon="3.32257">
        <ele>365.2</ele>
        <time>2024-04-28T08:19:48Z</time>
      </trkpt>
      <trkpt lat="45.71386" lon="3.32254">
        <ele>365.2</ele>
        <time>2024-04-28T08:19:49Z</time>
      </trkpt>
      <trkpt lat="45.7138" lon="3.32252">
        <ele>365.2</ele>
        <time>2024-04-28T08:19:50Z</time>
      </trkpt>
      <trkpt lat="45.71374" lon="3.32249">
        <ele>365.2</ele>
        <time>2024-04-28T08:19:51Z</time>
      </trkpt>
      <trkpt lat="45.71368" lon="3.32247">
        <ele>365.2</ele>
        <time>2024-04-28T08:19:52Z</time>
      </trkpt>
      <trkpt lat="45.71362" lon="3.32244">
        <ele>365.4</ele>
        <time>2024-04-28T08:19:53Z</time>
      </trkpt>
      <trkpt lat="45.71356" lon="3.32242">
        <ele>365.4</ele>
        <time>2024-04-28T08:19:54Z</time>
      </trkpt>
      <trkpt lat="45.7135" lon="3.32239">
        <ele>365.4</ele>
        <time>2024-04-28T08:19:55Z</time>
      </trkpt>
      <trkpt lat="45.71344" lon="3.32237">
        <ele>365.6</ele>
        <time>2024-04-28T08:19:56Z</time>
      </trkpt>
      <trkpt lat="45.71339" lon="3.32235">
        <ele>365.6</ele>
        <time>2024-04-28T08:19:57Z</time>
      </trkpt>
      <trkpt lat="45.71333" lon="3.32232">
        <ele>365.6</ele>
        <time>2024-04-28T08:19:58Z</time>
      </trkpt>
      <trkpt lat="45.71327" lon="3.3223">
        <ele>365.8</ele>
        <time>2024-04-28T08:19:59Z</time>
      </trkpt>
      <trkpt lat="45.71322" lon="3.32227">
        <ele>365.8</ele>
        <time>2024-04-28T08:20:00Z</time>
      </trkpt>
      <trkpt lat="45.71316" lon="3.32225">
        <ele>365.8</ele>
        <time>2024-04-28T08:20:01Z</time>
      </trkpt>
      <trkpt lat="45.7131" lon="3.32223">
        <ele>366</ele>
        <time>2024-04-28T08:20:02Z</time>
      </trkpt>
      <trkpt lat="45.71305" lon="3.3222">
        <ele>366</ele>
        <time>2024-04-28T08:20:03Z</time>
      </trkpt>
      <trkpt lat="45.71299" lon="3.32218">
        <ele>366</ele>
        <time>2024-04-28T08:20:04Z</time>
      </trkpt>
      <trkpt lat="45.71293" lon="3.32215">
        <ele>366.2</ele>
        <time>2024-04-28T08:20:05Z</time>
      </trkpt>
      <trkpt lat="45.71287" lon="3.32213">
        <ele>366.2</ele>
        <time>2024-04-28T08:20:06Z</time>
      </trkpt>
      <trkpt lat="45.71282" lon="3.32211">
        <ele>366.2</ele>
        <time>2024-04-28T08:20:07Z</time>
      </trkpt>
      <trkpt lat="45.71276" lon="3.32208">
        <ele>366.4</ele>
        <time>2024-04-28T08:20:08Z</time>
      </trkpt>
      <trkpt lat="45.7127" lon="3.32206">
        <ele>366.4</ele>
        <time>2024-04-28T08:20:09Z</time>
      </trkpt>
      <trkpt lat="45.71264" lon="3.32203">
        <ele>366.4</ele>
        <time>2024-04-28T08:20:10Z</time>
      </trkpt>
      <trkpt lat="45.71258" lon="3.32201">
        <ele>366.6</ele>
        <time>2024-04-28T08:20:11Z</time>
      </trkpt>
      <trkpt lat="45.71253" lon="3.32199">
        <ele>366.6</ele>
        <time>2024-04-28T08:20:12Z</time>
      </trkpt>
      <trkpt lat="45.71247" lon="3.32196">
        <ele>366.8</ele>
        <time>2024-04-28T08:20:13Z</time>
      </trkpt>
      <trkpt lat="45.71241" lon="3.32194">
        <ele>366.8</ele>
        <time>2024-04-28T08:20:14Z</time>
      </trkpt>
      <trkpt lat="45.71235" lon="3.32191">
        <ele>366.8</ele>
        <time>2024-04-28T08:20:15Z</time>
      </trkpt>
      <trkpt lat="45.71229" lon="3.32189">
        <ele>367</ele>
        <time>2024-04-28T08:20:16Z</time>
      </trkpt>
      <trkpt lat="45.71224" lon="3.32186">
        <ele>367</ele>
        <time>2024-04-28T08:20:17Z</time>
      </trkpt>
      <trkpt lat="45.71218" lon="3.32184">
        <ele>367.2</ele>
        <time>2024-04-28T08:20:18Z</time>
      </trkpt>
      <trkpt lat="45.71212" lon="3.32182">
        <ele>367.2</ele>
        <time>2024-04-28T08:20:19Z</time>
      </trkpt>
      <trkpt lat="45.71207" lon="3.32179">
        <ele>367.2</ele>
        <time>2024-04-28T08:20:20Z</time>
      </trkpt>
      <trkpt lat="45.71201" lon="3.32177">
        <ele>367.4</ele>
        <time>2024-04-28T08:20:21Z</time>
      </trkpt>
      <trkpt lat="45.71196" lon="3.32175">
        <ele>367.4</ele>
        <time>2024-04-28T08:20:22Z</time>
      </trkpt>
      <trkpt lat="45.7119" lon="3.32173">
        <ele>367.4</ele>
        <time>2024-04-28T08:20:23Z</time>
      </trkpt>
      <trkpt lat="45.71185" lon="3.32171">
        <ele>367.6</ele>
        <time>2024-04-28T08:20:24Z</time>
      </trkpt>
      <trkpt lat="45.71179" lon="3.32168">
        <ele>367.6</ele>
        <time>2024-04-28T08:20:25Z</time>
      </trkpt>
      <trkpt lat="45.71174" lon="3.32166">
        <ele>367.8</ele>
        <time>2024-04-28T08:20:26Z</time>
      </trkpt>
      <trkpt lat="45.71168" lon="3.32163">
        <ele>367.8</ele>
        <time>2024-04-28T08:20:27Z</time>
      </trkpt>
      <trkpt lat="45.71162" lon="3.3216">
        <ele>367.8</ele>
        <time>2024-04-28T08:20:28Z</time>
      </trkpt>
      <trkpt lat="45.71157" lon="3.32157">
        <ele>368</ele>
        <time>2024-04-28T08:20:29Z</time>
      </trkpt>
      <trkpt lat="45.71151" lon="3.32155">
        <ele>368</ele>
        <time>2024-04-28T08:20:30Z</time>
      </trkpt>
      <trkpt lat="45.71145" lon="3.32152">
        <ele>368</ele>
        <time>2024-04-28T08:20:31Z</time>
      </trkpt>
      <trkpt lat="45.7114" lon="3.32149">
        <ele>368.2</ele>
        <time>2024-04-28T08:20:32Z</time>
      </trkpt>
      <trkpt lat="45.71134" lon="3.32146">
        <ele>368.2</ele>
        <time>2024-04-28T08:20:33Z</time>
      </trkpt>
      <trkpt lat="45.71129" lon="3.32143">
        <ele>368.2</ele>
        <time>2024-04-28T08:20:34Z</time>
      </trkpt>
      <trkpt lat="45.71123" lon="3.3214">
        <ele>368.4</ele>
        <time>2024-04-28T08:20:35Z</time>
      </trkpt>
      <trkpt lat="45.71118" lon="3.32137">
        <ele>368.4</ele>
        <time>2024-04-28T08:20:36Z</time>
      </trkpt>
      <trkpt lat="45.71113" lon="3.32135">
        <ele>368.4</ele>
        <time>2024-04-28T08:20:37Z</time>
      </trkpt>
      <trkpt lat="45.71107" lon="3.32131">
        <ele>368.6</ele>
        <time>2024-04-28T08:20:38Z</time>
      </trkpt>
      <trkpt lat="45.71103" lon="3.32127">
        <ele>368.6</ele>
        <time>2024-04-28T08:20:39Z</time>
      </trkpt>
      <trkpt lat="45.71098" lon="3.32123">
        <ele>368.8</ele>
        <time>2024-04-28T08:20:40Z</time>
      </trkpt>
      <trkpt lat="45.71093" lon="3.32118">
        <ele>368.8</ele>
        <time>2024-04-28T08:20:41Z</time>
      </trkpt>
      <trkpt lat="45.71088" lon="3.32114">
        <ele>368.8</ele>
        <time>2024-04-28T08:20:42Z</time>
      </trkpt>
      <trkpt lat="45.71084" lon="3.3211">
        <ele>369</ele>
        <time>2024-04-28T08:20:43Z</time>
      </trkpt>
      <trkpt lat="45.71079" lon="3.32105">
        <ele>369</ele>
        <time>2024-04-28T08:20:44Z</time>
      </trkpt>
      <trkpt lat="45.71075" lon="3.32101">
        <ele>369.2</ele>
        <time>2024-04-28T08:20:45Z</time>
      </trkpt>
      <trkpt lat="45.7107" lon="3.32097">
        <ele>369.4</ele>
        <time>2024-04-28T08:20:46Z</time>
      </trkpt>
      <trkpt lat="45.71065" lon="3.32093">
        <ele>369.4</ele>
        <time>2024-04-28T08:20:47Z</time>
      </trkpt>
      <trkpt lat="45.7106" lon="3.32088">
        <ele>369.6</ele>
        <time>2024-04-28T08:20:48Z</time>
      </trkpt>
      <trkpt lat="45.71056" lon="3.32084">
        <ele>369.6</ele>
        <time>2024-04-28T08:20:49Z</time>
      </trkpt>
      <trkpt lat="45.71051" lon="3.3208">
        <ele>369.8</ele>
        <time>2024-04-28T08:20:50Z</time>
      </trkpt>
      <trkpt lat="45.71047" lon="3.32073">
        <ele>369.8</ele>
        <time>2024-04-28T08:20:51Z</time>
      </trkpt>
      <trkpt lat="45.71043" lon="3.32068">
        <ele>370</ele>
        <time>2024-04-28T08:20:52Z</time>
      </trkpt>
      <trkpt lat="45.7104" lon="3.32061">
        <ele>370</ele>
        <time>2024-04-28T08:20:53Z</time>
      </trkpt>
      <trkpt lat="45.71036" lon="3.32055">
        <ele>370.2</ele>
        <time>2024-04-28T08:20:54Z</time>
      </trkpt>
      <trkpt lat="45.71032" lon="3.3205">
        <ele>370.2</ele>
        <time>2024-04-28T08:20:55Z</time>
      </trkpt>
      <trkpt lat="45.71028" lon="3.32044">
        <ele>370.4</ele>
        <time>2024-04-28T08:20:56Z</time>
      </trkpt>
      <trkpt lat="45.71025" lon="3.32038">
        <ele>370.4</ele>
        <time>2024-04-28T08:20:57Z</time>
      </trkpt>
      <trkpt lat="45.71021" lon="3.32032">
        <ele>370.6</ele>
        <time>2024-04-28T08:20:58Z</time>
      </trkpt>
      <trkpt lat="45.71017" lon="3.32026">
        <ele>370.8</ele>
        <time>2024-04-28T08:20:59Z</time>
      </trkpt>
      <trkpt lat="45.71014" lon="3.3202">
        <ele>370.8</ele>
        <time>2024-04-28T08:21:00Z</time>
      </trkpt>
      <trkpt lat="45.7101" lon="3.32014">
        <ele>371</ele>
        <time>2024-04-28T08:21:01Z</time>
      </trkpt>
      <trkpt lat="45.71006" lon="3.32009">
        <ele>371</ele>
        <time>2024-04-28T08:21:02Z</time>
      </trkpt>
      <trkpt lat="45.71002" lon="3.32003">
        <ele>371.2</ele>
        <time>2024-04-28T08:21:03Z</time>
      </trkpt>
      <trkpt lat="45.70999" lon="3.31997">
        <ele>371.2</ele>
        <time>2024-04-28T08:21:04Z</time>
      </trkpt>
      <trkpt lat="45.70995" lon="3.31991">
        <ele>371.4</ele>
        <time>2024-04-28T08:21:05Z</time>
      </trkpt>
      <trkpt lat="45.70991" lon="3.31985">
        <ele>371.4</ele>
        <time>2024-04-28T08:21:06Z</time>
      </trkpt>
      <trkpt lat="45.70988" lon="3.3198">
        <ele>371.4</ele>
        <time>2024-04-28T08:21:07Z</time>
      </trkpt>
      <trkpt lat="45.70984" lon="3.31974">
        <ele>371.6</ele>
        <time>2024-04-28T08:21:08Z</time>
      </trkpt>
      <trkpt lat="45.7098" lon="3.31968">
        <ele>371.6</ele>
        <time>2024-04-28T08:21:09Z</time>
      </trkpt>
      <trkpt lat="45.70977" lon="3.31962">
        <ele>371.8</ele>
        <time>2024-04-28T08:21:10Z</time>
      </trkpt>
      <trkpt lat="45.70973" lon="3.31957">
        <ele>371.8</ele>
        <time>2024-04-28T08:21:11Z</time>
      </trkpt>
      <trkpt lat="45.7097" lon="3.31951">
        <ele>372</ele>
        <time>2024-04-28T08:21:12Z</time>
      </trkpt>
      <trkpt lat="45.70966" lon="3.31946">
        <ele>372</ele>
        <time>2024-04-28T08:21:13Z</time>
      </trkpt>
      <trkpt lat="45.70963" lon="3.3194">
        <ele>372.2</ele>
        <time>2024-04-28T08:21:14Z</time>
      </trkpt>
      <trkpt lat="45.70959" lon="3.31935">
        <ele>372.2</ele>
        <time>2024-04-28T08:21:15Z</time>
      </trkpt>
      <trkpt lat="45.70956" lon="3.3193">
        <ele>372.4</ele>
        <time>2024-04-28T08:21:16Z</time>
      </trkpt>
      <trkpt lat="45.70953" lon="3.31924">
        <ele>372.4</ele>
        <time>2024-04-28T08:21:17Z</time>
      </trkpt>
      <trkpt lat="45.70949" lon="3.31919">
        <ele>372.6</ele>
        <time>2024-04-28T08:21:18Z</time>
      </trkpt>
      <trkpt lat="45.70946" lon="3.31913">
        <ele>372.6</ele>
        <time>2024-04-28T08:21:19Z</time>
      </trkpt>
      <trkpt lat="45.70942" lon="3.31908">
        <ele>372.8</ele>
        <time>2024-04-28T08:21:20Z</time>
      </trkpt>
      <trkpt lat="45.70939" lon="3.31903">
        <ele>372.8</ele>
        <time>2024-04-28T08:21:21Z</time>
      </trkpt>
      <trkpt lat="45.70936" lon="3.31897">
        <ele>373</ele>
        <time>2024-04-28T08:21:22Z</time>
      </trkpt>
      <trkpt lat="45.70932" lon="3.31892">
        <ele>373</ele>
        <time>2024-04-28T08:21:23Z</time>
      </trkpt>
      <trkpt lat="45.70929" lon="3.31886">
        <ele>373.2</ele>
        <time>2024-04-28T08:21:24Z</time>
      </trkpt>
      <trkpt lat="45.70926" lon="3.31882">
        <ele>373.4</ele>
        <time>2024-04-28T08:21:25Z</time>
      </trkpt>
      <trkpt lat="45.70922" lon="3.31876">
        <ele>373.4</ele>
        <time>2024-04-28T08:21:26Z</time>
      </trkpt>
      <trkpt lat="45.70919" lon="3.31872">
        <ele>373.6</ele>
        <time>2024-04-28T08:21:27Z</time>
      </trkpt>
      <trkpt lat="45.70916" lon="3.31866">
        <ele>373.6</ele>
        <time>2024-04-28T08:21:28Z</time>
      </trkpt>
      <trkpt lat="45.70913" lon="3.31861">
        <ele>373.8</ele>
        <time>2024-04-28T08:21:29Z</time>
      </trkpt>
      <trkpt lat="45.70909" lon="3.31856">
        <ele>373.8</ele>
        <time>2024-04-28T08:21:30Z</time>
      </trkpt>
      <trkpt lat="45.70906" lon="3.3185">
        <ele>374</ele>
        <time>2024-04-28T08:21:31Z</time>
      </trkpt>
      <trkpt lat="45.70902" lon="3.31845">
        <ele>374</ele>
        <time>2024-04-28T08:21:32Z</time>
      </trkpt>
      <trkpt lat="45.70899" lon="3.3184">
        <ele>374.2</ele>
        <time>2024-04-28T08:21:33Z</time>
      </trkpt>
      <trkpt lat="45.70896" lon="3.31835">
        <ele>374.2</ele>
        <time>2024-04-28T08:21:34Z</time>
      </trkpt>
      <trkpt lat="45.70892" lon="3.3183">
        <ele>374.4</ele>
        <time>2024-04-28T08:21:35Z</time>
      </trkpt>
      <trkpt lat="45.70885" lon="3.31821">
        <ele>374.4</ele>
        <time>2024-04-28T08:21:36Z</time>
      </trkpt>
      <trkpt lat="45.70885" lon="3.31821">
        <ele>374.6</ele>
        <time>2024-04-28T08:21:37Z</time>
      </trkpt>
      <trkpt lat="45.70882" lon="3.31816">
        <ele>374.6</ele>
        <time>2024-04-28T08:21:38Z</time>
      </trkpt>
      <trkpt lat="45.70878" lon="3.31811">
        <ele>374.8</ele>
        <time>2024-04-28T08:21:39Z</time>
      </trkpt>
      <trkpt lat="45.70875" lon="3.31806">
        <ele>375</ele>
        <time>2024-04-28T08:21:40Z</time>
      </trkpt>
      <trkpt lat="45.70871" lon="3.31802">
        <ele>375</ele>
        <time>2024-04-28T08:21:41Z</time>
      </trkpt>
      <trkpt lat="45.70868" lon="3.31797">
        <ele>375.2</ele>
        <time>2024-04-28T08:21:42Z</time>
      </trkpt>
      <trkpt lat="45.70864" lon="3.31792">
        <ele>375.2</ele>
        <time>2024-04-28T08:21:43Z</time>
      </trkpt>
      <trkpt lat="45.70861" lon="3.31787">
        <ele>375.4</ele>
        <time>2024-04-28T08:21:44Z</time>
      </trkpt>
      <trkpt lat="45.70857" lon="3.31782">
        <ele>375.6</ele>
        <time>2024-04-28T08:21:45Z</time>
      </trkpt>
      <trkpt lat="45.70854" lon="3.31777">
        <ele>375.6</ele>
        <time>2024-04-28T08:21:46Z</time>
      </trkpt>
      <trkpt lat="45.7085" lon="3.31772">
        <ele>375.8</ele>
        <time>2024-04-28T08:21:47Z</time>
      </trkpt>
      <trkpt lat="45.70846" lon="3.31767">
        <ele>375.8</ele>
        <time>2024-04-28T08:21:48Z</time>
      </trkpt>
      <trkpt lat="45.70843" lon="3.31763">
        <ele>376</ele>
        <time>2024-04-28T08:21:49Z</time>
      </trkpt>
      <trkpt lat="45.70839" lon="3.31759">
        <ele>376.2</ele>
        <time>2024-04-28T08:21:50Z</time>
      </trkpt>
      <trkpt lat="45.70836" lon="3.31755">
        <ele>376.2</ele>
        <time>2024-04-28T08:21:51Z</time>
      </trkpt>
      <trkpt lat="45.70832" lon="3.31751">
        <ele>376.4</ele>
        <time>2024-04-28T08:21:52Z</time>
      </trkpt>
      <trkpt lat="45.70828" lon="3.31746">
        <ele>376.6</ele>
        <time>2024-04-28T08:21:53Z</time>
      </trkpt>
      <trkpt lat="45.70824" lon="3.31742">
        <ele>376.6</ele>
        <time>2024-04-28T08:21:54Z</time>
      </trkpt>
      <trkpt lat="45.70821" lon="3.31738">
        <ele>376.8</ele>
        <time>2024-04-28T08:21:55Z</time>
      </trkpt>
      <trkpt lat="45.70817" lon="3.31734">
        <ele>376.8</ele>
        <time>2024-04-28T08:21:56Z</time>
      </trkpt>
      <trkpt lat="45.70814" lon="3.3173">
        <ele>377</ele>
        <time>2024-04-28T08:21:57Z</time>
      </trkpt>
      <trkpt lat="45.7081" lon="3.31725">
        <ele>377.2</ele>
        <time>2024-04-28T08:21:58Z</time>
      </trkpt>
      <trkpt lat="45.70806" lon="3.31721">
        <ele>377.2</ele>
        <time>2024-04-28T08:21:59Z</time>
      </trkpt>
      <trkpt lat="45.70801" lon="3.31716">
        <ele>377.4</ele>
        <time>2024-04-28T08:22:00Z</time>
      </trkpt>
      <trkpt lat="45.70797" lon="3.31711">
        <ele>377.6</ele>
        <time>2024-04-28T08:22:01Z</time>
      </trkpt>
      <trkpt lat="45.70792" lon="3.31705">
        <ele>377.6</ele>
        <time>2024-04-28T08:22:02Z</time>
      </trkpt>
      <trkpt lat="45.70788" lon="3.317">
        <ele>377.8</ele>
        <time>2024-04-28T08:22:03Z</time>
      </trkpt>
      <trkpt lat="45.70784" lon="3.31695">
        <ele>377.8</ele>
        <time>2024-04-28T08:22:04Z</time>
      </trkpt>
      <trkpt lat="45.7078" lon="3.31691">
        <ele>378</ele>
        <time>2024-04-28T08:22:05Z</time>
      </trkpt>
      <trkpt lat="45.70776" lon="3.31686">
        <ele>378</ele>
        <time>2024-04-28T08:22:06Z</time>
      </trkpt>
      <trkpt lat="45.70772" lon="3.31682">
        <ele>378.2</ele>
        <time>2024-04-28T08:22:07Z</time>
      </trkpt>
      <trkpt lat="45.70768" lon="3.31677">
        <ele>378.4</ele>
        <time>2024-04-28T08:22:08Z</time>
      </trkpt>
      <trkpt lat="45.70764" lon="3.31673">
        <ele>378.4</ele>
        <time>2024-04-28T08:22:09Z</time>
      </trkpt>
      <trkpt lat="45.7076" lon="3.31668">
        <ele>378.6</ele>
        <time>2024-04-28T08:22:10Z</time>
      </trkpt>
      <trkpt lat="45.70757" lon="3.31664">
        <ele>378.8</ele>
        <time>2024-04-28T08:22:11Z</time>
      </trkpt>
      <trkpt lat="45.70753" lon="3.3166">
        <ele>378.8</ele>
        <time>2024-04-28T08:22:12Z</time>
      </trkpt>
      <trkpt lat="45.70749" lon="3.31656">
        <ele>379</ele>
        <time>2024-04-28T08:22:13Z</time>
      </trkpt>
      <trkpt lat="45.70745" lon="3.31651">
        <ele>379.2</ele>
        <time>2024-04-28T08:22:14Z</time>
      </trkpt>
      <trkpt lat="45.70742" lon="3.31647">
        <ele>379.4</ele>
        <time>2024-04-28T08:22:15Z</time>
      </trkpt>
      <trkpt lat="45.70738" lon="3.31642">
        <ele>379.4</ele>
        <time>2024-04-28T08:22:16Z</time>
      </trkpt>
      <trkpt lat="45.70734" lon="3.31638">
        <ele>379.6</ele>
        <time>2024-04-28T08:22:17Z</time>
      </trkpt>
      <trkpt lat="45.7073" lon="3.31634">
        <ele>379.8</ele>
        <time>2024-04-28T08:22:18Z</time>
      </trkpt>
      <trkpt lat="45.70726" lon="3.31629">
        <ele>379.8</ele>
        <time>2024-04-28T08:22:19Z</time>
      </trkpt>
      <trkpt lat="45.70723" lon="3.31625">
        <ele>380</ele>
        <time>2024-04-28T08:22:20Z</time>
      </trkpt>
      <trkpt lat="45.70719" lon="3.31621">
        <ele>380</ele>
        <time>2024-04-28T08:22:21Z</time>
      </trkpt>
      <trkpt lat="45.70715" lon="3.31616">
        <ele>380.2</ele>
        <time>2024-04-28T08:22:22Z</time>
      </trkpt>
      <trkpt lat="45.70711" lon="3.31612">
        <ele>380.2</ele>
        <time>2024-04-28T08:22:23Z</time>
      </trkpt>
      <trkpt lat="45.70707" lon="3.31607">
        <ele>380.4</ele>
        <time>2024-04-28T08:22:24Z</time>
      </trkpt>
      <trkpt lat="45.70703" lon="3.31603">
        <ele>380.4</ele>
        <time>2024-04-28T08:22:25Z</time>
      </trkpt>
      <trkpt lat="45.70699" lon="3.31598">
        <ele>380.6</ele>
        <time>2024-04-28T08:22:26Z</time>
      </trkpt>
      <trkpt lat="45.70695" lon="3.31593">
        <ele>380.8</ele>
        <time>2024-04-28T08:22:27Z</time>
      </trkpt>
      <trkpt lat="45.70691" lon="3.31589">
        <ele>380.8</ele>
        <time>2024-04-28T08:22:28Z</time>
      </trkpt>
      <trkpt lat="45.70687" lon="3.31585">
        <ele>381</ele>
        <time>2024-04-28T08:22:29Z</time>
      </trkpt>
      <trkpt lat="45.70684" lon="3.3158">
        <ele>381.2</ele>
        <time>2024-04-28T08:22:30Z</time>
      </trkpt>
      <trkpt lat="45.7068" lon="3.31576">
        <ele>381.2</ele>
        <time>2024-04-28T08:22:31Z</time>
      </trkpt>
      <trkpt lat="45.70676" lon="3.31571">
        <ele>381.4</ele>
        <time>2024-04-28T08:22:32Z</time>
      </trkpt>
      <trkpt lat="45.70672" lon="3.31567">
        <ele>381.6</ele>
        <time>2024-04-28T08:22:33Z</time>
      </trkpt>
      <trkpt lat="45.70668" lon="3.31562">
        <ele>381.8</ele>
        <time>2024-04-28T08:22:34Z</time>
      </trkpt>
      <trkpt lat="45.70664" lon="3.31558">
        <ele>381.8</ele>
        <time>2024-04-28T08:22:35Z</time>
      </trkpt>
      <trkpt lat="45.70661" lon="3.31554">
        <ele>382</ele>
        <time>2024-04-28T08:22:36Z</time>
      </trkpt>
      <trkpt lat="45.70657" lon="3.3155">
        <ele>382.2</ele>
        <time>2024-04-28T08:22:37Z</time>
      </trkpt>
      <trkpt lat="45.70654" lon="3.31546">
        <ele>382.2</ele>
        <time>2024-04-28T08:22:38Z</time>
      </trkpt>
      <trkpt lat="45.7065" lon="3.31542">
        <ele>382.4</ele>
        <time>2024-04-28T08:22:39Z</time>
      </trkpt>
      <trkpt lat="45.70647" lon="3.31538">
        <ele>382.4</ele>
        <time>2024-04-28T08:22:40Z</time>
      </trkpt>
      <trkpt lat="45.70644" lon="3.31534">
        <ele>382.6</ele>
        <time>2024-04-28T08:22:41Z</time>
      </trkpt>
      <trkpt lat="45.7064" lon="3.3153">
        <ele>382.8</ele>
        <time>2024-04-28T08:22:42Z</time>
      </trkpt>
      <trkpt lat="45.70637" lon="3.31526">
        <ele>383</ele>
        <time>2024-04-28T08:22:43Z</time>
      </trkpt>
      <trkpt lat="45.70633" lon="3.31522">
        <ele>383</ele>
        <time>2024-04-28T08:22:44Z</time>
      </trkpt>
      <trkpt lat="45.7063" lon="3.31518">
        <ele>383.2</ele>
        <time>2024-04-28T08:22:45Z</time>
      </trkpt>
      <trkpt lat="45.70626" lon="3.31514">
        <ele>383.4</ele>
        <time>2024-04-28T08:22:46Z</time>
      </trkpt>
      <trkpt lat="45.70623" lon="3.3151">
        <ele>383.4</ele>
        <time>2024-04-28T08:22:47Z</time>
      </trkpt>
      <trkpt lat="45.70619" lon="3.31506">
        <ele>383.6</ele>
        <time>2024-04-28T08:22:48Z</time>
      </trkpt>
      <trkpt lat="45.70616" lon="3.31502">
        <ele>383.8</ele>
        <time>2024-04-28T08:22:49Z</time>
      </trkpt>
      <trkpt lat="45.70612" lon="3.31498">
        <ele>383.8</ele>
        <time>2024-04-28T08:22:50Z</time>
      </trkpt>
      <trkpt lat="45.70609" lon="3.31494">
        <ele>384</ele>
        <time>2024-04-28T08:22:51Z</time>
      </trkpt>
      <trkpt lat="45.70606" lon="3.3149">
        <ele>384</ele>
        <time>2024-04-28T08:22:52Z</time>
      </trkpt>
      <trkpt lat="45.70602" lon="3.31487">
        <ele>384.2</ele>
        <time>2024-04-28T08:22:53Z</time>
      </trkpt>
      <trkpt lat="45.70599" lon="3.31483">
        <ele>384.4</ele>
        <time>2024-04-28T08:22:54Z</time>
      </trkpt>
      <trkpt lat="45.70595" lon="3.31479">
        <ele>384.4</ele>
        <time>2024-04-28T08:22:55Z</time>
      </trkpt>
      <trkpt lat="45.70592" lon="3.31475">
        <ele>384.6</ele>
        <time>2024-04-28T08:22:56Z</time>
      </trkpt>
      <trkpt lat="45.70588" lon="3.3147">
        <ele>384.8</ele>
        <time>2024-04-28T08:22:57Z</time>
      </trkpt>
      <trkpt lat="45.70585" lon="3.31466">
        <ele>385</ele>
        <time>2024-04-28T08:22:58Z</time>
      </trkpt>
      <trkpt lat="45.70581" lon="3.31462">
        <ele>385</ele>
        <time>2024-04-28T08:22:59Z</time>
      </trkpt>
      <trkpt lat="45.70577" lon="3.31458">
        <ele>385.2</ele>
        <time>2024-04-28T08:23:00Z</time>
      </trkpt>
      <trkpt lat="45.70574" lon="3.31454">
        <ele>385.4</ele>
        <time>2024-04-28T08:23:01Z</time>
      </trkpt>
      <trkpt lat="45.7057" lon="3.3145">
        <ele>385.4</ele>
        <time>2024-04-28T08:23:02Z</time>
      </trkpt>
      <trkpt lat="45.70567" lon="3.31446">
        <ele>385.6</ele>
        <time>2024-04-28T08:23:03Z</time>
      </trkpt>
      <trkpt lat="45.70564" lon="3.31442">
        <ele>385.8</ele>
        <time>2024-04-28T08:23:04Z</time>
      </trkpt>
      <trkpt lat="45.7056" lon="3.31438">
        <ele>386</ele>
        <time>2024-04-28T08:23:05Z</time>
      </trkpt>
      <trkpt lat="45.70557" lon="3.31435">
        <ele>386</ele>
        <time>2024-04-28T08:23:06Z</time>
      </trkpt>
      <trkpt lat="45.70553" lon="3.31431">
        <ele>386.2</ele>
        <time>2024-04-28T08:23:07Z</time>
      </trkpt>
      <trkpt lat="45.7055" lon="3.31427">
        <ele>386.4</ele>
        <time>2024-04-28T08:23:08Z</time>
      </trkpt>
      <trkpt lat="45.70547" lon="3.31423">
        <ele>386.6</ele>
        <time>2024-04-28T08:23:09Z</time>
      </trkpt>
      <trkpt lat="45.70543" lon="3.31419">
        <ele>386.6</ele>
        <time>2024-04-28T08:23:10Z</time>
      </trkpt>
      <trkpt lat="45.7054" lon="3.31415">
        <ele>386.8</ele>
        <time>2024-04-28T08:23:11Z</time>
      </trkpt>
      <trkpt lat="45.70536" lon="3.31411">
        <ele>387</ele>
        <time>2024-04-28T08:23:12Z</time>
      </trkpt>
      <trkpt lat="45.70533" lon="3.31407">
        <ele>387.2</ele>
        <time>2024-04-28T08:23:13Z</time>
      </trkpt>
      <trkpt lat="45.70529" lon="3.31403">
        <ele>387.2</ele>
        <time>2024-04-28T08:23:14Z</time>
      </trkpt>
      <trkpt lat="45.70526" lon="3.31399">
        <ele>387.4</ele>
        <time>2024-04-28T08:23:15Z</time>
      </trkpt>
      <trkpt lat="45.70522" lon="3.31395">
        <ele>387.6</ele>
        <time>2024-04-28T08:23:16Z</time>
      </trkpt>
      <trkpt lat="45.70519" lon="3.31391">
        <ele>387.6</ele>
        <time>2024-04-28T08:23:17Z</time>
      </trkpt>
      <trkpt lat="45.70515" lon="3.31387">
        <ele>387.8</ele>
        <time>2024-04-28T08:23:18Z</time>
      </trkpt>
      <trkpt lat="45.70512" lon="3.31383">
        <ele>388</ele>
        <time>2024-04-28T08:23:19Z</time>
      </trkpt>
      <trkpt lat="45.70509" lon="3.31379">
        <ele>388.2</ele>
        <time>2024-04-28T08:23:20Z</time>
      </trkpt>
      <trkpt lat="45.70506" lon="3.31376">
        <ele>388.2</ele>
        <time>2024-04-28T08:23:21Z</time>
      </trkpt>
      <trkpt lat="45.70502" lon="3.31372">
        <ele>388.4</ele>
        <time>2024-04-28T08:23:22Z</time>
      </trkpt>
      <trkpt lat="45.70499" lon="3.31368">
        <ele>388.6</ele>
        <time>2024-04-28T08:23:23Z</time>
      </trkpt>
      <trkpt lat="45.70495" lon="3.31364">
        <ele>388.8</ele>
        <time>2024-04-28T08:23:24Z</time>
      </trkpt>
      <trkpt lat="45.70492" lon="3.3136">
        <ele>388.8</ele>
        <time>2024-04-28T08:23:25Z</time>
      </trkpt>
      <trkpt lat="45.70489" lon="3.31356">
        <ele>389</ele>
        <time>2024-04-28T08:23:26Z</time>
      </trkpt>
      <trkpt lat="45.70485" lon="3.31352">
        <ele>389.2</ele>
        <time>2024-04-28T08:23:27Z</time>
      </trkpt>
      <trkpt lat="45.70482" lon="3.31349">
        <ele>389.4</ele>
        <time>2024-04-28T08:23:28Z</time>
      </trkpt>
      <trkpt lat="45.70479" lon="3.31345">
        <ele>389.4</ele>
        <time>2024-04-28T08:23:29Z</time>
      </trkpt>
      <trkpt lat="45.70476" lon="3.31341">
        <ele>389.6</ele>
        <time>2024-04-28T08:23:30Z</time>
      </trkpt>
      <trkpt lat="45.70472" lon="3.31337">
        <ele>389.8</ele>
        <time>2024-04-28T08:23:31Z</time>
      </trkpt>
      <trkpt lat="45.70469" lon="3.31333">
        <ele>389.8</ele>
        <time>2024-04-28T08:23:32Z</time>
      </trkpt>
      <trkpt lat="45.70465" lon="3.31329">
        <ele>390</ele>
        <time>2024-04-28T08:23:33Z</time>
      </trkpt>
      <trkpt lat="45.70462" lon="3.31325">
        <ele>390.2</ele>
        <time>2024-04-28T08:23:34Z</time>
      </trkpt>
      <trkpt lat="45.70459" lon="3.31322">
        <ele>390.4</ele>
        <time>2024-04-28T08:23:35Z</time>
      </trkpt>
      <trkpt lat="45.70455" lon="3.31318">
        <ele>390.6</ele>
        <time>2024-04-28T08:23:36Z</time>
      </trkpt>
      <trkpt lat="45.70452" lon="3.31314">
        <ele>390.6</ele>
        <time>2024-04-28T08:23:37Z</time>
      </trkpt>
      <trkpt lat="45.70449" lon="3.3131">
        <ele>390.8</ele>
        <time>2024-04-28T08:23:38Z</time>
      </trkpt>
      <trkpt lat="45.70445" lon="3.31306">
        <ele>391</ele>
        <time>2024-04-28T08:23:39Z</time>
      </trkpt>
      <trkpt lat="45.70442" lon="3.31302">
        <ele>391.2</ele>
        <time>2024-04-28T08:23:40Z</time>
      </trkpt>
      <trkpt lat="45.70439" lon="3.31299">
        <ele>391.4</ele>
        <time>2024-04-28T08:23:41Z</time>
      </trkpt>
      <trkpt lat="45.70436" lon="3.31295">
        <ele>391.4</ele>
        <time>2024-04-28T08:23:42Z</time>
      </trkpt>
      <trkpt lat="45.70432" lon="3.31291">
        <ele>391.6</ele>
        <time>2024-04-28T08:23:43Z</time>
      </trkpt>
      <trkpt lat="45.70429" lon="3.31288">
        <ele>391.8</ele>
        <time>2024-04-28T08:23:44Z</time>
      </trkpt>
      <trkpt lat="45.70425" lon="3.31284">
        <ele>392</ele>
        <time>2024-04-28T08:23:45Z</time>
      </trkpt>
      <trkpt lat="45.70421" lon="3.31281">
        <ele>392.2</ele>
        <time>2024-04-28T08:23:46Z</time>
      </trkpt>
      <trkpt lat="45.70418" lon="3.31278">
        <ele>392.2</ele>
        <time>2024-04-28T08:23:47Z</time>
      </trkpt>
      <trkpt lat="45.70414" lon="3.31274">
        <ele>392.4</ele>
        <time>2024-04-28T08:23:48Z</time>
      </trkpt>
      <trkpt lat="45.7041" lon="3.31271">
        <ele>392.6</ele>
        <time>2024-04-28T08:23:49Z</time>
      </trkpt>
      <trkpt lat="45.70406" lon="3.31267">
        <ele>392.8</ele>
        <time>2024-04-28T08:23:50Z</time>
      </trkpt>
      <trkpt lat="45.70402" lon="3.31265">
        <ele>392.8</ele>
        <time>2024-04-28T08:23:51Z</time>
      </trkpt>
      <trkpt lat="45.70398" lon="3.31262">
        <ele>393</ele>
        <time>2024-04-28T08:23:52Z</time>
      </trkpt>
      <trkpt lat="45.70395" lon="3.31259">
        <ele>393.2</ele>
        <time>2024-04-28T08:23:53Z</time>
      </trkpt>
      <trkpt lat="45.70391" lon="3.31257">
        <ele>393.4</ele>
        <time>2024-04-28T08:23:54Z</time>
      </trkpt>
      <trkpt lat="45.70387" lon="3.31254">
        <ele>393.6</ele>
        <time>2024-04-28T08:23:55Z</time>
      </trkpt>
      <trkpt lat="45.70383" lon="3.31252">
        <ele>393.8</ele>
        <time>2024-04-28T08:23:56Z</time>
      </trkpt>
      <trkpt lat="45.70379" lon="3.31249">
        <ele>394</ele>
        <time>2024-04-28T08:23:57Z</time>
      </trkpt>
      <trkpt lat="45.70375" lon="3.31246">
        <ele>394.2</ele>
        <time>2024-04-28T08:23:58Z</time>
      </trkpt>
      <trkpt lat="45.70371" lon="3.31244">
        <ele>394.4</ele>
        <time>2024-04-28T08:23:59Z</time>
      </trkpt>
      <trkpt lat="45.70367" lon="3.31241">
        <ele>394.6</ele>
        <time>2024-04-28T08:24:00Z</time>
      </trkpt>
      <trkpt lat="45.70363" lon="3.31238">
        <ele>394.8</ele>
        <time>2024-04-28T08:24:01Z</time>
      </trkpt>
      <trkpt lat="45.7036" lon="3.31236">
        <ele>394.8</ele>
        <time>2024-04-28T08:24:02Z</time>
      </trkpt>
      <trkpt lat="45.70356" lon="3.31233">
        <ele>395</ele>
        <time>2024-04-28T08:24:03Z</time>
      </trkpt>
      <trkpt lat="45.70352" lon="3.31231">
        <ele>395.2</ele>
        <time>2024-04-28T08:24:04Z</time>
      </trkpt>
      <trkpt lat="45.70348" lon="3.31228">
        <ele>395.4</ele>
        <time>2024-04-28T08:24:05Z</time>
      </trkpt>
      <trkpt lat="45.70344" lon="3.31225">
        <ele>395.6</ele>
        <time>2024-04-28T08:24:06Z</time>
      </trkpt>
      <trkpt lat="45.7034" lon="3.31223">
        <ele>395.8</ele>
        <time>2024-04-28T08:24:07Z</time>
      </trkpt>
      <trkpt lat="45.70336" lon="3.3122">
        <ele>395.8</ele>
        <time>2024-04-28T08:24:08Z</time>
      </trkpt>
      <trkpt lat="45.70332" lon="3.31217">
        <ele>396</ele>
        <time>2024-04-28T08:24:09Z</time>
      </trkpt>
      <trkpt lat="45.70328" lon="3.31214">
        <ele>396.2</ele>
        <time>2024-04-28T08:24:10Z</time>
      </trkpt>
      <trkpt lat="45.70323" lon="3.31212">
        <ele>396.4</ele>
        <time>2024-04-28T08:24:11Z</time>
      </trkpt>
      <trkpt lat="45.70319" lon="3.31209">
        <ele>396.6</ele>
        <time>2024-04-28T08:24:12Z</time>
      </trkpt>
      <trkpt lat="45.70315" lon="3.31207">
        <ele>396.8</ele>
        <time>2024-04-28T08:24:13Z</time>
      </trkpt>
      <trkpt lat="45.70311" lon="3.31204">
        <ele>396.8</ele>
        <time>2024-04-28T08:24:14Z</time>
      </trkpt>
      <trkpt lat="45.70307" lon="3.31201">
        <ele>397</ele>
        <time>2024-04-28T08:24:15Z</time>
      </trkpt>
      <trkpt lat="45.70302" lon="3.31199">
        <ele>397.2</ele>
        <time>2024-04-28T08:24:16Z</time>
      </trkpt>
      <trkpt lat="45.70298" lon="3.31196">
        <ele>397.2</ele>
        <time>2024-04-28T08:24:17Z</time>
      </trkpt>
      <trkpt lat="45.70294" lon="3.31194">
        <ele>397.4</ele>
        <time>2024-04-28T08:24:18Z</time>
      </trkpt>
      <trkpt lat="45.70291" lon="3.31192">
        <ele>397.6</ele>
        <time>2024-04-28T08:24:19Z</time>
      </trkpt>
      <trkpt lat="45.70287" lon="3.31189">
        <ele>397.8</ele>
        <time>2024-04-28T08:24:20Z</time>
      </trkpt>
      <trkpt lat="45.70283" lon="3.31187">
        <ele>398</ele>
        <time>2024-04-28T08:24:21Z</time>
      </trkpt>
      <trkpt lat="45.70279" lon="3.31184">
        <ele>398.2</ele>
        <time>2024-04-28T08:24:22Z</time>
      </trkpt>
      <trkpt lat="45.70275" lon="3.31182">
        <ele>398.4</ele>
        <time>2024-04-28T08:24:23Z</time>
      </trkpt>
      <trkpt lat="45.7027" lon="3.31179">
        <ele>398.6</ele>
        <time>2024-04-28T08:24:24Z</time>
      </trkpt>
      <trkpt lat="45.70266" lon="3.31177">
        <ele>398.8</ele>
        <time>2024-04-28T08:24:25Z</time>
      </trkpt>
      <trkpt lat="45.70262" lon="3.31174">
        <ele>399</ele>
        <time>2024-04-28T08:24:26Z</time>
      </trkpt>
      <trkpt lat="45.70257" lon="3.31171">
        <ele>399.2</ele>
        <time>2024-04-28T08:24:27Z</time>
      </trkpt>
      <trkpt lat="45.70253" lon="3.31168">
        <ele>399.4</ele>
        <time>2024-04-28T08:24:28Z</time>
      </trkpt>
      <trkpt lat="45.70248" lon="3.31166">
        <ele>399.4</ele>
        <time>2024-04-28T08:24:29Z</time>
      </trkpt>
      <trkpt lat="45.70244" lon="3.31163">
        <ele>399.6</ele>
        <time>2024-04-28T08:24:30Z</time>
      </trkpt>
      <trkpt lat="45.7024" lon="3.31161">
        <ele>399.8</ele>
        <time>2024-04-28T08:24:31Z</time>
      </trkpt>
      <trkpt lat="45.70235" lon="3.31158">
        <ele>400</ele>
        <time>2024-04-28T08:24:32Z</time>
      </trkpt>
      <trkpt lat="45.70231" lon="3.31156">
        <ele>400</ele>
        <time>2024-04-28T08:24:33Z</time>
      </trkpt>
      <trkpt lat="45.70227" lon="3.31153">
        <ele>400.2</ele>
        <time>2024-04-28T08:24:34Z</time>
      </trkpt>
      <trkpt lat="45.70223" lon="3.31151">
        <ele>400.4</ele>
        <time>2024-04-28T08:24:35Z</time>
      </trkpt>
      <trkpt lat="45.70219" lon="3.31149">
        <ele>400.6</ele>
        <time>2024-04-28T08:24:36Z</time>
      </trkpt>
      <trkpt lat="45.70215" lon="3.31146">
        <ele>400.6</ele>
        <time>2024-04-28T08:24:37Z</time>
      </trkpt>
      <trkpt lat="45.70211" lon="3.31143">
        <ele>400.8</ele>
        <time>2024-04-28T08:24:38Z</time>
      </trkpt>
      <trkpt lat="45.70208" lon="3.3114">
        <ele>401</ele>
        <time>2024-04-28T08:24:39Z</time>
      </trkpt>
      <trkpt lat="45.70204" lon="3.31137">
        <ele>401</ele>
        <time>2024-04-28T08:24:40Z</time>
      </trkpt>
      <trkpt lat="45.702" lon="3.31134">
        <ele>401.2</ele>
        <time>2024-04-28T08:24:41Z</time>
      </trkpt>
      <trkpt lat="45.70197" lon="3.31131">
        <ele>401.4</ele>
        <time>2024-04-28T08:24:42Z</time>
      </trkpt>
      <trkpt lat="45.70194" lon="3.31128">
        <ele>401.6</ele>
        <time>2024-04-28T08:24:43Z</time>
      </trkpt>
      <trkpt lat="45.7019" lon="3.31125">
        <ele>401.8</ele>
        <time>2024-04-28T08:24:44Z</time>
      </trkpt>
      <trkpt lat="45.70187" lon="3.31122">
        <ele>402</ele>
        <time>2024-04-28T08:24:45Z</time>
      </trkpt>
      <trkpt lat="45.70183" lon="3.31119">
        <ele>402.2</ele>
        <time>2024-04-28T08:24:46Z</time>
      </trkpt>
      <trkpt lat="45.7018" lon="3.31116">
        <ele>402.4</ele>
        <time>2024-04-28T08:24:47Z</time>
      </trkpt>
      <trkpt lat="45.70177" lon="3.31112">
        <ele>402.6</ele>
        <time>2024-04-28T08:24:48Z</time>
      </trkpt>
      <trkpt lat="45.70174" lon="3.31109">
        <ele>402.8</ele>
        <time>2024-04-28T08:24:49Z</time>
      </trkpt>
      <trkpt lat="45.70171" lon="3.31105">
        <ele>403</ele>
        <time>2024-04-28T08:24:50Z</time>
      </trkpt>
      <trkpt lat="45.70168" lon="3.31102">
        <ele>403.2</ele>
        <time>2024-04-28T08:24:51Z</time>
      </trkpt>
      <trkpt lat="45.70165" lon="3.31098">
        <ele>403.4</ele>
        <time>2024-04-28T08:24:52Z</time>
      </trkpt>
      <trkpt lat="45.70162" lon="3.31095">
        <ele>403.6</ele>
        <time>2024-04-28T08:24:53Z</time>
      </trkpt>
      <trkpt lat="45.7016" lon="3.31092">
        <ele>403.8</ele>
        <time>2024-04-28T08:24:54Z</time>
      </trkpt>
      <trkpt lat="45.70157" lon="3.31088">
        <ele>403.8</ele>
        <time>2024-04-28T08:24:55Z</time>
      </trkpt>
      <trkpt lat="45.70154" lon="3.31084">
        <ele>404</ele>
        <time>2024-04-28T08:24:56Z</time>
      </trkpt>
      <trkpt lat="45.70152" lon="3.3108">
        <ele>404.2</ele>
        <time>2024-04-28T08:24:57Z</time>
      </trkpt>
      <trkpt lat="45.7015" lon="3.31076">
        <ele>404.4</ele>
        <time>2024-04-28T08:24:58Z</time>
      </trkpt>
      <trkpt lat="45.70148" lon="3.31072">
        <ele>404.6</ele>
        <time>2024-04-28T08:24:59Z</time>
      </trkpt>
      <trkpt lat="45.70146" lon="3.31068">
        <ele>404.8</ele>
        <time>2024-04-28T08:25:00Z</time>
      </trkpt>
      <trkpt lat="45.70144" lon="3.31065">
        <ele>404.8</ele>
        <time>2024-04-28T08:25:01Z</time>
      </trkpt>
      <trkpt lat="45.70141" lon="3.31061">
        <ele>405</ele>
        <time>2024-04-28T08:25:02Z</time>
      </trkpt>
      <trkpt lat="45.70139" lon="3.31058">
        <ele>405.2</ele>
        <time>2024-04-28T08:25:03Z</time>
      </trkpt>
      <trkpt lat="45.70137" lon="3.31054">
        <ele>405.4</ele>
        <time>2024-04-28T08:25:04Z</time>
      </trkpt>
      <trkpt lat="45.70135" lon="3.3105">
        <ele>405.4</ele>
        <time>2024-04-28T08:25:05Z</time>
      </trkpt>
      <trkpt lat="45.70132" lon="3.31046">
        <ele>405.6</ele>
        <time>2024-04-28T08:25:06Z</time>
      </trkpt>
      <trkpt lat="45.7013" lon="3.31042">
        <ele>405.8</ele>
        <time>2024-04-28T08:25:07Z</time>
      </trkpt>
      <trkpt lat="45.70128" lon="3.31037">
        <ele>405.8</ele>
        <time>2024-04-28T08:25:08Z</time>
      </trkpt>
      <trkpt lat="45.70126" lon="3.31033">
        <ele>406</ele>
        <time>2024-04-28T08:25:09Z</time>
      </trkpt>
      <trkpt lat="45.70124" lon="3.31027">
        <ele>406.2</ele>
        <time>2024-04-28T08:25:10Z</time>
      </trkpt>
      <trkpt lat="45.70122" lon="3.31023">
        <ele>406.4</ele>
        <time>2024-04-28T08:25:11Z</time>
      </trkpt>
      <trkpt lat="45.7012" lon="3.31018">
        <ele>406.6</ele>
        <time>2024-04-28T08:25:12Z</time>
      </trkpt>
      <trkpt lat="45.70119" lon="3.31013">
        <ele>406.6</ele>
        <time>2024-04-28T08:25:13Z</time>
      </trkpt>
      <trkpt lat="45.70117" lon="3.31008">
        <ele>406.8</ele>
        <time>2024-04-28T08:25:14Z</time>
      </trkpt>
      <trkpt lat="45.70115" lon="3.31003">
        <ele>407</ele>
        <time>2024-04-28T08:25:15Z</time>
      </trkpt>
      <trkpt lat="45.70113" lon="3.30998">
        <ele>407.2</ele>
        <time>2024-04-28T08:25:16Z</time>
      </trkpt>
      <trkpt lat="45.70111" lon="3.30993">
        <ele>407.4</ele>
        <time>2024-04-28T08:25:17Z</time>
      </trkpt>
      <trkpt lat="45.70109" lon="3.30988">
        <ele>407.6</ele>
        <time>2024-04-28T08:25:18Z</time>
      </trkpt>
      <trkpt lat="45.70108" lon="3.30983">
        <ele>407.8</ele>
        <time>2024-04-28T08:25:19Z</time>
      </trkpt>
      <trkpt lat="45.70106" lon="3.30978">
        <ele>408</ele>
        <time>2024-04-28T08:25:20Z</time>
      </trkpt>
      <trkpt lat="45.70105" lon="3.30972">
        <ele>408</ele>
        <time>2024-04-28T08:25:21Z</time>
      </trkpt>
      <trkpt lat="45.70104" lon="3.30967">
        <ele>408.2</ele>
        <time>2024-04-28T08:25:22Z</time>
      </trkpt>
      <trkpt lat="45.70102" lon="3.30962">
        <ele>408.4</ele>
        <time>2024-04-28T08:25:23Z</time>
      </trkpt>
      <trkpt lat="45.70101" lon="3.30957">
        <ele>408.6</ele>
        <time>2024-04-28T08:25:24Z</time>
      </trkpt>
      <trkpt lat="45.701" lon="3.30952">
        <ele>408.8</ele>
        <time>2024-04-28T08:25:25Z</time>
      </trkpt>
      <trkpt lat="45.70099" lon="3.30948">
        <ele>409</ele>
        <time>2024-04-28T08:25:26Z</time>
      </trkpt>
      <trkpt lat="45.70098" lon="3.30943">
        <ele>409.2</ele>
        <time>2024-04-28T08:25:27Z</time>
      </trkpt>
      <trkpt lat="45.70097" lon="3.30938">
        <ele>409.4</ele>
        <time>2024-04-28T08:25:28Z</time>
      </trkpt>
      <trkpt lat="45.70096" lon="3.30934">
        <ele>409.6</ele>
        <time>2024-04-28T08:25:29Z</time>
      </trkpt>
      <trkpt lat="45.70095" lon="3.30929">
        <ele>409.8</ele>
        <time>2024-04-28T08:25:30Z</time>
      </trkpt>
      <trkpt lat="45.70095" lon="3.30925">
        <ele>410</ele>
        <time>2024-04-28T08:25:31Z</time>
      </trkpt>
      <trkpt lat="45.70094" lon="3.30921">
        <ele>410.2</ele>
        <time>2024-04-28T08:25:32Z</time>
      </trkpt>
      <trkpt lat="45.70093" lon="3.30917">
        <ele>410.4</ele>
        <time>2024-04-28T08:25:33Z</time>
      </trkpt>
      <trkpt lat="45.70092" lon="3.30913">
        <ele>410.6</ele>
        <time>2024-04-28T08:25:34Z</time>
      </trkpt>
      <trkpt lat="45.70091" lon="3.30909">
        <ele>410.8</ele>
        <time>2024-04-28T08:25:35Z</time>
      </trkpt>
      <trkpt lat="45.7009" lon="3.30905">
        <ele>411</ele>
        <time>2024-04-28T08:25:36Z</time>
      </trkpt>
      <trkpt lat="45.70089" lon="3.30899">
        <ele>411.2</ele>
        <time>2024-04-28T08:25:37Z</time>
      </trkpt>
      <trkpt lat="45.7009" lon="3.30895">
        <ele>411.4</ele>
        <time>2024-04-28T08:25:38Z</time>
      </trkpt>
      <trkpt lat="45.7009" lon="3.30891">
        <ele>411.6</ele>
        <time>2024-04-28T08:25:39Z</time>
      </trkpt>
      <trkpt lat="45.7009" lon="3.30887">
        <ele>411.8</ele>
        <time>2024-04-28T08:25:40Z</time>
      </trkpt>
      <trkpt lat="45.7009" lon="3.30883">
        <ele>412</ele>
        <time>2024-04-28T08:25:41Z</time>
      </trkpt>
      <trkpt lat="45.7009" lon="3.30879">
        <ele>412.2</ele>
        <time>2024-04-28T08:25:42Z</time>
      </trkpt>
      <trkpt lat="45.70091" lon="3.30874">
        <ele>412.4</ele>
        <time>2024-04-28T08:25:43Z</time>
      </trkpt>
      <trkpt lat="45.70091" lon="3.3087">
        <ele>412.6</ele>
        <time>2024-04-28T08:25:44Z</time>
      </trkpt>
      <trkpt lat="45.70091" lon="3.30866">
        <ele>412.8</ele>
        <time>2024-04-28T08:25:45Z</time>
      </trkpt>
      <trkpt lat="45.70091" lon="3.30862">
        <ele>413</ele>
        <time>2024-04-28T08:25:46Z</time>
      </trkpt>
      <trkpt lat="45.70091" lon="3.30858">
        <ele>413.2</ele>
        <time>2024-04-28T08:25:47Z</time>
      </trkpt>
      <trkpt lat="45.70092" lon="3.30854">
        <ele>413.2</ele>
        <time>2024-04-28T08:25:48Z</time>
      </trkpt>
      <trkpt lat="45.70092" lon="3.3085">
        <ele>413.4</ele>
        <time>2024-04-28T08:25:49Z</time>
      </trkpt>
      <trkpt lat="45.70092" lon="3.30846">
        <ele>413.6</ele>
        <time>2024-04-28T08:25:50Z</time>
      </trkpt>
      <trkpt lat="45.70092" lon="3.30842">
        <ele>413.8</ele>
        <time>2024-04-28T08:25:51Z</time>
      </trkpt>
      <trkpt lat="45.70092" lon="3.30838">
        <ele>414</ele>
        <time>2024-04-28T08:25:52Z</time>
      </trkpt>
      <trkpt lat="45.70093" lon="3.30834">
        <ele>414.2</ele>
        <time>2024-04-28T08:25:53Z</time>
      </trkpt>
      <trkpt lat="45.70093" lon="3.3083">
        <ele>414.4</ele>
        <time>2024-04-28T08:25:54Z</time>
      </trkpt>
      <trkpt lat="45.70093" lon="3.30825">
        <ele>414.6</ele>
        <time>2024-04-28T08:25:55Z</time>
      </trkpt>
      <trkpt lat="45.70093" lon="3.30822">
        <ele>414.8</ele>
        <time>2024-04-28T08:25:56Z</time>
      </trkpt>
      <trkpt lat="45.70093" lon="3.30818">
        <ele>415</ele>
        <time>2024-04-28T08:25:57Z</time>
      </trkpt>
      <trkpt lat="45.70093" lon="3.30814">
        <ele>415.2</ele>
        <time>2024-04-28T08:25:58Z</time>
      </trkpt>
      <trkpt lat="45.70094" lon="3.3081">
        <ele>415.4</ele>
        <time>2024-04-28T08:25:59Z</time>
      </trkpt>
      <trkpt lat="45.70094" lon="3.30807">
        <ele>415.6</ele>
        <time>2024-04-28T08:26:00Z</time>
      </trkpt>
      <trkpt lat="45.70094" lon="3.30803">
        <ele>415.8</ele>
        <time>2024-04-28T08:26:01Z</time>
      </trkpt>
      <trkpt lat="45.70095" lon="3.30799">
        <ele>416</ele>
        <time>2024-04-28T08:26:02Z</time>
      </trkpt>
      <trkpt lat="45.70095" lon="3.30796">
        <ele>416.2</ele>
        <time>2024-04-28T08:26:03Z</time>
      </trkpt>
      <trkpt lat="45.70096" lon="3.30792">
        <ele>416.4</ele>
        <time>2024-04-28T08:26:04Z</time>
      </trkpt>
      <trkpt lat="45.70096" lon="3.30788">
        <ele>416.8</ele>
        <time>2024-04-28T08:26:05Z</time>
      </trkpt>
      <trkpt lat="45.70097" lon="3.30785">
        <ele>417</ele>
        <time>2024-04-28T08:26:06Z</time>
      </trkpt>
      <trkpt lat="45.70097" lon="3.30781">
        <ele>417.2</ele>
        <time>2024-04-28T08:26:07Z</time>
      </trkpt>
      <trkpt lat="45.70097" lon="3.30777">
        <ele>417.4</ele>
        <time>2024-04-28T08:26:08Z</time>
      </trkpt>
      <trkpt lat="45.70098" lon="3.30774">
        <ele>417.6</ele>
        <time>2024-04-28T08:26:09Z</time>
      </trkpt>
      <trkpt lat="45.70098" lon="3.3077">
        <ele>417.8</ele>
        <time>2024-04-28T08:26:10Z</time>
      </trkpt>
      <trkpt lat="45.70099" lon="3.30766">
        <ele>418</ele>
        <time>2024-04-28T08:26:11Z</time>
      </trkpt>
      <trkpt lat="45.70099" lon="3.30762">
        <ele>418.2</ele>
        <time>2024-04-28T08:26:12Z</time>
      </trkpt>
      <trkpt lat="45.70099" lon="3.30759">
        <ele>418.4</ele>
        <time>2024-04-28T08:26:13Z</time>
      </trkpt>
      <trkpt lat="45.701" lon="3.30755">
        <ele>418.6</ele>
        <time>2024-04-28T08:26:14Z</time>
      </trkpt>
      <trkpt lat="45.701" lon="3.30752">
        <ele>418.8</ele>
        <time>2024-04-28T08:26:15Z</time>
      </trkpt>
      <trkpt lat="45.70101" lon="3.30748">
        <ele>419</ele>
        <time>2024-04-28T08:26:16Z</time>
      </trkpt>
      <trkpt lat="45.70101" lon="3.30744">
        <ele>419.2</ele>
        <time>2024-04-28T08:26:17Z</time>
      </trkpt>
      <trkpt lat="45.70102" lon="3.30737">
        <ele>419.4</ele>
        <time>2024-04-28T08:26:18Z</time>
      </trkpt>
      <trkpt lat="45.70102" lon="3.30737">
        <ele>419.6</ele>
        <time>2024-04-28T08:26:19Z</time>
      </trkpt>
      <trkpt lat="45.70102" lon="3.30733">
        <ele>419.8</ele>
        <time>2024-04-28T08:26:20Z</time>
      </trkpt>
      <trkpt lat="45.70103" lon="3.30729">
        <ele>420</ele>
        <time>2024-04-28T08:26:21Z</time>
      </trkpt>
      <trkpt lat="45.70103" lon="3.30724">
        <ele>420.2</ele>
        <time>2024-04-28T08:26:22Z</time>
      </trkpt>
      <trkpt lat="45.70104" lon="3.3072">
        <ele>420.4</ele>
        <time>2024-04-28T08:26:23Z</time>
      </trkpt>
      <trkpt lat="45.70104" lon="3.30713">
        <ele>420.6</ele>
        <time>2024-04-28T08:26:24Z</time>
      </trkpt>
      <trkpt lat="45.70104" lon="3.30713">
        <ele>420.8</ele>
        <time>2024-04-28T08:26:25Z</time>
      </trkpt>
      <trkpt lat="45.70104" lon="3.30709">
        <ele>421</ele>
        <time>2024-04-28T08:26:26Z</time>
      </trkpt>
      <trkpt lat="45.70104" lon="3.30705">
        <ele>421.2</ele>
        <time>2024-04-28T08:26:27Z</time>
      </trkpt>
      <trkpt lat="45.70104" lon="3.30701">
        <ele>421.4</ele>
        <time>2024-04-28T08:26:28Z</time>
      </trkpt>
      <trkpt lat="45.70104" lon="3.30697">
        <ele>421.6</ele>
        <time>2024-04-28T08:26:29Z</time>
      </trkpt>
      <trkpt lat="45.70103" lon="3.30693">
        <ele>421.8</ele>
        <time>2024-04-28T08:26:30Z</time>
      </trkpt>
      <trkpt lat="45.70103" lon="3.30689">
        <ele>422</ele>
        <time>2024-04-28T08:26:31Z</time>
      </trkpt>
      <trkpt lat="45.70103" lon="3.30685">
        <ele>422.2</ele>
        <time>2024-04-28T08:26:32Z</time>
      </trkpt>
      <trkpt lat="45.70103" lon="3.30681">
        <ele>422.4</ele>
        <time>2024-04-28T08:26:33Z</time>
      </trkpt>
      <trkpt lat="45.70103" lon="3.30677">
        <ele>422.6</ele>
        <time>2024-04-28T08:26:34Z</time>
      </trkpt>
      <trkpt lat="45.70102" lon="3.30673">
        <ele>422.8</ele>
        <time>2024-04-28T08:26:35Z</time>
      </trkpt>
      <trkpt lat="45.70102" lon="3.30668">
        <ele>423</ele>
        <time>2024-04-28T08:26:36Z</time>
      </trkpt>
      <trkpt lat="45.70102" lon="3.30664">
        <ele>423.4</ele>
        <time>2024-04-28T08:26:37Z</time>
      </trkpt>
      <trkpt lat="45.70102" lon="3.3066">
        <ele>423.6</ele>
        <time>2024-04-28T08:26:38Z</time>
      </trkpt>
      <trkpt lat="45.70102" lon="3.30656">
        <ele>423.8</ele>
        <time>2024-04-28T08:26:39Z</time>
      </trkpt>
      <trkpt lat="45.70101" lon="3.30652">
        <ele>424</ele>
        <time>2024-04-28T08:26:40Z</time>
      </trkpt>
      <trkpt lat="45.70101" lon="3.30648">
        <ele>424.2</ele>
        <time>2024-04-28T08:26:41Z</time>
      </trkpt>
      <trkpt lat="45.70101" lon="3.30644">
        <ele>424.4</ele>
        <time>2024-04-28T08:26:42Z</time>
      </trkpt>
      <trkpt lat="45.70101" lon="3.3064">
        <ele>424.6</ele>
        <time>2024-04-28T08:26:43Z</time>
      </trkpt>
      <trkpt lat="45.70101" lon="3.30636">
        <ele>424.8</ele>
        <time>2024-04-28T08:26:44Z</time>
      </trkpt>
      <trkpt lat="45.701" lon="3.30632">
        <ele>425</ele>
        <time>2024-04-28T08:26:45Z</time>
      </trkpt>
      <trkpt lat="45.701" lon="3.30628">
        <ele>425.2</ele>
        <time>2024-04-28T08:26:46Z</time>
      </trkpt>
      <trkpt lat="45.701" lon="3.30624">
        <ele>425.4</ele>
        <time>2024-04-28T08:26:47Z</time>
      </trkpt>
      <trkpt lat="45.70099" lon="3.3062">
        <ele>425.6</ele>
        <time>2024-04-28T08:26:48Z</time>
      </trkpt>
      <trkpt lat="45.70098" lon="3.30616">
        <ele>425.8</ele>
        <time>2024-04-28T08:26:49Z</time>
      </trkpt>
      <trkpt lat="45.70097" lon="3.30613">
        <ele>426</ele>
        <time>2024-04-28T08:26:50Z</time>
      </trkpt>
      <trkpt lat="45.70096" lon="3.30609">
        <ele>426.2</ele>
        <time>2024-04-28T08:26:51Z</time>
      </trkpt>
      <trkpt lat="45.70095" lon="3.30606">
        <ele>426.4</ele>
        <time>2024-04-28T08:26:52Z</time>
      </trkpt>
      <trkpt lat="45.70094" lon="3.30602">
        <ele>426.6</ele>
        <time>2024-04-28T08:26:53Z</time>
      </trkpt>
      <trkpt lat="45.70093" lon="3.30598">
        <ele>426.8</ele>
        <time>2024-04-28T08:26:54Z</time>
      </trkpt>
      <trkpt lat="45.70092" lon="3.30595">
        <ele>427</ele>
        <time>2024-04-28T08:26:55Z</time>
      </trkpt>
      <trkpt lat="45.70091" lon="3.30591">
        <ele>427.2</ele>
        <time>2024-04-28T08:26:56Z</time>
      </trkpt>
      <trkpt lat="45.7009" lon="3.30588">
        <ele>427.4</ele>
        <time>2024-04-28T08:26:57Z</time>
      </trkpt>
      <trkpt lat="45.70089" lon="3.30584">
        <ele>427.6</ele>
        <time>2024-04-28T08:26:58Z</time>
      </trkpt>
      <trkpt lat="45.70088" lon="3.3058">
        <ele>427.8</ele>
        <time>2024-04-28T08:26:59Z</time>
      </trkpt>
      <trkpt lat="45.70088" lon="3.30577">
        <ele>428</ele>
        <time>2024-04-28T08:27:00Z</time>
      </trkpt>
      <trkpt lat="45.70086" lon="3.30573">
        <ele>428</ele>
        <time>2024-04-28T08:27:01Z</time>
      </trkpt>
      <trkpt lat="45.70085" lon="3.30569">
        <ele>428.2</ele>
        <time>2024-04-28T08:27:02Z</time>
      </trkpt>
      <trkpt lat="45.70084" lon="3.30565">
        <ele>428.4</ele>
        <time>2024-04-28T08:27:03Z</time>
      </trkpt>
      <trkpt lat="45.70083" lon="3.30561">
        <ele>428.6</ele>
        <time>2024-04-28T08:27:04Z</time>
      </trkpt>
      <trkpt lat="45.70082" lon="3.30558">
        <ele>428.8</ele>
        <time>2024-04-28T08:27:05Z</time>
      </trkpt>
      <trkpt lat="45.70081" lon="3.30553">
        <ele>429</ele>
        <time>2024-04-28T08:27:06Z</time>
      </trkpt>
      <trkpt lat="45.7008" lon="3.30549">
        <ele>429.2</ele>
        <time>2024-04-28T08:27:07Z</time>
      </trkpt>
      <trkpt lat="45.70078" lon="3.30545">
        <ele>429.4</ele>
        <time>2024-04-28T08:27:08Z</time>
      </trkpt>
      <trkpt lat="45.70077" lon="3.30542">
        <ele>429.6</ele>
        <time>2024-04-28T08:27:09Z</time>
      </trkpt>
      <trkpt lat="45.70076" lon="3.30538">
        <ele>429.8</ele>
        <time>2024-04-28T08:27:10Z</time>
      </trkpt>
      <trkpt lat="45.70074" lon="3.30534">
        <ele>430</ele>
        <time>2024-04-28T08:27:11Z</time>
      </trkpt>
      <trkpt lat="45.70072" lon="3.3053">
        <ele>430.2</ele>
        <time>2024-04-28T08:27:12Z</time>
      </trkpt>
      <trkpt lat="45.70071" lon="3.30526">
        <ele>430.4</ele>
        <time>2024-04-28T08:27:13Z</time>
      </trkpt>
      <trkpt lat="45.70069" lon="3.30522">
        <ele>430.6</ele>
        <time>2024-04-28T08:27:14Z</time>
      </trkpt>
      <trkpt lat="45.70068" lon="3.30518">
        <ele>430.8</ele>
        <time>2024-04-28T08:27:15Z</time>
      </trkpt>
      <trkpt lat="45.70066" lon="3.30513">
        <ele>431</ele>
        <time>2024-04-28T08:27:16Z</time>
      </trkpt>
      <trkpt lat="45.70064" lon="3.30508">
        <ele>431.2</ele>
        <time>2024-04-28T08:27:17Z</time>
      </trkpt>
      <trkpt lat="45.70062" lon="3.30503">
        <ele>431.4</ele>
        <time>2024-04-28T08:27:18Z</time>
      </trkpt>
      <trkpt lat="45.7006" lon="3.30498">
        <ele>431.4</ele>
        <time>2024-04-28T08:27:19Z</time>
      </trkpt>
      <trkpt lat="45.70058" lon="3.30493">
        <ele>431.6</ele>
        <time>2024-04-28T08:27:20Z</time>
      </trkpt>
      <trkpt lat="45.70056" lon="3.30488">
        <ele>431.8</ele>
        <time>2024-04-28T08:27:21Z</time>
      </trkpt>
      <trkpt lat="45.70054" lon="3.30483">
        <ele>432</ele>
        <time>2024-04-28T08:27:22Z</time>
      </trkpt>
      <trkpt lat="45.70052" lon="3.30478">
        <ele>432.2</ele>
        <time>2024-04-28T08:27:23Z</time>
      </trkpt>
      <trkpt lat="45.7005" lon="3.30473">
        <ele>432.4</ele>
        <time>2024-04-28T08:27:24Z</time>
      </trkpt>
      <trkpt lat="45.70048" lon="3.30467">
        <ele>432.6</ele>
        <time>2024-04-28T08:27:25Z</time>
      </trkpt>
      <trkpt lat="45.70046" lon="3.30462">
        <ele>432.6</ele>
        <time>2024-04-28T08:27:26Z</time>
      </trkpt>
      <trkpt lat="45.70044" lon="3.30456">
        <ele>432.8</ele>
        <time>2024-04-28T08:27:27Z</time>
      </trkpt>
      <trkpt lat="45.70041" lon="3.30451">
        <ele>433</ele>
        <time>2024-04-28T08:27:28Z</time>
      </trkpt>
      <trkpt lat="45.70039" lon="3.30445">
        <ele>433.2</ele>
        <time>2024-04-28T08:27:29Z</time>
      </trkpt>
      <trkpt lat="45.70037" lon="3.30439">
        <ele>433.2</ele>
        <time>2024-04-28T08:27:30Z</time>
      </trkpt>
      <trkpt lat="45.70034" lon="3.30433">
        <ele>433.4</ele>
        <time>2024-04-28T08:27:31Z</time>
      </trkpt>
      <trkpt lat="45.70032" lon="3.30427">
        <ele>433.6</ele>
        <time>2024-04-28T08:27:32Z</time>
      </trkpt>
      <trkpt lat="45.70029" lon="3.30421">
        <ele>433.6</ele>
        <time>2024-04-28T08:27:33Z</time>
      </trkpt>
      <trkpt lat="45.70027" lon="3.30415">
        <ele>433.8</ele>
        <time>2024-04-28T08:27:34Z</time>
      </trkpt>
      <trkpt lat="45.70024" lon="3.30409">
        <ele>434</ele>
        <time>2024-04-28T08:27:35Z</time>
      </trkpt>
      <trkpt lat="45.70022" lon="3.30402">
        <ele>434</ele>
        <time>2024-04-28T08:27:36Z</time>
      </trkpt>
      <trkpt lat="45.70019" lon="3.30395">
        <ele>434.2</ele>
        <time>2024-04-28T08:27:37Z</time>
      </trkpt>
      <trkpt lat="45.70016" lon="3.30388">
        <ele>434.2</ele>
        <time>2024-04-28T08:27:38Z</time>
      </trkpt>
      <trkpt lat="45.70013" lon="3.30381">
        <ele>434.4</ele>
        <time>2024-04-28T08:27:39Z</time>
      </trkpt>
      <trkpt lat="45.7001" lon="3.30373">
        <ele>434.6</ele>
        <time>2024-04-28T08:27:40Z</time>
      </trkpt>
      <trkpt lat="45.70007" lon="3.30365">
        <ele>434.6</ele>
        <time>2024-04-28T08:27:41Z</time>
      </trkpt>
      <trkpt lat="45.70004" lon="3.30357">
        <ele>434.8</ele>
        <time>2024-04-28T08:27:42Z</time>
      </trkpt>
      <trkpt lat="45.7" lon="3.30348">
        <ele>435</ele>
        <time>2024-04-28T08:27:43Z</time>
      </trkpt>
      <trkpt lat="45.69997" lon="3.3034">
        <ele>435</ele>
        <time>2024-04-28T08:27:44Z</time>
      </trkpt>
      <trkpt lat="45.69993" lon="3.30331">
        <ele>435.2</ele>
        <time>2024-04-28T08:27:45Z</time>
      </trkpt>
      <trkpt lat="45.6999" lon="3.30323">
        <ele>435.2</ele>
        <time>2024-04-28T08:27:46Z</time>
      </trkpt>
      <trkpt lat="45.69987" lon="3.30314">
        <ele>435.4</ele>
        <time>2024-04-28T08:27:47Z</time>
      </trkpt>
      <trkpt lat="45.69983" lon="3.30305">
        <ele>435.4</ele>
        <time>2024-04-28T08:27:48Z</time>
      </trkpt>
      <trkpt lat="45.6998" lon="3.30297">
        <ele>435.6</ele>
        <time>2024-04-28T08:27:49Z</time>
      </trkpt>
      <trkpt lat="45.69976" lon="3.30288">
        <ele>435.6</ele>
        <time>2024-04-28T08:27:50Z</time>
      </trkpt>
      <trkpt lat="45.69973" lon="3.3028">
        <ele>435.8</ele>
        <time>2024-04-28T08:27:51Z</time>
      </trkpt>
      <trkpt lat="45.6997" lon="3.30272">
        <ele>435.8</ele>
        <time>2024-04-28T08:27:52Z</time>
      </trkpt>
      <trkpt lat="45.69966" lon="3.30264">
        <ele>436</ele>
        <time>2024-04-28T08:27:53Z</time>
      </trkpt>
      <trkpt lat="45.69963" lon="3.30256">
        <ele>436</ele>
        <time>2024-04-28T08:27:54Z</time>
      </trkpt>
      <trkpt lat="45.6996" lon="3.30249">
        <ele>436</ele>
        <time>2024-04-28T08:27:55Z</time>
      </trkpt>
      <trkpt lat="45.69957" lon="3.30242">
        <ele>436.2</ele>
        <time>2024-04-28T08:27:56Z</time>
      </trkpt>
      <trkpt lat="45.69955" lon="3.30234">
        <ele>436.4</ele>
        <time>2024-04-28T08:27:57Z</time>
      </trkpt>
      <trkpt lat="45.69952" lon="3.30227">
        <ele>436.4</ele>
        <time>2024-04-28T08:27:58Z</time>
      </trkpt>
      <trkpt lat="45.69949" lon="3.30221">
        <ele>436.6</ele>
        <time>2024-04-28T08:27:59Z</time>
      </trkpt>
      <trkpt lat="45.69946" lon="3.30215">
        <ele>436.6</ele>
        <time>2024-04-28T08:28:00Z</time>
      </trkpt>
      <trkpt lat="45.69943" lon="3.30209">
        <ele>436.8</ele>
        <time>2024-04-28T08:28:01Z</time>
      </trkpt>
      <trkpt lat="45.69941" lon="3.30204">
        <ele>437</ele>
        <time>2024-04-28T08:28:02Z</time>
      </trkpt>
      <trkpt lat="45.69938" lon="3.30199">
        <ele>437.2</ele>
        <time>2024-04-28T08:28:03Z</time>
      </trkpt>
      <trkpt lat="45.69936" lon="3.30194">
        <ele>437.2</ele>
        <time>2024-04-28T08:28:04Z</time>
      </trkpt>
      <trkpt lat="45.69933" lon="3.30189">
        <ele>437.4</ele>
        <time>2024-04-28T08:28:05Z</time>
      </trkpt>
      <trkpt lat="45.69931" lon="3.30184">
        <ele>437.6</ele>
        <time>2024-04-28T08:28:06Z</time>
      </trkpt>
      <trkpt lat="45.69929" lon="3.30179">
        <ele>437.8</ele>
        <time>2024-04-28T08:28:07Z</time>
      </trkpt>
      <trkpt lat="45.69926" lon="3.30175">
        <ele>437.8</ele>
        <time>2024-04-28T08:28:08Z</time>
      </trkpt>
      <trkpt lat="45.69924" lon="3.30171">
        <ele>438</ele>
        <time>2024-04-28T08:28:09Z</time>
      </trkpt>
      <trkpt lat="45.69922" lon="3.30166">
        <ele>438.2</ele>
        <time>2024-04-28T08:28:10Z</time>
      </trkpt>
      <trkpt lat="45.6992" lon="3.30162">
        <ele>438.2</ele>
        <time>2024-04-28T08:28:11Z</time>
      </trkpt>
      <trkpt lat="45.69918" lon="3.30158">
        <ele>438.4</ele>
        <time>2024-04-28T08:28:12Z</time>
      </trkpt>
      <trkpt lat="45.69916" lon="3.30154">
        <ele>438.6</ele>
        <time>2024-04-28T08:28:13Z</time>
      </trkpt>
      <trkpt lat="45.69914" lon="3.3015">
        <ele>438.8</ele>
        <time>2024-04-28T08:28:14Z</time>
      </trkpt>
      <trkpt lat="45.69912" lon="3.30145">
        <ele>438.8</ele>
        <time>2024-04-28T08:28:15Z</time>
      </trkpt>
      <trkpt lat="45.6991" lon="3.30141">
        <ele>439</ele>
        <time>2024-04-28T08:28:16Z</time>
      </trkpt>
      <trkpt lat="45.69908" lon="3.30138">
        <ele>439.2</ele>
        <time>2024-04-28T08:28:17Z</time>
      </trkpt>
      <trkpt lat="45.69906" lon="3.30134">
        <ele>439.4</ele>
        <time>2024-04-28T08:28:18Z</time>
      </trkpt>
      <trkpt lat="45.69904" lon="3.3013">
        <ele>439.6</ele>
        <time>2024-04-28T08:28:19Z</time>
      </trkpt>
      <trkpt lat="45.69902" lon="3.30126">
        <ele>439.8</ele>
        <time>2024-04-28T08:28:20Z</time>
      </trkpt>
      <trkpt lat="45.69901" lon="3.30122">
        <ele>440</ele>
        <time>2024-04-28T08:28:21Z</time>
      </trkpt>
      <trkpt lat="45.69899" lon="3.30119">
        <ele>440.2</ele>
        <time>2024-04-28T08:28:22Z</time>
      </trkpt>
      <trkpt lat="45.69897" lon="3.30115">
        <ele>440.2</ele>
        <time>2024-04-28T08:28:23Z</time>
      </trkpt>
      <trkpt lat="45.69895" lon="3.30112">
        <ele>440.4</ele>
        <time>2024-04-28T08:28:24Z</time>
      </trkpt>
      <trkpt lat="45.69894" lon="3.30109">
        <ele>440.6</ele>
        <time>2024-04-28T08:28:25Z</time>
      </trkpt>
      <trkpt lat="45.69891" lon="3.30106">
        <ele>440.8</ele>
        <time>2024-04-28T08:28:26Z</time>
      </trkpt>
      <trkpt lat="45.69889" lon="3.30103">
        <ele>441</ele>
        <time>2024-04-28T08:28:27Z</time>
      </trkpt>
      <trkpt lat="45.69887" lon="3.301">
        <ele>441.2</ele>
        <time>2024-04-28T08:28:28Z</time>
      </trkpt>
      <trkpt lat="45.69884" lon="3.30098">
        <ele>441.2</ele>
        <time>2024-04-28T08:28:29Z</time>
      </trkpt>
      <trkpt lat="45.69882" lon="3.30095">
        <ele>441.4</ele>
        <time>2024-04-28T08:28:30Z</time>
      </trkpt>
      <trkpt lat="45.6988" lon="3.30092">
        <ele>441.6</ele>
        <time>2024-04-28T08:28:31Z</time>
      </trkpt>
      <trkpt lat="45.69878" lon="3.30089">
        <ele>441.8</ele>
        <time>2024-04-28T08:28:32Z</time>
      </trkpt>
      <trkpt lat="45.69875" lon="3.30087">
        <ele>442</ele>
        <time>2024-04-28T08:28:33Z</time>
      </trkpt>
      <trkpt lat="45.69873" lon="3.30084">
        <ele>442.2</ele>
        <time>2024-04-28T08:28:34Z</time>
      </trkpt>
      <trkpt lat="45.69871" lon="3.30081">
        <ele>442.2</ele>
        <time>2024-04-28T08:28:35Z</time>
      </trkpt>
      <trkpt lat="45.69869" lon="3.30079">
        <ele>442.6</ele>
        <time>2024-04-28T08:28:36Z</time>
      </trkpt>
      <trkpt lat="45.69866" lon="3.30076">
        <ele>442.6</ele>
        <time>2024-04-28T08:28:37Z</time>
      </trkpt>
      <trkpt lat="45.69864" lon="3.30074">
        <ele>442.8</ele>
        <time>2024-04-28T08:28:38Z</time>
      </trkpt>
      <trkpt lat="45.69862" lon="3.30071">
        <ele>443</ele>
        <time>2024-04-28T08:28:39Z</time>
      </trkpt>
      <trkpt lat="45.6986" lon="3.30069">
        <ele>443.2</ele>
        <time>2024-04-28T08:28:40Z</time>
      </trkpt>
      <trkpt lat="45.69858" lon="3.30066">
        <ele>443.4</ele>
        <time>2024-04-28T08:28:41Z</time>
      </trkpt>
      <trkpt lat="45.69856" lon="3.30064">
        <ele>443.6</ele>
        <time>2024-04-28T08:28:42Z</time>
      </trkpt>
      <trkpt lat="45.69854" lon="3.30061">
        <ele>443.8</ele>
        <time>2024-04-28T08:28:43Z</time>
      </trkpt>
      <trkpt lat="45.69852" lon="3.30059">
        <ele>444</ele>
        <time>2024-04-28T08:28:44Z</time>
      </trkpt>
      <trkpt lat="45.6985" lon="3.30056">
        <ele>444.2</ele>
        <time>2024-04-28T08:28:45Z</time>
      </trkpt>
      <trkpt lat="45.69847" lon="3.30053">
        <ele>444.4</ele>
        <time>2024-04-28T08:28:46Z</time>
      </trkpt>
      <trkpt lat="45.69845" lon="3.30051">
        <ele>444.6</ele>
        <time>2024-04-28T08:28:47Z</time>
      </trkpt>
      <trkpt lat="45.69843" lon="3.30048">
        <ele>444.8</ele>
        <time>2024-04-28T08:28:48Z</time>
      </trkpt>
      <trkpt lat="45.69841" lon="3.30046">
        <ele>445</ele>
        <time>2024-04-28T08:28:49Z</time>
      </trkpt>
      <trkpt lat="45.69839" lon="3.30043">
        <ele>445.2</ele>
        <time>2024-04-28T08:28:50Z</time>
      </trkpt>
      <trkpt lat="45.69837" lon="3.30042">
        <ele>445.2</ele>
        <time>2024-04-28T08:28:51Z</time>
      </trkpt>
      <trkpt lat="45.69834" lon="3.3004">
        <ele>445.6</ele>
        <time>2024-04-28T08:28:52Z</time>
      </trkpt>
      <trkpt lat="45.69832" lon="3.30038">
        <ele>445.6</ele>
        <time>2024-04-28T08:28:53Z</time>
      </trkpt>
      <trkpt lat="45.69829" lon="3.30037">
        <ele>445.8</ele>
        <time>2024-04-28T08:28:54Z</time>
      </trkpt>
      <trkpt lat="45.69826" lon="3.30035">
        <ele>446</ele>
        <time>2024-04-28T08:28:55Z</time>
      </trkpt>
      <trkpt lat="45.69824" lon="3.30034">
        <ele>446.2</ele>
        <time>2024-04-28T08:28:56Z</time>
      </trkpt>
      <trkpt lat="45.69822" lon="3.30032">
        <ele>446.4</ele>
        <time>2024-04-28T08:28:57Z</time>
      </trkpt>
      <trkpt lat="45.69819" lon="3.30031">
        <ele>446.6</ele>
        <time>2024-04-28T08:28:58Z</time>
      </trkpt>
      <trkpt lat="45.69817" lon="3.30029">
        <ele>446.8</ele>
        <time>2024-04-28T08:28:59Z</time>
      </trkpt>
      <trkpt lat="45.69815" lon="3.30028">
        <ele>447</ele>
        <time>2024-04-28T08:29:00Z</time>
      </trkpt>
      <trkpt lat="45.69812" lon="3.30026">
        <ele>447</ele>
        <time>2024-04-28T08:29:01Z</time>
      </trkpt>
      <trkpt lat="45.69809" lon="3.30024">
        <ele>447.2</ele>
        <time>2024-04-28T08:29:02Z</time>
      </trkpt>
      <trkpt lat="45.69807" lon="3.30023">
        <ele>447.4</ele>
        <time>2024-04-28T08:29:03Z</time>
      </trkpt>
      <trkpt lat="45.69804" lon="3.30021">
        <ele>447.6</ele>
        <time>2024-04-28T08:29:04Z</time>
      </trkpt>
      <trkpt lat="45.69802" lon="3.30019">
        <ele>447.8</ele>
        <time>2024-04-28T08:29:05Z</time>
      </trkpt>
      <trkpt lat="45.69799" lon="3.30018">
        <ele>448</ele>
        <time>2024-04-28T08:29:06Z</time>
      </trkpt>
      <trkpt lat="45.69797" lon="3.30016">
        <ele>448.2</ele>
        <time>2024-04-28T08:29:07Z</time>
      </trkpt>
      <trkpt lat="45.69794" lon="3.30014">
        <ele>448.4</ele>
        <time>2024-04-28T08:29:08Z</time>
      </trkpt>
      <trkpt lat="45.69791" lon="3.30013">
        <ele>448.6</ele>
        <time>2024-04-28T08:29:09Z</time>
      </trkpt>
      <trkpt lat="45.69789" lon="3.30011">
        <ele>448.6</ele>
        <time>2024-04-28T08:29:10Z</time>
      </trkpt>
      <trkpt lat="45.69786" lon="3.3001">
        <ele>448.8</ele>
        <time>2024-04-28T08:29:11Z</time>
      </trkpt>
      <trkpt lat="45.69784" lon="3.30008">
        <ele>449</ele>
        <time>2024-04-28T08:29:12Z</time>
      </trkpt>
      <trkpt lat="45.69782" lon="3.30007">
        <ele>449.2</ele>
        <time>2024-04-28T08:29:13Z</time>
      </trkpt>
      <trkpt lat="45.69779" lon="3.30005">
        <ele>449.4</ele>
        <time>2024-04-28T08:29:14Z</time>
      </trkpt>
      <trkpt lat="45.69776" lon="3.30003">
        <ele>449.4</ele>
        <time>2024-04-28T08:29:15Z</time>
      </trkpt>
      <trkpt lat="45.69773" lon="3.30001">
        <ele>449.6</ele>
        <time>2024-04-28T08:29:16Z</time>
      </trkpt>
      <trkpt lat="45.6977" lon="3.29999">
        <ele>449.8</ele>
        <time>2024-04-28T08:29:17Z</time>
      </trkpt>
      <trkpt lat="45.69766" lon="3.29997">
        <ele>450</ele>
        <time>2024-04-28T08:29:18Z</time>
      </trkpt>
      <trkpt lat="45.69763" lon="3.29995">
        <ele>450.2</ele>
        <time>2024-04-28T08:29:19Z</time>
      </trkpt>
      <trkpt lat="45.6976" lon="3.29993">
        <ele>450.4</ele>
        <time>2024-04-28T08:29:20Z</time>
      </trkpt>
      <trkpt lat="45.69757" lon="3.29991">
        <ele>450.6</ele>
        <time>2024-04-28T08:29:21Z</time>
      </trkpt>
      <trkpt lat="45.69755" lon="3.2999">
        <ele>450.8</ele>
        <time>2024-04-28T08:29:22Z</time>
      </trkpt>
      <trkpt lat="45.69752" lon="3.29988">
        <ele>451</ele>
        <time>2024-04-28T08:29:23Z</time>
      </trkpt>
      <trkpt lat="45.69749" lon="3.29986">
        <ele>451.2</ele>
        <time>2024-04-28T08:29:24Z</time>
      </trkpt>
      <trkpt lat="45.69746" lon="3.29985">
        <ele>451.4</ele>
        <time>2024-04-28T08:29:25Z</time>
      </trkpt>
      <trkpt lat="45.69743" lon="3.29984">
        <ele>451.6</ele>
        <time>2024-04-28T08:29:26Z</time>
      </trkpt>
      <trkpt lat="45.6974" lon="3.29983">
        <ele>451.8</ele>
        <time>2024-04-28T08:29:27Z</time>
      </trkpt>
      <trkpt lat="45.69737" lon="3.29982">
        <ele>452</ele>
        <time>2024-04-28T08:29:28Z</time>
      </trkpt>
      <trkpt lat="45.69734" lon="3.2998">
        <ele>452.2</ele>
        <time>2024-04-28T08:29:29Z</time>
      </trkpt>
      <trkpt lat="45.69731" lon="3.29979">
        <ele>452.4</ele>
        <time>2024-04-28T08:29:30Z</time>
      </trkpt>
      <trkpt lat="45.69728" lon="3.29978">
        <ele>452.6</ele>
        <time>2024-04-28T08:29:31Z</time>
      </trkpt>
      <trkpt lat="45.69725" lon="3.29977">
        <ele>452.8</ele>
        <time>2024-04-28T08:29:32Z</time>
      </trkpt>
      <trkpt lat="45.69722" lon="3.29975">
        <ele>452.8</ele>
        <time>2024-04-28T08:29:33Z</time>
      </trkpt>
      <trkpt lat="45.69719" lon="3.29974">
        <ele>453.2</ele>
        <time>2024-04-28T08:29:34Z</time>
      </trkpt>
      <trkpt lat="45.69716" lon="3.29973">
        <ele>453.2</ele>
        <time>2024-04-28T08:29:35Z</time>
      </trkpt>
      <trkpt lat="45.69713" lon="3.29972">
        <ele>453.4</ele>
        <time>2024-04-28T08:29:36Z</time>
      </trkpt>
      <trkpt lat="45.6971" lon="3.29971">
        <ele>453.8</ele>
        <time>2024-04-28T08:29:37Z</time>
      </trkpt>
      <trkpt lat="45.69707" lon="3.29969">
        <ele>453.8</ele>
        <time>2024-04-28T08:29:38Z</time>
      </trkpt>
      <trkpt lat="45.69704" lon="3.29968">
        <ele>454</ele>
        <time>2024-04-28T08:29:39Z</time>
      </trkpt>
      <trkpt lat="45.69701" lon="3.29967">
        <ele>454.2</ele>
        <time>2024-04-28T08:29:40Z</time>
      </trkpt>
      <trkpt lat="45.69698" lon="3.29966">
        <ele>454.4</ele>
        <time>2024-04-28T08:29:41Z</time>
      </trkpt>
      <trkpt lat="45.69695" lon="3.29965">
        <ele>454.8</ele>
        <time>2024-04-28T08:29:42Z</time>
      </trkpt>
      <trkpt lat="45.69692" lon="3.29964">
        <ele>454.8</ele>
        <time>2024-04-28T08:29:43Z</time>
      </trkpt>
      <trkpt lat="45.69689" lon="3.29962">
        <ele>455</ele>
        <time>2024-04-28T08:29:44Z</time>
      </trkpt>
      <trkpt lat="45.69686" lon="3.29961">
        <ele>455.2</ele>
        <time>2024-04-28T08:29:45Z</time>
      </trkpt>
      <trkpt lat="45.69683" lon="3.2996">
        <ele>455.4</ele>
        <time>2024-04-28T08:29:46Z</time>
      </trkpt>
      <trkpt lat="45.69681" lon="3.29959">
        <ele>455.6</ele>
        <time>2024-04-28T08:29:47Z</time>
      </trkpt>
      <trkpt lat="45.69678" lon="3.29958">
        <ele>455.8</ele>
        <time>2024-04-28T08:29:48Z</time>
      </trkpt>
      <trkpt lat="45.69675" lon="3.29957">
        <ele>456</ele>
        <time>2024-04-28T08:29:49Z</time>
      </trkpt>
      <trkpt lat="45.69672" lon="3.29955">
        <ele>456.2</ele>
        <time>2024-04-28T08:29:50Z</time>
      </trkpt>
      <trkpt lat="45.69668" lon="3.29954">
        <ele>456.4</ele>
        <time>2024-04-28T08:29:51Z</time>
      </trkpt>
      <trkpt lat="45.69665" lon="3.29953">
        <ele>456.4</ele>
        <time>2024-04-28T08:29:52Z</time>
      </trkpt>
      <trkpt lat="45.69662" lon="3.29951">
        <ele>456.6</ele>
        <time>2024-04-28T08:29:53Z</time>
      </trkpt>
      <trkpt lat="45.69658" lon="3.2995">
        <ele>456.8</ele>
        <time>2024-04-28T08:29:54Z</time>
      </trkpt>
      <trkpt lat="45.69655" lon="3.29949">
        <ele>457</ele>
        <time>2024-04-28T08:29:55Z</time>
      </trkpt>
      <trkpt lat="45.69652" lon="3.29947">
        <ele>457.2</ele>
        <time>2024-04-28T08:29:56Z</time>
      </trkpt>
      <trkpt lat="45.69648" lon="3.29946">
        <ele>457.4</ele>
        <time>2024-04-28T08:29:57Z</time>
      </trkpt>
      <trkpt lat="45.69645" lon="3.29945">
        <ele>457.6</ele>
        <time>2024-04-28T08:29:58Z</time>
      </trkpt>
      <trkpt lat="45.69641" lon="3.29943">
        <ele>457.6</ele>
        <time>2024-04-28T08:29:59Z</time>
      </trkpt>
      <trkpt lat="45.69638" lon="3.29942">
        <ele>457.8</ele>
        <time>2024-04-28T08:30:00Z</time>
      </trkpt>
      <trkpt lat="45.69634" lon="3.2994">
        <ele>458</ele>
        <time>2024-04-28T08:30:01Z</time>
      </trkpt>
      <trkpt lat="45.69631" lon="3.29939">
        <ele>458.2</ele>
        <time>2024-04-28T08:30:02Z</time>
      </trkpt>
      <trkpt lat="45.69628" lon="3.29938">
        <ele>458.4</ele>
        <time>2024-04-28T08:30:03Z</time>
      </trkpt>
      <trkpt lat="45.69625" lon="3.29937">
        <ele>458.6</ele>
        <time>2024-04-28T08:30:04Z</time>
      </trkpt>
      <trkpt lat="45.69621" lon="3.29935">
        <ele>458.8</ele>
        <time>2024-04-28T08:30:05Z</time>
      </trkpt>
      <trkpt lat="45.69618" lon="3.29934">
        <ele>458.8</ele>
        <time>2024-04-28T08:30:06Z</time>
      </trkpt>
      <trkpt lat="45.69615" lon="3.29933">
        <ele>459.2</ele>
        <time>2024-04-28T08:30:07Z</time>
      </trkpt>
      <trkpt lat="45.69611" lon="3.29931">
        <ele>459.2</ele>
        <time>2024-04-28T08:30:08Z</time>
      </trkpt>
      <trkpt lat="45.69608" lon="3.2993">
        <ele>459.4</ele>
        <time>2024-04-28T08:30:09Z</time>
      </trkpt>
      <trkpt lat="45.69604" lon="3.29928">
        <ele>459.6</ele>
        <time>2024-04-28T08:30:10Z</time>
      </trkpt>
      <trkpt lat="45.696" lon="3.29927">
        <ele>459.8</ele>
        <time>2024-04-28T08:30:11Z</time>
      </trkpt>
      <trkpt lat="45.69597" lon="3.29926">
        <ele>460.2</ele>
        <time>2024-04-28T08:30:12Z</time>
      </trkpt>
      <trkpt lat="45.69594" lon="3.29924">
        <ele>460.2</ele>
        <time>2024-04-28T08:30:13Z</time>
      </trkpt>
      <trkpt lat="45.69591" lon="3.29923">
        <ele>460.4</ele>
        <time>2024-04-28T08:30:14Z</time>
      </trkpt>
      <trkpt lat="45.69588" lon="3.29922">
        <ele>460.6</ele>
        <time>2024-04-28T08:30:15Z</time>
      </trkpt>
      <trkpt lat="45.69585" lon="3.2992">
        <ele>460.8</ele>
        <time>2024-04-28T08:30:16Z</time>
      </trkpt>
      <trkpt lat="45.69581" lon="3.29919">
        <ele>461</ele>
        <time>2024-04-28T08:30:17Z</time>
      </trkpt>
      <trkpt lat="45.69578" lon="3.29918">
        <ele>461.2</ele>
        <time>2024-04-28T08:30:18Z</time>
      </trkpt>
      <trkpt lat="45.69576" lon="3.29917">
        <ele>461.4</ele>
        <time>2024-04-28T08:30:19Z</time>
      </trkpt>
      <trkpt lat="45.69572" lon="3.29916">
        <ele>461.6</ele>
        <time>2024-04-28T08:30:20Z</time>
      </trkpt>
      <trkpt lat="45.6957" lon="3.29915">
        <ele>461.8</ele>
        <time>2024-04-28T08:30:21Z</time>
      </trkpt>
      <trkpt lat="45.69566" lon="3.29913">
        <ele>462</ele>
        <time>2024-04-28T08:30:22Z</time>
      </trkpt>
      <trkpt lat="45.69563" lon="3.29912">
        <ele>462.2</ele>
        <time>2024-04-28T08:30:23Z</time>
      </trkpt>
      <trkpt lat="45.69561" lon="3.29911">
        <ele>462.4</ele>
        <time>2024-04-28T08:30:24Z</time>
      </trkpt>
      <trkpt lat="45.69558" lon="3.2991">
        <ele>462.6</ele>
        <time>2024-04-28T08:30:25Z</time>
      </trkpt>
      <trkpt lat="45.69555" lon="3.29908">
        <ele>462.8</ele>
        <time>2024-04-28T08:30:26Z</time>
      </trkpt>
      <trkpt lat="45.69552" lon="3.29907">
        <ele>463</ele>
        <time>2024-04-28T08:30:27Z</time>
      </trkpt>
      <trkpt lat="45.69548" lon="3.29906">
        <ele>463</ele>
        <time>2024-04-28T08:30:28Z</time>
      </trkpt>
      <trkpt lat="45.69544" lon="3.29906">
        <ele>463.2</ele>
        <time>2024-04-28T08:30:29Z</time>
      </trkpt>
      <trkpt lat="45.69541" lon="3.29906">
        <ele>463.4</ele>
        <time>2024-04-28T08:30:30Z</time>
      </trkpt>
      <trkpt lat="45.69538" lon="3.29906">
        <ele>463.6</ele>
        <time>2024-04-28T08:30:31Z</time>
      </trkpt>
      <trkpt lat="45.69534" lon="3.29907">
        <ele>463.8</ele>
        <time>2024-04-28T08:30:32Z</time>
      </trkpt>
      <trkpt lat="45.69531" lon="3.29907">
        <ele>464</ele>
        <time>2024-04-28T08:30:33Z</time>
      </trkpt>
      <trkpt lat="45.69528" lon="3.29908">
        <ele>464.2</ele>
        <time>2024-04-28T08:30:34Z</time>
      </trkpt>
      <trkpt lat="45.69525" lon="3.29908">
        <ele>464.4</ele>
        <time>2024-04-28T08:30:35Z</time>
      </trkpt>
      <trkpt lat="45.69521" lon="3.29909">
        <ele>464.6</ele>
        <time>2024-04-28T08:30:36Z</time>
      </trkpt>
      <trkpt lat="45.69518" lon="3.29909">
        <ele>464.8</ele>
        <time>2024-04-28T08:30:37Z</time>
      </trkpt>
      <trkpt lat="45.69515" lon="3.29909">
        <ele>465</ele>
        <time>2024-04-28T08:30:38Z</time>
      </trkpt>
      <trkpt lat="45.69511" lon="3.2991">
        <ele>465</ele>
        <time>2024-04-28T08:30:39Z</time>
      </trkpt>
      <trkpt lat="45.69508" lon="3.2991">
        <ele>465.2</ele>
        <time>2024-04-28T08:30:40Z</time>
      </trkpt>
      <trkpt lat="45.69505" lon="3.29911">
        <ele>465.4</ele>
        <time>2024-04-28T08:30:41Z</time>
      </trkpt>
      <trkpt lat="45.69502" lon="3.29911">
        <ele>465.6</ele>
        <time>2024-04-28T08:30:42Z</time>
      </trkpt>
      <trkpt lat="45.69498" lon="3.29911">
        <ele>465.8</ele>
        <time>2024-04-28T08:30:43Z</time>
      </trkpt>
      <trkpt lat="45.69495" lon="3.29912">
        <ele>466</ele>
        <time>2024-04-28T08:30:44Z</time>
      </trkpt>
      <trkpt lat="45.69492" lon="3.29912">
        <ele>466</ele>
        <time>2024-04-28T08:30:45Z</time>
      </trkpt>
      <trkpt lat="45.69488" lon="3.29913">
        <ele>466.2</ele>
        <time>2024-04-28T08:30:46Z</time>
      </trkpt>
      <trkpt lat="45.69485" lon="3.29913">
        <ele>466.4</ele>
        <time>2024-04-28T08:30:47Z</time>
      </trkpt>
      <trkpt lat="45.69482" lon="3.29913">
        <ele>466.6</ele>
        <time>2024-04-28T08:30:48Z</time>
      </trkpt>
      <trkpt lat="45.69478" lon="3.29914">
        <ele>466.8</ele>
        <time>2024-04-28T08:30:49Z</time>
      </trkpt>
      <trkpt lat="45.69475" lon="3.29914">
        <ele>467</ele>
        <time>2024-04-28T08:30:50Z</time>
      </trkpt>
      <trkpt lat="45.69472" lon="3.29915">
        <ele>467.2</ele>
        <time>2024-04-28T08:30:51Z</time>
      </trkpt>
      <trkpt lat="45.69468" lon="3.29915">
        <ele>467.4</ele>
        <time>2024-04-28T08:30:52Z</time>
      </trkpt>
      <trkpt lat="45.69465" lon="3.29916">
        <ele>467.6</ele>
        <time>2024-04-28T08:30:53Z</time>
      </trkpt>
      <trkpt lat="45.69462" lon="3.29916">
        <ele>467.6</ele>
        <time>2024-04-28T08:30:54Z</time>
      </trkpt>
      <trkpt lat="45.69458" lon="3.29916">
        <ele>467.8</ele>
        <time>2024-04-28T08:30:55Z</time>
      </trkpt>
      <trkpt lat="45.69455" lon="3.29917">
        <ele>468</ele>
        <time>2024-04-28T08:30:56Z</time>
      </trkpt>
      <trkpt lat="45.69452" lon="3.29917">
        <ele>468.2</ele>
        <time>2024-04-28T08:30:57Z</time>
      </trkpt>
      <trkpt lat="45.69449" lon="3.29918">
        <ele>468.4</ele>
        <time>2024-04-28T08:30:58Z</time>
      </trkpt>
      <trkpt lat="45.69445" lon="3.29918">
        <ele>468.6</ele>
        <time>2024-04-28T08:30:59Z</time>
      </trkpt>
      <trkpt lat="45.69442" lon="3.29918">
        <ele>468.8</ele>
        <time>2024-04-28T08:31:00Z</time>
      </trkpt>
      <trkpt lat="45.69439" lon="3.29919">
        <ele>469</ele>
        <time>2024-04-28T08:31:01Z</time>
      </trkpt>
      <trkpt lat="45.69436" lon="3.29919">
        <ele>469.2</ele>
        <time>2024-04-28T08:31:02Z</time>
      </trkpt>
      <trkpt lat="45.69433" lon="3.2992">
        <ele>469.4</ele>
        <time>2024-04-28T08:31:03Z</time>
      </trkpt>
      <trkpt lat="45.6943" lon="3.2992">
        <ele>469.4</ele>
        <time>2024-04-28T08:31:04Z</time>
      </trkpt>
      <trkpt lat="45.69427" lon="3.2992">
        <ele>469.6</ele>
        <time>2024-04-28T08:31:05Z</time>
      </trkpt>
      <trkpt lat="45.69423" lon="3.29921">
        <ele>470</ele>
        <time>2024-04-28T08:31:06Z</time>
      </trkpt>
      <trkpt lat="45.6942" lon="3.29921">
        <ele>470.2</ele>
        <time>2024-04-28T08:31:07Z</time>
      </trkpt>
      <trkpt lat="45.69417" lon="3.29922">
        <ele>470.4</ele>
        <time>2024-04-28T08:31:08Z</time>
      </trkpt>
      <trkpt lat="45.69413" lon="3.29922">
        <ele>470.6</ele>
        <time>2024-04-28T08:31:09Z</time>
      </trkpt>
      <trkpt lat="45.6941" lon="3.29923">
        <ele>470.8</ele>
        <time>2024-04-28T08:31:10Z</time>
      </trkpt>
      <trkpt lat="45.69407" lon="3.29923">
        <ele>470.8</ele>
        <time>2024-04-28T08:31:11Z</time>
      </trkpt>
      <trkpt lat="45.69404" lon="3.29923">
        <ele>471</ele>
        <time>2024-04-28T08:31:12Z</time>
      </trkpt>
      <trkpt lat="45.694" lon="3.29924">
        <ele>471.2</ele>
        <time>2024-04-28T08:31:13Z</time>
      </trkpt>
      <trkpt lat="45.69396" lon="3.29924">
        <ele>471.4</ele>
        <time>2024-04-28T08:31:14Z</time>
      </trkpt>
      <trkpt lat="45.69393" lon="3.29924">
        <ele>471.6</ele>
        <time>2024-04-28T08:31:15Z</time>
      </trkpt>
      <trkpt lat="45.6939" lon="3.29924">
        <ele>471.8</ele>
        <time>2024-04-28T08:31:16Z</time>
      </trkpt>
      <trkpt lat="45.69386" lon="3.29924">
        <ele>472</ele>
        <time>2024-04-28T08:31:17Z</time>
      </trkpt>
      <trkpt lat="45.69382" lon="3.29923">
        <ele>472.2</ele>
        <time>2024-04-28T08:31:18Z</time>
      </trkpt>
      <trkpt lat="45.69379" lon="3.29923">
        <ele>472.4</ele>
        <time>2024-04-28T08:31:19Z</time>
      </trkpt>
      <trkpt lat="45.69376" lon="3.29922">
        <ele>472.6</ele>
        <time>2024-04-28T08:31:20Z</time>
      </trkpt>
      <trkpt lat="45.69373" lon="3.29922">
        <ele>472.8</ele>
        <time>2024-04-28T08:31:21Z</time>
      </trkpt>
      <trkpt lat="45.6937" lon="3.29922">
        <ele>472.8</ele>
        <time>2024-04-28T08:31:22Z</time>
      </trkpt>
      <trkpt lat="45.69366" lon="3.29921">
        <ele>473</ele>
        <time>2024-04-28T08:31:23Z</time>
      </trkpt>
      <trkpt lat="45.69363" lon="3.29921">
        <ele>473.2</ele>
        <time>2024-04-28T08:31:24Z</time>
      </trkpt>
      <trkpt lat="45.6936" lon="3.2992">
        <ele>473.4</ele>
        <time>2024-04-28T08:31:25Z</time>
      </trkpt>
      <trkpt lat="45.69356" lon="3.2992">
        <ele>473.6</ele>
        <time>2024-04-28T08:31:26Z</time>
      </trkpt>
      <trkpt lat="45.69353" lon="3.2992">
        <ele>473.8</ele>
        <time>2024-04-28T08:31:27Z</time>
      </trkpt>
      <trkpt lat="45.6935" lon="3.29919">
        <ele>473.8</ele>
        <time>2024-04-28T08:31:28Z</time>
      </trkpt>
      <trkpt lat="45.69347" lon="3.29919">
        <ele>474</ele>
        <time>2024-04-28T08:31:29Z</time>
      </trkpt>
      <trkpt lat="45.69344" lon="3.29919">
        <ele>474.2</ele>
        <time>2024-04-28T08:31:30Z</time>
      </trkpt>
      <trkpt lat="45.6934" lon="3.29918">
        <ele>474.4</ele>
        <time>2024-04-28T08:31:31Z</time>
      </trkpt>
      <trkpt lat="45.69337" lon="3.29917">
        <ele>474.6</ele>
        <time>2024-04-28T08:31:32Z</time>
      </trkpt>
      <trkpt lat="45.69334" lon="3.29915">
        <ele>474.8</ele>
        <time>2024-04-28T08:31:33Z</time>
      </trkpt>
      <trkpt lat="45.69331" lon="3.29914">
        <ele>474.8</ele>
        <time>2024-04-28T08:31:34Z</time>
      </trkpt>
      <trkpt lat="45.69327" lon="3.29912">
        <ele>475</ele>
        <time>2024-04-28T08:31:35Z</time>
      </trkpt>
      <trkpt lat="45.69324" lon="3.2991">
        <ele>475.2</ele>
        <time>2024-04-28T08:31:36Z</time>
      </trkpt>
      <trkpt lat="45.69321" lon="3.29909">
        <ele>475.4</ele>
        <time>2024-04-28T08:31:37Z</time>
      </trkpt>
      <trkpt lat="45.69317" lon="3.29907">
        <ele>475.6</ele>
        <time>2024-04-28T08:31:38Z</time>
      </trkpt>
      <trkpt lat="45.69314" lon="3.29906">
        <ele>475.8</ele>
        <time>2024-04-28T08:31:39Z</time>
      </trkpt>
      <trkpt lat="45.69312" lon="3.29905">
        <ele>476</ele>
        <time>2024-04-28T08:31:40Z</time>
      </trkpt>
      <trkpt lat="45.69308" lon="3.29903">
        <ele>476.2</ele>
        <time>2024-04-28T08:31:41Z</time>
      </trkpt>
      <trkpt lat="45.69305" lon="3.29902">
        <ele>476.4</ele>
        <time>2024-04-28T08:31:42Z</time>
      </trkpt>
      <trkpt lat="45.69302" lon="3.29899">
        <ele>476.4</ele>
        <time>2024-04-28T08:31:43Z</time>
      </trkpt>
      <trkpt lat="45.69299" lon="3.29897">
        <ele>476.6</ele>
        <time>2024-04-28T08:31:44Z</time>
      </trkpt>
      <trkpt lat="45.69297" lon="3.29894">
        <ele>476.8</ele>
        <time>2024-04-28T08:31:45Z</time>
      </trkpt>
      <trkpt lat="45.69294" lon="3.29891">
        <ele>477</ele>
        <time>2024-04-28T08:31:46Z</time>
      </trkpt>
      <trkpt lat="45.69291" lon="3.29889">
        <ele>477.2</ele>
        <time>2024-04-28T08:31:47Z</time>
      </trkpt>
      <trkpt lat="45.69288" lon="3.29886">
        <ele>477.4</ele>
        <time>2024-04-28T08:31:48Z</time>
      </trkpt>
      <trkpt lat="45.69285" lon="3.29883">
        <ele>477.6</ele>
        <time>2024-04-28T08:31:49Z</time>
      </trkpt>
      <trkpt lat="45.69283" lon="3.29881">
        <ele>477.8</ele>
        <time>2024-04-28T08:31:50Z</time>
      </trkpt>
      <trkpt lat="45.6928" lon="3.29878">
        <ele>477.8</ele>
        <time>2024-04-28T08:31:51Z</time>
      </trkpt>
      <trkpt lat="45.69277" lon="3.29875">
        <ele>478</ele>
        <time>2024-04-28T08:31:52Z</time>
      </trkpt>
      <trkpt lat="45.69274" lon="3.29873">
        <ele>478.2</ele>
        <time>2024-04-28T08:31:53Z</time>
      </trkpt>
      <trkpt lat="45.69271" lon="3.2987">
        <ele>478.4</ele>
        <time>2024-04-28T08:31:54Z</time>
      </trkpt>
      <trkpt lat="45.69269" lon="3.29867">
        <ele>478.6</ele>
        <time>2024-04-28T08:31:55Z</time>
      </trkpt>
      <trkpt lat="45.69266" lon="3.29865">
        <ele>478.8</ele>
        <time>2024-04-28T08:31:56Z</time>
      </trkpt>
      <trkpt lat="45.69263" lon="3.29862">
        <ele>479</ele>
        <time>2024-04-28T08:31:57Z</time>
      </trkpt>
      <trkpt lat="45.69261" lon="3.2986">
        <ele>479.2</ele>
        <time>2024-04-28T08:31:58Z</time>
      </trkpt>
      <trkpt lat="45.69259" lon="3.29857">
        <ele>479.4</ele>
        <time>2024-04-28T08:31:59Z</time>
      </trkpt>
      <trkpt lat="45.69256" lon="3.29854">
        <ele>479.6</ele>
        <time>2024-04-28T08:32:00Z</time>
      </trkpt>
      <trkpt lat="45.69254" lon="3.2985">
        <ele>479.8</ele>
        <time>2024-04-28T08:32:01Z</time>
      </trkpt>
      <trkpt lat="45.69251" lon="3.29847">
        <ele>480</ele>
        <time>2024-04-28T08:32:02Z</time>
      </trkpt>
      <trkpt lat="45.69249" lon="3.29843">
        <ele>480.2</ele>
        <time>2024-04-28T08:32:03Z</time>
      </trkpt>
      <trkpt lat="45.69247" lon="3.29839">
        <ele>480.4</ele>
        <time>2024-04-28T08:32:04Z</time>
      </trkpt>
      <trkpt lat="45.69244" lon="3.29836">
        <ele>480.6</ele>
        <time>2024-04-28T08:32:05Z</time>
      </trkpt>
      <trkpt lat="45.69242" lon="3.29832">
        <ele>480.6</ele>
        <time>2024-04-28T08:32:06Z</time>
      </trkpt>
      <trkpt lat="45.69238" lon="3.29825">
        <ele>480.8</ele>
        <time>2024-04-28T08:32:07Z</time>
      </trkpt>
      <trkpt lat="45.69238" lon="3.29825">
        <ele>481</ele>
        <time>2024-04-28T08:32:08Z</time>
      </trkpt>
      <trkpt lat="45.69235" lon="3.29822">
        <ele>481.2</ele>
        <time>2024-04-28T08:32:09Z</time>
      </trkpt>
      <trkpt lat="45.69233" lon="3.29819">
        <ele>481.4</ele>
        <time>2024-04-28T08:32:10Z</time>
      </trkpt>
      <trkpt lat="45.69231" lon="3.29816">
        <ele>481.6</ele>
        <time>2024-04-28T08:32:11Z</time>
      </trkpt>
      <trkpt lat="45.69229" lon="3.29812">
        <ele>481.8</ele>
        <time>2024-04-28T08:32:12Z</time>
      </trkpt>
      <trkpt lat="45.69227" lon="3.29809">
        <ele>481.8</ele>
        <time>2024-04-28T08:32:13Z</time>
      </trkpt>
      <trkpt lat="45.69224" lon="3.29805">
        <ele>482</ele>
        <time>2024-04-28T08:32:14Z</time>
      </trkpt>
      <trkpt lat="45.69222" lon="3.298">
        <ele>482.2</ele>
        <time>2024-04-28T08:32:15Z</time>
      </trkpt>
      <trkpt lat="45.6922" lon="3.29796">
        <ele>482.4</ele>
        <time>2024-04-28T08:32:16Z</time>
      </trkpt>
      <trkpt lat="45.69219" lon="3.29792">
        <ele>482.6</ele>
        <time>2024-04-28T08:32:17Z</time>
      </trkpt>
      <trkpt lat="45.69217" lon="3.29788">
        <ele>482.8</ele>
        <time>2024-04-28T08:32:18Z</time>
      </trkpt>
      <trkpt lat="45.69216" lon="3.29783">
        <ele>483</ele>
        <time>2024-04-28T08:32:19Z</time>
      </trkpt>
      <trkpt lat="45.69214" lon="3.29779">
        <ele>483.2</ele>
        <time>2024-04-28T08:32:20Z</time>
      </trkpt>
      <trkpt lat="45.69213" lon="3.29775">
        <ele>483.4</ele>
        <time>2024-04-28T08:32:21Z</time>
      </trkpt>
      <trkpt lat="45.69211" lon="3.29771">
        <ele>483.4</ele>
        <time>2024-04-28T08:32:22Z</time>
      </trkpt>
      <trkpt lat="45.6921" lon="3.29767">
        <ele>483.6</ele>
        <time>2024-04-28T08:32:23Z</time>
      </trkpt>
      <trkpt lat="45.69208" lon="3.29763">
        <ele>483.8</ele>
        <time>2024-04-28T08:32:24Z</time>
      </trkpt>
      <trkpt lat="45.69207" lon="3.29758">
        <ele>484</ele>
        <time>2024-04-28T08:32:25Z</time>
      </trkpt>
      <trkpt lat="45.69205" lon="3.29754">
        <ele>484.2</ele>
        <time>2024-04-28T08:32:26Z</time>
      </trkpt>
      <trkpt lat="45.69204" lon="3.2975">
        <ele>484.4</ele>
        <time>2024-04-28T08:32:27Z</time>
      </trkpt>
      <trkpt lat="45.69203" lon="3.29747">
        <ele>484.6</ele>
        <time>2024-04-28T08:32:28Z</time>
      </trkpt>
      <trkpt lat="45.69201" lon="3.29743">
        <ele>484.8</ele>
        <time>2024-04-28T08:32:29Z</time>
      </trkpt>
      <trkpt lat="45.692" lon="3.29739">
        <ele>485</ele>
        <time>2024-04-28T08:32:30Z</time>
      </trkpt>
      <trkpt lat="45.69198" lon="3.29735">
        <ele>485.2</ele>
        <time>2024-04-28T08:32:31Z</time>
      </trkpt>
      <trkpt lat="45.69197" lon="3.29731">
        <ele>485.4</ele>
        <time>2024-04-28T08:32:32Z</time>
      </trkpt>
      <trkpt lat="45.69195" lon="3.29726">
        <ele>485.6</ele>
        <time>2024-04-28T08:32:33Z</time>
      </trkpt>
      <trkpt lat="45.69194" lon="3.29722">
        <ele>485.8</ele>
        <time>2024-04-28T08:32:34Z</time>
      </trkpt>
      <trkpt lat="45.69192" lon="3.29718">
        <ele>486</ele>
        <time>2024-04-28T08:32:35Z</time>
      </trkpt>
      <trkpt lat="45.69191" lon="3.29714">
        <ele>486.2</ele>
        <time>2024-04-28T08:32:36Z</time>
      </trkpt>
      <trkpt lat="45.69189" lon="3.2971">
        <ele>486.4</ele>
        <time>2024-04-28T08:32:37Z</time>
      </trkpt>
      <trkpt lat="45.69188" lon="3.29705">
        <ele>486.6</ele>
        <time>2024-04-28T08:32:38Z</time>
      </trkpt>
      <trkpt lat="45.69186" lon="3.29701">
        <ele>486.8</ele>
        <time>2024-04-28T08:32:39Z</time>
      </trkpt>
      <trkpt lat="45.69185" lon="3.29697">
        <ele>487</ele>
        <time>2024-04-28T08:32:40Z</time>
      </trkpt>
      <trkpt lat="45.69183" lon="3.29693">
        <ele>487.2</ele>
        <time>2024-04-28T08:32:41Z</time>
      </trkpt>
      <trkpt lat="45.69182" lon="3.29689">
        <ele>487.4</ele>
        <time>2024-04-28T08:32:42Z</time>
      </trkpt>
      <trkpt lat="45.6918" lon="3.29685">
        <ele>487.6</ele>
        <time>2024-04-28T08:32:43Z</time>
      </trkpt>
      <trkpt lat="45.69179" lon="3.2968">
        <ele>487.8</ele>
        <time>2024-04-28T08:32:44Z</time>
      </trkpt>
      <trkpt lat="45.69177" lon="3.29676">
        <ele>488</ele>
        <time>2024-04-28T08:32:45Z</time>
      </trkpt>
      <trkpt lat="45.69176" lon="3.29672">
        <ele>488.2</ele>
        <time>2024-04-28T08:32:46Z</time>
      </trkpt>
      <trkpt lat="45.69174" lon="3.29668">
        <ele>488.4</ele>
        <time>2024-04-28T08:32:47Z</time>
      </trkpt>
      <trkpt lat="45.69173" lon="3.29664">
        <ele>488.4</ele>
        <time>2024-04-28T08:32:48Z</time>
      </trkpt>
      <trkpt lat="45.69172" lon="3.2966">
        <ele>488.6</ele>
        <time>2024-04-28T08:32:49Z</time>
      </trkpt>
      <trkpt lat="45.6917" lon="3.29656">
        <ele>488.8</ele>
        <time>2024-04-28T08:32:50Z</time>
      </trkpt>
      <trkpt lat="45.69169" lon="3.29652">
        <ele>489</ele>
        <time>2024-04-28T08:32:51Z</time>
      </trkpt>
      <trkpt lat="45.69167" lon="3.29649">
        <ele>489.2</ele>
        <time>2024-04-28T08:32:52Z</time>
      </trkpt>
      <trkpt lat="45.69165" lon="3.29646">
        <ele>489.4</ele>
        <time>2024-04-28T08:32:53Z</time>
      </trkpt>
      <trkpt lat="45.69163" lon="3.29642">
        <ele>489.6</ele>
        <time>2024-04-28T08:32:54Z</time>
      </trkpt>
      <trkpt lat="45.69161" lon="3.29639">
        <ele>489.8</ele>
        <time>2024-04-28T08:32:55Z</time>
      </trkpt>
      <trkpt lat="45.69159" lon="3.29636">
        <ele>490</ele>
        <time>2024-04-28T08:32:56Z</time>
      </trkpt>
      <trkpt lat="45.69157" lon="3.29632">
        <ele>490.2</ele>
        <time>2024-04-28T08:32:57Z</time>
      </trkpt>
      <trkpt lat="45.69154" lon="3.29628">
        <ele>490.4</ele>
        <time>2024-04-28T08:32:58Z</time>
      </trkpt>
      <trkpt lat="45.69152" lon="3.29625">
        <ele>490.6</ele>
        <time>2024-04-28T08:32:59Z</time>
      </trkpt>
      <trkpt lat="45.6915" lon="3.29622">
        <ele>490.8</ele>
        <time>2024-04-28T08:33:00Z</time>
      </trkpt>
      <trkpt lat="45.69148" lon="3.29618">
        <ele>491</ele>
        <time>2024-04-28T08:33:01Z</time>
      </trkpt>
      <trkpt lat="45.69146" lon="3.29614">
        <ele>491.2</ele>
        <time>2024-04-28T08:33:02Z</time>
      </trkpt>
      <trkpt lat="45.69143" lon="3.2961">
        <ele>491.4</ele>
        <time>2024-04-28T08:33:03Z</time>
      </trkpt>
      <trkpt lat="45.69141" lon="3.29606">
        <ele>491.6</ele>
        <time>2024-04-28T08:33:04Z</time>
      </trkpt>
      <trkpt lat="45.69139" lon="3.29602">
        <ele>491.8</ele>
        <time>2024-04-28T08:33:05Z</time>
      </trkpt>
      <trkpt lat="45.69136" lon="3.29599">
        <ele>492</ele>
        <time>2024-04-28T08:33:06Z</time>
      </trkpt>
      <trkpt lat="45.69134" lon="3.29596">
        <ele>492.2</ele>
        <time>2024-04-28T08:33:07Z</time>
      </trkpt>
      <trkpt lat="45.69131" lon="3.29592">
        <ele>492.4</ele>
        <time>2024-04-28T08:33:08Z</time>
      </trkpt>
      <trkpt lat="45.69128" lon="3.29589">
        <ele>492.6</ele>
        <time>2024-04-28T08:33:09Z</time>
      </trkpt>
      <trkpt lat="45.69126" lon="3.29585">
        <ele>492.8</ele>
        <time>2024-04-28T08:33:10Z</time>
      </trkpt>
      <trkpt lat="45.69123" lon="3.29581">
        <ele>493</ele>
        <time>2024-04-28T08:33:11Z</time>
      </trkpt>
      <trkpt lat="45.69121" lon="3.29578">
        <ele>493.2</ele>
        <time>2024-04-28T08:33:12Z</time>
      </trkpt>
      <trkpt lat="45.69118" lon="3.29574">
        <ele>493.4</ele>
        <time>2024-04-28T08:33:13Z</time>
      </trkpt>
      <trkpt lat="45.69116" lon="3.29571">
        <ele>493.6</ele>
        <time>2024-04-28T08:33:14Z</time>
      </trkpt>
      <trkpt lat="45.69113" lon="3.29567">
        <ele>493.8</ele>
        <time>2024-04-28T08:33:15Z</time>
      </trkpt>
      <trkpt lat="45.69111" lon="3.29564">
        <ele>494</ele>
        <time>2024-04-28T08:33:16Z</time>
      </trkpt>
      <trkpt lat="45.69108" lon="3.2956">
        <ele>494.2</ele>
        <time>2024-04-28T08:33:17Z</time>
      </trkpt>
      <trkpt lat="45.69106" lon="3.29557">
        <ele>494.4</ele>
        <time>2024-04-28T08:33:18Z</time>
      </trkpt>
      <trkpt lat="45.69103" lon="3.29554">
        <ele>494.6</ele>
        <time>2024-04-28T08:33:19Z</time>
      </trkpt>
      <trkpt lat="45.69101" lon="3.29551">
        <ele>494.8</ele>
        <time>2024-04-28T08:33:20Z</time>
      </trkpt>
      <trkpt lat="45.69099" lon="3.29547">
        <ele>495</ele>
        <time>2024-04-28T08:33:21Z</time>
      </trkpt>
      <trkpt lat="45.69096" lon="3.29544">
        <ele>495.2</ele>
        <time>2024-04-28T08:33:22Z</time>
      </trkpt>
      <trkpt lat="45.69094" lon="3.2954">
        <ele>495.2</ele>
        <time>2024-04-28T08:33:23Z</time>
      </trkpt>
      <trkpt lat="45.69091" lon="3.29537">
        <ele>495.4</ele>
        <time>2024-04-28T08:33:24Z</time>
      </trkpt>
      <trkpt lat="45.69089" lon="3.29534">
        <ele>495.6</ele>
        <time>2024-04-28T08:33:25Z</time>
      </trkpt>
      <trkpt lat="45.69086" lon="3.2953">
        <ele>495.8</ele>
        <time>2024-04-28T08:33:26Z</time>
      </trkpt>
      <trkpt lat="45.69084" lon="3.29527">
        <ele>496</ele>
        <time>2024-04-28T08:33:27Z</time>
      </trkpt>
      <trkpt lat="45.69082" lon="3.29524">
        <ele>496.2</ele>
        <time>2024-04-28T08:33:28Z</time>
      </trkpt>
      <trkpt lat="45.6908" lon="3.29521">
        <ele>496.4</ele>
        <time>2024-04-28T08:33:29Z</time>
      </trkpt>
      <trkpt lat="45.69077" lon="3.29518">
        <ele>496.6</ele>
        <time>2024-04-28T08:33:30Z</time>
      </trkpt>
      <trkpt lat="45.69075" lon="3.29515">
        <ele>496.8</ele>
        <time>2024-04-28T08:33:31Z</time>
      </trkpt>
      <trkpt lat="45.69073" lon="3.29511">
        <ele>497</ele>
        <time>2024-04-28T08:33:32Z</time>
      </trkpt>
      <trkpt lat="45.6907" lon="3.29508">
        <ele>497.2</ele>
        <time>2024-04-28T08:33:33Z</time>
      </trkpt>
      <trkpt lat="45.69068" lon="3.29505">
        <ele>497.2</ele>
        <time>2024-04-28T08:33:34Z</time>
      </trkpt>
      <trkpt lat="45.69066" lon="3.29502">
        <ele>497.4</ele>
        <time>2024-04-28T08:33:35Z</time>
      </trkpt>
      <trkpt lat="45.69064" lon="3.29499">
        <ele>497.6</ele>
        <time>2024-04-28T08:33:36Z</time>
      </trkpt>
      <trkpt lat="45.69062" lon="3.29496">
        <ele>497.8</ele>
        <time>2024-04-28T08:33:37Z</time>
      </trkpt>
      <trkpt lat="45.6906" lon="3.29493">
        <ele>498</ele>
        <time>2024-04-28T08:33:38Z</time>
      </trkpt>
      <trkpt lat="45.69057" lon="3.2949">
        <ele>498.2</ele>
        <time>2024-04-28T08:33:39Z</time>
      </trkpt>
      <trkpt lat="45.69055" lon="3.29487">
        <ele>498.4</ele>
        <time>2024-04-28T08:33:40Z</time>
      </trkpt>
      <trkpt lat="45.69053" lon="3.29484">
        <ele>498.6</ele>
        <time>2024-04-28T08:33:41Z</time>
      </trkpt>
      <trkpt lat="45.69051" lon="3.29481">
        <ele>498.8</ele>
        <time>2024-04-28T08:33:42Z</time>
      </trkpt>
      <trkpt lat="45.69048" lon="3.29478">
        <ele>498.8</ele>
        <time>2024-04-28T08:33:43Z</time>
      </trkpt>
      <trkpt lat="45.69046" lon="3.29475">
        <ele>499</ele>
        <time>2024-04-28T08:33:44Z</time>
      </trkpt>
      <trkpt lat="45.69044" lon="3.29472">
        <ele>499.2</ele>
        <time>2024-04-28T08:33:45Z</time>
      </trkpt>
      <trkpt lat="45.69042" lon="3.29469">
        <ele>499.4</ele>
        <time>2024-04-28T08:33:46Z</time>
      </trkpt>
      <trkpt lat="45.6904" lon="3.29466">
        <ele>499.6</ele>
        <time>2024-04-28T08:33:47Z</time>
      </trkpt>
      <trkpt lat="45.69038" lon="3.29463">
        <ele>499.8</ele>
        <time>2024-04-28T08:33:48Z</time>
      </trkpt>
      <trkpt lat="45.69036" lon="3.2946">
        <ele>500</ele>
        <time>2024-04-28T08:33:49Z</time>
      </trkpt>
      <trkpt lat="45.69034" lon="3.29457">
        <ele>500.2</ele>
        <time>2024-04-28T08:33:50Z</time>
      </trkpt>
      <trkpt lat="45.69031" lon="3.29454">
        <ele>500.4</ele>
        <time>2024-04-28T08:33:51Z</time>
      </trkpt>
      <trkpt lat="45.69029" lon="3.29451">
        <ele>500.6</ele>
        <time>2024-04-28T08:33:52Z</time>
      </trkpt>
      <trkpt lat="45.69027" lon="3.29448">
        <ele>500.8</ele>
        <time>2024-04-28T08:33:53Z</time>
      </trkpt>
      <trkpt lat="45.69025" lon="3.29445">
        <ele>501</ele>
        <time>2024-04-28T08:33:54Z</time>
      </trkpt>
      <trkpt lat="45.69023" lon="3.29442">
        <ele>501.2</ele>
        <time>2024-04-28T08:33:55Z</time>
      </trkpt>
      <trkpt lat="45.6902" lon="3.29439">
        <ele>501.4</ele>
        <time>2024-04-28T08:33:56Z</time>
      </trkpt>
      <trkpt lat="45.69018" lon="3.29436">
        <ele>501.4</ele>
        <time>2024-04-28T08:33:57Z</time>
      </trkpt>
      <trkpt lat="45.69016" lon="3.29433">
        <ele>501.6</ele>
        <time>2024-04-28T08:33:58Z</time>
      </trkpt>
      <trkpt lat="45.69014" lon="3.2943">
        <ele>501.8</ele>
        <time>2024-04-28T08:33:59Z</time>
      </trkpt>
      <trkpt lat="45.69012" lon="3.29427">
        <ele>502</ele>
        <time>2024-04-28T08:34:00Z</time>
      </trkpt>
      <trkpt lat="45.6901" lon="3.29424">
        <ele>502.2</ele>
        <time>2024-04-28T08:34:01Z</time>
      </trkpt>
      <trkpt lat="45.69008" lon="3.29422">
        <ele>502.4</ele>
        <time>2024-04-28T08:34:02Z</time>
      </trkpt>
      <trkpt lat="45.69006" lon="3.29419">
        <ele>502.6</ele>
        <time>2024-04-28T08:34:03Z</time>
      </trkpt>
      <trkpt lat="45.69003" lon="3.29416">
        <ele>502.8</ele>
        <time>2024-04-28T08:34:04Z</time>
      </trkpt>
      <trkpt lat="45.69001" lon="3.29413">
        <ele>503</ele>
        <time>2024-04-28T08:34:05Z</time>
      </trkpt>
      <trkpt lat="45.68999" lon="3.2941">
        <ele>503.2</ele>
        <time>2024-04-28T08:34:06Z</time>
      </trkpt>
      <trkpt lat="45.68997" lon="3.29407">
        <ele>503.4</ele>
        <time>2024-04-28T08:34:07Z</time>
      </trkpt>
      <trkpt lat="45.68995" lon="3.29404">
        <ele>503.8</ele>
        <time>2024-04-28T08:34:08Z</time>
      </trkpt>
      <trkpt lat="45.68993" lon="3.29401">
        <ele>504</ele>
        <time>2024-04-28T08:34:09Z</time>
      </trkpt>
      <trkpt lat="45.68991" lon="3.29399">
        <ele>504.2</ele>
        <time>2024-04-28T08:34:10Z</time>
      </trkpt>
      <trkpt lat="45.68989" lon="3.29396">
        <ele>504.2</ele>
        <time>2024-04-28T08:34:11Z</time>
      </trkpt>
      <trkpt lat="45.68987" lon="3.29393">
        <ele>504.4</ele>
        <time>2024-04-28T08:34:12Z</time>
      </trkpt>
      <trkpt lat="45.68985" lon="3.2939">
        <ele>504.6</ele>
        <time>2024-04-28T08:34:13Z</time>
      </trkpt>
      <trkpt lat="45.68983" lon="3.29387">
        <ele>504.8</ele>
        <time>2024-04-28T08:34:14Z</time>
      </trkpt>
      <trkpt lat="45.68981" lon="3.29384">
        <ele>505</ele>
        <time>2024-04-28T08:34:15Z</time>
      </trkpt>
      <trkpt lat="45.68979" lon="3.29382">
        <ele>505.4</ele>
        <time>2024-04-28T08:34:16Z</time>
      </trkpt>
      <trkpt lat="45.68977" lon="3.29379">
        <ele>505.6</ele>
        <time>2024-04-28T08:34:17Z</time>
      </trkpt>
      <trkpt lat="45.68975" lon="3.29376">
        <ele>505.8</ele>
        <time>2024-04-28T08:34:18Z</time>
      </trkpt>
      <trkpt lat="45.68973" lon="3.29373">
        <ele>506</ele>
        <time>2024-04-28T08:34:19Z</time>
      </trkpt>
      <trkpt lat="45.68971" lon="3.29371">
        <ele>506.2</ele>
        <time>2024-04-28T08:34:20Z</time>
      </trkpt>
      <trkpt lat="45.68969" lon="3.29368">
        <ele>506.6</ele>
        <time>2024-04-28T08:34:21Z</time>
      </trkpt>
      <trkpt lat="45.68967" lon="3.29365">
        <ele>506.8</ele>
        <time>2024-04-28T08:34:22Z</time>
      </trkpt>
      <trkpt lat="45.68964" lon="3.29362">
        <ele>507</ele>
        <time>2024-04-28T08:34:23Z</time>
      </trkpt>
      <trkpt lat="45.68962" lon="3.29359">
        <ele>507.4</ele>
        <time>2024-04-28T08:34:24Z</time>
      </trkpt>
      <trkpt lat="45.6896" lon="3.29355">
        <ele>507.6</ele>
        <time>2024-04-28T08:34:25Z</time>
      </trkpt>
      <trkpt lat="45.68957" lon="3.29352">
        <ele>507.8</ele>
        <time>2024-04-28T08:34:26Z</time>
      </trkpt>
      <trkpt lat="45.68955" lon="3.29349">
        <ele>508</ele>
        <time>2024-04-28T08:34:27Z</time>
      </trkpt>
      <trkpt lat="45.68953" lon="3.29346">
        <ele>508.2</ele>
        <time>2024-04-28T08:34:28Z</time>
      </trkpt>
      <trkpt lat="45.68951" lon="3.29344">
        <ele>508.4</ele>
        <time>2024-04-28T08:34:29Z</time>
      </trkpt>
      <trkpt lat="45.68949" lon="3.29341">
        <ele>508.8</ele>
        <time>2024-04-28T08:34:30Z</time>
      </trkpt>
      <trkpt lat="45.68947" lon="3.29338">
        <ele>509</ele>
        <time>2024-04-28T08:34:31Z</time>
      </trkpt>
      <trkpt lat="45.68945" lon="3.29334">
        <ele>509.2</ele>
        <time>2024-04-28T08:34:32Z</time>
      </trkpt>
      <trkpt lat="45.68943" lon="3.29331">
        <ele>509.4</ele>
        <time>2024-04-28T08:34:33Z</time>
      </trkpt>
      <trkpt lat="45.68941" lon="3.29328">
        <ele>509.6</ele>
        <time>2024-04-28T08:34:34Z</time>
      </trkpt>
      <trkpt lat="45.68939" lon="3.29324">
        <ele>509.8</ele>
        <time>2024-04-28T08:34:35Z</time>
      </trkpt>
      <trkpt lat="45.68937" lon="3.29321">
        <ele>510</ele>
        <time>2024-04-28T08:34:36Z</time>
      </trkpt>
      <trkpt lat="45.68935" lon="3.29318">
        <ele>510.4</ele>
        <time>2024-04-28T08:34:37Z</time>
      </trkpt>
      <trkpt lat="45.68933" lon="3.29314">
        <ele>510.6</ele>
        <time>2024-04-28T08:34:38Z</time>
      </trkpt>
      <trkpt lat="45.68932" lon="3.29311">
        <ele>510.8</ele>
        <time>2024-04-28T08:34:39Z</time>
      </trkpt>
      <trkpt lat="45.6893" lon="3.29308">
        <ele>511</ele>
        <time>2024-04-28T08:34:40Z</time>
      </trkpt>
      <trkpt lat="45.68928" lon="3.29304">
        <ele>511.2</ele>
        <time>2024-04-28T08:34:41Z</time>
      </trkpt>
      <trkpt lat="45.68926" lon="3.29301">
        <ele>511.4</ele>
        <time>2024-04-28T08:34:42Z</time>
      </trkpt>
      <trkpt lat="45.68924" lon="3.29298">
        <ele>511.6</ele>
        <time>2024-04-28T08:34:43Z</time>
      </trkpt>
      <trkpt lat="45.68922" lon="3.29295">
        <ele>511.8</ele>
        <time>2024-04-28T08:34:44Z</time>
      </trkpt>
      <trkpt lat="45.6892" lon="3.29292">
        <ele>512</ele>
        <time>2024-04-28T08:34:45Z</time>
      </trkpt>
      <trkpt lat="45.68919" lon="3.29289">
        <ele>512.2</ele>
        <time>2024-04-28T08:34:46Z</time>
      </trkpt>
      <trkpt lat="45.68917" lon="3.29286">
        <ele>512.4</ele>
        <time>2024-04-28T08:34:47Z</time>
      </trkpt>
      <trkpt lat="45.68915" lon="3.29282">
        <ele>512.6</ele>
        <time>2024-04-28T08:34:48Z</time>
      </trkpt>
      <trkpt lat="45.68913" lon="3.29279">
        <ele>512.8</ele>
        <time>2024-04-28T08:34:49Z</time>
      </trkpt>
      <trkpt lat="45.6891" lon="3.29274">
        <ele>513.2</ele>
        <time>2024-04-28T08:34:50Z</time>
      </trkpt>
      <trkpt lat="45.68909" lon="3.2927">
        <ele>513.4</ele>
        <time>2024-04-28T08:34:51Z</time>
      </trkpt>
      <trkpt lat="45.68907" lon="3.29266">
        <ele>513.6</ele>
        <time>2024-04-28T08:34:52Z</time>
      </trkpt>
      <trkpt lat="45.68906" lon="3.29262">
        <ele>513.8</ele>
        <time>2024-04-28T08:34:53Z</time>
      </trkpt>
      <trkpt lat="45.68904" lon="3.29258">
        <ele>514</ele>
        <time>2024-04-28T08:34:54Z</time>
      </trkpt>
      <trkpt lat="45.68902" lon="3.29254">
        <ele>514.2</ele>
        <time>2024-04-28T08:34:55Z</time>
      </trkpt>
      <trkpt lat="45.68901" lon="3.2925">
        <ele>514.4</ele>
        <time>2024-04-28T08:34:56Z</time>
      </trkpt>
      <trkpt lat="45.68899" lon="3.29245">
        <ele>514.6</ele>
        <time>2024-04-28T08:34:57Z</time>
      </trkpt>
      <trkpt lat="45.68897" lon="3.29241">
        <ele>514.8</ele>
        <time>2024-04-28T08:34:58Z</time>
      </trkpt>
      <trkpt lat="45.68896" lon="3.29237">
        <ele>515</ele>
        <time>2024-04-28T08:34:59Z</time>
      </trkpt>
      <trkpt lat="45.68894" lon="3.29233">
        <ele>515.2</ele>
        <time>2024-04-28T08:35:00Z</time>
      </trkpt>
      <trkpt lat="45.68892" lon="3.29229">
        <ele>515.6</ele>
        <time>2024-04-28T08:35:01Z</time>
      </trkpt>
      <trkpt lat="45.68891" lon="3.29224">
        <ele>515.8</ele>
        <time>2024-04-28T08:35:02Z</time>
      </trkpt>
      <trkpt lat="45.68889" lon="3.2922">
        <ele>516</ele>
        <time>2024-04-28T08:35:03Z</time>
      </trkpt>
      <trkpt lat="45.68887" lon="3.29215">
        <ele>516.2</ele>
        <time>2024-04-28T08:35:04Z</time>
      </trkpt>
      <trkpt lat="45.68885" lon="3.29211">
        <ele>516.4</ele>
        <time>2024-04-28T08:35:05Z</time>
      </trkpt>
      <trkpt lat="45.68884" lon="3.29207">
        <ele>516.6</ele>
        <time>2024-04-28T08:35:06Z</time>
      </trkpt>
      <trkpt lat="45.68882" lon="3.29202">
        <ele>516.8</ele>
        <time>2024-04-28T08:35:07Z</time>
      </trkpt>
      <trkpt lat="45.6888" lon="3.29198">
        <ele>517</ele>
        <time>2024-04-28T08:35:08Z</time>
      </trkpt>
      <trkpt lat="45.68879" lon="3.29194">
        <ele>517.2</ele>
        <time>2024-04-28T08:35:09Z</time>
      </trkpt>
      <trkpt lat="45.68878" lon="3.29189">
        <ele>517.4</ele>
        <time>2024-04-28T08:35:10Z</time>
      </trkpt>
      <trkpt lat="45.68877" lon="3.29185">
        <ele>517.6</ele>
        <time>2024-04-28T08:35:11Z</time>
      </trkpt>
      <trkpt lat="45.68875" lon="3.2918">
        <ele>517.8</ele>
        <time>2024-04-28T08:35:12Z</time>
      </trkpt>
      <trkpt lat="45.68874" lon="3.29176">
        <ele>518</ele>
        <time>2024-04-28T08:35:13Z</time>
      </trkpt>
      <trkpt lat="45.68873" lon="3.29172">
        <ele>518.2</ele>
        <time>2024-04-28T08:35:14Z</time>
      </trkpt>
      <trkpt lat="45.68872" lon="3.29168">
        <ele>518.4</ele>
        <time>2024-04-28T08:35:15Z</time>
      </trkpt>
      <trkpt lat="45.68871" lon="3.29163">
        <ele>518.6</ele>
        <time>2024-04-28T08:35:16Z</time>
      </trkpt>
      <trkpt lat="45.6887" lon="3.29159">
        <ele>518.8</ele>
        <time>2024-04-28T08:35:17Z</time>
      </trkpt>
      <trkpt lat="45.68869" lon="3.29154">
        <ele>519.2</ele>
        <time>2024-04-28T08:35:18Z</time>
      </trkpt>
      <trkpt lat="45.68867" lon="3.2915">
        <ele>519.2</ele>
        <time>2024-04-28T08:35:19Z</time>
      </trkpt>
      <trkpt lat="45.68866" lon="3.29145">
        <ele>519.4</ele>
        <time>2024-04-28T08:35:20Z</time>
      </trkpt>
      <trkpt lat="45.68865" lon="3.29141">
        <ele>519.6</ele>
        <time>2024-04-28T08:35:21Z</time>
      </trkpt>
      <trkpt lat="45.68864" lon="3.29137">
        <ele>519.8</ele>
        <time>2024-04-28T08:35:22Z</time>
      </trkpt>
      <trkpt lat="45.68863" lon="3.29132">
        <ele>520</ele>
        <time>2024-04-28T08:35:23Z</time>
      </trkpt>
      <trkpt lat="45.68862" lon="3.29128">
        <ele>520.2</ele>
        <time>2024-04-28T08:35:24Z</time>
      </trkpt>
      <trkpt lat="45.68861" lon="3.29124">
        <ele>520.4</ele>
        <time>2024-04-28T08:35:25Z</time>
      </trkpt>
      <trkpt lat="45.6886" lon="3.2912">
        <ele>520.6</ele>
        <time>2024-04-28T08:35:26Z</time>
      </trkpt>
      <trkpt lat="45.68858" lon="3.29115">
        <ele>520.8</ele>
        <time>2024-04-28T08:35:27Z</time>
      </trkpt>
      <trkpt lat="45.68857" lon="3.29111">
        <ele>521</ele>
        <time>2024-04-28T08:35:28Z</time>
      </trkpt>
      <trkpt lat="45.68856" lon="3.29106">
        <ele>521.2</ele>
        <time>2024-04-28T08:35:29Z</time>
      </trkpt>
      <trkpt lat="45.68855" lon="3.29102">
        <ele>521.2</ele>
        <time>2024-04-28T08:35:30Z</time>
      </trkpt>
      <trkpt lat="45.68854" lon="3.29097">
        <ele>521.6</ele>
        <time>2024-04-28T08:35:31Z</time>
      </trkpt>
      <trkpt lat="45.68853" lon="3.29093">
        <ele>521.6</ele>
        <time>2024-04-28T08:35:32Z</time>
      </trkpt>
      <trkpt lat="45.68852" lon="3.29088">
        <ele>521.8</ele>
        <time>2024-04-28T08:35:33Z</time>
      </trkpt>
      <trkpt lat="45.6885" lon="3.29084">
        <ele>522</ele>
        <time>2024-04-28T08:35:34Z</time>
      </trkpt>
      <trkpt lat="45.68849" lon="3.29079">
        <ele>522.2</ele>
        <time>2024-04-28T08:35:35Z</time>
      </trkpt>
      <trkpt lat="45.68848" lon="3.29075">
        <ele>522.4</ele>
        <time>2024-04-28T08:35:36Z</time>
      </trkpt>
      <trkpt lat="45.68847" lon="3.29071">
        <ele>522.6</ele>
        <time>2024-04-28T08:35:37Z</time>
      </trkpt>
      <trkpt lat="45.68846" lon="3.29067">
        <ele>522.8</ele>
        <time>2024-04-28T08:35:38Z</time>
      </trkpt>
      <trkpt lat="45.68845" lon="3.29062">
        <ele>522.8</ele>
        <time>2024-04-28T08:35:39Z</time>
      </trkpt>
      <trkpt lat="45.68844" lon="3.29058">
        <ele>523</ele>
        <time>2024-04-28T08:35:40Z</time>
      </trkpt>
      <trkpt lat="45.68841" lon="3.29049">
        <ele>523.2</ele>
        <time>2024-04-28T08:35:41Z</time>
      </trkpt>
      <trkpt lat="45.68841" lon="3.29049">
        <ele>523.4</ele>
        <time>2024-04-28T08:35:42Z</time>
      </trkpt>
      <trkpt lat="45.6884" lon="3.29045">
        <ele>523.6</ele>
        <time>2024-04-28T08:35:43Z</time>
      </trkpt>
      <trkpt lat="45.68839" lon="3.2904">
        <ele>523.6</ele>
        <time>2024-04-28T08:35:44Z</time>
      </trkpt>
      <trkpt lat="45.68838" lon="3.29036">
        <ele>523.8</ele>
        <time>2024-04-28T08:35:45Z</time>
      </trkpt>
      <trkpt lat="45.68836" lon="3.29031">
        <ele>524</ele>
        <time>2024-04-28T08:35:46Z</time>
      </trkpt>
      <trkpt lat="45.68835" lon="3.29027">
        <ele>524.2</ele>
        <time>2024-04-28T08:35:47Z</time>
      </trkpt>
      <trkpt lat="45.68834" lon="3.29022">
        <ele>524.4</ele>
        <time>2024-04-28T08:35:48Z</time>
      </trkpt>
      <trkpt lat="45.68833" lon="3.29018">
        <ele>524.6</ele>
        <time>2024-04-28T08:35:49Z</time>
      </trkpt>
      <trkpt lat="45.68831" lon="3.29013">
        <ele>524.8</ele>
        <time>2024-04-28T08:35:50Z</time>
      </trkpt>
      <trkpt lat="45.6883" lon="3.29009">
        <ele>525</ele>
        <time>2024-04-28T08:35:51Z</time>
      </trkpt>
      <trkpt lat="45.68829" lon="3.29004">
        <ele>525.2</ele>
        <time>2024-04-28T08:35:52Z</time>
      </trkpt>
      <trkpt lat="45.68828" lon="3.29">
        <ele>525.2</ele>
        <time>2024-04-28T08:35:53Z</time>
      </trkpt>
      <trkpt lat="45.68827" lon="3.28995">
        <ele>525.4</ele>
        <time>2024-04-28T08:35:54Z</time>
      </trkpt>
      <trkpt lat="45.68825" lon="3.28991">
        <ele>525.6</ele>
        <time>2024-04-28T08:35:55Z</time>
      </trkpt>
      <trkpt lat="45.68824" lon="3.28986">
        <ele>525.8</ele>
        <time>2024-04-28T08:35:56Z</time>
      </trkpt>
      <trkpt lat="45.68823" lon="3.28982">
        <ele>526</ele>
        <time>2024-04-28T08:35:57Z</time>
      </trkpt>
      <trkpt lat="45.68822" lon="3.28977">
        <ele>526.2</ele>
        <time>2024-04-28T08:35:58Z</time>
      </trkpt>
      <trkpt lat="45.68821" lon="3.28973">
        <ele>526.2</ele>
        <time>2024-04-28T08:35:59Z</time>
      </trkpt>
      <trkpt lat="45.68819" lon="3.28968">
        <ele>526.4</ele>
        <time>2024-04-28T08:36:00Z</time>
      </trkpt>
      <trkpt lat="45.68818" lon="3.28963">
        <ele>526.6</ele>
        <time>2024-04-28T08:36:01Z</time>
      </trkpt>
      <trkpt lat="45.68817" lon="3.28959">
        <ele>526.8</ele>
        <time>2024-04-28T08:36:02Z</time>
      </trkpt>
      <trkpt lat="45.68816" lon="3.28955">
        <ele>526.8</ele>
        <time>2024-04-28T08:36:03Z</time>
      </trkpt>
      <trkpt lat="45.68815" lon="3.2895">
        <ele>527</ele>
        <time>2024-04-28T08:36:04Z</time>
      </trkpt>
      <trkpt lat="45.68813" lon="3.28946">
        <ele>527.2</ele>
        <time>2024-04-28T08:36:05Z</time>
      </trkpt>
      <trkpt lat="45.68812" lon="3.28942">
        <ele>527.4</ele>
        <time>2024-04-28T08:36:06Z</time>
      </trkpt>
      <trkpt lat="45.68811" lon="3.28938">
        <ele>527.6</ele>
        <time>2024-04-28T08:36:07Z</time>
      </trkpt>
      <trkpt lat="45.6881" lon="3.28934">
        <ele>527.6</ele>
        <time>2024-04-28T08:36:08Z</time>
      </trkpt>
      <trkpt lat="45.68809" lon="3.28929">
        <ele>527.8</ele>
        <time>2024-04-28T08:36:09Z</time>
      </trkpt>
      <trkpt lat="45.68808" lon="3.28925">
        <ele>527.8</ele>
        <time>2024-04-28T08:36:10Z</time>
      </trkpt>
      <trkpt lat="45.68806" lon="3.2892">
        <ele>528</ele>
        <time>2024-04-28T08:36:11Z</time>
      </trkpt>
      <trkpt lat="45.68805" lon="3.28916">
        <ele>528.2</ele>
        <time>2024-04-28T08:36:12Z</time>
      </trkpt>
      <trkpt lat="45.68804" lon="3.28911">
        <ele>528.2</ele>
        <time>2024-04-28T08:36:13Z</time>
      </trkpt>
      <trkpt lat="45.68803" lon="3.28907">
        <ele>528.4</ele>
        <time>2024-04-28T08:36:14Z</time>
      </trkpt>
      <trkpt lat="45.68802" lon="3.28902">
        <ele>528.6</ele>
        <time>2024-04-28T08:36:15Z</time>
      </trkpt>
      <trkpt lat="45.688" lon="3.28898">
        <ele>528.6</ele>
        <time>2024-04-28T08:36:16Z</time>
      </trkpt>
      <trkpt lat="45.68799" lon="3.28893">
        <ele>528.8</ele>
        <time>2024-04-28T08:36:17Z</time>
      </trkpt>
      <trkpt lat="45.68798" lon="3.28889">
        <ele>529</ele>
        <time>2024-04-28T08:36:18Z</time>
      </trkpt>
      <trkpt lat="45.68797" lon="3.28884">
        <ele>529.2</ele>
        <time>2024-04-28T08:36:19Z</time>
      </trkpt>
      <trkpt lat="45.68796" lon="3.2888">
        <ele>529.4</ele>
        <time>2024-04-28T08:36:20Z</time>
      </trkpt>
      <trkpt lat="45.68794" lon="3.28876">
        <ele>529.6</ele>
        <time>2024-04-28T08:36:21Z</time>
      </trkpt>
      <trkpt lat="45.68793" lon="3.28871">
        <ele>529.8</ele>
        <time>2024-04-28T08:36:22Z</time>
      </trkpt>
      <trkpt lat="45.68792" lon="3.28867">
        <ele>530</ele>
        <time>2024-04-28T08:36:23Z</time>
      </trkpt>
      <trkpt lat="45.68791" lon="3.28863">
        <ele>530.2</ele>
        <time>2024-04-28T08:36:24Z</time>
      </trkpt>
      <trkpt lat="45.6879" lon="3.28858">
        <ele>530.4</ele>
        <time>2024-04-28T08:36:25Z</time>
      </trkpt>
      <trkpt lat="45.68788" lon="3.28853">
        <ele>530.4</ele>
        <time>2024-04-28T08:36:26Z</time>
      </trkpt>
      <trkpt lat="45.68787" lon="3.28849">
        <ele>530.6</ele>
        <time>2024-04-28T08:36:27Z</time>
      </trkpt>
      <trkpt lat="45.68786" lon="3.28844">
        <ele>530.6</ele>
        <time>2024-04-28T08:36:28Z</time>
      </trkpt>
      <trkpt lat="45.68785" lon="3.2884">
        <ele>530.8</ele>
        <time>2024-04-28T08:36:29Z</time>
      </trkpt>
      <trkpt lat="45.68783" lon="3.28832">
        <ele>531</ele>
        <time>2024-04-28T08:36:30Z</time>
      </trkpt>
      <trkpt lat="45.68782" lon="3.28832">
        <ele>531</ele>
        <time>2024-04-28T08:36:31Z</time>
      </trkpt>
      <trkpt lat="45.68781" lon="3.28827">
        <ele>531.2</ele>
        <time>2024-04-28T08:36:32Z</time>
      </trkpt>
      <trkpt lat="45.6878" lon="3.28823">
        <ele>531.2</ele>
        <time>2024-04-28T08:36:33Z</time>
      </trkpt>
      <trkpt lat="45.68778" lon="3.28814">
        <ele>531.4</ele>
        <time>2024-04-28T08:36:34Z</time>
      </trkpt>
      <trkpt lat="45.68777" lon="3.2881">
        <ele>531.6</ele>
        <time>2024-04-28T08:36:35Z</time>
      </trkpt>
      <trkpt lat="45.68775" lon="3.28805">
        <ele>531.8</ele>
        <time>2024-04-28T08:36:36Z</time>
      </trkpt>
      <trkpt lat="45.68774" lon="3.28801">
        <ele>532</ele>
        <time>2024-04-28T08:36:37Z</time>
      </trkpt>
      <trkpt lat="45.68773" lon="3.28797">
        <ele>532</ele>
        <time>2024-04-28T08:36:38Z</time>
      </trkpt>
      <trkpt lat="45.68773" lon="3.28797">
        <ele>532.2</ele>
        <time>2024-04-28T08:36:39Z</time>
      </trkpt>
      <trkpt lat="45.68772" lon="3.28792">
        <ele>532.4</ele>
        <time>2024-04-28T08:36:40Z</time>
      </trkpt>
      <trkpt lat="45.68771" lon="3.28788">
        <ele>532.6</ele>
        <time>2024-04-28T08:36:41Z</time>
      </trkpt>
      <trkpt lat="45.68769" lon="3.28783">
        <ele>532.8</ele>
        <time>2024-04-28T08:36:42Z</time>
      </trkpt>
      <trkpt lat="45.68767" lon="3.28775">
        <ele>533</ele>
        <time>2024-04-28T08:36:43Z</time>
      </trkpt>
      <trkpt lat="45.68767" lon="3.28775">
        <ele>533.2</ele>
        <time>2024-04-28T08:36:44Z</time>
      </trkpt>
      <trkpt lat="45.68766" lon="3.2877">
        <ele>533.4</ele>
        <time>2024-04-28T08:36:45Z</time>
      </trkpt>
      <trkpt lat="45.68765" lon="3.28766">
        <ele>533.4</ele>
        <time>2024-04-28T08:36:46Z</time>
      </trkpt>
      <trkpt lat="45.68763" lon="3.28757">
        <ele>533.6</ele>
        <time>2024-04-28T08:36:47Z</time>
      </trkpt>
      <trkpt lat="45.68763" lon="3.28757">
        <ele>533.8</ele>
        <time>2024-04-28T08:36:48Z</time>
      </trkpt>
      <trkpt lat="45.6876" lon="3.28749">
        <ele>534</ele>
        <time>2024-04-28T08:36:49Z</time>
      </trkpt>
      <trkpt lat="45.6876" lon="3.28749">
        <ele>534.2</ele>
        <time>2024-04-28T08:36:50Z</time>
      </trkpt>
      <trkpt lat="45.68758" lon="3.28741">
        <ele>534.4</ele>
        <time>2024-04-28T08:36:51Z</time>
      </trkpt>
      <trkpt lat="45.68758" lon="3.28741">
        <ele>534.6</ele>
        <time>2024-04-28T08:36:52Z</time>
      </trkpt>
      <trkpt lat="45.68757" lon="3.28737">
        <ele>534.8</ele>
        <time>2024-04-28T08:36:53Z</time>
      </trkpt>
      <trkpt lat="45.68756" lon="3.28732">
        <ele>535.2</ele>
        <time>2024-04-28T08:36:54Z</time>
      </trkpt>
      <trkpt lat="45.68755" lon="3.28728">
        <ele>535.2</ele>
        <time>2024-04-28T08:36:55Z</time>
      </trkpt>
      <trkpt lat="45.68754" lon="3.28725">
        <ele>535.6</ele>
        <time>2024-04-28T08:36:56Z</time>
      </trkpt>
      <trkpt lat="45.68753" lon="3.28721">
        <ele>535.8</ele>
        <time>2024-04-28T08:36:57Z</time>
      </trkpt>
      <trkpt lat="45.68752" lon="3.28717">
        <ele>536</ele>
        <time>2024-04-28T08:36:58Z</time>
      </trkpt>
      <trkpt lat="45.68749" lon="3.28709">
        <ele>536.2</ele>
        <time>2024-04-28T08:36:59Z</time>
      </trkpt>
      <trkpt lat="45.68749" lon="3.28705">
        <ele>536.4</ele>
        <time>2024-04-28T08:37:00Z</time>
      </trkpt>
      <trkpt lat="45.68747" lon="3.28702">
        <ele>536.6</ele>
        <time>2024-04-28T08:37:01Z</time>
      </trkpt>
      <trkpt lat="45.68746" lon="3.28697">
        <ele>536.8</ele>
        <time>2024-04-28T08:37:02Z</time>
      </trkpt>
      <trkpt lat="45.68745" lon="3.28693">
        <ele>537</ele>
        <time>2024-04-28T08:37:03Z</time>
      </trkpt>
      <trkpt lat="45.68744" lon="3.28689">
        <ele>537.2</ele>
        <time>2024-04-28T08:37:04Z</time>
      </trkpt>
      <trkpt lat="45.68743" lon="3.28684">
        <ele>537.4</ele>
        <time>2024-04-28T08:37:05Z</time>
      </trkpt>
      <trkpt lat="45.68742" lon="3.2868">
        <ele>537.6</ele>
        <time>2024-04-28T08:37:06Z</time>
      </trkpt>
      <trkpt lat="45.6874" lon="3.28675">
        <ele>537.8</ele>
        <time>2024-04-28T08:37:07Z</time>
      </trkpt>
      <trkpt lat="45.68739" lon="3.28671">
        <ele>538</ele>
        <time>2024-04-28T08:37:08Z</time>
      </trkpt>
      <trkpt lat="45.68738" lon="3.28666">
        <ele>538.2</ele>
        <time>2024-04-28T08:37:09Z</time>
      </trkpt>
      <trkpt lat="45.68737" lon="3.28662">
        <ele>538.4</ele>
        <time>2024-04-28T08:37:10Z</time>
      </trkpt>
      <trkpt lat="45.68736" lon="3.28658">
        <ele>538.6</ele>
        <time>2024-04-28T08:37:11Z</time>
      </trkpt>
      <trkpt lat="45.68734" lon="3.28654">
        <ele>538.8</ele>
        <time>2024-04-28T08:37:12Z</time>
      </trkpt>
      <trkpt lat="45.68733" lon="3.28649">
        <ele>539</ele>
        <time>2024-04-28T08:37:13Z</time>
      </trkpt>
      <trkpt lat="45.68732" lon="3.28645">
        <ele>539.2</ele>
        <time>2024-04-28T08:37:14Z</time>
      </trkpt>
      <trkpt lat="45.68731" lon="3.28641">
        <ele>539.4</ele>
        <time>2024-04-28T08:37:15Z</time>
      </trkpt>
      <trkpt lat="45.6873" lon="3.28636">
        <ele>539.6</ele>
        <time>2024-04-28T08:37:16Z</time>
      </trkpt>
      <trkpt lat="45.68728" lon="3.28632">
        <ele>539.6</ele>
        <time>2024-04-28T08:37:17Z</time>
      </trkpt>
      <trkpt lat="45.68727" lon="3.28628">
        <ele>539.8</ele>
        <time>2024-04-28T08:37:18Z</time>
      </trkpt>
      <trkpt lat="45.68725" lon="3.28624">
        <ele>540</ele>
        <time>2024-04-28T08:37:19Z</time>
      </trkpt>
      <trkpt lat="45.68723" lon="3.28621">
        <ele>540.2</ele>
        <time>2024-04-28T08:37:20Z</time>
      </trkpt>
      <trkpt lat="45.68721" lon="3.28617">
        <ele>540.4</ele>
        <time>2024-04-28T08:37:21Z</time>
      </trkpt>
      <trkpt lat="45.68719" lon="3.28613">
        <ele>540.6</ele>
        <time>2024-04-28T08:37:22Z</time>
      </trkpt>
      <trkpt lat="45.68717" lon="3.28609">
        <ele>540.8</ele>
        <time>2024-04-28T08:37:23Z</time>
      </trkpt>
      <trkpt lat="45.68715" lon="3.28606">
        <ele>541</ele>
        <time>2024-04-28T08:37:24Z</time>
      </trkpt>
      <trkpt lat="45.68713" lon="3.28602">
        <ele>541</ele>
        <time>2024-04-28T08:37:25Z</time>
      </trkpt>
      <trkpt lat="45.68712" lon="3.28598">
        <ele>541.2</ele>
        <time>2024-04-28T08:37:26Z</time>
      </trkpt>
      <trkpt lat="45.6871" lon="3.28594">
        <ele>541.4</ele>
        <time>2024-04-28T08:37:27Z</time>
      </trkpt>
      <trkpt lat="45.68708" lon="3.2859">
        <ele>541.6</ele>
        <time>2024-04-28T08:37:28Z</time>
      </trkpt>
      <trkpt lat="45.68706" lon="3.28587">
        <ele>541.8</ele>
        <time>2024-04-28T08:37:29Z</time>
      </trkpt>
      <trkpt lat="45.68704" lon="3.28583">
        <ele>542</ele>
        <time>2024-04-28T08:37:30Z</time>
      </trkpt>
      <trkpt lat="45.68702" lon="3.2858">
        <ele>542</ele>
        <time>2024-04-28T08:37:31Z</time>
      </trkpt>
      <trkpt lat="45.687" lon="3.28576">
        <ele>542.2</ele>
        <time>2024-04-28T08:37:32Z</time>
      </trkpt>
      <trkpt lat="45.68698" lon="3.28572">
        <ele>542.4</ele>
        <time>2024-04-28T08:37:33Z</time>
      </trkpt>
      <trkpt lat="45.68697" lon="3.28568">
        <ele>542.6</ele>
        <time>2024-04-28T08:37:34Z</time>
      </trkpt>
      <trkpt lat="45.68694" lon="3.28565">
        <ele>542.8</ele>
        <time>2024-04-28T08:37:35Z</time>
      </trkpt>
      <trkpt lat="45.68692" lon="3.28562">
        <ele>543</ele>
        <time>2024-04-28T08:37:36Z</time>
      </trkpt>
      <trkpt lat="45.6869" lon="3.28559">
        <ele>543.2</ele>
        <time>2024-04-28T08:37:37Z</time>
      </trkpt>
      <trkpt lat="45.68687" lon="3.28555">
        <ele>543.4</ele>
        <time>2024-04-28T08:37:38Z</time>
      </trkpt>
      <trkpt lat="45.68685" lon="3.28552">
        <ele>543.4</ele>
        <time>2024-04-28T08:37:39Z</time>
      </trkpt>
      <trkpt lat="45.68683" lon="3.28549">
        <ele>543.6</ele>
        <time>2024-04-28T08:37:40Z</time>
      </trkpt>
      <trkpt lat="45.6868" lon="3.28545">
        <ele>544</ele>
        <time>2024-04-28T08:37:41Z</time>
      </trkpt>
      <trkpt lat="45.68678" lon="3.28542">
        <ele>544</ele>
        <time>2024-04-28T08:37:42Z</time>
      </trkpt>
      <trkpt lat="45.68676" lon="3.28539">
        <ele>544.2</ele>
        <time>2024-04-28T08:37:43Z</time>
      </trkpt>
      <trkpt lat="45.68673" lon="3.28536">
        <ele>544.4</ele>
        <time>2024-04-28T08:37:44Z</time>
      </trkpt>
      <trkpt lat="45.6867" lon="3.28534">
        <ele>544.6</ele>
        <time>2024-04-28T08:37:45Z</time>
      </trkpt>
      <trkpt lat="45.68667" lon="3.28531">
        <ele>544.8</ele>
        <time>2024-04-28T08:37:46Z</time>
      </trkpt>
      <trkpt lat="45.68664" lon="3.28529">
        <ele>545</ele>
        <time>2024-04-28T08:37:47Z</time>
      </trkpt>
      <trkpt lat="45.68662" lon="3.28526">
        <ele>545.4</ele>
        <time>2024-04-28T08:37:48Z</time>
      </trkpt>
      <trkpt lat="45.68659" lon="3.28524">
        <ele>545.4</ele>
        <time>2024-04-28T08:37:49Z</time>
      </trkpt>
      <trkpt lat="45.68657" lon="3.28522">
        <ele>545.6</ele>
        <time>2024-04-28T08:37:50Z</time>
      </trkpt>
      <trkpt lat="45.68654" lon="3.28519">
        <ele>545.8</ele>
        <time>2024-04-28T08:37:51Z</time>
      </trkpt>
      <trkpt lat="45.68652" lon="3.28517">
        <ele>546</ele>
        <time>2024-04-28T08:37:52Z</time>
      </trkpt>
      <trkpt lat="45.6865" lon="3.28516">
        <ele>546.2</ele>
        <time>2024-04-28T08:37:53Z</time>
      </trkpt>
      <trkpt lat="45.68648" lon="3.28514">
        <ele>546.2</ele>
        <time>2024-04-28T08:37:54Z</time>
      </trkpt>
      <trkpt lat="45.68645" lon="3.28511">
        <ele>546.4</ele>
        <time>2024-04-28T08:37:55Z</time>
      </trkpt>
      <trkpt lat="45.68642" lon="3.28509">
        <ele>546.6</ele>
        <time>2024-04-28T08:37:56Z</time>
      </trkpt>
      <trkpt lat="45.6864" lon="3.28507">
        <ele>546.6</ele>
        <time>2024-04-28T08:37:57Z</time>
      </trkpt>
      <trkpt lat="45.68637" lon="3.28504">
        <ele>546.8</ele>
        <time>2024-04-28T08:37:58Z</time>
      </trkpt>
      <trkpt lat="45.68634" lon="3.28502">
        <ele>547</ele>
        <time>2024-04-28T08:37:59Z</time>
      </trkpt>
      <trkpt lat="45.68632" lon="3.285">
        <ele>547.2</ele>
        <time>2024-04-28T08:38:00Z</time>
      </trkpt>
      <trkpt lat="45.68629" lon="3.28497">
        <ele>547.2</ele>
        <time>2024-04-28T08:38:01Z</time>
      </trkpt>
      <trkpt lat="45.68626" lon="3.28494">
        <ele>547.4</ele>
        <time>2024-04-28T08:38:02Z</time>
      </trkpt>
      <trkpt lat="45.68623" lon="3.28492">
        <ele>547.6</ele>
        <time>2024-04-28T08:38:03Z</time>
      </trkpt>
      <trkpt lat="45.6862" lon="3.28489">
        <ele>547.6</ele>
        <time>2024-04-28T08:38:04Z</time>
      </trkpt>
      <trkpt lat="45.68617" lon="3.28486">
        <ele>547.8</ele>
        <time>2024-04-28T08:38:05Z</time>
      </trkpt>
      <trkpt lat="45.68614" lon="3.28484">
        <ele>548</ele>
        <time>2024-04-28T08:38:06Z</time>
      </trkpt>
      <trkpt lat="45.68612" lon="3.28482">
        <ele>548.2</ele>
        <time>2024-04-28T08:38:07Z</time>
      </trkpt>
      <trkpt lat="45.68609" lon="3.28479">
        <ele>548.2</ele>
        <time>2024-04-28T08:38:08Z</time>
      </trkpt>
      <trkpt lat="45.68606" lon="3.28476">
        <ele>548.4</ele>
        <time>2024-04-28T08:38:09Z</time>
      </trkpt>
      <trkpt lat="45.68603" lon="3.28474">
        <ele>548.6</ele>
        <time>2024-04-28T08:38:10Z</time>
      </trkpt>
      <trkpt lat="45.686" lon="3.28471">
        <ele>548.8</ele>
        <time>2024-04-28T08:38:11Z</time>
      </trkpt>
      <trkpt lat="45.68597" lon="3.28469">
        <ele>548.8</ele>
        <time>2024-04-28T08:38:12Z</time>
      </trkpt>
      <trkpt lat="45.68594" lon="3.28466">
        <ele>549.2</ele>
        <time>2024-04-28T08:38:13Z</time>
      </trkpt>
      <trkpt lat="45.68592" lon="3.28464">
        <ele>549.2</ele>
        <time>2024-04-28T08:38:14Z</time>
      </trkpt>
      <trkpt lat="45.68589" lon="3.28463">
        <ele>549.6</ele>
        <time>2024-04-28T08:38:15Z</time>
      </trkpt>
      <trkpt lat="45.68587" lon="3.28461">
        <ele>549.8</ele>
        <time>2024-04-28T08:38:16Z</time>
      </trkpt>
      <trkpt lat="45.68584" lon="3.28459">
        <ele>549.8</ele>
        <time>2024-04-28T08:38:17Z</time>
      </trkpt>
      <trkpt lat="45.68581" lon="3.28457">
        <ele>550</ele>
        <time>2024-04-28T08:38:18Z</time>
      </trkpt>
      <trkpt lat="45.68578" lon="3.28454">
        <ele>550.2</ele>
        <time>2024-04-28T08:38:19Z</time>
      </trkpt>
      <trkpt lat="45.68575" lon="3.28452">
        <ele>550.4</ele>
        <time>2024-04-28T08:38:20Z</time>
      </trkpt>
      <trkpt lat="45.68572" lon="3.2845">
        <ele>550.6</ele>
        <time>2024-04-28T08:38:21Z</time>
      </trkpt>
      <trkpt lat="45.68569" lon="3.28447">
        <ele>550.8</ele>
        <time>2024-04-28T08:38:22Z</time>
      </trkpt>
      <trkpt lat="45.68566" lon="3.28445">
        <ele>551</ele>
        <time>2024-04-28T08:38:23Z</time>
      </trkpt>
      <trkpt lat="45.68562" lon="3.28442">
        <ele>551.2</ele>
        <time>2024-04-28T08:38:24Z</time>
      </trkpt>
      <trkpt lat="45.68559" lon="3.2844">
        <ele>551.4</ele>
        <time>2024-04-28T08:38:25Z</time>
      </trkpt>
      <trkpt lat="45.68556" lon="3.28438">
        <ele>551.6</ele>
        <time>2024-04-28T08:38:26Z</time>
      </trkpt>
      <trkpt lat="45.68553" lon="3.28435">
        <ele>552</ele>
        <time>2024-04-28T08:38:27Z</time>
      </trkpt>
      <trkpt lat="45.6855" lon="3.28433">
        <ele>552</ele>
        <time>2024-04-28T08:38:28Z</time>
      </trkpt>
      <trkpt lat="45.68547" lon="3.28431">
        <ele>552.2</ele>
        <time>2024-04-28T08:38:29Z</time>
      </trkpt>
      <trkpt lat="45.68544" lon="3.28428">
        <ele>552.4</ele>
        <time>2024-04-28T08:38:30Z</time>
      </trkpt>
      <trkpt lat="45.68541" lon="3.28426">
        <ele>552.6</ele>
        <time>2024-04-28T08:38:31Z</time>
      </trkpt>
      <trkpt lat="45.68538" lon="3.28424">
        <ele>552.8</ele>
        <time>2024-04-28T08:38:32Z</time>
      </trkpt>
      <trkpt lat="45.68535" lon="3.28422">
        <ele>553</ele>
        <time>2024-04-28T08:38:33Z</time>
      </trkpt>
      <trkpt lat="45.68532" lon="3.28419">
        <ele>553.2</ele>
        <time>2024-04-28T08:38:34Z</time>
      </trkpt>
      <trkpt lat="45.68529" lon="3.28417">
        <ele>553.4</ele>
        <time>2024-04-28T08:38:35Z</time>
      </trkpt>
      <trkpt lat="45.68526" lon="3.28415">
        <ele>553.6</ele>
        <time>2024-04-28T08:38:36Z</time>
      </trkpt>
      <trkpt lat="45.68523" lon="3.28413">
        <ele>553.8</ele>
        <time>2024-04-28T08:38:37Z</time>
      </trkpt>
      <trkpt lat="45.6852" lon="3.28411">
        <ele>554</ele>
        <time>2024-04-28T08:38:38Z</time>
      </trkpt>
      <trkpt lat="45.68517" lon="3.28409">
        <ele>554.2</ele>
        <time>2024-04-28T08:38:39Z</time>
      </trkpt>
      <trkpt lat="45.68515" lon="3.28407">
        <ele>554.4</ele>
        <time>2024-04-28T08:38:40Z</time>
      </trkpt>
      <trkpt lat="45.68511" lon="3.28404">
        <ele>554.6</ele>
        <time>2024-04-28T08:38:41Z</time>
      </trkpt>
      <trkpt lat="45.68508" lon="3.28402">
        <ele>554.8</ele>
        <time>2024-04-28T08:38:42Z</time>
      </trkpt>
      <trkpt lat="45.68505" lon="3.284">
        <ele>555</ele>
        <time>2024-04-28T08:38:43Z</time>
      </trkpt>
      <trkpt lat="45.68502" lon="3.28397">
        <ele>555.2</ele>
        <time>2024-04-28T08:38:44Z</time>
      </trkpt>
      <trkpt lat="45.68499" lon="3.28395">
        <ele>555.4</ele>
        <time>2024-04-28T08:38:45Z</time>
      </trkpt>
      <trkpt lat="45.68496" lon="3.28393">
        <ele>555.4</ele>
        <time>2024-04-28T08:38:46Z</time>
      </trkpt>
      <trkpt lat="45.68493" lon="3.28391">
        <ele>555.6</ele>
        <time>2024-04-28T08:38:47Z</time>
      </trkpt>
      <trkpt lat="45.6849" lon="3.28388">
        <ele>555.8</ele>
        <time>2024-04-28T08:38:48Z</time>
      </trkpt>
      <trkpt lat="45.68487" lon="3.28386">
        <ele>556</ele>
        <time>2024-04-28T08:38:49Z</time>
      </trkpt>
      <trkpt lat="45.68484" lon="3.28384">
        <ele>556.2</ele>
        <time>2024-04-28T08:38:50Z</time>
      </trkpt>
      <trkpt lat="45.68481" lon="3.28382">
        <ele>556.4</ele>
        <time>2024-04-28T08:38:51Z</time>
      </trkpt>
      <trkpt lat="45.68479" lon="3.2838">
        <ele>556.4</ele>
        <time>2024-04-28T08:38:52Z</time>
      </trkpt>
      <trkpt lat="45.68476" lon="3.28377">
        <ele>556.6</ele>
        <time>2024-04-28T08:38:53Z</time>
      </trkpt>
      <trkpt lat="45.68473" lon="3.28376">
        <ele>556.8</ele>
        <time>2024-04-28T08:38:54Z</time>
      </trkpt>
      <trkpt lat="45.6847" lon="3.28374">
        <ele>557</ele>
        <time>2024-04-28T08:38:55Z</time>
      </trkpt>
      <trkpt lat="45.68467" lon="3.28373">
        <ele>557.2</ele>
        <time>2024-04-28T08:38:56Z</time>
      </trkpt>
      <trkpt lat="45.68464" lon="3.28371">
        <ele>557.4</ele>
        <time>2024-04-28T08:38:57Z</time>
      </trkpt>
      <trkpt lat="45.68461" lon="3.28369">
        <ele>557.6</ele>
        <time>2024-04-28T08:38:58Z</time>
      </trkpt>
      <trkpt lat="45.68458" lon="3.28368">
        <ele>557.8</ele>
        <time>2024-04-28T08:38:59Z</time>
      </trkpt>
      <trkpt lat="45.68455" lon="3.28366">
        <ele>558</ele>
        <time>2024-04-28T08:39:00Z</time>
      </trkpt>
      <trkpt lat="45.68452" lon="3.28364">
        <ele>558</ele>
        <time>2024-04-28T08:39:01Z</time>
      </trkpt>
      <trkpt lat="45.68449" lon="3.28363">
        <ele>558.2</ele>
        <time>2024-04-28T08:39:02Z</time>
      </trkpt>
      <trkpt lat="45.68446" lon="3.28361">
        <ele>558.4</ele>
        <time>2024-04-28T08:39:03Z</time>
      </trkpt>
      <trkpt lat="45.68443" lon="3.28359">
        <ele>558.6</ele>
        <time>2024-04-28T08:39:04Z</time>
      </trkpt>
      <trkpt lat="45.6844" lon="3.28358">
        <ele>558.6</ele>
        <time>2024-04-28T08:39:05Z</time>
      </trkpt>
      <trkpt lat="45.68437" lon="3.28357">
        <ele>558.8</ele>
        <time>2024-04-28T08:39:06Z</time>
      </trkpt>
      <trkpt lat="45.68435" lon="3.28356">
        <ele>559</ele>
        <time>2024-04-28T08:39:07Z</time>
      </trkpt>
      <trkpt lat="45.68432" lon="3.28356">
        <ele>559.2</ele>
        <time>2024-04-28T08:39:08Z</time>
      </trkpt>
      <trkpt lat="45.68428" lon="3.28355">
        <ele>559.4</ele>
        <time>2024-04-28T08:39:09Z</time>
      </trkpt>
      <trkpt lat="45.68425" lon="3.28354">
        <ele>559.6</ele>
        <time>2024-04-28T08:39:10Z</time>
      </trkpt>
      <trkpt lat="45.68422" lon="3.28353">
        <ele>559.8</ele>
        <time>2024-04-28T08:39:11Z</time>
      </trkpt>
      <trkpt lat="45.68419" lon="3.28352">
        <ele>560</ele>
        <time>2024-04-28T08:39:12Z</time>
      </trkpt>
      <trkpt lat="45.68415" lon="3.28351">
        <ele>560.2</ele>
        <time>2024-04-28T08:39:13Z</time>
      </trkpt>
      <trkpt lat="45.68411" lon="3.2835">
        <ele>560.2</ele>
        <time>2024-04-28T08:39:14Z</time>
      </trkpt>
      <trkpt lat="45.68407" lon="3.2835">
        <ele>560.4</ele>
        <time>2024-04-28T08:39:15Z</time>
      </trkpt>
      <trkpt lat="45.68404" lon="3.2835">
        <ele>560.6</ele>
        <time>2024-04-28T08:39:16Z</time>
      </trkpt>
      <trkpt lat="45.684" lon="3.28351">
        <ele>560.8</ele>
        <time>2024-04-28T08:39:17Z</time>
      </trkpt>
      <trkpt lat="45.68397" lon="3.28351">
        <ele>561</ele>
        <time>2024-04-28T08:39:18Z</time>
      </trkpt>
      <trkpt lat="45.68393" lon="3.28351">
        <ele>561.2</ele>
        <time>2024-04-28T08:39:19Z</time>
      </trkpt>
      <trkpt lat="45.6839" lon="3.28352">
        <ele>561.2</ele>
        <time>2024-04-28T08:39:20Z</time>
      </trkpt>
      <trkpt lat="45.68387" lon="3.28353">
        <ele>561.4</ele>
        <time>2024-04-28T08:39:21Z</time>
      </trkpt>
      <trkpt lat="45.68384" lon="3.28355">
        <ele>561.6</ele>
        <time>2024-04-28T08:39:22Z</time>
      </trkpt>
      <trkpt lat="45.68381" lon="3.28357">
        <ele>561.8</ele>
        <time>2024-04-28T08:39:23Z</time>
      </trkpt>
      <trkpt lat="45.68378" lon="3.28359">
        <ele>562</ele>
        <time>2024-04-28T08:39:24Z</time>
      </trkpt>
      <trkpt lat="45.68375" lon="3.2836">
        <ele>562.2</ele>
        <time>2024-04-28T08:39:25Z</time>
      </trkpt>
      <trkpt lat="45.68371" lon="3.28362">
        <ele>562.4</ele>
        <time>2024-04-28T08:39:26Z</time>
      </trkpt>
      <trkpt lat="45.68368" lon="3.28364">
        <ele>562.6</ele>
        <time>2024-04-28T08:39:27Z</time>
      </trkpt>
      <trkpt lat="45.68365" lon="3.28365">
        <ele>562.8</ele>
        <time>2024-04-28T08:39:28Z</time>
      </trkpt>
      <trkpt lat="45.68362" lon="3.28367">
        <ele>562.8</ele>
        <time>2024-04-28T08:39:29Z</time>
      </trkpt>
      <trkpt lat="45.68359" lon="3.28369">
        <ele>563</ele>
        <time>2024-04-28T08:39:30Z</time>
      </trkpt>
      <trkpt lat="45.68356" lon="3.28371">
        <ele>563.2</ele>
        <time>2024-04-28T08:39:31Z</time>
      </trkpt>
      <trkpt lat="45.68353" lon="3.28372">
        <ele>563.4</ele>
        <time>2024-04-28T08:39:32Z</time>
      </trkpt>
      <trkpt lat="45.6835" lon="3.28374">
        <ele>563.6</ele>
        <time>2024-04-28T08:39:33Z</time>
      </trkpt>
      <trkpt lat="45.68347" lon="3.28376">
        <ele>563.8</ele>
        <time>2024-04-28T08:39:34Z</time>
      </trkpt>
      <trkpt lat="45.68344" lon="3.28377">
        <ele>564</ele>
        <time>2024-04-28T08:39:35Z</time>
      </trkpt>
      <trkpt lat="45.68341" lon="3.28379">
        <ele>564</ele>
        <time>2024-04-28T08:39:36Z</time>
      </trkpt>
      <trkpt lat="45.68339" lon="3.2838">
        <ele>564.2</ele>
        <time>2024-04-28T08:39:37Z</time>
      </trkpt>
      <trkpt lat="45.68336" lon="3.28382">
        <ele>564.4</ele>
        <time>2024-04-28T08:39:38Z</time>
      </trkpt>
      <trkpt lat="45.68333" lon="3.28383">
        <ele>564.6</ele>
        <time>2024-04-28T08:39:39Z</time>
      </trkpt>
      <trkpt lat="45.6833" lon="3.28385">
        <ele>564.6</ele>
        <time>2024-04-28T08:39:40Z</time>
      </trkpt>
      <trkpt lat="45.68327" lon="3.28387">
        <ele>564.8</ele>
        <time>2024-04-28T08:39:41Z</time>
      </trkpt>
      <trkpt lat="45.68324" lon="3.28388">
        <ele>565</ele>
        <time>2024-04-28T08:39:42Z</time>
      </trkpt>
      <trkpt lat="45.68321" lon="3.2839">
        <ele>565.2</ele>
        <time>2024-04-28T08:39:43Z</time>
      </trkpt>
      <trkpt lat="45.68319" lon="3.28391">
        <ele>565.4</ele>
        <time>2024-04-28T08:39:44Z</time>
      </trkpt>
      <trkpt lat="45.68316" lon="3.28393">
        <ele>565.6</ele>
        <time>2024-04-28T08:39:45Z</time>
      </trkpt>
      <trkpt lat="45.68313" lon="3.28395">
        <ele>565.6</ele>
        <time>2024-04-28T08:39:46Z</time>
      </trkpt>
      <trkpt lat="45.6831" lon="3.28396">
        <ele>565.8</ele>
        <time>2024-04-28T08:39:47Z</time>
      </trkpt>
      <trkpt lat="45.68307" lon="3.28397">
        <ele>565.8</ele>
        <time>2024-04-28T08:39:48Z</time>
      </trkpt>
      <trkpt lat="45.68304" lon="3.28398">
        <ele>566</ele>
        <time>2024-04-28T08:39:49Z</time>
      </trkpt>
      <trkpt lat="45.68301" lon="3.28399">
        <ele>566.2</ele>
        <time>2024-04-28T08:39:50Z</time>
      </trkpt>
      <trkpt lat="45.68298" lon="3.284">
        <ele>566.4</ele>
        <time>2024-04-28T08:39:51Z</time>
      </trkpt>
      <trkpt lat="45.68294" lon="3.28402">
        <ele>566.4</ele>
        <time>2024-04-28T08:39:52Z</time>
      </trkpt>
      <trkpt lat="45.68291" lon="3.28403">
        <ele>566.6</ele>
        <time>2024-04-28T08:39:53Z</time>
      </trkpt>
      <trkpt lat="45.68288" lon="3.28404">
        <ele>566.8</ele>
        <time>2024-04-28T08:39:54Z</time>
      </trkpt>
      <trkpt lat="45.68285" lon="3.28405">
        <ele>567</ele>
        <time>2024-04-28T08:39:55Z</time>
      </trkpt>
      <trkpt lat="45.68282" lon="3.28406">
        <ele>567.2</ele>
        <time>2024-04-28T08:39:56Z</time>
      </trkpt>
      <trkpt lat="45.68279" lon="3.28406">
        <ele>567.4</ele>
        <time>2024-04-28T08:39:57Z</time>
      </trkpt>
      <trkpt lat="45.68276" lon="3.28406">
        <ele>567.6</ele>
        <time>2024-04-28T08:39:58Z</time>
      </trkpt>
      <trkpt lat="45.68273" lon="3.28406">
        <ele>567.8</ele>
        <time>2024-04-28T08:39:59Z</time>
      </trkpt>
      <trkpt lat="45.6827" lon="3.28407">
        <ele>568</ele>
        <time>2024-04-28T08:40:00Z</time>
      </trkpt>
      <trkpt lat="45.68267" lon="3.28407">
        <ele>568.2</ele>
        <time>2024-04-28T08:40:01Z</time>
      </trkpt>
      <trkpt lat="45.68263" lon="3.28407">
        <ele>568.2</ele>
        <time>2024-04-28T08:40:02Z</time>
      </trkpt>
      <trkpt lat="45.6826" lon="3.28407">
        <ele>568.4</ele>
        <time>2024-04-28T08:40:03Z</time>
      </trkpt>
      <trkpt lat="45.68257" lon="3.28406">
        <ele>568.6</ele>
        <time>2024-04-28T08:40:04Z</time>
      </trkpt>
      <trkpt lat="45.68254" lon="3.28406">
        <ele>568.8</ele>
        <time>2024-04-28T08:40:05Z</time>
      </trkpt>
      <trkpt lat="45.6825" lon="3.28405">
        <ele>569</ele>
        <time>2024-04-28T08:40:06Z</time>
      </trkpt>
      <trkpt lat="45.68247" lon="3.28404">
        <ele>569</ele>
        <time>2024-04-28T08:40:07Z</time>
      </trkpt>
      <trkpt lat="45.68244" lon="3.28403">
        <ele>569.2</ele>
        <time>2024-04-28T08:40:08Z</time>
      </trkpt>
      <trkpt lat="45.68241" lon="3.28402">
        <ele>569.4</ele>
        <time>2024-04-28T08:40:09Z</time>
      </trkpt>
      <trkpt lat="45.68238" lon="3.28402">
        <ele>569.6</ele>
        <time>2024-04-28T08:40:10Z</time>
      </trkpt>
      <trkpt lat="45.68234" lon="3.284">
        <ele>569.8</ele>
        <time>2024-04-28T08:40:11Z</time>
      </trkpt>
      <trkpt lat="45.68231" lon="3.28398">
        <ele>570</ele>
        <time>2024-04-28T08:40:12Z</time>
      </trkpt>
      <trkpt lat="45.68228" lon="3.28396">
        <ele>570.2</ele>
        <time>2024-04-28T08:40:13Z</time>
      </trkpt>
      <trkpt lat="45.68225" lon="3.28394">
        <ele>570.4</ele>
        <time>2024-04-28T08:40:14Z</time>
      </trkpt>
      <trkpt lat="45.68222" lon="3.28392">
        <ele>570.6</ele>
        <time>2024-04-28T08:40:15Z</time>
      </trkpt>
      <trkpt lat="45.68219" lon="3.2839">
        <ele>570.8</ele>
        <time>2024-04-28T08:40:16Z</time>
      </trkpt>
      <trkpt lat="45.68216" lon="3.28388">
        <ele>570.8</ele>
        <time>2024-04-28T08:40:17Z</time>
      </trkpt>
      <trkpt lat="45.68212" lon="3.28386">
        <ele>571</ele>
        <time>2024-04-28T08:40:18Z</time>
      </trkpt>
      <trkpt lat="45.68209" lon="3.28383">
        <ele>571.2</ele>
        <time>2024-04-28T08:40:19Z</time>
      </trkpt>
      <trkpt lat="45.68206" lon="3.2838">
        <ele>571.4</ele>
        <time>2024-04-28T08:40:20Z</time>
      </trkpt>
      <trkpt lat="45.68203" lon="3.28377">
        <ele>571.6</ele>
        <time>2024-04-28T08:40:21Z</time>
      </trkpt>
      <trkpt lat="45.68199" lon="3.28373">
        <ele>571.8</ele>
        <time>2024-04-28T08:40:22Z</time>
      </trkpt>
      <trkpt lat="45.68196" lon="3.2837">
        <ele>571.8</ele>
        <time>2024-04-28T08:40:23Z</time>
      </trkpt>
      <trkpt lat="45.68193" lon="3.28366">
        <ele>572</ele>
        <time>2024-04-28T08:40:24Z</time>
      </trkpt>
      <trkpt lat="45.6819" lon="3.28363">
        <ele>572.2</ele>
        <time>2024-04-28T08:40:25Z</time>
      </trkpt>
      <trkpt lat="45.68186" lon="3.28359">
        <ele>572.4</ele>
        <time>2024-04-28T08:40:26Z</time>
      </trkpt>
      <trkpt lat="45.68183" lon="3.28356">
        <ele>572.6</ele>
        <time>2024-04-28T08:40:27Z</time>
      </trkpt>
      <trkpt lat="45.6818" lon="3.28352">
        <ele>572.8</ele>
        <time>2024-04-28T08:40:28Z</time>
      </trkpt>
      <trkpt lat="45.68176" lon="3.28349">
        <ele>573</ele>
        <time>2024-04-28T08:40:29Z</time>
      </trkpt>
      <trkpt lat="45.68173" lon="3.28345">
        <ele>573</ele>
        <time>2024-04-28T08:40:30Z</time>
      </trkpt>
      <trkpt lat="45.6817" lon="3.28342">
        <ele>573.2</ele>
        <time>2024-04-28T08:40:31Z</time>
      </trkpt>
      <trkpt lat="45.68166" lon="3.28338">
        <ele>573.2</ele>
        <time>2024-04-28T08:40:32Z</time>
      </trkpt>
      <trkpt lat="45.68162" lon="3.28334">
        <ele>573.4</ele>
        <time>2024-04-28T08:40:33Z</time>
      </trkpt>
      <trkpt lat="45.68159" lon="3.2833">
        <ele>573.4</ele>
        <time>2024-04-28T08:40:34Z</time>
      </trkpt>
      <trkpt lat="45.68155" lon="3.28326">
        <ele>573.6</ele>
        <time>2024-04-28T08:40:35Z</time>
      </trkpt>
      <trkpt lat="45.68151" lon="3.28322">
        <ele>573.8</ele>
        <time>2024-04-28T08:40:36Z</time>
      </trkpt>
      <trkpt lat="45.68147" lon="3.28318">
        <ele>573.8</ele>
        <time>2024-04-28T08:40:37Z</time>
      </trkpt>
      <trkpt lat="45.68143" lon="3.28313">
        <ele>574</ele>
        <time>2024-04-28T08:40:38Z</time>
      </trkpt>
      <trkpt lat="45.68139" lon="3.28309">
        <ele>574</ele>
        <time>2024-04-28T08:40:39Z</time>
      </trkpt>
      <trkpt lat="45.68134" lon="3.28304">
        <ele>574.2</ele>
        <time>2024-04-28T08:40:40Z</time>
      </trkpt>
      <trkpt lat="45.68129" lon="3.28299">
        <ele>574.2</ele>
        <time>2024-04-28T08:40:41Z</time>
      </trkpt>
      <trkpt lat="45.68124" lon="3.28293">
        <ele>574.4</ele>
        <time>2024-04-28T08:40:42Z</time>
      </trkpt>
      <trkpt lat="45.68119" lon="3.28287">
        <ele>574.4</ele>
        <time>2024-04-28T08:40:43Z</time>
      </trkpt>
      <trkpt lat="45.68114" lon="3.28281">
        <ele>574.4</ele>
        <time>2024-04-28T08:40:44Z</time>
      </trkpt>
      <trkpt lat="45.68108" lon="3.28275">
        <ele>574.6</ele>
        <time>2024-04-28T08:40:45Z</time>
      </trkpt>
      <trkpt lat="45.68103" lon="3.28268">
        <ele>574.6</ele>
        <time>2024-04-28T08:40:46Z</time>
      </trkpt>
      <trkpt lat="45.68097" lon="3.28261">
        <ele>574.6</ele>
        <time>2024-04-28T08:40:47Z</time>
      </trkpt>
      <trkpt lat="45.6809" lon="3.28254">
        <ele>574.4</ele>
        <time>2024-04-28T08:40:48Z</time>
      </trkpt>
      <trkpt lat="45.68084" lon="3.28247">
        <ele>574.4</ele>
        <time>2024-04-28T08:40:49Z</time>
      </trkpt>
      <trkpt lat="45.68077" lon="3.28239">
        <ele>574.4</ele>
        <time>2024-04-28T08:40:50Z</time>
      </trkpt>
      <trkpt lat="45.68069" lon="3.2823">
        <ele>574.2</ele>
        <time>2024-04-28T08:40:51Z</time>
      </trkpt>
      <trkpt lat="45.68062" lon="3.28221">
        <ele>574.2</ele>
        <time>2024-04-28T08:40:52Z</time>
      </trkpt>
      <trkpt lat="45.68054" lon="3.28212">
        <ele>574.2</ele>
        <time>2024-04-28T08:40:53Z</time>
      </trkpt>
      <trkpt lat="45.68046" lon="3.28203">
        <ele>574</ele>
        <time>2024-04-28T08:40:54Z</time>
      </trkpt>
      <trkpt lat="45.68038" lon="3.28194">
        <ele>574</ele>
        <time>2024-04-28T08:40:55Z</time>
      </trkpt>
      <trkpt lat="45.6803" lon="3.28185">
        <ele>575</ele>
        <time>2024-04-28T08:40:56Z</time>
      </trkpt>
      <trkpt lat="45.68022" lon="3.28176">
        <ele>574.2</ele>
        <time>2024-04-28T08:40:57Z</time>
      </trkpt>
      <trkpt lat="45.68014" lon="3.28167">
        <ele>573.4</ele>
        <time>2024-04-28T08:40:58Z</time>
      </trkpt>
      <trkpt lat="45.68006" lon="3.28157">
        <ele>572.6</ele>
        <time>2024-04-28T08:40:59Z</time>
      </trkpt>
      <trkpt lat="45.67997" lon="3.28148">
        <ele>573.2</ele>
        <time>2024-04-28T08:41:00Z</time>
      </trkpt>
      <trkpt lat="45.67989" lon="3.28138">
        <ele>573</ele>
        <time>2024-04-28T08:41:01Z</time>
      </trkpt>
      <trkpt lat="45.6798" lon="3.28127">
        <ele>572.8</ele>
        <time>2024-04-28T08:41:02Z</time>
      </trkpt>
      <trkpt lat="45.67973" lon="3.28115">
        <ele>572.6</ele>
        <time>2024-04-28T08:41:03Z</time>
      </trkpt>
      <trkpt lat="45.67965" lon="3.28103">
        <ele>572.4</ele>
        <time>2024-04-28T08:41:04Z</time>
      </trkpt>
      <trkpt lat="45.67957" lon="3.28091">
        <ele>572.2</ele>
        <time>2024-04-28T08:41:05Z</time>
      </trkpt>
      <trkpt lat="45.6795" lon="3.28079">
        <ele>571.8</ele>
        <time>2024-04-28T08:41:06Z</time>
      </trkpt>
      <trkpt lat="45.67942" lon="3.28067">
        <ele>571.6</ele>
        <time>2024-04-28T08:41:07Z</time>
      </trkpt>
      <trkpt lat="45.67934" lon="3.28055">
        <ele>571.2</ele>
        <time>2024-04-28T08:41:08Z</time>
      </trkpt>
      <trkpt lat="45.67926" lon="3.28043">
        <ele>570.8</ele>
        <time>2024-04-28T08:41:09Z</time>
      </trkpt>
      <trkpt lat="45.67919" lon="3.28031">
        <ele>570.6</ele>
        <time>2024-04-28T08:41:10Z</time>
      </trkpt>
      <trkpt lat="45.67911" lon="3.28019">
        <ele>570.2</ele>
        <time>2024-04-28T08:41:11Z</time>
      </trkpt>
      <trkpt lat="45.67903" lon="3.28007">
        <ele>570</ele>
        <time>2024-04-28T08:41:12Z</time>
      </trkpt>
      <trkpt lat="45.67895" lon="3.27994">
        <ele>569.6</ele>
        <time>2024-04-28T08:41:13Z</time>
      </trkpt>
      <trkpt lat="45.67887" lon="3.27982">
        <ele>569.4</ele>
        <time>2024-04-28T08:41:14Z</time>
      </trkpt>
      <trkpt lat="45.6788" lon="3.2797">
        <ele>569</ele>
        <time>2024-04-28T08:41:15Z</time>
      </trkpt>
      <trkpt lat="45.67872" lon="3.27958">
        <ele>568.6</ele>
        <time>2024-04-28T08:41:16Z</time>
      </trkpt>
      <trkpt lat="45.67864" lon="3.27947">
        <ele>568.4</ele>
        <time>2024-04-28T08:41:17Z</time>
      </trkpt>
      <trkpt lat="45.67857" lon="3.27935">
        <ele>568</ele>
        <time>2024-04-28T08:41:18Z</time>
      </trkpt>
      <trkpt lat="45.67849" lon="3.27923">
        <ele>567.6</ele>
        <time>2024-04-28T08:41:19Z</time>
      </trkpt>
      <trkpt lat="45.67842" lon="3.27911">
        <ele>567.2</ele>
        <time>2024-04-28T08:41:20Z</time>
      </trkpt>
      <trkpt lat="45.67833" lon="3.279">
        <ele>566.8</ele>
        <time>2024-04-28T08:41:21Z</time>
      </trkpt>
      <trkpt lat="45.67824" lon="3.27889">
        <ele>566.4</ele>
        <time>2024-04-28T08:41:22Z</time>
      </trkpt>
      <trkpt lat="45.67814" lon="3.2788">
        <ele>566</ele>
        <time>2024-04-28T08:41:23Z</time>
      </trkpt>
      <trkpt lat="45.67803" lon="3.27871">
        <ele>565.6</ele>
        <time>2024-04-28T08:41:24Z</time>
      </trkpt>
      <trkpt lat="45.67793" lon="3.27862">
        <ele>565.2</ele>
        <time>2024-04-28T08:41:25Z</time>
      </trkpt>
      <trkpt lat="45.67782" lon="3.27852">
        <ele>564.8</ele>
        <time>2024-04-28T08:41:26Z</time>
      </trkpt>
      <trkpt lat="45.6777" lon="3.27844">
        <ele>564.4</ele>
        <time>2024-04-28T08:41:27Z</time>
      </trkpt>
      <trkpt lat="45.67758" lon="3.27839">
        <ele>564</ele>
        <time>2024-04-28T08:41:28Z</time>
      </trkpt>
      <trkpt lat="45.67746" lon="3.27833">
        <ele>563.4</ele>
        <time>2024-04-28T08:41:29Z</time>
      </trkpt>
      <trkpt lat="45.67734" lon="3.27826">
        <ele>563</ele>
        <time>2024-04-28T08:41:30Z</time>
      </trkpt>
      <trkpt lat="45.67722" lon="3.2782">
        <ele>562.4</ele>
        <time>2024-04-28T08:41:31Z</time>
      </trkpt>
      <trkpt lat="45.67709" lon="3.27814">
        <ele>562</ele>
        <time>2024-04-28T08:41:32Z</time>
      </trkpt>
      <trkpt lat="45.67696" lon="3.27807">
        <ele>561.4</ele>
        <time>2024-04-28T08:41:33Z</time>
      </trkpt>
      <trkpt lat="45.67684" lon="3.27799">
        <ele>561</ele>
        <time>2024-04-28T08:41:34Z</time>
      </trkpt>
      <trkpt lat="45.67671" lon="3.27791">
        <ele>560.4</ele>
        <time>2024-04-28T08:41:35Z</time>
      </trkpt>
      <trkpt lat="45.6766" lon="3.27781">
        <ele>559.8</ele>
        <time>2024-04-28T08:41:36Z</time>
      </trkpt>
      <trkpt lat="45.67649" lon="3.2777">
        <ele>559.4</ele>
        <time>2024-04-28T08:41:37Z</time>
      </trkpt>
      <trkpt lat="45.67638" lon="3.27759">
        <ele>559</ele>
        <time>2024-04-28T08:41:38Z</time>
      </trkpt>
      <trkpt lat="45.67629" lon="3.27747">
        <ele>558.6</ele>
        <time>2024-04-28T08:41:39Z</time>
      </trkpt>
      <trkpt lat="45.6762" lon="3.27734">
        <ele>558.2</ele>
        <time>2024-04-28T08:41:40Z</time>
      </trkpt>
      <trkpt lat="45.67611" lon="3.27722">
        <ele>558</ele>
        <time>2024-04-28T08:41:41Z</time>
      </trkpt>
      <trkpt lat="45.67603" lon="3.2771">
        <ele>557.6</ele>
        <time>2024-04-28T08:41:42Z</time>
      </trkpt>
      <trkpt lat="45.67595" lon="3.27699">
        <ele>557.4</ele>
        <time>2024-04-28T08:41:43Z</time>
      </trkpt>
      <trkpt lat="45.67587" lon="3.27688">
        <ele>557</ele>
        <time>2024-04-28T08:41:44Z</time>
      </trkpt>
      <trkpt lat="45.67579" lon="3.27677">
        <ele>556.6</ele>
        <time>2024-04-28T08:41:45Z</time>
      </trkpt>
      <trkpt lat="45.67571" lon="3.27666">
        <ele>556.4</ele>
        <time>2024-04-28T08:41:46Z</time>
      </trkpt>
      <trkpt lat="45.67563" lon="3.27655">
        <ele>556</ele>
        <time>2024-04-28T08:41:47Z</time>
      </trkpt>
      <trkpt lat="45.67556" lon="3.27645">
        <ele>555.8</ele>
        <time>2024-04-28T08:41:48Z</time>
      </trkpt>
      <trkpt lat="45.67548" lon="3.27635">
        <ele>555.4</ele>
        <time>2024-04-28T08:41:49Z</time>
      </trkpt>
      <trkpt lat="45.67541" lon="3.27625">
        <ele>555.2</ele>
        <time>2024-04-28T08:41:50Z</time>
      </trkpt>
      <trkpt lat="45.67534" lon="3.27615">
        <ele>554.8</ele>
        <time>2024-04-28T08:41:51Z</time>
      </trkpt>
      <trkpt lat="45.67527" lon="3.27605">
        <ele>554.6</ele>
        <time>2024-04-28T08:41:52Z</time>
      </trkpt>
      <trkpt lat="45.6752" lon="3.27595">
        <ele>554.4</ele>
        <time>2024-04-28T08:41:53Z</time>
      </trkpt>
      <trkpt lat="45.67513" lon="3.27585">
        <ele>554</ele>
        <time>2024-04-28T08:41:54Z</time>
      </trkpt>
      <trkpt lat="45.67506" lon="3.27575">
        <ele>553.8</ele>
        <time>2024-04-28T08:41:55Z</time>
      </trkpt>
      <trkpt lat="45.67499" lon="3.27565">
        <ele>553.6</ele>
        <time>2024-04-28T08:41:56Z</time>
      </trkpt>
      <trkpt lat="45.67491" lon="3.27556">
        <ele>553.4</ele>
        <time>2024-04-28T08:41:57Z</time>
      </trkpt>
      <trkpt lat="45.67484" lon="3.27546">
        <ele>553</ele>
        <time>2024-04-28T08:41:58Z</time>
      </trkpt>
      <trkpt lat="45.67478" lon="3.27536">
        <ele>552.8</ele>
        <time>2024-04-28T08:41:59Z</time>
      </trkpt>
      <trkpt lat="45.67471" lon="3.27526">
        <ele>552.4</ele>
        <time>2024-04-28T08:42:00Z</time>
      </trkpt>
      <trkpt lat="45.67464" lon="3.27516">
        <ele>552.2</ele>
        <time>2024-04-28T08:42:01Z</time>
      </trkpt>
      <trkpt lat="45.67457" lon="3.27507">
        <ele>551.8</ele>
        <time>2024-04-28T08:42:02Z</time>
      </trkpt>
      <trkpt lat="45.6745" lon="3.27497">
        <ele>551.4</ele>
        <time>2024-04-28T08:42:03Z</time>
      </trkpt>
      <trkpt lat="45.67443" lon="3.27487">
        <ele>551</ele>
        <time>2024-04-28T08:42:04Z</time>
      </trkpt>
      <trkpt lat="45.67437" lon="3.27478">
        <ele>550.8</ele>
        <time>2024-04-28T08:42:05Z</time>
      </trkpt>
      <trkpt lat="45.6743" lon="3.27468">
        <ele>550.4</ele>
        <time>2024-04-28T08:42:06Z</time>
      </trkpt>
      <trkpt lat="45.67423" lon="3.27458">
        <ele>550</ele>
        <time>2024-04-28T08:42:07Z</time>
      </trkpt>
      <trkpt lat="45.67416" lon="3.27448">
        <ele>549.6</ele>
        <time>2024-04-28T08:42:08Z</time>
      </trkpt>
      <trkpt lat="45.67409" lon="3.27438">
        <ele>549.4</ele>
        <time>2024-04-28T08:42:09Z</time>
      </trkpt>
      <trkpt lat="45.67401" lon="3.27427">
        <ele>549</ele>
        <time>2024-04-28T08:42:10Z</time>
      </trkpt>
      <trkpt lat="45.67394" lon="3.27417">
        <ele>548.6</ele>
        <time>2024-04-28T08:42:11Z</time>
      </trkpt>
      <trkpt lat="45.67386" lon="3.27406">
        <ele>548.2</ele>
        <time>2024-04-28T08:42:12Z</time>
      </trkpt>
      <trkpt lat="45.67379" lon="3.27395">
        <ele>547.8</ele>
        <time>2024-04-28T08:42:13Z</time>
      </trkpt>
      <trkpt lat="45.67371" lon="3.27385">
        <ele>547.4</ele>
        <time>2024-04-28T08:42:14Z</time>
      </trkpt>
      <trkpt lat="45.67364" lon="3.27373">
        <ele>547.2</ele>
        <time>2024-04-28T08:42:15Z</time>
      </trkpt>
      <trkpt lat="45.67357" lon="3.27361">
        <ele>546.6</ele>
        <time>2024-04-28T08:42:16Z</time>
      </trkpt>
      <trkpt lat="45.6735" lon="3.27349">
        <ele>546.2</ele>
        <time>2024-04-28T08:42:17Z</time>
      </trkpt>
      <trkpt lat="45.67344" lon="3.27337">
        <ele>545.8</ele>
        <time>2024-04-28T08:42:18Z</time>
      </trkpt>
      <trkpt lat="45.67337" lon="3.27324">
        <ele>545.4</ele>
        <time>2024-04-28T08:42:19Z</time>
      </trkpt>
      <trkpt lat="45.6733" lon="3.27312">
        <ele>545</ele>
        <time>2024-04-28T08:42:20Z</time>
      </trkpt>
      <trkpt lat="45.67323" lon="3.27299">
        <ele>544.6</ele>
        <time>2024-04-28T08:42:21Z</time>
      </trkpt>
      <trkpt lat="45.67316" lon="3.27286">
        <ele>544.2</ele>
        <time>2024-04-28T08:42:22Z</time>
      </trkpt>
      <trkpt lat="45.67309" lon="3.27274">
        <ele>543.8</ele>
        <time>2024-04-28T08:42:23Z</time>
      </trkpt>
      <trkpt lat="45.67302" lon="3.27261">
        <ele>543.4</ele>
        <time>2024-04-28T08:42:24Z</time>
      </trkpt>
      <trkpt lat="45.67296" lon="3.27247">
        <ele>542.8</ele>
        <time>2024-04-28T08:42:25Z</time>
      </trkpt>
      <trkpt lat="45.6729" lon="3.27232">
        <ele>542.4</ele>
        <time>2024-04-28T08:42:26Z</time>
      </trkpt>
      <trkpt lat="45.67285" lon="3.27218">
        <ele>542</ele>
        <time>2024-04-28T08:42:27Z</time>
      </trkpt>
      <trkpt lat="45.6728" lon="3.27203">
        <ele>541.6</ele>
        <time>2024-04-28T08:42:28Z</time>
      </trkpt>
      <trkpt lat="45.67276" lon="3.27187">
        <ele>541.2</ele>
        <time>2024-04-28T08:42:29Z</time>
      </trkpt>
      <trkpt lat="45.67272" lon="3.27171">
        <ele>540.8</ele>
        <time>2024-04-28T08:42:30Z</time>
      </trkpt>
      <trkpt lat="45.67267" lon="3.27155">
        <ele>540.2</ele>
        <time>2024-04-28T08:42:31Z</time>
      </trkpt>
      <trkpt lat="45.67263" lon="3.27138">
        <ele>539.8</ele>
        <time>2024-04-28T08:42:32Z</time>
      </trkpt>
      <trkpt lat="45.6726" lon="3.27121">
        <ele>539.4</ele>
        <time>2024-04-28T08:42:33Z</time>
      </trkpt>
      <trkpt lat="45.67259" lon="3.27103">
        <ele>539</ele>
        <time>2024-04-28T08:42:34Z</time>
      </trkpt>
      <trkpt lat="45.67257" lon="3.27085">
        <ele>538.6</ele>
        <time>2024-04-28T08:42:35Z</time>
      </trkpt>
      <trkpt lat="45.67256" lon="3.27067">
        <ele>538</ele>
        <time>2024-04-28T08:42:36Z</time>
      </trkpt>
      <trkpt lat="45.67254" lon="3.27049">
        <ele>537.6</ele>
        <time>2024-04-28T08:42:37Z</time>
      </trkpt>
      <trkpt lat="45.67252" lon="3.2703">
        <ele>537.2</ele>
        <time>2024-04-28T08:42:38Z</time>
      </trkpt>
      <trkpt lat="45.67251" lon="3.27012">
        <ele>536.6</ele>
        <time>2024-04-28T08:42:39Z</time>
      </trkpt>
      <trkpt lat="45.67251" lon="3.26992">
        <ele>536</ele>
        <time>2024-04-28T08:42:40Z</time>
      </trkpt>
      <trkpt lat="45.67252" lon="3.26974">
        <ele>535.6</ele>
        <time>2024-04-28T08:42:41Z</time>
      </trkpt>
      <trkpt lat="45.67253" lon="3.26955">
        <ele>535.2</ele>
        <time>2024-04-28T08:42:42Z</time>
      </trkpt>
      <trkpt lat="45.67254" lon="3.26937">
        <ele>534.8</ele>
        <time>2024-04-28T08:42:43Z</time>
      </trkpt>
      <trkpt lat="45.67254" lon="3.26918">
        <ele>534.2</ele>
        <time>2024-04-28T08:42:44Z</time>
      </trkpt>
      <trkpt lat="45.67255" lon="3.269">
        <ele>533.8</ele>
        <time>2024-04-28T08:42:45Z</time>
      </trkpt>
      <trkpt lat="45.67256" lon="3.26882">
        <ele>533.4</ele>
        <time>2024-04-28T08:42:46Z</time>
      </trkpt>
      <trkpt lat="45.67257" lon="3.26864">
        <ele>532.8</ele>
        <time>2024-04-28T08:42:47Z</time>
      </trkpt>
      <trkpt lat="45.67258" lon="3.26845">
        <ele>532.4</ele>
        <time>2024-04-28T08:42:48Z</time>
      </trkpt>
      <trkpt lat="45.67259" lon="3.26827">
        <ele>531.8</ele>
        <time>2024-04-28T08:42:49Z</time>
      </trkpt>
      <trkpt lat="45.67259" lon="3.26809">
        <ele>531.4</ele>
        <time>2024-04-28T08:42:50Z</time>
      </trkpt>
      <trkpt lat="45.6726" lon="3.26791">
        <ele>531</ele>
        <time>2024-04-28T08:42:51Z</time>
      </trkpt>
      <trkpt lat="45.67261" lon="3.26773">
        <ele>530.4</ele>
        <time>2024-04-28T08:42:52Z</time>
      </trkpt>
      <trkpt lat="45.67262" lon="3.26756">
        <ele>530</ele>
        <time>2024-04-28T08:42:53Z</time>
      </trkpt>
      <trkpt lat="45.67263" lon="3.26738">
        <ele>529.4</ele>
        <time>2024-04-28T08:42:54Z</time>
      </trkpt>
      <trkpt lat="45.67264" lon="3.26721">
        <ele>529</ele>
        <time>2024-04-28T08:42:55Z</time>
      </trkpt>
      <trkpt lat="45.67264" lon="3.26704">
        <ele>528.6</ele>
        <time>2024-04-28T08:42:56Z</time>
      </trkpt>
      <trkpt lat="45.67265" lon="3.26687">
        <ele>528</ele>
        <time>2024-04-28T08:42:57Z</time>
      </trkpt>
      <trkpt lat="45.67266" lon="3.2667">
        <ele>527.6</ele>
        <time>2024-04-28T08:42:58Z</time>
      </trkpt>
      <trkpt lat="45.67267" lon="3.26653">
        <ele>527</ele>
        <time>2024-04-28T08:42:59Z</time>
      </trkpt>
      <trkpt lat="45.67267" lon="3.26636">
        <ele>526.6</ele>
        <time>2024-04-28T08:43:00Z</time>
      </trkpt>
      <trkpt lat="45.67268" lon="3.26619">
        <ele>526.2</ele>
        <time>2024-04-28T08:43:01Z</time>
      </trkpt>
      <trkpt lat="45.67269" lon="3.26602">
        <ele>525.6</ele>
        <time>2024-04-28T08:43:02Z</time>
      </trkpt>
      <trkpt lat="45.6727" lon="3.26586">
        <ele>525.2</ele>
        <time>2024-04-28T08:43:03Z</time>
      </trkpt>
      <trkpt lat="45.67268" lon="3.26569">
        <ele>524.8</ele>
        <time>2024-04-28T08:43:04Z</time>
      </trkpt>
      <trkpt lat="45.67266" lon="3.26553">
        <ele>524.2</ele>
        <time>2024-04-28T08:43:05Z</time>
      </trkpt>
      <trkpt lat="45.67264" lon="3.26537">
        <ele>523.8</ele>
        <time>2024-04-28T08:43:06Z</time>
      </trkpt>
      <trkpt lat="45.67262" lon="3.2652">
        <ele>523.4</ele>
        <time>2024-04-28T08:43:07Z</time>
      </trkpt>
      <trkpt lat="45.6726" lon="3.26504">
        <ele>523</ele>
        <time>2024-04-28T08:43:08Z</time>
      </trkpt>
      <trkpt lat="45.67258" lon="3.26488">
        <ele>522.4</ele>
        <time>2024-04-28T08:43:09Z</time>
      </trkpt>
      <trkpt lat="45.67255" lon="3.26472">
        <ele>522</ele>
        <time>2024-04-28T08:43:10Z</time>
      </trkpt>
      <trkpt lat="45.67251" lon="3.26456">
        <ele>521.6</ele>
        <time>2024-04-28T08:43:11Z</time>
      </trkpt>
      <trkpt lat="45.67248" lon="3.26441">
        <ele>521.2</ele>
        <time>2024-04-28T08:43:12Z</time>
      </trkpt>
      <trkpt lat="45.67244" lon="3.26425">
        <ele>520.6</ele>
        <time>2024-04-28T08:43:13Z</time>
      </trkpt>
      <trkpt lat="45.67241" lon="3.2641">
        <ele>520.2</ele>
        <time>2024-04-28T08:43:14Z</time>
      </trkpt>
      <trkpt lat="45.67237" lon="3.26394">
        <ele>519.8</ele>
        <time>2024-04-28T08:43:15Z</time>
      </trkpt>
      <trkpt lat="45.67234" lon="3.26378">
        <ele>519.4</ele>
        <time>2024-04-28T08:43:16Z</time>
      </trkpt>
      <trkpt lat="45.6723" lon="3.26363">
        <ele>519</ele>
        <time>2024-04-28T08:43:17Z</time>
      </trkpt>
      <trkpt lat="45.67226" lon="3.26347">
        <ele>518.6</ele>
        <time>2024-04-28T08:43:18Z</time>
      </trkpt>
      <trkpt lat="45.67223" lon="3.26332">
        <ele>518</ele>
        <time>2024-04-28T08:43:19Z</time>
      </trkpt>
      <trkpt lat="45.67219" lon="3.26317">
        <ele>517.6</ele>
        <time>2024-04-28T08:43:20Z</time>
      </trkpt>
      <trkpt lat="45.67216" lon="3.26301">
        <ele>517.2</ele>
        <time>2024-04-28T08:43:21Z</time>
      </trkpt>
      <trkpt lat="45.67212" lon="3.26286">
        <ele>516.8</ele>
        <time>2024-04-28T08:43:22Z</time>
      </trkpt>
      <trkpt lat="45.67209" lon="3.26272">
        <ele>516.4</ele>
        <time>2024-04-28T08:43:23Z</time>
      </trkpt>
      <trkpt lat="45.67203" lon="3.26258">
        <ele>515.8</ele>
        <time>2024-04-28T08:43:24Z</time>
      </trkpt>
      <trkpt lat="45.67198" lon="3.26245">
        <ele>515.4</ele>
        <time>2024-04-28T08:43:25Z</time>
      </trkpt>
      <trkpt lat="45.67194" lon="3.26232">
        <ele>515</ele>
        <time>2024-04-28T08:43:26Z</time>
      </trkpt>
      <trkpt lat="45.67189" lon="3.26219">
        <ele>514.4</ele>
        <time>2024-04-28T08:43:27Z</time>
      </trkpt>
      <trkpt lat="45.67182" lon="3.26207">
        <ele>514</ele>
        <time>2024-04-28T08:43:28Z</time>
      </trkpt>
      <trkpt lat="45.67176" lon="3.26196">
        <ele>513.6</ele>
        <time>2024-04-28T08:43:29Z</time>
      </trkpt>
      <trkpt lat="45.67169" lon="3.26184">
        <ele>513</ele>
        <time>2024-04-28T08:43:30Z</time>
      </trkpt>
      <trkpt lat="45.67162" lon="3.26173">
        <ele>512.6</ele>
        <time>2024-04-28T08:43:31Z</time>
      </trkpt>
      <trkpt lat="45.67155" lon="3.26162">
        <ele>512.2</ele>
        <time>2024-04-28T08:43:32Z</time>
      </trkpt>
      <trkpt lat="45.67148" lon="3.26151">
        <ele>511.6</ele>
        <time>2024-04-28T08:43:33Z</time>
      </trkpt>
      <trkpt lat="45.6714" lon="3.2614">
        <ele>511.2</ele>
        <time>2024-04-28T08:43:34Z</time>
      </trkpt>
      <trkpt lat="45.67131" lon="3.26131">
        <ele>510.6</ele>
        <time>2024-04-28T08:43:35Z</time>
      </trkpt>
      <trkpt lat="45.67123" lon="3.26123">
        <ele>510.2</ele>
        <time>2024-04-28T08:43:36Z</time>
      </trkpt>
      <trkpt lat="45.67114" lon="3.26114">
        <ele>509.8</ele>
        <time>2024-04-28T08:43:37Z</time>
      </trkpt>
      <trkpt lat="45.67105" lon="3.26105">
        <ele>509.2</ele>
        <time>2024-04-28T08:43:38Z</time>
      </trkpt>
      <trkpt lat="45.67096" lon="3.26096">
        <ele>508.8</ele>
        <time>2024-04-28T08:43:39Z</time>
      </trkpt>
      <trkpt lat="45.67087" lon="3.26087">
        <ele>508.2</ele>
        <time>2024-04-28T08:43:40Z</time>
      </trkpt>
      <trkpt lat="45.67078" lon="3.26077">
        <ele>507.8</ele>
        <time>2024-04-28T08:43:41Z</time>
      </trkpt>
      <trkpt lat="45.67069" lon="3.26068">
        <ele>507.2</ele>
        <time>2024-04-28T08:43:42Z</time>
      </trkpt>
      <trkpt lat="45.6706" lon="3.26059">
        <ele>506.8</ele>
        <time>2024-04-28T08:43:43Z</time>
      </trkpt>
      <trkpt lat="45.67051" lon="3.26049">
        <ele>506.2</ele>
        <time>2024-04-28T08:43:44Z</time>
      </trkpt>
      <trkpt lat="45.67042" lon="3.2604">
        <ele>505.6</ele>
        <time>2024-04-28T08:43:45Z</time>
      </trkpt>
      <trkpt lat="45.67032" lon="3.26031">
        <ele>505.2</ele>
        <time>2024-04-28T08:43:46Z</time>
      </trkpt>
      <trkpt lat="45.67023" lon="3.26022">
        <ele>504.6</ele>
        <time>2024-04-28T08:43:47Z</time>
      </trkpt>
      <trkpt lat="45.67013" lon="3.26013">
        <ele>504.2</ele>
        <time>2024-04-28T08:43:48Z</time>
      </trkpt>
      <trkpt lat="45.67004" lon="3.26004">
        <ele>503.6</ele>
        <time>2024-04-28T08:43:49Z</time>
      </trkpt>
      <trkpt lat="45.66994" lon="3.25995">
        <ele>503.2</ele>
        <time>2024-04-28T08:43:50Z</time>
      </trkpt>
      <trkpt lat="45.66985" lon="3.25986">
        <ele>502.6</ele>
        <time>2024-04-28T08:43:51Z</time>
      </trkpt>
      <trkpt lat="45.66976" lon="3.25976">
        <ele>502.2</ele>
        <time>2024-04-28T08:43:52Z</time>
      </trkpt>
      <trkpt lat="45.66966" lon="3.25968">
        <ele>501.8</ele>
        <time>2024-04-28T08:43:53Z</time>
      </trkpt>
      <trkpt lat="45.66956" lon="3.2596">
        <ele>501.2</ele>
        <time>2024-04-28T08:43:54Z</time>
      </trkpt>
      <trkpt lat="45.66946" lon="3.25952">
        <ele>500.6</ele>
        <time>2024-04-28T08:43:55Z</time>
      </trkpt>
      <trkpt lat="45.66935" lon="3.25943">
        <ele>500.2</ele>
        <time>2024-04-28T08:43:56Z</time>
      </trkpt>
      <trkpt lat="45.66925" lon="3.25937">
        <ele>499.6</ele>
        <time>2024-04-28T08:43:57Z</time>
      </trkpt>
      <trkpt lat="45.66913" lon="3.25933">
        <ele>499.2</ele>
        <time>2024-04-28T08:43:58Z</time>
      </trkpt>
      <trkpt lat="45.66902" lon="3.25928">
        <ele>498.8</ele>
        <time>2024-04-28T08:43:59Z</time>
      </trkpt>
      <trkpt lat="45.6689" lon="3.25923">
        <ele>498.2</ele>
        <time>2024-04-28T08:44:00Z</time>
      </trkpt>
      <trkpt lat="45.66879" lon="3.25919">
        <ele>497.6</ele>
        <time>2024-04-28T08:44:01Z</time>
      </trkpt>
      <trkpt lat="45.66867" lon="3.25914">
        <ele>497</ele>
        <time>2024-04-28T08:44:02Z</time>
      </trkpt>
      <trkpt lat="45.66856" lon="3.25908">
        <ele>496.6</ele>
        <time>2024-04-28T08:44:03Z</time>
      </trkpt>
      <trkpt lat="45.66845" lon="3.25899">
        <ele>496</ele>
        <time>2024-04-28T08:44:04Z</time>
      </trkpt>
      <trkpt lat="45.66835" lon="3.25891">
        <ele>495.4</ele>
        <time>2024-04-28T08:44:05Z</time>
      </trkpt>
      <trkpt lat="45.66824" lon="3.25883">
        <ele>494.8</ele>
        <time>2024-04-28T08:44:06Z</time>
      </trkpt>
      <trkpt lat="45.66814" lon="3.25875">
        <ele>494.2</ele>
        <time>2024-04-28T08:44:07Z</time>
      </trkpt>
      <trkpt lat="45.66803" lon="3.25867">
        <ele>493.8</ele>
        <time>2024-04-28T08:44:08Z</time>
      </trkpt>
      <trkpt lat="45.66792" lon="3.25862">
        <ele>493.2</ele>
        <time>2024-04-28T08:44:09Z</time>
      </trkpt>
      <trkpt lat="45.66781" lon="3.25856">
        <ele>492.8</ele>
        <time>2024-04-28T08:44:10Z</time>
      </trkpt>
      <trkpt lat="45.66771" lon="3.2585">
        <ele>492.2</ele>
        <time>2024-04-28T08:44:11Z</time>
      </trkpt>
      <trkpt lat="45.6676" lon="3.25845">
        <ele>491.6</ele>
        <time>2024-04-28T08:44:12Z</time>
      </trkpt>
      <trkpt lat="45.6675" lon="3.25844">
        <ele>491.2</ele>
        <time>2024-04-28T08:44:13Z</time>
      </trkpt>
      <trkpt lat="45.66741" lon="3.25844">
        <ele>490.8</ele>
        <time>2024-04-28T08:44:14Z</time>
      </trkpt>
      <trkpt lat="45.66732" lon="3.25844">
        <ele>490.2</ele>
        <time>2024-04-28T08:44:15Z</time>
      </trkpt>
      <trkpt lat="45.66725" lon="3.25845">
        <ele>489.8</ele>
        <time>2024-04-28T08:44:16Z</time>
      </trkpt>
      <trkpt lat="45.66718" lon="3.25845">
        <ele>489.4</ele>
        <time>2024-04-28T08:44:17Z</time>
      </trkpt>
      <trkpt lat="45.66711" lon="3.25845">
        <ele>488.8</ele>
        <time>2024-04-28T08:44:18Z</time>
      </trkpt>
      <trkpt lat="45.66705" lon="3.25845">
        <ele>488.4</ele>
        <time>2024-04-28T08:44:19Z</time>
      </trkpt>
      <trkpt lat="45.667" lon="3.25845">
        <ele>487.8</ele>
        <time>2024-04-28T08:44:20Z</time>
      </trkpt>
      <trkpt lat="45.66697" lon="3.25844">
        <ele>487.4</ele>
        <time>2024-04-28T08:44:21Z</time>
      </trkpt>
      <trkpt lat="45.66694" lon="3.25843">
        <ele>486.8</ele>
        <time>2024-04-28T08:44:22Z</time>
      </trkpt>
      <trkpt lat="45.66691" lon="3.25843">
        <ele>486.4</ele>
        <time>2024-04-28T08:44:23Z</time>
      </trkpt>
      <trkpt lat="45.66688" lon="3.25842">
        <ele>485.8</ele>
        <time>2024-04-28T08:44:24Z</time>
      </trkpt>
      <trkpt lat="45.66686" lon="3.25842">
        <ele>485.4</ele>
        <time>2024-04-28T08:44:25Z</time>
      </trkpt>
      <trkpt lat="45.66684" lon="3.25841">
        <ele>484.8</ele>
        <time>2024-04-28T08:44:26Z</time>
      </trkpt>
      <trkpt lat="45.66683" lon="3.25841">
        <ele>484.2</ele>
        <time>2024-04-28T08:44:27Z</time>
      </trkpt>
      <trkpt lat="45.66681" lon="3.25841">
        <ele>483.6</ele>
        <time>2024-04-28T08:44:28Z</time>
      </trkpt>
      <trkpt lat="45.66678" lon="3.2584">
        <ele>483.2</ele>
        <time>2024-04-28T08:44:29Z</time>
      </trkpt>
      <trkpt lat="45.66674" lon="3.2584">
        <ele>482.6</ele>
        <time>2024-04-28T08:44:30Z</time>
      </trkpt>
      <trkpt lat="45.66669" lon="3.25839">
        <ele>482.2</ele>
        <time>2024-04-28T08:44:31Z</time>
      </trkpt>
      <trkpt lat="45.66665" lon="3.25838">
        <ele>481.6</ele>
        <time>2024-04-28T08:44:32Z</time>
      </trkpt>
      <trkpt lat="45.66659" lon="3.25836">
        <ele>481.2</ele>
        <time>2024-04-28T08:44:33Z</time>
      </trkpt>
      <trkpt lat="45.66653" lon="3.25833">
        <ele>480.8</ele>
        <time>2024-04-28T08:44:34Z</time>
      </trkpt>
      <trkpt lat="45.66648" lon="3.2583">
        <ele>480.4</ele>
        <time>2024-04-28T08:44:35Z</time>
      </trkpt>
      <trkpt lat="45.66642" lon="3.25827">
        <ele>480</ele>
        <time>2024-04-28T08:44:36Z</time>
      </trkpt>
      <trkpt lat="45.66637" lon="3.25824">
        <ele>479.6</ele>
        <time>2024-04-28T08:44:37Z</time>
      </trkpt>
      <trkpt lat="45.66631" lon="3.25821">
        <ele>479.4</ele>
        <time>2024-04-28T08:44:38Z</time>
      </trkpt>
      <trkpt lat="45.66626" lon="3.25818">
        <ele>478.8</ele>
        <time>2024-04-28T08:44:39Z</time>
      </trkpt>
      <trkpt lat="45.66621" lon="3.25815">
        <ele>478.4</ele>
        <time>2024-04-28T08:44:40Z</time>
      </trkpt>
      <trkpt lat="45.66615" lon="3.25812">
        <ele>478</ele>
        <time>2024-04-28T08:44:41Z</time>
      </trkpt>
      <trkpt lat="45.6661" lon="3.25809">
        <ele>477.6</ele>
        <time>2024-04-28T08:44:42Z</time>
      </trkpt>
      <trkpt lat="45.66604" lon="3.25805">
        <ele>477.2</ele>
        <time>2024-04-28T08:44:43Z</time>
      </trkpt>
      <trkpt lat="45.66598" lon="3.25803">
        <ele>476.6</ele>
        <time>2024-04-28T08:44:44Z</time>
      </trkpt>
      <trkpt lat="45.66592" lon="3.258">
        <ele>476.2</ele>
        <time>2024-04-28T08:44:45Z</time>
      </trkpt>
      <trkpt lat="45.66585" lon="3.25797">
        <ele>475.8</ele>
        <time>2024-04-28T08:44:46Z</time>
      </trkpt>
      <trkpt lat="45.66579" lon="3.25794">
        <ele>475.6</ele>
        <time>2024-04-28T08:44:47Z</time>
      </trkpt>
      <trkpt lat="45.66573" lon="3.25792">
        <ele>475.2</ele>
        <time>2024-04-28T08:44:48Z</time>
      </trkpt>
      <trkpt lat="45.66566" lon="3.25789">
        <ele>474.8</ele>
        <time>2024-04-28T08:44:49Z</time>
      </trkpt>
      <trkpt lat="45.66559" lon="3.25786">
        <ele>474.4</ele>
        <time>2024-04-28T08:44:50Z</time>
      </trkpt>
      <trkpt lat="45.66552" lon="3.25783">
        <ele>474</ele>
        <time>2024-04-28T08:44:51Z</time>
      </trkpt>
      <trkpt lat="45.66545" lon="3.25779">
        <ele>473.6</ele>
        <time>2024-04-28T08:44:52Z</time>
      </trkpt>
      <trkpt lat="45.66538" lon="3.25776">
        <ele>473.2</ele>
        <time>2024-04-28T08:44:53Z</time>
      </trkpt>
      <trkpt lat="45.66531" lon="3.25773">
        <ele>472.8</ele>
        <time>2024-04-28T08:44:54Z</time>
      </trkpt>
      <trkpt lat="45.66524" lon="3.2577">
        <ele>472.4</ele>
        <time>2024-04-28T08:44:55Z</time>
      </trkpt>
      <trkpt lat="45.66517" lon="3.25766">
        <ele>472</ele>
        <time>2024-04-28T08:44:56Z</time>
      </trkpt>
      <trkpt lat="45.6651" lon="3.25762">
        <ele>471.6</ele>
        <time>2024-04-28T08:44:57Z</time>
      </trkpt>
      <trkpt lat="45.66504" lon="3.25758">
        <ele>471.2</ele>
        <time>2024-04-28T08:44:58Z</time>
      </trkpt>
      <trkpt lat="45.66498" lon="3.25755">
        <ele>471</ele>
        <time>2024-04-28T08:44:59Z</time>
      </trkpt>
      <trkpt lat="45.66492" lon="3.25751">
        <ele>470.6</ele>
        <time>2024-04-28T08:45:00Z</time>
      </trkpt>
      <trkpt lat="45.66486" lon="3.25747">
        <ele>470.4</ele>
        <time>2024-04-28T08:45:01Z</time>
      </trkpt>
      <trkpt lat="45.66481" lon="3.25742">
        <ele>470</ele>
        <time>2024-04-28T08:45:02Z</time>
      </trkpt>
      <trkpt lat="45.66475" lon="3.25737">
        <ele>469.8</ele>
        <time>2024-04-28T08:45:03Z</time>
      </trkpt>
      <trkpt lat="45.6647" lon="3.25733">
        <ele>469.6</ele>
        <time>2024-04-28T08:45:04Z</time>
      </trkpt>
      <trkpt lat="45.66465" lon="3.25728">
        <ele>469.2</ele>
        <time>2024-04-28T08:45:05Z</time>
      </trkpt>
      <trkpt lat="45.6646" lon="3.25724">
        <ele>469</ele>
        <time>2024-04-28T08:45:06Z</time>
      </trkpt>
      <trkpt lat="45.66455" lon="3.25719">
        <ele>468.8</ele>
        <time>2024-04-28T08:45:07Z</time>
      </trkpt>
      <trkpt lat="45.6645" lon="3.25715">
        <ele>468.6</ele>
        <time>2024-04-28T08:45:08Z</time>
      </trkpt>
      <trkpt lat="45.66445" lon="3.25711">
        <ele>468.4</ele>
        <time>2024-04-28T08:45:09Z</time>
      </trkpt>
      <trkpt lat="45.66441" lon="3.25707">
        <ele>468.2</ele>
        <time>2024-04-28T08:45:10Z</time>
      </trkpt>
      <trkpt lat="45.66436" lon="3.25702">
        <ele>468</ele>
        <time>2024-04-28T08:45:11Z</time>
      </trkpt>
      <trkpt lat="45.66431" lon="3.25698">
        <ele>467.8</ele>
        <time>2024-04-28T08:45:12Z</time>
      </trkpt>
      <trkpt lat="45.66426" lon="3.25694">
        <ele>467.6</ele>
        <time>2024-04-28T08:45:13Z</time>
      </trkpt>
      <trkpt lat="45.66422" lon="3.2569">
        <ele>467.4</ele>
        <time>2024-04-28T08:45:14Z</time>
      </trkpt>
      <trkpt lat="45.66417" lon="3.25685">
        <ele>467.2</ele>
        <time>2024-04-28T08:45:15Z</time>
      </trkpt>
      <trkpt lat="45.66412" lon="3.25681">
        <ele>467</ele>
        <time>2024-04-28T08:45:16Z</time>
      </trkpt>
      <trkpt lat="45.66407" lon="3.25677">
        <ele>466.8</ele>
        <time>2024-04-28T08:45:17Z</time>
      </trkpt>
      <trkpt lat="45.66403" lon="3.25673">
        <ele>466.6</ele>
        <time>2024-04-28T08:45:18Z</time>
      </trkpt>
      <trkpt lat="45.66398" lon="3.25669">
        <ele>466.4</ele>
        <time>2024-04-28T08:45:19Z</time>
      </trkpt>
      <trkpt lat="45.66393" lon="3.25665">
        <ele>466.4</ele>
        <time>2024-04-28T08:45:20Z</time>
      </trkpt>
      <trkpt lat="45.66389" lon="3.25661">
        <ele>466.2</ele>
        <time>2024-04-28T08:45:21Z</time>
      </trkpt>
      <trkpt lat="45.66384" lon="3.25657">
        <ele>466</ele>
        <time>2024-04-28T08:45:22Z</time>
      </trkpt>
      <trkpt lat="45.6638" lon="3.25652">
        <ele>466</ele>
        <time>2024-04-28T08:45:23Z</time>
      </trkpt>
      <trkpt lat="45.66375" lon="3.25648">
        <ele>465.8</ele>
        <time>2024-04-28T08:45:24Z</time>
      </trkpt>
      <trkpt lat="45.6637" lon="3.25644">
        <ele>465.8</ele>
        <time>2024-04-28T08:45:25Z</time>
      </trkpt>
      <trkpt lat="45.66366" lon="3.2564">
        <ele>465.6</ele>
        <time>2024-04-28T08:45:26Z</time>
      </trkpt>
      <trkpt lat="45.66361" lon="3.25636">
        <ele>465.6</ele>
        <time>2024-04-28T08:45:27Z</time>
      </trkpt>
      <trkpt lat="45.66356" lon="3.25632">
        <ele>465.4</ele>
        <time>2024-04-28T08:45:28Z</time>
      </trkpt>
      <trkpt lat="45.66352" lon="3.25628">
        <ele>465.4</ele>
        <time>2024-04-28T08:45:29Z</time>
      </trkpt>
      <trkpt lat="45.66347" lon="3.25624">
        <ele>465.2</ele>
        <time>2024-04-28T08:45:30Z</time>
      </trkpt>
      <trkpt lat="45.66343" lon="3.2562">
        <ele>465</ele>
        <time>2024-04-28T08:45:31Z</time>
      </trkpt>
      <trkpt lat="45.66338" lon="3.25616">
        <ele>464.8</ele>
        <time>2024-04-28T08:45:32Z</time>
      </trkpt>
      <trkpt lat="45.66334" lon="3.25613">
        <ele>464.8</ele>
        <time>2024-04-28T08:45:33Z</time>
      </trkpt>
      <trkpt lat="45.66329" lon="3.25609">
        <ele>464.6</ele>
        <time>2024-04-28T08:45:34Z</time>
      </trkpt>
      <trkpt lat="45.66324" lon="3.25605">
        <ele>464.6</ele>
        <time>2024-04-28T08:45:35Z</time>
      </trkpt>
      <trkpt lat="45.6632" lon="3.25601">
        <ele>464.4</ele>
        <time>2024-04-28T08:45:36Z</time>
      </trkpt>
      <trkpt lat="45.66315" lon="3.25598">
        <ele>464.4</ele>
        <time>2024-04-28T08:45:37Z</time>
      </trkpt>
      <trkpt lat="45.66311" lon="3.25594">
        <ele>464.4</ele>
        <time>2024-04-28T08:45:38Z</time>
      </trkpt>
      <trkpt lat="45.66306" lon="3.2559">
        <ele>464.4</ele>
        <time>2024-04-28T08:45:39Z</time>
      </trkpt>
      <trkpt lat="45.66301" lon="3.25586">
        <ele>464.2</ele>
        <time>2024-04-28T08:45:40Z</time>
      </trkpt>
      <trkpt lat="45.66297" lon="3.25583">
        <ele>464.2</ele>
        <time>2024-04-28T08:45:41Z</time>
      </trkpt>
      <trkpt lat="45.66293" lon="3.2558">
        <ele>464</ele>
        <time>2024-04-28T08:45:42Z</time>
      </trkpt>
      <trkpt lat="45.66289" lon="3.25576">
        <ele>464</ele>
        <time>2024-04-28T08:45:43Z</time>
      </trkpt>
      <trkpt lat="45.66284" lon="3.25572">
        <ele>464</ele>
        <time>2024-04-28T08:45:44Z</time>
      </trkpt>
      <trkpt lat="45.6628" lon="3.25568">
        <ele>463.8</ele>
        <time>2024-04-28T08:45:45Z</time>
      </trkpt>
      <trkpt lat="45.66275" lon="3.25565">
        <ele>463.8</ele>
        <time>2024-04-28T08:45:46Z</time>
      </trkpt>
      <trkpt lat="45.6627" lon="3.25561">
        <ele>464</ele>
        <time>2024-04-28T08:45:47Z</time>
      </trkpt>
      <trkpt lat="45.66266" lon="3.25557">
        <ele>463.8</ele>
        <time>2024-04-28T08:45:48Z</time>
      </trkpt>
      <trkpt lat="45.66262" lon="3.25554">
        <ele>463.8</ele>
        <time>2024-04-28T08:45:49Z</time>
      </trkpt>
      <trkpt lat="45.66257" lon="3.2555">
        <ele>464</ele>
        <time>2024-04-28T08:45:50Z</time>
      </trkpt>
      <trkpt lat="45.66253" lon="3.25546">
        <ele>464</ele>
        <time>2024-04-28T08:45:51Z</time>
      </trkpt>
      <trkpt lat="45.66248" lon="3.25543">
        <ele>464</ele>
        <time>2024-04-28T08:45:52Z</time>
      </trkpt>
      <trkpt lat="45.66243" lon="3.2554">
        <ele>464</ele>
        <time>2024-04-28T08:45:53Z</time>
      </trkpt>
      <trkpt lat="45.66238" lon="3.25537">
        <ele>464</ele>
        <time>2024-04-28T08:45:54Z</time>
      </trkpt>
      <trkpt lat="45.66233" lon="3.25534">
        <ele>464</ele>
        <time>2024-04-28T08:45:55Z</time>
      </trkpt>
      <trkpt lat="45.66227" lon="3.25531">
        <ele>464</ele>
        <time>2024-04-28T08:45:56Z</time>
      </trkpt>
      <trkpt lat="45.66222" lon="3.25528">
        <ele>464</ele>
        <time>2024-04-28T08:45:57Z</time>
      </trkpt>
      <trkpt lat="45.66217" lon="3.25525">
        <ele>464</ele>
        <time>2024-04-28T08:45:58Z</time>
      </trkpt>
      <trkpt lat="45.66211" lon="3.25522">
        <ele>464</ele>
        <time>2024-04-28T08:45:59Z</time>
      </trkpt>
      <trkpt lat="45.66206" lon="3.25519">
        <ele>464</ele>
        <time>2024-04-28T08:46:00Z</time>
      </trkpt>
      <trkpt lat="45.66201" lon="3.25516">
        <ele>463.4</ele>
        <time>2024-04-28T08:46:01Z</time>
      </trkpt>
      <trkpt lat="45.66195" lon="3.25512">
        <ele>463.6</ele>
        <time>2024-04-28T08:46:02Z</time>
      </trkpt>
      <trkpt lat="45.66189" lon="3.25509">
        <ele>463.6</ele>
        <time>2024-04-28T08:46:03Z</time>
      </trkpt>
      <trkpt lat="45.66184" lon="3.25506">
        <ele>463.6</ele>
        <time>2024-04-28T08:46:04Z</time>
      </trkpt>
      <trkpt lat="45.66179" lon="3.25503">
        <ele>463.6</ele>
        <time>2024-04-28T08:46:05Z</time>
      </trkpt>
      <trkpt lat="45.66173" lon="3.255">
        <ele>463.4</ele>
        <time>2024-04-28T08:46:06Z</time>
      </trkpt>
      <trkpt lat="45.66167" lon="3.25497">
        <ele>463.4</ele>
        <time>2024-04-28T08:46:07Z</time>
      </trkpt>
      <trkpt lat="45.66161" lon="3.25495">
        <ele>463.6</ele>
        <time>2024-04-28T08:46:08Z</time>
      </trkpt>
      <trkpt lat="45.66155" lon="3.25493">
        <ele>463.4</ele>
        <time>2024-04-28T08:46:09Z</time>
      </trkpt>
      <trkpt lat="45.66149" lon="3.2549">
        <ele>463.4</ele>
        <time>2024-04-28T08:46:10Z</time>
      </trkpt>
      <trkpt lat="45.66144" lon="3.25488">
        <ele>463.4</ele>
        <time>2024-04-28T08:46:11Z</time>
      </trkpt>
      <trkpt lat="45.66138" lon="3.25485">
        <ele>463.4</ele>
        <time>2024-04-28T08:46:12Z</time>
      </trkpt>
      <trkpt lat="45.66132" lon="3.25483">
        <ele>463.6</ele>
        <time>2024-04-28T08:46:13Z</time>
      </trkpt>
      <trkpt lat="45.66126" lon="3.2548">
        <ele>463.4</ele>
        <time>2024-04-28T08:46:14Z</time>
      </trkpt>
      <trkpt lat="45.66119" lon="3.25478">
        <ele>463.4</ele>
        <time>2024-04-28T08:46:15Z</time>
      </trkpt>
      <trkpt lat="45.66113" lon="3.25475">
        <ele>463.6</ele>
        <time>2024-04-28T08:46:16Z</time>
      </trkpt>
      <trkpt lat="45.66107" lon="3.25473">
        <ele>463.4</ele>
        <time>2024-04-28T08:46:17Z</time>
      </trkpt>
      <trkpt lat="45.661" lon="3.25471">
        <ele>463.4</ele>
        <time>2024-04-28T08:46:18Z</time>
      </trkpt>
      <trkpt lat="45.66093" lon="3.2547">
        <ele>463.4</ele>
        <time>2024-04-28T08:46:19Z</time>
      </trkpt>
      <trkpt lat="45.66086" lon="3.25468">
        <ele>463.4</ele>
        <time>2024-04-28T08:46:20Z</time>
      </trkpt>
      <trkpt lat="45.6608" lon="3.25466">
        <ele>463.4</ele>
        <time>2024-04-28T08:46:21Z</time>
      </trkpt>
      <trkpt lat="45.66073" lon="3.25465">
        <ele>463.4</ele>
        <time>2024-04-28T08:46:22Z</time>
      </trkpt>
      <trkpt lat="45.66066" lon="3.25463">
        <ele>463.4</ele>
        <time>2024-04-28T08:46:23Z</time>
      </trkpt>
      <trkpt lat="45.6606" lon="3.25462">
        <ele>463.4</ele>
        <time>2024-04-28T08:46:24Z</time>
      </trkpt>
      <trkpt lat="45.66054" lon="3.2546">
        <ele>463.2</ele>
        <time>2024-04-28T08:46:25Z</time>
      </trkpt>
      <trkpt lat="45.66047" lon="3.25458">
        <ele>463.2</ele>
        <time>2024-04-28T08:46:26Z</time>
      </trkpt>
      <trkpt lat="45.6604" lon="3.25457">
        <ele>463</ele>
        <time>2024-04-28T08:46:27Z</time>
      </trkpt>
      <trkpt lat="45.66034" lon="3.25455">
        <ele>463</ele>
        <time>2024-04-28T08:46:28Z</time>
      </trkpt>
      <trkpt lat="45.66027" lon="3.25453">
        <ele>462.8</ele>
        <time>2024-04-28T08:46:29Z</time>
      </trkpt>
      <trkpt lat="45.6602" lon="3.25451">
        <ele>462.8</ele>
        <time>2024-04-28T08:46:30Z</time>
      </trkpt>
      <trkpt lat="45.66013" lon="3.2545">
        <ele>462.8</ele>
        <time>2024-04-28T08:46:31Z</time>
      </trkpt>
      <trkpt lat="45.66005" lon="3.25449">
        <ele>462.6</ele>
        <time>2024-04-28T08:46:32Z</time>
      </trkpt>
      <trkpt lat="45.65998" lon="3.25448">
        <ele>462.6</ele>
        <time>2024-04-28T08:46:33Z</time>
      </trkpt>
      <trkpt lat="45.6599" lon="3.25448">
        <ele>462.4</ele>
        <time>2024-04-28T08:46:34Z</time>
      </trkpt>
      <trkpt lat="45.65983" lon="3.25447">
        <ele>462.2</ele>
        <time>2024-04-28T08:46:35Z</time>
      </trkpt>
      <trkpt lat="45.65975" lon="3.25446">
        <ele>462</ele>
        <time>2024-04-28T08:46:36Z</time>
      </trkpt>
      <trkpt lat="45.65967" lon="3.25446">
        <ele>461.8</ele>
        <time>2024-04-28T08:46:37Z</time>
      </trkpt>
      <trkpt lat="45.65959" lon="3.25445">
        <ele>461.6</ele>
        <time>2024-04-28T08:46:38Z</time>
      </trkpt>
      <trkpt lat="45.6595" lon="3.25444">
        <ele>461.4</ele>
        <time>2024-04-28T08:46:39Z</time>
      </trkpt>
      <trkpt lat="45.65941" lon="3.25444">
        <ele>461.2</ele>
        <time>2024-04-28T08:46:40Z</time>
      </trkpt>
      <trkpt lat="45.65932" lon="3.25443">
        <ele>461.2</ele>
        <time>2024-04-28T08:46:41Z</time>
      </trkpt>
      <trkpt lat="45.65923" lon="3.25442">
        <ele>461</ele>
        <time>2024-04-28T08:46:42Z</time>
      </trkpt>
      <trkpt lat="45.65913" lon="3.25441">
        <ele>460.8</ele>
        <time>2024-04-28T08:46:43Z</time>
      </trkpt>
      <trkpt lat="45.65903" lon="3.2544">
        <ele>460.6</ele>
        <time>2024-04-28T08:46:44Z</time>
      </trkpt>
      <trkpt lat="45.65893" lon="3.2544">
        <ele>460.4</ele>
        <time>2024-04-28T08:46:45Z</time>
      </trkpt>
      <trkpt lat="45.65883" lon="3.25439">
        <ele>460.2</ele>
        <time>2024-04-28T08:46:46Z</time>
      </trkpt>
      <trkpt lat="45.65873" lon="3.25438">
        <ele>460.2</ele>
        <time>2024-04-28T08:46:47Z</time>
      </trkpt>
      <trkpt lat="45.65863" lon="3.25437">
        <ele>459.8</ele>
        <time>2024-04-28T08:46:48Z</time>
      </trkpt>
      <trkpt lat="45.65852" lon="3.25435">
        <ele>459.6</ele>
        <time>2024-04-28T08:46:49Z</time>
      </trkpt>
      <trkpt lat="45.65841" lon="3.25434">
        <ele>459.2</ele>
        <time>2024-04-28T08:46:50Z</time>
      </trkpt>
      <trkpt lat="45.6583" lon="3.25433">
        <ele>459</ele>
        <time>2024-04-28T08:46:51Z</time>
      </trkpt>
      <trkpt lat="45.65819" lon="3.25432">
        <ele>458.8</ele>
        <time>2024-04-28T08:46:52Z</time>
      </trkpt>
      <trkpt lat="45.65808" lon="3.25431">
        <ele>458.6</ele>
        <time>2024-04-28T08:46:53Z</time>
      </trkpt>
      <trkpt lat="45.65796" lon="3.25429">
        <ele>458.2</ele>
        <time>2024-04-28T08:46:54Z</time>
      </trkpt>
      <trkpt lat="45.65785" lon="3.25428">
        <ele>457.8</ele>
        <time>2024-04-28T08:46:55Z</time>
      </trkpt>
      <trkpt lat="45.65773" lon="3.25427">
        <ele>457.6</ele>
        <time>2024-04-28T08:46:56Z</time>
      </trkpt>
      <trkpt lat="45.65762" lon="3.25426">
        <ele>457.4</ele>
        <time>2024-04-28T08:46:57Z</time>
      </trkpt>
      <trkpt lat="45.65751" lon="3.25426">
        <ele>457</ele>
        <time>2024-04-28T08:46:58Z</time>
      </trkpt>
      <trkpt lat="45.65739" lon="3.25425">
        <ele>456.6</ele>
        <time>2024-04-28T08:46:59Z</time>
      </trkpt>
      <trkpt lat="45.65728" lon="3.25425">
        <ele>456.4</ele>
        <time>2024-04-28T08:47:00Z</time>
      </trkpt>
      <trkpt lat="45.65717" lon="3.25424">
        <ele>456</ele>
        <time>2024-04-28T08:47:01Z</time>
      </trkpt>
      <trkpt lat="45.65706" lon="3.25424">
        <ele>455.8</ele>
        <time>2024-04-28T08:47:02Z</time>
      </trkpt>
      <trkpt lat="45.65695" lon="3.25423">
        <ele>455.6</ele>
        <time>2024-04-28T08:47:03Z</time>
      </trkpt>
      <trkpt lat="45.65685" lon="3.25423">
        <ele>455.2</ele>
        <time>2024-04-28T08:47:04Z</time>
      </trkpt>
      <trkpt lat="45.65675" lon="3.25422">
        <ele>455</ele>
        <time>2024-04-28T08:47:05Z</time>
      </trkpt>
      <trkpt lat="45.65665" lon="3.25422">
        <ele>454.8</ele>
        <time>2024-04-28T08:47:06Z</time>
      </trkpt>
      <trkpt lat="45.65655" lon="3.25421">
        <ele>454.6</ele>
        <time>2024-04-28T08:47:07Z</time>
      </trkpt>
      <trkpt lat="45.65645" lon="3.25421">
        <ele>454.6</ele>
        <time>2024-04-28T08:47:08Z</time>
      </trkpt>
      <trkpt lat="45.65636" lon="3.2542">
        <ele>454.2</ele>
        <time>2024-04-28T08:47:09Z</time>
      </trkpt>
      <trkpt lat="45.65626" lon="3.25419">
        <ele>454.2</ele>
        <time>2024-04-28T08:47:10Z</time>
      </trkpt>
      <trkpt lat="45.65617" lon="3.25419">
        <ele>454</ele>
        <time>2024-04-28T08:47:11Z</time>
      </trkpt>
      <trkpt lat="45.65608" lon="3.25418">
        <ele>453.8</ele>
        <time>2024-04-28T08:47:12Z</time>
      </trkpt>
      <trkpt lat="45.65599" lon="3.25418">
        <ele>453.6</ele>
        <time>2024-04-28T08:47:13Z</time>
      </trkpt>
      <trkpt lat="45.65591" lon="3.25417">
        <ele>453.6</ele>
        <time>2024-04-28T08:47:14Z</time>
      </trkpt>
      <trkpt lat="45.65582" lon="3.25417">
        <ele>453.4</ele>
        <time>2024-04-28T08:47:15Z</time>
      </trkpt>
      <trkpt lat="45.65574" lon="3.25416">
        <ele>453.4</ele>
        <time>2024-04-28T08:47:16Z</time>
      </trkpt>
      <trkpt lat="45.65566" lon="3.25415">
        <ele>453.2</ele>
        <time>2024-04-28T08:47:17Z</time>
      </trkpt>
      <trkpt lat="45.65557" lon="3.25415">
        <ele>453</ele>
        <time>2024-04-28T08:47:18Z</time>
      </trkpt>
      <trkpt lat="45.65549" lon="3.25414">
        <ele>453</ele>
        <time>2024-04-28T08:47:19Z</time>
      </trkpt>
      <trkpt lat="45.6554" lon="3.25414">
        <ele>452.8</ele>
        <time>2024-04-28T08:47:20Z</time>
      </trkpt>
      <trkpt lat="45.65532" lon="3.25413">
        <ele>452.6</ele>
        <time>2024-04-28T08:47:21Z</time>
      </trkpt>
      <trkpt lat="45.65523" lon="3.25413">
        <ele>452.4</ele>
        <time>2024-04-28T08:47:22Z</time>
      </trkpt>
      <trkpt lat="45.65515" lon="3.25412">
        <ele>452.2</ele>
        <time>2024-04-28T08:47:23Z</time>
      </trkpt>
      <trkpt lat="45.65506" lon="3.25412">
        <ele>452</ele>
        <time>2024-04-28T08:47:24Z</time>
      </trkpt>
      <trkpt lat="45.65497" lon="3.25411">
        <ele>451.8</ele>
        <time>2024-04-28T08:47:25Z</time>
      </trkpt>
      <trkpt lat="45.65489" lon="3.2541">
        <ele>451.8</ele>
        <time>2024-04-28T08:47:26Z</time>
      </trkpt>
      <trkpt lat="45.6548" lon="3.2541">
        <ele>451.6</ele>
        <time>2024-04-28T08:47:27Z</time>
      </trkpt>
      <trkpt lat="45.65472" lon="3.25409">
        <ele>451.6</ele>
        <time>2024-04-28T08:47:28Z</time>
      </trkpt>
      <trkpt lat="45.65464" lon="3.25409">
        <ele>451.4</ele>
        <time>2024-04-28T08:47:29Z</time>
      </trkpt>
      <trkpt lat="45.65455" lon="3.25408">
        <ele>451.2</ele>
        <time>2024-04-28T08:47:30Z</time>
      </trkpt>
      <trkpt lat="45.65447" lon="3.25408">
        <ele>451</ele>
        <time>2024-04-28T08:47:31Z</time>
      </trkpt>
      <trkpt lat="45.65438" lon="3.2541">
        <ele>450.8</ele>
        <time>2024-04-28T08:47:32Z</time>
      </trkpt>
      <trkpt lat="45.6543" lon="3.25412">
        <ele>450.8</ele>
        <time>2024-04-28T08:47:33Z</time>
      </trkpt>
      <trkpt lat="45.65422" lon="3.25414">
        <ele>450.6</ele>
        <time>2024-04-28T08:47:34Z</time>
      </trkpt>
      <trkpt lat="45.65413" lon="3.25416">
        <ele>450.4</ele>
        <time>2024-04-28T08:47:35Z</time>
      </trkpt>
      <trkpt lat="45.65405" lon="3.25419">
        <ele>450.2</ele>
        <time>2024-04-28T08:47:36Z</time>
      </trkpt>
      <trkpt lat="45.65396" lon="3.25421">
        <ele>450.2</ele>
        <time>2024-04-28T08:47:37Z</time>
      </trkpt>
      <trkpt lat="45.65388" lon="3.25424">
        <ele>450</ele>
        <time>2024-04-28T08:47:38Z</time>
      </trkpt>
      <trkpt lat="45.65379" lon="3.25428">
        <ele>449.8</ele>
        <time>2024-04-28T08:47:39Z</time>
      </trkpt>
      <trkpt lat="45.65371" lon="3.25431">
        <ele>449.6</ele>
        <time>2024-04-28T08:47:40Z</time>
      </trkpt>
      <trkpt lat="45.65362" lon="3.25435">
        <ele>449.6</ele>
        <time>2024-04-28T08:47:41Z</time>
      </trkpt>
      <trkpt lat="45.65354" lon="3.25438">
        <ele>449.4</ele>
        <time>2024-04-28T08:47:42Z</time>
      </trkpt>
      <trkpt lat="45.65346" lon="3.25441">
        <ele>449.2</ele>
        <time>2024-04-28T08:47:43Z</time>
      </trkpt>
      <trkpt lat="45.65338" lon="3.25445">
        <ele>448.8</ele>
        <time>2024-04-28T08:47:44Z</time>
      </trkpt>
      <trkpt lat="45.65329" lon="3.25448">
        <ele>448.6</ele>
        <time>2024-04-28T08:47:45Z</time>
      </trkpt>
      <trkpt lat="45.65321" lon="3.25451">
        <ele>448.6</ele>
        <time>2024-04-28T08:47:46Z</time>
      </trkpt>
      <trkpt lat="45.65314" lon="3.25455">
        <ele>448.4</ele>
        <time>2024-04-28T08:47:47Z</time>
      </trkpt>
      <trkpt lat="45.65307" lon="3.25455">
        <ele>448.4</ele>
        <time>2024-04-28T08:47:48Z</time>
      </trkpt>
      <trkpt lat="45.65299" lon="3.25456">
        <ele>448.4</ele>
        <time>2024-04-28T08:47:49Z</time>
      </trkpt>
      <trkpt lat="45.65291" lon="3.25457">
        <ele>448</ele>
        <time>2024-04-28T08:47:50Z</time>
      </trkpt>
      <trkpt lat="45.65283" lon="3.25457">
        <ele>448</ele>
        <time>2024-04-28T08:47:51Z</time>
      </trkpt>
      <trkpt lat="45.65276" lon="3.25458">
        <ele>448</ele>
        <time>2024-04-28T08:47:52Z</time>
      </trkpt>
      <trkpt lat="45.65269" lon="3.25458">
        <ele>447.8</ele>
        <time>2024-04-28T08:47:53Z</time>
      </trkpt>
      <trkpt lat="45.65262" lon="3.25459">
        <ele>447.6</ele>
        <time>2024-04-28T08:47:54Z</time>
      </trkpt>
      <trkpt lat="45.65256" lon="3.25459">
        <ele>447.6</ele>
        <time>2024-04-28T08:47:55Z</time>
      </trkpt>
      <trkpt lat="45.6525" lon="3.25457">
        <ele>447.4</ele>
        <time>2024-04-28T08:47:56Z</time>
      </trkpt>
      <trkpt lat="45.65244" lon="3.25455">
        <ele>447.4</ele>
        <time>2024-04-28T08:47:57Z</time>
      </trkpt>
      <trkpt lat="45.65238" lon="3.25454">
        <ele>447.2</ele>
        <time>2024-04-28T08:47:58Z</time>
      </trkpt>
      <trkpt lat="45.65232" lon="3.25452">
        <ele>447.2</ele>
        <time>2024-04-28T08:47:59Z</time>
      </trkpt>
      <trkpt lat="45.65226" lon="3.2545">
        <ele>447.4</ele>
        <time>2024-04-28T08:48:00Z</time>
      </trkpt>
      <trkpt lat="45.65221" lon="3.25449">
        <ele>447.2</ele>
        <time>2024-04-28T08:48:01Z</time>
      </trkpt>
      <trkpt lat="45.65216" lon="3.25447">
        <ele>447.2</ele>
        <time>2024-04-28T08:48:02Z</time>
      </trkpt>
      <trkpt lat="45.6521" lon="3.25445">
        <ele>447.2</ele>
        <time>2024-04-28T08:48:03Z</time>
      </trkpt>
      <trkpt lat="45.65205" lon="3.25442">
        <ele>447.2</ele>
        <time>2024-04-28T08:48:04Z</time>
      </trkpt>
      <trkpt lat="45.652" lon="3.25439">
        <ele>447.2</ele>
        <time>2024-04-28T08:48:05Z</time>
      </trkpt>
      <trkpt lat="45.65196" lon="3.25436">
        <ele>447.4</ele>
        <time>2024-04-28T08:48:06Z</time>
      </trkpt>
      <trkpt lat="45.65192" lon="3.25433">
        <ele>447.4</ele>
        <time>2024-04-28T08:48:07Z</time>
      </trkpt>
      <trkpt lat="45.65188" lon="3.2543">
        <ele>447.4</ele>
        <time>2024-04-28T08:48:08Z</time>
      </trkpt>
      <trkpt lat="45.65184" lon="3.25427">
        <ele>447.2</ele>
        <time>2024-04-28T08:48:09Z</time>
      </trkpt>
      <trkpt lat="45.6518" lon="3.25425">
        <ele>447.2</ele>
        <time>2024-04-28T08:48:10Z</time>
      </trkpt>
      <trkpt lat="45.65175" lon="3.25422">
        <ele>447.2</ele>
        <time>2024-04-28T08:48:11Z</time>
      </trkpt>
      <trkpt lat="45.65171" lon="3.25419">
        <ele>447.4</ele>
        <time>2024-04-28T08:48:12Z</time>
      </trkpt>
      <trkpt lat="45.65167" lon="3.25417">
        <ele>447.4</ele>
        <time>2024-04-28T08:48:13Z</time>
      </trkpt>
      <trkpt lat="45.65164" lon="3.25414">
        <ele>447.4</ele>
        <time>2024-04-28T08:48:14Z</time>
      </trkpt>
      <trkpt lat="45.6516" lon="3.25411">
        <ele>446.8</ele>
        <time>2024-04-28T08:48:15Z</time>
      </trkpt>
      <trkpt lat="45.65156" lon="3.25409">
        <ele>447.4</ele>
        <time>2024-04-28T08:48:16Z</time>
      </trkpt>
      <trkpt lat="45.65152" lon="3.25406">
        <ele>447.8</ele>
        <time>2024-04-28T08:48:17Z</time>
      </trkpt>
      <trkpt lat="45.65149" lon="3.25402">
        <ele>448.6</ele>
        <time>2024-04-28T08:48:18Z</time>
      </trkpt>
      <trkpt lat="45.65147" lon="3.25399">
        <ele>448</ele>
        <time>2024-04-28T08:48:19Z</time>
      </trkpt>
      <trkpt lat="45.65144" lon="3.25396">
        <ele>448</ele>
        <time>2024-04-28T08:48:20Z</time>
      </trkpt>
      <trkpt lat="45.65141" lon="3.25392">
        <ele>448.2</ele>
        <time>2024-04-28T08:48:21Z</time>
      </trkpt>
      <trkpt lat="45.65138" lon="3.25389">
        <ele>448.4</ele>
        <time>2024-04-28T08:48:22Z</time>
      </trkpt>
      <trkpt lat="45.65135" lon="3.25385">
        <ele>448.4</ele>
        <time>2024-04-28T08:48:23Z</time>
      </trkpt>
      <trkpt lat="45.65132" lon="3.25382">
        <ele>448.4</ele>
        <time>2024-04-28T08:48:24Z</time>
      </trkpt>
      <trkpt lat="45.65129" lon="3.25378">
        <ele>448.6</ele>
        <time>2024-04-28T08:48:25Z</time>
      </trkpt>
      <trkpt lat="45.65126" lon="3.25374">
        <ele>448.6</ele>
        <time>2024-04-28T08:48:26Z</time>
      </trkpt>
      <trkpt lat="45.65123" lon="3.25371">
        <ele>448.6</ele>
        <time>2024-04-28T08:48:27Z</time>
      </trkpt>
      <trkpt lat="45.6512" lon="3.25367">
        <ele>448.8</ele>
        <time>2024-04-28T08:48:28Z</time>
      </trkpt>
      <trkpt lat="45.65117" lon="3.25364">
        <ele>449</ele>
        <time>2024-04-28T08:48:29Z</time>
      </trkpt>
      <trkpt lat="45.65115" lon="3.2536">
        <ele>449</ele>
        <time>2024-04-28T08:48:30Z</time>
      </trkpt>
      <trkpt lat="45.65112" lon="3.25357">
        <ele>449.2</ele>
        <time>2024-04-28T08:48:31Z</time>
      </trkpt>
      <trkpt lat="45.65109" lon="3.25353">
        <ele>449.2</ele>
        <time>2024-04-28T08:48:32Z</time>
      </trkpt>
      <trkpt lat="45.65106" lon="3.2535">
        <ele>449.2</ele>
        <time>2024-04-28T08:48:33Z</time>
      </trkpt>
      <trkpt lat="45.65103" lon="3.25347">
        <ele>449.4</ele>
        <time>2024-04-28T08:48:34Z</time>
      </trkpt>
      <trkpt lat="45.651" lon="3.25343">
        <ele>449.6</ele>
        <time>2024-04-28T08:48:35Z</time>
      </trkpt>
      <trkpt lat="45.65097" lon="3.2534">
        <ele>449.6</ele>
        <time>2024-04-28T08:48:36Z</time>
      </trkpt>
      <trkpt lat="45.65097" lon="3.2534">
        <ele>449.8</ele>
        <time>2024-04-28T08:48:37Z</time>
      </trkpt>
      <trkpt lat="45.65094" lon="3.25336">
        <ele>449.8</ele>
        <time>2024-04-28T08:48:38Z</time>
      </trkpt>
      <trkpt lat="45.65091" lon="3.25333">
        <ele>450</ele>
        <time>2024-04-28T08:48:39Z</time>
      </trkpt>
      <trkpt lat="45.65089" lon="3.25329">
        <ele>450.2</ele>
        <time>2024-04-28T08:48:40Z</time>
      </trkpt>
      <trkpt lat="45.65086" lon="3.25326">
        <ele>450.2</ele>
        <time>2024-04-28T08:48:41Z</time>
      </trkpt>
      <trkpt lat="45.6508" lon="3.25319">
        <ele>450.4</ele>
        <time>2024-04-28T08:48:42Z</time>
      </trkpt>
      <trkpt lat="45.6508" lon="3.25319">
        <ele>450.4</ele>
        <time>2024-04-28T08:48:43Z</time>
      </trkpt>
      <trkpt lat="45.65077" lon="3.25315">
        <ele>450.6</ele>
        <time>2024-04-28T08:48:44Z</time>
      </trkpt>
      <trkpt lat="45.65074" lon="3.25311">
        <ele>450.6</ele>
        <time>2024-04-28T08:48:45Z</time>
      </trkpt>
      <trkpt lat="45.65071" lon="3.25308">
        <ele>450.8</ele>
        <time>2024-04-28T08:48:46Z</time>
      </trkpt>
      <trkpt lat="45.65068" lon="3.25305">
        <ele>450.8</ele>
        <time>2024-04-28T08:48:47Z</time>
      </trkpt>
      <trkpt lat="45.65065" lon="3.25301">
        <ele>451</ele>
        <time>2024-04-28T08:48:48Z</time>
      </trkpt>
      <trkpt lat="45.65062" lon="3.25298">
        <ele>451.2</ele>
        <time>2024-04-28T08:48:49Z</time>
      </trkpt>
      <trkpt lat="45.65059" lon="3.25294">
        <ele>451.4</ele>
        <time>2024-04-28T08:48:50Z</time>
      </trkpt>
      <trkpt lat="45.65056" lon="3.25291">
        <ele>451.4</ele>
        <time>2024-04-28T08:48:51Z</time>
      </trkpt>
      <trkpt lat="45.65054" lon="3.25288">
        <ele>451.6</ele>
        <time>2024-04-28T08:48:52Z</time>
      </trkpt>
      <trkpt lat="45.65051" lon="3.25284">
        <ele>451.8</ele>
        <time>2024-04-28T08:48:53Z</time>
      </trkpt>
      <trkpt lat="45.65048" lon="3.25281">
        <ele>451.8</ele>
        <time>2024-04-28T08:48:54Z</time>
      </trkpt>
      <trkpt lat="45.65045" lon="3.25278">
        <ele>452</ele>
        <time>2024-04-28T08:48:55Z</time>
      </trkpt>
      <trkpt lat="45.65042" lon="3.25274">
        <ele>452.2</ele>
        <time>2024-04-28T08:48:56Z</time>
      </trkpt>
      <trkpt lat="45.65039" lon="3.2527">
        <ele>452.2</ele>
        <time>2024-04-28T08:48:57Z</time>
      </trkpt>
      <trkpt lat="45.65037" lon="3.25267">
        <ele>452.4</ele>
        <time>2024-04-28T08:48:58Z</time>
      </trkpt>
      <trkpt lat="45.65034" lon="3.25263">
        <ele>452.4</ele>
        <time>2024-04-28T08:48:59Z</time>
      </trkpt>
      <trkpt lat="45.65031" lon="3.2526">
        <ele>452.6</ele>
        <time>2024-04-28T08:49:00Z</time>
      </trkpt>
      <trkpt lat="45.65028" lon="3.25256">
        <ele>452.8</ele>
        <time>2024-04-28T08:49:01Z</time>
      </trkpt>
      <trkpt lat="45.65025" lon="3.25253">
        <ele>452.8</ele>
        <time>2024-04-28T08:49:02Z</time>
      </trkpt>
      <trkpt lat="45.65022" lon="3.2525">
        <ele>453</ele>
        <time>2024-04-28T08:49:03Z</time>
      </trkpt>
      <trkpt lat="45.65019" lon="3.25246">
        <ele>453.2</ele>
        <time>2024-04-28T08:49:04Z</time>
      </trkpt>
      <trkpt lat="45.65016" lon="3.25242">
        <ele>453.4</ele>
        <time>2024-04-28T08:49:05Z</time>
      </trkpt>
      <trkpt lat="45.65013" lon="3.25239">
        <ele>453.6</ele>
        <time>2024-04-28T08:49:06Z</time>
      </trkpt>
      <trkpt lat="45.6501" lon="3.25235">
        <ele>453.6</ele>
        <time>2024-04-28T08:49:07Z</time>
      </trkpt>
      <trkpt lat="45.65007" lon="3.25232">
        <ele>453.8</ele>
        <time>2024-04-28T08:49:08Z</time>
      </trkpt>
      <trkpt lat="45.65004" lon="3.25228">
        <ele>454</ele>
        <time>2024-04-28T08:49:09Z</time>
      </trkpt>
      <trkpt lat="45.65001" lon="3.25225">
        <ele>454</ele>
        <time>2024-04-28T08:49:10Z</time>
      </trkpt>
      <trkpt lat="45.64998" lon="3.25221">
        <ele>454.2</ele>
        <time>2024-04-28T08:49:11Z</time>
      </trkpt>
      <trkpt lat="45.64995" lon="3.25218">
        <ele>454.4</ele>
        <time>2024-04-28T08:49:12Z</time>
      </trkpt>
      <trkpt lat="45.64992" lon="3.25214">
        <ele>454.4</ele>
        <time>2024-04-28T08:49:13Z</time>
      </trkpt>
      <trkpt lat="45.64989" lon="3.2521">
        <ele>454.6</ele>
        <time>2024-04-28T08:49:14Z</time>
      </trkpt>
      <trkpt lat="45.64986" lon="3.25206">
        <ele>454.8</ele>
        <time>2024-04-28T08:49:15Z</time>
      </trkpt>
      <trkpt lat="45.64982" lon="3.25202">
        <ele>454.8</ele>
        <time>2024-04-28T08:49:16Z</time>
      </trkpt>
      <trkpt lat="45.64979" lon="3.25198">
        <ele>455</ele>
        <time>2024-04-28T08:49:17Z</time>
      </trkpt>
      <trkpt lat="45.64976" lon="3.25195">
        <ele>455.2</ele>
        <time>2024-04-28T08:49:18Z</time>
      </trkpt>
      <trkpt lat="45.64973" lon="3.25191">
        <ele>455.2</ele>
        <time>2024-04-28T08:49:19Z</time>
      </trkpt>
      <trkpt lat="45.64969" lon="3.25187">
        <ele>455.4</ele>
        <time>2024-04-28T08:49:20Z</time>
      </trkpt>
      <trkpt lat="45.64966" lon="3.25183">
        <ele>455.6</ele>
        <time>2024-04-28T08:49:21Z</time>
      </trkpt>
      <trkpt lat="45.64963" lon="3.2518">
        <ele>455.6</ele>
        <time>2024-04-28T08:49:22Z</time>
      </trkpt>
      <trkpt lat="45.6496" lon="3.25176">
        <ele>455.8</ele>
        <time>2024-04-28T08:49:23Z</time>
      </trkpt>
      <trkpt lat="45.64957" lon="3.25172">
        <ele>456</ele>
        <time>2024-04-28T08:49:24Z</time>
      </trkpt>
      <trkpt lat="45.64953" lon="3.25168">
        <ele>456.2</ele>
        <time>2024-04-28T08:49:25Z</time>
      </trkpt>
      <trkpt lat="45.6495" lon="3.25164">
        <ele>456.2</ele>
        <time>2024-04-28T08:49:26Z</time>
      </trkpt>
      <trkpt lat="45.64947" lon="3.25161">
        <ele>456.4</ele>
        <time>2024-04-28T08:49:27Z</time>
      </trkpt>
      <trkpt lat="45.64944" lon="3.25157">
        <ele>456.6</ele>
        <time>2024-04-28T08:49:28Z</time>
      </trkpt>
      <trkpt lat="45.64941" lon="3.25153">
        <ele>456.6</ele>
        <time>2024-04-28T08:49:29Z</time>
      </trkpt>
      <trkpt lat="45.64938" lon="3.2515">
        <ele>456.8</ele>
        <time>2024-04-28T08:49:30Z</time>
      </trkpt>
      <trkpt lat="45.64935" lon="3.25146">
        <ele>457</ele>
        <time>2024-04-28T08:49:31Z</time>
      </trkpt>
      <trkpt lat="45.64932" lon="3.25143">
        <ele>457.2</ele>
        <time>2024-04-28T08:49:32Z</time>
      </trkpt>
      <trkpt lat="45.64929" lon="3.25139">
        <ele>457.2</ele>
        <time>2024-04-28T08:49:33Z</time>
      </trkpt>
      <trkpt lat="45.64926" lon="3.25136">
        <ele>457.4</ele>
        <time>2024-04-28T08:49:34Z</time>
      </trkpt>
      <trkpt lat="45.64923" lon="3.25132">
        <ele>457.6</ele>
        <time>2024-04-28T08:49:35Z</time>
      </trkpt>
      <trkpt lat="45.6492" lon="3.25129">
        <ele>457.6</ele>
        <time>2024-04-28T08:49:36Z</time>
      </trkpt>
      <trkpt lat="45.64914" lon="3.25122">
        <ele>457.8</ele>
        <time>2024-04-28T08:49:37Z</time>
      </trkpt>
      <trkpt lat="45.64911" lon="3.25118">
        <ele>458</ele>
        <time>2024-04-28T08:49:38Z</time>
      </trkpt>
      <trkpt lat="45.64911" lon="3.25118">
        <ele>458.2</ele>
        <time>2024-04-28T08:49:39Z</time>
      </trkpt>
      <trkpt lat="45.64908" lon="3.25114">
        <ele>458.2</ele>
        <time>2024-04-28T08:49:40Z</time>
      </trkpt>
      <trkpt lat="45.64905" lon="3.2511">
        <ele>458.4</ele>
        <time>2024-04-28T08:49:41Z</time>
      </trkpt>
      <trkpt lat="45.64902" lon="3.25107">
        <ele>458.6</ele>
        <time>2024-04-28T08:49:42Z</time>
      </trkpt>
      <trkpt lat="45.64899" lon="3.25103">
        <ele>458.6</ele>
        <time>2024-04-28T08:49:43Z</time>
      </trkpt>
      <trkpt lat="45.64896" lon="3.25099">
        <ele>458.6</ele>
        <time>2024-04-28T08:49:44Z</time>
      </trkpt>
      <trkpt lat="45.64893" lon="3.25095">
        <ele>458.8</ele>
        <time>2024-04-28T08:49:45Z</time>
      </trkpt>
      <trkpt lat="45.6489" lon="3.25091">
        <ele>459</ele>
        <time>2024-04-28T08:49:46Z</time>
      </trkpt>
      <trkpt lat="45.64887" lon="3.25088">
        <ele>459.2</ele>
        <time>2024-04-28T08:49:47Z</time>
      </trkpt>
      <trkpt lat="45.64884" lon="3.25084">
        <ele>459.4</ele>
        <time>2024-04-28T08:49:48Z</time>
      </trkpt>
      <trkpt lat="45.64881" lon="3.2508">
        <ele>459.4</ele>
        <time>2024-04-28T08:49:49Z</time>
      </trkpt>
      <trkpt lat="45.64878" lon="3.25077">
        <ele>459.6</ele>
        <time>2024-04-28T08:49:50Z</time>
      </trkpt>
      <trkpt lat="45.64875" lon="3.25073">
        <ele>459.8</ele>
        <time>2024-04-28T08:49:51Z</time>
      </trkpt>
      <trkpt lat="45.64872" lon="3.25069">
        <ele>460</ele>
        <time>2024-04-28T08:49:52Z</time>
      </trkpt>
      <trkpt lat="45.64867" lon="3.2507">
        <ele>460.2</ele>
        <time>2024-04-28T08:49:53Z</time>
      </trkpt>
      <trkpt lat="45.64864" lon="3.25067">
        <ele>460.2</ele>
        <time>2024-04-28T08:49:54Z</time>
      </trkpt>
      <trkpt lat="45.64861" lon="3.25064">
        <ele>460.4</ele>
        <time>2024-04-28T08:49:55Z</time>
      </trkpt>
      <trkpt lat="45.64857" lon="3.25061">
        <ele>460.6</ele>
        <time>2024-04-28T08:49:56Z</time>
      </trkpt>
      <trkpt lat="45.64853" lon="3.2506">
        <ele>460.8</ele>
        <time>2024-04-28T08:49:57Z</time>
      </trkpt>
      <trkpt lat="45.64849" lon="3.25059">
        <ele>461</ele>
        <time>2024-04-28T08:49:58Z</time>
      </trkpt>
      <trkpt lat="45.64844" lon="3.25058">
        <ele>461</ele>
        <time>2024-04-28T08:49:59Z</time>
      </trkpt>
      <trkpt lat="45.6484" lon="3.25057">
        <ele>461.2</ele>
        <time>2024-04-28T08:50:00Z</time>
      </trkpt>
      <trkpt lat="45.64836" lon="3.25056">
        <ele>461.4</ele>
        <time>2024-04-28T08:50:01Z</time>
      </trkpt>
      <trkpt lat="45.64832" lon="3.25056">
        <ele>461.4</ele>
        <time>2024-04-28T08:50:02Z</time>
      </trkpt>
      <trkpt lat="45.64828" lon="3.25056">
        <ele>461.6</ele>
        <time>2024-04-28T08:50:03Z</time>
      </trkpt>
      <trkpt lat="45.64824" lon="3.25056">
        <ele>461.8</ele>
        <time>2024-04-28T08:50:04Z</time>
      </trkpt>
      <trkpt lat="45.6482" lon="3.25057">
        <ele>461.8</ele>
        <time>2024-04-28T08:50:05Z</time>
      </trkpt>
      <trkpt lat="45.64816" lon="3.25058">
        <ele>462.2</ele>
        <time>2024-04-28T08:50:06Z</time>
      </trkpt>
      <trkpt lat="45.64812" lon="3.25058">
        <ele>462.4</ele>
        <time>2024-04-28T08:50:07Z</time>
      </trkpt>
      <trkpt lat="45.64808" lon="3.25059">
        <ele>462.4</ele>
        <time>2024-04-28T08:50:08Z</time>
      </trkpt>
      <trkpt lat="45.64804" lon="3.2506">
        <ele>462.6</ele>
        <time>2024-04-28T08:50:09Z</time>
      </trkpt>
      <trkpt lat="45.648" lon="3.25061">
        <ele>462.8</ele>
        <time>2024-04-28T08:50:10Z</time>
      </trkpt>
      <trkpt lat="45.64797" lon="3.25064">
        <ele>463</ele>
        <time>2024-04-28T08:50:11Z</time>
      </trkpt>
      <trkpt lat="45.64793" lon="3.25066">
        <ele>463</ele>
        <time>2024-04-28T08:50:12Z</time>
      </trkpt>
      <trkpt lat="45.6479" lon="3.25068">
        <ele>463.2</ele>
        <time>2024-04-28T08:50:13Z</time>
      </trkpt>
      <trkpt lat="45.64786" lon="3.2507">
        <ele>463.4</ele>
        <time>2024-04-28T08:50:14Z</time>
      </trkpt>
      <trkpt lat="45.64782" lon="3.25073">
        <ele>463.6</ele>
        <time>2024-04-28T08:50:15Z</time>
      </trkpt>
      <trkpt lat="45.64779" lon="3.25075">
        <ele>463.8</ele>
        <time>2024-04-28T08:50:16Z</time>
      </trkpt>
      <trkpt lat="45.64776" lon="3.25079">
        <ele>463.8</ele>
        <time>2024-04-28T08:50:17Z</time>
      </trkpt>
      <trkpt lat="45.64773" lon="3.25083">
        <ele>464</ele>
        <time>2024-04-28T08:50:18Z</time>
      </trkpt>
      <trkpt lat="45.6477" lon="3.25086">
        <ele>464.2</ele>
        <time>2024-04-28T08:50:19Z</time>
      </trkpt>
      <trkpt lat="45.64767" lon="3.2509">
        <ele>464.4</ele>
        <time>2024-04-28T08:50:20Z</time>
      </trkpt>
      <trkpt lat="45.64764" lon="3.25094">
        <ele>464.4</ele>
        <time>2024-04-28T08:50:21Z</time>
      </trkpt>
      <trkpt lat="45.64761" lon="3.25098">
        <ele>464.6</ele>
        <time>2024-04-28T08:50:22Z</time>
      </trkpt>
      <trkpt lat="45.64758" lon="3.25101">
        <ele>464.8</ele>
        <time>2024-04-28T08:50:23Z</time>
      </trkpt>
      <trkpt lat="45.64756" lon="3.25105">
        <ele>465</ele>
        <time>2024-04-28T08:50:24Z</time>
      </trkpt>
      <trkpt lat="45.64753" lon="3.2511">
        <ele>465</ele>
        <time>2024-04-28T08:50:25Z</time>
      </trkpt>
      <trkpt lat="45.64751" lon="3.25114">
        <ele>465.2</ele>
        <time>2024-04-28T08:50:26Z</time>
      </trkpt>
      <trkpt lat="45.64749" lon="3.25118">
        <ele>465.4</ele>
        <time>2024-04-28T08:50:27Z</time>
      </trkpt>
      <trkpt lat="45.64747" lon="3.25122">
        <ele>465.4</ele>
        <time>2024-04-28T08:50:28Z</time>
      </trkpt>
      <trkpt lat="45.64745" lon="3.25126">
        <ele>465.6</ele>
        <time>2024-04-28T08:50:29Z</time>
      </trkpt>
      <trkpt lat="45.64742" lon="3.25131">
        <ele>465.6</ele>
        <time>2024-04-28T08:50:30Z</time>
      </trkpt>
      <trkpt lat="45.6474" lon="3.25135">
        <ele>465.8</ele>
        <time>2024-04-28T08:50:31Z</time>
      </trkpt>
      <trkpt lat="45.64738" lon="3.25139">
        <ele>465.8</ele>
        <time>2024-04-28T08:50:32Z</time>
      </trkpt>
      <trkpt lat="45.64736" lon="3.25143">
        <ele>466</ele>
        <time>2024-04-28T08:50:33Z</time>
      </trkpt>
      <trkpt lat="45.64734" lon="3.25147">
        <ele>466.2</ele>
        <time>2024-04-28T08:50:34Z</time>
      </trkpt>
      <trkpt lat="45.64731" lon="3.25151">
        <ele>466.2</ele>
        <time>2024-04-28T08:50:35Z</time>
      </trkpt>
      <trkpt lat="45.64729" lon="3.25155">
        <ele>466.4</ele>
        <time>2024-04-28T08:50:36Z</time>
      </trkpt>
      <trkpt lat="45.64727" lon="3.25159">
        <ele>466.4</ele>
        <time>2024-04-28T08:50:37Z</time>
      </trkpt>
      <trkpt lat="45.64725" lon="3.25163">
        <ele>466.6</ele>
        <time>2024-04-28T08:50:38Z</time>
      </trkpt>
      <trkpt lat="45.64723" lon="3.25168">
        <ele>466.8</ele>
        <time>2024-04-28T08:50:39Z</time>
      </trkpt>
      <trkpt lat="45.6472" lon="3.25171">
        <ele>466.8</ele>
        <time>2024-04-28T08:50:40Z</time>
      </trkpt>
      <trkpt lat="45.64718" lon="3.25175">
        <ele>467</ele>
        <time>2024-04-28T08:50:41Z</time>
      </trkpt>
      <trkpt lat="45.64716" lon="3.25179">
        <ele>467.2</ele>
        <time>2024-04-28T08:50:42Z</time>
      </trkpt>
      <trkpt lat="45.64714" lon="3.25183">
        <ele>467.2</ele>
        <time>2024-04-28T08:50:43Z</time>
      </trkpt>
      <trkpt lat="45.64712" lon="3.25187">
        <ele>467.4</ele>
        <time>2024-04-28T08:50:44Z</time>
      </trkpt>
      <trkpt lat="45.6471" lon="3.25191">
        <ele>467.6</ele>
        <time>2024-04-28T08:50:45Z</time>
      </trkpt>
      <trkpt lat="45.64707" lon="3.25195">
        <ele>467.8</ele>
        <time>2024-04-28T08:50:46Z</time>
      </trkpt>
      <trkpt lat="45.64705" lon="3.252">
        <ele>468</ele>
        <time>2024-04-28T08:50:47Z</time>
      </trkpt>
      <trkpt lat="45.64702" lon="3.25204">
        <ele>468</ele>
        <time>2024-04-28T08:50:48Z</time>
      </trkpt>
      <trkpt lat="45.647" lon="3.25207">
        <ele>468.2</ele>
        <time>2024-04-28T08:50:49Z</time>
      </trkpt>
      <trkpt lat="45.64698" lon="3.25211">
        <ele>468.4</ele>
        <time>2024-04-28T08:50:50Z</time>
      </trkpt>
      <trkpt lat="45.64695" lon="3.25216">
        <ele>468.6</ele>
        <time>2024-04-28T08:50:51Z</time>
      </trkpt>
      <trkpt lat="45.64693" lon="3.2522">
        <ele>468.8</ele>
        <time>2024-04-28T08:50:52Z</time>
      </trkpt>
      <trkpt lat="45.6469" lon="3.25224">
        <ele>468.8</ele>
        <time>2024-04-28T08:50:53Z</time>
      </trkpt>
      <trkpt lat="45.64688" lon="3.25228">
        <ele>469</ele>
        <time>2024-04-28T08:50:54Z</time>
      </trkpt>
      <trkpt lat="45.64685" lon="3.25232">
        <ele>469.2</ele>
        <time>2024-04-28T08:50:55Z</time>
      </trkpt>
      <trkpt lat="45.64683" lon="3.25236">
        <ele>469.4</ele>
        <time>2024-04-28T08:50:56Z</time>
      </trkpt>
      <trkpt lat="45.6468" lon="3.2524">
        <ele>469.6</ele>
        <time>2024-04-28T08:50:57Z</time>
      </trkpt>
      <trkpt lat="45.64678" lon="3.25244">
        <ele>469.6</ele>
        <time>2024-04-28T08:50:58Z</time>
      </trkpt>
      <trkpt lat="45.64675" lon="3.25249">
        <ele>469.8</ele>
        <time>2024-04-28T08:50:59Z</time>
      </trkpt>
      <trkpt lat="45.64673" lon="3.25253">
        <ele>469.8</ele>
        <time>2024-04-28T08:51:00Z</time>
      </trkpt>
      <trkpt lat="45.6467" lon="3.25257">
        <ele>470</ele>
        <time>2024-04-28T08:51:01Z</time>
      </trkpt>
      <trkpt lat="45.64668" lon="3.25261">
        <ele>470</ele>
        <time>2024-04-28T08:51:02Z</time>
      </trkpt>
      <trkpt lat="45.64665" lon="3.25265">
        <ele>470.2</ele>
        <time>2024-04-28T08:51:03Z</time>
      </trkpt>
      <trkpt lat="45.64663" lon="3.25269">
        <ele>470.4</ele>
        <time>2024-04-28T08:51:04Z</time>
      </trkpt>
      <trkpt lat="45.6466" lon="3.25273">
        <ele>470.6</ele>
        <time>2024-04-28T08:51:05Z</time>
      </trkpt>
      <trkpt lat="45.64658" lon="3.25277">
        <ele>470.6</ele>
        <time>2024-04-28T08:51:06Z</time>
      </trkpt>
      <trkpt lat="45.64656" lon="3.25281">
        <ele>470.8</ele>
        <time>2024-04-28T08:51:07Z</time>
      </trkpt>
      <trkpt lat="45.64654" lon="3.25285">
        <ele>471</ele>
        <time>2024-04-28T08:51:08Z</time>
      </trkpt>
      <trkpt lat="45.64651" lon="3.25289">
        <ele>471.2</ele>
        <time>2024-04-28T08:51:09Z</time>
      </trkpt>
      <trkpt lat="45.64647" lon="3.25292">
        <ele>471.2</ele>
        <time>2024-04-28T08:51:10Z</time>
      </trkpt>
      <trkpt lat="45.64644" lon="3.25294">
        <ele>471.4</ele>
        <time>2024-04-28T08:51:11Z</time>
      </trkpt>
      <trkpt lat="45.64641" lon="3.25297">
        <ele>471.6</ele>
        <time>2024-04-28T08:51:12Z</time>
      </trkpt>
      <trkpt lat="45.64638" lon="3.253">
        <ele>471.8</ele>
        <time>2024-04-28T08:51:13Z</time>
      </trkpt>
      <trkpt lat="45.64634" lon="3.25303">
        <ele>472</ele>
        <time>2024-04-28T08:51:14Z</time>
      </trkpt>
      <trkpt lat="45.64631" lon="3.25306">
        <ele>472.2</ele>
        <time>2024-04-28T08:51:15Z</time>
      </trkpt>
      <trkpt lat="45.64628" lon="3.25309">
        <ele>472.4</ele>
        <time>2024-04-28T08:51:16Z</time>
      </trkpt>
      <trkpt lat="45.64624" lon="3.25311">
        <ele>472.6</ele>
        <time>2024-04-28T08:51:17Z</time>
      </trkpt>
      <trkpt lat="45.64621" lon="3.25314">
        <ele>472.6</ele>
        <time>2024-04-28T08:51:18Z</time>
      </trkpt>
      <trkpt lat="45.64618" lon="3.25316">
        <ele>472.8</ele>
        <time>2024-04-28T08:51:19Z</time>
      </trkpt>
      <trkpt lat="45.64614" lon="3.25317">
        <ele>473</ele>
        <time>2024-04-28T08:51:20Z</time>
      </trkpt>
      <trkpt lat="45.6461" lon="3.25317">
        <ele>473.2</ele>
        <time>2024-04-28T08:51:21Z</time>
      </trkpt>
      <trkpt lat="45.64606" lon="3.25318">
        <ele>473.4</ele>
        <time>2024-04-28T08:51:22Z</time>
      </trkpt>
      <trkpt lat="45.64598" lon="3.25318">
        <ele>473.6</ele>
        <time>2024-04-28T08:51:23Z</time>
      </trkpt>
      <trkpt lat="45.64598" lon="3.25318">
        <ele>473.6</ele>
        <time>2024-04-28T08:51:24Z</time>
      </trkpt>
      <trkpt lat="45.64594" lon="3.25316">
        <ele>473.8</ele>
        <time>2024-04-28T08:51:25Z</time>
      </trkpt>
      <trkpt lat="45.6459" lon="3.25314">
        <ele>474</ele>
        <time>2024-04-28T08:51:26Z</time>
      </trkpt>
      <trkpt lat="45.64584" lon="3.25317">
        <ele>474.2</ele>
        <time>2024-04-28T08:51:27Z</time>
      </trkpt>
      <trkpt lat="45.64581" lon="3.25321">
        <ele>474.2</ele>
        <time>2024-04-28T08:51:28Z</time>
      </trkpt>
      <trkpt lat="45.64578" lon="3.25325">
        <ele>474.4</ele>
        <time>2024-04-28T08:51:29Z</time>
      </trkpt>
      <trkpt lat="45.64577" lon="3.25326">
        <ele>474.4</ele>
        <time>2024-04-28T08:51:30Z</time>
      </trkpt>
      <trkpt lat="45.64573" lon="3.25333">
        <ele>474.6</ele>
        <time>2024-04-28T08:51:31Z</time>
      </trkpt>
      <trkpt lat="45.64569" lon="3.25336">
        <ele>474.8</ele>
        <time>2024-04-28T08:51:32Z</time>
      </trkpt>
      <trkpt lat="45.64566" lon="3.25339">
        <ele>474.8</ele>
        <time>2024-04-28T08:51:33Z</time>
      </trkpt>
      <trkpt lat="45.64562" lon="3.25341">
        <ele>475</ele>
        <time>2024-04-28T08:51:34Z</time>
      </trkpt>
      <trkpt lat="45.64559" lon="3.25342">
        <ele>475.2</ele>
        <time>2024-04-28T08:51:35Z</time>
      </trkpt>
      <trkpt lat="45.64554" lon="3.25343">
        <ele>475.2</ele>
        <time>2024-04-28T08:51:36Z</time>
      </trkpt>
      <trkpt lat="45.6455" lon="3.25344">
        <ele>475.4</ele>
        <time>2024-04-28T08:51:37Z</time>
      </trkpt>
      <trkpt lat="45.64547" lon="3.25345">
        <ele>475.6</ele>
        <time>2024-04-28T08:51:38Z</time>
      </trkpt>
      <trkpt lat="45.64543" lon="3.25346">
        <ele>475.6</ele>
        <time>2024-04-28T08:51:39Z</time>
      </trkpt>
      <trkpt lat="45.64539" lon="3.25346">
        <ele>475.8</ele>
        <time>2024-04-28T08:51:40Z</time>
      </trkpt>
      <trkpt lat="45.64536" lon="3.25347">
        <ele>476</ele>
        <time>2024-04-28T08:51:41Z</time>
      </trkpt>
      <trkpt lat="45.64532" lon="3.25347">
        <ele>476.2</ele>
        <time>2024-04-28T08:51:42Z</time>
      </trkpt>
      <trkpt lat="45.64528" lon="3.25347">
        <ele>476.4</ele>
        <time>2024-04-28T08:51:43Z</time>
      </trkpt>
      <trkpt lat="45.64524" lon="3.25347">
        <ele>476.6</ele>
        <time>2024-04-28T08:51:44Z</time>
      </trkpt>
      <trkpt lat="45.64521" lon="3.25347">
        <ele>476.6</ele>
        <time>2024-04-28T08:51:45Z</time>
      </trkpt>
      <trkpt lat="45.64517" lon="3.25346">
        <ele>476.6</ele>
        <time>2024-04-28T08:51:46Z</time>
      </trkpt>
      <trkpt lat="45.64513" lon="3.25346">
        <ele>476.8</ele>
        <time>2024-04-28T08:51:47Z</time>
      </trkpt>
      <trkpt lat="45.6451" lon="3.25346">
        <ele>476.8</ele>
        <time>2024-04-28T08:51:48Z</time>
      </trkpt>
      <trkpt lat="45.64506" lon="3.25345">
        <ele>477</ele>
        <time>2024-04-28T08:51:49Z</time>
      </trkpt>
      <trkpt lat="45.64502" lon="3.25345">
        <ele>477.2</ele>
        <time>2024-04-28T08:51:50Z</time>
      </trkpt>
      <trkpt lat="45.64498" lon="3.25344">
        <ele>477.2</ele>
        <time>2024-04-28T08:51:51Z</time>
      </trkpt>
      <trkpt lat="45.64494" lon="3.25344">
        <ele>477.4</ele>
        <time>2024-04-28T08:51:52Z</time>
      </trkpt>
      <trkpt lat="45.6449" lon="3.25344">
        <ele>477.6</ele>
        <time>2024-04-28T08:51:53Z</time>
      </trkpt>
      <trkpt lat="45.64486" lon="3.25343">
        <ele>477.8</ele>
        <time>2024-04-28T08:51:54Z</time>
      </trkpt>
      <trkpt lat="45.64482" lon="3.25343">
        <ele>477.8</ele>
        <time>2024-04-28T08:51:55Z</time>
      </trkpt>
      <trkpt lat="45.64478" lon="3.25343">
        <ele>477.8</ele>
        <time>2024-04-28T08:51:56Z</time>
      </trkpt>
      <trkpt lat="45.6447" lon="3.25342">
        <ele>478</ele>
        <time>2024-04-28T08:51:57Z</time>
      </trkpt>
      <trkpt lat="45.6447" lon="3.25342">
        <ele>478</ele>
        <time>2024-04-28T08:51:58Z</time>
      </trkpt>
      <trkpt lat="45.64466" lon="3.25342">
        <ele>478.2</ele>
        <time>2024-04-28T08:51:59Z</time>
      </trkpt>
      <trkpt lat="45.64462" lon="3.25341">
        <ele>478.4</ele>
        <time>2024-04-28T08:52:00Z</time>
      </trkpt>
      <trkpt lat="45.64459" lon="3.25341">
        <ele>478.4</ele>
        <time>2024-04-28T08:52:01Z</time>
      </trkpt>
      <trkpt lat="45.64455" lon="3.25341">
        <ele>478.6</ele>
        <time>2024-04-28T08:52:02Z</time>
      </trkpt>
      <trkpt lat="45.64451" lon="3.2534">
        <ele>478.8</ele>
        <time>2024-04-28T08:52:03Z</time>
      </trkpt>
      <trkpt lat="45.64447" lon="3.2534">
        <ele>478.8</ele>
        <time>2024-04-28T08:52:04Z</time>
      </trkpt>
      <trkpt lat="45.64443" lon="3.2534">
        <ele>479</ele>
        <time>2024-04-28T08:52:05Z</time>
      </trkpt>
      <trkpt lat="45.64439" lon="3.25339">
        <ele>479.2</ele>
        <time>2024-04-28T08:52:06Z</time>
      </trkpt>
      <trkpt lat="45.64435" lon="3.25339">
        <ele>479.4</ele>
        <time>2024-04-28T08:52:07Z</time>
      </trkpt>
      <trkpt lat="45.64432" lon="3.25339">
        <ele>479.4</ele>
        <time>2024-04-28T08:52:08Z</time>
      </trkpt>
      <trkpt lat="45.64428" lon="3.25338">
        <ele>479.6</ele>
        <time>2024-04-28T08:52:09Z</time>
      </trkpt>
      <trkpt lat="45.64424" lon="3.25338">
        <ele>479.8</ele>
        <time>2024-04-28T08:52:10Z</time>
      </trkpt>
      <trkpt lat="45.6442" lon="3.25338">
        <ele>480</ele>
        <time>2024-04-28T08:52:11Z</time>
      </trkpt>
      <trkpt lat="45.64416" lon="3.25337">
        <ele>480.2</ele>
        <time>2024-04-28T08:52:12Z</time>
      </trkpt>
      <trkpt lat="45.64409" lon="3.25337">
        <ele>480.2</ele>
        <time>2024-04-28T08:52:13Z</time>
      </trkpt>
      <trkpt lat="45.64405" lon="3.25336">
        <ele>480.4</ele>
        <time>2024-04-28T08:52:14Z</time>
      </trkpt>
      <trkpt lat="45.64401" lon="3.25336">
        <ele>480.6</ele>
        <time>2024-04-28T08:52:15Z</time>
      </trkpt>
      <trkpt lat="45.64397" lon="3.25336">
        <ele>480.8</ele>
        <time>2024-04-28T08:52:16Z</time>
      </trkpt>
      <trkpt lat="45.64393" lon="3.25335">
        <ele>481</ele>
        <time>2024-04-28T08:52:17Z</time>
      </trkpt>
      <trkpt lat="45.64393" lon="3.25335">
        <ele>481</ele>
        <time>2024-04-28T08:52:18Z</time>
      </trkpt>
      <trkpt lat="45.64388" lon="3.25335">
        <ele>481.2</ele>
        <time>2024-04-28T08:52:19Z</time>
      </trkpt>
      <trkpt lat="45.64383" lon="3.25334">
        <ele>481.4</ele>
        <time>2024-04-28T08:52:20Z</time>
      </trkpt>
      <trkpt lat="45.64379" lon="3.25334">
        <ele>481.6</ele>
        <time>2024-04-28T08:52:21Z</time>
      </trkpt>
      <trkpt lat="45.64369" lon="3.25333">
        <ele>481.8</ele>
        <time>2024-04-28T08:52:22Z</time>
      </trkpt>
      <trkpt lat="45.64364" lon="3.25333">
        <ele>481.8</ele>
        <time>2024-04-28T08:52:23Z</time>
      </trkpt>
      <trkpt lat="45.6436" lon="3.25332">
        <ele>482</ele>
        <time>2024-04-28T08:52:24Z</time>
      </trkpt>
      <trkpt lat="45.64355" lon="3.25332">
        <ele>482.2</ele>
        <time>2024-04-28T08:52:25Z</time>
      </trkpt>
      <trkpt lat="45.6435" lon="3.25332">
        <ele>482.2</ele>
        <time>2024-04-28T08:52:26Z</time>
      </trkpt>
      <trkpt lat="45.64345" lon="3.25331">
        <ele>482.4</ele>
        <time>2024-04-28T08:52:27Z</time>
      </trkpt>
      <trkpt lat="45.6434" lon="3.25331">
        <ele>482.6</ele>
        <time>2024-04-28T08:52:28Z</time>
      </trkpt>
      <trkpt lat="45.64336" lon="3.2533">
        <ele>482.8</ele>
        <time>2024-04-28T08:52:29Z</time>
      </trkpt>
      <trkpt lat="45.64332" lon="3.2533">
        <ele>482.8</ele>
        <time>2024-04-28T08:52:30Z</time>
      </trkpt>
      <trkpt lat="45.64328" lon="3.2533">
        <ele>482.8</ele>
        <time>2024-04-28T08:52:31Z</time>
      </trkpt>
      <trkpt lat="45.64325" lon="3.25329">
        <ele>482.8</ele>
        <time>2024-04-28T08:52:32Z</time>
      </trkpt>
      <trkpt lat="45.64323" lon="3.25329">
        <ele>483</ele>
        <time>2024-04-28T08:52:33Z</time>
      </trkpt>
      <trkpt lat="45.64321" lon="3.25329">
        <ele>483</ele>
        <time>2024-04-28T08:52:34Z</time>
      </trkpt>
      <trkpt lat="45.64319" lon="3.25329">
        <ele>483</ele>
        <time>2024-04-28T08:52:35Z</time>
      </trkpt>
      <trkpt lat="45.64318" lon="3.25329">
        <ele>483</ele>
        <time>2024-04-28T08:52:36Z</time>
      </trkpt>
      <trkpt lat="45.64317" lon="3.25329">
        <ele>483</ele>
        <time>2024-04-28T08:52:37Z</time>
      </trkpt>
      <trkpt lat="45.64316" lon="3.25329">
        <ele>483</ele>
        <time>2024-04-28T08:52:38Z</time>
      </trkpt>
      <trkpt lat="45.64316" lon="3.25329">
        <ele>483</ele>
        <time>2024-04-28T08:52:39Z</time>
      </trkpt>
      <trkpt lat="45.64316" lon="3.25329">
        <ele>483.2</ele>
        <time>2024-04-28T08:52:40Z</time>
      </trkpt>
      <trkpt lat="45.64313" lon="3.25328">
        <ele>484.6</ele>
        <time>2024-04-28T08:52:59Z</time>
      </trkpt>
      <trkpt lat="45.64311" lon="3.25328">
        <ele>484.6</ele>
        <time>2024-04-28T08:53:00Z</time>
      </trkpt>
      <trkpt lat="45.6431" lon="3.25328">
        <ele>484.6</ele>
        <time>2024-04-28T08:53:01Z</time>
      </trkpt>
      <trkpt lat="45.64308" lon="3.25328">
        <ele>484.6</ele>
        <time>2024-04-28T08:53:02Z</time>
      </trkpt>
      <trkpt lat="45.64305" lon="3.25328">
        <ele>484.6</ele>
        <time>2024-04-28T08:53:03Z</time>
      </trkpt>
      <trkpt lat="45.64301" lon="3.25327">
        <ele>484.6</ele>
        <time>2024-04-28T08:53:04Z</time>
      </trkpt>
      <trkpt lat="45.64296" lon="3.25327">
        <ele>484.6</ele>
        <time>2024-04-28T08:53:05Z</time>
      </trkpt>
      <trkpt lat="45.64292" lon="3.25326">
        <ele>484.6</ele>
        <time>2024-04-28T08:53:06Z</time>
      </trkpt>
      <trkpt lat="45.64287" lon="3.25326">
        <ele>484.8</ele>
        <time>2024-04-28T08:53:07Z</time>
      </trkpt>
      <trkpt lat="45.64282" lon="3.25326">
        <ele>484.8</ele>
        <time>2024-04-28T08:53:08Z</time>
      </trkpt>
      <trkpt lat="45.64277" lon="3.25325">
        <ele>484.8</ele>
        <time>2024-04-28T08:53:09Z</time>
      </trkpt>
      <trkpt lat="45.64272" lon="3.25325">
        <ele>485</ele>
        <time>2024-04-28T08:53:10Z</time>
      </trkpt>
      <trkpt lat="45.64266" lon="3.25325">
        <ele>485</ele>
        <time>2024-04-28T08:53:11Z</time>
      </trkpt>
      <trkpt lat="45.64261" lon="3.25324">
        <ele>485</ele>
        <time>2024-04-28T08:53:12Z</time>
      </trkpt>
      <trkpt lat="45.64255" lon="3.25324">
        <ele>485</ele>
        <time>2024-04-28T08:53:13Z</time>
      </trkpt>
      <trkpt lat="45.6425" lon="3.25323">
        <ele>485</ele>
        <time>2024-04-28T08:53:14Z</time>
      </trkpt>
      <trkpt lat="45.64245" lon="3.25323">
        <ele>485</ele>
        <time>2024-04-28T08:53:15Z</time>
      </trkpt>
      <trkpt lat="45.64239" lon="3.25323">
        <ele>485.2</ele>
        <time>2024-04-28T08:53:16Z</time>
      </trkpt>
      <trkpt lat="45.64233" lon="3.25322">
        <ele>485.2</ele>
        <time>2024-04-28T08:53:17Z</time>
      </trkpt>
      <trkpt lat="45.64227" lon="3.25322">
        <ele>485.2</ele>
        <time>2024-04-28T08:53:18Z</time>
      </trkpt>
      <trkpt lat="45.64221" lon="3.2532">
        <ele>485.2</ele>
        <time>2024-04-28T08:53:19Z</time>
      </trkpt>
      <trkpt lat="45.64215" lon="3.25319">
        <ele>485.4</ele>
        <time>2024-04-28T08:53:20Z</time>
      </trkpt>
      <trkpt lat="45.64209" lon="3.25318">
        <ele>485.4</ele>
        <time>2024-04-28T08:53:21Z</time>
      </trkpt>
      <trkpt lat="45.64203" lon="3.25316">
        <ele>485.4</ele>
        <time>2024-04-28T08:53:22Z</time>
      </trkpt>
      <trkpt lat="45.64196" lon="3.25314">
        <ele>485.4</ele>
        <time>2024-04-28T08:53:23Z</time>
      </trkpt>
      <trkpt lat="45.6419" lon="3.25313">
        <ele>485.4</ele>
        <time>2024-04-28T08:53:24Z</time>
      </trkpt>
      <trkpt lat="45.64184" lon="3.25311">
        <ele>485.4</ele>
        <time>2024-04-28T08:53:25Z</time>
      </trkpt>
      <trkpt lat="45.64177" lon="3.2531">
        <ele>485.6</ele>
        <time>2024-04-28T08:53:26Z</time>
      </trkpt>
      <trkpt lat="45.6417" lon="3.25308">
        <ele>485.6</ele>
        <time>2024-04-28T08:53:27Z</time>
      </trkpt>
      <trkpt lat="45.64163" lon="3.25306">
        <ele>485.6</ele>
        <time>2024-04-28T08:53:28Z</time>
      </trkpt>
      <trkpt lat="45.64157" lon="3.25302">
        <ele>485.6</ele>
        <time>2024-04-28T08:53:29Z</time>
      </trkpt>
      <trkpt lat="45.64151" lon="3.25297">
        <ele>485.6</ele>
        <time>2024-04-28T08:53:30Z</time>
      </trkpt>
      <trkpt lat="45.64144" lon="3.25293">
        <ele>485.6</ele>
        <time>2024-04-28T08:53:31Z</time>
      </trkpt>
      <trkpt lat="45.64138" lon="3.25289">
        <ele>485.6</ele>
        <time>2024-04-28T08:53:32Z</time>
      </trkpt>
      <trkpt lat="45.64131" lon="3.25284">
        <ele>485.6</ele>
        <time>2024-04-28T08:53:33Z</time>
      </trkpt>
      <trkpt lat="45.64125" lon="3.2528">
        <ele>485.6</ele>
        <time>2024-04-28T08:53:34Z</time>
      </trkpt>
      <trkpt lat="45.64118" lon="3.25275">
        <ele>485.6</ele>
        <time>2024-04-28T08:53:35Z</time>
      </trkpt>
      <trkpt lat="45.64111" lon="3.25271">
        <ele>485.8</ele>
        <time>2024-04-28T08:53:36Z</time>
      </trkpt>
      <trkpt lat="45.64106" lon="3.25264">
        <ele>485.8</ele>
        <time>2024-04-28T08:53:37Z</time>
      </trkpt>
      <trkpt lat="45.641" lon="3.25257">
        <ele>485.6</ele>
        <time>2024-04-28T08:53:38Z</time>
      </trkpt>
      <trkpt lat="45.64094" lon="3.2525">
        <ele>485.8</ele>
        <time>2024-04-28T08:53:39Z</time>
      </trkpt>
      <trkpt lat="45.64088" lon="3.25243">
        <ele>485.8</ele>
        <time>2024-04-28T08:53:40Z</time>
      </trkpt>
      <trkpt lat="45.64082" lon="3.25236">
        <ele>485.6</ele>
        <time>2024-04-28T08:53:41Z</time>
      </trkpt>
      <trkpt lat="45.64076" lon="3.25229">
        <ele>485.6</ele>
        <time>2024-04-28T08:53:42Z</time>
      </trkpt>
      <trkpt lat="45.6407" lon="3.25221">
        <ele>485.6</ele>
        <time>2024-04-28T08:53:43Z</time>
      </trkpt>
      <trkpt lat="45.64065" lon="3.25212">
        <ele>485.6</ele>
        <time>2024-04-28T08:53:44Z</time>
      </trkpt>
      <trkpt lat="45.6406" lon="3.25203">
        <ele>485.6</ele>
        <time>2024-04-28T08:53:45Z</time>
      </trkpt>
      <trkpt lat="45.64055" lon="3.25194">
        <ele>486</ele>
        <time>2024-04-28T08:53:46Z</time>
      </trkpt>
      <trkpt lat="45.6405" lon="3.25186">
        <ele>485.8</ele>
        <time>2024-04-28T08:53:47Z</time>
      </trkpt>
      <trkpt lat="45.64045" lon="3.25177">
        <ele>485.6</ele>
        <time>2024-04-28T08:53:48Z</time>
      </trkpt>
      <trkpt lat="45.64039" lon="3.25167">
        <ele>485.4</ele>
        <time>2024-04-28T08:53:49Z</time>
      </trkpt>
      <trkpt lat="45.64034" lon="3.25158">
        <ele>485.4</ele>
        <time>2024-04-28T08:53:50Z</time>
      </trkpt>
      <trkpt lat="45.64029" lon="3.25148">
        <ele>485.4</ele>
        <time>2024-04-28T08:53:51Z</time>
      </trkpt>
      <trkpt lat="45.64023" lon="3.25139">
        <ele>485.2</ele>
        <time>2024-04-28T08:53:52Z</time>
      </trkpt>
      <trkpt lat="45.64018" lon="3.2513">
        <ele>485.2</ele>
        <time>2024-04-28T08:53:53Z</time>
      </trkpt>
      <trkpt lat="45.64013" lon="3.2512">
        <ele>485.2</ele>
        <time>2024-04-28T08:53:54Z</time>
      </trkpt>
      <trkpt lat="45.64008" lon="3.25111">
        <ele>485</ele>
        <time>2024-04-28T08:53:55Z</time>
      </trkpt>
      <trkpt lat="45.64002" lon="3.25102">
        <ele>485</ele>
        <time>2024-04-28T08:53:56Z</time>
      </trkpt>
      <trkpt lat="45.63997" lon="3.25093">
        <ele>485</ele>
        <time>2024-04-28T08:53:57Z</time>
      </trkpt>
      <trkpt lat="45.63992" lon="3.25083">
        <ele>485</ele>
        <time>2024-04-28T08:53:58Z</time>
      </trkpt>
      <trkpt lat="45.63987" lon="3.25074">
        <ele>484.8</ele>
        <time>2024-04-28T08:53:59Z</time>
      </trkpt>
      <trkpt lat="45.63982" lon="3.25065">
        <ele>484.8</ele>
        <time>2024-04-28T08:54:00Z</time>
      </trkpt>
      <trkpt lat="45.63977" lon="3.25056">
        <ele>484.8</ele>
        <time>2024-04-28T08:54:01Z</time>
      </trkpt>
      <trkpt lat="45.63972" lon="3.25047">
        <ele>484.8</ele>
        <time>2024-04-28T08:54:02Z</time>
      </trkpt>
      <trkpt lat="45.63967" lon="3.25039">
        <ele>484.6</ele>
        <time>2024-04-28T08:54:03Z</time>
      </trkpt>
      <trkpt lat="45.63962" lon="3.2503">
        <ele>484.6</ele>
        <time>2024-04-28T08:54:04Z</time>
      </trkpt>
      <trkpt lat="45.63957" lon="3.25021">
        <ele>484.6</ele>
        <time>2024-04-28T08:54:05Z</time>
      </trkpt>
      <trkpt lat="45.63953" lon="3.25012">
        <ele>484.4</ele>
        <time>2024-04-28T08:54:06Z</time>
      </trkpt>
      <trkpt lat="45.63948" lon="3.25003">
        <ele>484.4</ele>
        <time>2024-04-28T08:54:07Z</time>
      </trkpt>
      <trkpt lat="45.63943" lon="3.24994">
        <ele>484.4</ele>
        <time>2024-04-28T08:54:08Z</time>
      </trkpt>
      <trkpt lat="45.63938" lon="3.24985">
        <ele>484.4</ele>
        <time>2024-04-28T08:54:09Z</time>
      </trkpt>
      <trkpt lat="45.63933" lon="3.24976">
        <ele>484.4</ele>
        <time>2024-04-28T08:54:10Z</time>
      </trkpt>
      <trkpt lat="45.63928" lon="3.24967">
        <ele>484.4</ele>
        <time>2024-04-28T08:54:11Z</time>
      </trkpt>
      <trkpt lat="45.63923" lon="3.24959">
        <ele>484.4</ele>
        <time>2024-04-28T08:54:12Z</time>
      </trkpt>
      <trkpt lat="45.63918" lon="3.2495">
        <ele>484.4</ele>
        <time>2024-04-28T08:54:13Z</time>
      </trkpt>
      <trkpt lat="45.63913" lon="3.24941">
        <ele>484.2</ele>
        <time>2024-04-28T08:54:14Z</time>
      </trkpt>
      <trkpt lat="45.63908" lon="3.24932">
        <ele>484.2</ele>
        <time>2024-04-28T08:54:15Z</time>
      </trkpt>
      <trkpt lat="45.63903" lon="3.24924">
        <ele>484.2</ele>
        <time>2024-04-28T08:54:16Z</time>
      </trkpt>
      <trkpt lat="45.63898" lon="3.24915">
        <ele>484</ele>
        <time>2024-04-28T08:54:17Z</time>
      </trkpt>
      <trkpt lat="45.63894" lon="3.24906">
        <ele>484</ele>
        <time>2024-04-28T08:54:18Z</time>
      </trkpt>
      <trkpt lat="45.63889" lon="3.24897">
        <ele>483.8</ele>
        <time>2024-04-28T08:54:19Z</time>
      </trkpt>
      <trkpt lat="45.63885" lon="3.24888">
        <ele>483.8</ele>
        <time>2024-04-28T08:54:20Z</time>
      </trkpt>
      <trkpt lat="45.6388" lon="3.24879">
        <ele>483.8</ele>
        <time>2024-04-28T08:54:21Z</time>
      </trkpt>
      <trkpt lat="45.63876" lon="3.2487">
        <ele>483.6</ele>
        <time>2024-04-28T08:54:22Z</time>
      </trkpt>
      <trkpt lat="45.63871" lon="3.2486">
        <ele>483.6</ele>
        <time>2024-04-28T08:54:23Z</time>
      </trkpt>
      <trkpt lat="45.63867" lon="3.24851">
        <ele>483.4</ele>
        <time>2024-04-28T08:54:24Z</time>
      </trkpt>
      <trkpt lat="45.63862" lon="3.24841">
        <ele>483.4</ele>
        <time>2024-04-28T08:54:25Z</time>
      </trkpt>
      <trkpt lat="45.63859" lon="3.2483">
        <ele>483.2</ele>
        <time>2024-04-28T08:54:26Z</time>
      </trkpt>
      <trkpt lat="45.63856" lon="3.24819">
        <ele>483.2</ele>
        <time>2024-04-28T08:54:27Z</time>
      </trkpt>
      <trkpt lat="45.63853" lon="3.24808">
        <ele>483</ele>
        <time>2024-04-28T08:54:28Z</time>
      </trkpt>
      <trkpt lat="45.6385" lon="3.24797">
        <ele>482.8</ele>
        <time>2024-04-28T08:54:29Z</time>
      </trkpt>
      <trkpt lat="45.63847" lon="3.24785">
        <ele>482.6</ele>
        <time>2024-04-28T08:54:30Z</time>
      </trkpt>
      <trkpt lat="45.63844" lon="3.24773">
        <ele>482.6</ele>
        <time>2024-04-28T08:54:31Z</time>
      </trkpt>
      <trkpt lat="45.63843" lon="3.24761">
        <ele>482.4</ele>
        <time>2024-04-28T08:54:32Z</time>
      </trkpt>
      <trkpt lat="45.63841" lon="3.24749">
        <ele>482.4</ele>
        <time>2024-04-28T08:54:33Z</time>
      </trkpt>
      <trkpt lat="45.6384" lon="3.24737">
        <ele>482.2</ele>
        <time>2024-04-28T08:54:34Z</time>
      </trkpt>
      <trkpt lat="45.63838" lon="3.24725">
        <ele>482.2</ele>
        <time>2024-04-28T08:54:35Z</time>
      </trkpt>
      <trkpt lat="45.63837" lon="3.24713">
        <ele>482.2</ele>
        <time>2024-04-28T08:54:36Z</time>
      </trkpt>
      <trkpt lat="45.63837" lon="3.24701">
        <ele>482</ele>
        <time>2024-04-28T08:54:37Z</time>
      </trkpt>
      <trkpt lat="45.63837" lon="3.24689">
        <ele>482</ele>
        <time>2024-04-28T08:54:38Z</time>
      </trkpt>
      <trkpt lat="45.63837" lon="3.24678">
        <ele>481.8</ele>
        <time>2024-04-28T08:54:39Z</time>
      </trkpt>
      <trkpt lat="45.63837" lon="3.24667">
        <ele>481.8</ele>
        <time>2024-04-28T08:54:40Z</time>
      </trkpt>
      <trkpt lat="45.63837" lon="3.24656">
        <ele>481.6</ele>
        <time>2024-04-28T08:54:41Z</time>
      </trkpt>
      <trkpt lat="45.63837" lon="3.24644">
        <ele>481.6</ele>
        <time>2024-04-28T08:54:42Z</time>
      </trkpt>
      <trkpt lat="45.63839" lon="3.24634">
        <ele>481.6</ele>
        <time>2024-04-28T08:54:43Z</time>
      </trkpt>
      <trkpt lat="45.6384" lon="3.24624">
        <ele>481.6</ele>
        <time>2024-04-28T08:54:44Z</time>
      </trkpt>
      <trkpt lat="45.63841" lon="3.24614">
        <ele>481.4</ele>
        <time>2024-04-28T08:54:45Z</time>
      </trkpt>
      <trkpt lat="45.63842" lon="3.24603">
        <ele>481.4</ele>
        <time>2024-04-28T08:54:46Z</time>
      </trkpt>
      <trkpt lat="45.63843" lon="3.24593">
        <ele>481.4</ele>
        <time>2024-04-28T08:54:47Z</time>
      </trkpt>
      <trkpt lat="45.63844" lon="3.24583">
        <ele>481.2</ele>
        <time>2024-04-28T08:54:48Z</time>
      </trkpt>
      <trkpt lat="45.63845" lon="3.24573">
        <ele>481.2</ele>
        <time>2024-04-28T08:54:49Z</time>
      </trkpt>
      <trkpt lat="45.63846" lon="3.24563">
        <ele>481.2</ele>
        <time>2024-04-28T08:54:50Z</time>
      </trkpt>
      <trkpt lat="45.63847" lon="3.24553">
        <ele>481.2</ele>
        <time>2024-04-28T08:54:51Z</time>
      </trkpt>
      <trkpt lat="45.63848" lon="3.24543">
        <ele>481.2</ele>
        <time>2024-04-28T08:54:52Z</time>
      </trkpt>
      <trkpt lat="45.63849" lon="3.24532">
        <ele>481.2</ele>
        <time>2024-04-28T08:54:53Z</time>
      </trkpt>
      <trkpt lat="45.6385" lon="3.24522">
        <ele>481.2</ele>
        <time>2024-04-28T08:54:54Z</time>
      </trkpt>
      <trkpt lat="45.63851" lon="3.24512">
        <ele>481</ele>
        <time>2024-04-28T08:54:55Z</time>
      </trkpt>
      <trkpt lat="45.63852" lon="3.24502">
        <ele>481</ele>
        <time>2024-04-28T08:54:56Z</time>
      </trkpt>
      <trkpt lat="45.63853" lon="3.24492">
        <ele>481</ele>
        <time>2024-04-28T08:54:57Z</time>
      </trkpt>
      <trkpt lat="45.63854" lon="3.24482">
        <ele>481</ele>
        <time>2024-04-28T08:54:58Z</time>
      </trkpt>
      <trkpt lat="45.63855" lon="3.24472">
        <ele>481</ele>
        <time>2024-04-28T08:54:59Z</time>
      </trkpt>
      <trkpt lat="45.63856" lon="3.24462">
        <ele>481</ele>
        <time>2024-04-28T08:55:00Z</time>
      </trkpt>
      <trkpt lat="45.63858" lon="3.24452">
        <ele>481</ele>
        <time>2024-04-28T08:55:01Z</time>
      </trkpt>
      <trkpt lat="45.63859" lon="3.24442">
        <ele>481</ele>
        <time>2024-04-28T08:55:02Z</time>
      </trkpt>
      <trkpt lat="45.6386" lon="3.24432">
        <ele>480.8</ele>
        <time>2024-04-28T08:55:03Z</time>
      </trkpt>
      <trkpt lat="45.63861" lon="3.24422">
        <ele>480.8</ele>
        <time>2024-04-28T08:55:04Z</time>
      </trkpt>
      <trkpt lat="45.63862" lon="3.24412">
        <ele>480.8</ele>
        <time>2024-04-28T08:55:05Z</time>
      </trkpt>
      <trkpt lat="45.63864" lon="3.24402">
        <ele>480.8</ele>
        <time>2024-04-28T08:55:06Z</time>
      </trkpt>
      <trkpt lat="45.63867" lon="3.24393">
        <ele>480.8</ele>
        <time>2024-04-28T08:55:07Z</time>
      </trkpt>
      <trkpt lat="45.6387" lon="3.24384">
        <ele>480.8</ele>
        <time>2024-04-28T08:55:08Z</time>
      </trkpt>
      <trkpt lat="45.63873" lon="3.24375">
        <ele>480.6</ele>
        <time>2024-04-28T08:55:09Z</time>
      </trkpt>
      <trkpt lat="45.63876" lon="3.24366">
        <ele>480.6</ele>
        <time>2024-04-28T08:55:10Z</time>
      </trkpt>
      <trkpt lat="45.63879" lon="3.24357">
        <ele>480.6</ele>
        <time>2024-04-28T08:55:11Z</time>
      </trkpt>
      <trkpt lat="45.63882" lon="3.24347">
        <ele>480.6</ele>
        <time>2024-04-28T08:55:12Z</time>
      </trkpt>
      <trkpt lat="45.63886" lon="3.24339">
        <ele>480.6</ele>
        <time>2024-04-28T08:55:13Z</time>
      </trkpt>
      <trkpt lat="45.6389" lon="3.24331">
        <ele>480.6</ele>
        <time>2024-04-28T08:55:14Z</time>
      </trkpt>
      <trkpt lat="45.63895" lon="3.24323">
        <ele>480.6</ele>
        <time>2024-04-28T08:55:15Z</time>
      </trkpt>
      <trkpt lat="45.63899" lon="3.24315">
        <ele>480.6</ele>
        <time>2024-04-28T08:55:16Z</time>
      </trkpt>
      <trkpt lat="45.63903" lon="3.24307">
        <ele>480.6</ele>
        <time>2024-04-28T08:55:17Z</time>
      </trkpt>
      <trkpt lat="45.63907" lon="3.24299">
        <ele>480.6</ele>
        <time>2024-04-28T08:55:18Z</time>
      </trkpt>
      <trkpt lat="45.63911" lon="3.24291">
        <ele>480.6</ele>
        <time>2024-04-28T08:55:19Z</time>
      </trkpt>
      <trkpt lat="45.63915" lon="3.24284">
        <ele>480.6</ele>
        <time>2024-04-28T08:55:20Z</time>
      </trkpt>
      <trkpt lat="45.6392" lon="3.24275">
        <ele>480.6</ele>
        <time>2024-04-28T08:55:21Z</time>
      </trkpt>
      <trkpt lat="45.63925" lon="3.24269">
        <ele>480.6</ele>
        <time>2024-04-28T08:55:22Z</time>
      </trkpt>
      <trkpt lat="45.6393" lon="3.24263">
        <ele>480.6</ele>
        <time>2024-04-28T08:55:23Z</time>
      </trkpt>
      <trkpt lat="45.63936" lon="3.24257">
        <ele>480.6</ele>
        <time>2024-04-28T08:55:24Z</time>
      </trkpt>
      <trkpt lat="45.63941" lon="3.2425">
        <ele>480.6</ele>
        <time>2024-04-28T08:55:25Z</time>
      </trkpt>
      <trkpt lat="45.63946" lon="3.24244">
        <ele>480.6</ele>
        <time>2024-04-28T08:55:26Z</time>
      </trkpt>
      <trkpt lat="45.63951" lon="3.24238">
        <ele>480.6</ele>
        <time>2024-04-28T08:55:27Z</time>
      </trkpt>
      <trkpt lat="45.63957" lon="3.24232">
        <ele>480.6</ele>
        <time>2024-04-28T08:55:28Z</time>
      </trkpt>
      <trkpt lat="45.63962" lon="3.24225">
        <ele>480.6</ele>
        <time>2024-04-28T08:55:29Z</time>
      </trkpt>
      <trkpt lat="45.63968" lon="3.24219">
        <ele>480.6</ele>
        <time>2024-04-28T08:55:30Z</time>
      </trkpt>
      <trkpt lat="45.63973" lon="3.24213">
        <ele>480.4</ele>
        <time>2024-04-28T08:55:31Z</time>
      </trkpt>
      <trkpt lat="45.63979" lon="3.24206">
        <ele>480.4</ele>
        <time>2024-04-28T08:55:32Z</time>
      </trkpt>
      <trkpt lat="45.63984" lon="3.242">
        <ele>480.4</ele>
        <time>2024-04-28T08:55:33Z</time>
      </trkpt>
      <trkpt lat="45.6399" lon="3.24193">
        <ele>480.6</ele>
        <time>2024-04-28T08:55:34Z</time>
      </trkpt>
      <trkpt lat="45.63995" lon="3.24187">
        <ele>480.6</ele>
        <time>2024-04-28T08:55:35Z</time>
      </trkpt>
      <trkpt lat="45.64001" lon="3.2418">
        <ele>480.6</ele>
        <time>2024-04-28T08:55:36Z</time>
      </trkpt>
      <trkpt lat="45.64007" lon="3.24173">
        <ele>480.4</ele>
        <time>2024-04-28T08:55:37Z</time>
      </trkpt>
      <trkpt lat="45.64012" lon="3.24166">
        <ele>480.4</ele>
        <time>2024-04-28T08:55:38Z</time>
      </trkpt>
      <trkpt lat="45.64018" lon="3.2416">
        <ele>480.4</ele>
        <time>2024-04-28T08:55:39Z</time>
      </trkpt>
      <trkpt lat="45.64024" lon="3.24153">
        <ele>480.4</ele>
        <time>2024-04-28T08:55:40Z</time>
      </trkpt>
      <trkpt lat="45.64029" lon="3.24145">
        <ele>480.2</ele>
        <time>2024-04-28T08:55:41Z</time>
      </trkpt>
      <trkpt lat="45.64035" lon="3.24138">
        <ele>480.2</ele>
        <time>2024-04-28T08:55:42Z</time>
      </trkpt>
      <trkpt lat="45.6404" lon="3.24131">
        <ele>480.2</ele>
        <time>2024-04-28T08:55:43Z</time>
      </trkpt>
      <trkpt lat="45.64046" lon="3.24123">
        <ele>480</ele>
        <time>2024-04-28T08:55:44Z</time>
      </trkpt>
      <trkpt lat="45.64052" lon="3.24115">
        <ele>479.8</ele>
        <time>2024-04-28T08:55:45Z</time>
      </trkpt>
      <trkpt lat="45.64058" lon="3.24107">
        <ele>479.8</ele>
        <time>2024-04-28T08:55:46Z</time>
      </trkpt>
      <trkpt lat="45.64064" lon="3.24099">
        <ele>479.6</ele>
        <time>2024-04-28T08:55:47Z</time>
      </trkpt>
      <trkpt lat="45.64069" lon="3.24089">
        <ele>479.6</ele>
        <time>2024-04-28T08:55:48Z</time>
      </trkpt>
      <trkpt lat="45.64074" lon="3.24079">
        <ele>479.4</ele>
        <time>2024-04-28T08:55:49Z</time>
      </trkpt>
      <trkpt lat="45.64079" lon="3.24069">
        <ele>479.4</ele>
        <time>2024-04-28T08:55:50Z</time>
      </trkpt>
      <trkpt lat="45.64084" lon="3.24059">
        <ele>479.2</ele>
        <time>2024-04-28T08:55:51Z</time>
      </trkpt>
      <trkpt lat="45.64088" lon="3.24048">
        <ele>479.2</ele>
        <time>2024-04-28T08:55:52Z</time>
      </trkpt>
      <trkpt lat="45.64092" lon="3.24037">
        <ele>479</ele>
        <time>2024-04-28T08:55:53Z</time>
      </trkpt>
      <trkpt lat="45.64096" lon="3.24025">
        <ele>478.8</ele>
        <time>2024-04-28T08:55:54Z</time>
      </trkpt>
      <trkpt lat="45.641" lon="3.24014">
        <ele>478.8</ele>
        <time>2024-04-28T08:55:55Z</time>
      </trkpt>
      <trkpt lat="45.64102" lon="3.24002">
        <ele>478.6</ele>
        <time>2024-04-28T08:55:56Z</time>
      </trkpt>
      <trkpt lat="45.64105" lon="3.23989">
        <ele>478.4</ele>
        <time>2024-04-28T08:55:57Z</time>
      </trkpt>
      <trkpt lat="45.64107" lon="3.23976">
        <ele>478.2</ele>
        <time>2024-04-28T08:55:58Z</time>
      </trkpt>
      <trkpt lat="45.64109" lon="3.23963">
        <ele>478.2</ele>
        <time>2024-04-28T08:55:59Z</time>
      </trkpt>
      <trkpt lat="45.64111" lon="3.2395">
        <ele>478</ele>
        <time>2024-04-28T08:56:00Z</time>
      </trkpt>
      <trkpt lat="45.64113" lon="3.23937">
        <ele>477.8</ele>
        <time>2024-04-28T08:56:01Z</time>
      </trkpt>
      <trkpt lat="45.64115" lon="3.23924">
        <ele>477.6</ele>
        <time>2024-04-28T08:56:02Z</time>
      </trkpt>
      <trkpt lat="45.64117" lon="3.23911">
        <ele>477.6</ele>
        <time>2024-04-28T08:56:03Z</time>
      </trkpt>
      <trkpt lat="45.64119" lon="3.23898">
        <ele>477.4</ele>
        <time>2024-04-28T08:56:04Z</time>
      </trkpt>
      <trkpt lat="45.64121" lon="3.23885">
        <ele>477.2</ele>
        <time>2024-04-28T08:56:05Z</time>
      </trkpt>
      <trkpt lat="45.64123" lon="3.23872">
        <ele>477.2</ele>
        <time>2024-04-28T08:56:06Z</time>
      </trkpt>
      <trkpt lat="45.64124" lon="3.2386">
        <ele>477</ele>
        <time>2024-04-28T08:56:07Z</time>
      </trkpt>
      <trkpt lat="45.64126" lon="3.23848">
        <ele>476.8</ele>
        <time>2024-04-28T08:56:08Z</time>
      </trkpt>
      <trkpt lat="45.64128" lon="3.23835">
        <ele>476.8</ele>
        <time>2024-04-28T08:56:09Z</time>
      </trkpt>
      <trkpt lat="45.6413" lon="3.23823">
        <ele>476.6</ele>
        <time>2024-04-28T08:56:10Z</time>
      </trkpt>
      <trkpt lat="45.64132" lon="3.23811">
        <ele>476.4</ele>
        <time>2024-04-28T08:56:11Z</time>
      </trkpt>
      <trkpt lat="45.64134" lon="3.23799">
        <ele>476.4</ele>
        <time>2024-04-28T08:56:12Z</time>
      </trkpt>
      <trkpt lat="45.64136" lon="3.23788">
        <ele>476.2</ele>
        <time>2024-04-28T08:56:13Z</time>
      </trkpt>
      <trkpt lat="45.64138" lon="3.23776">
        <ele>476.2</ele>
        <time>2024-04-28T08:56:14Z</time>
      </trkpt>
      <trkpt lat="45.64139" lon="3.23765">
        <ele>476</ele>
        <time>2024-04-28T08:56:15Z</time>
      </trkpt>
      <trkpt lat="45.6414" lon="3.23754">
        <ele>475.8</ele>
        <time>2024-04-28T08:56:16Z</time>
      </trkpt>
      <trkpt lat="45.64141" lon="3.23743">
        <ele>475.8</ele>
        <time>2024-04-28T08:56:17Z</time>
      </trkpt>
      <trkpt lat="45.64141" lon="3.23731">
        <ele>475.6</ele>
        <time>2024-04-28T08:56:18Z</time>
      </trkpt>
      <trkpt lat="45.64142" lon="3.23721">
        <ele>475.6</ele>
        <time>2024-04-28T08:56:19Z</time>
      </trkpt>
      <trkpt lat="45.64142" lon="3.2371">
        <ele>475.4</ele>
        <time>2024-04-28T08:56:20Z</time>
      </trkpt>
      <trkpt lat="45.64143" lon="3.23699">
        <ele>475.2</ele>
        <time>2024-04-28T08:56:21Z</time>
      </trkpt>
      <trkpt lat="45.64144" lon="3.23688">
        <ele>475.2</ele>
        <time>2024-04-28T08:56:22Z</time>
      </trkpt>
      <trkpt lat="45.64146" lon="3.23678">
        <ele>475</ele>
        <time>2024-04-28T08:56:23Z</time>
      </trkpt>
      <trkpt lat="45.64148" lon="3.23669">
        <ele>474.8</ele>
        <time>2024-04-28T08:56:24Z</time>
      </trkpt>
      <trkpt lat="45.6415" lon="3.2366">
        <ele>474.8</ele>
        <time>2024-04-28T08:56:25Z</time>
      </trkpt>
      <trkpt lat="45.64157" lon="3.23657">
        <ele>474.6</ele>
        <time>2024-04-28T08:56:26Z</time>
      </trkpt>
      <trkpt lat="45.64164" lon="3.23652">
        <ele>474.4</ele>
        <time>2024-04-28T08:56:27Z</time>
      </trkpt>
      <trkpt lat="45.64169" lon="3.23639">
        <ele>474.2</ele>
        <time>2024-04-28T08:56:28Z</time>
      </trkpt>
      <trkpt lat="45.64173" lon="3.2363">
        <ele>474</ele>
        <time>2024-04-28T08:56:29Z</time>
      </trkpt>
      <trkpt lat="45.64177" lon="3.2362">
        <ele>473.8</ele>
        <time>2024-04-28T08:56:30Z</time>
      </trkpt>
      <trkpt lat="45.64181" lon="3.2361">
        <ele>473.6</ele>
        <time>2024-04-28T08:56:31Z</time>
      </trkpt>
      <trkpt lat="45.64185" lon="3.23599">
        <ele>473.4</ele>
        <time>2024-04-28T08:56:32Z</time>
      </trkpt>
      <trkpt lat="45.64188" lon="3.23589">
        <ele>473.2</ele>
        <time>2024-04-28T08:56:33Z</time>
      </trkpt>
      <trkpt lat="45.64192" lon="3.23579">
        <ele>473.2</ele>
        <time>2024-04-28T08:56:34Z</time>
      </trkpt>
      <trkpt lat="45.64197" lon="3.23568">
        <ele>472.8</ele>
        <time>2024-04-28T08:56:35Z</time>
      </trkpt>
      <trkpt lat="45.64201" lon="3.23557">
        <ele>472.6</ele>
        <time>2024-04-28T08:56:36Z</time>
      </trkpt>
      <trkpt lat="45.64206" lon="3.23546">
        <ele>472.4</ele>
        <time>2024-04-28T08:56:37Z</time>
      </trkpt>
      <trkpt lat="45.64211" lon="3.23535">
        <ele>472.2</ele>
        <time>2024-04-28T08:56:38Z</time>
      </trkpt>
      <trkpt lat="45.64216" lon="3.23524">
        <ele>471.8</ele>
        <time>2024-04-28T08:56:39Z</time>
      </trkpt>
      <trkpt lat="45.64221" lon="3.23512">
        <ele>471.6</ele>
        <time>2024-04-28T08:56:40Z</time>
      </trkpt>
      <trkpt lat="45.64226" lon="3.235">
        <ele>471.4</ele>
        <time>2024-04-28T08:56:41Z</time>
      </trkpt>
      <trkpt lat="45.64232" lon="3.23489">
        <ele>471.2</ele>
        <time>2024-04-28T08:56:42Z</time>
      </trkpt>
      <trkpt lat="45.64239" lon="3.23478">
        <ele>471</ele>
        <time>2024-04-28T08:56:43Z</time>
      </trkpt>
      <trkpt lat="45.64245" lon="3.23466">
        <ele>470.6</ele>
        <time>2024-04-28T08:56:44Z</time>
      </trkpt>
      <trkpt lat="45.64251" lon="3.23455">
        <ele>470.4</ele>
        <time>2024-04-28T08:56:45Z</time>
      </trkpt>
      <trkpt lat="45.64257" lon="3.23444">
        <ele>470.2</ele>
        <time>2024-04-28T08:56:46Z</time>
      </trkpt>
      <trkpt lat="45.64265" lon="3.23435">
        <ele>470</ele>
        <time>2024-04-28T08:56:47Z</time>
      </trkpt>
      <trkpt lat="45.64272" lon="3.23426">
        <ele>469.8</ele>
        <time>2024-04-28T08:56:48Z</time>
      </trkpt>
      <trkpt lat="45.64279" lon="3.23417">
        <ele>469.6</ele>
        <time>2024-04-28T08:56:49Z</time>
      </trkpt>
      <trkpt lat="45.64286" lon="3.23408">
        <ele>469.4</ele>
        <time>2024-04-28T08:56:50Z</time>
      </trkpt>
      <trkpt lat="45.64293" lon="3.23399">
        <ele>469.2</ele>
        <time>2024-04-28T08:56:51Z</time>
      </trkpt>
      <trkpt lat="45.643" lon="3.2339">
        <ele>469</ele>
        <time>2024-04-28T08:56:52Z</time>
      </trkpt>
      <trkpt lat="45.64306" lon="3.23382">
        <ele>469</ele>
        <time>2024-04-28T08:56:53Z</time>
      </trkpt>
      <trkpt lat="45.64312" lon="3.23374">
        <ele>468.8</ele>
        <time>2024-04-28T08:56:54Z</time>
      </trkpt>
      <trkpt lat="45.64319" lon="3.23366">
        <ele>468.6</ele>
        <time>2024-04-28T08:56:55Z</time>
      </trkpt>
      <trkpt lat="45.64325" lon="3.23358">
        <ele>468.4</ele>
        <time>2024-04-28T08:56:56Z</time>
      </trkpt>
      <trkpt lat="45.64331" lon="3.23351">
        <ele>468.2</ele>
        <time>2024-04-28T08:56:57Z</time>
      </trkpt>
      <trkpt lat="45.64337" lon="3.23343">
        <ele>468</ele>
        <time>2024-04-28T08:56:58Z</time>
      </trkpt>
      <trkpt lat="45.64341" lon="3.23333">
        <ele>467.8</ele>
        <time>2024-04-28T08:56:59Z</time>
      </trkpt>
      <trkpt lat="45.64345" lon="3.23324">
        <ele>467.6</ele>
        <time>2024-04-28T08:57:00Z</time>
      </trkpt>
      <trkpt lat="45.6435" lon="3.23314">
        <ele>467.6</ele>
        <time>2024-04-28T08:57:01Z</time>
      </trkpt>
      <trkpt lat="45.64354" lon="3.23304">
        <ele>467.4</ele>
        <time>2024-04-28T08:57:02Z</time>
      </trkpt>
      <trkpt lat="45.64358" lon="3.23295">
        <ele>467.2</ele>
        <time>2024-04-28T08:57:03Z</time>
      </trkpt>
      <trkpt lat="45.64363" lon="3.23286">
        <ele>467</ele>
        <time>2024-04-28T08:57:04Z</time>
      </trkpt>
      <trkpt lat="45.64367" lon="3.23276">
        <ele>466.8</ele>
        <time>2024-04-28T08:57:05Z</time>
      </trkpt>
      <trkpt lat="45.64371" lon="3.23267">
        <ele>466.8</ele>
        <time>2024-04-28T08:57:06Z</time>
      </trkpt>
      <trkpt lat="45.64375" lon="3.23257">
        <ele>466.6</ele>
        <time>2024-04-28T08:57:07Z</time>
      </trkpt>
      <trkpt lat="45.64379" lon="3.23248">
        <ele>466.4</ele>
        <time>2024-04-28T08:57:08Z</time>
      </trkpt>
      <trkpt lat="45.64383" lon="3.23239">
        <ele>466.2</ele>
        <time>2024-04-28T08:57:09Z</time>
      </trkpt>
      <trkpt lat="45.64387" lon="3.2323">
        <ele>466.2</ele>
        <time>2024-04-28T08:57:10Z</time>
      </trkpt>
      <trkpt lat="45.64392" lon="3.23221">
        <ele>466</ele>
        <time>2024-04-28T08:57:11Z</time>
      </trkpt>
      <trkpt lat="45.64396" lon="3.23211">
        <ele>466</ele>
        <time>2024-04-28T08:57:12Z</time>
      </trkpt>
      <trkpt lat="45.644" lon="3.23202">
        <ele>466</ele>
        <time>2024-04-28T08:57:13Z</time>
      </trkpt>
      <trkpt lat="45.64404" lon="3.23193">
        <ele>466</ele>
        <time>2024-04-28T08:57:14Z</time>
      </trkpt>
      <trkpt lat="45.64408" lon="3.23184">
        <ele>465.8</ele>
        <time>2024-04-28T08:57:15Z</time>
      </trkpt>
      <trkpt lat="45.64412" lon="3.23175">
        <ele>465.6</ele>
        <time>2024-04-28T08:57:16Z</time>
      </trkpt>
      <trkpt lat="45.64415" lon="3.23165">
        <ele>465.6</ele>
        <time>2024-04-28T08:57:17Z</time>
      </trkpt>
      <trkpt lat="45.64418" lon="3.23155">
        <ele>465.4</ele>
        <time>2024-04-28T08:57:18Z</time>
      </trkpt>
      <trkpt lat="45.64419" lon="3.23146">
        <ele>465.4</ele>
        <time>2024-04-28T08:57:19Z</time>
      </trkpt>
      <trkpt lat="45.64419" lon="3.23136">
        <ele>465.2</ele>
        <time>2024-04-28T08:57:20Z</time>
      </trkpt>
      <trkpt lat="45.6442" lon="3.23126">
        <ele>465.2</ele>
        <time>2024-04-28T08:57:21Z</time>
      </trkpt>
      <trkpt lat="45.6442" lon="3.23117">
        <ele>465</ele>
        <time>2024-04-28T08:57:22Z</time>
      </trkpt>
      <trkpt lat="45.64424" lon="3.2311">
        <ele>465</ele>
        <time>2024-04-28T08:57:23Z</time>
      </trkpt>
      <trkpt lat="45.64429" lon="3.23105">
        <ele>464.8</ele>
        <time>2024-04-28T08:57:24Z</time>
      </trkpt>
      <trkpt lat="45.64434" lon="3.23101">
        <ele>464.8</ele>
        <time>2024-04-28T08:57:25Z</time>
      </trkpt>
      <trkpt lat="45.64441" lon="3.231">
        <ele>464.4</ele>
        <time>2024-04-28T08:57:26Z</time>
      </trkpt>
      <trkpt lat="45.64448" lon="3.23107">
        <ele>464.2</ele>
        <time>2024-04-28T08:57:27Z</time>
      </trkpt>
      <trkpt lat="45.64453" lon="3.23109">
        <ele>464.2</ele>
        <time>2024-04-28T08:57:28Z</time>
      </trkpt>
      <trkpt lat="45.64461" lon="3.23107">
        <ele>463.8</ele>
        <time>2024-04-28T08:57:29Z</time>
      </trkpt>
      <trkpt lat="45.64468" lon="3.23102">
        <ele>463.6</ele>
        <time>2024-04-28T08:57:30Z</time>
      </trkpt>
      <trkpt lat="45.64472" lon="3.23091">
        <ele>463.6</ele>
        <time>2024-04-28T08:57:31Z</time>
      </trkpt>
      <trkpt lat="45.64472" lon="3.23082">
        <ele>463.4</ele>
        <time>2024-04-28T08:57:32Z</time>
      </trkpt>
      <trkpt lat="45.6447" lon="3.23071">
        <ele>463.4</ele>
        <time>2024-04-28T08:57:33Z</time>
      </trkpt>
      <trkpt lat="45.64469" lon="3.23063">
        <ele>463.2</ele>
        <time>2024-04-28T08:57:34Z</time>
      </trkpt>
      <trkpt lat="45.64468" lon="3.23054">
        <ele>463</ele>
        <time>2024-04-28T08:57:35Z</time>
      </trkpt>
      <trkpt lat="45.64469" lon="3.23043">
        <ele>462.8</ele>
        <time>2024-04-28T08:57:36Z</time>
      </trkpt>
      <trkpt lat="45.64472" lon="3.23033">
        <ele>462.6</ele>
        <time>2024-04-28T08:57:37Z</time>
      </trkpt>
      <trkpt lat="45.64475" lon="3.23024">
        <ele>462.4</ele>
        <time>2024-04-28T08:57:38Z</time>
      </trkpt>
      <trkpt lat="45.64478" lon="3.23014">
        <ele>462.2</ele>
        <time>2024-04-28T08:57:39Z</time>
      </trkpt>
      <trkpt lat="45.64482" lon="3.23004">
        <ele>461.8</ele>
        <time>2024-04-28T08:57:40Z</time>
      </trkpt>
      <trkpt lat="45.64485" lon="3.22993">
        <ele>461.6</ele>
        <time>2024-04-28T08:57:41Z</time>
      </trkpt>
      <trkpt lat="45.64488" lon="3.22983">
        <ele>461.4</ele>
        <time>2024-04-28T08:57:42Z</time>
      </trkpt>
      <trkpt lat="45.64492" lon="3.22972">
        <ele>461.2</ele>
        <time>2024-04-28T08:57:43Z</time>
      </trkpt>
      <trkpt lat="45.64495" lon="3.22961">
        <ele>461</ele>
        <time>2024-04-28T08:57:44Z</time>
      </trkpt>
      <trkpt lat="45.64499" lon="3.2295">
        <ele>460.8</ele>
        <time>2024-04-28T08:57:45Z</time>
      </trkpt>
      <trkpt lat="45.64502" lon="3.2294">
        <ele>460.6</ele>
        <time>2024-04-28T08:57:46Z</time>
      </trkpt>
      <trkpt lat="45.64506" lon="3.22928">
        <ele>460.4</ele>
        <time>2024-04-28T08:57:47Z</time>
      </trkpt>
      <trkpt lat="45.6451" lon="3.22917">
        <ele>460</ele>
        <time>2024-04-28T08:57:48Z</time>
      </trkpt>
      <trkpt lat="45.64513" lon="3.22906">
        <ele>459.8</ele>
        <time>2024-04-28T08:57:49Z</time>
      </trkpt>
      <trkpt lat="45.64517" lon="3.22894">
        <ele>459.6</ele>
        <time>2024-04-28T08:57:50Z</time>
      </trkpt>
      <trkpt lat="45.64521" lon="3.22882">
        <ele>459.2</ele>
        <time>2024-04-28T08:57:51Z</time>
      </trkpt>
      <trkpt lat="45.64524" lon="3.22871">
        <ele>459</ele>
        <time>2024-04-28T08:57:52Z</time>
      </trkpt>
      <trkpt lat="45.64528" lon="3.22859">
        <ele>458.8</ele>
        <time>2024-04-28T08:57:53Z</time>
      </trkpt>
      <trkpt lat="45.64532" lon="3.22847">
        <ele>458.6</ele>
        <time>2024-04-28T08:57:54Z</time>
      </trkpt>
      <trkpt lat="45.64536" lon="3.22836">
        <ele>458.2</ele>
        <time>2024-04-28T08:57:55Z</time>
      </trkpt>
      <trkpt lat="45.64541" lon="3.22824">
        <ele>458</ele>
        <time>2024-04-28T08:57:56Z</time>
      </trkpt>
      <trkpt lat="45.64545" lon="3.22812">
        <ele>457.6</ele>
        <time>2024-04-28T08:57:57Z</time>
      </trkpt>
      <trkpt lat="45.64549" lon="3.22801">
        <ele>457.4</ele>
        <time>2024-04-28T08:57:58Z</time>
      </trkpt>
      <trkpt lat="45.64553" lon="3.22789">
        <ele>457</ele>
        <time>2024-04-28T08:57:59Z</time>
      </trkpt>
      <trkpt lat="45.64557" lon="3.22778">
        <ele>456.8</ele>
        <time>2024-04-28T08:58:00Z</time>
      </trkpt>
      <trkpt lat="45.64562" lon="3.22766">
        <ele>456.6</ele>
        <time>2024-04-28T08:58:01Z</time>
      </trkpt>
      <trkpt lat="45.64566" lon="3.22755">
        <ele>456.4</ele>
        <time>2024-04-28T08:58:02Z</time>
      </trkpt>
      <trkpt lat="45.6457" lon="3.22744">
        <ele>456</ele>
        <time>2024-04-28T08:58:03Z</time>
      </trkpt>
      <trkpt lat="45.64574" lon="3.22732">
        <ele>455.8</ele>
        <time>2024-04-28T08:58:04Z</time>
      </trkpt>
      <trkpt lat="45.64578" lon="3.2272">
        <ele>455.6</ele>
        <time>2024-04-28T08:58:05Z</time>
      </trkpt>
      <trkpt lat="45.64583" lon="3.22708">
        <ele>455.2</ele>
        <time>2024-04-28T08:58:06Z</time>
      </trkpt>
      <trkpt lat="45.64587" lon="3.22696">
        <ele>455</ele>
        <time>2024-04-28T08:58:07Z</time>
      </trkpt>
      <trkpt lat="45.64591" lon="3.22685">
        <ele>454.8</ele>
        <time>2024-04-28T08:58:08Z</time>
      </trkpt>
      <trkpt lat="45.64595" lon="3.22673">
        <ele>454.4</ele>
        <time>2024-04-28T08:58:09Z</time>
      </trkpt>
      <trkpt lat="45.646" lon="3.22661">
        <ele>454.2</ele>
        <time>2024-04-28T08:58:10Z</time>
      </trkpt>
      <trkpt lat="45.64604" lon="3.22649">
        <ele>453.8</ele>
        <time>2024-04-28T08:58:11Z</time>
      </trkpt>
      <trkpt lat="45.64608" lon="3.22637">
        <ele>453.6</ele>
        <time>2024-04-28T08:58:12Z</time>
      </trkpt>
      <trkpt lat="45.64614" lon="3.22625">
        <ele>453.2</ele>
        <time>2024-04-28T08:58:13Z</time>
      </trkpt>
      <trkpt lat="45.64619" lon="3.22613">
        <ele>453</ele>
        <time>2024-04-28T08:58:14Z</time>
      </trkpt>
      <trkpt lat="45.64624" lon="3.22601">
        <ele>452.6</ele>
        <time>2024-04-28T08:58:15Z</time>
      </trkpt>
      <trkpt lat="45.64629" lon="3.22589">
        <ele>452.4</ele>
        <time>2024-04-28T08:58:16Z</time>
      </trkpt>
      <trkpt lat="45.64634" lon="3.22577">
        <ele>452</ele>
        <time>2024-04-28T08:58:17Z</time>
      </trkpt>
      <trkpt lat="45.64639" lon="3.22565">
        <ele>451.8</ele>
        <time>2024-04-28T08:58:18Z</time>
      </trkpt>
      <trkpt lat="45.64644" lon="3.22554">
        <ele>451.6</ele>
        <time>2024-04-28T08:58:19Z</time>
      </trkpt>
      <trkpt lat="45.64649" lon="3.22542">
        <ele>451.2</ele>
        <time>2024-04-28T08:58:20Z</time>
      </trkpt>
      <trkpt lat="45.64654" lon="3.2253">
        <ele>451</ele>
        <time>2024-04-28T08:58:21Z</time>
      </trkpt>
      <trkpt lat="45.64659" lon="3.22518">
        <ele>450.6</ele>
        <time>2024-04-28T08:58:22Z</time>
      </trkpt>
      <trkpt lat="45.64664" lon="3.22507">
        <ele>450.4</ele>
        <time>2024-04-28T08:58:23Z</time>
      </trkpt>
      <trkpt lat="45.64669" lon="3.22495">
        <ele>450</ele>
        <time>2024-04-28T08:58:24Z</time>
      </trkpt>
      <trkpt lat="45.64674" lon="3.22484">
        <ele>449.8</ele>
        <time>2024-04-28T08:58:25Z</time>
      </trkpt>
      <trkpt lat="45.64679" lon="3.22473">
        <ele>449.6</ele>
        <time>2024-04-28T08:58:26Z</time>
      </trkpt>
      <trkpt lat="45.64685" lon="3.22461">
        <ele>449.2</ele>
        <time>2024-04-28T08:58:27Z</time>
      </trkpt>
      <trkpt lat="45.6469" lon="3.2245">
        <ele>449</ele>
        <time>2024-04-28T08:58:28Z</time>
      </trkpt>
      <trkpt lat="45.64696" lon="3.22438">
        <ele>448.8</ele>
        <time>2024-04-28T08:58:29Z</time>
      </trkpt>
      <trkpt lat="45.64701" lon="3.22427">
        <ele>448.4</ele>
        <time>2024-04-28T08:58:30Z</time>
      </trkpt>
      <trkpt lat="45.64706" lon="3.22416">
        <ele>448.2</ele>
        <time>2024-04-28T08:58:31Z</time>
      </trkpt>
      <trkpt lat="45.64712" lon="3.22405">
        <ele>448</ele>
        <time>2024-04-28T08:58:32Z</time>
      </trkpt>
      <trkpt lat="45.64717" lon="3.22394">
        <ele>447.8</ele>
        <time>2024-04-28T08:58:33Z</time>
      </trkpt>
      <trkpt lat="45.64722" lon="3.22383">
        <ele>447.4</ele>
        <time>2024-04-28T08:58:34Z</time>
      </trkpt>
      <trkpt lat="45.64727" lon="3.22373">
        <ele>447.2</ele>
        <time>2024-04-28T08:58:35Z</time>
      </trkpt>
      <trkpt lat="45.64732" lon="3.22362">
        <ele>446.8</ele>
        <time>2024-04-28T08:58:36Z</time>
      </trkpt>
      <trkpt lat="45.64737" lon="3.22352">
        <ele>446.6</ele>
        <time>2024-04-28T08:58:37Z</time>
      </trkpt>
      <trkpt lat="45.64742" lon="3.22341">
        <ele>446.4</ele>
        <time>2024-04-28T08:58:38Z</time>
      </trkpt>
      <trkpt lat="45.64747" lon="3.22331">
        <ele>446.2</ele>
        <time>2024-04-28T08:58:39Z</time>
      </trkpt>
      <trkpt lat="45.64753" lon="3.22321">
        <ele>445.8</ele>
        <time>2024-04-28T08:58:40Z</time>
      </trkpt>
      <trkpt lat="45.64758" lon="3.22311">
        <ele>445.6</ele>
        <time>2024-04-28T08:58:41Z</time>
      </trkpt>
      <trkpt lat="45.64764" lon="3.223">
        <ele>445.4</ele>
        <time>2024-04-28T08:58:42Z</time>
      </trkpt>
      <trkpt lat="45.64769" lon="3.2229">
        <ele>445</ele>
        <time>2024-04-28T08:58:43Z</time>
      </trkpt>
      <trkpt lat="45.64774" lon="3.2228">
        <ele>444.8</ele>
        <time>2024-04-28T08:58:44Z</time>
      </trkpt>
      <trkpt lat="45.6478" lon="3.22269">
        <ele>444.6</ele>
        <time>2024-04-28T08:58:45Z</time>
      </trkpt>
      <trkpt lat="45.64785" lon="3.22259">
        <ele>444.4</ele>
        <time>2024-04-28T08:58:46Z</time>
      </trkpt>
      <trkpt lat="45.64791" lon="3.22248">
        <ele>444</ele>
        <time>2024-04-28T08:58:47Z</time>
      </trkpt>
      <trkpt lat="45.64796" lon="3.22238">
        <ele>443.8</ele>
        <time>2024-04-28T08:58:48Z</time>
      </trkpt>
      <trkpt lat="45.64802" lon="3.22228">
        <ele>443.6</ele>
        <time>2024-04-28T08:58:49Z</time>
      </trkpt>
      <trkpt lat="45.64807" lon="3.22217">
        <ele>443.4</ele>
        <time>2024-04-28T08:58:50Z</time>
      </trkpt>
      <trkpt lat="45.64812" lon="3.22207">
        <ele>443.2</ele>
        <time>2024-04-28T08:58:51Z</time>
      </trkpt>
      <trkpt lat="45.64818" lon="3.22197">
        <ele>442.8</ele>
        <time>2024-04-28T08:58:52Z</time>
      </trkpt>
      <trkpt lat="45.64818" lon="3.22197">
        <ele>442.6</ele>
        <time>2024-04-28T08:58:53Z</time>
      </trkpt>
      <trkpt lat="45.64829" lon="3.22177">
        <ele>442.4</ele>
        <time>2024-04-28T08:58:54Z</time>
      </trkpt>
      <trkpt lat="45.64834" lon="3.22168">
        <ele>442.2</ele>
        <time>2024-04-28T08:58:55Z</time>
      </trkpt>
      <trkpt lat="45.64839" lon="3.22159">
        <ele>442</ele>
        <time>2024-04-28T08:58:56Z</time>
      </trkpt>
      <trkpt lat="45.64844" lon="3.22149">
        <ele>441.8</ele>
        <time>2024-04-28T08:58:57Z</time>
      </trkpt>
      <trkpt lat="45.64849" lon="3.2214">
        <ele>441.4</ele>
        <time>2024-04-28T08:58:58Z</time>
      </trkpt>
      <trkpt lat="45.64854" lon="3.22131">
        <ele>441.2</ele>
        <time>2024-04-28T08:58:59Z</time>
      </trkpt>
      <trkpt lat="45.6486" lon="3.22121">
        <ele>441</ele>
        <time>2024-04-28T08:59:00Z</time>
      </trkpt>
      <trkpt lat="45.64865" lon="3.22112">
        <ele>440.6</ele>
        <time>2024-04-28T08:59:01Z</time>
      </trkpt>
      <trkpt lat="45.64871" lon="3.22101">
        <ele>440.4</ele>
        <time>2024-04-28T08:59:02Z</time>
      </trkpt>
      <trkpt lat="45.64875" lon="3.22092">
        <ele>440.2</ele>
        <time>2024-04-28T08:59:03Z</time>
      </trkpt>
      <trkpt lat="45.64879" lon="3.22081">
        <ele>440</ele>
        <time>2024-04-28T08:59:04Z</time>
      </trkpt>
      <trkpt lat="45.64883" lon="3.2207">
        <ele>439.6</ele>
        <time>2024-04-28T08:59:05Z</time>
      </trkpt>
      <trkpt lat="45.64888" lon="3.22058">
        <ele>439.4</ele>
        <time>2024-04-28T08:59:06Z</time>
      </trkpt>
      <trkpt lat="45.64893" lon="3.22047">
        <ele>439</ele>
        <time>2024-04-28T08:59:07Z</time>
      </trkpt>
      <trkpt lat="45.64897" lon="3.22035">
        <ele>438.8</ele>
        <time>2024-04-28T08:59:08Z</time>
      </trkpt>
      <trkpt lat="45.64902" lon="3.22023">
        <ele>438.4</ele>
        <time>2024-04-28T08:59:09Z</time>
      </trkpt>
      <trkpt lat="45.64906" lon="3.22011">
        <ele>438.2</ele>
        <time>2024-04-28T08:59:10Z</time>
      </trkpt>
      <trkpt lat="45.64911" lon="3.21998">
        <ele>437.8</ele>
        <time>2024-04-28T08:59:11Z</time>
      </trkpt>
      <trkpt lat="45.64916" lon="3.21986">
        <ele>437.4</ele>
        <time>2024-04-28T08:59:12Z</time>
      </trkpt>
      <trkpt lat="45.6492" lon="3.21973">
        <ele>437</ele>
        <time>2024-04-28T08:59:13Z</time>
      </trkpt>
      <trkpt lat="45.64925" lon="3.2196">
        <ele>436.6</ele>
        <time>2024-04-28T08:59:14Z</time>
      </trkpt>
      <trkpt lat="45.6493" lon="3.21947">
        <ele>436.2</ele>
        <time>2024-04-28T08:59:15Z</time>
      </trkpt>
      <trkpt lat="45.64935" lon="3.21934">
        <ele>435.8</ele>
        <time>2024-04-28T08:59:16Z</time>
      </trkpt>
      <trkpt lat="45.6494" lon="3.2192">
        <ele>435.4</ele>
        <time>2024-04-28T08:59:17Z</time>
      </trkpt>
      <trkpt lat="45.64945" lon="3.21907">
        <ele>435</ele>
        <time>2024-04-28T08:59:18Z</time>
      </trkpt>
      <trkpt lat="45.6495" lon="3.21893">
        <ele>434.6</ele>
        <time>2024-04-28T08:59:19Z</time>
      </trkpt>
      <trkpt lat="45.64956" lon="3.21879">
        <ele>434.4</ele>
        <time>2024-04-28T08:59:20Z</time>
      </trkpt>
      <trkpt lat="45.64961" lon="3.21865">
        <ele>434</ele>
        <time>2024-04-28T08:59:21Z</time>
      </trkpt>
      <trkpt lat="45.64967" lon="3.21852">
        <ele>433.6</ele>
        <time>2024-04-28T08:59:22Z</time>
      </trkpt>
      <trkpt lat="45.64973" lon="3.21839">
        <ele>433.2</ele>
        <time>2024-04-28T08:59:23Z</time>
      </trkpt>
      <trkpt lat="45.64978" lon="3.21826">
        <ele>432.8</ele>
        <time>2024-04-28T08:59:24Z</time>
      </trkpt>
      <trkpt lat="45.64984" lon="3.21814">
        <ele>432.4</ele>
        <time>2024-04-28T08:59:25Z</time>
      </trkpt>
      <trkpt lat="45.6499" lon="3.21801">
        <ele>432</ele>
        <time>2024-04-28T08:59:26Z</time>
      </trkpt>
      <trkpt lat="45.64996" lon="3.21788">
        <ele>431.6</ele>
        <time>2024-04-28T08:59:27Z</time>
      </trkpt>
      <trkpt lat="45.65002" lon="3.21775">
        <ele>431.2</ele>
        <time>2024-04-28T08:59:28Z</time>
      </trkpt>
      <trkpt lat="45.65008" lon="3.21763">
        <ele>430.8</ele>
        <time>2024-04-28T08:59:29Z</time>
      </trkpt>
      <trkpt lat="45.65015" lon="3.21751">
        <ele>430.4</ele>
        <time>2024-04-28T08:59:30Z</time>
      </trkpt>
      <trkpt lat="45.65021" lon="3.2174">
        <ele>430</ele>
        <time>2024-04-28T08:59:31Z</time>
      </trkpt>
      <trkpt lat="45.65027" lon="3.21728">
        <ele>429.6</ele>
        <time>2024-04-28T08:59:32Z</time>
      </trkpt>
      <trkpt lat="45.65033" lon="3.21717">
        <ele>429.2</ele>
        <time>2024-04-28T08:59:33Z</time>
      </trkpt>
      <trkpt lat="45.65039" lon="3.21706">
        <ele>428.8</ele>
        <time>2024-04-28T08:59:34Z</time>
      </trkpt>
      <trkpt lat="45.65045" lon="3.21695">
        <ele>428.4</ele>
        <time>2024-04-28T08:59:35Z</time>
      </trkpt>
      <trkpt lat="45.65051" lon="3.21685">
        <ele>427.8</ele>
        <time>2024-04-28T08:59:36Z</time>
      </trkpt>
      <trkpt lat="45.65057" lon="3.21674">
        <ele>427.4</ele>
        <time>2024-04-28T08:59:37Z</time>
      </trkpt>
      <trkpt lat="45.65062" lon="3.21664">
        <ele>427</ele>
        <time>2024-04-28T08:59:38Z</time>
      </trkpt>
      <trkpt lat="45.65068" lon="3.21653">
        <ele>426.6</ele>
        <time>2024-04-28T08:59:39Z</time>
      </trkpt>
      <trkpt lat="45.65074" lon="3.21643">
        <ele>426.2</ele>
        <time>2024-04-28T08:59:40Z</time>
      </trkpt>
      <trkpt lat="45.65079" lon="3.21633">
        <ele>425.8</ele>
        <time>2024-04-28T08:59:41Z</time>
      </trkpt>
      <trkpt lat="45.65085" lon="3.21622">
        <ele>425.4</ele>
        <time>2024-04-28T08:59:42Z</time>
      </trkpt>
      <trkpt lat="45.65091" lon="3.21612">
        <ele>425</ele>
        <time>2024-04-28T08:59:43Z</time>
      </trkpt>
      <trkpt lat="45.65096" lon="3.21601">
        <ele>424.6</ele>
        <time>2024-04-28T08:59:44Z</time>
      </trkpt>
      <trkpt lat="45.65102" lon="3.2159">
        <ele>424.2</ele>
        <time>2024-04-28T08:59:45Z</time>
      </trkpt>
      <trkpt lat="45.65109" lon="3.21579">
        <ele>423.6</ele>
        <time>2024-04-28T08:59:46Z</time>
      </trkpt>
      <trkpt lat="45.65115" lon="3.21568">
        <ele>423.2</ele>
        <time>2024-04-28T08:59:47Z</time>
      </trkpt>
      <trkpt lat="45.65121" lon="3.21557">
        <ele>422.8</ele>
        <time>2024-04-28T08:59:48Z</time>
      </trkpt>
      <trkpt lat="45.65128" lon="3.21546">
        <ele>422.2</ele>
        <time>2024-04-28T08:59:49Z</time>
      </trkpt>
      <trkpt lat="45.65134" lon="3.21534">
        <ele>421.8</ele>
        <time>2024-04-28T08:59:50Z</time>
      </trkpt>
      <trkpt lat="45.65141" lon="3.21523">
        <ele>421.2</ele>
        <time>2024-04-28T08:59:51Z</time>
      </trkpt>
      <trkpt lat="45.65147" lon="3.21511">
        <ele>420.8</ele>
        <time>2024-04-28T08:59:52Z</time>
      </trkpt>
      <trkpt lat="45.65154" lon="3.215">
        <ele>420.4</ele>
        <time>2024-04-28T08:59:53Z</time>
      </trkpt>
      <trkpt lat="45.65161" lon="3.21488">
        <ele>419.8</ele>
        <time>2024-04-28T08:59:54Z</time>
      </trkpt>
      <trkpt lat="45.65168" lon="3.21476">
        <ele>419.4</ele>
        <time>2024-04-28T08:59:55Z</time>
      </trkpt>
      <trkpt lat="45.65175" lon="3.21466">
        <ele>419</ele>
        <time>2024-04-28T08:59:56Z</time>
      </trkpt>
      <trkpt lat="45.65183" lon="3.21455">
        <ele>418.4</ele>
        <time>2024-04-28T08:59:57Z</time>
      </trkpt>
      <trkpt lat="45.65191" lon="3.21445">
        <ele>418</ele>
        <time>2024-04-28T08:59:58Z</time>
      </trkpt>
      <trkpt lat="45.65199" lon="3.21435">
        <ele>417.4</ele>
        <time>2024-04-28T08:59:59Z</time>
      </trkpt>
      <trkpt lat="45.65207" lon="3.21424">
        <ele>417</ele>
        <time>2024-04-28T09:00:00Z</time>
      </trkpt>
      <trkpt lat="45.65214" lon="3.21414">
        <ele>416.6</ele>
        <time>2024-04-28T09:00:01Z</time>
      </trkpt>
      <trkpt lat="45.65222" lon="3.21404">
        <ele>416</ele>
        <time>2024-04-28T09:00:02Z</time>
      </trkpt>
      <trkpt lat="45.6523" lon="3.21394">
        <ele>415.6</ele>
        <time>2024-04-28T09:00:03Z</time>
      </trkpt>
      <trkpt lat="45.65238" lon="3.21384">
        <ele>415.2</ele>
        <time>2024-04-28T09:00:04Z</time>
      </trkpt>
      <trkpt lat="45.65245" lon="3.21374">
        <ele>414.8</ele>
        <time>2024-04-28T09:00:05Z</time>
      </trkpt>
      <trkpt lat="45.65253" lon="3.21364">
        <ele>414.2</ele>
        <time>2024-04-28T09:00:06Z</time>
      </trkpt>
      <trkpt lat="45.6526" lon="3.21353">
        <ele>413.8</ele>
        <time>2024-04-28T09:00:07Z</time>
      </trkpt>
      <trkpt lat="45.65267" lon="3.21344">
        <ele>413.2</ele>
        <time>2024-04-28T09:00:08Z</time>
      </trkpt>
      <trkpt lat="45.65274" lon="3.21334">
        <ele>412.8</ele>
        <time>2024-04-28T09:00:09Z</time>
      </trkpt>
      <trkpt lat="45.65281" lon="3.21326">
        <ele>412.4</ele>
        <time>2024-04-28T09:00:10Z</time>
      </trkpt>
      <trkpt lat="45.65287" lon="3.21317">
        <ele>412</ele>
        <time>2024-04-28T09:00:11Z</time>
      </trkpt>
      <trkpt lat="45.65293" lon="3.21309">
        <ele>411.6</ele>
        <time>2024-04-28T09:00:12Z</time>
      </trkpt>
      <trkpt lat="45.65299" lon="3.21302">
        <ele>411.2</ele>
        <time>2024-04-28T09:00:13Z</time>
      </trkpt>
      <trkpt lat="45.6531" lon="3.21299">
        <ele>410.8</ele>
        <time>2024-04-28T09:00:14Z</time>
      </trkpt>
      <trkpt lat="45.65317" lon="3.21297">
        <ele>410.4</ele>
        <time>2024-04-28T09:00:15Z</time>
      </trkpt>
      <trkpt lat="45.65323" lon="3.21295">
        <ele>410</ele>
        <time>2024-04-28T09:00:16Z</time>
      </trkpt>
      <trkpt lat="45.65329" lon="3.21293">
        <ele>409.6</ele>
        <time>2024-04-28T09:00:17Z</time>
      </trkpt>
      <trkpt lat="45.65334" lon="3.21292">
        <ele>409</ele>
        <time>2024-04-28T09:00:18Z</time>
      </trkpt>
      <trkpt lat="45.65339" lon="3.2129">
        <ele>408.6</ele>
        <time>2024-04-28T09:00:19Z</time>
      </trkpt>
      <trkpt lat="45.65342" lon="3.21288">
        <ele>408.2</ele>
        <time>2024-04-28T09:00:20Z</time>
      </trkpt>
      <trkpt lat="45.65346" lon="3.21285">
        <ele>408</ele>
        <time>2024-04-28T09:00:21Z</time>
      </trkpt>
      <trkpt lat="45.65349" lon="3.21283">
        <ele>407.6</ele>
        <time>2024-04-28T09:00:22Z</time>
      </trkpt>
      <trkpt lat="45.65347" lon="3.21276">
        <ele>407.2</ele>
        <time>2024-04-28T09:00:23Z</time>
      </trkpt>
      <trkpt lat="45.65345" lon="3.21273">
        <ele>406.8</ele>
        <time>2024-04-28T09:00:24Z</time>
      </trkpt>
      <trkpt lat="45.65343" lon="3.21269">
        <ele>406.4</ele>
        <time>2024-04-28T09:00:25Z</time>
      </trkpt>
      <trkpt lat="45.6534" lon="3.21264">
        <ele>406</ele>
        <time>2024-04-28T09:00:26Z</time>
      </trkpt>
      <trkpt lat="45.65338" lon="3.2126">
        <ele>405.6</ele>
        <time>2024-04-28T09:00:27Z</time>
      </trkpt>
      <trkpt lat="45.65339" lon="3.21248">
        <ele>405.2</ele>
        <time>2024-04-28T09:00:28Z</time>
      </trkpt>
      <trkpt lat="45.65342" lon="3.21243">
        <ele>404.8</ele>
        <time>2024-04-28T09:00:29Z</time>
      </trkpt>
      <trkpt lat="45.65346" lon="3.21238">
        <ele>404.6</ele>
        <time>2024-04-28T09:00:30Z</time>
      </trkpt>
      <trkpt lat="45.6535" lon="3.21232">
        <ele>404.2</ele>
        <time>2024-04-28T09:00:31Z</time>
      </trkpt>
      <trkpt lat="45.65355" lon="3.21226">
        <ele>403.8</ele>
        <time>2024-04-28T09:00:32Z</time>
      </trkpt>
      <trkpt lat="45.6536" lon="3.21219">
        <ele>403.4</ele>
        <time>2024-04-28T09:00:33Z</time>
      </trkpt>
      <trkpt lat="45.65365" lon="3.21212">
        <ele>403</ele>
        <time>2024-04-28T09:00:34Z</time>
      </trkpt>
      <trkpt lat="45.6537" lon="3.21205">
        <ele>402.8</ele>
        <time>2024-04-28T09:00:35Z</time>
      </trkpt>
      <trkpt lat="45.65376" lon="3.21198">
        <ele>402.4</ele>
        <time>2024-04-28T09:00:36Z</time>
      </trkpt>
      <trkpt lat="45.65381" lon="3.2119">
        <ele>402</ele>
        <time>2024-04-28T09:00:37Z</time>
      </trkpt>
      <trkpt lat="45.65386" lon="3.21183">
        <ele>401.8</ele>
        <time>2024-04-28T09:00:38Z</time>
      </trkpt>
      <trkpt lat="45.65392" lon="3.21175">
        <ele>401.4</ele>
        <time>2024-04-28T09:00:39Z</time>
      </trkpt>
      <trkpt lat="45.65398" lon="3.21168">
        <ele>401</ele>
        <time>2024-04-28T09:00:40Z</time>
      </trkpt>
      <trkpt lat="45.65403" lon="3.2116">
        <ele>400.6</ele>
        <time>2024-04-28T09:00:41Z</time>
      </trkpt>
      <trkpt lat="45.65409" lon="3.21152">
        <ele>400.4</ele>
        <time>2024-04-28T09:00:42Z</time>
      </trkpt>
      <trkpt lat="45.65415" lon="3.21145">
        <ele>400</ele>
        <time>2024-04-28T09:00:43Z</time>
      </trkpt>
      <trkpt lat="45.6542" lon="3.21137">
        <ele>399.6</ele>
        <time>2024-04-28T09:00:44Z</time>
      </trkpt>
      <trkpt lat="45.65426" lon="3.21129">
        <ele>399.2</ele>
        <time>2024-04-28T09:00:45Z</time>
      </trkpt>
      <trkpt lat="45.65432" lon="3.21121">
        <ele>398.8</ele>
        <time>2024-04-28T09:00:46Z</time>
      </trkpt>
      <trkpt lat="45.65438" lon="3.21113">
        <ele>398.4</ele>
        <time>2024-04-28T09:00:47Z</time>
      </trkpt>
      <trkpt lat="45.65444" lon="3.21105">
        <ele>398.2</ele>
        <time>2024-04-28T09:00:48Z</time>
      </trkpt>
      <trkpt lat="45.65451" lon="3.21096">
        <ele>397.8</ele>
        <time>2024-04-28T09:00:49Z</time>
      </trkpt>
      <trkpt lat="45.65457" lon="3.21088">
        <ele>397.4</ele>
        <time>2024-04-28T09:00:50Z</time>
      </trkpt>
      <trkpt lat="45.65463" lon="3.21079">
        <ele>397</ele>
        <time>2024-04-28T09:00:51Z</time>
      </trkpt>
      <trkpt lat="45.65469" lon="3.21071">
        <ele>396.8</ele>
        <time>2024-04-28T09:00:52Z</time>
      </trkpt>
      <trkpt lat="45.65476" lon="3.21062">
        <ele>396.4</ele>
        <time>2024-04-28T09:00:53Z</time>
      </trkpt>
      <trkpt lat="45.65482" lon="3.21054">
        <ele>396.2</ele>
        <time>2024-04-28T09:00:54Z</time>
      </trkpt>
      <trkpt lat="45.65489" lon="3.21045">
        <ele>396</ele>
        <time>2024-04-28T09:00:55Z</time>
      </trkpt>
      <trkpt lat="45.65495" lon="3.21036">
        <ele>395.6</ele>
        <time>2024-04-28T09:00:56Z</time>
      </trkpt>
      <trkpt lat="45.65502" lon="3.21027">
        <ele>395.2</ele>
        <time>2024-04-28T09:00:57Z</time>
      </trkpt>
      <trkpt lat="45.65508" lon="3.21018">
        <ele>394.8</ele>
        <time>2024-04-28T09:00:58Z</time>
      </trkpt>
      <trkpt lat="45.65515" lon="3.21009">
        <ele>394.4</ele>
        <time>2024-04-28T09:00:59Z</time>
      </trkpt>
      <trkpt lat="45.65522" lon="3.21">
        <ele>394</ele>
        <time>2024-04-28T09:01:00Z</time>
      </trkpt>
      <trkpt lat="45.65529" lon="3.20991">
        <ele>393.8</ele>
        <time>2024-04-28T09:01:01Z</time>
      </trkpt>
      <trkpt lat="45.65536" lon="3.20981">
        <ele>393.4</ele>
        <time>2024-04-28T09:01:02Z</time>
      </trkpt>
      <trkpt lat="45.65543" lon="3.20972">
        <ele>393</ele>
        <time>2024-04-28T09:01:03Z</time>
      </trkpt>
      <trkpt lat="45.65549" lon="3.20963">
        <ele>392.6</ele>
        <time>2024-04-28T09:01:04Z</time>
      </trkpt>
      <trkpt lat="45.65557" lon="3.20954">
        <ele>392.2</ele>
        <time>2024-04-28T09:01:05Z</time>
      </trkpt>
      <trkpt lat="45.65564" lon="3.20945">
        <ele>391.8</ele>
        <time>2024-04-28T09:01:06Z</time>
      </trkpt>
      <trkpt lat="45.65571" lon="3.20936">
        <ele>391.4</ele>
        <time>2024-04-28T09:01:07Z</time>
      </trkpt>
      <trkpt lat="45.65579" lon="3.20928">
        <ele>391</ele>
        <time>2024-04-28T09:01:08Z</time>
      </trkpt>
      <trkpt lat="45.65587" lon="3.20921">
        <ele>390.6</ele>
        <time>2024-04-28T09:01:09Z</time>
      </trkpt>
      <trkpt lat="45.65595" lon="3.20914">
        <ele>390.4</ele>
        <time>2024-04-28T09:01:10Z</time>
      </trkpt>
      <trkpt lat="45.65603" lon="3.20907">
        <ele>390</ele>
        <time>2024-04-28T09:01:11Z</time>
      </trkpt>
      <trkpt lat="45.65612" lon="3.20899">
        <ele>389.6</ele>
        <time>2024-04-28T09:01:12Z</time>
      </trkpt>
      <trkpt lat="45.65621" lon="3.20892">
        <ele>389.2</ele>
        <time>2024-04-28T09:01:13Z</time>
      </trkpt>
      <trkpt lat="45.65629" lon="3.20884">
        <ele>388.8</ele>
        <time>2024-04-28T09:01:14Z</time>
      </trkpt>
      <trkpt lat="45.65638" lon="3.20877">
        <ele>388.4</ele>
        <time>2024-04-28T09:01:15Z</time>
      </trkpt>
      <trkpt lat="45.65646" lon="3.20871">
        <ele>388</ele>
        <time>2024-04-28T09:01:16Z</time>
      </trkpt>
      <trkpt lat="45.65655" lon="3.20865">
        <ele>387.6</ele>
        <time>2024-04-28T09:01:17Z</time>
      </trkpt>
      <trkpt lat="45.65663" lon="3.20859">
        <ele>387.2</ele>
        <time>2024-04-28T09:01:18Z</time>
      </trkpt>
      <trkpt lat="45.65672" lon="3.20854">
        <ele>386.8</ele>
        <time>2024-04-28T09:01:19Z</time>
      </trkpt>
      <trkpt lat="45.65681" lon="3.20848">
        <ele>386.4</ele>
        <time>2024-04-28T09:01:20Z</time>
      </trkpt>
      <trkpt lat="45.6569" lon="3.20842">
        <ele>386</ele>
        <time>2024-04-28T09:01:21Z</time>
      </trkpt>
      <trkpt lat="45.65699" lon="3.20836">
        <ele>385.6</ele>
        <time>2024-04-28T09:01:22Z</time>
      </trkpt>
      <trkpt lat="45.65708" lon="3.20831">
        <ele>385.4</ele>
        <time>2024-04-28T09:01:23Z</time>
      </trkpt>
      <trkpt lat="45.65716" lon="3.20825">
        <ele>385</ele>
        <time>2024-04-28T09:01:24Z</time>
      </trkpt>
      <trkpt lat="45.65726" lon="3.2082">
        <ele>384.6</ele>
        <time>2024-04-28T09:01:25Z</time>
      </trkpt>
      <trkpt lat="45.65735" lon="3.20817">
        <ele>384.2</ele>
        <time>2024-04-28T09:01:26Z</time>
      </trkpt>
      <trkpt lat="45.65744" lon="3.20814">
        <ele>383.8</ele>
        <time>2024-04-28T09:01:27Z</time>
      </trkpt>
      <trkpt lat="45.65754" lon="3.2081">
        <ele>383.4</ele>
        <time>2024-04-28T09:01:28Z</time>
      </trkpt>
      <trkpt lat="45.65763" lon="3.20807">
        <ele>383</ele>
        <time>2024-04-28T09:01:29Z</time>
      </trkpt>
      <trkpt lat="45.65772" lon="3.20804">
        <ele>382.8</ele>
        <time>2024-04-28T09:01:30Z</time>
      </trkpt>
      <trkpt lat="45.65782" lon="3.208">
        <ele>382.4</ele>
        <time>2024-04-28T09:01:31Z</time>
      </trkpt>
      <trkpt lat="45.65791" lon="3.20797">
        <ele>382</ele>
        <time>2024-04-28T09:01:32Z</time>
      </trkpt>
      <trkpt lat="45.658" lon="3.20794">
        <ele>381.6</ele>
        <time>2024-04-28T09:01:33Z</time>
      </trkpt>
      <trkpt lat="45.6581" lon="3.20793">
        <ele>381.2</ele>
        <time>2024-04-28T09:01:34Z</time>
      </trkpt>
      <trkpt lat="45.65819" lon="3.20792">
        <ele>380.8</ele>
        <time>2024-04-28T09:01:35Z</time>
      </trkpt>
      <trkpt lat="45.65828" lon="3.20791">
        <ele>380.6</ele>
        <time>2024-04-28T09:01:36Z</time>
      </trkpt>
      <trkpt lat="45.65838" lon="3.20791">
        <ele>380.2</ele>
        <time>2024-04-28T09:01:37Z</time>
      </trkpt>
      <trkpt lat="45.65847" lon="3.2079">
        <ele>379.8</ele>
        <time>2024-04-28T09:01:38Z</time>
      </trkpt>
      <trkpt lat="45.65856" lon="3.2079">
        <ele>379.6</ele>
        <time>2024-04-28T09:01:39Z</time>
      </trkpt>
      <trkpt lat="45.65865" lon="3.20789">
        <ele>379.2</ele>
        <time>2024-04-28T09:01:40Z</time>
      </trkpt>
      <trkpt lat="45.65874" lon="3.20789">
        <ele>378.8</ele>
        <time>2024-04-28T09:01:41Z</time>
      </trkpt>
      <trkpt lat="45.65883" lon="3.20789">
        <ele>378.6</ele>
        <time>2024-04-28T09:01:42Z</time>
      </trkpt>
      <trkpt lat="45.65891" lon="3.20788">
        <ele>378.4</ele>
        <time>2024-04-28T09:01:43Z</time>
      </trkpt>
      <trkpt lat="45.659" lon="3.20788">
        <ele>378</ele>
        <time>2024-04-28T09:01:44Z</time>
      </trkpt>
      <trkpt lat="45.65908" lon="3.20788">
        <ele>377.8</ele>
        <time>2024-04-28T09:01:45Z</time>
      </trkpt>
      <trkpt lat="45.65916" lon="3.20789">
        <ele>377.4</ele>
        <time>2024-04-28T09:01:46Z</time>
      </trkpt>
      <trkpt lat="45.65925" lon="3.20789">
        <ele>377.2</ele>
        <time>2024-04-28T09:01:47Z</time>
      </trkpt>
      <trkpt lat="45.65933" lon="3.20789">
        <ele>376.8</ele>
        <time>2024-04-28T09:01:48Z</time>
      </trkpt>
      <trkpt lat="45.65941" lon="3.20789">
        <ele>376.4</ele>
        <time>2024-04-28T09:01:49Z</time>
      </trkpt>
      <trkpt lat="45.6595" lon="3.2079">
        <ele>376.2</ele>
        <time>2024-04-28T09:01:50Z</time>
      </trkpt>
      <trkpt lat="45.65958" lon="3.2079">
        <ele>375.8</ele>
        <time>2024-04-28T09:01:51Z</time>
      </trkpt>
      <trkpt lat="45.65966" lon="3.2079">
        <ele>375.6</ele>
        <time>2024-04-28T09:01:52Z</time>
      </trkpt>
      <trkpt lat="45.65974" lon="3.2079">
        <ele>375.4</ele>
        <time>2024-04-28T09:01:53Z</time>
      </trkpt>
      <trkpt lat="45.65982" lon="3.20791">
        <ele>375</ele>
        <time>2024-04-28T09:01:54Z</time>
      </trkpt>
      <trkpt lat="45.65991" lon="3.20791">
        <ele>374.8</ele>
        <time>2024-04-28T09:01:55Z</time>
      </trkpt>
      <trkpt lat="45.65999" lon="3.20791">
        <ele>374.6</ele>
        <time>2024-04-28T09:01:56Z</time>
      </trkpt>
      <trkpt lat="45.66007" lon="3.20791">
        <ele>374.4</ele>
        <time>2024-04-28T09:01:57Z</time>
      </trkpt>
      <trkpt lat="45.66014" lon="3.20792">
        <ele>374.2</ele>
        <time>2024-04-28T09:01:58Z</time>
      </trkpt>
      <trkpt lat="45.66022" lon="3.20792">
        <ele>374</ele>
        <time>2024-04-28T09:01:59Z</time>
      </trkpt>
      <trkpt lat="45.66029" lon="3.20792">
        <ele>373.6</ele>
        <time>2024-04-28T09:02:00Z</time>
      </trkpt>
      <trkpt lat="45.66037" lon="3.20792">
        <ele>373.4</ele>
        <time>2024-04-28T09:02:01Z</time>
      </trkpt>
      <trkpt lat="45.66045" lon="3.20793">
        <ele>373.2</ele>
        <time>2024-04-28T09:02:02Z</time>
      </trkpt>
      <trkpt lat="45.66052" lon="3.20793">
        <ele>372.8</ele>
        <time>2024-04-28T09:02:03Z</time>
      </trkpt>
      <trkpt lat="45.6606" lon="3.20793">
        <ele>372.6</ele>
        <time>2024-04-28T09:02:04Z</time>
      </trkpt>
      <trkpt lat="45.66067" lon="3.20793">
        <ele>372.4</ele>
        <time>2024-04-28T09:02:05Z</time>
      </trkpt>
      <trkpt lat="45.66074" lon="3.20793">
        <ele>372.2</ele>
        <time>2024-04-28T09:02:06Z</time>
      </trkpt>
      <trkpt lat="45.66081" lon="3.20794">
        <ele>371.8</ele>
        <time>2024-04-28T09:02:07Z</time>
      </trkpt>
      <trkpt lat="45.66088" lon="3.20794">
        <ele>371.6</ele>
        <time>2024-04-28T09:02:08Z</time>
      </trkpt>
      <trkpt lat="45.66095" lon="3.20794">
        <ele>371.2</ele>
        <time>2024-04-28T09:02:09Z</time>
      </trkpt>
      <trkpt lat="45.66102" lon="3.20794">
        <ele>371</ele>
        <time>2024-04-28T09:02:10Z</time>
      </trkpt>
      <trkpt lat="45.6611" lon="3.20794">
        <ele>370.6</ele>
        <time>2024-04-28T09:02:11Z</time>
      </trkpt>
      <trkpt lat="45.66117" lon="3.20794">
        <ele>370.4</ele>
        <time>2024-04-28T09:02:12Z</time>
      </trkpt>
      <trkpt lat="45.66124" lon="3.20795">
        <ele>370.2</ele>
        <time>2024-04-28T09:02:13Z</time>
      </trkpt>
      <trkpt lat="45.66131" lon="3.20795">
        <ele>370</ele>
        <time>2024-04-28T09:02:14Z</time>
      </trkpt>
      <trkpt lat="45.66138" lon="3.20795">
        <ele>369.8</ele>
        <time>2024-04-28T09:02:15Z</time>
      </trkpt>
      <trkpt lat="45.66144" lon="3.20795">
        <ele>369.6</ele>
        <time>2024-04-28T09:02:16Z</time>
      </trkpt>
      <trkpt lat="45.66151" lon="3.20795">
        <ele>369.2</ele>
        <time>2024-04-28T09:02:17Z</time>
      </trkpt>
      <trkpt lat="45.66158" lon="3.20795">
        <ele>369</ele>
        <time>2024-04-28T09:02:18Z</time>
      </trkpt>
      <trkpt lat="45.66165" lon="3.20796">
        <ele>368.8</ele>
        <time>2024-04-28T09:02:19Z</time>
      </trkpt>
      <trkpt lat="45.66172" lon="3.20796">
        <ele>368.8</ele>
        <time>2024-04-28T09:02:20Z</time>
      </trkpt>
      <trkpt lat="45.66179" lon="3.20796">
        <ele>368.6</ele>
        <time>2024-04-28T09:02:21Z</time>
      </trkpt>
      <trkpt lat="45.66186" lon="3.20796">
        <ele>368.2</ele>
        <time>2024-04-28T09:02:22Z</time>
      </trkpt>
      <trkpt lat="45.66193" lon="3.20796">
        <ele>368</ele>
        <time>2024-04-28T09:02:23Z</time>
      </trkpt>
      <trkpt lat="45.662" lon="3.20796">
        <ele>367.8</ele>
        <time>2024-04-28T09:02:24Z</time>
      </trkpt>
      <trkpt lat="45.66208" lon="3.20796">
        <ele>367.6</ele>
        <time>2024-04-28T09:02:25Z</time>
      </trkpt>
      <trkpt lat="45.66215" lon="3.20796">
        <ele>367.4</ele>
        <time>2024-04-28T09:02:26Z</time>
      </trkpt>
      <trkpt lat="45.66221" lon="3.20796">
        <ele>367.2</ele>
        <time>2024-04-28T09:02:27Z</time>
      </trkpt>
      <trkpt lat="45.66228" lon="3.20796">
        <ele>367</ele>
        <time>2024-04-28T09:02:28Z</time>
      </trkpt>
      <trkpt lat="45.66235" lon="3.20796">
        <ele>367</ele>
        <time>2024-04-28T09:02:29Z</time>
      </trkpt>
      <trkpt lat="45.66242" lon="3.20796">
        <ele>366.8</ele>
        <time>2024-04-28T09:02:30Z</time>
      </trkpt>
      <trkpt lat="45.66248" lon="3.20796">
        <ele>366.6</ele>
        <time>2024-04-28T09:02:31Z</time>
      </trkpt>
      <trkpt lat="45.66255" lon="3.20796">
        <ele>366.4</ele>
        <time>2024-04-28T09:02:32Z</time>
      </trkpt>
      <trkpt lat="45.66261" lon="3.20796">
        <ele>366.2</ele>
        <time>2024-04-28T09:02:33Z</time>
      </trkpt>
      <trkpt lat="45.66267" lon="3.20796">
        <ele>366.2</ele>
        <time>2024-04-28T09:02:34Z</time>
      </trkpt>
      <trkpt lat="45.66273" lon="3.20796">
        <ele>366</ele>
        <time>2024-04-28T09:02:35Z</time>
      </trkpt>
      <trkpt lat="45.66279" lon="3.20796">
        <ele>365.8</ele>
        <time>2024-04-28T09:02:36Z</time>
      </trkpt>
      <trkpt lat="45.66286" lon="3.20796">
        <ele>365.6</ele>
        <time>2024-04-28T09:02:37Z</time>
      </trkpt>
      <trkpt lat="45.66291" lon="3.20799">
        <ele>365.4</ele>
        <time>2024-04-28T09:02:38Z</time>
      </trkpt>
      <trkpt lat="45.66297" lon="3.20803">
        <ele>365.2</ele>
        <time>2024-04-28T09:02:39Z</time>
      </trkpt>
      <trkpt lat="45.66306" lon="3.20803">
        <ele>365</ele>
        <time>2024-04-28T09:02:40Z</time>
      </trkpt>
      <trkpt lat="45.66312" lon="3.20799">
        <ele>364.8</ele>
        <time>2024-04-28T09:02:41Z</time>
      </trkpt>
      <trkpt lat="45.66318" lon="3.20799">
        <ele>364.6</ele>
        <time>2024-04-28T09:02:42Z</time>
      </trkpt>
      <trkpt lat="45.66325" lon="3.20799">
        <ele>364.4</ele>
        <time>2024-04-28T09:02:43Z</time>
      </trkpt>
      <trkpt lat="45.66332" lon="3.20799">
        <ele>364.2</ele>
        <time>2024-04-28T09:02:44Z</time>
      </trkpt>
      <trkpt lat="45.66339" lon="3.20799">
        <ele>364.2</ele>
        <time>2024-04-28T09:02:45Z</time>
      </trkpt>
      <trkpt lat="45.66345" lon="3.20799">
        <ele>364</ele>
        <time>2024-04-28T09:02:46Z</time>
      </trkpt>
      <trkpt lat="45.66352" lon="3.20799">
        <ele>363.8</ele>
        <time>2024-04-28T09:02:47Z</time>
      </trkpt>
      <trkpt lat="45.66358" lon="3.20799">
        <ele>363.8</ele>
        <time>2024-04-28T09:02:48Z</time>
      </trkpt>
      <trkpt lat="45.66365" lon="3.20799">
        <ele>363.6</ele>
        <time>2024-04-28T09:02:49Z</time>
      </trkpt>
      <trkpt lat="45.66372" lon="3.20799">
        <ele>363.6</ele>
        <time>2024-04-28T09:02:50Z</time>
      </trkpt>
      <trkpt lat="45.66378" lon="3.20799">
        <ele>363.4</ele>
        <time>2024-04-28T09:02:51Z</time>
      </trkpt>
      <trkpt lat="45.66385" lon="3.20799">
        <ele>363.2</ele>
        <time>2024-04-28T09:02:52Z</time>
      </trkpt>
      <trkpt lat="45.66392" lon="3.20799">
        <ele>363.2</ele>
        <time>2024-04-28T09:02:53Z</time>
      </trkpt>
      <trkpt lat="45.66399" lon="3.20799">
        <ele>363</ele>
        <time>2024-04-28T09:02:54Z</time>
      </trkpt>
      <trkpt lat="45.66406" lon="3.208">
        <ele>362.8</ele>
        <time>2024-04-28T09:02:55Z</time>
      </trkpt>
      <trkpt lat="45.66413" lon="3.20801">
        <ele>362.6</ele>
        <time>2024-04-28T09:02:56Z</time>
      </trkpt>
      <trkpt lat="45.6642" lon="3.20802">
        <ele>362.6</ele>
        <time>2024-04-28T09:02:57Z</time>
      </trkpt>
      <trkpt lat="45.66427" lon="3.20804">
        <ele>362.6</ele>
        <time>2024-04-28T09:02:58Z</time>
      </trkpt>
      <trkpt lat="45.66434" lon="3.20806">
        <ele>362.4</ele>
        <time>2024-04-28T09:02:59Z</time>
      </trkpt>
      <trkpt lat="45.66441" lon="3.20807">
        <ele>362.4</ele>
        <time>2024-04-28T09:03:00Z</time>
      </trkpt>
      <trkpt lat="45.66448" lon="3.20809">
        <ele>362.2</ele>
        <time>2024-04-28T09:03:01Z</time>
      </trkpt>
      <trkpt lat="45.66455" lon="3.20811">
        <ele>362.2</ele>
        <time>2024-04-28T09:03:02Z</time>
      </trkpt>
      <trkpt lat="45.66462" lon="3.20812">
        <ele>362</ele>
        <time>2024-04-28T09:03:03Z</time>
      </trkpt>
      <trkpt lat="45.66469" lon="3.20814">
        <ele>362</ele>
        <time>2024-04-28T09:03:04Z</time>
      </trkpt>
      <trkpt lat="45.66477" lon="3.20816">
        <ele>361.8</ele>
        <time>2024-04-28T09:03:05Z</time>
      </trkpt>
      <trkpt lat="45.66484" lon="3.20817">
        <ele>361.6</ele>
        <time>2024-04-28T09:03:06Z</time>
      </trkpt>
      <trkpt lat="45.66491" lon="3.20819">
        <ele>361.6</ele>
        <time>2024-04-28T09:03:07Z</time>
      </trkpt>
      <trkpt lat="45.66498" lon="3.20822">
        <ele>361.4</ele>
        <time>2024-04-28T09:03:08Z</time>
      </trkpt>
      <trkpt lat="45.66505" lon="3.20824">
        <ele>361.2</ele>
        <time>2024-04-28T09:03:09Z</time>
      </trkpt>
      <trkpt lat="45.66512" lon="3.20826">
        <ele>361</ele>
        <time>2024-04-28T09:03:10Z</time>
      </trkpt>
      <trkpt lat="45.66519" lon="3.20829">
        <ele>360.8</ele>
        <time>2024-04-28T09:03:11Z</time>
      </trkpt>
      <trkpt lat="45.66526" lon="3.20831">
        <ele>360.6</ele>
        <time>2024-04-28T09:03:12Z</time>
      </trkpt>
      <trkpt lat="45.66533" lon="3.20834">
        <ele>360.4</ele>
        <time>2024-04-28T09:03:13Z</time>
      </trkpt>
      <trkpt lat="45.6654" lon="3.20837">
        <ele>360.2</ele>
        <time>2024-04-28T09:03:14Z</time>
      </trkpt>
      <trkpt lat="45.66546" lon="3.2084">
        <ele>359.8</ele>
        <time>2024-04-28T09:03:15Z</time>
      </trkpt>
      <trkpt lat="45.66553" lon="3.20844">
        <ele>359.6</ele>
        <time>2024-04-28T09:03:16Z</time>
      </trkpt>
      <trkpt lat="45.66559" lon="3.20848">
        <ele>359.6</ele>
        <time>2024-04-28T09:03:17Z</time>
      </trkpt>
      <trkpt lat="45.66566" lon="3.20851">
        <ele>359.4</ele>
        <time>2024-04-28T09:03:18Z</time>
      </trkpt>
      <trkpt lat="45.66572" lon="3.20855">
        <ele>359.2</ele>
        <time>2024-04-28T09:03:19Z</time>
      </trkpt>
      <trkpt lat="45.66579" lon="3.20859">
        <ele>359</ele>
        <time>2024-04-28T09:03:20Z</time>
      </trkpt>
      <trkpt lat="45.66585" lon="3.20862">
        <ele>359</ele>
        <time>2024-04-28T09:03:21Z</time>
      </trkpt>
      <trkpt lat="45.66591" lon="3.20866">
        <ele>358.8</ele>
        <time>2024-04-28T09:03:22Z</time>
      </trkpt>
      <trkpt lat="45.66598" lon="3.2087">
        <ele>358.6</ele>
        <time>2024-04-28T09:03:23Z</time>
      </trkpt>
      <trkpt lat="45.66605" lon="3.20874">
        <ele>358.4</ele>
        <time>2024-04-28T09:03:24Z</time>
      </trkpt>
      <trkpt lat="45.66611" lon="3.20878">
        <ele>358.2</ele>
        <time>2024-04-28T09:03:25Z</time>
      </trkpt>
      <trkpt lat="45.66618" lon="3.20881">
        <ele>358</ele>
        <time>2024-04-28T09:03:26Z</time>
      </trkpt>
      <trkpt lat="45.66624" lon="3.20885">
        <ele>357.8</ele>
        <time>2024-04-28T09:03:27Z</time>
      </trkpt>
      <trkpt lat="45.66631" lon="3.20889">
        <ele>357.6</ele>
        <time>2024-04-28T09:03:28Z</time>
      </trkpt>
      <trkpt lat="45.66637" lon="3.20893">
        <ele>357.4</ele>
        <time>2024-04-28T09:03:29Z</time>
      </trkpt>
      <trkpt lat="45.66643" lon="3.20896">
        <ele>357.2</ele>
        <time>2024-04-28T09:03:30Z</time>
      </trkpt>
      <trkpt lat="45.6665" lon="3.209">
        <ele>357</ele>
        <time>2024-04-28T09:03:31Z</time>
      </trkpt>
      <trkpt lat="45.66656" lon="3.20904">
        <ele>357</ele>
        <time>2024-04-28T09:03:32Z</time>
      </trkpt>
      <trkpt lat="45.66662" lon="3.20907">
        <ele>356.8</ele>
        <time>2024-04-28T09:03:33Z</time>
      </trkpt>
      <trkpt lat="45.66668" lon="3.20911">
        <ele>356.6</ele>
        <time>2024-04-28T09:03:34Z</time>
      </trkpt>
      <trkpt lat="45.66674" lon="3.20914">
        <ele>356.6</ele>
        <time>2024-04-28T09:03:35Z</time>
      </trkpt>
      <trkpt lat="45.6668" lon="3.20917">
        <ele>356.4</ele>
        <time>2024-04-28T09:03:36Z</time>
      </trkpt>
      <trkpt lat="45.66685" lon="3.20921">
        <ele>356.4</ele>
        <time>2024-04-28T09:03:37Z</time>
      </trkpt>
      <trkpt lat="45.66691" lon="3.20924">
        <ele>356.2</ele>
        <time>2024-04-28T09:03:38Z</time>
      </trkpt>
      <trkpt lat="45.66697" lon="3.20927">
        <ele>356.2</ele>
        <time>2024-04-28T09:03:39Z</time>
      </trkpt>
      <trkpt lat="45.66702" lon="3.2093">
        <ele>356</ele>
        <time>2024-04-28T09:03:40Z</time>
      </trkpt>
      <trkpt lat="45.66708" lon="3.20933">
        <ele>355.8</ele>
        <time>2024-04-28T09:03:41Z</time>
      </trkpt>
      <trkpt lat="45.66713" lon="3.20936">
        <ele>355.6</ele>
        <time>2024-04-28T09:03:42Z</time>
      </trkpt>
      <trkpt lat="45.66719" lon="3.20939">
        <ele>355.6</ele>
        <time>2024-04-28T09:03:43Z</time>
      </trkpt>
      <trkpt lat="45.66724" lon="3.20942">
        <ele>355.4</ele>
        <time>2024-04-28T09:03:44Z</time>
      </trkpt>
      <trkpt lat="45.6673" lon="3.20944">
        <ele>355.4</ele>
        <time>2024-04-28T09:03:45Z</time>
      </trkpt>
      <trkpt lat="45.66735" lon="3.20947">
        <ele>355.4</ele>
        <time>2024-04-28T09:03:46Z</time>
      </trkpt>
      <trkpt lat="45.66741" lon="3.2095">
        <ele>355.4</ele>
        <time>2024-04-28T09:03:47Z</time>
      </trkpt>
      <trkpt lat="45.66746" lon="3.20953">
        <ele>355.4</ele>
        <time>2024-04-28T09:03:48Z</time>
      </trkpt>
      <trkpt lat="45.66751" lon="3.20955">
        <ele>355.2</ele>
        <time>2024-04-28T09:03:49Z</time>
      </trkpt>
      <trkpt lat="45.66757" lon="3.20959">
        <ele>355.2</ele>
        <time>2024-04-28T09:03:50Z</time>
      </trkpt>
      <trkpt lat="45.66762" lon="3.20962">
        <ele>355.2</ele>
        <time>2024-04-28T09:03:51Z</time>
      </trkpt>
      <trkpt lat="45.66767" lon="3.20965">
        <ele>355.2</ele>
        <time>2024-04-28T09:03:52Z</time>
      </trkpt>
      <trkpt lat="45.66772" lon="3.20968">
        <ele>355</ele>
        <time>2024-04-28T09:03:53Z</time>
      </trkpt>
      <trkpt lat="45.66777" lon="3.20971">
        <ele>355</ele>
        <time>2024-04-28T09:03:54Z</time>
      </trkpt>
      <trkpt lat="45.66782" lon="3.20975">
        <ele>355</ele>
        <time>2024-04-28T09:03:55Z</time>
      </trkpt>
      <trkpt lat="45.66787" lon="3.20978">
        <ele>355</ele>
        <time>2024-04-28T09:03:56Z</time>
      </trkpt>
      <trkpt lat="45.66792" lon="3.20981">
        <ele>355</ele>
        <time>2024-04-28T09:03:57Z</time>
      </trkpt>
      <trkpt lat="45.66798" lon="3.20984">
        <ele>355</ele>
        <time>2024-04-28T09:03:58Z</time>
      </trkpt>
      <trkpt lat="45.66803" lon="3.20987">
        <ele>355</ele>
        <time>2024-04-28T09:03:59Z</time>
      </trkpt>
      <trkpt lat="45.66808" lon="3.20991">
        <ele>355</ele>
        <time>2024-04-28T09:04:00Z</time>
      </trkpt>
      <trkpt lat="45.66813" lon="3.20994">
        <ele>355</ele>
        <time>2024-04-28T09:04:01Z</time>
      </trkpt>
      <trkpt lat="45.66818" lon="3.20997">
        <ele>354.8</ele>
        <time>2024-04-28T09:04:02Z</time>
      </trkpt>
      <trkpt lat="45.66824" lon="3.21">
        <ele>355</ele>
        <time>2024-04-28T09:04:03Z</time>
      </trkpt>
      <trkpt lat="45.66829" lon="3.21004">
        <ele>355</ele>
        <time>2024-04-28T09:04:04Z</time>
      </trkpt>
      <trkpt lat="45.66834" lon="3.21007">
        <ele>355</ele>
        <time>2024-04-28T09:04:05Z</time>
      </trkpt>
      <trkpt lat="45.66839" lon="3.2101">
        <ele>354.8</ele>
        <time>2024-04-28T09:04:06Z</time>
      </trkpt>
      <trkpt lat="45.66844" lon="3.21013">
        <ele>354.8</ele>
        <time>2024-04-28T09:04:07Z</time>
      </trkpt>
      <trkpt lat="45.66849" lon="3.21017">
        <ele>354.8</ele>
        <time>2024-04-28T09:04:08Z</time>
      </trkpt>
      <trkpt lat="45.66854" lon="3.2102">
        <ele>354.8</ele>
        <time>2024-04-28T09:04:09Z</time>
      </trkpt>
      <trkpt lat="45.6686" lon="3.21023">
        <ele>354.8</ele>
        <time>2024-04-28T09:04:10Z</time>
      </trkpt>
      <trkpt lat="45.66865" lon="3.21026">
        <ele>354.8</ele>
        <time>2024-04-28T09:04:11Z</time>
      </trkpt>
      <trkpt lat="45.6687" lon="3.21029">
        <ele>354.8</ele>
        <time>2024-04-28T09:04:12Z</time>
      </trkpt>
      <trkpt lat="45.66875" lon="3.21032">
        <ele>354.8</ele>
        <time>2024-04-28T09:04:13Z</time>
      </trkpt>
      <trkpt lat="45.66879" lon="3.21035">
        <ele>355</ele>
        <time>2024-04-28T09:04:14Z</time>
      </trkpt>
      <trkpt lat="45.66884" lon="3.21038">
        <ele>354.6</ele>
        <time>2024-04-28T09:04:15Z</time>
      </trkpt>
      <trkpt lat="45.66889" lon="3.21041">
        <ele>354.8</ele>
        <time>2024-04-28T09:04:16Z</time>
      </trkpt>
      <trkpt lat="45.66894" lon="3.21044">
        <ele>355</ele>
        <time>2024-04-28T09:04:17Z</time>
      </trkpt>
      <trkpt lat="45.66899" lon="3.21048">
        <ele>355</ele>
        <time>2024-04-28T09:04:18Z</time>
      </trkpt>
      <trkpt lat="45.66904" lon="3.21051">
        <ele>355.2</ele>
        <time>2024-04-28T09:04:19Z</time>
      </trkpt>
      <trkpt lat="45.66909" lon="3.21054">
        <ele>355.2</ele>
        <time>2024-04-28T09:04:20Z</time>
      </trkpt>
      <trkpt lat="45.66913" lon="3.21057">
        <ele>355.2</ele>
        <time>2024-04-28T09:04:21Z</time>
      </trkpt>
      <trkpt lat="45.66918" lon="3.21059">
        <ele>355.2</ele>
        <time>2024-04-28T09:04:22Z</time>
      </trkpt>
      <trkpt lat="45.66923" lon="3.21062">
        <ele>355.2</ele>
        <time>2024-04-28T09:04:23Z</time>
      </trkpt>
      <trkpt lat="45.66927" lon="3.21064">
        <ele>355.2</ele>
        <time>2024-04-28T09:04:24Z</time>
      </trkpt>
      <trkpt lat="45.66932" lon="3.21066">
        <ele>355.2</ele>
        <time>2024-04-28T09:04:25Z</time>
      </trkpt>
      <trkpt lat="45.66937" lon="3.21069">
        <ele>355.2</ele>
        <time>2024-04-28T09:04:26Z</time>
      </trkpt>
      <trkpt lat="45.66942" lon="3.21071">
        <ele>355.2</ele>
        <time>2024-04-28T09:04:27Z</time>
      </trkpt>
      <trkpt lat="45.66947" lon="3.21073">
        <ele>355.4</ele>
        <time>2024-04-28T09:04:28Z</time>
      </trkpt>
      <trkpt lat="45.66952" lon="3.21076">
        <ele>355.4</ele>
        <time>2024-04-28T09:04:29Z</time>
      </trkpt>
      <trkpt lat="45.66957" lon="3.21078">
        <ele>355.4</ele>
        <time>2024-04-28T09:04:30Z</time>
      </trkpt>
      <trkpt lat="45.66962" lon="3.2108">
        <ele>355.4</ele>
        <time>2024-04-28T09:04:31Z</time>
      </trkpt>
      <trkpt lat="45.66967" lon="3.21082">
        <ele>355.4</ele>
        <time>2024-04-28T09:04:32Z</time>
      </trkpt>
      <trkpt lat="45.66972" lon="3.21081">
        <ele>355.4</ele>
        <time>2024-04-28T09:04:33Z</time>
      </trkpt>
      <trkpt lat="45.66977" lon="3.21081">
        <ele>355.4</ele>
        <time>2024-04-28T09:04:34Z</time>
      </trkpt>
      <trkpt lat="45.66982" lon="3.21081">
        <ele>355.6</ele>
        <time>2024-04-28T09:04:35Z</time>
      </trkpt>
      <trkpt lat="45.66987" lon="3.2108">
        <ele>355.6</ele>
        <time>2024-04-28T09:04:36Z</time>
      </trkpt>
      <trkpt lat="45.66992" lon="3.2108">
        <ele>355.6</ele>
        <time>2024-04-28T09:04:37Z</time>
      </trkpt>
      <trkpt lat="45.66997" lon="3.2108">
        <ele>355.6</ele>
        <time>2024-04-28T09:04:38Z</time>
      </trkpt>
      <trkpt lat="45.67002" lon="3.21079">
        <ele>355.8</ele>
        <time>2024-04-28T09:04:39Z</time>
      </trkpt>
      <trkpt lat="45.67007" lon="3.21079">
        <ele>355.8</ele>
        <time>2024-04-28T09:04:40Z</time>
      </trkpt>
      <trkpt lat="45.67012" lon="3.21079">
        <ele>355.8</ele>
        <time>2024-04-28T09:04:41Z</time>
      </trkpt>
      <trkpt lat="45.67017" lon="3.21078">
        <ele>356</ele>
        <time>2024-04-28T09:04:42Z</time>
      </trkpt>
      <trkpt lat="45.67022" lon="3.21078">
        <ele>356</ele>
        <time>2024-04-28T09:04:43Z</time>
      </trkpt>
      <trkpt lat="45.67026" lon="3.21077">
        <ele>356</ele>
        <time>2024-04-28T09:04:44Z</time>
      </trkpt>
      <trkpt lat="45.67031" lon="3.21075">
        <ele>356</ele>
        <time>2024-04-28T09:04:45Z</time>
      </trkpt>
      <trkpt lat="45.67036" lon="3.21072">
        <ele>356.2</ele>
        <time>2024-04-28T09:04:46Z</time>
      </trkpt>
      <trkpt lat="45.67041" lon="3.21069">
        <ele>356.2</ele>
        <time>2024-04-28T09:04:47Z</time>
      </trkpt>
      <trkpt lat="45.67047" lon="3.21067">
        <ele>356.2</ele>
        <time>2024-04-28T09:04:48Z</time>
      </trkpt>
      <trkpt lat="45.67052" lon="3.21064">
        <ele>356.4</ele>
        <time>2024-04-28T09:04:49Z</time>
      </trkpt>
      <trkpt lat="45.67057" lon="3.21062">
        <ele>356.4</ele>
        <time>2024-04-28T09:04:50Z</time>
      </trkpt>
      <trkpt lat="45.67062" lon="3.21059">
        <ele>356.4</ele>
        <time>2024-04-28T09:04:51Z</time>
      </trkpt>
      <trkpt lat="45.67067" lon="3.21056">
        <ele>356.4</ele>
        <time>2024-04-28T09:04:52Z</time>
      </trkpt>
      <trkpt lat="45.67072" lon="3.21054">
        <ele>356.4</ele>
        <time>2024-04-28T09:04:53Z</time>
      </trkpt>
      <trkpt lat="45.67077" lon="3.21051">
        <ele>356.4</ele>
        <time>2024-04-28T09:04:54Z</time>
      </trkpt>
      <trkpt lat="45.67082" lon="3.21047">
        <ele>356.4</ele>
        <time>2024-04-28T09:04:55Z</time>
      </trkpt>
      <trkpt lat="45.67086" lon="3.21042">
        <ele>356.6</ele>
        <time>2024-04-28T09:04:56Z</time>
      </trkpt>
      <trkpt lat="45.67091" lon="3.21038">
        <ele>356.6</ele>
        <time>2024-04-28T09:04:57Z</time>
      </trkpt>
      <trkpt lat="45.67095" lon="3.21033">
        <ele>356.6</ele>
        <time>2024-04-28T09:04:58Z</time>
      </trkpt>
      <trkpt lat="45.671" lon="3.21029">
        <ele>356.6</ele>
        <time>2024-04-28T09:04:59Z</time>
      </trkpt>
      <trkpt lat="45.67104" lon="3.21024">
        <ele>356.8</ele>
        <time>2024-04-28T09:05:00Z</time>
      </trkpt>
      <trkpt lat="45.67109" lon="3.2102">
        <ele>356.8</ele>
        <time>2024-04-28T09:05:01Z</time>
      </trkpt>
      <trkpt lat="45.67114" lon="3.21015">
        <ele>356.8</ele>
        <time>2024-04-28T09:05:02Z</time>
      </trkpt>
      <trkpt lat="45.67118" lon="3.21008">
        <ele>356.8</ele>
        <time>2024-04-28T09:05:03Z</time>
      </trkpt>
      <trkpt lat="45.67122" lon="3.21002">
        <ele>356.8</ele>
        <time>2024-04-28T09:05:04Z</time>
      </trkpt>
      <trkpt lat="45.67126" lon="3.20996">
        <ele>356.8</ele>
        <time>2024-04-28T09:05:05Z</time>
      </trkpt>
      <trkpt lat="45.6713" lon="3.2099">
        <ele>357</ele>
        <time>2024-04-28T09:05:06Z</time>
      </trkpt>
      <trkpt lat="45.67135" lon="3.20983">
        <ele>357</ele>
        <time>2024-04-28T09:05:07Z</time>
      </trkpt>
      <trkpt lat="45.67139" lon="3.20977">
        <ele>357</ele>
        <time>2024-04-28T09:05:08Z</time>
      </trkpt>
      <trkpt lat="45.67143" lon="3.2097">
        <ele>357</ele>
        <time>2024-04-28T09:05:09Z</time>
      </trkpt>
      <trkpt lat="45.67148" lon="3.20964">
        <ele>357.2</ele>
        <time>2024-04-28T09:05:10Z</time>
      </trkpt>
      <trkpt lat="45.67152" lon="3.20958">
        <ele>357.2</ele>
        <time>2024-04-28T09:05:11Z</time>
      </trkpt>
      <trkpt lat="45.67156" lon="3.20951">
        <ele>357.2</ele>
        <time>2024-04-28T09:05:12Z</time>
      </trkpt>
      <trkpt lat="45.67161" lon="3.20945">
        <ele>357.2</ele>
        <time>2024-04-28T09:05:13Z</time>
      </trkpt>
      <trkpt lat="45.67165" lon="3.20939">
        <ele>357.4</ele>
        <time>2024-04-28T09:05:14Z</time>
      </trkpt>
      <trkpt lat="45.67169" lon="3.20932">
        <ele>357.4</ele>
        <time>2024-04-28T09:05:15Z</time>
      </trkpt>
      <trkpt lat="45.67173" lon="3.20926">
        <ele>357.4</ele>
        <time>2024-04-28T09:05:16Z</time>
      </trkpt>
      <trkpt lat="45.67178" lon="3.2092">
        <ele>357.4</ele>
        <time>2024-04-28T09:05:17Z</time>
      </trkpt>
      <trkpt lat="45.67182" lon="3.20914">
        <ele>357.4</ele>
        <time>2024-04-28T09:05:18Z</time>
      </trkpt>
      <trkpt lat="45.67186" lon="3.20907">
        <ele>357.4</ele>
        <time>2024-04-28T09:05:19Z</time>
      </trkpt>
      <trkpt lat="45.6719" lon="3.20901">
        <ele>357.6</ele>
        <time>2024-04-28T09:05:20Z</time>
      </trkpt>
      <trkpt lat="45.67194" lon="3.20895">
        <ele>357.6</ele>
        <time>2024-04-28T09:05:21Z</time>
      </trkpt>
      <trkpt lat="45.67199" lon="3.20889">
        <ele>357.6</ele>
        <time>2024-04-28T09:05:22Z</time>
      </trkpt>
      <trkpt lat="45.67203" lon="3.20882">
        <ele>357.6</ele>
        <time>2024-04-28T09:05:23Z</time>
      </trkpt>
      <trkpt lat="45.67207" lon="3.20876">
        <ele>357.6</ele>
        <time>2024-04-28T09:05:24Z</time>
      </trkpt>
      <trkpt lat="45.67212" lon="3.2087">
        <ele>357.6</ele>
        <time>2024-04-28T09:05:25Z</time>
      </trkpt>
      <trkpt lat="45.67216" lon="3.20863">
        <ele>357.6</ele>
        <time>2024-04-28T09:05:26Z</time>
      </trkpt>
      <trkpt lat="45.6722" lon="3.20857">
        <ele>357.6</ele>
        <time>2024-04-28T09:05:27Z</time>
      </trkpt>
      <trkpt lat="45.67224" lon="3.20851">
        <ele>357.8</ele>
        <time>2024-04-28T09:05:28Z</time>
      </trkpt>
      <trkpt lat="45.67228" lon="3.20845">
        <ele>357.8</ele>
        <time>2024-04-28T09:05:29Z</time>
      </trkpt>
      <trkpt lat="45.67233" lon="3.20838">
        <ele>357.8</ele>
        <time>2024-04-28T09:05:30Z</time>
      </trkpt>
      <trkpt lat="45.67237" lon="3.20832">
        <ele>357.8</ele>
        <time>2024-04-28T09:05:31Z</time>
      </trkpt>
      <trkpt lat="45.67241" lon="3.20826">
        <ele>357.8</ele>
        <time>2024-04-28T09:05:32Z</time>
      </trkpt>
      <trkpt lat="45.67245" lon="3.2082">
        <ele>357.8</ele>
        <time>2024-04-28T09:05:33Z</time>
      </trkpt>
      <trkpt lat="45.6725" lon="3.20813">
        <ele>358</ele>
        <time>2024-04-28T09:05:34Z</time>
      </trkpt>
      <trkpt lat="45.67254" lon="3.20807">
        <ele>358</ele>
        <time>2024-04-28T09:05:35Z</time>
      </trkpt>
      <trkpt lat="45.67258" lon="3.20801">
        <ele>358</ele>
        <time>2024-04-28T09:05:36Z</time>
      </trkpt>
      <trkpt lat="45.67262" lon="3.20795">
        <ele>358</ele>
        <time>2024-04-28T09:05:37Z</time>
      </trkpt>
      <trkpt lat="45.67267" lon="3.20788">
        <ele>358</ele>
        <time>2024-04-28T09:05:38Z</time>
      </trkpt>
      <trkpt lat="45.67271" lon="3.20782">
        <ele>358</ele>
        <time>2024-04-28T09:05:39Z</time>
      </trkpt>
      <trkpt lat="45.67276" lon="3.20775">
        <ele>358.2</ele>
        <time>2024-04-28T09:05:40Z</time>
      </trkpt>
      <trkpt lat="45.6728" lon="3.20769">
        <ele>358.2</ele>
        <time>2024-04-28T09:05:41Z</time>
      </trkpt>
      <trkpt lat="45.67285" lon="3.20762">
        <ele>358.2</ele>
        <time>2024-04-28T09:05:42Z</time>
      </trkpt>
      <trkpt lat="45.67289" lon="3.20756">
        <ele>358.2</ele>
        <time>2024-04-28T09:05:43Z</time>
      </trkpt>
      <trkpt lat="45.67294" lon="3.20749">
        <ele>358.2</ele>
        <time>2024-04-28T09:05:44Z</time>
      </trkpt>
      <trkpt lat="45.67298" lon="3.20743">
        <ele>358.2</ele>
        <time>2024-04-28T09:05:45Z</time>
      </trkpt>
      <trkpt lat="45.67302" lon="3.20737">
        <ele>358.2</ele>
        <time>2024-04-28T09:05:46Z</time>
      </trkpt>
      <trkpt lat="45.67307" lon="3.2073">
        <ele>358.2</ele>
        <time>2024-04-28T09:05:47Z</time>
      </trkpt>
      <trkpt lat="45.67311" lon="3.20724">
        <ele>358.2</ele>
        <time>2024-04-28T09:05:48Z</time>
      </trkpt>
      <trkpt lat="45.67315" lon="3.20718">
        <ele>358.2</ele>
        <time>2024-04-28T09:05:49Z</time>
      </trkpt>
      <trkpt lat="45.6732" lon="3.20712">
        <ele>358.4</ele>
        <time>2024-04-28T09:05:50Z</time>
      </trkpt>
      <trkpt lat="45.67324" lon="3.20705">
        <ele>358.4</ele>
        <time>2024-04-28T09:05:51Z</time>
      </trkpt>
      <trkpt lat="45.67328" lon="3.20699">
        <ele>358.4</ele>
        <time>2024-04-28T09:05:52Z</time>
      </trkpt>
      <trkpt lat="45.67333" lon="3.20693">
        <ele>358.4</ele>
        <time>2024-04-28T09:05:53Z</time>
      </trkpt>
      <trkpt lat="45.67337" lon="3.20687">
        <ele>358.4</ele>
        <time>2024-04-28T09:05:54Z</time>
      </trkpt>
      <trkpt lat="45.67341" lon="3.20681">
        <ele>358.4</ele>
        <time>2024-04-28T09:05:55Z</time>
      </trkpt>
      <trkpt lat="45.67345" lon="3.20674">
        <ele>358.4</ele>
        <time>2024-04-28T09:05:56Z</time>
      </trkpt>
      <trkpt lat="45.6735" lon="3.20668">
        <ele>358.4</ele>
        <time>2024-04-28T09:05:57Z</time>
      </trkpt>
      <trkpt lat="45.67354" lon="3.20662">
        <ele>358.6</ele>
        <time>2024-04-28T09:05:58Z</time>
      </trkpt>
      <trkpt lat="45.67358" lon="3.20656">
        <ele>358.6</ele>
        <time>2024-04-28T09:05:59Z</time>
      </trkpt>
      <trkpt lat="45.67362" lon="3.2065">
        <ele>358.6</ele>
        <time>2024-04-28T09:06:00Z</time>
      </trkpt>
      <trkpt lat="45.67366" lon="3.20644">
        <ele>358.6</ele>
        <time>2024-04-28T09:06:01Z</time>
      </trkpt>
      <trkpt lat="45.6737" lon="3.20638">
        <ele>358.6</ele>
        <time>2024-04-28T09:06:02Z</time>
      </trkpt>
      <trkpt lat="45.67374" lon="3.20632">
        <ele>358.8</ele>
        <time>2024-04-28T09:06:03Z</time>
      </trkpt>
      <trkpt lat="45.67378" lon="3.20626">
        <ele>358.8</ele>
        <time>2024-04-28T09:06:04Z</time>
      </trkpt>
      <trkpt lat="45.67383" lon="3.2062">
        <ele>358.8</ele>
        <time>2024-04-28T09:06:05Z</time>
      </trkpt>
      <trkpt lat="45.67387" lon="3.20614">
        <ele>358.8</ele>
        <time>2024-04-28T09:06:06Z</time>
      </trkpt>
      <trkpt lat="45.67391" lon="3.20609">
        <ele>358.8</ele>
        <time>2024-04-28T09:06:07Z</time>
      </trkpt>
      <trkpt lat="45.67395" lon="3.20603">
        <ele>359</ele>
        <time>2024-04-28T09:06:08Z</time>
      </trkpt>
      <trkpt lat="45.67399" lon="3.20597">
        <ele>359</ele>
        <time>2024-04-28T09:06:09Z</time>
      </trkpt>
      <trkpt lat="45.67403" lon="3.20591">
        <ele>359</ele>
        <time>2024-04-28T09:06:10Z</time>
      </trkpt>
      <trkpt lat="45.67407" lon="3.20585">
        <ele>359.2</ele>
        <time>2024-04-28T09:06:11Z</time>
      </trkpt>
      <trkpt lat="45.67411" lon="3.20579">
        <ele>359.2</ele>
        <time>2024-04-28T09:06:12Z</time>
      </trkpt>
      <trkpt lat="45.67415" lon="3.20574">
        <ele>359.2</ele>
        <time>2024-04-28T09:06:13Z</time>
      </trkpt>
      <trkpt lat="45.67419" lon="3.20568">
        <ele>359.4</ele>
        <time>2024-04-28T09:06:14Z</time>
      </trkpt>
      <trkpt lat="45.67423" lon="3.20562">
        <ele>359.4</ele>
        <time>2024-04-28T09:06:15Z</time>
      </trkpt>
      <trkpt lat="45.67426" lon="3.20557">
        <ele>359.4</ele>
        <time>2024-04-28T09:06:16Z</time>
      </trkpt>
      <trkpt lat="45.6743" lon="3.20551">
        <ele>359.4</ele>
        <time>2024-04-28T09:06:17Z</time>
      </trkpt>
      <trkpt lat="45.67434" lon="3.20545">
        <ele>359.4</ele>
        <time>2024-04-28T09:06:18Z</time>
      </trkpt>
      <trkpt lat="45.67438" lon="3.2054">
        <ele>359.6</ele>
        <time>2024-04-28T09:06:19Z</time>
      </trkpt>
      <trkpt lat="45.67442" lon="3.20534">
        <ele>359.6</ele>
        <time>2024-04-28T09:06:20Z</time>
      </trkpt>
      <trkpt lat="45.67446" lon="3.20528">
        <ele>359.6</ele>
        <time>2024-04-28T09:06:21Z</time>
      </trkpt>
      <trkpt lat="45.6745" lon="3.20522">
        <ele>359.6</ele>
        <time>2024-04-28T09:06:22Z</time>
      </trkpt>
      <trkpt lat="45.67454" lon="3.20517">
        <ele>359.6</ele>
        <time>2024-04-28T09:06:23Z</time>
      </trkpt>
      <trkpt lat="45.67458" lon="3.20511">
        <ele>359.8</ele>
        <time>2024-04-28T09:06:24Z</time>
      </trkpt>
      <trkpt lat="45.67461" lon="3.20506">
        <ele>359.8</ele>
        <time>2024-04-28T09:06:25Z</time>
      </trkpt>
      <trkpt lat="45.67465" lon="3.205">
        <ele>359.8</ele>
        <time>2024-04-28T09:06:26Z</time>
      </trkpt>
      <trkpt lat="45.67469" lon="3.20495">
        <ele>360</ele>
        <time>2024-04-28T09:06:27Z</time>
      </trkpt>
      <trkpt lat="45.67473" lon="3.20489">
        <ele>360</ele>
        <time>2024-04-28T09:06:28Z</time>
      </trkpt>
      <trkpt lat="45.67477" lon="3.20484">
        <ele>360.2</ele>
        <time>2024-04-28T09:06:29Z</time>
      </trkpt>
      <trkpt lat="45.67481" lon="3.20478">
        <ele>360.2</ele>
        <time>2024-04-28T09:06:30Z</time>
      </trkpt>
      <trkpt lat="45.67485" lon="3.20472">
        <ele>360.4</ele>
        <time>2024-04-28T09:06:31Z</time>
      </trkpt>
      <trkpt lat="45.67488" lon="3.20467">
        <ele>360.4</ele>
        <time>2024-04-28T09:06:32Z</time>
      </trkpt>
      <trkpt lat="45.67492" lon="3.20461">
        <ele>360.4</ele>
        <time>2024-04-28T09:06:33Z</time>
      </trkpt>
      <trkpt lat="45.67496" lon="3.20456">
        <ele>360.6</ele>
        <time>2024-04-28T09:06:34Z</time>
      </trkpt>
      <trkpt lat="45.675" lon="3.2045">
        <ele>360.6</ele>
        <time>2024-04-28T09:06:35Z</time>
      </trkpt>
      <trkpt lat="45.67503" lon="3.20445">
        <ele>360.6</ele>
        <time>2024-04-28T09:06:36Z</time>
      </trkpt>
      <trkpt lat="45.67507" lon="3.2044">
        <ele>360.8</ele>
        <time>2024-04-28T09:06:37Z</time>
      </trkpt>
      <trkpt lat="45.67511" lon="3.20434">
        <ele>360.8</ele>
        <time>2024-04-28T09:06:38Z</time>
      </trkpt>
      <trkpt lat="45.67515" lon="3.20429">
        <ele>361</ele>
        <time>2024-04-28T09:06:39Z</time>
      </trkpt>
      <trkpt lat="45.67518" lon="3.20423">
        <ele>361</ele>
        <time>2024-04-28T09:06:40Z</time>
      </trkpt>
      <trkpt lat="45.67522" lon="3.20418">
        <ele>361</ele>
        <time>2024-04-28T09:06:41Z</time>
      </trkpt>
      <trkpt lat="45.67526" lon="3.20412">
        <ele>361</ele>
        <time>2024-04-28T09:06:42Z</time>
      </trkpt>
      <trkpt lat="45.6753" lon="3.20407">
        <ele>361.2</ele>
        <time>2024-04-28T09:06:43Z</time>
      </trkpt>
      <trkpt lat="45.67533" lon="3.20402">
        <ele>361.2</ele>
        <time>2024-04-28T09:06:44Z</time>
      </trkpt>
      <trkpt lat="45.67537" lon="3.20396">
        <ele>361.4</ele>
        <time>2024-04-28T09:06:45Z</time>
      </trkpt>
      <trkpt lat="45.67541" lon="3.20391">
        <ele>361.4</ele>
        <time>2024-04-28T09:06:46Z</time>
      </trkpt>
      <trkpt lat="45.67544" lon="3.20386">
        <ele>361.4</ele>
        <time>2024-04-28T09:06:47Z</time>
      </trkpt>
      <trkpt lat="45.67548" lon="3.2038">
        <ele>361.6</ele>
        <time>2024-04-28T09:06:48Z</time>
      </trkpt>
      <trkpt lat="45.67552" lon="3.20375">
        <ele>361.8</ele>
        <time>2024-04-28T09:06:49Z</time>
      </trkpt>
      <trkpt lat="45.67555" lon="3.20369">
        <ele>361.8</ele>
        <time>2024-04-28T09:06:50Z</time>
      </trkpt>
      <trkpt lat="45.67559" lon="3.20364">
        <ele>361.8</ele>
        <time>2024-04-28T09:06:51Z</time>
      </trkpt>
      <trkpt lat="45.67563" lon="3.20359">
        <ele>362</ele>
        <time>2024-04-28T09:06:52Z</time>
      </trkpt>
      <trkpt lat="45.67566" lon="3.20354">
        <ele>362</ele>
        <time>2024-04-28T09:06:53Z</time>
      </trkpt>
      <trkpt lat="45.6757" lon="3.20348">
        <ele>362.2</ele>
        <time>2024-04-28T09:06:54Z</time>
      </trkpt>
      <trkpt lat="45.67573" lon="3.20342">
        <ele>362.2</ele>
        <time>2024-04-28T09:06:55Z</time>
      </trkpt>
      <trkpt lat="45.67576" lon="3.20336">
        <ele>362.2</ele>
        <time>2024-04-28T09:06:56Z</time>
      </trkpt>
      <trkpt lat="45.67579" lon="3.2033">
        <ele>362.4</ele>
        <time>2024-04-28T09:06:57Z</time>
      </trkpt>
      <trkpt lat="45.67582" lon="3.20324">
        <ele>362.4</ele>
        <time>2024-04-28T09:06:58Z</time>
      </trkpt>
      <trkpt lat="45.67585" lon="3.20318">
        <ele>362.6</ele>
        <time>2024-04-28T09:06:59Z</time>
      </trkpt>
      <trkpt lat="45.67588" lon="3.20312">
        <ele>362.6</ele>
        <time>2024-04-28T09:07:00Z</time>
      </trkpt>
      <trkpt lat="45.67591" lon="3.20306">
        <ele>362.8</ele>
        <time>2024-04-28T09:07:01Z</time>
      </trkpt>
      <trkpt lat="45.67594" lon="3.203">
        <ele>362.8</ele>
        <time>2024-04-28T09:07:02Z</time>
      </trkpt>
      <trkpt lat="45.67597" lon="3.20294">
        <ele>363</ele>
        <time>2024-04-28T09:07:03Z</time>
      </trkpt>
      <trkpt lat="45.676" lon="3.20288">
        <ele>363</ele>
        <time>2024-04-28T09:07:04Z</time>
      </trkpt>
      <trkpt lat="45.67603" lon="3.20282">
        <ele>363</ele>
        <time>2024-04-28T09:07:05Z</time>
      </trkpt>
      <trkpt lat="45.67606" lon="3.20275">
        <ele>363.2</ele>
        <time>2024-04-28T09:07:06Z</time>
      </trkpt>
      <trkpt lat="45.67609" lon="3.2027">
        <ele>363.2</ele>
        <time>2024-04-28T09:07:07Z</time>
      </trkpt>
      <trkpt lat="45.67613" lon="3.20263">
        <ele>363.4</ele>
        <time>2024-04-28T09:07:08Z</time>
      </trkpt>
      <trkpt lat="45.67616" lon="3.20257">
        <ele>363.4</ele>
        <time>2024-04-28T09:07:09Z</time>
      </trkpt>
      <trkpt lat="45.67619" lon="3.20251">
        <ele>363.6</ele>
        <time>2024-04-28T09:07:10Z</time>
      </trkpt>
      <trkpt lat="45.67622" lon="3.20244">
        <ele>363.6</ele>
        <time>2024-04-28T09:07:11Z</time>
      </trkpt>
      <trkpt lat="45.67625" lon="3.20238">
        <ele>363.8</ele>
        <time>2024-04-28T09:07:12Z</time>
      </trkpt>
      <trkpt lat="45.67628" lon="3.20232">
        <ele>363.8</ele>
        <time>2024-04-28T09:07:13Z</time>
      </trkpt>
      <trkpt lat="45.67631" lon="3.20225">
        <ele>363.8</ele>
        <time>2024-04-28T09:07:14Z</time>
      </trkpt>
      <trkpt lat="45.67634" lon="3.20218">
        <ele>364</ele>
        <time>2024-04-28T09:07:15Z</time>
      </trkpt>
      <trkpt lat="45.67637" lon="3.20211">
        <ele>364</ele>
        <time>2024-04-28T09:07:16Z</time>
      </trkpt>
      <trkpt lat="45.6764" lon="3.20205">
        <ele>364</ele>
        <time>2024-04-28T09:07:17Z</time>
      </trkpt>
      <trkpt lat="45.67643" lon="3.20198">
        <ele>364.2</ele>
        <time>2024-04-28T09:07:18Z</time>
      </trkpt>
      <trkpt lat="45.67646" lon="3.2019">
        <ele>364.2</ele>
        <time>2024-04-28T09:07:19Z</time>
      </trkpt>
      <trkpt lat="45.67649" lon="3.20183">
        <ele>364.4</ele>
        <time>2024-04-28T09:07:20Z</time>
      </trkpt>
      <trkpt lat="45.67652" lon="3.20176">
        <ele>364.6</ele>
        <time>2024-04-28T09:07:21Z</time>
      </trkpt>
      <trkpt lat="45.67655" lon="3.20169">
        <ele>364.6</ele>
        <time>2024-04-28T09:07:22Z</time>
      </trkpt>
      <trkpt lat="45.67657" lon="3.20161">
        <ele>364.6</ele>
        <time>2024-04-28T09:07:23Z</time>
      </trkpt>
      <trkpt lat="45.6766" lon="3.20154">
        <ele>364.8</ele>
        <time>2024-04-28T09:07:24Z</time>
      </trkpt>
      <trkpt lat="45.67662" lon="3.20147">
        <ele>364.8</ele>
        <time>2024-04-28T09:07:25Z</time>
      </trkpt>
      <trkpt lat="45.67665" lon="3.2014">
        <ele>365</ele>
        <time>2024-04-28T09:07:26Z</time>
      </trkpt>
      <trkpt lat="45.67668" lon="3.20132">
        <ele>365</ele>
        <time>2024-04-28T09:07:27Z</time>
      </trkpt>
      <trkpt lat="45.6767" lon="3.20125">
        <ele>365</ele>
        <time>2024-04-28T09:07:28Z</time>
      </trkpt>
      <trkpt lat="45.67673" lon="3.20118">
        <ele>365.2</ele>
        <time>2024-04-28T09:07:29Z</time>
      </trkpt>
      <trkpt lat="45.67675" lon="3.2011">
        <ele>365.2</ele>
        <time>2024-04-28T09:07:30Z</time>
      </trkpt>
      <trkpt lat="45.67678" lon="3.20103">
        <ele>365.4</ele>
        <time>2024-04-28T09:07:31Z</time>
      </trkpt>
      <trkpt lat="45.67681" lon="3.20096">
        <ele>365.4</ele>
        <time>2024-04-28T09:07:32Z</time>
      </trkpt>
      <trkpt lat="45.67683" lon="3.20088">
        <ele>365.6</ele>
        <time>2024-04-28T09:07:33Z</time>
      </trkpt>
      <trkpt lat="45.67686" lon="3.20081">
        <ele>365.6</ele>
        <time>2024-04-28T09:07:34Z</time>
      </trkpt>
      <trkpt lat="45.67688" lon="3.20074">
        <ele>365.8</ele>
        <time>2024-04-28T09:07:35Z</time>
      </trkpt>
      <trkpt lat="45.67691" lon="3.20067">
        <ele>365.8</ele>
        <time>2024-04-28T09:07:36Z</time>
      </trkpt>
      <trkpt lat="45.67693" lon="3.20061">
        <ele>366</ele>
        <time>2024-04-28T09:07:37Z</time>
      </trkpt>
      <trkpt lat="45.67696" lon="3.20054">
        <ele>366</ele>
        <time>2024-04-28T09:07:38Z</time>
      </trkpt>
      <trkpt lat="45.67698" lon="3.20047">
        <ele>366</ele>
        <time>2024-04-28T09:07:39Z</time>
      </trkpt>
      <trkpt lat="45.67701" lon="3.2004">
        <ele>366.2</ele>
        <time>2024-04-28T09:07:40Z</time>
      </trkpt>
      <trkpt lat="45.67703" lon="3.20033">
        <ele>366.2</ele>
        <time>2024-04-28T09:07:41Z</time>
      </trkpt>
      <trkpt lat="45.67706" lon="3.20026">
        <ele>366.4</ele>
        <time>2024-04-28T09:07:42Z</time>
      </trkpt>
      <trkpt lat="45.67709" lon="3.20018">
        <ele>366.4</ele>
        <time>2024-04-28T09:07:43Z</time>
      </trkpt>
      <trkpt lat="45.67712" lon="3.20011">
        <ele>366.6</ele>
        <time>2024-04-28T09:07:44Z</time>
      </trkpt>
      <trkpt lat="45.67714" lon="3.20004">
        <ele>366.6</ele>
        <time>2024-04-28T09:07:45Z</time>
      </trkpt>
      <trkpt lat="45.67717" lon="3.19997">
        <ele>366.8</ele>
        <time>2024-04-28T09:07:46Z</time>
      </trkpt>
      <trkpt lat="45.6772" lon="3.1999">
        <ele>366.8</ele>
        <time>2024-04-28T09:07:47Z</time>
      </trkpt>
      <trkpt lat="45.67723" lon="3.19983">
        <ele>366.8</ele>
        <time>2024-04-28T09:07:48Z</time>
      </trkpt>
      <trkpt lat="45.67726" lon="3.19975">
        <ele>367</ele>
        <time>2024-04-28T09:07:49Z</time>
      </trkpt>
      <trkpt lat="45.67729" lon="3.19968">
        <ele>367</ele>
        <time>2024-04-28T09:07:50Z</time>
      </trkpt>
      <trkpt lat="45.67732" lon="3.1996">
        <ele>367</ele>
        <time>2024-04-28T09:07:51Z</time>
      </trkpt>
      <trkpt lat="45.67735" lon="3.19952">
        <ele>367.2</ele>
        <time>2024-04-28T09:07:52Z</time>
      </trkpt>
      <trkpt lat="45.67737" lon="3.19945">
        <ele>367.2</ele>
        <time>2024-04-28T09:07:53Z</time>
      </trkpt>
      <trkpt lat="45.67742" lon="3.19939">
        <ele>367.2</ele>
        <time>2024-04-28T09:07:54Z</time>
      </trkpt>
      <trkpt lat="45.67746" lon="3.19932">
        <ele>367.2</ele>
        <time>2024-04-28T09:07:55Z</time>
      </trkpt>
      <trkpt lat="45.67751" lon="3.19926">
        <ele>367.2</ele>
        <time>2024-04-28T09:07:56Z</time>
      </trkpt>
      <trkpt lat="45.67756" lon="3.19919">
        <ele>367.4</ele>
        <time>2024-04-28T09:07:57Z</time>
      </trkpt>
      <trkpt lat="45.67761" lon="3.19912">
        <ele>367.4</ele>
        <time>2024-04-28T09:07:58Z</time>
      </trkpt>
      <trkpt lat="45.67766" lon="3.19905">
        <ele>367.4</ele>
        <time>2024-04-28T09:07:59Z</time>
      </trkpt>
      <trkpt lat="45.67772" lon="3.19897">
        <ele>367.4</ele>
        <time>2024-04-28T09:08:00Z</time>
      </trkpt>
      <trkpt lat="45.67777" lon="3.1989">
        <ele>367.4</ele>
        <time>2024-04-28T09:08:01Z</time>
      </trkpt>
      <trkpt lat="45.67783" lon="3.19882">
        <ele>367.6</ele>
        <time>2024-04-28T09:08:02Z</time>
      </trkpt>
      <trkpt lat="45.6779" lon="3.19876">
        <ele>367.6</ele>
        <time>2024-04-28T09:08:03Z</time>
      </trkpt>
      <trkpt lat="45.67797" lon="3.19869">
        <ele>367.6</ele>
        <time>2024-04-28T09:08:04Z</time>
      </trkpt>
      <trkpt lat="45.67804" lon="3.19863">
        <ele>367.6</ele>
        <time>2024-04-28T09:08:05Z</time>
      </trkpt>
      <trkpt lat="45.67811" lon="3.19856">
        <ele>367.6</ele>
        <time>2024-04-28T09:08:06Z</time>
      </trkpt>
      <trkpt lat="45.67819" lon="3.19849">
        <ele>367.6</ele>
        <time>2024-04-28T09:08:07Z</time>
      </trkpt>
      <trkpt lat="45.67826" lon="3.19842">
        <ele>367.6</ele>
        <time>2024-04-28T09:08:08Z</time>
      </trkpt>
      <trkpt lat="45.67834" lon="3.19836">
        <ele>367.6</ele>
        <time>2024-04-28T09:08:09Z</time>
      </trkpt>
      <trkpt lat="45.67841" lon="3.19828">
        <ele>367.6</ele>
        <time>2024-04-28T09:08:10Z</time>
      </trkpt>
      <trkpt lat="45.67847" lon="3.19819">
        <ele>367.6</ele>
        <time>2024-04-28T09:08:11Z</time>
      </trkpt>
      <trkpt lat="45.67855" lon="3.19811">
        <ele>367.6</ele>
        <time>2024-04-28T09:08:12Z</time>
      </trkpt>
      <trkpt lat="45.67861" lon="3.19801">
        <ele>367.4</ele>
        <time>2024-04-28T09:08:13Z</time>
      </trkpt>
      <trkpt lat="45.67868" lon="3.19791">
        <ele>367.4</ele>
        <time>2024-04-28T09:08:14Z</time>
      </trkpt>
      <trkpt lat="45.67874" lon="3.1978">
        <ele>367.6</ele>
        <time>2024-04-28T09:08:15Z</time>
      </trkpt>
      <trkpt lat="45.67879" lon="3.19769">
        <ele>366.8</ele>
        <time>2024-04-28T09:08:16Z</time>
      </trkpt>
      <trkpt lat="45.67885" lon="3.19757">
        <ele>367</ele>
        <time>2024-04-28T09:08:17Z</time>
      </trkpt>
      <trkpt lat="45.6789" lon="3.19745">
        <ele>366.8</ele>
        <time>2024-04-28T09:08:18Z</time>
      </trkpt>
      <trkpt lat="45.67896" lon="3.19733">
        <ele>366.6</ele>
        <time>2024-04-28T09:08:19Z</time>
      </trkpt>
      <trkpt lat="45.67901" lon="3.19721">
        <ele>366.6</ele>
        <time>2024-04-28T09:08:20Z</time>
      </trkpt>
      <trkpt lat="45.67907" lon="3.19709">
        <ele>366.4</ele>
        <time>2024-04-28T09:08:21Z</time>
      </trkpt>
      <trkpt lat="45.67913" lon="3.19696">
        <ele>366.2</ele>
        <time>2024-04-28T09:08:22Z</time>
      </trkpt>
      <trkpt lat="45.67918" lon="3.19683">
        <ele>366</ele>
        <time>2024-04-28T09:08:23Z</time>
      </trkpt>
      <trkpt lat="45.67923" lon="3.1967">
        <ele>366</ele>
        <time>2024-04-28T09:08:24Z</time>
      </trkpt>
      <trkpt lat="45.67929" lon="3.19657">
        <ele>365.8</ele>
        <time>2024-04-28T09:08:25Z</time>
      </trkpt>
      <trkpt lat="45.67934" lon="3.19644">
        <ele>365.6</ele>
        <time>2024-04-28T09:08:26Z</time>
      </trkpt>
      <trkpt lat="45.67939" lon="3.19632">
        <ele>365.4</ele>
        <time>2024-04-28T09:08:27Z</time>
      </trkpt>
      <trkpt lat="45.67944" lon="3.1962">
        <ele>365.4</ele>
        <time>2024-04-28T09:08:28Z</time>
      </trkpt>
      <trkpt lat="45.67949" lon="3.19609">
        <ele>365</ele>
        <time>2024-04-28T09:08:29Z</time>
      </trkpt>
      <trkpt lat="45.67954" lon="3.19599">
        <ele>365</ele>
        <time>2024-04-28T09:08:30Z</time>
      </trkpt>
      <trkpt lat="45.67958" lon="3.19587">
        <ele>364.8</ele>
        <time>2024-04-28T09:08:31Z</time>
      </trkpt>
      <trkpt lat="45.67962" lon="3.19576">
        <ele>364.6</ele>
        <time>2024-04-28T09:08:32Z</time>
      </trkpt>
      <trkpt lat="45.67966" lon="3.19565">
        <ele>364.4</ele>
        <time>2024-04-28T09:08:33Z</time>
      </trkpt>
      <trkpt lat="45.67971" lon="3.19554">
        <ele>364.2</ele>
        <time>2024-04-28T09:08:34Z</time>
      </trkpt>
      <trkpt lat="45.67975" lon="3.19542">
        <ele>364</ele>
        <time>2024-04-28T09:08:35Z</time>
      </trkpt>
      <trkpt lat="45.67979" lon="3.1953">
        <ele>363.8</ele>
        <time>2024-04-28T09:08:36Z</time>
      </trkpt>
      <trkpt lat="45.67984" lon="3.19518">
        <ele>363.6</ele>
        <time>2024-04-28T09:08:37Z</time>
      </trkpt>
      <trkpt lat="45.67988" lon="3.19507">
        <ele>363.4</ele>
        <time>2024-04-28T09:08:38Z</time>
      </trkpt>
      <trkpt lat="45.67992" lon="3.19495">
        <ele>363.4</ele>
        <time>2024-04-28T09:08:39Z</time>
      </trkpt>
      <trkpt lat="45.67996" lon="3.19484">
        <ele>363.2</ele>
        <time>2024-04-28T09:08:40Z</time>
      </trkpt>
      <trkpt lat="45.68" lon="3.19473">
        <ele>363</ele>
        <time>2024-04-28T09:08:41Z</time>
      </trkpt>
      <trkpt lat="45.68003" lon="3.19461">
        <ele>362.8</ele>
        <time>2024-04-28T09:08:42Z</time>
      </trkpt>
      <trkpt lat="45.68007" lon="3.19449">
        <ele>362.6</ele>
        <time>2024-04-28T09:08:43Z</time>
      </trkpt>
      <trkpt lat="45.68011" lon="3.19437">
        <ele>362.4</ele>
        <time>2024-04-28T09:08:44Z</time>
      </trkpt>
      <trkpt lat="45.68014" lon="3.19425">
        <ele>362.4</ele>
        <time>2024-04-28T09:08:45Z</time>
      </trkpt>
      <trkpt lat="45.68018" lon="3.19413">
        <ele>362.2</ele>
        <time>2024-04-28T09:08:46Z</time>
      </trkpt>
      <trkpt lat="45.68021" lon="3.19401">
        <ele>362</ele>
        <time>2024-04-28T09:08:47Z</time>
      </trkpt>
      <trkpt lat="45.68025" lon="3.1939">
        <ele>361.8</ele>
        <time>2024-04-28T09:08:48Z</time>
      </trkpt>
      <trkpt lat="45.68028" lon="3.19378">
        <ele>361.6</ele>
        <time>2024-04-28T09:08:49Z</time>
      </trkpt>
      <trkpt lat="45.68031" lon="3.19366">
        <ele>361.4</ele>
        <time>2024-04-28T09:08:50Z</time>
      </trkpt>
      <trkpt lat="45.68035" lon="3.19354">
        <ele>361.2</ele>
        <time>2024-04-28T09:08:51Z</time>
      </trkpt>
      <trkpt lat="45.68038" lon="3.19342">
        <ele>361</ele>
        <time>2024-04-28T09:08:52Z</time>
      </trkpt>
      <trkpt lat="45.68041" lon="3.1933">
        <ele>361</ele>
        <time>2024-04-28T09:08:53Z</time>
      </trkpt>
      <trkpt lat="45.68044" lon="3.19319">
        <ele>360.6</ele>
        <time>2024-04-28T09:08:54Z</time>
      </trkpt>
      <trkpt lat="45.68047" lon="3.19307">
        <ele>360.6</ele>
        <time>2024-04-28T09:08:55Z</time>
      </trkpt>
      <trkpt lat="45.6805" lon="3.19295">
        <ele>360.4</ele>
        <time>2024-04-28T09:08:56Z</time>
      </trkpt>
      <trkpt lat="45.68054" lon="3.19284">
        <ele>360.2</ele>
        <time>2024-04-28T09:08:57Z</time>
      </trkpt>
      <trkpt lat="45.68057" lon="3.19273">
        <ele>360</ele>
        <time>2024-04-28T09:08:58Z</time>
      </trkpt>
      <trkpt lat="45.68061" lon="3.19262">
        <ele>359.8</ele>
        <time>2024-04-28T09:08:59Z</time>
      </trkpt>
      <trkpt lat="45.68064" lon="3.19252">
        <ele>359.6</ele>
        <time>2024-04-28T09:09:00Z</time>
      </trkpt>
      <trkpt lat="45.68067" lon="3.19244">
        <ele>359.4</ele>
        <time>2024-04-28T09:09:01Z</time>
      </trkpt>
      <trkpt lat="45.68069" lon="3.19237">
        <ele>359.4</ele>
        <time>2024-04-28T09:09:02Z</time>
      </trkpt>
      <trkpt lat="45.68071" lon="3.19231">
        <ele>359.2</ele>
        <time>2024-04-28T09:09:03Z</time>
      </trkpt>
      <trkpt lat="45.68072" lon="3.19226">
        <ele>359</ele>
        <time>2024-04-28T09:09:04Z</time>
      </trkpt>
      <trkpt lat="45.68074" lon="3.19222">
        <ele>358.8</ele>
        <time>2024-04-28T09:09:05Z</time>
      </trkpt>
      <trkpt lat="45.68075" lon="3.19219">
        <ele>358.8</ele>
        <time>2024-04-28T09:09:06Z</time>
      </trkpt>
      <trkpt lat="45.68076" lon="3.19216">
        <ele>358.6</ele>
        <time>2024-04-28T09:09:07Z</time>
      </trkpt>
      <trkpt lat="45.68077" lon="3.19213">
        <ele>358.4</ele>
        <time>2024-04-28T09:09:08Z</time>
      </trkpt>
      <trkpt lat="45.68077" lon="3.19211">
        <ele>358.2</ele>
        <time>2024-04-28T09:09:09Z</time>
      </trkpt>
      <trkpt lat="45.68078" lon="3.19209">
        <ele>358</ele>
        <time>2024-04-28T09:09:10Z</time>
      </trkpt>
      <trkpt lat="45.68079" lon="3.19207">
        <ele>358</ele>
        <time>2024-04-28T09:09:11Z</time>
      </trkpt>
      <trkpt lat="45.68079" lon="3.19205">
        <ele>357.8</ele>
        <time>2024-04-28T09:09:12Z</time>
      </trkpt>
      <trkpt lat="45.68081" lon="3.192">
        <ele>357.6</ele>
        <time>2024-04-28T09:09:13Z</time>
      </trkpt>
      <trkpt lat="45.68081" lon="3.192">
        <ele>357.6</ele>
        <time>2024-04-28T09:09:14Z</time>
      </trkpt>
      <trkpt lat="45.68083" lon="3.19198">
        <ele>357.4</ele>
        <time>2024-04-28T09:09:15Z</time>
      </trkpt>
      <trkpt lat="45.68085" lon="3.19195">
        <ele>357.4</ele>
        <time>2024-04-28T09:09:16Z</time>
      </trkpt>
      <trkpt lat="45.68088" lon="3.19191">
        <ele>357.2</ele>
        <time>2024-04-28T09:09:17Z</time>
      </trkpt>
      <trkpt lat="45.68094" lon="3.19189">
        <ele>357.2</ele>
        <time>2024-04-28T09:09:18Z</time>
      </trkpt>
      <trkpt lat="45.68099" lon="3.19189">
        <ele>357</ele>
        <time>2024-04-28T09:09:19Z</time>
      </trkpt>
      <trkpt lat="45.68104" lon="3.1919">
        <ele>357</ele>
        <time>2024-04-28T09:09:20Z</time>
      </trkpt>
      <trkpt lat="45.6811" lon="3.19192">
        <ele>356.8</ele>
        <time>2024-04-28T09:09:21Z</time>
      </trkpt>
      <trkpt lat="45.68116" lon="3.19194">
        <ele>356.8</ele>
        <time>2024-04-28T09:09:22Z</time>
      </trkpt>
      <trkpt lat="45.68123" lon="3.19196">
        <ele>356.6</ele>
        <time>2024-04-28T09:09:23Z</time>
      </trkpt>
      <trkpt lat="45.6813" lon="3.19198">
        <ele>356.6</ele>
        <time>2024-04-28T09:09:24Z</time>
      </trkpt>
      <trkpt lat="45.68137" lon="3.19202">
        <ele>356.4</ele>
        <time>2024-04-28T09:09:25Z</time>
      </trkpt>
      <trkpt lat="45.68144" lon="3.19206">
        <ele>356.4</ele>
        <time>2024-04-28T09:09:26Z</time>
      </trkpt>
      <trkpt lat="45.68151" lon="3.1921">
        <ele>356.4</ele>
        <time>2024-04-28T09:09:27Z</time>
      </trkpt>
      <trkpt lat="45.68158" lon="3.19214">
        <ele>356.2</ele>
        <time>2024-04-28T09:09:28Z</time>
      </trkpt>
      <trkpt lat="45.68165" lon="3.19218">
        <ele>356</ele>
        <time>2024-04-28T09:09:29Z</time>
      </trkpt>
      <trkpt lat="45.68171" lon="3.19222">
        <ele>356</ele>
        <time>2024-04-28T09:09:30Z</time>
      </trkpt>
      <trkpt lat="45.68178" lon="3.19226">
        <ele>355.8</ele>
        <time>2024-04-28T09:09:31Z</time>
      </trkpt>
      <trkpt lat="45.68184" lon="3.1923">
        <ele>355.8</ele>
        <time>2024-04-28T09:09:32Z</time>
      </trkpt>
      <trkpt lat="45.68191" lon="3.19234">
        <ele>355.6</ele>
        <time>2024-04-28T09:09:33Z</time>
      </trkpt>
      <trkpt lat="45.68198" lon="3.19238">
        <ele>355.6</ele>
        <time>2024-04-28T09:09:34Z</time>
      </trkpt>
      <trkpt lat="45.68204" lon="3.19241">
        <ele>355.4</ele>
        <time>2024-04-28T09:09:35Z</time>
      </trkpt>
      <trkpt lat="45.6821" lon="3.19245">
        <ele>355.4</ele>
        <time>2024-04-28T09:09:36Z</time>
      </trkpt>
      <trkpt lat="45.68217" lon="3.19249">
        <ele>355.4</ele>
        <time>2024-04-28T09:09:37Z</time>
      </trkpt>
      <trkpt lat="45.68223" lon="3.19253">
        <ele>355.2</ele>
        <time>2024-04-28T09:09:38Z</time>
      </trkpt>
      <trkpt lat="45.68229" lon="3.19257">
        <ele>355.2</ele>
        <time>2024-04-28T09:09:39Z</time>
      </trkpt>
      <trkpt lat="45.68236" lon="3.19261">
        <ele>355.2</ele>
        <time>2024-04-28T09:09:40Z</time>
      </trkpt>
      <trkpt lat="45.68243" lon="3.19265">
        <ele>355</ele>
        <time>2024-04-28T09:09:41Z</time>
      </trkpt>
      <trkpt lat="45.68249" lon="3.19269">
        <ele>355</ele>
        <time>2024-04-28T09:09:42Z</time>
      </trkpt>
      <trkpt lat="45.68256" lon="3.19273">
        <ele>354.8</ele>
        <time>2024-04-28T09:09:43Z</time>
      </trkpt>
      <trkpt lat="45.68263" lon="3.19277">
        <ele>354.6</ele>
        <time>2024-04-28T09:09:44Z</time>
      </trkpt>
      <trkpt lat="45.6827" lon="3.19281">
        <ele>354.6</ele>
        <time>2024-04-28T09:09:45Z</time>
      </trkpt>
      <trkpt lat="45.68277" lon="3.19285">
        <ele>354.4</ele>
        <time>2024-04-28T09:09:46Z</time>
      </trkpt>
      <trkpt lat="45.68284" lon="3.19289">
        <ele>354.4</ele>
        <time>2024-04-28T09:09:47Z</time>
      </trkpt>
      <trkpt lat="45.68291" lon="3.19292">
        <ele>354.2</ele>
        <time>2024-04-28T09:09:48Z</time>
      </trkpt>
      <trkpt lat="45.68298" lon="3.19296">
        <ele>354</ele>
        <time>2024-04-28T09:09:49Z</time>
      </trkpt>
      <trkpt lat="45.68305" lon="3.19301">
        <ele>354</ele>
        <time>2024-04-28T09:09:50Z</time>
      </trkpt>
      <trkpt lat="45.68312" lon="3.19305">
        <ele>353.8</ele>
        <time>2024-04-28T09:09:51Z</time>
      </trkpt>
      <trkpt lat="45.68318" lon="3.19309">
        <ele>353.6</ele>
        <time>2024-04-28T09:09:52Z</time>
      </trkpt>
      <trkpt lat="45.68325" lon="3.19313">
        <ele>353.4</ele>
        <time>2024-04-28T09:09:53Z</time>
      </trkpt>
      <trkpt lat="45.68332" lon="3.19317">
        <ele>353.4</ele>
        <time>2024-04-28T09:09:54Z</time>
      </trkpt>
      <trkpt lat="45.6834" lon="3.19322">
        <ele>353.2</ele>
        <time>2024-04-28T09:09:55Z</time>
      </trkpt>
      <trkpt lat="45.68347" lon="3.19326">
        <ele>353</ele>
        <time>2024-04-28T09:09:56Z</time>
      </trkpt>
      <trkpt lat="45.68354" lon="3.1933">
        <ele>353</ele>
        <time>2024-04-28T09:09:57Z</time>
      </trkpt>
      <trkpt lat="45.68362" lon="3.19335">
        <ele>352.8</ele>
        <time>2024-04-28T09:09:58Z</time>
      </trkpt>
      <trkpt lat="45.68369" lon="3.19339">
        <ele>352.6</ele>
        <time>2024-04-28T09:09:59Z</time>
      </trkpt>
      <trkpt lat="45.68376" lon="3.19344">
        <ele>352.4</ele>
        <time>2024-04-28T09:10:00Z</time>
      </trkpt>
      <trkpt lat="45.68384" lon="3.19348">
        <ele>352.2</ele>
        <time>2024-04-28T09:10:01Z</time>
      </trkpt>
      <trkpt lat="45.68391" lon="3.19352">
        <ele>352.2</ele>
        <time>2024-04-28T09:10:02Z</time>
      </trkpt>
      <trkpt lat="45.68398" lon="3.19356">
        <ele>352</ele>
        <time>2024-04-28T09:10:03Z</time>
      </trkpt>
      <trkpt lat="45.68405" lon="3.1936">
        <ele>351.8</ele>
        <time>2024-04-28T09:10:04Z</time>
      </trkpt>
      <trkpt lat="45.68412" lon="3.19364">
        <ele>351.6</ele>
        <time>2024-04-28T09:10:05Z</time>
      </trkpt>
      <trkpt lat="45.6842" lon="3.19369">
        <ele>351.6</ele>
        <time>2024-04-28T09:10:06Z</time>
      </trkpt>
      <trkpt lat="45.68427" lon="3.19373">
        <ele>351.4</ele>
        <time>2024-04-28T09:10:07Z</time>
      </trkpt>
      <trkpt lat="45.68435" lon="3.19378">
        <ele>351.2</ele>
        <time>2024-04-28T09:10:08Z</time>
      </trkpt>
      <trkpt lat="45.68442" lon="3.19382">
        <ele>351.2</ele>
        <time>2024-04-28T09:10:09Z</time>
      </trkpt>
      <trkpt lat="45.68449" lon="3.19386">
        <ele>351</ele>
        <time>2024-04-28T09:10:10Z</time>
      </trkpt>
      <trkpt lat="45.68456" lon="3.1939">
        <ele>350.8</ele>
        <time>2024-04-28T09:10:11Z</time>
      </trkpt>
      <trkpt lat="45.68464" lon="3.19395">
        <ele>350.8</ele>
        <time>2024-04-28T09:10:12Z</time>
      </trkpt>
      <trkpt lat="45.68471" lon="3.19399">
        <ele>350.6</ele>
        <time>2024-04-28T09:10:13Z</time>
      </trkpt>
      <trkpt lat="45.68479" lon="3.19404">
        <ele>350.6</ele>
        <time>2024-04-28T09:10:14Z</time>
      </trkpt>
      <trkpt lat="45.68487" lon="3.19408">
        <ele>350.4</ele>
        <time>2024-04-28T09:10:15Z</time>
      </trkpt>
      <trkpt lat="45.68494" lon="3.19413">
        <ele>350.2</ele>
        <time>2024-04-28T09:10:16Z</time>
      </trkpt>
      <trkpt lat="45.68502" lon="3.19417">
        <ele>350</ele>
        <time>2024-04-28T09:10:17Z</time>
      </trkpt>
      <trkpt lat="45.6851" lon="3.19422">
        <ele>350</ele>
        <time>2024-04-28T09:10:18Z</time>
      </trkpt>
      <trkpt lat="45.68517" lon="3.19426">
        <ele>349.8</ele>
        <time>2024-04-28T09:10:19Z</time>
      </trkpt>
      <trkpt lat="45.68525" lon="3.1943">
        <ele>349.6</ele>
        <time>2024-04-28T09:10:20Z</time>
      </trkpt>
      <trkpt lat="45.68532" lon="3.19435">
        <ele>349.6</ele>
        <time>2024-04-28T09:10:21Z</time>
      </trkpt>
      <trkpt lat="45.68539" lon="3.19439">
        <ele>349.6</ele>
        <time>2024-04-28T09:10:22Z</time>
      </trkpt>
      <trkpt lat="45.68546" lon="3.19443">
        <ele>349.4</ele>
        <time>2024-04-28T09:10:23Z</time>
      </trkpt>
      <trkpt lat="45.68553" lon="3.19447">
        <ele>349.4</ele>
        <time>2024-04-28T09:10:24Z</time>
      </trkpt>
      <trkpt lat="45.68559" lon="3.19453">
        <ele>349.2</ele>
        <time>2024-04-28T09:10:25Z</time>
      </trkpt>
      <trkpt lat="45.68565" lon="3.19458">
        <ele>349.2</ele>
        <time>2024-04-28T09:10:26Z</time>
      </trkpt>
      <trkpt lat="45.68572" lon="3.19462">
        <ele>349.2</ele>
        <time>2024-04-28T09:10:27Z</time>
      </trkpt>
      <trkpt lat="45.68579" lon="3.19467">
        <ele>349</ele>
        <time>2024-04-28T09:10:28Z</time>
      </trkpt>
      <trkpt lat="45.68586" lon="3.19472">
        <ele>349</ele>
        <time>2024-04-28T09:10:29Z</time>
      </trkpt>
      <trkpt lat="45.68593" lon="3.19477">
        <ele>348.8</ele>
        <time>2024-04-28T09:10:30Z</time>
      </trkpt>
      <trkpt lat="45.686" lon="3.19482">
        <ele>348.8</ele>
        <time>2024-04-28T09:10:31Z</time>
      </trkpt>
      <trkpt lat="45.68607" lon="3.19487">
        <ele>348.8</ele>
        <time>2024-04-28T09:10:32Z</time>
      </trkpt>
      <trkpt lat="45.68613" lon="3.19494">
        <ele>348.6</ele>
        <time>2024-04-28T09:10:33Z</time>
      </trkpt>
      <trkpt lat="45.68618" lon="3.19503">
        <ele>348.6</ele>
        <time>2024-04-28T09:10:34Z</time>
      </trkpt>
      <trkpt lat="45.68621" lon="3.19514">
        <ele>348.4</ele>
        <time>2024-04-28T09:10:35Z</time>
      </trkpt>
      <trkpt lat="45.68624" lon="3.19524">
        <ele>348.4</ele>
        <time>2024-04-28T09:10:36Z</time>
      </trkpt>
      <trkpt lat="45.68627" lon="3.19535">
        <ele>348.4</ele>
        <time>2024-04-28T09:10:37Z</time>
      </trkpt>
      <trkpt lat="45.6863" lon="3.19545">
        <ele>348.2</ele>
        <time>2024-04-28T09:10:38Z</time>
      </trkpt>
      <trkpt lat="45.68633" lon="3.19556">
        <ele>348.2</ele>
        <time>2024-04-28T09:10:39Z</time>
      </trkpt>
      <trkpt lat="45.68633" lon="3.19567">
        <ele>348.2</ele>
        <time>2024-04-28T09:10:40Z</time>
      </trkpt>
      <trkpt lat="45.68634" lon="3.19578">
        <ele>348.2</ele>
        <time>2024-04-28T09:10:41Z</time>
      </trkpt>
      <trkpt lat="45.68634" lon="3.19589">
        <ele>348.2</ele>
        <time>2024-04-28T09:10:42Z</time>
      </trkpt>
      <trkpt lat="45.68635" lon="3.19599">
        <ele>348</ele>
        <time>2024-04-28T09:10:43Z</time>
      </trkpt>
      <trkpt lat="45.68636" lon="3.19609">
        <ele>348</ele>
        <time>2024-04-28T09:10:44Z</time>
      </trkpt>
      <trkpt lat="45.68636" lon="3.1962">
        <ele>348</ele>
        <time>2024-04-28T09:10:45Z</time>
      </trkpt>
      <trkpt lat="45.68637" lon="3.1963">
        <ele>347.8</ele>
        <time>2024-04-28T09:10:46Z</time>
      </trkpt>
      <trkpt lat="45.68638" lon="3.1964">
        <ele>347.8</ele>
        <time>2024-04-28T09:10:47Z</time>
      </trkpt>
      <trkpt lat="45.68638" lon="3.19651">
        <ele>347.8</ele>
        <time>2024-04-28T09:10:48Z</time>
      </trkpt>
      <trkpt lat="45.68639" lon="3.19661">
        <ele>347.8</ele>
        <time>2024-04-28T09:10:49Z</time>
      </trkpt>
      <trkpt lat="45.68639" lon="3.1967">
        <ele>347.8</ele>
        <time>2024-04-28T09:10:50Z</time>
      </trkpt>
      <trkpt lat="45.6864" lon="3.19681">
        <ele>347.8</ele>
        <time>2024-04-28T09:10:51Z</time>
      </trkpt>
      <trkpt lat="45.68641" lon="3.19691">
        <ele>347.8</ele>
        <time>2024-04-28T09:10:52Z</time>
      </trkpt>
      <trkpt lat="45.68642" lon="3.19701">
        <ele>347.8</ele>
        <time>2024-04-28T09:10:53Z</time>
      </trkpt>
      <trkpt lat="45.68644" lon="3.1971">
        <ele>347.8</ele>
        <time>2024-04-28T09:10:54Z</time>
      </trkpt>
      <trkpt lat="45.68646" lon="3.1972">
        <ele>347.8</ele>
        <time>2024-04-28T09:10:55Z</time>
      </trkpt>
      <trkpt lat="45.68648" lon="3.1973">
        <ele>348</ele>
        <time>2024-04-28T09:10:56Z</time>
      </trkpt>
      <trkpt lat="45.6865" lon="3.1974">
        <ele>348</ele>
        <time>2024-04-28T09:10:57Z</time>
      </trkpt>
      <trkpt lat="45.68652" lon="3.19749">
        <ele>347.8</ele>
        <time>2024-04-28T09:10:58Z</time>
      </trkpt>
      <trkpt lat="45.68654" lon="3.19759">
        <ele>347.8</ele>
        <time>2024-04-28T09:10:59Z</time>
      </trkpt>
      <trkpt lat="45.68655" lon="3.19768">
        <ele>347.8</ele>
        <time>2024-04-28T09:11:00Z</time>
      </trkpt>
      <trkpt lat="45.68659" lon="3.19777">
        <ele>347.8</ele>
        <time>2024-04-28T09:11:01Z</time>
      </trkpt>
      <trkpt lat="45.68663" lon="3.19786">
        <ele>347.8</ele>
        <time>2024-04-28T09:11:02Z</time>
      </trkpt>
      <trkpt lat="45.68666" lon="3.19794">
        <ele>348</ele>
        <time>2024-04-28T09:11:03Z</time>
      </trkpt>
      <trkpt lat="45.6867" lon="3.19803">
        <ele>347.8</ele>
        <time>2024-04-28T09:11:04Z</time>
      </trkpt>
      <trkpt lat="45.68674" lon="3.19812">
        <ele>347.8</ele>
        <time>2024-04-28T09:11:05Z</time>
      </trkpt>
      <trkpt lat="45.68678" lon="3.1982">
        <ele>347.8</ele>
        <time>2024-04-28T09:11:06Z</time>
      </trkpt>
      <trkpt lat="45.68682" lon="3.19829">
        <ele>347.8</ele>
        <time>2024-04-28T09:11:07Z</time>
      </trkpt>
      <trkpt lat="45.68687" lon="3.19835">
        <ele>347.8</ele>
        <time>2024-04-28T09:11:08Z</time>
      </trkpt>
      <trkpt lat="45.68692" lon="3.19842">
        <ele>347.8</ele>
        <time>2024-04-28T09:11:09Z</time>
      </trkpt>
      <trkpt lat="45.68698" lon="3.19849">
        <ele>347.8</ele>
        <time>2024-04-28T09:11:10Z</time>
      </trkpt>
      <trkpt lat="45.68703" lon="3.19855">
        <ele>347.6</ele>
        <time>2024-04-28T09:11:11Z</time>
      </trkpt>
      <trkpt lat="45.68708" lon="3.19862">
        <ele>347.4</ele>
        <time>2024-04-28T09:11:12Z</time>
      </trkpt>
      <trkpt lat="45.68714" lon="3.19869">
        <ele>347.4</ele>
        <time>2024-04-28T09:11:13Z</time>
      </trkpt>
      <trkpt lat="45.6872" lon="3.19876">
        <ele>347.2</ele>
        <time>2024-04-28T09:11:14Z</time>
      </trkpt>
      <trkpt lat="45.68726" lon="3.19883">
        <ele>347</ele>
        <time>2024-04-28T09:11:15Z</time>
      </trkpt>
      <trkpt lat="45.68732" lon="3.1989">
        <ele>347</ele>
        <time>2024-04-28T09:11:16Z</time>
      </trkpt>
      <trkpt lat="45.68738" lon="3.19897">
        <ele>347</ele>
        <time>2024-04-28T09:11:17Z</time>
      </trkpt>
      <trkpt lat="45.68744" lon="3.19903">
        <ele>346.8</ele>
        <time>2024-04-28T09:11:18Z</time>
      </trkpt>
      <trkpt lat="45.68751" lon="3.1991">
        <ele>346.8</ele>
        <time>2024-04-28T09:11:19Z</time>
      </trkpt>
      <trkpt lat="45.68757" lon="3.19917">
        <ele>346.6</ele>
        <time>2024-04-28T09:11:20Z</time>
      </trkpt>
      <trkpt lat="45.68764" lon="3.19924">
        <ele>346.4</ele>
        <time>2024-04-28T09:11:21Z</time>
      </trkpt>
      <trkpt lat="45.6877" lon="3.19931">
        <ele>346.4</ele>
        <time>2024-04-28T09:11:22Z</time>
      </trkpt>
      <trkpt lat="45.68777" lon="3.19938">
        <ele>346.2</ele>
        <time>2024-04-28T09:11:23Z</time>
      </trkpt>
      <trkpt lat="45.68784" lon="3.19944">
        <ele>346</ele>
        <time>2024-04-28T09:11:24Z</time>
      </trkpt>
      <trkpt lat="45.6879" lon="3.19951">
        <ele>346</ele>
        <time>2024-04-28T09:11:25Z</time>
      </trkpt>
      <trkpt lat="45.68797" lon="3.19958">
        <ele>345.8</ele>
        <time>2024-04-28T09:11:26Z</time>
      </trkpt>
      <trkpt lat="45.68804" lon="3.19965">
        <ele>345.6</ele>
        <time>2024-04-28T09:11:27Z</time>
      </trkpt>
      <trkpt lat="45.68811" lon="3.19972">
        <ele>345.6</ele>
        <time>2024-04-28T09:11:28Z</time>
      </trkpt>
      <trkpt lat="45.68817" lon="3.19979">
        <ele>345.4</ele>
        <time>2024-04-28T09:11:29Z</time>
      </trkpt>
      <trkpt lat="45.68825" lon="3.19985">
        <ele>345.2</ele>
        <time>2024-04-28T09:11:30Z</time>
      </trkpt>
      <trkpt lat="45.68832" lon="3.1999">
        <ele>345</ele>
        <time>2024-04-28T09:11:31Z</time>
      </trkpt>
      <trkpt lat="45.68838" lon="3.19996">
        <ele>345</ele>
        <time>2024-04-28T09:11:32Z</time>
      </trkpt>
      <trkpt lat="45.68845" lon="3.20001">
        <ele>344.8</ele>
        <time>2024-04-28T09:11:33Z</time>
      </trkpt>
      <trkpt lat="45.68852" lon="3.20007">
        <ele>344.6</ele>
        <time>2024-04-28T09:11:34Z</time>
      </trkpt>
      <trkpt lat="45.68859" lon="3.20012">
        <ele>344.6</ele>
        <time>2024-04-28T09:11:35Z</time>
      </trkpt>
      <trkpt lat="45.68866" lon="3.20014">
        <ele>344.4</ele>
        <time>2024-04-28T09:11:36Z</time>
      </trkpt>
      <trkpt lat="45.68873" lon="3.20017">
        <ele>344.4</ele>
        <time>2024-04-28T09:11:37Z</time>
      </trkpt>
      <trkpt lat="45.68881" lon="3.2002">
        <ele>344.2</ele>
        <time>2024-04-28T09:11:38Z</time>
      </trkpt>
      <trkpt lat="45.68888" lon="3.20023">
        <ele>344.2</ele>
        <time>2024-04-28T09:11:39Z</time>
      </trkpt>
      <trkpt lat="45.68896" lon="3.20025">
        <ele>344</ele>
        <time>2024-04-28T09:11:40Z</time>
      </trkpt>
      <trkpt lat="45.68903" lon="3.20028">
        <ele>344</ele>
        <time>2024-04-28T09:11:41Z</time>
      </trkpt>
      <trkpt lat="45.68911" lon="3.2003">
        <ele>343.8</ele>
        <time>2024-04-28T09:11:42Z</time>
      </trkpt>
      <trkpt lat="45.68918" lon="3.20034">
        <ele>343.8</ele>
        <time>2024-04-28T09:11:43Z</time>
      </trkpt>
      <trkpt lat="45.68926" lon="3.20038">
        <ele>343.6</ele>
        <time>2024-04-28T09:11:44Z</time>
      </trkpt>
      <trkpt lat="45.68933" lon="3.20041">
        <ele>343.4</ele>
        <time>2024-04-28T09:11:45Z</time>
      </trkpt>
      <trkpt lat="45.68941" lon="3.20045">
        <ele>343.4</ele>
        <time>2024-04-28T09:11:46Z</time>
      </trkpt>
      <trkpt lat="45.68947" lon="3.20051">
        <ele>343.2</ele>
        <time>2024-04-28T09:11:47Z</time>
      </trkpt>
      <trkpt lat="45.68953" lon="3.20058">
        <ele>343.2</ele>
        <time>2024-04-28T09:11:48Z</time>
      </trkpt>
      <trkpt lat="45.68957" lon="3.20068">
        <ele>343.2</ele>
        <time>2024-04-28T09:11:49Z</time>
      </trkpt>
      <trkpt lat="45.68963" lon="3.20074">
        <ele>343.2</ele>
        <time>2024-04-28T09:11:50Z</time>
      </trkpt>
      <trkpt lat="45.68967" lon="3.20082">
        <ele>343.2</ele>
        <time>2024-04-28T09:11:51Z</time>
      </trkpt>
      <trkpt lat="45.68972" lon="3.20091">
        <ele>343</ele>
        <time>2024-04-28T09:11:52Z</time>
      </trkpt>
      <trkpt lat="45.68976" lon="3.20099">
        <ele>343</ele>
        <time>2024-04-28T09:11:53Z</time>
      </trkpt>
      <trkpt lat="45.68979" lon="3.20108">
        <ele>343</ele>
        <time>2024-04-28T09:11:54Z</time>
      </trkpt>
      <trkpt lat="45.6898" lon="3.20117">
        <ele>343</ele>
        <time>2024-04-28T09:11:55Z</time>
      </trkpt>
      <trkpt lat="45.68982" lon="3.20127">
        <ele>343</ele>
        <time>2024-04-28T09:11:56Z</time>
      </trkpt>
      <trkpt lat="45.68983" lon="3.20136">
        <ele>343</ele>
        <time>2024-04-28T09:11:57Z</time>
      </trkpt>
      <trkpt lat="45.68984" lon="3.20145">
        <ele>343</ele>
        <time>2024-04-28T09:11:58Z</time>
      </trkpt>
      <trkpt lat="45.68984" lon="3.20155">
        <ele>343</ele>
        <time>2024-04-28T09:11:59Z</time>
      </trkpt>
      <trkpt lat="45.68984" lon="3.20164">
        <ele>343</ele>
        <time>2024-04-28T09:12:00Z</time>
      </trkpt>
      <trkpt lat="45.68984" lon="3.20173">
        <ele>343</ele>
        <time>2024-04-28T09:12:01Z</time>
      </trkpt>
      <trkpt lat="45.68983" lon="3.20182">
        <ele>343</ele>
        <time>2024-04-28T09:12:02Z</time>
      </trkpt>
      <trkpt lat="45.68983" lon="3.20191">
        <ele>343</ele>
        <time>2024-04-28T09:12:03Z</time>
      </trkpt>
      <trkpt lat="45.68982" lon="3.20199">
        <ele>343</ele>
        <time>2024-04-28T09:12:04Z</time>
      </trkpt>
      <trkpt lat="45.68982" lon="3.20208">
        <ele>343.2</ele>
        <time>2024-04-28T09:12:05Z</time>
      </trkpt>
      <trkpt lat="45.68982" lon="3.20217">
        <ele>343.2</ele>
        <time>2024-04-28T09:12:06Z</time>
      </trkpt>
      <trkpt lat="45.68981" lon="3.20226">
        <ele>343.2</ele>
        <time>2024-04-28T09:12:07Z</time>
      </trkpt>
      <trkpt lat="45.68981" lon="3.20236">
        <ele>342.6</ele>
        <time>2024-04-28T09:12:08Z</time>
      </trkpt>
      <trkpt lat="45.6898" lon="3.20245">
        <ele>342.8</ele>
        <time>2024-04-28T09:12:09Z</time>
      </trkpt>
      <trkpt lat="45.6898" lon="3.20254">
        <ele>343.2</ele>
        <time>2024-04-28T09:12:10Z</time>
      </trkpt>
      <trkpt lat="45.68979" lon="3.20264">
        <ele>343.4</ele>
        <time>2024-04-28T09:12:11Z</time>
      </trkpt>
      <trkpt lat="45.68979" lon="3.20273">
        <ele>343.6</ele>
        <time>2024-04-28T09:12:12Z</time>
      </trkpt>
      <trkpt lat="45.68978" lon="3.20283">
        <ele>343.8</ele>
        <time>2024-04-28T09:12:13Z</time>
      </trkpt>
      <trkpt lat="45.68978" lon="3.20292">
        <ele>343.4</ele>
        <time>2024-04-28T09:12:14Z</time>
      </trkpt>
      <trkpt lat="45.68977" lon="3.20302">
        <ele>343.4</ele>
        <time>2024-04-28T09:12:15Z</time>
      </trkpt>
      <trkpt lat="45.68977" lon="3.20312">
        <ele>343.4</ele>
        <time>2024-04-28T09:12:16Z</time>
      </trkpt>
      <trkpt lat="45.68976" lon="3.20321">
        <ele>343.4</ele>
        <time>2024-04-28T09:12:17Z</time>
      </trkpt>
      <trkpt lat="45.68976" lon="3.20331">
        <ele>343.6</ele>
        <time>2024-04-28T09:12:18Z</time>
      </trkpt>
      <trkpt lat="45.68975" lon="3.20341">
        <ele>343.6</ele>
        <time>2024-04-28T09:12:19Z</time>
      </trkpt>
      <trkpt lat="45.68975" lon="3.20351">
        <ele>343.4</ele>
        <time>2024-04-28T09:12:20Z</time>
      </trkpt>
      <trkpt lat="45.68975" lon="3.20361">
        <ele>343.4</ele>
        <time>2024-04-28T09:12:21Z</time>
      </trkpt>
      <trkpt lat="45.68974" lon="3.20371">
        <ele>343.4</ele>
        <time>2024-04-28T09:12:22Z</time>
      </trkpt>
      <trkpt lat="45.68974" lon="3.20381">
        <ele>343.4</ele>
        <time>2024-04-28T09:12:23Z</time>
      </trkpt>
      <trkpt lat="45.68973" lon="3.20392">
        <ele>343.4</ele>
        <time>2024-04-28T09:12:24Z</time>
      </trkpt>
      <trkpt lat="45.68973" lon="3.20402">
        <ele>343.4</ele>
        <time>2024-04-28T09:12:25Z</time>
      </trkpt>
      <trkpt lat="45.68972" lon="3.20413">
        <ele>343.4</ele>
        <time>2024-04-28T09:12:26Z</time>
      </trkpt>
      <trkpt lat="45.68972" lon="3.20424">
        <ele>343.8</ele>
        <time>2024-04-28T09:12:27Z</time>
      </trkpt>
      <trkpt lat="45.68971" lon="3.20435">
        <ele>343.4</ele>
        <time>2024-04-28T09:12:28Z</time>
      </trkpt>
      <trkpt lat="45.68971" lon="3.20446">
        <ele>343.2</ele>
        <time>2024-04-28T09:12:29Z</time>
      </trkpt>
      <trkpt lat="45.6897" lon="3.20458">
        <ele>343</ele>
        <time>2024-04-28T09:12:30Z</time>
      </trkpt>
      <trkpt lat="45.6897" lon="3.20469">
        <ele>343</ele>
        <time>2024-04-28T09:12:31Z</time>
      </trkpt>
      <trkpt lat="45.68969" lon="3.20481">
        <ele>343</ele>
        <time>2024-04-28T09:12:32Z</time>
      </trkpt>
      <trkpt lat="45.68969" lon="3.20492">
        <ele>343</ele>
        <time>2024-04-28T09:12:33Z</time>
      </trkpt>
      <trkpt lat="45.68968" lon="3.20504">
        <ele>343</ele>
        <time>2024-04-28T09:12:34Z</time>
      </trkpt>
      <trkpt lat="45.68968" lon="3.20515">
        <ele>343.2</ele>
        <time>2024-04-28T09:12:35Z</time>
      </trkpt>
      <trkpt lat="45.68968" lon="3.20527">
        <ele>343.2</ele>
        <time>2024-04-28T09:12:36Z</time>
      </trkpt>
      <trkpt lat="45.68967" lon="3.20537">
        <ele>343.4</ele>
        <time>2024-04-28T09:12:37Z</time>
      </trkpt>
      <trkpt lat="45.68967" lon="3.20548">
        <ele>343.4</ele>
        <time>2024-04-28T09:12:38Z</time>
      </trkpt>
      <trkpt lat="45.68966" lon="3.20559">
        <ele>343.6</ele>
        <time>2024-04-28T09:12:39Z</time>
      </trkpt>
      <trkpt lat="45.68966" lon="3.2057">
        <ele>343.6</ele>
        <time>2024-04-28T09:12:40Z</time>
      </trkpt>
      <trkpt lat="45.68965" lon="3.2058">
        <ele>343.6</ele>
        <time>2024-04-28T09:12:41Z</time>
      </trkpt>
      <trkpt lat="45.68965" lon="3.2059">
        <ele>343.8</ele>
        <time>2024-04-28T09:12:42Z</time>
      </trkpt>
      <trkpt lat="45.68965" lon="3.206">
        <ele>343.8</ele>
        <time>2024-04-28T09:12:43Z</time>
      </trkpt>
      <trkpt lat="45.68964" lon="3.2061">
        <ele>343.6</ele>
        <time>2024-04-28T09:12:44Z</time>
      </trkpt>
      <trkpt lat="45.68964" lon="3.2062">
        <ele>343.6</ele>
        <time>2024-04-28T09:12:45Z</time>
      </trkpt>
      <trkpt lat="45.68963" lon="3.2063">
        <ele>343.6</ele>
        <time>2024-04-28T09:12:46Z</time>
      </trkpt>
      <trkpt lat="45.68963" lon="3.2064">
        <ele>343.6</ele>
        <time>2024-04-28T09:12:47Z</time>
      </trkpt>
      <trkpt lat="45.68963" lon="3.20651">
        <ele>343.6</ele>
        <time>2024-04-28T09:12:48Z</time>
      </trkpt>
      <trkpt lat="45.68962" lon="3.20661">
        <ele>343.6</ele>
        <time>2024-04-28T09:12:49Z</time>
      </trkpt>
      <trkpt lat="45.68962" lon="3.20671">
        <ele>343.6</ele>
        <time>2024-04-28T09:12:50Z</time>
      </trkpt>
      <trkpt lat="45.68961" lon="3.20681">
        <ele>343.6</ele>
        <time>2024-04-28T09:12:51Z</time>
      </trkpt>
      <trkpt lat="45.68961" lon="3.20691">
        <ele>343.6</ele>
        <time>2024-04-28T09:12:52Z</time>
      </trkpt>
      <trkpt lat="45.68961" lon="3.207">
        <ele>343.6</ele>
        <time>2024-04-28T09:12:53Z</time>
      </trkpt>
      <trkpt lat="45.6896" lon="3.2071">
        <ele>343.6</ele>
        <time>2024-04-28T09:12:54Z</time>
      </trkpt>
      <trkpt lat="45.6896" lon="3.2072">
        <ele>343.6</ele>
        <time>2024-04-28T09:12:55Z</time>
      </trkpt>
      <trkpt lat="45.68959" lon="3.20729">
        <ele>343.6</ele>
        <time>2024-04-28T09:12:56Z</time>
      </trkpt>
      <trkpt lat="45.68959" lon="3.20738">
        <ele>343.6</ele>
        <time>2024-04-28T09:12:57Z</time>
      </trkpt>
      <trkpt lat="45.68959" lon="3.20748">
        <ele>343.8</ele>
        <time>2024-04-28T09:12:58Z</time>
      </trkpt>
      <trkpt lat="45.68959" lon="3.20757">
        <ele>343.8</ele>
        <time>2024-04-28T09:12:59Z</time>
      </trkpt>
      <trkpt lat="45.68959" lon="3.20765">
        <ele>343.8</ele>
        <time>2024-04-28T09:13:00Z</time>
      </trkpt>
      <trkpt lat="45.68959" lon="3.20773">
        <ele>343.8</ele>
        <time>2024-04-28T09:13:01Z</time>
      </trkpt>
      <trkpt lat="45.68959" lon="3.20781">
        <ele>343.8</ele>
        <time>2024-04-28T09:13:02Z</time>
      </trkpt>
      <trkpt lat="45.68959" lon="3.20789">
        <ele>343.8</ele>
        <time>2024-04-28T09:13:03Z</time>
      </trkpt>
      <trkpt lat="45.68959" lon="3.20798">
        <ele>343.8</ele>
        <time>2024-04-28T09:13:04Z</time>
      </trkpt>
      <trkpt lat="45.68959" lon="3.20806">
        <ele>343.8</ele>
        <time>2024-04-28T09:13:05Z</time>
      </trkpt>
      <trkpt lat="45.68959" lon="3.20814">
        <ele>343.8</ele>
        <time>2024-04-28T09:13:06Z</time>
      </trkpt>
      <trkpt lat="45.68959" lon="3.20822">
        <ele>344</ele>
        <time>2024-04-28T09:13:07Z</time>
      </trkpt>
      <trkpt lat="45.68959" lon="3.20831">
        <ele>344</ele>
        <time>2024-04-28T09:13:08Z</time>
      </trkpt>
      <trkpt lat="45.68959" lon="3.20839">
        <ele>344</ele>
        <time>2024-04-28T09:13:09Z</time>
      </trkpt>
      <trkpt lat="45.68959" lon="3.20848">
        <ele>344</ele>
        <time>2024-04-28T09:13:10Z</time>
      </trkpt>
      <trkpt lat="45.68961" lon="3.20857">
        <ele>344</ele>
        <time>2024-04-28T09:13:11Z</time>
      </trkpt>
      <trkpt lat="45.68962" lon="3.20865">
        <ele>344</ele>
        <time>2024-04-28T09:13:12Z</time>
      </trkpt>
      <trkpt lat="45.68964" lon="3.20874">
        <ele>344</ele>
        <time>2024-04-28T09:13:13Z</time>
      </trkpt>
      <trkpt lat="45.68965" lon="3.20882">
        <ele>344</ele>
        <time>2024-04-28T09:13:14Z</time>
      </trkpt>
      <trkpt lat="45.68967" lon="3.20891">
        <ele>344</ele>
        <time>2024-04-28T09:13:15Z</time>
      </trkpt>
      <trkpt lat="45.68968" lon="3.20899">
        <ele>344</ele>
        <time>2024-04-28T09:13:16Z</time>
      </trkpt>
      <trkpt lat="45.68971" lon="3.20908">
        <ele>344</ele>
        <time>2024-04-28T09:13:17Z</time>
      </trkpt>
      <trkpt lat="45.68973" lon="3.20916">
        <ele>344</ele>
        <time>2024-04-28T09:13:18Z</time>
      </trkpt>
      <trkpt lat="45.68976" lon="3.20924">
        <ele>344</ele>
        <time>2024-04-28T09:13:19Z</time>
      </trkpt>
      <trkpt lat="45.68979" lon="3.20932">
        <ele>344</ele>
        <time>2024-04-28T09:13:20Z</time>
      </trkpt>
      <trkpt lat="45.68982" lon="3.20939">
        <ele>344</ele>
        <time>2024-04-28T09:13:21Z</time>
      </trkpt>
      <trkpt lat="45.68984" lon="3.20947">
        <ele>344</ele>
        <time>2024-04-28T09:13:22Z</time>
      </trkpt>
      <trkpt lat="45.68987" lon="3.20955">
        <ele>344</ele>
        <time>2024-04-28T09:13:23Z</time>
      </trkpt>
      <trkpt lat="45.6899" lon="3.20963">
        <ele>344.2</ele>
        <time>2024-04-28T09:13:24Z</time>
      </trkpt>
      <trkpt lat="45.68992" lon="3.20971">
        <ele>344.2</ele>
        <time>2024-04-28T09:13:25Z</time>
      </trkpt>
      <trkpt lat="45.68995" lon="3.20978">
        <ele>344.2</ele>
        <time>2024-04-28T09:13:26Z</time>
      </trkpt>
      <trkpt lat="45.68998" lon="3.20986">
        <ele>344.2</ele>
        <time>2024-04-28T09:13:27Z</time>
      </trkpt>
      <trkpt lat="45.69" lon="3.20993">
        <ele>344.2</ele>
        <time>2024-04-28T09:13:28Z</time>
      </trkpt>
      <trkpt lat="45.69003" lon="3.21">
        <ele>344.2</ele>
        <time>2024-04-28T09:13:29Z</time>
      </trkpt>
      <trkpt lat="45.69005" lon="3.21007">
        <ele>344.2</ele>
        <time>2024-04-28T09:13:30Z</time>
      </trkpt>
      <trkpt lat="45.69008" lon="3.21014">
        <ele>344.2</ele>
        <time>2024-04-28T09:13:31Z</time>
      </trkpt>
      <trkpt lat="45.6901" lon="3.21022">
        <ele>344.4</ele>
        <time>2024-04-28T09:13:32Z</time>
      </trkpt>
      <trkpt lat="45.69013" lon="3.21029">
        <ele>344.4</ele>
        <time>2024-04-28T09:13:33Z</time>
      </trkpt>
      <trkpt lat="45.69015" lon="3.21036">
        <ele>344.4</ele>
        <time>2024-04-28T09:13:34Z</time>
      </trkpt>
      <trkpt lat="45.69018" lon="3.21044">
        <ele>344.4</ele>
        <time>2024-04-28T09:13:35Z</time>
      </trkpt>
      <trkpt lat="45.6902" lon="3.21051">
        <ele>344.6</ele>
        <time>2024-04-28T09:13:36Z</time>
      </trkpt>
      <trkpt lat="45.69022" lon="3.21058">
        <ele>344.6</ele>
        <time>2024-04-28T09:13:37Z</time>
      </trkpt>
      <trkpt lat="45.69025" lon="3.21065">
        <ele>344.6</ele>
        <time>2024-04-28T09:13:38Z</time>
      </trkpt>
      <trkpt lat="45.69027" lon="3.21072">
        <ele>344.6</ele>
        <time>2024-04-28T09:13:39Z</time>
      </trkpt>
      <trkpt lat="45.6903" lon="3.21078">
        <ele>344.6</ele>
        <time>2024-04-28T09:13:40Z</time>
      </trkpt>
      <trkpt lat="45.69032" lon="3.21085">
        <ele>344.6</ele>
        <time>2024-04-28T09:13:41Z</time>
      </trkpt>
      <trkpt lat="45.69034" lon="3.21091">
        <ele>344.8</ele>
        <time>2024-04-28T09:13:42Z</time>
      </trkpt>
      <trkpt lat="45.69037" lon="3.21098">
        <ele>344.8</ele>
        <time>2024-04-28T09:13:43Z</time>
      </trkpt>
      <trkpt lat="45.69039" lon="3.21105">
        <ele>344.8</ele>
        <time>2024-04-28T09:13:44Z</time>
      </trkpt>
      <trkpt lat="45.69042" lon="3.21112">
        <ele>344.8</ele>
        <time>2024-04-28T09:13:45Z</time>
      </trkpt>
      <trkpt lat="45.69044" lon="3.21118">
        <ele>344.8</ele>
        <time>2024-04-28T09:13:46Z</time>
      </trkpt>
      <trkpt lat="45.69046" lon="3.21125">
        <ele>345</ele>
        <time>2024-04-28T09:13:47Z</time>
      </trkpt>
      <trkpt lat="45.69049" lon="3.21131">
        <ele>345</ele>
        <time>2024-04-28T09:13:48Z</time>
      </trkpt>
      <trkpt lat="45.69051" lon="3.21138">
        <ele>345</ele>
        <time>2024-04-28T09:13:49Z</time>
      </trkpt>
      <trkpt lat="45.69053" lon="3.21144">
        <ele>345.2</ele>
        <time>2024-04-28T09:13:50Z</time>
      </trkpt>
      <trkpt lat="45.69055" lon="3.2115">
        <ele>345.2</ele>
        <time>2024-04-28T09:13:51Z</time>
      </trkpt>
      <trkpt lat="45.69058" lon="3.21157">
        <ele>345.2</ele>
        <time>2024-04-28T09:13:52Z</time>
      </trkpt>
      <trkpt lat="45.6906" lon="3.21163">
        <ele>345.4</ele>
        <time>2024-04-28T09:13:53Z</time>
      </trkpt>
      <trkpt lat="45.69062" lon="3.21169">
        <ele>345.4</ele>
        <time>2024-04-28T09:13:54Z</time>
      </trkpt>
      <trkpt lat="45.69064" lon="3.21175">
        <ele>345.4</ele>
        <time>2024-04-28T09:13:55Z</time>
      </trkpt>
      <trkpt lat="45.69066" lon="3.21181">
        <ele>345.4</ele>
        <time>2024-04-28T09:13:56Z</time>
      </trkpt>
      <trkpt lat="45.69069" lon="3.21187">
        <ele>345.6</ele>
        <time>2024-04-28T09:13:57Z</time>
      </trkpt>
      <trkpt lat="45.69071" lon="3.21193">
        <ele>345.6</ele>
        <time>2024-04-28T09:13:58Z</time>
      </trkpt>
      <trkpt lat="45.69073" lon="3.21199">
        <ele>345.6</ele>
        <time>2024-04-28T09:13:59Z</time>
      </trkpt>
      <trkpt lat="45.69075" lon="3.21205">
        <ele>345.8</ele>
        <time>2024-04-28T09:14:00Z</time>
      </trkpt>
      <trkpt lat="45.69077" lon="3.21211">
        <ele>345.8</ele>
        <time>2024-04-28T09:14:01Z</time>
      </trkpt>
      <trkpt lat="45.69079" lon="3.21217">
        <ele>345.8</ele>
        <time>2024-04-28T09:14:02Z</time>
      </trkpt>
      <trkpt lat="45.69081" lon="3.21223">
        <ele>346</ele>
        <time>2024-04-28T09:14:03Z</time>
      </trkpt>
      <trkpt lat="45.69083" lon="3.21229">
        <ele>346</ele>
        <time>2024-04-28T09:14:04Z</time>
      </trkpt>
      <trkpt lat="45.69085" lon="3.21234">
        <ele>346</ele>
        <time>2024-04-28T09:14:05Z</time>
      </trkpt>
      <trkpt lat="45.69088" lon="3.2124">
        <ele>346</ele>
        <time>2024-04-28T09:14:06Z</time>
      </trkpt>
      <trkpt lat="45.6909" lon="3.21246">
        <ele>346</ele>
        <time>2024-04-28T09:14:07Z</time>
      </trkpt>
      <trkpt lat="45.69092" lon="3.21251">
        <ele>346.2</ele>
        <time>2024-04-28T09:14:08Z</time>
      </trkpt>
      <trkpt lat="45.69094" lon="3.21257">
        <ele>346.2</ele>
        <time>2024-04-28T09:14:09Z</time>
      </trkpt>
      <trkpt lat="45.69095" lon="3.21262">
        <ele>346.2</ele>
        <time>2024-04-28T09:14:10Z</time>
      </trkpt>
      <trkpt lat="45.69098" lon="3.21268">
        <ele>346.4</ele>
        <time>2024-04-28T09:14:11Z</time>
      </trkpt>
      <trkpt lat="45.691" lon="3.21274">
        <ele>346.4</ele>
        <time>2024-04-28T09:14:12Z</time>
      </trkpt>
      <trkpt lat="45.69102" lon="3.2128">
        <ele>346.6</ele>
        <time>2024-04-28T09:14:13Z</time>
      </trkpt>
      <trkpt lat="45.69104" lon="3.21285">
        <ele>346.6</ele>
        <time>2024-04-28T09:14:14Z</time>
      </trkpt>
      <trkpt lat="45.69106" lon="3.21291">
        <ele>346.6</ele>
        <time>2024-04-28T09:14:15Z</time>
      </trkpt>
      <trkpt lat="45.69108" lon="3.21297">
        <ele>346.8</ele>
        <time>2024-04-28T09:14:16Z</time>
      </trkpt>
      <trkpt lat="45.6911" lon="3.21303">
        <ele>346.8</ele>
        <time>2024-04-28T09:14:17Z</time>
      </trkpt>
      <trkpt lat="45.69112" lon="3.21309">
        <ele>346.8</ele>
        <time>2024-04-28T09:14:18Z</time>
      </trkpt>
      <trkpt lat="45.69115" lon="3.21314">
        <ele>347</ele>
        <time>2024-04-28T09:14:19Z</time>
      </trkpt>
      <trkpt lat="45.69117" lon="3.2132">
        <ele>347</ele>
        <time>2024-04-28T09:14:20Z</time>
      </trkpt>
      <trkpt lat="45.69119" lon="3.21326">
        <ele>347</ele>
        <time>2024-04-28T09:14:21Z</time>
      </trkpt>
      <trkpt lat="45.69121" lon="3.21331">
        <ele>347.2</ele>
        <time>2024-04-28T09:14:22Z</time>
      </trkpt>
      <trkpt lat="45.69123" lon="3.21337">
        <ele>347.2</ele>
        <time>2024-04-28T09:14:23Z</time>
      </trkpt>
      <trkpt lat="45.69124" lon="3.21343">
        <ele>347.4</ele>
        <time>2024-04-28T09:14:24Z</time>
      </trkpt>
      <trkpt lat="45.69126" lon="3.21348">
        <ele>347.4</ele>
        <time>2024-04-28T09:14:25Z</time>
      </trkpt>
      <trkpt lat="45.69128" lon="3.21354">
        <ele>347.4</ele>
        <time>2024-04-28T09:14:26Z</time>
      </trkpt>
      <trkpt lat="45.6913" lon="3.21359">
        <ele>347.6</ele>
        <time>2024-04-28T09:14:27Z</time>
      </trkpt>
      <trkpt lat="45.69131" lon="3.21365">
        <ele>347.8</ele>
        <time>2024-04-28T09:14:28Z</time>
      </trkpt>
      <trkpt lat="45.69133" lon="3.21371">
        <ele>347.8</ele>
        <time>2024-04-28T09:14:29Z</time>
      </trkpt>
      <trkpt lat="45.69134" lon="3.21377">
        <ele>347.8</ele>
        <time>2024-04-28T09:14:30Z</time>
      </trkpt>
      <trkpt lat="45.69135" lon="3.21383">
        <ele>347.8</ele>
        <time>2024-04-28T09:14:31Z</time>
      </trkpt>
      <trkpt lat="45.69136" lon="3.21389">
        <ele>347.8</ele>
        <time>2024-04-28T09:14:32Z</time>
      </trkpt>
      <trkpt lat="45.69137" lon="3.21396">
        <ele>348</ele>
        <time>2024-04-28T09:14:33Z</time>
      </trkpt>
      <trkpt lat="45.69138" lon="3.21402">
        <ele>348</ele>
        <time>2024-04-28T09:14:34Z</time>
      </trkpt>
      <trkpt lat="45.69139" lon="3.21408">
        <ele>348</ele>
        <time>2024-04-28T09:14:35Z</time>
      </trkpt>
      <trkpt lat="45.6914" lon="3.21414">
        <ele>348.2</ele>
        <time>2024-04-28T09:14:36Z</time>
      </trkpt>
      <trkpt lat="45.69142" lon="3.21419">
        <ele>348.2</ele>
        <time>2024-04-28T09:14:37Z</time>
      </trkpt>
      <trkpt lat="45.69143" lon="3.21425">
        <ele>348.2</ele>
        <time>2024-04-28T09:14:38Z</time>
      </trkpt>
      <trkpt lat="45.69143" lon="3.21431">
        <ele>348.4</ele>
        <time>2024-04-28T09:14:39Z</time>
      </trkpt>
      <trkpt lat="45.69143" lon="3.21437">
        <ele>348.4</ele>
        <time>2024-04-28T09:14:40Z</time>
      </trkpt>
      <trkpt lat="45.69143" lon="3.21443">
        <ele>348.4</ele>
        <time>2024-04-28T09:14:41Z</time>
      </trkpt>
      <trkpt lat="45.69143" lon="3.21449">
        <ele>348.6</ele>
        <time>2024-04-28T09:14:42Z</time>
      </trkpt>
      <trkpt lat="45.69143" lon="3.21455">
        <ele>348.6</ele>
        <time>2024-04-28T09:14:43Z</time>
      </trkpt>
      <trkpt lat="45.69144" lon="3.21462">
        <ele>348.8</ele>
        <time>2024-04-28T09:14:44Z</time>
      </trkpt>
      <trkpt lat="45.69144" lon="3.21468">
        <ele>348.8</ele>
        <time>2024-04-28T09:14:45Z</time>
      </trkpt>
      <trkpt lat="45.69144" lon="3.21474">
        <ele>349</ele>
        <time>2024-04-28T09:14:46Z</time>
      </trkpt>
      <trkpt lat="45.69144" lon="3.21481">
        <ele>349</ele>
        <time>2024-04-28T09:14:47Z</time>
      </trkpt>
      <trkpt lat="45.69144" lon="3.21488">
        <ele>349</ele>
        <time>2024-04-28T09:14:48Z</time>
      </trkpt>
      <trkpt lat="45.69144" lon="3.21494">
        <ele>349.2</ele>
        <time>2024-04-28T09:14:49Z</time>
      </trkpt>
      <trkpt lat="45.69144" lon="3.215">
        <ele>349.2</ele>
        <time>2024-04-28T09:14:50Z</time>
      </trkpt>
      <trkpt lat="45.69144" lon="3.21507">
        <ele>349.4</ele>
        <time>2024-04-28T09:14:51Z</time>
      </trkpt>
      <trkpt lat="45.69144" lon="3.21513">
        <ele>349.6</ele>
        <time>2024-04-28T09:14:52Z</time>
      </trkpt>
      <trkpt lat="45.69144" lon="3.2152">
        <ele>349.6</ele>
        <time>2024-04-28T09:14:53Z</time>
      </trkpt>
      <trkpt lat="45.69145" lon="3.21526">
        <ele>349.8</ele>
        <time>2024-04-28T09:14:54Z</time>
      </trkpt>
      <trkpt lat="45.69145" lon="3.21532">
        <ele>349.8</ele>
        <time>2024-04-28T09:14:55Z</time>
      </trkpt>
      <trkpt lat="45.69145" lon="3.21538">
        <ele>350</ele>
        <time>2024-04-28T09:14:56Z</time>
      </trkpt>
      <trkpt lat="45.69145" lon="3.21544">
        <ele>350</ele>
        <time>2024-04-28T09:14:57Z</time>
      </trkpt>
      <trkpt lat="45.69145" lon="3.2155">
        <ele>350.2</ele>
        <time>2024-04-28T09:14:58Z</time>
      </trkpt>
      <trkpt lat="45.69145" lon="3.21555">
        <ele>350.2</ele>
        <time>2024-04-28T09:14:59Z</time>
      </trkpt>
      <trkpt lat="45.69145" lon="3.21562">
        <ele>350.4</ele>
        <time>2024-04-28T09:15:00Z</time>
      </trkpt>
      <trkpt lat="45.69145" lon="3.21568">
        <ele>350.4</ele>
        <time>2024-04-28T09:15:01Z</time>
      </trkpt>
      <trkpt lat="45.69145" lon="3.21574">
        <ele>350.6</ele>
        <time>2024-04-28T09:15:02Z</time>
      </trkpt>
      <trkpt lat="45.69145" lon="3.21581">
        <ele>350.6</ele>
        <time>2024-04-28T09:15:03Z</time>
      </trkpt>
      <trkpt lat="45.69145" lon="3.21587">
        <ele>350.8</ele>
        <time>2024-04-28T09:15:04Z</time>
      </trkpt>
      <trkpt lat="45.69146" lon="3.21593">
        <ele>350.8</ele>
        <time>2024-04-28T09:15:05Z</time>
      </trkpt>
      <trkpt lat="45.69146" lon="3.21599">
        <ele>351</ele>
        <time>2024-04-28T09:15:06Z</time>
      </trkpt>
      <trkpt lat="45.69146" lon="3.21606">
        <ele>351</ele>
        <time>2024-04-28T09:15:07Z</time>
      </trkpt>
      <trkpt lat="45.69146" lon="3.21612">
        <ele>351.2</ele>
        <time>2024-04-28T09:15:08Z</time>
      </trkpt>
      <trkpt lat="45.69146" lon="3.21618">
        <ele>351.4</ele>
        <time>2024-04-28T09:15:09Z</time>
      </trkpt>
      <trkpt lat="45.69146" lon="3.21625">
        <ele>351.4</ele>
        <time>2024-04-28T09:15:10Z</time>
      </trkpt>
      <trkpt lat="45.69146" lon="3.21631">
        <ele>351.4</ele>
        <time>2024-04-28T09:15:11Z</time>
      </trkpt>
      <trkpt lat="45.69146" lon="3.21638">
        <ele>351.6</ele>
        <time>2024-04-28T09:15:12Z</time>
      </trkpt>
      <trkpt lat="45.69146" lon="3.21644">
        <ele>351.8</ele>
        <time>2024-04-28T09:15:13Z</time>
      </trkpt>
      <trkpt lat="45.69146" lon="3.21651">
        <ele>351.8</ele>
        <time>2024-04-28T09:15:14Z</time>
      </trkpt>
      <trkpt lat="45.69146" lon="3.21657">
        <ele>352</ele>
        <time>2024-04-28T09:15:15Z</time>
      </trkpt>
      <trkpt lat="45.69147" lon="3.21663">
        <ele>352</ele>
        <time>2024-04-28T09:15:16Z</time>
      </trkpt>
      <trkpt lat="45.69147" lon="3.2167">
        <ele>352.2</ele>
        <time>2024-04-28T09:15:17Z</time>
      </trkpt>
      <trkpt lat="45.69147" lon="3.21676">
        <ele>352.4</ele>
        <time>2024-04-28T09:15:18Z</time>
      </trkpt>
      <trkpt lat="45.69147" lon="3.21683">
        <ele>352.4</ele>
        <time>2024-04-28T09:15:19Z</time>
      </trkpt>
      <trkpt lat="45.69147" lon="3.21689">
        <ele>352.6</ele>
        <time>2024-04-28T09:15:20Z</time>
      </trkpt>
      <trkpt lat="45.69147" lon="3.21696">
        <ele>352.8</ele>
        <time>2024-04-28T09:15:21Z</time>
      </trkpt>
      <trkpt lat="45.69147" lon="3.21702">
        <ele>352.8</ele>
        <time>2024-04-28T09:15:22Z</time>
      </trkpt>
      <trkpt lat="45.69147" lon="3.21709">
        <ele>353</ele>
        <time>2024-04-28T09:15:23Z</time>
      </trkpt>
      <trkpt lat="45.69147" lon="3.21715">
        <ele>353</ele>
        <time>2024-04-28T09:15:24Z</time>
      </trkpt>
      <trkpt lat="45.69147" lon="3.21721">
        <ele>353.2</ele>
        <time>2024-04-28T09:15:25Z</time>
      </trkpt>
      <trkpt lat="45.69146" lon="3.21728">
        <ele>353.4</ele>
        <time>2024-04-28T09:15:26Z</time>
      </trkpt>
      <trkpt lat="45.69145" lon="3.21734">
        <ele>353.4</ele>
        <time>2024-04-28T09:15:27Z</time>
      </trkpt>
      <trkpt lat="45.69145" lon="3.2174">
        <ele>353.6</ele>
        <time>2024-04-28T09:15:28Z</time>
      </trkpt>
      <trkpt lat="45.69144" lon="3.21747">
        <ele>353.8</ele>
        <time>2024-04-28T09:15:29Z</time>
      </trkpt>
      <trkpt lat="45.69144" lon="3.21753">
        <ele>353.8</ele>
        <time>2024-04-28T09:15:30Z</time>
      </trkpt>
      <trkpt lat="45.69143" lon="3.21758">
        <ele>354</ele>
        <time>2024-04-28T09:15:31Z</time>
      </trkpt>
      <trkpt lat="45.69139" lon="3.21765">
        <ele>354.2</ele>
        <time>2024-04-28T09:15:32Z</time>
      </trkpt>
      <trkpt lat="45.69139" lon="3.21771">
        <ele>354.2</ele>
        <time>2024-04-28T09:15:33Z</time>
      </trkpt>
      <trkpt lat="45.69141" lon="3.21781">
        <ele>354.4</ele>
        <time>2024-04-28T09:15:34Z</time>
      </trkpt>
      <trkpt lat="45.69146" lon="3.21784">
        <ele>354.6</ele>
        <time>2024-04-28T09:15:35Z</time>
      </trkpt>
      <trkpt lat="45.6915" lon="3.21784">
        <ele>354.6</ele>
        <time>2024-04-28T09:15:36Z</time>
      </trkpt>
      <trkpt lat="45.69154" lon="3.21784">
        <ele>354.8</ele>
        <time>2024-04-28T09:15:37Z</time>
      </trkpt>
      <trkpt lat="45.6916" lon="3.21777">
        <ele>355</ele>
        <time>2024-04-28T09:15:38Z</time>
      </trkpt>
      <trkpt lat="45.69166" lon="3.21775">
        <ele>355</ele>
        <time>2024-04-28T09:15:39Z</time>
      </trkpt>
      <trkpt lat="45.69172" lon="3.21773">
        <ele>355.2</ele>
        <time>2024-04-28T09:15:40Z</time>
      </trkpt>
      <trkpt lat="45.69178" lon="3.21771">
        <ele>355.2</ele>
        <time>2024-04-28T09:15:41Z</time>
      </trkpt>
      <trkpt lat="45.69184" lon="3.21769">
        <ele>355.4</ele>
        <time>2024-04-28T09:15:42Z</time>
      </trkpt>
      <trkpt lat="45.69191" lon="3.21769">
        <ele>355.4</ele>
        <time>2024-04-28T09:15:43Z</time>
      </trkpt>
      <trkpt lat="45.69197" lon="3.21769">
        <ele>355.4</ele>
        <time>2024-04-28T09:15:44Z</time>
      </trkpt>
      <trkpt lat="45.69204" lon="3.21769">
        <ele>355.6</ele>
        <time>2024-04-28T09:15:45Z</time>
      </trkpt>
      <trkpt lat="45.69211" lon="3.21769">
        <ele>355.6</ele>
        <time>2024-04-28T09:15:46Z</time>
      </trkpt>
      <trkpt lat="45.69218" lon="3.21769">
        <ele>355.6</ele>
        <time>2024-04-28T09:15:47Z</time>
      </trkpt>
      <trkpt lat="45.69225" lon="3.21769">
        <ele>355.8</ele>
        <time>2024-04-28T09:15:48Z</time>
      </trkpt>
      <trkpt lat="45.69233" lon="3.21769">
        <ele>355.8</ele>
        <time>2024-04-28T09:15:49Z</time>
      </trkpt>
      <trkpt lat="45.69239" lon="3.21768">
        <ele>356</ele>
        <time>2024-04-28T09:15:50Z</time>
      </trkpt>
      <trkpt lat="45.69247" lon="3.21766">
        <ele>356</ele>
        <time>2024-04-28T09:15:51Z</time>
      </trkpt>
      <trkpt lat="45.69254" lon="3.21764">
        <ele>356.2</ele>
        <time>2024-04-28T09:15:52Z</time>
      </trkpt>
      <trkpt lat="45.69262" lon="3.21762">
        <ele>356.2</ele>
        <time>2024-04-28T09:15:53Z</time>
      </trkpt>
      <trkpt lat="45.69269" lon="3.2176">
        <ele>356.2</ele>
        <time>2024-04-28T09:15:54Z</time>
      </trkpt>
      <trkpt lat="45.69277" lon="3.21759">
        <ele>356.2</ele>
        <time>2024-04-28T09:15:55Z</time>
      </trkpt>
      <trkpt lat="45.69284" lon="3.21757">
        <ele>356.2</ele>
        <time>2024-04-28T09:15:56Z</time>
      </trkpt>
      <trkpt lat="45.69292" lon="3.21755">
        <ele>356.2</ele>
        <time>2024-04-28T09:15:57Z</time>
      </trkpt>
      <trkpt lat="45.69299" lon="3.21752">
        <ele>356.2</ele>
        <time>2024-04-28T09:15:58Z</time>
      </trkpt>
      <trkpt lat="45.69307" lon="3.21749">
        <ele>356.2</ele>
        <time>2024-04-28T09:15:59Z</time>
      </trkpt>
      <trkpt lat="45.69315" lon="3.21746">
        <ele>356.2</ele>
        <time>2024-04-28T09:16:00Z</time>
      </trkpt>
      <trkpt lat="45.69322" lon="3.21743">
        <ele>356.2</ele>
        <time>2024-04-28T09:16:01Z</time>
      </trkpt>
      <trkpt lat="45.69329" lon="3.21741">
        <ele>356.2</ele>
        <time>2024-04-28T09:16:02Z</time>
      </trkpt>
      <trkpt lat="45.69337" lon="3.21738">
        <ele>356.2</ele>
        <time>2024-04-28T09:16:03Z</time>
      </trkpt>
      <trkpt lat="45.69344" lon="3.21735">
        <ele>356.2</ele>
        <time>2024-04-28T09:16:04Z</time>
      </trkpt>
      <trkpt lat="45.69351" lon="3.21733">
        <ele>356.2</ele>
        <time>2024-04-28T09:16:05Z</time>
      </trkpt>
      <trkpt lat="45.69358" lon="3.2173">
        <ele>356.2</ele>
        <time>2024-04-28T09:16:06Z</time>
      </trkpt>
      <trkpt lat="45.69366" lon="3.21727">
        <ele>356.2</ele>
        <time>2024-04-28T09:16:07Z</time>
      </trkpt>
      <trkpt lat="45.69373" lon="3.21724">
        <ele>356.2</ele>
        <time>2024-04-28T09:16:08Z</time>
      </trkpt>
      <trkpt lat="45.69381" lon="3.21722">
        <ele>356.2</ele>
        <time>2024-04-28T09:16:09Z</time>
      </trkpt>
      <trkpt lat="45.69388" lon="3.21719">
        <ele>356</ele>
        <time>2024-04-28T09:16:10Z</time>
      </trkpt>
      <trkpt lat="45.69396" lon="3.21716">
        <ele>356</ele>
        <time>2024-04-28T09:16:11Z</time>
      </trkpt>
      <trkpt lat="45.69403" lon="3.21713">
        <ele>356.6</ele>
        <time>2024-04-28T09:16:12Z</time>
      </trkpt>
      <trkpt lat="45.6941" lon="3.21711">
        <ele>356.4</ele>
        <time>2024-04-28T09:16:13Z</time>
      </trkpt>
      <trkpt lat="45.69418" lon="3.21708">
        <ele>356</ele>
        <time>2024-04-28T09:16:14Z</time>
      </trkpt>
      <trkpt lat="45.69426" lon="3.21705">
        <ele>356</ele>
        <time>2024-04-28T09:16:15Z</time>
      </trkpt>
      <trkpt lat="45.69433" lon="3.21702">
        <ele>355.8</ele>
        <time>2024-04-28T09:16:16Z</time>
      </trkpt>
      <trkpt lat="45.69441" lon="3.21699">
        <ele>355.6</ele>
        <time>2024-04-28T09:16:17Z</time>
      </trkpt>
      <trkpt lat="45.69448" lon="3.21696">
        <ele>355.8</ele>
        <time>2024-04-28T09:16:18Z</time>
      </trkpt>
      <trkpt lat="45.69455" lon="3.21693">
        <ele>355.8</ele>
        <time>2024-04-28T09:16:19Z</time>
      </trkpt>
      <trkpt lat="45.69463" lon="3.2169">
        <ele>355.8</ele>
        <time>2024-04-28T09:16:20Z</time>
      </trkpt>
      <trkpt lat="45.6947" lon="3.21687">
        <ele>355.6</ele>
        <time>2024-04-28T09:16:21Z</time>
      </trkpt>
      <trkpt lat="45.69477" lon="3.21684">
        <ele>355.6</ele>
        <time>2024-04-28T09:16:22Z</time>
      </trkpt>
      <trkpt lat="45.69485" lon="3.21681">
        <ele>355.6</ele>
        <time>2024-04-28T09:16:23Z</time>
      </trkpt>
      <trkpt lat="45.69492" lon="3.21678">
        <ele>355.4</ele>
        <time>2024-04-28T09:16:24Z</time>
      </trkpt>
      <trkpt lat="45.695" lon="3.21675">
        <ele>355.4</ele>
        <time>2024-04-28T09:16:25Z</time>
      </trkpt>
      <trkpt lat="45.69507" lon="3.21672">
        <ele>355.4</ele>
        <time>2024-04-28T09:16:26Z</time>
      </trkpt>
      <trkpt lat="45.69515" lon="3.2167">
        <ele>355.4</ele>
        <time>2024-04-28T09:16:27Z</time>
      </trkpt>
      <trkpt lat="45.69522" lon="3.21668">
        <ele>355.4</ele>
        <time>2024-04-28T09:16:28Z</time>
      </trkpt>
      <trkpt lat="45.6953" lon="3.21666">
        <ele>355.4</ele>
        <time>2024-04-28T09:16:29Z</time>
      </trkpt>
      <trkpt lat="45.69538" lon="3.21663">
        <ele>355.4</ele>
        <time>2024-04-28T09:16:30Z</time>
      </trkpt>
      <trkpt lat="45.69546" lon="3.21661">
        <ele>355.2</ele>
        <time>2024-04-28T09:16:31Z</time>
      </trkpt>
      <trkpt lat="45.69554" lon="3.21659">
        <ele>355.2</ele>
        <time>2024-04-28T09:16:32Z</time>
      </trkpt>
      <trkpt lat="45.69562" lon="3.21657">
        <ele>355.2</ele>
        <time>2024-04-28T09:16:33Z</time>
      </trkpt>
      <trkpt lat="45.6957" lon="3.21657">
        <ele>355</ele>
        <time>2024-04-28T09:16:34Z</time>
      </trkpt>
      <trkpt lat="45.69578" lon="3.21656">
        <ele>355</ele>
        <time>2024-04-28T09:16:35Z</time>
      </trkpt>
      <trkpt lat="45.69585" lon="3.21656">
        <ele>354.8</ele>
        <time>2024-04-28T09:16:36Z</time>
      </trkpt>
      <trkpt lat="45.69593" lon="3.21656">
        <ele>354.8</ele>
        <time>2024-04-28T09:16:37Z</time>
      </trkpt>
      <trkpt lat="45.69601" lon="3.21655">
        <ele>354.8</ele>
        <time>2024-04-28T09:16:38Z</time>
      </trkpt>
      <trkpt lat="45.69609" lon="3.21655">
        <ele>354.6</ele>
        <time>2024-04-28T09:16:39Z</time>
      </trkpt>
      <trkpt lat="45.69617" lon="3.21655">
        <ele>354.6</ele>
        <time>2024-04-28T09:16:40Z</time>
      </trkpt>
      <trkpt lat="45.69625" lon="3.21656">
        <ele>354.6</ele>
        <time>2024-04-28T09:16:41Z</time>
      </trkpt>
      <trkpt lat="45.69633" lon="3.21657">
        <ele>354.6</ele>
        <time>2024-04-28T09:16:42Z</time>
      </trkpt>
      <trkpt lat="45.69641" lon="3.21658">
        <ele>354.6</ele>
        <time>2024-04-28T09:16:43Z</time>
      </trkpt>
      <trkpt lat="45.69648" lon="3.21658">
        <ele>354.6</ele>
        <time>2024-04-28T09:16:44Z</time>
      </trkpt>
      <trkpt lat="45.69656" lon="3.21659">
        <ele>354.6</ele>
        <time>2024-04-28T09:16:45Z</time>
      </trkpt>
      <trkpt lat="45.69664" lon="3.2166">
        <ele>354.6</ele>
        <time>2024-04-28T09:16:46Z</time>
      </trkpt>
      <trkpt lat="45.69671" lon="3.21661">
        <ele>354.6</ele>
        <time>2024-04-28T09:16:47Z</time>
      </trkpt>
      <trkpt lat="45.69679" lon="3.21662">
        <ele>354.4</ele>
        <time>2024-04-28T09:16:48Z</time>
      </trkpt>
      <trkpt lat="45.69686" lon="3.21663">
        <ele>354.4</ele>
        <time>2024-04-28T09:16:49Z</time>
      </trkpt>
      <trkpt lat="45.69694" lon="3.21663">
        <ele>354.4</ele>
        <time>2024-04-28T09:16:50Z</time>
      </trkpt>
      <trkpt lat="45.69702" lon="3.21664">
        <ele>354.4</ele>
        <time>2024-04-28T09:16:51Z</time>
      </trkpt>
      <trkpt lat="45.69709" lon="3.21665">
        <ele>354.4</ele>
        <time>2024-04-28T09:16:52Z</time>
      </trkpt>
      <trkpt lat="45.69717" lon="3.21666">
        <ele>354.4</ele>
        <time>2024-04-28T09:16:53Z</time>
      </trkpt>
      <trkpt lat="45.69725" lon="3.21667">
        <ele>354.2</ele>
        <time>2024-04-28T09:16:54Z</time>
      </trkpt>
      <trkpt lat="45.69733" lon="3.21668">
        <ele>354.2</ele>
        <time>2024-04-28T09:16:55Z</time>
      </trkpt>
      <trkpt lat="45.6974" lon="3.21668">
        <ele>354</ele>
        <time>2024-04-28T09:16:56Z</time>
      </trkpt>
      <trkpt lat="45.69748" lon="3.21669">
        <ele>354</ele>
        <time>2024-04-28T09:16:57Z</time>
      </trkpt>
      <trkpt lat="45.69757" lon="3.2167">
        <ele>353.8</ele>
        <time>2024-04-28T09:16:58Z</time>
      </trkpt>
      <trkpt lat="45.69765" lon="3.21671">
        <ele>353.8</ele>
        <time>2024-04-28T09:16:59Z</time>
      </trkpt>
      <trkpt lat="45.69773" lon="3.21672">
        <ele>353.6</ele>
        <time>2024-04-28T09:17:00Z</time>
      </trkpt>
      <trkpt lat="45.69781" lon="3.21673">
        <ele>353.4</ele>
        <time>2024-04-28T09:17:01Z</time>
      </trkpt>
      <trkpt lat="45.69789" lon="3.21674">
        <ele>353.4</ele>
        <time>2024-04-28T09:17:02Z</time>
      </trkpt>
      <trkpt lat="45.69798" lon="3.21675">
        <ele>353.2</ele>
        <time>2024-04-28T09:17:03Z</time>
      </trkpt>
      <trkpt lat="45.69806" lon="3.21676">
        <ele>353</ele>
        <time>2024-04-28T09:17:04Z</time>
      </trkpt>
      <trkpt lat="45.69815" lon="3.21677">
        <ele>353</ele>
        <time>2024-04-28T09:17:05Z</time>
      </trkpt>
      <trkpt lat="45.69824" lon="3.21678">
        <ele>352.8</ele>
        <time>2024-04-28T09:17:06Z</time>
      </trkpt>
      <trkpt lat="45.69833" lon="3.21679">
        <ele>352.6</ele>
        <time>2024-04-28T09:17:07Z</time>
      </trkpt>
      <trkpt lat="45.69842" lon="3.2168">
        <ele>352.4</ele>
        <time>2024-04-28T09:17:08Z</time>
      </trkpt>
      <trkpt lat="45.69851" lon="3.21681">
        <ele>352.2</ele>
        <time>2024-04-28T09:17:09Z</time>
      </trkpt>
      <trkpt lat="45.6986" lon="3.21682">
        <ele>352.2</ele>
        <time>2024-04-28T09:17:10Z</time>
      </trkpt>
      <trkpt lat="45.69869" lon="3.21683">
        <ele>352</ele>
        <time>2024-04-28T09:17:11Z</time>
      </trkpt>
      <trkpt lat="45.69879" lon="3.21684">
        <ele>351.8</ele>
        <time>2024-04-28T09:17:12Z</time>
      </trkpt>
      <trkpt lat="45.69888" lon="3.21685">
        <ele>351.6</ele>
        <time>2024-04-28T09:17:13Z</time>
      </trkpt>
      <trkpt lat="45.69897" lon="3.21686">
        <ele>351.4</ele>
        <time>2024-04-28T09:17:14Z</time>
      </trkpt>
      <trkpt lat="45.69907" lon="3.21687">
        <ele>351.4</ele>
        <time>2024-04-28T09:17:15Z</time>
      </trkpt>
      <trkpt lat="45.69916" lon="3.21688">
        <ele>351.2</ele>
        <time>2024-04-28T09:17:16Z</time>
      </trkpt>
      <trkpt lat="45.69926" lon="3.21689">
        <ele>351</ele>
        <time>2024-04-28T09:17:17Z</time>
      </trkpt>
      <trkpt lat="45.69935" lon="3.2169">
        <ele>350.8</ele>
        <time>2024-04-28T09:17:18Z</time>
      </trkpt>
      <trkpt lat="45.69944" lon="3.21691">
        <ele>350.6</ele>
        <time>2024-04-28T09:17:19Z</time>
      </trkpt>
      <trkpt lat="45.69954" lon="3.21692">
        <ele>350.4</ele>
        <time>2024-04-28T09:17:20Z</time>
      </trkpt>
      <trkpt lat="45.69963" lon="3.21693">
        <ele>350.2</ele>
        <time>2024-04-28T09:17:21Z</time>
      </trkpt>
      <trkpt lat="45.69972" lon="3.21695">
        <ele>350</ele>
        <time>2024-04-28T09:17:22Z</time>
      </trkpt>
      <trkpt lat="45.69981" lon="3.21696">
        <ele>349.8</ele>
        <time>2024-04-28T09:17:23Z</time>
      </trkpt>
      <trkpt lat="45.6999" lon="3.21698">
        <ele>349.6</ele>
        <time>2024-04-28T09:17:24Z</time>
      </trkpt>
      <trkpt lat="45.69998" lon="3.21699">
        <ele>349.4</ele>
        <time>2024-04-28T09:17:25Z</time>
      </trkpt>
      <trkpt lat="45.70007" lon="3.21701">
        <ele>349.2</ele>
        <time>2024-04-28T09:17:26Z</time>
      </trkpt>
      <trkpt lat="45.70015" lon="3.21702">
        <ele>349</ele>
        <time>2024-04-28T09:17:27Z</time>
      </trkpt>
      <trkpt lat="45.70023" lon="3.21704">
        <ele>348.8</ele>
        <time>2024-04-28T09:17:28Z</time>
      </trkpt>
      <trkpt lat="45.70031" lon="3.21706">
        <ele>348.6</ele>
        <time>2024-04-28T09:17:29Z</time>
      </trkpt>
      <trkpt lat="45.70039" lon="3.21707">
        <ele>348.6</ele>
        <time>2024-04-28T09:17:30Z</time>
      </trkpt>
      <trkpt lat="45.70047" lon="3.21709">
        <ele>348.4</ele>
        <time>2024-04-28T09:17:31Z</time>
      </trkpt>
      <trkpt lat="45.70055" lon="3.2171">
        <ele>348.4</ele>
        <time>2024-04-28T09:17:32Z</time>
      </trkpt>
      <trkpt lat="45.70063" lon="3.21712">
        <ele>348.2</ele>
        <time>2024-04-28T09:17:33Z</time>
      </trkpt>
      <trkpt lat="45.70071" lon="3.21713">
        <ele>348</ele>
        <time>2024-04-28T09:17:34Z</time>
      </trkpt>
      <trkpt lat="45.70078" lon="3.21715">
        <ele>348</ele>
        <time>2024-04-28T09:17:35Z</time>
      </trkpt>
      <trkpt lat="45.70086" lon="3.21716">
        <ele>347.8</ele>
        <time>2024-04-28T09:17:36Z</time>
      </trkpt>
      <trkpt lat="45.70093" lon="3.21718">
        <ele>347.8</ele>
        <time>2024-04-28T09:17:37Z</time>
      </trkpt>
      <trkpt lat="45.701" lon="3.21719">
        <ele>347.6</ele>
        <time>2024-04-28T09:17:38Z</time>
      </trkpt>
      <trkpt lat="45.70108" lon="3.2172">
        <ele>347.4</ele>
        <time>2024-04-28T09:17:39Z</time>
      </trkpt>
      <trkpt lat="45.70115" lon="3.2172">
        <ele>347.4</ele>
        <time>2024-04-28T09:17:40Z</time>
      </trkpt>
      <trkpt lat="45.70123" lon="3.21721">
        <ele>347.2</ele>
        <time>2024-04-28T09:17:41Z</time>
      </trkpt>
      <trkpt lat="45.7013" lon="3.21721">
        <ele>347.2</ele>
        <time>2024-04-28T09:17:42Z</time>
      </trkpt>
      <trkpt lat="45.70138" lon="3.21722">
        <ele>347</ele>
        <time>2024-04-28T09:17:43Z</time>
      </trkpt>
      <trkpt lat="45.70145" lon="3.21722">
        <ele>347</ele>
        <time>2024-04-28T09:17:44Z</time>
      </trkpt>
      <trkpt lat="45.70152" lon="3.21723">
        <ele>346.8</ele>
        <time>2024-04-28T09:17:45Z</time>
      </trkpt>
      <trkpt lat="45.7016" lon="3.21723">
        <ele>346.6</ele>
        <time>2024-04-28T09:17:46Z</time>
      </trkpt>
      <trkpt lat="45.70167" lon="3.21724">
        <ele>346.4</ele>
        <time>2024-04-28T09:17:47Z</time>
      </trkpt>
      <trkpt lat="45.70175" lon="3.21724">
        <ele>346.4</ele>
        <time>2024-04-28T09:17:48Z</time>
      </trkpt>
      <trkpt lat="45.70182" lon="3.21725">
        <ele>346.2</ele>
        <time>2024-04-28T09:17:49Z</time>
      </trkpt>
      <trkpt lat="45.7019" lon="3.21725">
        <ele>346.2</ele>
        <time>2024-04-28T09:17:50Z</time>
      </trkpt>
      <trkpt lat="45.70197" lon="3.21726">
        <ele>346</ele>
        <time>2024-04-28T09:17:51Z</time>
      </trkpt>
      <trkpt lat="45.70204" lon="3.21726">
        <ele>346</ele>
        <time>2024-04-28T09:17:52Z</time>
      </trkpt>
      <trkpt lat="45.70211" lon="3.21727">
        <ele>345.8</ele>
        <time>2024-04-28T09:17:53Z</time>
      </trkpt>
      <trkpt lat="45.70218" lon="3.21727">
        <ele>345.8</ele>
        <time>2024-04-28T09:17:54Z</time>
      </trkpt>
      <trkpt lat="45.70226" lon="3.21728">
        <ele>345.8</ele>
        <time>2024-04-28T09:17:55Z</time>
      </trkpt>
      <trkpt lat="45.70233" lon="3.21729">
        <ele>345.6</ele>
        <time>2024-04-28T09:17:56Z</time>
      </trkpt>
      <trkpt lat="45.7024" lon="3.21731">
        <ele>345.4</ele>
        <time>2024-04-28T09:17:57Z</time>
      </trkpt>
      <trkpt lat="45.70247" lon="3.21734">
        <ele>345.4</ele>
        <time>2024-04-28T09:17:58Z</time>
      </trkpt>
      <trkpt lat="45.70253" lon="3.21736">
        <ele>345.2</ele>
        <time>2024-04-28T09:17:59Z</time>
      </trkpt>
      <trkpt lat="45.7026" lon="3.21738">
        <ele>345.2</ele>
        <time>2024-04-28T09:18:00Z</time>
      </trkpt>
      <trkpt lat="45.70266" lon="3.21741">
        <ele>345</ele>
        <time>2024-04-28T09:18:01Z</time>
      </trkpt>
      <trkpt lat="45.70273" lon="3.21743">
        <ele>345</ele>
        <time>2024-04-28T09:18:02Z</time>
      </trkpt>
      <trkpt lat="45.7028" lon="3.21745">
        <ele>344.8</ele>
        <time>2024-04-28T09:18:03Z</time>
      </trkpt>
      <trkpt lat="45.70286" lon="3.21747">
        <ele>344.8</ele>
        <time>2024-04-28T09:18:04Z</time>
      </trkpt>
      <trkpt lat="45.70293" lon="3.2175">
        <ele>344.6</ele>
        <time>2024-04-28T09:18:05Z</time>
      </trkpt>
      <trkpt lat="45.703" lon="3.21752">
        <ele>344.6</ele>
        <time>2024-04-28T09:18:06Z</time>
      </trkpt>
      <trkpt lat="45.70306" lon="3.21754">
        <ele>344.4</ele>
        <time>2024-04-28T09:18:07Z</time>
      </trkpt>
      <trkpt lat="45.70313" lon="3.21757">
        <ele>344.4</ele>
        <time>2024-04-28T09:18:08Z</time>
      </trkpt>
      <trkpt lat="45.7032" lon="3.21759">
        <ele>344.4</ele>
        <time>2024-04-28T09:18:09Z</time>
      </trkpt>
      <trkpt lat="45.70327" lon="3.21761">
        <ele>344.4</ele>
        <time>2024-04-28T09:18:10Z</time>
      </trkpt>
      <trkpt lat="45.70333" lon="3.21763">
        <ele>344.4</ele>
        <time>2024-04-28T09:18:11Z</time>
      </trkpt>
      <trkpt lat="45.7034" lon="3.21766">
        <ele>344.2</ele>
        <time>2024-04-28T09:18:12Z</time>
      </trkpt>
      <trkpt lat="45.70347" lon="3.21768">
        <ele>344.2</ele>
        <time>2024-04-28T09:18:13Z</time>
      </trkpt>
      <trkpt lat="45.70353" lon="3.2177">
        <ele>344</ele>
        <time>2024-04-28T09:18:14Z</time>
      </trkpt>
      <trkpt lat="45.7036" lon="3.21772">
        <ele>344</ele>
        <time>2024-04-28T09:18:15Z</time>
      </trkpt>
      <trkpt lat="45.70366" lon="3.21775">
        <ele>344</ele>
        <time>2024-04-28T09:18:16Z</time>
      </trkpt>
      <trkpt lat="45.70372" lon="3.21777">
        <ele>344</ele>
        <time>2024-04-28T09:18:17Z</time>
      </trkpt>
      <trkpt lat="45.70378" lon="3.21779">
        <ele>343.8</ele>
        <time>2024-04-28T09:18:18Z</time>
      </trkpt>
      <trkpt lat="45.70383" lon="3.21781">
        <ele>343.8</ele>
        <time>2024-04-28T09:18:19Z</time>
      </trkpt>
      <trkpt lat="45.70389" lon="3.21783">
        <ele>343.8</ele>
        <time>2024-04-28T09:18:20Z</time>
      </trkpt>
      <trkpt lat="45.70395" lon="3.21784">
        <ele>343.8</ele>
        <time>2024-04-28T09:18:21Z</time>
      </trkpt>
      <trkpt lat="45.704" lon="3.21786">
        <ele>343.6</ele>
        <time>2024-04-28T09:18:22Z</time>
      </trkpt>
      <trkpt lat="45.70406" lon="3.21788">
        <ele>343.6</ele>
        <time>2024-04-28T09:18:23Z</time>
      </trkpt>
      <trkpt lat="45.70411" lon="3.2179">
        <ele>343.6</ele>
        <time>2024-04-28T09:18:24Z</time>
      </trkpt>
      <trkpt lat="45.70417" lon="3.21792">
        <ele>343.4</ele>
        <time>2024-04-28T09:18:25Z</time>
      </trkpt>
      <trkpt lat="45.70422" lon="3.21794">
        <ele>343.6</ele>
        <time>2024-04-28T09:18:26Z</time>
      </trkpt>
      <trkpt lat="45.70427" lon="3.21796">
        <ele>343.4</ele>
        <time>2024-04-28T09:18:27Z</time>
      </trkpt>
      <trkpt lat="45.70432" lon="3.21797">
        <ele>343.4</ele>
        <time>2024-04-28T09:18:28Z</time>
      </trkpt>
      <trkpt lat="45.70438" lon="3.21799">
        <ele>343.4</ele>
        <time>2024-04-28T09:18:29Z</time>
      </trkpt>
      <trkpt lat="45.70443" lon="3.21801">
        <ele>343.4</ele>
        <time>2024-04-28T09:18:30Z</time>
      </trkpt>
      <trkpt lat="45.70448" lon="3.21803">
        <ele>343.4</ele>
        <time>2024-04-28T09:18:31Z</time>
      </trkpt>
      <trkpt lat="45.70453" lon="3.21804">
        <ele>343.2</ele>
        <time>2024-04-28T09:18:32Z</time>
      </trkpt>
      <trkpt lat="45.70458" lon="3.21806">
        <ele>343.2</ele>
        <time>2024-04-28T09:18:33Z</time>
      </trkpt>
      <trkpt lat="45.70463" lon="3.21808">
        <ele>343.2</ele>
        <time>2024-04-28T09:18:34Z</time>
      </trkpt>
      <trkpt lat="45.70468" lon="3.21809">
        <ele>343.2</ele>
        <time>2024-04-28T09:18:35Z</time>
      </trkpt>
      <trkpt lat="45.70472" lon="3.21811">
        <ele>343.2</ele>
        <time>2024-04-28T09:18:36Z</time>
      </trkpt>
      <trkpt lat="45.70477" lon="3.21813">
        <ele>343</ele>
        <time>2024-04-28T09:18:37Z</time>
      </trkpt>
      <trkpt lat="45.70482" lon="3.21814">
        <ele>343</ele>
        <time>2024-04-28T09:18:38Z</time>
      </trkpt>
      <trkpt lat="45.70487" lon="3.21816">
        <ele>343</ele>
        <time>2024-04-28T09:18:39Z</time>
      </trkpt>
      <trkpt lat="45.70491" lon="3.21817">
        <ele>343</ele>
        <time>2024-04-28T09:18:40Z</time>
      </trkpt>
      <trkpt lat="45.70496" lon="3.21818">
        <ele>343</ele>
        <time>2024-04-28T09:18:41Z</time>
      </trkpt>
      <trkpt lat="45.705" lon="3.2182">
        <ele>343</ele>
        <time>2024-04-28T09:18:42Z</time>
      </trkpt>
      <trkpt lat="45.70505" lon="3.21821">
        <ele>343</ele>
        <time>2024-04-28T09:18:43Z</time>
      </trkpt>
      <trkpt lat="45.7051" lon="3.21823">
        <ele>343</ele>
        <time>2024-04-28T09:18:44Z</time>
      </trkpt>
      <trkpt lat="45.70516" lon="3.21824">
        <ele>343</ele>
        <time>2024-04-28T09:18:45Z</time>
      </trkpt>
      <trkpt lat="45.70521" lon="3.21826">
        <ele>343</ele>
        <time>2024-04-28T09:18:46Z</time>
      </trkpt>
      <trkpt lat="45.70526" lon="3.21827">
        <ele>343</ele>
        <time>2024-04-28T09:18:47Z</time>
      </trkpt>
      <trkpt lat="45.70531" lon="3.21829">
        <ele>343</ele>
        <time>2024-04-28T09:18:48Z</time>
      </trkpt>
      <trkpt lat="45.70536" lon="3.2183">
        <ele>343</ele>
        <time>2024-04-28T09:18:49Z</time>
      </trkpt>
      <trkpt lat="45.70541" lon="3.21832">
        <ele>343.2</ele>
        <time>2024-04-28T09:18:50Z</time>
      </trkpt>
      <trkpt lat="45.70547" lon="3.21834">
        <ele>343</ele>
        <time>2024-04-28T09:18:51Z</time>
      </trkpt>
      <trkpt lat="45.70552" lon="3.21835">
        <ele>343</ele>
        <time>2024-04-28T09:18:52Z</time>
      </trkpt>
      <trkpt lat="45.70557" lon="3.21837">
        <ele>343</ele>
        <time>2024-04-28T09:18:53Z</time>
      </trkpt>
      <trkpt lat="45.70563" lon="3.21838">
        <ele>343</ele>
        <time>2024-04-28T09:18:54Z</time>
      </trkpt>
      <trkpt lat="45.70568" lon="3.2184">
        <ele>343</ele>
        <time>2024-04-28T09:18:55Z</time>
      </trkpt>
      <trkpt lat="45.70574" lon="3.21842">
        <ele>343</ele>
        <time>2024-04-28T09:18:56Z</time>
      </trkpt>
      <trkpt lat="45.70579" lon="3.21843">
        <ele>343</ele>
        <time>2024-04-28T09:18:57Z</time>
      </trkpt>
      <trkpt lat="45.70584" lon="3.21845">
        <ele>343</ele>
        <time>2024-04-28T09:18:58Z</time>
      </trkpt>
      <trkpt lat="45.7059" lon="3.21846">
        <ele>342.8</ele>
        <time>2024-04-28T09:18:59Z</time>
      </trkpt>
      <trkpt lat="45.70596" lon="3.21847">
        <ele>342.8</ele>
        <time>2024-04-28T09:19:00Z</time>
      </trkpt>
      <trkpt lat="45.70602" lon="3.21847">
        <ele>342.8</ele>
        <time>2024-04-28T09:19:01Z</time>
      </trkpt>
      <trkpt lat="45.70608" lon="3.21848">
        <ele>342.8</ele>
        <time>2024-04-28T09:19:02Z</time>
      </trkpt>
      <trkpt lat="45.70614" lon="3.21848">
        <ele>342.6</ele>
        <time>2024-04-28T09:19:03Z</time>
      </trkpt>
      <trkpt lat="45.70621" lon="3.21849">
        <ele>342.6</ele>
        <time>2024-04-28T09:19:04Z</time>
      </trkpt>
      <trkpt lat="45.70627" lon="3.21849">
        <ele>342.4</ele>
        <time>2024-04-28T09:19:05Z</time>
      </trkpt>
      <trkpt lat="45.70633" lon="3.2185">
        <ele>342.4</ele>
        <time>2024-04-28T09:19:06Z</time>
      </trkpt>
      <trkpt lat="45.70639" lon="3.2185">
        <ele>342.2</ele>
        <time>2024-04-28T09:19:07Z</time>
      </trkpt>
      <trkpt lat="45.70645" lon="3.21849">
        <ele>342.2</ele>
        <time>2024-04-28T09:19:08Z</time>
      </trkpt>
      <trkpt lat="45.70651" lon="3.21849">
        <ele>342</ele>
        <time>2024-04-28T09:19:09Z</time>
      </trkpt>
      <trkpt lat="45.70658" lon="3.21849">
        <ele>341.8</ele>
        <time>2024-04-28T09:19:10Z</time>
      </trkpt>
      <trkpt lat="45.70664" lon="3.21848">
        <ele>341.6</ele>
        <time>2024-04-28T09:19:11Z</time>
      </trkpt>
      <trkpt lat="45.70671" lon="3.21848">
        <ele>341.6</ele>
        <time>2024-04-28T09:19:12Z</time>
      </trkpt>
      <trkpt lat="45.70678" lon="3.21848">
        <ele>341.4</ele>
        <time>2024-04-28T09:19:13Z</time>
      </trkpt>
      <trkpt lat="45.70685" lon="3.21847">
        <ele>341.2</ele>
        <time>2024-04-28T09:19:14Z</time>
      </trkpt>
      <trkpt lat="45.70692" lon="3.21847">
        <ele>341</ele>
        <time>2024-04-28T09:19:15Z</time>
      </trkpt>
      <trkpt lat="45.70699" lon="3.21846">
        <ele>341</ele>
        <time>2024-04-28T09:19:16Z</time>
      </trkpt>
      <trkpt lat="45.70705" lon="3.21846">
        <ele>340.8</ele>
        <time>2024-04-28T09:19:17Z</time>
      </trkpt>
      <trkpt lat="45.70712" lon="3.21846">
        <ele>340.6</ele>
        <time>2024-04-28T09:19:18Z</time>
      </trkpt>
      <trkpt lat="45.70719" lon="3.21845">
        <ele>340.4</ele>
        <time>2024-04-28T09:19:19Z</time>
      </trkpt>
      <trkpt lat="45.70726" lon="3.21845">
        <ele>340.4</ele>
        <time>2024-04-28T09:19:20Z</time>
      </trkpt>
      <trkpt lat="45.70733" lon="3.21844">
        <ele>340.4</ele>
        <time>2024-04-28T09:19:21Z</time>
      </trkpt>
      <trkpt lat="45.7074" lon="3.21844">
        <ele>340.4</ele>
        <time>2024-04-28T09:19:22Z</time>
      </trkpt>
      <trkpt lat="45.70748" lon="3.21844">
        <ele>340.2</ele>
        <time>2024-04-28T09:19:23Z</time>
      </trkpt>
      <trkpt lat="45.70755" lon="3.21846">
        <ele>340.2</ele>
        <time>2024-04-28T09:19:24Z</time>
      </trkpt>
      <trkpt lat="45.70762" lon="3.21848">
        <ele>340</ele>
        <time>2024-04-28T09:19:25Z</time>
      </trkpt>
      <trkpt lat="45.7077" lon="3.2185">
        <ele>340</ele>
        <time>2024-04-28T09:19:26Z</time>
      </trkpt>
      <trkpt lat="45.70778" lon="3.21854">
        <ele>340</ele>
        <time>2024-04-28T09:19:27Z</time>
      </trkpt>
      <trkpt lat="45.70785" lon="3.21859">
        <ele>339.8</ele>
        <time>2024-04-28T09:19:28Z</time>
      </trkpt>
      <trkpt lat="45.70792" lon="3.21864">
        <ele>339.6</ele>
        <time>2024-04-28T09:19:29Z</time>
      </trkpt>
      <trkpt lat="45.70799" lon="3.21869">
        <ele>339.6</ele>
        <time>2024-04-28T09:19:30Z</time>
      </trkpt>
      <trkpt lat="45.70806" lon="3.21874">
        <ele>339.4</ele>
        <time>2024-04-28T09:19:31Z</time>
      </trkpt>
      <trkpt lat="45.70813" lon="3.21881">
        <ele>339.2</ele>
        <time>2024-04-28T09:19:32Z</time>
      </trkpt>
      <trkpt lat="45.70819" lon="3.21888">
        <ele>339.2</ele>
        <time>2024-04-28T09:19:33Z</time>
      </trkpt>
      <trkpt lat="45.70825" lon="3.21896">
        <ele>339</ele>
        <time>2024-04-28T09:19:34Z</time>
      </trkpt>
      <trkpt lat="45.70832" lon="3.21904">
        <ele>338.8</ele>
        <time>2024-04-28T09:19:35Z</time>
      </trkpt>
      <trkpt lat="45.70838" lon="3.21911">
        <ele>338.6</ele>
        <time>2024-04-28T09:19:36Z</time>
      </trkpt>
      <trkpt lat="45.70844" lon="3.21918">
        <ele>338.4</ele>
        <time>2024-04-28T09:19:37Z</time>
      </trkpt>
      <trkpt lat="45.70851" lon="3.21926">
        <ele>338.4</ele>
        <time>2024-04-28T09:19:38Z</time>
      </trkpt>
      <trkpt lat="45.70857" lon="3.21933">
        <ele>338.2</ele>
        <time>2024-04-28T09:19:39Z</time>
      </trkpt>
      <trkpt lat="45.70864" lon="3.21939">
        <ele>338</ele>
        <time>2024-04-28T09:19:40Z</time>
      </trkpt>
      <trkpt lat="45.70871" lon="3.21946">
        <ele>337.8</ele>
        <time>2024-04-28T09:19:41Z</time>
      </trkpt>
      <trkpt lat="45.70878" lon="3.21952">
        <ele>337.8</ele>
        <time>2024-04-28T09:19:42Z</time>
      </trkpt>
      <trkpt lat="45.70885" lon="3.21958">
        <ele>337.6</ele>
        <time>2024-04-28T09:19:43Z</time>
      </trkpt>
      <trkpt lat="45.70892" lon="3.21961">
        <ele>337.4</ele>
        <time>2024-04-28T09:19:44Z</time>
      </trkpt>
      <trkpt lat="45.709" lon="3.21964">
        <ele>337.4</ele>
        <time>2024-04-28T09:19:45Z</time>
      </trkpt>
      <trkpt lat="45.70907" lon="3.21967">
        <ele>337.2</ele>
        <time>2024-04-28T09:19:46Z</time>
      </trkpt>
      <trkpt lat="45.70915" lon="3.21971">
        <ele>337.2</ele>
        <time>2024-04-28T09:19:47Z</time>
      </trkpt>
      <trkpt lat="45.70923" lon="3.21974">
        <ele>337</ele>
        <time>2024-04-28T09:19:48Z</time>
      </trkpt>
      <trkpt lat="45.70931" lon="3.21977">
        <ele>337</ele>
        <time>2024-04-28T09:19:49Z</time>
      </trkpt>
      <trkpt lat="45.70939" lon="3.2198">
        <ele>337</ele>
        <time>2024-04-28T09:19:50Z</time>
      </trkpt>
      <trkpt lat="45.70947" lon="3.21982">
        <ele>336.8</ele>
        <time>2024-04-28T09:19:51Z</time>
      </trkpt>
      <trkpt lat="45.70955" lon="3.21984">
        <ele>336.8</ele>
        <time>2024-04-28T09:19:52Z</time>
      </trkpt>
      <trkpt lat="45.70963" lon="3.21987">
        <ele>336.6</ele>
        <time>2024-04-28T09:19:53Z</time>
      </trkpt>
      <trkpt lat="45.70972" lon="3.21989">
        <ele>336.6</ele>
        <time>2024-04-28T09:19:54Z</time>
      </trkpt>
      <trkpt lat="45.7098" lon="3.21991">
        <ele>336.6</ele>
        <time>2024-04-28T09:19:55Z</time>
      </trkpt>
      <trkpt lat="45.70988" lon="3.21993">
        <ele>336.4</ele>
        <time>2024-04-28T09:19:56Z</time>
      </trkpt>
      <trkpt lat="45.70995" lon="3.21995">
        <ele>336.4</ele>
        <time>2024-04-28T09:19:57Z</time>
      </trkpt>
      <trkpt lat="45.71002" lon="3.21997">
        <ele>336.2</ele>
        <time>2024-04-28T09:19:58Z</time>
      </trkpt>
      <trkpt lat="45.7101" lon="3.21999">
        <ele>336.4</ele>
        <time>2024-04-28T09:19:59Z</time>
      </trkpt>
      <trkpt lat="45.71017" lon="3.22001">
        <ele>336.4</ele>
        <time>2024-04-28T09:20:00Z</time>
      </trkpt>
      <trkpt lat="45.71025" lon="3.22003">
        <ele>336.4</ele>
        <time>2024-04-28T09:20:01Z</time>
      </trkpt>
      <trkpt lat="45.71032" lon="3.22006">
        <ele>336.4</ele>
        <time>2024-04-28T09:20:02Z</time>
      </trkpt>
      <trkpt lat="45.7104" lon="3.22008">
        <ele>336.4</ele>
        <time>2024-04-28T09:20:03Z</time>
      </trkpt>
      <trkpt lat="45.71048" lon="3.2201">
        <ele>336.4</ele>
        <time>2024-04-28T09:20:04Z</time>
      </trkpt>
      <trkpt lat="45.71056" lon="3.22012">
        <ele>336.4</ele>
        <time>2024-04-28T09:20:05Z</time>
      </trkpt>
      <trkpt lat="45.71064" lon="3.22014">
        <ele>336.2</ele>
        <time>2024-04-28T09:20:06Z</time>
      </trkpt>
      <trkpt lat="45.71072" lon="3.22016">
        <ele>336.4</ele>
        <time>2024-04-28T09:20:07Z</time>
      </trkpt>
      <trkpt lat="45.7108" lon="3.22019">
        <ele>336.4</ele>
        <time>2024-04-28T09:20:08Z</time>
      </trkpt>
      <trkpt lat="45.71088" lon="3.22021">
        <ele>336.4</ele>
        <time>2024-04-28T09:20:09Z</time>
      </trkpt>
      <trkpt lat="45.71096" lon="3.22023">
        <ele>336.4</ele>
        <time>2024-04-28T09:20:10Z</time>
      </trkpt>
      <trkpt lat="45.71104" lon="3.22025">
        <ele>336.2</ele>
        <time>2024-04-28T09:20:11Z</time>
      </trkpt>
      <trkpt lat="45.71112" lon="3.22027">
        <ele>336.2</ele>
        <time>2024-04-28T09:20:12Z</time>
      </trkpt>
      <trkpt lat="45.7112" lon="3.2203">
        <ele>336.2</ele>
        <time>2024-04-28T09:20:13Z</time>
      </trkpt>
      <trkpt lat="45.71128" lon="3.22032">
        <ele>336</ele>
        <time>2024-04-28T09:20:14Z</time>
      </trkpt>
      <trkpt lat="45.71136" lon="3.22034">
        <ele>336</ele>
        <time>2024-04-28T09:20:15Z</time>
      </trkpt>
      <trkpt lat="45.71144" lon="3.22036">
        <ele>336</ele>
        <time>2024-04-28T09:20:16Z</time>
      </trkpt>
      <trkpt lat="45.71152" lon="3.22038">
        <ele>335.8</ele>
        <time>2024-04-28T09:20:17Z</time>
      </trkpt>
      <trkpt lat="45.71161" lon="3.22041">
        <ele>335.6</ele>
        <time>2024-04-28T09:20:18Z</time>
      </trkpt>
      <trkpt lat="45.71169" lon="3.22043">
        <ele>335.6</ele>
        <time>2024-04-28T09:20:19Z</time>
      </trkpt>
      <trkpt lat="45.71177" lon="3.22045">
        <ele>335.6</ele>
        <time>2024-04-28T09:20:20Z</time>
      </trkpt>
      <trkpt lat="45.71185" lon="3.22047">
        <ele>335.6</ele>
        <time>2024-04-28T09:20:21Z</time>
      </trkpt>
      <trkpt lat="45.71193" lon="3.2205">
        <ele>335.4</ele>
        <time>2024-04-28T09:20:22Z</time>
      </trkpt>
      <trkpt lat="45.71202" lon="3.22052">
        <ele>335.4</ele>
        <time>2024-04-28T09:20:23Z</time>
      </trkpt>
      <trkpt lat="45.7121" lon="3.22054">
        <ele>335.4</ele>
        <time>2024-04-28T09:20:24Z</time>
      </trkpt>
      <trkpt lat="45.71218" lon="3.22056">
        <ele>335.2</ele>
        <time>2024-04-28T09:20:25Z</time>
      </trkpt>
      <trkpt lat="45.71225" lon="3.22058">
        <ele>335.2</ele>
        <time>2024-04-28T09:20:26Z</time>
      </trkpt>
      <trkpt lat="45.71233" lon="3.22061">
        <ele>335.2</ele>
        <time>2024-04-28T09:20:27Z</time>
      </trkpt>
      <trkpt lat="45.71241" lon="3.22063">
        <ele>335</ele>
        <time>2024-04-28T09:20:28Z</time>
      </trkpt>
      <trkpt lat="45.71249" lon="3.22065">
        <ele>335</ele>
        <time>2024-04-28T09:20:29Z</time>
      </trkpt>
      <trkpt lat="45.71256" lon="3.22067">
        <ele>335</ele>
        <time>2024-04-28T09:20:30Z</time>
      </trkpt>
      <trkpt lat="45.71263" lon="3.22069">
        <ele>335</ele>
        <time>2024-04-28T09:20:31Z</time>
      </trkpt>
      <trkpt lat="45.71271" lon="3.22071">
        <ele>335</ele>
        <time>2024-04-28T09:20:32Z</time>
      </trkpt>
      <trkpt lat="45.71278" lon="3.22073">
        <ele>335</ele>
        <time>2024-04-28T09:20:33Z</time>
      </trkpt>
      <trkpt lat="45.71284" lon="3.22075">
        <ele>335.2</ele>
        <time>2024-04-28T09:20:34Z</time>
      </trkpt>
      <trkpt lat="45.71291" lon="3.22077">
        <ele>335.2</ele>
        <time>2024-04-28T09:20:35Z</time>
      </trkpt>
      <trkpt lat="45.71297" lon="3.22079">
        <ele>335.2</ele>
        <time>2024-04-28T09:20:36Z</time>
      </trkpt>
      <trkpt lat="45.71303" lon="3.22081">
        <ele>335.2</ele>
        <time>2024-04-28T09:20:37Z</time>
      </trkpt>
      <trkpt lat="45.7131" lon="3.22083">
        <ele>335.4</ele>
        <time>2024-04-28T09:20:38Z</time>
      </trkpt>
      <trkpt lat="45.71316" lon="3.22084">
        <ele>335.2</ele>
        <time>2024-04-28T09:20:39Z</time>
      </trkpt>
      <trkpt lat="45.71322" lon="3.22086">
        <ele>335.2</ele>
        <time>2024-04-28T09:20:40Z</time>
      </trkpt>
      <trkpt lat="45.71329" lon="3.22088">
        <ele>335.2</ele>
        <time>2024-04-28T09:20:41Z</time>
      </trkpt>
      <trkpt lat="45.71335" lon="3.2209">
        <ele>335.4</ele>
        <time>2024-04-28T09:20:42Z</time>
      </trkpt>
      <trkpt lat="45.71342" lon="3.22092">
        <ele>334.8</ele>
        <time>2024-04-28T09:20:43Z</time>
      </trkpt>
      <trkpt lat="45.71348" lon="3.22093">
        <ele>335</ele>
        <time>2024-04-28T09:20:44Z</time>
      </trkpt>
      <trkpt lat="45.71354" lon="3.22095">
        <ele>335.6</ele>
        <time>2024-04-28T09:20:45Z</time>
      </trkpt>
      <trkpt lat="45.71361" lon="3.22097">
        <ele>336</ele>
        <time>2024-04-28T09:20:46Z</time>
      </trkpt>
      <trkpt lat="45.71367" lon="3.22099">
        <ele>335.6</ele>
        <time>2024-04-28T09:20:47Z</time>
      </trkpt>
      <trkpt lat="45.71373" lon="3.22101">
        <ele>335.6</ele>
        <time>2024-04-28T09:20:48Z</time>
      </trkpt>
      <trkpt lat="45.7138" lon="3.22103">
        <ele>335.6</ele>
        <time>2024-04-28T09:20:49Z</time>
      </trkpt>
      <trkpt lat="45.71386" lon="3.22104">
        <ele>335.8</ele>
        <time>2024-04-28T09:20:50Z</time>
      </trkpt>
      <trkpt lat="45.71393" lon="3.22106">
        <ele>335.8</ele>
        <time>2024-04-28T09:20:51Z</time>
      </trkpt>
      <trkpt lat="45.71399" lon="3.22107">
        <ele>335.8</ele>
        <time>2024-04-28T09:20:52Z</time>
      </trkpt>
      <trkpt lat="45.71406" lon="3.22109">
        <ele>335.8</ele>
        <time>2024-04-28T09:20:53Z</time>
      </trkpt>
      <trkpt lat="45.71413" lon="3.22113">
        <ele>335.8</ele>
        <time>2024-04-28T09:20:54Z</time>
      </trkpt>
      <trkpt lat="45.7142" lon="3.22115">
        <ele>336</ele>
        <time>2024-04-28T09:20:55Z</time>
      </trkpt>
      <trkpt lat="45.71427" lon="3.22118">
        <ele>336</ele>
        <time>2024-04-28T09:20:56Z</time>
      </trkpt>
      <trkpt lat="45.71434" lon="3.22121">
        <ele>336</ele>
        <time>2024-04-28T09:20:57Z</time>
      </trkpt>
      <trkpt lat="45.71441" lon="3.22123">
        <ele>336</ele>
        <time>2024-04-28T09:20:58Z</time>
      </trkpt>
      <trkpt lat="45.71448" lon="3.22126">
        <ele>336</ele>
        <time>2024-04-28T09:20:59Z</time>
      </trkpt>
      <trkpt lat="45.71455" lon="3.22129">
        <ele>336</ele>
        <time>2024-04-28T09:21:00Z</time>
      </trkpt>
      <trkpt lat="45.71462" lon="3.22131">
        <ele>336</ele>
        <time>2024-04-28T09:21:01Z</time>
      </trkpt>
      <trkpt lat="45.71469" lon="3.22134">
        <ele>336</ele>
        <time>2024-04-28T09:21:02Z</time>
      </trkpt>
      <trkpt lat="45.71476" lon="3.22137">
        <ele>336</ele>
        <time>2024-04-28T09:21:03Z</time>
      </trkpt>
      <trkpt lat="45.71483" lon="3.22139">
        <ele>336</ele>
        <time>2024-04-28T09:21:04Z</time>
      </trkpt>
      <trkpt lat="45.7149" lon="3.22142">
        <ele>336</ele>
        <time>2024-04-28T09:21:05Z</time>
      </trkpt>
      <trkpt lat="45.71497" lon="3.22145">
        <ele>336.2</ele>
        <time>2024-04-28T09:21:06Z</time>
      </trkpt>
      <trkpt lat="45.71504" lon="3.22147">
        <ele>336.2</ele>
        <time>2024-04-28T09:21:07Z</time>
      </trkpt>
      <trkpt lat="45.71511" lon="3.2215">
        <ele>336.2</ele>
        <time>2024-04-28T09:21:08Z</time>
      </trkpt>
      <trkpt lat="45.71518" lon="3.22153">
        <ele>336.2</ele>
        <time>2024-04-28T09:21:09Z</time>
      </trkpt>
      <trkpt lat="45.71525" lon="3.22155">
        <ele>336</ele>
        <time>2024-04-28T09:21:10Z</time>
      </trkpt>
      <trkpt lat="45.71532" lon="3.22158">
        <ele>336</ele>
        <time>2024-04-28T09:21:11Z</time>
      </trkpt>
      <trkpt lat="45.71539" lon="3.2216">
        <ele>336</ele>
        <time>2024-04-28T09:21:12Z</time>
      </trkpt>
      <trkpt lat="45.71546" lon="3.22163">
        <ele>336</ele>
        <time>2024-04-28T09:21:13Z</time>
      </trkpt>
      <trkpt lat="45.71553" lon="3.22166">
        <ele>336</ele>
        <time>2024-04-28T09:21:14Z</time>
      </trkpt>
      <trkpt lat="45.7156" lon="3.22168">
        <ele>336</ele>
        <time>2024-04-28T09:21:15Z</time>
      </trkpt>
      <trkpt lat="45.71567" lon="3.22171">
        <ele>336</ele>
        <time>2024-04-28T09:21:16Z</time>
      </trkpt>
      <trkpt lat="45.71574" lon="3.22173">
        <ele>336</ele>
        <time>2024-04-28T09:21:17Z</time>
      </trkpt>
      <trkpt lat="45.71581" lon="3.22176">
        <ele>336.4</ele>
        <time>2024-04-28T09:21:18Z</time>
      </trkpt>
      <trkpt lat="45.71588" lon="3.22179">
        <ele>336.2</ele>
        <time>2024-04-28T09:21:19Z</time>
      </trkpt>
      <trkpt lat="45.71594" lon="3.22181">
        <ele>336.2</ele>
        <time>2024-04-28T09:21:20Z</time>
      </trkpt>
      <trkpt lat="45.71601" lon="3.22184">
        <ele>336.2</ele>
        <time>2024-04-28T09:21:21Z</time>
      </trkpt>
      <trkpt lat="45.71608" lon="3.22186">
        <ele>336</ele>
        <time>2024-04-28T09:21:22Z</time>
      </trkpt>
      <trkpt lat="45.71615" lon="3.22189">
        <ele>336.2</ele>
        <time>2024-04-28T09:21:23Z</time>
      </trkpt>
      <trkpt lat="45.71622" lon="3.22192">
        <ele>336.2</ele>
        <time>2024-04-28T09:21:24Z</time>
      </trkpt>
      <trkpt lat="45.71629" lon="3.22195">
        <ele>336</ele>
        <time>2024-04-28T09:21:25Z</time>
      </trkpt>
      <trkpt lat="45.71636" lon="3.22198">
        <ele>336</ele>
        <time>2024-04-28T09:21:26Z</time>
      </trkpt>
      <trkpt lat="45.71643" lon="3.222">
        <ele>336</ele>
        <time>2024-04-28T09:21:27Z</time>
      </trkpt>
      <trkpt lat="45.71649" lon="3.22203">
        <ele>336</ele>
        <time>2024-04-28T09:21:28Z</time>
      </trkpt>
      <trkpt lat="45.71656" lon="3.22206">
        <ele>335.8</ele>
        <time>2024-04-28T09:21:29Z</time>
      </trkpt>
      <trkpt lat="45.71663" lon="3.22209">
        <ele>335.8</ele>
        <time>2024-04-28T09:21:30Z</time>
      </trkpt>
      <trkpt lat="45.7167" lon="3.22211">
        <ele>335.8</ele>
        <time>2024-04-28T09:21:31Z</time>
      </trkpt>
      <trkpt lat="45.71676" lon="3.22214">
        <ele>335.8</ele>
        <time>2024-04-28T09:21:32Z</time>
      </trkpt>
      <trkpt lat="45.71683" lon="3.22217">
        <ele>335.8</ele>
        <time>2024-04-28T09:21:33Z</time>
      </trkpt>
      <trkpt lat="45.7169" lon="3.2222">
        <ele>335.8</ele>
        <time>2024-04-28T09:21:34Z</time>
      </trkpt>
      <trkpt lat="45.71696" lon="3.22222">
        <ele>335.8</ele>
        <time>2024-04-28T09:21:35Z</time>
      </trkpt>
      <trkpt lat="45.71703" lon="3.22225">
        <ele>335.8</ele>
        <time>2024-04-28T09:21:36Z</time>
      </trkpt>
      <trkpt lat="45.71709" lon="3.22228">
        <ele>335.8</ele>
        <time>2024-04-28T09:21:37Z</time>
      </trkpt>
      <trkpt lat="45.71715" lon="3.2223">
        <ele>335.8</ele>
        <time>2024-04-28T09:21:38Z</time>
      </trkpt>
      <trkpt lat="45.71722" lon="3.22233">
        <ele>335.8</ele>
        <time>2024-04-28T09:21:39Z</time>
      </trkpt>
      <trkpt lat="45.71728" lon="3.22235">
        <ele>335.8</ele>
        <time>2024-04-28T09:21:40Z</time>
      </trkpt>
      <trkpt lat="45.71735" lon="3.22238">
        <ele>335.6</ele>
        <time>2024-04-28T09:21:41Z</time>
      </trkpt>
      <trkpt lat="45.71742" lon="3.22241">
        <ele>335.6</ele>
        <time>2024-04-28T09:21:42Z</time>
      </trkpt>
      <trkpt lat="45.71748" lon="3.22243">
        <ele>335.6</ele>
        <time>2024-04-28T09:21:43Z</time>
      </trkpt>
      <trkpt lat="45.71755" lon="3.22246">
        <ele>335.6</ele>
        <time>2024-04-28T09:21:44Z</time>
      </trkpt>
      <trkpt lat="45.71761" lon="3.22249">
        <ele>335.8</ele>
        <time>2024-04-28T09:21:45Z</time>
      </trkpt>
      <trkpt lat="45.71768" lon="3.22251">
        <ele>335.8</ele>
        <time>2024-04-28T09:21:46Z</time>
      </trkpt>
      <trkpt lat="45.71774" lon="3.22254">
        <ele>335.6</ele>
        <time>2024-04-28T09:21:47Z</time>
      </trkpt>
      <trkpt lat="45.71781" lon="3.22257">
        <ele>335.8</ele>
        <time>2024-04-28T09:21:48Z</time>
      </trkpt>
      <trkpt lat="45.71788" lon="3.2226">
        <ele>336</ele>
        <time>2024-04-28T09:21:49Z</time>
      </trkpt>
      <trkpt lat="45.71794" lon="3.22262">
        <ele>336.2</ele>
        <time>2024-04-28T09:21:50Z</time>
      </trkpt>
      <trkpt lat="45.71801" lon="3.22265">
        <ele>336.2</ele>
        <time>2024-04-28T09:21:51Z</time>
      </trkpt>
      <trkpt lat="45.71808" lon="3.22268">
        <ele>336</ele>
        <time>2024-04-28T09:21:52Z</time>
      </trkpt>
      <trkpt lat="45.71815" lon="3.22271">
        <ele>336</ele>
        <time>2024-04-28T09:21:53Z</time>
      </trkpt>
      <trkpt lat="45.71821" lon="3.22274">
        <ele>336</ele>
        <time>2024-04-28T09:21:54Z</time>
      </trkpt>
      <trkpt lat="45.71828" lon="3.22277">
        <ele>336.2</ele>
        <time>2024-04-28T09:21:55Z</time>
      </trkpt>
      <trkpt lat="45.71835" lon="3.22279">
        <ele>336.2</ele>
        <time>2024-04-28T09:21:56Z</time>
      </trkpt>
      <trkpt lat="45.71842" lon="3.22282">
        <ele>336.2</ele>
        <time>2024-04-28T09:21:57Z</time>
      </trkpt>
      <trkpt lat="45.71848" lon="3.22285">
        <ele>336.2</ele>
        <time>2024-04-28T09:21:58Z</time>
      </trkpt>
      <trkpt lat="45.71855" lon="3.22288">
        <ele>336.2</ele>
        <time>2024-04-28T09:21:59Z</time>
      </trkpt>
      <trkpt lat="45.71862" lon="3.22291">
        <ele>336.2</ele>
        <time>2024-04-28T09:22:00Z</time>
      </trkpt>
      <trkpt lat="45.71869" lon="3.22294">
        <ele>336.2</ele>
        <time>2024-04-28T09:22:01Z</time>
      </trkpt>
      <trkpt lat="45.71876" lon="3.22297">
        <ele>336.4</ele>
        <time>2024-04-28T09:22:02Z</time>
      </trkpt>
      <trkpt lat="45.71883" lon="3.223">
        <ele>336.4</ele>
        <time>2024-04-28T09:22:03Z</time>
      </trkpt>
      <trkpt lat="45.7189" lon="3.22303">
        <ele>336.4</ele>
        <time>2024-04-28T09:22:04Z</time>
      </trkpt>
      <trkpt lat="45.71897" lon="3.22306">
        <ele>336.4</ele>
        <time>2024-04-28T09:22:05Z</time>
      </trkpt>
      <trkpt lat="45.71904" lon="3.22309">
        <ele>336.4</ele>
        <time>2024-04-28T09:22:06Z</time>
      </trkpt>
      <trkpt lat="45.71911" lon="3.22312">
        <ele>336.4</ele>
        <time>2024-04-28T09:22:07Z</time>
      </trkpt>
      <trkpt lat="45.71918" lon="3.22315">
        <ele>336.4</ele>
        <time>2024-04-28T09:22:08Z</time>
      </trkpt>
      <trkpt lat="45.71926" lon="3.22318">
        <ele>336.4</ele>
        <time>2024-04-28T09:22:09Z</time>
      </trkpt>
      <trkpt lat="45.71933" lon="3.22321">
        <ele>336.4</ele>
        <time>2024-04-28T09:22:10Z</time>
      </trkpt>
      <trkpt lat="45.7194" lon="3.22325">
        <ele>336.4</ele>
        <time>2024-04-28T09:22:11Z</time>
      </trkpt>
      <trkpt lat="45.71947" lon="3.22328">
        <ele>336.4</ele>
        <time>2024-04-28T09:22:12Z</time>
      </trkpt>
      <trkpt lat="45.71954" lon="3.22331">
        <ele>336.4</ele>
        <time>2024-04-28T09:22:13Z</time>
      </trkpt>
      <trkpt lat="45.71961" lon="3.22334">
        <ele>336.4</ele>
        <time>2024-04-28T09:22:14Z</time>
      </trkpt>
      <trkpt lat="45.71968" lon="3.22337">
        <ele>336.4</ele>
        <time>2024-04-28T09:22:15Z</time>
      </trkpt>
      <trkpt lat="45.71976" lon="3.2234">
        <ele>336.6</ele>
        <time>2024-04-28T09:22:16Z</time>
      </trkpt>
      <trkpt lat="45.71983" lon="3.22343">
        <ele>336.4</ele>
        <time>2024-04-28T09:22:17Z</time>
      </trkpt>
      <trkpt lat="45.7199" lon="3.22346">
        <ele>336.6</ele>
        <time>2024-04-28T09:22:18Z</time>
      </trkpt>
      <trkpt lat="45.71998" lon="3.2235">
        <ele>336.6</ele>
        <time>2024-04-28T09:22:19Z</time>
      </trkpt>
      <trkpt lat="45.72005" lon="3.22353">
        <ele>336.6</ele>
        <time>2024-04-28T09:22:20Z</time>
      </trkpt>
      <trkpt lat="45.72013" lon="3.22356">
        <ele>336.6</ele>
        <time>2024-04-28T09:22:21Z</time>
      </trkpt>
      <trkpt lat="45.7202" lon="3.22359">
        <ele>336.6</ele>
        <time>2024-04-28T09:22:22Z</time>
      </trkpt>
      <trkpt lat="45.72027" lon="3.22362">
        <ele>336.6</ele>
        <time>2024-04-28T09:22:23Z</time>
      </trkpt>
      <trkpt lat="45.72034" lon="3.22365">
        <ele>336.6</ele>
        <time>2024-04-28T09:22:24Z</time>
      </trkpt>
      <trkpt lat="45.72042" lon="3.22368">
        <ele>336.6</ele>
        <time>2024-04-28T09:22:25Z</time>
      </trkpt>
      <trkpt lat="45.72049" lon="3.22372">
        <ele>336.6</ele>
        <time>2024-04-28T09:22:26Z</time>
      </trkpt>
      <trkpt lat="45.72056" lon="3.22375">
        <ele>336.6</ele>
        <time>2024-04-28T09:22:27Z</time>
      </trkpt>
      <trkpt lat="45.72063" lon="3.22378">
        <ele>336.6</ele>
        <time>2024-04-28T09:22:28Z</time>
      </trkpt>
      <trkpt lat="45.7207" lon="3.22381">
        <ele>336.6</ele>
        <time>2024-04-28T09:22:29Z</time>
      </trkpt>
      <trkpt lat="45.72077" lon="3.22384">
        <ele>336.6</ele>
        <time>2024-04-28T09:22:30Z</time>
      </trkpt>
      <trkpt lat="45.72084" lon="3.22387">
        <ele>336.6</ele>
        <time>2024-04-28T09:22:31Z</time>
      </trkpt>
      <trkpt lat="45.72091" lon="3.2239">
        <ele>336.6</ele>
        <time>2024-04-28T09:22:32Z</time>
      </trkpt>
      <trkpt lat="45.72098" lon="3.22393">
        <ele>336.6</ele>
        <time>2024-04-28T09:22:33Z</time>
      </trkpt>
      <trkpt lat="45.72105" lon="3.22396">
        <ele>336.6</ele>
        <time>2024-04-28T09:22:34Z</time>
      </trkpt>
      <trkpt lat="45.72113" lon="3.22399">
        <ele>336.6</ele>
        <time>2024-04-28T09:22:35Z</time>
      </trkpt>
      <trkpt lat="45.7212" lon="3.22402">
        <ele>336.6</ele>
        <time>2024-04-28T09:22:36Z</time>
      </trkpt>
      <trkpt lat="45.72127" lon="3.22405">
        <ele>336.6</ele>
        <time>2024-04-28T09:22:37Z</time>
      </trkpt>
      <trkpt lat="45.72134" lon="3.22407">
        <ele>336.6</ele>
        <time>2024-04-28T09:22:38Z</time>
      </trkpt>
      <trkpt lat="45.72141" lon="3.2241">
        <ele>336.6</ele>
        <time>2024-04-28T09:22:39Z</time>
      </trkpt>
      <trkpt lat="45.72148" lon="3.22413">
        <ele>336.6</ele>
        <time>2024-04-28T09:22:40Z</time>
      </trkpt>
      <trkpt lat="45.72155" lon="3.22416">
        <ele>336.8</ele>
        <time>2024-04-28T09:22:41Z</time>
      </trkpt>
      <trkpt lat="45.72162" lon="3.22419">
        <ele>336.8</ele>
        <time>2024-04-28T09:22:42Z</time>
      </trkpt>
      <trkpt lat="45.72169" lon="3.22422">
        <ele>336.8</ele>
        <time>2024-04-28T09:22:43Z</time>
      </trkpt>
      <trkpt lat="45.72176" lon="3.22424">
        <ele>336.8</ele>
        <time>2024-04-28T09:22:44Z</time>
      </trkpt>
      <trkpt lat="45.72183" lon="3.22427">
        <ele>336.8</ele>
        <time>2024-04-28T09:22:45Z</time>
      </trkpt>
      <trkpt lat="45.7219" lon="3.2243">
        <ele>336.8</ele>
        <time>2024-04-28T09:22:46Z</time>
      </trkpt>
      <trkpt lat="45.72197" lon="3.22433">
        <ele>336.8</ele>
        <time>2024-04-28T09:22:47Z</time>
      </trkpt>
      <trkpt lat="45.72204" lon="3.22436">
        <ele>336.8</ele>
        <time>2024-04-28T09:22:48Z</time>
      </trkpt>
      <trkpt lat="45.72212" lon="3.22439">
        <ele>336.8</ele>
        <time>2024-04-28T09:22:49Z</time>
      </trkpt>
      <trkpt lat="45.72219" lon="3.22442">
        <ele>336.8</ele>
        <time>2024-04-28T09:22:50Z</time>
      </trkpt>
      <trkpt lat="45.72226" lon="3.22445">
        <ele>336.8</ele>
        <time>2024-04-28T09:22:51Z</time>
      </trkpt>
      <trkpt lat="45.72234" lon="3.22448">
        <ele>336.8</ele>
        <time>2024-04-28T09:22:52Z</time>
      </trkpt>
      <trkpt lat="45.72241" lon="3.22451">
        <ele>336.8</ele>
        <time>2024-04-28T09:22:53Z</time>
      </trkpt>
      <trkpt lat="45.72248" lon="3.22454">
        <ele>336.8</ele>
        <time>2024-04-28T09:22:54Z</time>
      </trkpt>
      <trkpt lat="45.72256" lon="3.22455">
        <ele>336.8</ele>
        <time>2024-04-28T09:22:55Z</time>
      </trkpt>
      <trkpt lat="45.72264" lon="3.22457">
        <ele>336.8</ele>
        <time>2024-04-28T09:22:56Z</time>
      </trkpt>
      <trkpt lat="45.72271" lon="3.22459">
        <ele>336.8</ele>
        <time>2024-04-28T09:22:57Z</time>
      </trkpt>
      <trkpt lat="45.72279" lon="3.22461">
        <ele>336.8</ele>
        <time>2024-04-28T09:22:58Z</time>
      </trkpt>
      <trkpt lat="45.72287" lon="3.22462">
        <ele>336.8</ele>
        <time>2024-04-28T09:22:59Z</time>
      </trkpt>
      <trkpt lat="45.72295" lon="3.22464">
        <ele>336.8</ele>
        <time>2024-04-28T09:23:00Z</time>
      </trkpt>
      <trkpt lat="45.72302" lon="3.22466">
        <ele>336.8</ele>
        <time>2024-04-28T09:23:01Z</time>
      </trkpt>
      <trkpt lat="45.7231" lon="3.22468">
        <ele>336.8</ele>
        <time>2024-04-28T09:23:02Z</time>
      </trkpt>
      <trkpt lat="45.72318" lon="3.22469">
        <ele>336.8</ele>
        <time>2024-04-28T09:23:03Z</time>
      </trkpt>
      <trkpt lat="45.72325" lon="3.22471">
        <ele>337</ele>
        <time>2024-04-28T09:23:04Z</time>
      </trkpt>
      <trkpt lat="45.72333" lon="3.22473">
        <ele>336.8</ele>
        <time>2024-04-28T09:23:05Z</time>
      </trkpt>
      <trkpt lat="45.72341" lon="3.22475">
        <ele>336.8</ele>
        <time>2024-04-28T09:23:06Z</time>
      </trkpt>
      <trkpt lat="45.72349" lon="3.22476">
        <ele>336.8</ele>
        <time>2024-04-28T09:23:07Z</time>
      </trkpt>
      <trkpt lat="45.72356" lon="3.22478">
        <ele>337</ele>
        <time>2024-04-28T09:23:08Z</time>
      </trkpt>
      <trkpt lat="45.72364" lon="3.2248">
        <ele>337</ele>
        <time>2024-04-28T09:23:09Z</time>
      </trkpt>
      <trkpt lat="45.72372" lon="3.22481">
        <ele>336.8</ele>
        <time>2024-04-28T09:23:10Z</time>
      </trkpt>
      <trkpt lat="45.72379" lon="3.22482">
        <ele>336.8</ele>
        <time>2024-04-28T09:23:11Z</time>
      </trkpt>
      <trkpt lat="45.72387" lon="3.22484">
        <ele>336.8</ele>
        <time>2024-04-28T09:23:12Z</time>
      </trkpt>
      <trkpt lat="45.72394" lon="3.22485">
        <ele>337</ele>
        <time>2024-04-28T09:23:13Z</time>
      </trkpt>
      <trkpt lat="45.72402" lon="3.22486">
        <ele>337</ele>
        <time>2024-04-28T09:23:14Z</time>
      </trkpt>
      <trkpt lat="45.72409" lon="3.22488">
        <ele>336.8</ele>
        <time>2024-04-28T09:23:15Z</time>
      </trkpt>
      <trkpt lat="45.72417" lon="3.22489">
        <ele>337</ele>
        <time>2024-04-28T09:23:16Z</time>
      </trkpt>
      <trkpt lat="45.72424" lon="3.22491">
        <ele>336.8</ele>
        <time>2024-04-28T09:23:17Z</time>
      </trkpt>
      <trkpt lat="45.72432" lon="3.22492">
        <ele>336.8</ele>
        <time>2024-04-28T09:23:18Z</time>
      </trkpt>
      <trkpt lat="45.7244" lon="3.22493">
        <ele>336.8</ele>
        <time>2024-04-28T09:23:19Z</time>
      </trkpt>
      <trkpt lat="45.72447" lon="3.22495">
        <ele>336.8</ele>
        <time>2024-04-28T09:23:20Z</time>
      </trkpt>
      <trkpt lat="45.72455" lon="3.22496">
        <ele>336.8</ele>
        <time>2024-04-28T09:23:21Z</time>
      </trkpt>
      <trkpt lat="45.72463" lon="3.22498">
        <ele>336.6</ele>
        <time>2024-04-28T09:23:22Z</time>
      </trkpt>
      <trkpt lat="45.72471" lon="3.22499">
        <ele>336.6</ele>
        <time>2024-04-28T09:23:23Z</time>
      </trkpt>
      <trkpt lat="45.72479" lon="3.225">
        <ele>336.6</ele>
        <time>2024-04-28T09:23:24Z</time>
      </trkpt>
      <trkpt lat="45.72487" lon="3.22502">
        <ele>336.6</ele>
        <time>2024-04-28T09:23:25Z</time>
      </trkpt>
      <trkpt lat="45.72495" lon="3.22503">
        <ele>336.6</ele>
        <time>2024-04-28T09:23:26Z</time>
      </trkpt>
      <trkpt lat="45.72504" lon="3.22505">
        <ele>336.4</ele>
        <time>2024-04-28T09:23:27Z</time>
      </trkpt>
      <trkpt lat="45.72512" lon="3.22507">
        <ele>336.4</ele>
        <time>2024-04-28T09:23:28Z</time>
      </trkpt>
      <trkpt lat="45.72521" lon="3.22509">
        <ele>336.4</ele>
        <time>2024-04-28T09:23:29Z</time>
      </trkpt>
      <trkpt lat="45.7253" lon="3.2251">
        <ele>336.4</ele>
        <time>2024-04-28T09:23:30Z</time>
      </trkpt>
      <trkpt lat="45.72539" lon="3.22512">
        <ele>336.2</ele>
        <time>2024-04-28T09:23:31Z</time>
      </trkpt>
      <trkpt lat="45.72548" lon="3.22514">
        <ele>336.2</ele>
        <time>2024-04-28T09:23:32Z</time>
      </trkpt>
      <trkpt lat="45.72558" lon="3.22516">
        <ele>336.2</ele>
        <time>2024-04-28T09:23:33Z</time>
      </trkpt>
      <trkpt lat="45.72568" lon="3.22518">
        <ele>336</ele>
        <time>2024-04-28T09:23:34Z</time>
      </trkpt>
      <trkpt lat="45.72578" lon="3.22522">
        <ele>336</ele>
        <time>2024-04-28T09:23:35Z</time>
      </trkpt>
      <trkpt lat="45.72587" lon="3.22527">
        <ele>335.8</ele>
        <time>2024-04-28T09:23:36Z</time>
      </trkpt>
      <trkpt lat="45.72597" lon="3.22533">
        <ele>335.8</ele>
        <time>2024-04-28T09:23:37Z</time>
      </trkpt>
      <trkpt lat="45.72607" lon="3.22539">
        <ele>335.6</ele>
        <time>2024-04-28T09:23:38Z</time>
      </trkpt>
      <trkpt lat="45.72617" lon="3.22545">
        <ele>335.6</ele>
        <time>2024-04-28T09:23:39Z</time>
      </trkpt>
      <trkpt lat="45.72627" lon="3.2255">
        <ele>335.4</ele>
        <time>2024-04-28T09:23:40Z</time>
      </trkpt>
      <trkpt lat="45.72637" lon="3.22558">
        <ele>335.2</ele>
        <time>2024-04-28T09:23:41Z</time>
      </trkpt>
      <trkpt lat="45.72647" lon="3.22566">
        <ele>335</ele>
        <time>2024-04-28T09:23:42Z</time>
      </trkpt>
      <trkpt lat="45.72657" lon="3.22574">
        <ele>334.6</ele>
        <time>2024-04-28T09:23:43Z</time>
      </trkpt>
      <trkpt lat="45.72667" lon="3.22582">
        <ele>334.4</ele>
        <time>2024-04-28T09:23:44Z</time>
      </trkpt>
      <trkpt lat="45.72677" lon="3.2259">
        <ele>334.2</ele>
        <time>2024-04-28T09:23:45Z</time>
      </trkpt>
      <trkpt lat="45.72686" lon="3.22598">
        <ele>334</ele>
        <time>2024-04-28T09:23:46Z</time>
      </trkpt>
      <trkpt lat="45.72696" lon="3.22606">
        <ele>333.8</ele>
        <time>2024-04-28T09:23:47Z</time>
      </trkpt>
      <trkpt lat="45.72706" lon="3.22614">
        <ele>333.6</ele>
        <time>2024-04-28T09:23:48Z</time>
      </trkpt>
      <trkpt lat="45.72715" lon="3.22622">
        <ele>333.4</ele>
        <time>2024-04-28T09:23:49Z</time>
      </trkpt>
      <trkpt lat="45.72724" lon="3.2263">
        <ele>333.2</ele>
        <time>2024-04-28T09:23:50Z</time>
      </trkpt>
      <trkpt lat="45.72733" lon="3.22637">
        <ele>333.2</ele>
        <time>2024-04-28T09:23:51Z</time>
      </trkpt>
      <trkpt lat="45.72742" lon="3.22645">
        <ele>333</ele>
        <time>2024-04-28T09:23:52Z</time>
      </trkpt>
      <trkpt lat="45.72751" lon="3.22652">
        <ele>332.8</ele>
        <time>2024-04-28T09:23:53Z</time>
      </trkpt>
      <trkpt lat="45.72759" lon="3.22659">
        <ele>332.8</ele>
        <time>2024-04-28T09:23:54Z</time>
      </trkpt>
      <trkpt lat="45.72768" lon="3.22666">
        <ele>332.6</ele>
        <time>2024-04-28T09:23:55Z</time>
      </trkpt>
      <trkpt lat="45.72776" lon="3.22673">
        <ele>332.4</ele>
        <time>2024-04-28T09:23:56Z</time>
      </trkpt>
      <trkpt lat="45.72784" lon="3.2268">
        <ele>332.4</ele>
        <time>2024-04-28T09:23:57Z</time>
      </trkpt>
      <trkpt lat="45.72792" lon="3.22686">
        <ele>332.2</ele>
        <time>2024-04-28T09:23:58Z</time>
      </trkpt>
      <trkpt lat="45.72801" lon="3.22693">
        <ele>332</ele>
        <time>2024-04-28T09:23:59Z</time>
      </trkpt>
      <trkpt lat="45.72809" lon="3.227">
        <ele>331.8</ele>
        <time>2024-04-28T09:24:00Z</time>
      </trkpt>
      <trkpt lat="45.72817" lon="3.22706">
        <ele>331.8</ele>
        <time>2024-04-28T09:24:01Z</time>
      </trkpt>
      <trkpt lat="45.72825" lon="3.22713">
        <ele>331.6</ele>
        <time>2024-04-28T09:24:02Z</time>
      </trkpt>
      <trkpt lat="45.72833" lon="3.22719">
        <ele>331.4</ele>
        <time>2024-04-28T09:24:03Z</time>
      </trkpt>
      <trkpt lat="45.72841" lon="3.22724">
        <ele>331.4</ele>
        <time>2024-04-28T09:24:04Z</time>
      </trkpt>
      <trkpt lat="45.72849" lon="3.22729">
        <ele>331.2</ele>
        <time>2024-04-28T09:24:05Z</time>
      </trkpt>
      <trkpt lat="45.72857" lon="3.22734">
        <ele>331</ele>
        <time>2024-04-28T09:24:06Z</time>
      </trkpt>
      <trkpt lat="45.72865" lon="3.22739">
        <ele>331</ele>
        <time>2024-04-28T09:24:07Z</time>
      </trkpt>
      <trkpt lat="45.72874" lon="3.22744">
        <ele>330.8</ele>
        <time>2024-04-28T09:24:08Z</time>
      </trkpt>
      <trkpt lat="45.72882" lon="3.22749">
        <ele>330.6</ele>
        <time>2024-04-28T09:24:09Z</time>
      </trkpt>
      <trkpt lat="45.7289" lon="3.22754">
        <ele>330.6</ele>
        <time>2024-04-28T09:24:10Z</time>
      </trkpt>
      <trkpt lat="45.72899" lon="3.22759">
        <ele>330.6</ele>
        <time>2024-04-28T09:24:11Z</time>
      </trkpt>
      <trkpt lat="45.72907" lon="3.22765">
        <ele>330.4</ele>
        <time>2024-04-28T09:24:12Z</time>
      </trkpt>
      <trkpt lat="45.72915" lon="3.2277">
        <ele>330.2</ele>
        <time>2024-04-28T09:24:13Z</time>
      </trkpt>
      <trkpt lat="45.72923" lon="3.22774">
        <ele>330</ele>
        <time>2024-04-28T09:24:14Z</time>
      </trkpt>
      <trkpt lat="45.72931" lon="3.22779">
        <ele>330</ele>
        <time>2024-04-28T09:24:15Z</time>
      </trkpt>
      <trkpt lat="45.72939" lon="3.22784">
        <ele>329.8</ele>
        <time>2024-04-28T09:24:16Z</time>
      </trkpt>
      <trkpt lat="45.72946" lon="3.22788">
        <ele>329.6</ele>
        <time>2024-04-28T09:24:17Z</time>
      </trkpt>
      <trkpt lat="45.72953" lon="3.22792">
        <ele>329.6</ele>
        <time>2024-04-28T09:24:18Z</time>
      </trkpt>
      <trkpt lat="45.7296" lon="3.22796">
        <ele>329.4</ele>
        <time>2024-04-28T09:24:19Z</time>
      </trkpt>
      <trkpt lat="45.72966" lon="3.228">
        <ele>329.4</ele>
        <time>2024-04-28T09:24:20Z</time>
      </trkpt>
      <trkpt lat="45.72973" lon="3.22804">
        <ele>329.2</ele>
        <time>2024-04-28T09:24:21Z</time>
      </trkpt>
      <trkpt lat="45.72978" lon="3.22809">
        <ele>329.2</ele>
        <time>2024-04-28T09:24:22Z</time>
      </trkpt>
      <trkpt lat="45.72985" lon="3.22818">
        <ele>329.2</ele>
        <time>2024-04-28T09:24:23Z</time>
      </trkpt>
      <trkpt lat="45.72991" lon="3.2282">
        <ele>329</ele>
        <time>2024-04-28T09:24:24Z</time>
      </trkpt>
      <trkpt lat="45.72997" lon="3.22821">
        <ele>329</ele>
        <time>2024-04-28T09:24:25Z</time>
      </trkpt>
      <trkpt lat="45.73006" lon="3.22819">
        <ele>329</ele>
        <time>2024-04-28T09:24:26Z</time>
      </trkpt>
      <trkpt lat="45.73011" lon="3.22816">
        <ele>328.8</ele>
        <time>2024-04-28T09:24:27Z</time>
      </trkpt>
      <trkpt lat="45.73016" lon="3.22804">
        <ele>328.8</ele>
        <time>2024-04-28T09:24:28Z</time>
      </trkpt>
      <trkpt lat="45.73019" lon="3.22795">
        <ele>328.6</ele>
        <time>2024-04-28T09:24:29Z</time>
      </trkpt>
      <trkpt lat="45.73018" lon="3.22782">
        <ele>328.6</ele>
        <time>2024-04-28T09:24:30Z</time>
      </trkpt>
      <trkpt lat="45.73016" lon="3.22773">
        <ele>328.4</ele>
        <time>2024-04-28T09:24:31Z</time>
      </trkpt>
      <trkpt lat="45.73009" lon="3.22767">
        <ele>328.4</ele>
        <time>2024-04-28T09:24:32Z</time>
      </trkpt>
      <trkpt lat="45.73003" lon="3.22763">
        <ele>328.4</ele>
        <time>2024-04-28T09:24:33Z</time>
      </trkpt>
      <trkpt lat="45.72996" lon="3.22756">
        <ele>328.4</ele>
        <time>2024-04-28T09:24:34Z</time>
      </trkpt>
      <trkpt lat="45.72991" lon="3.22749">
        <ele>328.4</ele>
        <time>2024-04-28T09:24:35Z</time>
      </trkpt>
      <trkpt lat="45.72986" lon="3.22741">
        <ele>328.4</ele>
        <time>2024-04-28T09:24:36Z</time>
      </trkpt>
      <trkpt lat="45.72981" lon="3.22731">
        <ele>328.4</ele>
        <time>2024-04-28T09:24:37Z</time>
      </trkpt>
      <trkpt lat="45.7298" lon="3.22721">
        <ele>328.4</ele>
        <time>2024-04-28T09:24:38Z</time>
      </trkpt>
      <trkpt lat="45.72979" lon="3.2271">
        <ele>328.4</ele>
        <time>2024-04-28T09:24:39Z</time>
      </trkpt>
      <trkpt lat="45.72978" lon="3.227">
        <ele>328.4</ele>
        <time>2024-04-28T09:24:40Z</time>
      </trkpt>
      <trkpt lat="45.72977" lon="3.22689">
        <ele>328.4</ele>
        <time>2024-04-28T09:24:41Z</time>
      </trkpt>
      <trkpt lat="45.72976" lon="3.22679">
        <ele>328.2</ele>
        <time>2024-04-28T09:24:42Z</time>
      </trkpt>
      <trkpt lat="45.72974" lon="3.22668">
        <ele>328.2</ele>
        <time>2024-04-28T09:24:43Z</time>
      </trkpt>
      <trkpt lat="45.72973" lon="3.22658">
        <ele>328.2</ele>
        <time>2024-04-28T09:24:44Z</time>
      </trkpt>
      <trkpt lat="45.72972" lon="3.22647">
        <ele>328</ele>
        <time>2024-04-28T09:24:45Z</time>
      </trkpt>
      <trkpt lat="45.72971" lon="3.22637">
        <ele>328</ele>
        <time>2024-04-28T09:24:46Z</time>
      </trkpt>
      <trkpt lat="45.72969" lon="3.22627">
        <ele>328</ele>
        <time>2024-04-28T09:24:47Z</time>
      </trkpt>
      <trkpt lat="45.72968" lon="3.22617">
        <ele>328</ele>
        <time>2024-04-28T09:24:48Z</time>
      </trkpt>
      <trkpt lat="45.72967" lon="3.22607">
        <ele>328</ele>
        <time>2024-04-28T09:24:49Z</time>
      </trkpt>
      <trkpt lat="45.72966" lon="3.22597">
        <ele>327.8</ele>
        <time>2024-04-28T09:24:50Z</time>
      </trkpt>
      <trkpt lat="45.72965" lon="3.22586">
        <ele>327.8</ele>
        <time>2024-04-28T09:24:51Z</time>
      </trkpt>
      <trkpt lat="45.72964" lon="3.22576">
        <ele>327.8</ele>
        <time>2024-04-28T09:24:52Z</time>
      </trkpt>
      <trkpt lat="45.72962" lon="3.22566">
        <ele>327.8</ele>
        <time>2024-04-28T09:24:53Z</time>
      </trkpt>
      <trkpt lat="45.72961" lon="3.22556">
        <ele>327.8</ele>
        <time>2024-04-28T09:24:54Z</time>
      </trkpt>
      <trkpt lat="45.7296" lon="3.22546">
        <ele>327.8</ele>
        <time>2024-04-28T09:24:55Z</time>
      </trkpt>
      <trkpt lat="45.72959" lon="3.22536">
        <ele>327.8</ele>
        <time>2024-04-28T09:24:56Z</time>
      </trkpt>
      <trkpt lat="45.72958" lon="3.22526">
        <ele>327.8</ele>
        <time>2024-04-28T09:24:57Z</time>
      </trkpt>
      <trkpt lat="45.72956" lon="3.22515">
        <ele>327.8</ele>
        <time>2024-04-28T09:24:58Z</time>
      </trkpt>
      <trkpt lat="45.72955" lon="3.22505">
        <ele>327.8</ele>
        <time>2024-04-28T09:24:59Z</time>
      </trkpt>
      <trkpt lat="45.72954" lon="3.22494">
        <ele>327.6</ele>
        <time>2024-04-28T09:25:00Z</time>
      </trkpt>
      <trkpt lat="45.72953" lon="3.22484">
        <ele>327.6</ele>
        <time>2024-04-28T09:25:01Z</time>
      </trkpt>
      <trkpt lat="45.72951" lon="3.22474">
        <ele>327.6</ele>
        <time>2024-04-28T09:25:02Z</time>
      </trkpt>
      <trkpt lat="45.7295" lon="3.22463">
        <ele>327.6</ele>
        <time>2024-04-28T09:25:03Z</time>
      </trkpt>
      <trkpt lat="45.72949" lon="3.22453">
        <ele>327.6</ele>
        <time>2024-04-28T09:25:04Z</time>
      </trkpt>
      <trkpt lat="45.72948" lon="3.22443">
        <ele>327.6</ele>
        <time>2024-04-28T09:25:05Z</time>
      </trkpt>
      <trkpt lat="45.72946" lon="3.22432">
        <ele>327.6</ele>
        <time>2024-04-28T09:25:06Z</time>
      </trkpt>
      <trkpt lat="45.72945" lon="3.22422">
        <ele>327.6</ele>
        <time>2024-04-28T09:25:07Z</time>
      </trkpt>
      <trkpt lat="45.72944" lon="3.22412">
        <ele>327.6</ele>
        <time>2024-04-28T09:25:08Z</time>
      </trkpt>
      <trkpt lat="45.72943" lon="3.22401">
        <ele>327.6</ele>
        <time>2024-04-28T09:25:09Z</time>
      </trkpt>
      <trkpt lat="45.72942" lon="3.22391">
        <ele>327.6</ele>
        <time>2024-04-28T09:25:10Z</time>
      </trkpt>
      <trkpt lat="45.7294" lon="3.22381">
        <ele>327.6</ele>
        <time>2024-04-28T09:25:11Z</time>
      </trkpt>
      <trkpt lat="45.72939" lon="3.22371">
        <ele>327.6</ele>
        <time>2024-04-28T09:25:12Z</time>
      </trkpt>
      <trkpt lat="45.72938" lon="3.22361">
        <ele>327.4</ele>
        <time>2024-04-28T09:25:13Z</time>
      </trkpt>
      <trkpt lat="45.72937" lon="3.22351">
        <ele>327.4</ele>
        <time>2024-04-28T09:25:14Z</time>
      </trkpt>
      <trkpt lat="45.72936" lon="3.22341">
        <ele>327.4</ele>
        <time>2024-04-28T09:25:15Z</time>
      </trkpt>
      <trkpt lat="45.72935" lon="3.22331">
        <ele>327.4</ele>
        <time>2024-04-28T09:25:16Z</time>
      </trkpt>
      <trkpt lat="45.72934" lon="3.2232">
        <ele>327.4</ele>
        <time>2024-04-28T09:25:17Z</time>
      </trkpt>
      <trkpt lat="45.72932" lon="3.2231">
        <ele>327.4</ele>
        <time>2024-04-28T09:25:18Z</time>
      </trkpt>
      <trkpt lat="45.72931" lon="3.223">
        <ele>327.4</ele>
        <time>2024-04-28T09:25:19Z</time>
      </trkpt>
      <trkpt lat="45.7293" lon="3.2229">
        <ele>327.4</ele>
        <time>2024-04-28T09:25:20Z</time>
      </trkpt>
      <trkpt lat="45.72929" lon="3.2228">
        <ele>327.4</ele>
        <time>2024-04-28T09:25:21Z</time>
      </trkpt>
      <trkpt lat="45.72928" lon="3.2227">
        <ele>327.4</ele>
        <time>2024-04-28T09:25:22Z</time>
      </trkpt>
      <trkpt lat="45.72927" lon="3.2226">
        <ele>327.2</ele>
        <time>2024-04-28T09:25:23Z</time>
      </trkpt>
      <trkpt lat="45.72926" lon="3.2225">
        <ele>327.2</ele>
        <time>2024-04-28T09:25:24Z</time>
      </trkpt>
      <trkpt lat="45.72925" lon="3.2224">
        <ele>327.2</ele>
        <time>2024-04-28T09:25:25Z</time>
      </trkpt>
      <trkpt lat="45.72924" lon="3.2223">
        <ele>327.2</ele>
        <time>2024-04-28T09:25:26Z</time>
      </trkpt>
      <trkpt lat="45.72923" lon="3.22219">
        <ele>327</ele>
        <time>2024-04-28T09:25:27Z</time>
      </trkpt>
      <trkpt lat="45.72921" lon="3.22209">
        <ele>327</ele>
        <time>2024-04-28T09:25:28Z</time>
      </trkpt>
      <trkpt lat="45.7292" lon="3.22199">
        <ele>327</ele>
        <time>2024-04-28T09:25:29Z</time>
      </trkpt>
      <trkpt lat="45.72919" lon="3.22189">
        <ele>327</ele>
        <time>2024-04-28T09:25:30Z</time>
      </trkpt>
      <trkpt lat="45.72918" lon="3.22179">
        <ele>327</ele>
        <time>2024-04-28T09:25:31Z</time>
      </trkpt>
      <trkpt lat="45.72917" lon="3.22168">
        <ele>327</ele>
        <time>2024-04-28T09:25:32Z</time>
      </trkpt>
      <trkpt lat="45.72916" lon="3.22158">
        <ele>327</ele>
        <time>2024-04-28T09:25:33Z</time>
      </trkpt>
      <trkpt lat="45.72915" lon="3.22148">
        <ele>327</ele>
        <time>2024-04-28T09:25:34Z</time>
      </trkpt>
      <trkpt lat="45.72913" lon="3.22139">
        <ele>327</ele>
        <time>2024-04-28T09:25:35Z</time>
      </trkpt>
      <trkpt lat="45.72912" lon="3.22129">
        <ele>327</ele>
        <time>2024-04-28T09:25:36Z</time>
      </trkpt>
      <trkpt lat="45.72911" lon="3.22119">
        <ele>327</ele>
        <time>2024-04-28T09:25:37Z</time>
      </trkpt>
      <trkpt lat="45.7291" lon="3.22109">
        <ele>326.8</ele>
        <time>2024-04-28T09:25:38Z</time>
      </trkpt>
      <trkpt lat="45.72909" lon="3.22099">
        <ele>326.8</ele>
        <time>2024-04-28T09:25:39Z</time>
      </trkpt>
      <trkpt lat="45.72908" lon="3.22089">
        <ele>326.8</ele>
        <time>2024-04-28T09:25:40Z</time>
      </trkpt>
      <trkpt lat="45.72906" lon="3.22079">
        <ele>326.8</ele>
        <time>2024-04-28T09:25:41Z</time>
      </trkpt>
      <trkpt lat="45.72905" lon="3.22069">
        <ele>326.8</ele>
        <time>2024-04-28T09:25:42Z</time>
      </trkpt>
      <trkpt lat="45.72904" lon="3.22058">
        <ele>326.8</ele>
        <time>2024-04-28T09:25:43Z</time>
      </trkpt>
      <trkpt lat="45.72903" lon="3.22048">
        <ele>326.8</ele>
        <time>2024-04-28T09:25:44Z</time>
      </trkpt>
      <trkpt lat="45.72902" lon="3.22037">
        <ele>326.8</ele>
        <time>2024-04-28T09:25:45Z</time>
      </trkpt>
      <trkpt lat="45.729" lon="3.22027">
        <ele>326.6</ele>
        <time>2024-04-28T09:25:46Z</time>
      </trkpt>
      <trkpt lat="45.72899" lon="3.22017">
        <ele>326.6</ele>
        <time>2024-04-28T09:25:47Z</time>
      </trkpt>
      <trkpt lat="45.72898" lon="3.22006">
        <ele>326.6</ele>
        <time>2024-04-28T09:25:48Z</time>
      </trkpt>
      <trkpt lat="45.72897" lon="3.21996">
        <ele>326.6</ele>
        <time>2024-04-28T09:25:49Z</time>
      </trkpt>
      <trkpt lat="45.72896" lon="3.21985">
        <ele>326.6</ele>
        <time>2024-04-28T09:25:50Z</time>
      </trkpt>
      <trkpt lat="45.72894" lon="3.21975">
        <ele>326.6</ele>
        <time>2024-04-28T09:25:51Z</time>
      </trkpt>
      <trkpt lat="45.72893" lon="3.21964">
        <ele>326.6</ele>
        <time>2024-04-28T09:25:52Z</time>
      </trkpt>
      <trkpt lat="45.72892" lon="3.21954">
        <ele>326.6</ele>
        <time>2024-04-28T09:25:53Z</time>
      </trkpt>
      <trkpt lat="45.72891" lon="3.21944">
        <ele>326.6</ele>
        <time>2024-04-28T09:25:54Z</time>
      </trkpt>
      <trkpt lat="45.7289" lon="3.21934">
        <ele>326.6</ele>
        <time>2024-04-28T09:25:55Z</time>
      </trkpt>
      <trkpt lat="45.72888" lon="3.21923">
        <ele>326.6</ele>
        <time>2024-04-28T09:25:56Z</time>
      </trkpt>
      <trkpt lat="45.72887" lon="3.21913">
        <ele>326.6</ele>
        <time>2024-04-28T09:25:57Z</time>
      </trkpt>
      <trkpt lat="45.72886" lon="3.21902">
        <ele>326.6</ele>
        <time>2024-04-28T09:25:58Z</time>
      </trkpt>
      <trkpt lat="45.72885" lon="3.21892">
        <ele>326.6</ele>
        <time>2024-04-28T09:25:59Z</time>
      </trkpt>
      <trkpt lat="45.72883" lon="3.21882">
        <ele>326.6</ele>
        <time>2024-04-28T09:26:00Z</time>
      </trkpt>
      <trkpt lat="45.72882" lon="3.21872">
        <ele>326.6</ele>
        <time>2024-04-28T09:26:01Z</time>
      </trkpt>
      <trkpt lat="45.72881" lon="3.21862">
        <ele>326.4</ele>
        <time>2024-04-28T09:26:02Z</time>
      </trkpt>
      <trkpt lat="45.7288" lon="3.21851">
        <ele>326.4</ele>
        <time>2024-04-28T09:26:03Z</time>
      </trkpt>
      <trkpt lat="45.72879" lon="3.21841">
        <ele>326.4</ele>
        <time>2024-04-28T09:26:04Z</time>
      </trkpt>
      <trkpt lat="45.72878" lon="3.21831">
        <ele>326.4</ele>
        <time>2024-04-28T09:26:05Z</time>
      </trkpt>
      <trkpt lat="45.72877" lon="3.2182">
        <ele>326.4</ele>
        <time>2024-04-28T09:26:06Z</time>
      </trkpt>
      <trkpt lat="45.72875" lon="3.2181">
        <ele>326.4</ele>
        <time>2024-04-28T09:26:07Z</time>
      </trkpt>
      <trkpt lat="45.72874" lon="3.218">
        <ele>326.4</ele>
        <time>2024-04-28T09:26:08Z</time>
      </trkpt>
      <trkpt lat="45.72873" lon="3.21789">
        <ele>326.2</ele>
        <time>2024-04-28T09:26:09Z</time>
      </trkpt>
      <trkpt lat="45.72872" lon="3.21779">
        <ele>326.2</ele>
        <time>2024-04-28T09:26:10Z</time>
      </trkpt>
      <trkpt lat="45.72871" lon="3.21769">
        <ele>326.2</ele>
        <time>2024-04-28T09:26:11Z</time>
      </trkpt>
      <trkpt lat="45.7287" lon="3.21758">
        <ele>326.2</ele>
        <time>2024-04-28T09:26:12Z</time>
      </trkpt>
      <trkpt lat="45.72869" lon="3.21747">
        <ele>326.2</ele>
        <time>2024-04-28T09:26:13Z</time>
      </trkpt>
      <trkpt lat="45.72867" lon="3.21737">
        <ele>326.2</ele>
        <time>2024-04-28T09:26:14Z</time>
      </trkpt>
      <trkpt lat="45.72866" lon="3.21726">
        <ele>326.2</ele>
        <time>2024-04-28T09:26:15Z</time>
      </trkpt>
      <trkpt lat="45.72865" lon="3.21715">
        <ele>326.2</ele>
        <time>2024-04-28T09:26:16Z</time>
      </trkpt>
      <trkpt lat="45.72864" lon="3.21704">
        <ele>326.2</ele>
        <time>2024-04-28T09:26:17Z</time>
      </trkpt>
      <trkpt lat="45.72863" lon="3.21694">
        <ele>326</ele>
        <time>2024-04-28T09:26:18Z</time>
      </trkpt>
      <trkpt lat="45.72862" lon="3.21683">
        <ele>326</ele>
        <time>2024-04-28T09:26:19Z</time>
      </trkpt>
      <trkpt lat="45.72861" lon="3.21673">
        <ele>326</ele>
        <time>2024-04-28T09:26:20Z</time>
      </trkpt>
      <trkpt lat="45.7286" lon="3.21662">
        <ele>326</ele>
        <time>2024-04-28T09:26:21Z</time>
      </trkpt>
      <trkpt lat="45.7286" lon="3.21652">
        <ele>326</ele>
        <time>2024-04-28T09:26:22Z</time>
      </trkpt>
      <trkpt lat="45.7286" lon="3.21641">
        <ele>326</ele>
        <time>2024-04-28T09:26:23Z</time>
      </trkpt>
      <trkpt lat="45.7286" lon="3.2163">
        <ele>325.8</ele>
        <time>2024-04-28T09:26:24Z</time>
      </trkpt>
      <trkpt lat="45.7286" lon="3.21619">
        <ele>326</ele>
        <time>2024-04-28T09:26:25Z</time>
      </trkpt>
      <trkpt lat="45.7286" lon="3.21609">
        <ele>326</ele>
        <time>2024-04-28T09:26:26Z</time>
      </trkpt>
      <trkpt lat="45.7286" lon="3.21598">
        <ele>326</ele>
        <time>2024-04-28T09:26:27Z</time>
      </trkpt>
      <trkpt lat="45.7286" lon="3.21588">
        <ele>326</ele>
        <time>2024-04-28T09:26:28Z</time>
      </trkpt>
      <trkpt lat="45.72861" lon="3.21578">
        <ele>326</ele>
        <time>2024-04-28T09:26:29Z</time>
      </trkpt>
      <trkpt lat="45.72863" lon="3.21568">
        <ele>326</ele>
        <time>2024-04-28T09:26:30Z</time>
      </trkpt>
      <trkpt lat="45.72864" lon="3.21558">
        <ele>326</ele>
        <time>2024-04-28T09:26:31Z</time>
      </trkpt>
      <trkpt lat="45.72866" lon="3.21548">
        <ele>325.8</ele>
        <time>2024-04-28T09:26:32Z</time>
      </trkpt>
      <trkpt lat="45.72869" lon="3.21538">
        <ele>326</ele>
        <time>2024-04-28T09:26:33Z</time>
      </trkpt>
      <trkpt lat="45.72872" lon="3.21528">
        <ele>326</ele>
        <time>2024-04-28T09:26:34Z</time>
      </trkpt>
      <trkpt lat="45.72874" lon="3.21519">
        <ele>326.2</ele>
        <time>2024-04-28T09:26:35Z</time>
      </trkpt>
      <trkpt lat="45.72877" lon="3.21509">
        <ele>326.4</ele>
        <time>2024-04-28T09:26:36Z</time>
      </trkpt>
      <trkpt lat="45.72879" lon="3.21499">
        <ele>326.4</ele>
        <time>2024-04-28T09:26:37Z</time>
      </trkpt>
      <trkpt lat="45.72882" lon="3.21488">
        <ele>326.2</ele>
        <time>2024-04-28T09:26:38Z</time>
      </trkpt>
      <trkpt lat="45.72886" lon="3.2148">
        <ele>326.2</ele>
        <time>2024-04-28T09:26:39Z</time>
      </trkpt>
      <trkpt lat="45.7289" lon="3.21472">
        <ele>326.2</ele>
        <time>2024-04-28T09:26:40Z</time>
      </trkpt>
      <trkpt lat="45.72893" lon="3.21464">
        <ele>326.4</ele>
        <time>2024-04-28T09:26:41Z</time>
      </trkpt>
      <trkpt lat="45.72897" lon="3.21456">
        <ele>326.4</ele>
        <time>2024-04-28T09:26:42Z</time>
      </trkpt>
      <trkpt lat="45.729" lon="3.21448">
        <ele>326.4</ele>
        <time>2024-04-28T09:26:43Z</time>
      </trkpt>
      <trkpt lat="45.72904" lon="3.2144">
        <ele>326.4</ele>
        <time>2024-04-28T09:26:44Z</time>
      </trkpt>
      <trkpt lat="45.72907" lon="3.21432">
        <ele>326.6</ele>
        <time>2024-04-28T09:26:45Z</time>
      </trkpt>
      <trkpt lat="45.72911" lon="3.21424">
        <ele>326.6</ele>
        <time>2024-04-28T09:26:46Z</time>
      </trkpt>
      <trkpt lat="45.72914" lon="3.21417">
        <ele>326.6</ele>
        <time>2024-04-28T09:26:47Z</time>
      </trkpt>
      <trkpt lat="45.72918" lon="3.21409">
        <ele>326.8</ele>
        <time>2024-04-28T09:26:48Z</time>
      </trkpt>
      <trkpt lat="45.72921" lon="3.21401">
        <ele>326.8</ele>
        <time>2024-04-28T09:26:49Z</time>
      </trkpt>
      <trkpt lat="45.72925" lon="3.21393">
        <ele>327</ele>
        <time>2024-04-28T09:26:50Z</time>
      </trkpt>
      <trkpt lat="45.72928" lon="3.21386">
        <ele>327</ele>
        <time>2024-04-28T09:26:51Z</time>
      </trkpt>
      <trkpt lat="45.72931" lon="3.21379">
        <ele>327.2</ele>
        <time>2024-04-28T09:26:52Z</time>
      </trkpt>
      <trkpt lat="45.72934" lon="3.21373">
        <ele>327.2</ele>
        <time>2024-04-28T09:26:53Z</time>
      </trkpt>
      <trkpt lat="45.72936" lon="3.21367">
        <ele>327.2</ele>
        <time>2024-04-28T09:26:54Z</time>
      </trkpt>
      <trkpt lat="45.72939" lon="3.21361">
        <ele>327.4</ele>
        <time>2024-04-28T09:26:55Z</time>
      </trkpt>
      <trkpt lat="45.72941" lon="3.21357">
        <ele>327.4</ele>
        <time>2024-04-28T09:26:56Z</time>
      </trkpt>
      <trkpt lat="45.72943" lon="3.21353">
        <ele>327.6</ele>
        <time>2024-04-28T09:26:57Z</time>
      </trkpt>
      <trkpt lat="45.72945" lon="3.21349">
        <ele>327.6</ele>
        <time>2024-04-28T09:26:58Z</time>
      </trkpt>
      <trkpt lat="45.72947" lon="3.21344">
        <ele>327.8</ele>
        <time>2024-04-28T09:26:59Z</time>
      </trkpt>
      <trkpt lat="45.7295" lon="3.21338">
        <ele>327.8</ele>
        <time>2024-04-28T09:27:00Z</time>
      </trkpt>
      <trkpt lat="45.72953" lon="3.21332">
        <ele>327.8</ele>
        <time>2024-04-28T09:27:01Z</time>
      </trkpt>
      <trkpt lat="45.72957" lon="3.21325">
        <ele>328</ele>
        <time>2024-04-28T09:27:02Z</time>
      </trkpt>
      <trkpt lat="45.7296" lon="3.21318">
        <ele>328</ele>
        <time>2024-04-28T09:27:03Z</time>
      </trkpt>
      <trkpt lat="45.72964" lon="3.21311">
        <ele>328</ele>
        <time>2024-04-28T09:27:04Z</time>
      </trkpt>
      <trkpt lat="45.72967" lon="3.21303">
        <ele>328.2</ele>
        <time>2024-04-28T09:27:05Z</time>
      </trkpt>
      <trkpt lat="45.72971" lon="3.21296">
        <ele>328.2</ele>
        <time>2024-04-28T09:27:06Z</time>
      </trkpt>
      <trkpt lat="45.72974" lon="3.21289">
        <ele>328.4</ele>
        <time>2024-04-28T09:27:07Z</time>
      </trkpt>
      <trkpt lat="45.72978" lon="3.21282">
        <ele>328.4</ele>
        <time>2024-04-28T09:27:08Z</time>
      </trkpt>
      <trkpt lat="45.72981" lon="3.21275">
        <ele>328.4</ele>
        <time>2024-04-28T09:27:09Z</time>
      </trkpt>
      <trkpt lat="45.72985" lon="3.21267">
        <ele>328.4</ele>
        <time>2024-04-28T09:27:10Z</time>
      </trkpt>
      <trkpt lat="45.72989" lon="3.2126">
        <ele>328.4</ele>
        <time>2024-04-28T09:27:11Z</time>
      </trkpt>
      <trkpt lat="45.72992" lon="3.21253">
        <ele>328.4</ele>
        <time>2024-04-28T09:27:12Z</time>
      </trkpt>
      <trkpt lat="45.72996" lon="3.21246">
        <ele>328.4</ele>
        <time>2024-04-28T09:27:13Z</time>
      </trkpt>
      <trkpt lat="45.72999" lon="3.21238">
        <ele>328.4</ele>
        <time>2024-04-28T09:27:14Z</time>
      </trkpt>
      <trkpt lat="45.73003" lon="3.21231">
        <ele>328.4</ele>
        <time>2024-04-28T09:27:15Z</time>
      </trkpt>
      <trkpt lat="45.73007" lon="3.21223">
        <ele>328.6</ele>
        <time>2024-04-28T09:27:16Z</time>
      </trkpt>
      <trkpt lat="45.7301" lon="3.21216">
        <ele>328.6</ele>
        <time>2024-04-28T09:27:17Z</time>
      </trkpt>
      <trkpt lat="45.73015" lon="3.21211">
        <ele>328.6</ele>
        <time>2024-04-28T09:27:18Z</time>
      </trkpt>
      <trkpt lat="45.7302" lon="3.21206">
        <ele>328.6</ele>
        <time>2024-04-28T09:27:19Z</time>
      </trkpt>
      <trkpt lat="45.73025" lon="3.21201">
        <ele>328.6</ele>
        <time>2024-04-28T09:27:20Z</time>
      </trkpt>
      <trkpt lat="45.7303" lon="3.21196">
        <ele>328.8</ele>
        <time>2024-04-28T09:27:21Z</time>
      </trkpt>
      <trkpt lat="45.73035" lon="3.21191">
        <ele>328.8</ele>
        <time>2024-04-28T09:27:22Z</time>
      </trkpt>
      <trkpt lat="45.73039" lon="3.21186">
        <ele>329</ele>
        <time>2024-04-28T09:27:23Z</time>
      </trkpt>
      <trkpt lat="45.73044" lon="3.21182">
        <ele>329</ele>
        <time>2024-04-28T09:27:24Z</time>
      </trkpt>
      <trkpt lat="45.73048" lon="3.21177">
        <ele>329</ele>
        <time>2024-04-28T09:27:25Z</time>
      </trkpt>
      <trkpt lat="45.73052" lon="3.21172">
        <ele>329</ele>
        <time>2024-04-28T09:27:26Z</time>
      </trkpt>
      <trkpt lat="45.73057" lon="3.21168">
        <ele>329.2</ele>
        <time>2024-04-28T09:27:27Z</time>
      </trkpt>
      <trkpt lat="45.73062" lon="3.21164">
        <ele>329.2</ele>
        <time>2024-04-28T09:27:28Z</time>
      </trkpt>
      <trkpt lat="45.73067" lon="3.2116">
        <ele>329.4</ele>
        <time>2024-04-28T09:27:29Z</time>
      </trkpt>
      <trkpt lat="45.73071" lon="3.21157">
        <ele>329.6</ele>
        <time>2024-04-28T09:27:30Z</time>
      </trkpt>
      <trkpt lat="45.73076" lon="3.21153">
        <ele>329.8</ele>
        <time>2024-04-28T09:27:31Z</time>
      </trkpt>
      <trkpt lat="45.73081" lon="3.21149">
        <ele>330</ele>
        <time>2024-04-28T09:27:32Z</time>
      </trkpt>
      <trkpt lat="45.73086" lon="3.21145">
        <ele>330.2</ele>
        <time>2024-04-28T09:27:33Z</time>
      </trkpt>
      <trkpt lat="45.73091" lon="3.21141">
        <ele>330.4</ele>
        <time>2024-04-28T09:27:34Z</time>
      </trkpt>
      <trkpt lat="45.73097" lon="3.21137">
        <ele>330.6</ele>
        <time>2024-04-28T09:27:35Z</time>
      </trkpt>
      <trkpt lat="45.73102" lon="3.21133">
        <ele>330.6</ele>
        <time>2024-04-28T09:27:36Z</time>
      </trkpt>
      <trkpt lat="45.73107" lon="3.21129">
        <ele>330.8</ele>
        <time>2024-04-28T09:27:37Z</time>
      </trkpt>
      <trkpt lat="45.73112" lon="3.21125">
        <ele>331</ele>
        <time>2024-04-28T09:27:38Z</time>
      </trkpt>
      <trkpt lat="45.73117" lon="3.21121">
        <ele>331.2</ele>
        <time>2024-04-28T09:27:39Z</time>
      </trkpt>
      <trkpt lat="45.73122" lon="3.21118">
        <ele>331.2</ele>
        <time>2024-04-28T09:27:40Z</time>
      </trkpt>
      <trkpt lat="45.73127" lon="3.21114">
        <ele>331.4</ele>
        <time>2024-04-28T09:27:41Z</time>
      </trkpt>
      <trkpt lat="45.73132" lon="3.2111">
        <ele>331.6</ele>
        <time>2024-04-28T09:27:42Z</time>
      </trkpt>
      <trkpt lat="45.73137" lon="3.21106">
        <ele>331.8</ele>
        <time>2024-04-28T09:27:43Z</time>
      </trkpt>
      <trkpt lat="45.73142" lon="3.21102">
        <ele>331.8</ele>
        <time>2024-04-28T09:27:44Z</time>
      </trkpt>
      <trkpt lat="45.73146" lon="3.21098">
        <ele>332</ele>
        <time>2024-04-28T09:27:45Z</time>
      </trkpt>
      <trkpt lat="45.73151" lon="3.21094">
        <ele>332</ele>
        <time>2024-04-28T09:27:46Z</time>
      </trkpt>
      <trkpt lat="45.73156" lon="3.21089">
        <ele>332.2</ele>
        <time>2024-04-28T09:27:47Z</time>
      </trkpt>
      <trkpt lat="45.7316" lon="3.21085">
        <ele>332.4</ele>
        <time>2024-04-28T09:27:48Z</time>
      </trkpt>
      <trkpt lat="45.73165" lon="3.21081">
        <ele>332.6</ele>
        <time>2024-04-28T09:27:49Z</time>
      </trkpt>
      <trkpt lat="45.73169" lon="3.21077">
        <ele>332.6</ele>
        <time>2024-04-28T09:27:50Z</time>
      </trkpt>
      <trkpt lat="45.73173" lon="3.21072">
        <ele>332.8</ele>
        <time>2024-04-28T09:27:51Z</time>
      </trkpt>
      <trkpt lat="45.73177" lon="3.21067">
        <ele>332.8</ele>
        <time>2024-04-28T09:27:52Z</time>
      </trkpt>
      <trkpt lat="45.73181" lon="3.21062">
        <ele>333</ele>
        <time>2024-04-28T09:27:53Z</time>
      </trkpt>
      <trkpt lat="45.73185" lon="3.21057">
        <ele>333</ele>
        <time>2024-04-28T09:27:54Z</time>
      </trkpt>
      <trkpt lat="45.73189" lon="3.21051">
        <ele>333.2</ele>
        <time>2024-04-28T09:27:55Z</time>
      </trkpt>
      <trkpt lat="45.73192" lon="3.21046">
        <ele>333.4</ele>
        <time>2024-04-28T09:27:56Z</time>
      </trkpt>
      <trkpt lat="45.73196" lon="3.21042">
        <ele>333.4</ele>
        <time>2024-04-28T09:27:57Z</time>
      </trkpt>
      <trkpt lat="45.73199" lon="3.21037">
        <ele>333.6</ele>
        <time>2024-04-28T09:27:58Z</time>
      </trkpt>
      <trkpt lat="45.73202" lon="3.21033">
        <ele>333.8</ele>
        <time>2024-04-28T09:27:59Z</time>
      </trkpt>
      <trkpt lat="45.73205" lon="3.21029">
        <ele>334</ele>
        <time>2024-04-28T09:28:00Z</time>
      </trkpt>
      <trkpt lat="45.73208" lon="3.21026">
        <ele>334</ele>
        <time>2024-04-28T09:28:01Z</time>
      </trkpt>
      <trkpt lat="45.7321" lon="3.21022">
        <ele>334.2</ele>
        <time>2024-04-28T09:28:02Z</time>
      </trkpt>
      <trkpt lat="45.73212" lon="3.21019">
        <ele>334.4</ele>
        <time>2024-04-28T09:28:03Z</time>
      </trkpt>
      <trkpt lat="45.73215" lon="3.21016">
        <ele>334.6</ele>
        <time>2024-04-28T09:28:04Z</time>
      </trkpt>
      <trkpt lat="45.73216" lon="3.21014">
        <ele>334.6</ele>
        <time>2024-04-28T09:28:05Z</time>
      </trkpt>
      <trkpt lat="45.73218" lon="3.21011">
        <ele>334.8</ele>
        <time>2024-04-28T09:28:06Z</time>
      </trkpt>
      <trkpt lat="45.7322" lon="3.21009">
        <ele>334.8</ele>
        <time>2024-04-28T09:28:07Z</time>
      </trkpt>
      <trkpt lat="45.73221" lon="3.21008">
        <ele>334.8</ele>
        <time>2024-04-28T09:28:08Z</time>
      </trkpt>
      <trkpt lat="45.73222" lon="3.21006">
        <ele>335</ele>
        <time>2024-04-28T09:28:09Z</time>
      </trkpt>
      <trkpt lat="45.73224" lon="3.21004">
        <ele>335</ele>
        <time>2024-04-28T09:28:10Z</time>
      </trkpt>
      <trkpt lat="45.73225" lon="3.21002">
        <ele>335.2</ele>
        <time>2024-04-28T09:28:11Z</time>
      </trkpt>
      <trkpt lat="45.73227" lon="3.21">
        <ele>335.4</ele>
        <time>2024-04-28T09:28:12Z</time>
      </trkpt>
      <trkpt lat="45.73229" lon="3.20997">
        <ele>335.4</ele>
        <time>2024-04-28T09:28:13Z</time>
      </trkpt>
      <trkpt lat="45.73231" lon="3.20994">
        <ele>335.6</ele>
        <time>2024-04-28T09:28:14Z</time>
      </trkpt>
      <trkpt lat="45.73234" lon="3.2099">
        <ele>335.6</ele>
        <time>2024-04-28T09:28:15Z</time>
      </trkpt>
      <trkpt lat="45.73236" lon="3.20987">
        <ele>335.6</ele>
        <time>2024-04-28T09:28:16Z</time>
      </trkpt>
      <trkpt lat="45.7324" lon="3.20982">
        <ele>335.8</ele>
        <time>2024-04-28T09:28:17Z</time>
      </trkpt>
      <trkpt lat="45.73241" lon="3.20981">
        <ele>335.8</ele>
        <time>2024-04-28T09:28:18Z</time>
      </trkpt>
      <trkpt lat="45.73252" lon="3.20983">
        <ele>335.8</ele>
        <time>2024-04-28T09:28:19Z</time>
      </trkpt>
      <trkpt lat="45.73256" lon="3.20979">
        <ele>335.8</ele>
        <time>2024-04-28T09:28:20Z</time>
      </trkpt>
      <trkpt lat="45.73256" lon="3.20979">
        <ele>336</ele>
        <time>2024-04-28T09:28:21Z</time>
      </trkpt>
      <trkpt lat="45.73261" lon="3.20959">
        <ele>336</ele>
        <time>2024-04-28T09:28:22Z</time>
      </trkpt>
      <trkpt lat="45.73266" lon="3.20956">
        <ele>336.2</ele>
        <time>2024-04-28T09:28:23Z</time>
      </trkpt>
      <trkpt lat="45.73271" lon="3.20952">
        <ele>336.4</ele>
        <time>2024-04-28T09:28:24Z</time>
      </trkpt>
      <trkpt lat="45.73276" lon="3.20948">
        <ele>336.4</ele>
        <time>2024-04-28T09:28:25Z</time>
      </trkpt>
      <trkpt lat="45.73281" lon="3.20945">
        <ele>336.6</ele>
        <time>2024-04-28T09:28:26Z</time>
      </trkpt>
      <trkpt lat="45.73286" lon="3.20941">
        <ele>336.8</ele>
        <time>2024-04-28T09:28:27Z</time>
      </trkpt>
      <trkpt lat="45.73291" lon="3.20938">
        <ele>337</ele>
        <time>2024-04-28T09:28:28Z</time>
      </trkpt>
      <trkpt lat="45.73296" lon="3.20934">
        <ele>337</ele>
        <time>2024-04-28T09:28:29Z</time>
      </trkpt>
      <trkpt lat="45.733" lon="3.20931">
        <ele>337.2</ele>
        <time>2024-04-28T09:28:30Z</time>
      </trkpt>
      <trkpt lat="45.73305" lon="3.20928">
        <ele>337.4</ele>
        <time>2024-04-28T09:28:31Z</time>
      </trkpt>
      <trkpt lat="45.7331" lon="3.20924">
        <ele>337.6</ele>
        <time>2024-04-28T09:28:32Z</time>
      </trkpt>
      <trkpt lat="45.73314" lon="3.20921">
        <ele>337.6</ele>
        <time>2024-04-28T09:28:33Z</time>
      </trkpt>
      <trkpt lat="45.73319" lon="3.20918">
        <ele>337.8</ele>
        <time>2024-04-28T09:28:34Z</time>
      </trkpt>
      <trkpt lat="45.73323" lon="3.20914">
        <ele>337.8</ele>
        <time>2024-04-28T09:28:35Z</time>
      </trkpt>
      <trkpt lat="45.73328" lon="3.20911">
        <ele>338</ele>
        <time>2024-04-28T09:28:36Z</time>
      </trkpt>
      <trkpt lat="45.73332" lon="3.20908">
        <ele>338</ele>
        <time>2024-04-28T09:28:37Z</time>
      </trkpt>
      <trkpt lat="45.73337" lon="3.20905">
        <ele>338.2</ele>
        <time>2024-04-28T09:28:38Z</time>
      </trkpt>
      <trkpt lat="45.73341" lon="3.20902">
        <ele>338.4</ele>
        <time>2024-04-28T09:28:39Z</time>
      </trkpt>
      <trkpt lat="45.73345" lon="3.20899">
        <ele>338.4</ele>
        <time>2024-04-28T09:28:40Z</time>
      </trkpt>
      <trkpt lat="45.7335" lon="3.20896">
        <ele>338.6</ele>
        <time>2024-04-28T09:28:41Z</time>
      </trkpt>
      <trkpt lat="45.73354" lon="3.20893">
        <ele>338.6</ele>
        <time>2024-04-28T09:28:42Z</time>
      </trkpt>
      <trkpt lat="45.73359" lon="3.20889">
        <ele>338.8</ele>
        <time>2024-04-28T09:28:43Z</time>
      </trkpt>
      <trkpt lat="45.73363" lon="3.20886">
        <ele>339</ele>
        <time>2024-04-28T09:28:44Z</time>
      </trkpt>
      <trkpt lat="45.73368" lon="3.20883">
        <ele>339</ele>
        <time>2024-04-28T09:28:45Z</time>
      </trkpt>
      <trkpt lat="45.73372" lon="3.2088">
        <ele>339.2</ele>
        <time>2024-04-28T09:28:46Z</time>
      </trkpt>
      <trkpt lat="45.73376" lon="3.20877">
        <ele>339.4</ele>
        <time>2024-04-28T09:28:47Z</time>
      </trkpt>
      <trkpt lat="45.73381" lon="3.20873">
        <ele>339.6</ele>
        <time>2024-04-28T09:28:48Z</time>
      </trkpt>
      <trkpt lat="45.73385" lon="3.2087">
        <ele>339.8</ele>
        <time>2024-04-28T09:28:49Z</time>
      </trkpt>
      <trkpt lat="45.7339" lon="3.20867">
        <ele>339.8</ele>
        <time>2024-04-28T09:28:50Z</time>
      </trkpt>
      <trkpt lat="45.73395" lon="3.20864">
        <ele>340</ele>
        <time>2024-04-28T09:28:51Z</time>
      </trkpt>
      <trkpt lat="45.73399" lon="3.20861">
        <ele>340.2</ele>
        <time>2024-04-28T09:28:52Z</time>
      </trkpt>
      <trkpt lat="45.73403" lon="3.20858">
        <ele>340.4</ele>
        <time>2024-04-28T09:28:53Z</time>
      </trkpt>
      <trkpt lat="45.73408" lon="3.20855">
        <ele>340.4</ele>
        <time>2024-04-28T09:28:54Z</time>
      </trkpt>
      <trkpt lat="45.73412" lon="3.20852">
        <ele>340.6</ele>
        <time>2024-04-28T09:28:55Z</time>
      </trkpt>
      <trkpt lat="45.73417" lon="3.20849">
        <ele>340.8</ele>
        <time>2024-04-28T09:28:56Z</time>
      </trkpt>
      <trkpt lat="45.73421" lon="3.20846">
        <ele>341</ele>
        <time>2024-04-28T09:28:57Z</time>
      </trkpt>
      <trkpt lat="45.73425" lon="3.20843">
        <ele>341.2</ele>
        <time>2024-04-28T09:28:58Z</time>
      </trkpt>
      <trkpt lat="45.73429" lon="3.2084">
        <ele>341.4</ele>
        <time>2024-04-28T09:28:59Z</time>
      </trkpt>
      <trkpt lat="45.73434" lon="3.20837">
        <ele>341.4</ele>
        <time>2024-04-28T09:29:00Z</time>
      </trkpt>
      <trkpt lat="45.73438" lon="3.20834">
        <ele>341.6</ele>
        <time>2024-04-28T09:29:01Z</time>
      </trkpt>
      <trkpt lat="45.73443" lon="3.20831">
        <ele>341.6</ele>
        <time>2024-04-28T09:29:02Z</time>
      </trkpt>
      <trkpt lat="45.73446" lon="3.20827">
        <ele>341.8</ele>
        <time>2024-04-28T09:29:03Z</time>
      </trkpt>
      <trkpt lat="45.7345" lon="3.20822">
        <ele>342</ele>
        <time>2024-04-28T09:29:04Z</time>
      </trkpt>
      <trkpt lat="45.73453" lon="3.20818">
        <ele>342.2</ele>
        <time>2024-04-28T09:29:05Z</time>
      </trkpt>
      <trkpt lat="45.73456" lon="3.20813">
        <ele>342.2</ele>
        <time>2024-04-28T09:29:06Z</time>
      </trkpt>
      <trkpt lat="45.7346" lon="3.20808">
        <ele>342.4</ele>
        <time>2024-04-28T09:29:07Z</time>
      </trkpt>
      <trkpt lat="45.73463" lon="3.20803">
        <ele>342.6</ele>
        <time>2024-04-28T09:29:08Z</time>
      </trkpt>
      <trkpt lat="45.73466" lon="3.20798">
        <ele>342.6</ele>
        <time>2024-04-28T09:29:09Z</time>
      </trkpt>
      <trkpt lat="45.7347" lon="3.20793">
        <ele>342.8</ele>
        <time>2024-04-28T09:29:10Z</time>
      </trkpt>
      <trkpt lat="45.73473" lon="3.20788">
        <ele>343</ele>
        <time>2024-04-28T09:29:11Z</time>
      </trkpt>
      <trkpt lat="45.73476" lon="3.20783">
        <ele>343</ele>
        <time>2024-04-28T09:29:12Z</time>
      </trkpt>
      <trkpt lat="45.73479" lon="3.20777">
        <ele>343.2</ele>
        <time>2024-04-28T09:29:13Z</time>
      </trkpt>
      <trkpt lat="45.7348" lon="3.20771">
        <ele>343.4</ele>
        <time>2024-04-28T09:29:14Z</time>
      </trkpt>
      <trkpt lat="45.73482" lon="3.20765">
        <ele>343.4</ele>
        <time>2024-04-28T09:29:15Z</time>
      </trkpt>
      <trkpt lat="45.73483" lon="3.20759">
        <ele>343.6</ele>
        <time>2024-04-28T09:29:16Z</time>
      </trkpt>
      <trkpt lat="45.73485" lon="3.20752">
        <ele>343.8</ele>
        <time>2024-04-28T09:29:17Z</time>
      </trkpt>
      <trkpt lat="45.73486" lon="3.20746">
        <ele>343.8</ele>
        <time>2024-04-28T09:29:18Z</time>
      </trkpt>
      <trkpt lat="45.73488" lon="3.20739">
        <ele>344</ele>
        <time>2024-04-28T09:29:19Z</time>
      </trkpt>
      <trkpt lat="45.7349" lon="3.20733">
        <ele>344</ele>
        <time>2024-04-28T09:29:20Z</time>
      </trkpt>
      <trkpt lat="45.73492" lon="3.20727">
        <ele>344.2</ele>
        <time>2024-04-28T09:29:21Z</time>
      </trkpt>
      <trkpt lat="45.73494" lon="3.2072">
        <ele>344.2</ele>
        <time>2024-04-28T09:29:22Z</time>
      </trkpt>
      <trkpt lat="45.73495" lon="3.20714">
        <ele>344.4</ele>
        <time>2024-04-28T09:29:23Z</time>
      </trkpt>
      <trkpt lat="45.73497" lon="3.20708">
        <ele>344.4</ele>
        <time>2024-04-28T09:29:24Z</time>
      </trkpt>
      <trkpt lat="45.73499" lon="3.20701">
        <ele>344.6</ele>
        <time>2024-04-28T09:29:25Z</time>
      </trkpt>
      <trkpt lat="45.73501" lon="3.20695">
        <ele>344.8</ele>
        <time>2024-04-28T09:29:26Z</time>
      </trkpt>
      <trkpt lat="45.73502" lon="3.20688">
        <ele>344.8</ele>
        <time>2024-04-28T09:29:27Z</time>
      </trkpt>
      <trkpt lat="45.73504" lon="3.20681">
        <ele>345</ele>
        <time>2024-04-28T09:29:28Z</time>
      </trkpt>
      <trkpt lat="45.73506" lon="3.20675">
        <ele>345.2</ele>
        <time>2024-04-28T09:29:29Z</time>
      </trkpt>
      <trkpt lat="45.73508" lon="3.20668">
        <ele>345.2</ele>
        <time>2024-04-28T09:29:30Z</time>
      </trkpt>
      <trkpt lat="45.73509" lon="3.20662">
        <ele>345.4</ele>
        <time>2024-04-28T09:29:31Z</time>
      </trkpt>
      <trkpt lat="45.73511" lon="3.20655">
        <ele>345.4</ele>
        <time>2024-04-28T09:29:32Z</time>
      </trkpt>
      <trkpt lat="45.73513" lon="3.20649">
        <ele>345.6</ele>
        <time>2024-04-28T09:29:33Z</time>
      </trkpt>
      <trkpt lat="45.73515" lon="3.20642">
        <ele>345.8</ele>
        <time>2024-04-28T09:29:34Z</time>
      </trkpt>
      <trkpt lat="45.73516" lon="3.20636">
        <ele>345.8</ele>
        <time>2024-04-28T09:29:35Z</time>
      </trkpt>
      <trkpt lat="45.73518" lon="3.20629">
        <ele>346</ele>
        <time>2024-04-28T09:29:36Z</time>
      </trkpt>
      <trkpt lat="45.7352" lon="3.20623">
        <ele>346.2</ele>
        <time>2024-04-28T09:29:37Z</time>
      </trkpt>
      <trkpt lat="45.73522" lon="3.20616">
        <ele>346.2</ele>
        <time>2024-04-28T09:29:38Z</time>
      </trkpt>
      <trkpt lat="45.73523" lon="3.20609">
        <ele>346.4</ele>
        <time>2024-04-28T09:29:39Z</time>
      </trkpt>
      <trkpt lat="45.73525" lon="3.20603">
        <ele>346.6</ele>
        <time>2024-04-28T09:29:40Z</time>
      </trkpt>
      <trkpt lat="45.73527" lon="3.20596">
        <ele>346.8</ele>
        <time>2024-04-28T09:29:41Z</time>
      </trkpt>
      <trkpt lat="45.73529" lon="3.2059">
        <ele>346.8</ele>
        <time>2024-04-28T09:29:42Z</time>
      </trkpt>
      <trkpt lat="45.7353" lon="3.20583">
        <ele>347</ele>
        <time>2024-04-28T09:29:43Z</time>
      </trkpt>
      <trkpt lat="45.73533" lon="3.20577">
        <ele>347.2</ele>
        <time>2024-04-28T09:29:44Z</time>
      </trkpt>
      <trkpt lat="45.73536" lon="3.20572">
        <ele>347.2</ele>
        <time>2024-04-28T09:29:45Z</time>
      </trkpt>
      <trkpt lat="45.73539" lon="3.20567">
        <ele>347.4</ele>
        <time>2024-04-28T09:29:46Z</time>
      </trkpt>
      <trkpt lat="45.73541" lon="3.20562">
        <ele>347.4</ele>
        <time>2024-04-28T09:29:47Z</time>
      </trkpt>
      <trkpt lat="45.73544" lon="3.20557">
        <ele>347.4</ele>
        <time>2024-04-28T09:29:48Z</time>
      </trkpt>
      <trkpt lat="45.73547" lon="3.20552">
        <ele>347.6</ele>
        <time>2024-04-28T09:29:49Z</time>
      </trkpt>
      <trkpt lat="45.73551" lon="3.20547">
        <ele>347.8</ele>
        <time>2024-04-28T09:29:50Z</time>
      </trkpt>
      <trkpt lat="45.73554" lon="3.20541">
        <ele>347.8</ele>
        <time>2024-04-28T09:29:51Z</time>
      </trkpt>
      <trkpt lat="45.73557" lon="3.20535">
        <ele>348</ele>
        <time>2024-04-28T09:29:52Z</time>
      </trkpt>
      <trkpt lat="45.73561" lon="3.20529">
        <ele>348</ele>
        <time>2024-04-28T09:29:53Z</time>
      </trkpt>
      <trkpt lat="45.73565" lon="3.20524">
        <ele>348.2</ele>
        <time>2024-04-28T09:29:54Z</time>
      </trkpt>
      <trkpt lat="45.73569" lon="3.20519">
        <ele>348.4</ele>
        <time>2024-04-28T09:29:55Z</time>
      </trkpt>
      <trkpt lat="45.73572" lon="3.20515">
        <ele>348.6</ele>
        <time>2024-04-28T09:29:56Z</time>
      </trkpt>
      <trkpt lat="45.73576" lon="3.2051">
        <ele>348.8</ele>
        <time>2024-04-28T09:29:57Z</time>
      </trkpt>
      <trkpt lat="45.7358" lon="3.20506">
        <ele>348.8</ele>
        <time>2024-04-28T09:29:58Z</time>
      </trkpt>
      <trkpt lat="45.73583" lon="3.20501">
        <ele>349</ele>
        <time>2024-04-28T09:29:59Z</time>
      </trkpt>
      <trkpt lat="45.73587" lon="3.20497">
        <ele>349.2</ele>
        <time>2024-04-28T09:30:00Z</time>
      </trkpt>
      <trkpt lat="45.73591" lon="3.20492">
        <ele>349.4</ele>
        <time>2024-04-28T09:30:01Z</time>
      </trkpt>
      <trkpt lat="45.73595" lon="3.20488">
        <ele>349.4</ele>
        <time>2024-04-28T09:30:02Z</time>
      </trkpt>
      <trkpt lat="45.73598" lon="3.20484">
        <ele>349.6</ele>
        <time>2024-04-28T09:30:03Z</time>
      </trkpt>
      <trkpt lat="45.73602" lon="3.20479">
        <ele>349.8</ele>
        <time>2024-04-28T09:30:04Z</time>
      </trkpt>
      <trkpt lat="45.73606" lon="3.20477">
        <ele>350</ele>
        <time>2024-04-28T09:30:05Z</time>
      </trkpt>
      <trkpt lat="45.73611" lon="3.20474">
        <ele>350.2</ele>
        <time>2024-04-28T09:30:06Z</time>
      </trkpt>
      <trkpt lat="45.73615" lon="3.20472">
        <ele>350.4</ele>
        <time>2024-04-28T09:30:07Z</time>
      </trkpt>
      <trkpt lat="45.73619" lon="3.2047">
        <ele>350.4</ele>
        <time>2024-04-28T09:30:08Z</time>
      </trkpt>
      <trkpt lat="45.73624" lon="3.20467">
        <ele>350.6</ele>
        <time>2024-04-28T09:30:09Z</time>
      </trkpt>
      <trkpt lat="45.73628" lon="3.20465">
        <ele>350.8</ele>
        <time>2024-04-28T09:30:10Z</time>
      </trkpt>
      <trkpt lat="45.73632" lon="3.20463">
        <ele>351</ele>
        <time>2024-04-28T09:30:11Z</time>
      </trkpt>
      <trkpt lat="45.73637" lon="3.20461">
        <ele>351.2</ele>
        <time>2024-04-28T09:30:12Z</time>
      </trkpt>
      <trkpt lat="45.73641" lon="3.20459">
        <ele>351.4</ele>
        <time>2024-04-28T09:30:13Z</time>
      </trkpt>
      <trkpt lat="45.73646" lon="3.20458">
        <ele>351.6</ele>
        <time>2024-04-28T09:30:14Z</time>
      </trkpt>
      <trkpt lat="45.7365" lon="3.20457">
        <ele>351.6</ele>
        <time>2024-04-28T09:30:15Z</time>
      </trkpt>
      <trkpt lat="45.73655" lon="3.20456">
        <ele>351.8</ele>
        <time>2024-04-28T09:30:16Z</time>
      </trkpt>
      <trkpt lat="45.73659" lon="3.20455">
        <ele>352</ele>
        <time>2024-04-28T09:30:17Z</time>
      </trkpt>
      <trkpt lat="45.73664" lon="3.20454">
        <ele>352</ele>
        <time>2024-04-28T09:30:18Z</time>
      </trkpt>
      <trkpt lat="45.73668" lon="3.20453">
        <ele>352.2</ele>
        <time>2024-04-28T09:30:19Z</time>
      </trkpt>
      <trkpt lat="45.73673" lon="3.20452">
        <ele>352.4</ele>
        <time>2024-04-28T09:30:20Z</time>
      </trkpt>
      <trkpt lat="45.73677" lon="3.20451">
        <ele>352.6</ele>
        <time>2024-04-28T09:30:21Z</time>
      </trkpt>
      <trkpt lat="45.73682" lon="3.2045">
        <ele>352.8</ele>
        <time>2024-04-28T09:30:22Z</time>
      </trkpt>
      <trkpt lat="45.73686" lon="3.20449">
        <ele>353</ele>
        <time>2024-04-28T09:30:23Z</time>
      </trkpt>
      <trkpt lat="45.73691" lon="3.20448">
        <ele>353.2</ele>
        <time>2024-04-28T09:30:24Z</time>
      </trkpt>
      <trkpt lat="45.73696" lon="3.20446">
        <ele>353.4</ele>
        <time>2024-04-28T09:30:25Z</time>
      </trkpt>
      <trkpt lat="45.737" lon="3.20445">
        <ele>353.4</ele>
        <time>2024-04-28T09:30:26Z</time>
      </trkpt>
      <trkpt lat="45.73705" lon="3.20444">
        <ele>353.6</ele>
        <time>2024-04-28T09:30:27Z</time>
      </trkpt>
      <trkpt lat="45.7371" lon="3.20443">
        <ele>353.6</ele>
        <time>2024-04-28T09:30:28Z</time>
      </trkpt>
      <trkpt lat="45.73714" lon="3.20442">
        <ele>353.8</ele>
        <time>2024-04-28T09:30:29Z</time>
      </trkpt>
      <trkpt lat="45.73719" lon="3.20441">
        <ele>354</ele>
        <time>2024-04-28T09:30:30Z</time>
      </trkpt>
      <trkpt lat="45.73723" lon="3.2044">
        <ele>354.2</ele>
        <time>2024-04-28T09:30:31Z</time>
      </trkpt>
      <trkpt lat="45.73728" lon="3.20439">
        <ele>354.4</ele>
        <time>2024-04-28T09:30:32Z</time>
      </trkpt>
      <trkpt lat="45.73732" lon="3.20438">
        <ele>354.6</ele>
        <time>2024-04-28T09:30:33Z</time>
      </trkpt>
      <trkpt lat="45.73737" lon="3.20437">
        <ele>354.8</ele>
        <time>2024-04-28T09:30:34Z</time>
      </trkpt>
      <trkpt lat="45.73742" lon="3.20436">
        <ele>355</ele>
        <time>2024-04-28T09:30:35Z</time>
      </trkpt>
      <trkpt lat="45.73746" lon="3.20433">
        <ele>355</ele>
        <time>2024-04-28T09:30:36Z</time>
      </trkpt>
      <trkpt lat="45.7375" lon="3.2043">
        <ele>355.2</ele>
        <time>2024-04-28T09:30:37Z</time>
      </trkpt>
      <trkpt lat="45.73753" lon="3.20427">
        <ele>355.4</ele>
        <time>2024-04-28T09:30:38Z</time>
      </trkpt>
      <trkpt lat="45.73757" lon="3.20423">
        <ele>355.4</ele>
        <time>2024-04-28T09:30:39Z</time>
      </trkpt>
      <trkpt lat="45.73761" lon="3.2042">
        <ele>355.6</ele>
        <time>2024-04-28T09:30:40Z</time>
      </trkpt>
      <trkpt lat="45.73765" lon="3.20417">
        <ele>355.8</ele>
        <time>2024-04-28T09:30:41Z</time>
      </trkpt>
      <trkpt lat="45.73769" lon="3.20414">
        <ele>355.8</ele>
        <time>2024-04-28T09:30:42Z</time>
      </trkpt>
      <trkpt lat="45.73772" lon="3.2041">
        <ele>356</ele>
        <time>2024-04-28T09:30:43Z</time>
      </trkpt>
      <trkpt lat="45.73775" lon="3.20405">
        <ele>356.2</ele>
        <time>2024-04-28T09:30:44Z</time>
      </trkpt>
      <trkpt lat="45.73777" lon="3.20399">
        <ele>356.2</ele>
        <time>2024-04-28T09:30:45Z</time>
      </trkpt>
      <trkpt lat="45.73779" lon="3.20394">
        <ele>356.4</ele>
        <time>2024-04-28T09:30:46Z</time>
      </trkpt>
      <trkpt lat="45.73781" lon="3.20388">
        <ele>356.6</ele>
        <time>2024-04-28T09:30:47Z</time>
      </trkpt>
      <trkpt lat="45.73784" lon="3.20382">
        <ele>356.8</ele>
        <time>2024-04-28T09:30:48Z</time>
      </trkpt>
      <trkpt lat="45.73786" lon="3.20376">
        <ele>356.8</ele>
        <time>2024-04-28T09:30:49Z</time>
      </trkpt>
      <trkpt lat="45.73788" lon="3.2037">
        <ele>357</ele>
        <time>2024-04-28T09:30:50Z</time>
      </trkpt>
      <trkpt lat="45.7379" lon="3.20365">
        <ele>357.2</ele>
        <time>2024-04-28T09:30:51Z</time>
      </trkpt>
      <trkpt lat="45.73793" lon="3.20358">
        <ele>357.2</ele>
        <time>2024-04-28T09:30:52Z</time>
      </trkpt>
      <trkpt lat="45.73795" lon="3.20352">
        <ele>357.4</ele>
        <time>2024-04-28T09:30:53Z</time>
      </trkpt>
      <trkpt lat="45.73797" lon="3.20347">
        <ele>357.6</ele>
        <time>2024-04-28T09:30:54Z</time>
      </trkpt>
      <trkpt lat="45.73799" lon="3.20341">
        <ele>357.6</ele>
        <time>2024-04-28T09:30:55Z</time>
      </trkpt>
      <trkpt lat="45.73802" lon="3.20335">
        <ele>357.8</ele>
        <time>2024-04-28T09:30:56Z</time>
      </trkpt>
      <trkpt lat="45.73804" lon="3.20329">
        <ele>357.8</ele>
        <time>2024-04-28T09:30:57Z</time>
      </trkpt>
      <trkpt lat="45.73806" lon="3.20324">
        <ele>358</ele>
        <time>2024-04-28T09:30:58Z</time>
      </trkpt>
      <trkpt lat="45.73808" lon="3.20318">
        <ele>358.2</ele>
        <time>2024-04-28T09:30:59Z</time>
      </trkpt>
      <trkpt lat="45.7381" lon="3.20313">
        <ele>358.2</ele>
        <time>2024-04-28T09:31:00Z</time>
      </trkpt>
      <trkpt lat="45.73812" lon="3.20307">
        <ele>358.4</ele>
        <time>2024-04-28T09:31:01Z</time>
      </trkpt>
      <trkpt lat="45.73814" lon="3.20302">
        <ele>358.6</ele>
        <time>2024-04-28T09:31:02Z</time>
      </trkpt>
      <trkpt lat="45.73816" lon="3.20296">
        <ele>358.8</ele>
        <time>2024-04-28T09:31:03Z</time>
      </trkpt>
      <trkpt lat="45.73818" lon="3.20291">
        <ele>358.8</ele>
        <time>2024-04-28T09:31:04Z</time>
      </trkpt>
      <trkpt lat="45.73821" lon="3.20286">
        <ele>359</ele>
        <time>2024-04-28T09:31:05Z</time>
      </trkpt>
      <trkpt lat="45.73823" lon="3.20281">
        <ele>359.2</ele>
        <time>2024-04-28T09:31:06Z</time>
      </trkpt>
      <trkpt lat="45.73826" lon="3.20276">
        <ele>359.2</ele>
        <time>2024-04-28T09:31:07Z</time>
      </trkpt>
      <trkpt lat="45.73829" lon="3.2027">
        <ele>359.4</ele>
        <time>2024-04-28T09:31:08Z</time>
      </trkpt>
      <trkpt lat="45.73831" lon="3.20265">
        <ele>359.6</ele>
        <time>2024-04-28T09:31:09Z</time>
      </trkpt>
      <trkpt lat="45.73834" lon="3.2026">
        <ele>359.8</ele>
        <time>2024-04-28T09:31:10Z</time>
      </trkpt>
      <trkpt lat="45.73837" lon="3.20254">
        <ele>359.8</ele>
        <time>2024-04-28T09:31:11Z</time>
      </trkpt>
      <trkpt lat="45.73839" lon="3.20249">
        <ele>360</ele>
        <time>2024-04-28T09:31:12Z</time>
      </trkpt>
      <trkpt lat="45.73842" lon="3.20244">
        <ele>360.2</ele>
        <time>2024-04-28T09:31:13Z</time>
      </trkpt>
      <trkpt lat="45.73844" lon="3.20239">
        <ele>360.2</ele>
        <time>2024-04-28T09:31:14Z</time>
      </trkpt>
      <trkpt lat="45.73847" lon="3.20233">
        <ele>360.4</ele>
        <time>2024-04-28T09:31:15Z</time>
      </trkpt>
      <trkpt lat="45.73849" lon="3.20229">
        <ele>360.6</ele>
        <time>2024-04-28T09:31:16Z</time>
      </trkpt>
      <trkpt lat="45.73852" lon="3.20226">
        <ele>360.6</ele>
        <time>2024-04-28T09:31:17Z</time>
      </trkpt>
      <trkpt lat="45.73854" lon="3.20223">
        <ele>360.8</ele>
        <time>2024-04-28T09:31:18Z</time>
      </trkpt>
      <trkpt lat="45.73856" lon="3.20221">
        <ele>361</ele>
        <time>2024-04-28T09:31:19Z</time>
      </trkpt>
      <trkpt lat="45.73857" lon="3.20219">
        <ele>361.2</ele>
        <time>2024-04-28T09:31:20Z</time>
      </trkpt>
      <trkpt lat="45.73859" lon="3.20217">
        <ele>361.2</ele>
        <time>2024-04-28T09:31:21Z</time>
      </trkpt>
      <trkpt lat="45.7386" lon="3.20216">
        <ele>361.4</ele>
        <time>2024-04-28T09:31:22Z</time>
      </trkpt>
      <trkpt lat="45.7386" lon="3.20216">
        <ele>361.4</ele>
        <time>2024-04-28T09:31:23Z</time>
      </trkpt>
      <trkpt lat="45.7386" lon="3.20216">
        <ele>361.6</ele>
        <time>2024-04-28T09:31:24Z</time>
      </trkpt>
      <trkpt lat="45.73866" lon="3.20208">
        <ele>365.8</ele>
        <time>2024-04-28T09:32:04Z</time>
      </trkpt>
      <trkpt lat="45.73868" lon="3.20205">
        <ele>365.8</ele>
        <time>2024-04-28T09:32:05Z</time>
      </trkpt>
      <trkpt lat="45.7387" lon="3.20201">
        <ele>366</ele>
        <time>2024-04-28T09:32:06Z</time>
      </trkpt>
      <trkpt lat="45.7387" lon="3.20195">
        <ele>366</ele>
        <time>2024-04-28T09:32:07Z</time>
      </trkpt>
      <trkpt lat="45.7387" lon="3.20189">
        <ele>366</ele>
        <time>2024-04-28T09:32:08Z</time>
      </trkpt>
      <trkpt lat="45.7387" lon="3.20184">
        <ele>366.2</ele>
        <time>2024-04-28T09:32:09Z</time>
      </trkpt>
      <trkpt lat="45.7387" lon="3.20177">
        <ele>366.2</ele>
        <time>2024-04-28T09:32:10Z</time>
      </trkpt>
      <trkpt lat="45.7387" lon="3.20171">
        <ele>366.2</ele>
        <time>2024-04-28T09:32:11Z</time>
      </trkpt>
      <trkpt lat="45.7387" lon="3.20164">
        <ele>366.4</ele>
        <time>2024-04-28T09:32:12Z</time>
      </trkpt>
      <trkpt lat="45.7387" lon="3.20157">
        <ele>366.6</ele>
        <time>2024-04-28T09:32:13Z</time>
      </trkpt>
      <trkpt lat="45.7387" lon="3.2015">
        <ele>366.6</ele>
        <time>2024-04-28T09:32:14Z</time>
      </trkpt>
      <trkpt lat="45.73869" lon="3.20142">
        <ele>366.8</ele>
        <time>2024-04-28T09:32:15Z</time>
      </trkpt>
      <trkpt lat="45.73869" lon="3.20134">
        <ele>366.8</ele>
        <time>2024-04-28T09:32:16Z</time>
      </trkpt>
      <trkpt lat="45.73869" lon="3.20126">
        <ele>367</ele>
        <time>2024-04-28T09:32:17Z</time>
      </trkpt>
      <trkpt lat="45.73869" lon="3.20118">
        <ele>367.2</ele>
        <time>2024-04-28T09:32:18Z</time>
      </trkpt>
      <trkpt lat="45.73868" lon="3.2011">
        <ele>367.2</ele>
        <time>2024-04-28T09:32:19Z</time>
      </trkpt>
      <trkpt lat="45.73868" lon="3.20102">
        <ele>367.4</ele>
        <time>2024-04-28T09:32:20Z</time>
      </trkpt>
      <trkpt lat="45.73868" lon="3.20094">
        <ele>367.4</ele>
        <time>2024-04-28T09:32:21Z</time>
      </trkpt>
      <trkpt lat="45.73868" lon="3.20086">
        <ele>367.6</ele>
        <time>2024-04-28T09:32:22Z</time>
      </trkpt>
      <trkpt lat="45.73868" lon="3.20078">
        <ele>367.8</ele>
        <time>2024-04-28T09:32:23Z</time>
      </trkpt>
      <trkpt lat="45.73867" lon="3.2007">
        <ele>367.8</ele>
        <time>2024-04-28T09:32:24Z</time>
      </trkpt>
      <trkpt lat="45.73867" lon="3.20063">
        <ele>368</ele>
        <time>2024-04-28T09:32:25Z</time>
      </trkpt>
      <trkpt lat="45.73867" lon="3.20055">
        <ele>368.2</ele>
        <time>2024-04-28T09:32:26Z</time>
      </trkpt>
      <trkpt lat="45.73867" lon="3.20047">
        <ele>368.4</ele>
        <time>2024-04-28T09:32:27Z</time>
      </trkpt>
      <trkpt lat="45.73866" lon="3.20039">
        <ele>368.4</ele>
        <time>2024-04-28T09:32:28Z</time>
      </trkpt>
      <trkpt lat="45.73866" lon="3.20032">
        <ele>368.6</ele>
        <time>2024-04-28T09:32:29Z</time>
      </trkpt>
      <trkpt lat="45.73866" lon="3.20024">
        <ele>368.8</ele>
        <time>2024-04-28T09:32:30Z</time>
      </trkpt>
      <trkpt lat="45.73866" lon="3.20015">
        <ele>368.8</ele>
        <time>2024-04-28T09:32:31Z</time>
      </trkpt>
      <trkpt lat="45.73867" lon="3.20007">
        <ele>369</ele>
        <time>2024-04-28T09:32:32Z</time>
      </trkpt>
      <trkpt lat="45.73869" lon="3.19999">
        <ele>369.2</ele>
        <time>2024-04-28T09:32:33Z</time>
      </trkpt>
      <trkpt lat="45.7387" lon="3.19991">
        <ele>369.4</ele>
        <time>2024-04-28T09:32:34Z</time>
      </trkpt>
      <trkpt lat="45.73871" lon="3.19983">
        <ele>369.6</ele>
        <time>2024-04-28T09:32:35Z</time>
      </trkpt>
      <trkpt lat="45.73872" lon="3.19975">
        <ele>369.6</ele>
        <time>2024-04-28T09:32:36Z</time>
      </trkpt>
      <trkpt lat="45.73873" lon="3.19967">
        <ele>369.8</ele>
        <time>2024-04-28T09:32:37Z</time>
      </trkpt>
      <trkpt lat="45.73874" lon="3.19959">
        <ele>370</ele>
        <time>2024-04-28T09:32:38Z</time>
      </trkpt>
      <trkpt lat="45.73875" lon="3.19951">
        <ele>370.2</ele>
        <time>2024-04-28T09:32:39Z</time>
      </trkpt>
      <trkpt lat="45.73876" lon="3.19943">
        <ele>370.4</ele>
        <time>2024-04-28T09:32:40Z</time>
      </trkpt>
      <trkpt lat="45.73877" lon="3.19935">
        <ele>370.4</ele>
        <time>2024-04-28T09:32:41Z</time>
      </trkpt>
      <trkpt lat="45.73878" lon="3.19927">
        <ele>370.6</ele>
        <time>2024-04-28T09:32:42Z</time>
      </trkpt>
      <trkpt lat="45.73879" lon="3.19919">
        <ele>370.8</ele>
        <time>2024-04-28T09:32:43Z</time>
      </trkpt>
      <trkpt lat="45.7388" lon="3.19911">
        <ele>371</ele>
        <time>2024-04-28T09:32:44Z</time>
      </trkpt>
      <trkpt lat="45.73881" lon="3.19904">
        <ele>371.2</ele>
        <time>2024-04-28T09:32:45Z</time>
      </trkpt>
      <trkpt lat="45.73882" lon="3.19896">
        <ele>371.2</ele>
        <time>2024-04-28T09:32:46Z</time>
      </trkpt>
      <trkpt lat="45.73883" lon="3.19888">
        <ele>371.4</ele>
        <time>2024-04-28T09:32:47Z</time>
      </trkpt>
      <trkpt lat="45.73883" lon="3.19881">
        <ele>371.6</ele>
        <time>2024-04-28T09:32:48Z</time>
      </trkpt>
      <trkpt lat="45.73883" lon="3.19873">
        <ele>371.8</ele>
        <time>2024-04-28T09:32:49Z</time>
      </trkpt>
      <trkpt lat="45.73883" lon="3.19866">
        <ele>372</ele>
        <time>2024-04-28T09:32:50Z</time>
      </trkpt>
      <trkpt lat="45.73884" lon="3.19859">
        <ele>372.2</ele>
        <time>2024-04-28T09:32:51Z</time>
      </trkpt>
      <trkpt lat="45.73884" lon="3.19852">
        <ele>372.4</ele>
        <time>2024-04-28T09:32:52Z</time>
      </trkpt>
      <trkpt lat="45.73884" lon="3.19844">
        <ele>372.4</ele>
        <time>2024-04-28T09:32:53Z</time>
      </trkpt>
      <trkpt lat="45.73884" lon="3.19837">
        <ele>372.6</ele>
        <time>2024-04-28T09:32:54Z</time>
      </trkpt>
      <trkpt lat="45.73884" lon="3.1983">
        <ele>372.8</ele>
        <time>2024-04-28T09:32:55Z</time>
      </trkpt>
      <trkpt lat="45.73884" lon="3.19823">
        <ele>373</ele>
        <time>2024-04-28T09:32:56Z</time>
      </trkpt>
      <trkpt lat="45.73884" lon="3.19816">
        <ele>373</ele>
        <time>2024-04-28T09:32:57Z</time>
      </trkpt>
      <trkpt lat="45.73885" lon="3.19809">
        <ele>373.2</ele>
        <time>2024-04-28T09:32:58Z</time>
      </trkpt>
      <trkpt lat="45.73885" lon="3.19802">
        <ele>373.4</ele>
        <time>2024-04-28T09:32:59Z</time>
      </trkpt>
      <trkpt lat="45.73885" lon="3.19795">
        <ele>373.6</ele>
        <time>2024-04-28T09:33:00Z</time>
      </trkpt>
      <trkpt lat="45.73885" lon="3.19788">
        <ele>373.8</ele>
        <time>2024-04-28T09:33:01Z</time>
      </trkpt>
      <trkpt lat="45.73885" lon="3.19781">
        <ele>373.8</ele>
        <time>2024-04-28T09:33:02Z</time>
      </trkpt>
      <trkpt lat="45.73886" lon="3.19772">
        <ele>374</ele>
        <time>2024-04-28T09:33:03Z</time>
      </trkpt>
      <trkpt lat="45.73888" lon="3.19765">
        <ele>374.2</ele>
        <time>2024-04-28T09:33:04Z</time>
      </trkpt>
      <trkpt lat="45.73892" lon="3.19757">
        <ele>374.4</ele>
        <time>2024-04-28T09:33:05Z</time>
      </trkpt>
      <trkpt lat="45.73895" lon="3.19752">
        <ele>374.4</ele>
        <time>2024-04-28T09:33:06Z</time>
      </trkpt>
      <trkpt lat="45.73899" lon="3.19746">
        <ele>374.6</ele>
        <time>2024-04-28T09:33:07Z</time>
      </trkpt>
      <trkpt lat="45.73903" lon="3.1974">
        <ele>374.8</ele>
        <time>2024-04-28T09:33:08Z</time>
      </trkpt>
      <trkpt lat="45.73907" lon="3.19734">
        <ele>374.8</ele>
        <time>2024-04-28T09:33:09Z</time>
      </trkpt>
      <trkpt lat="45.73911" lon="3.19728">
        <ele>374.8</ele>
        <time>2024-04-28T09:33:10Z</time>
      </trkpt>
      <trkpt lat="45.73915" lon="3.19723">
        <ele>375</ele>
        <time>2024-04-28T09:33:11Z</time>
      </trkpt>
      <trkpt lat="45.73918" lon="3.1972">
        <ele>375.2</ele>
        <time>2024-04-28T09:33:12Z</time>
      </trkpt>
      <trkpt lat="45.7392" lon="3.19717">
        <ele>375.2</ele>
        <time>2024-04-28T09:33:13Z</time>
      </trkpt>
      <trkpt lat="45.73922" lon="3.19715">
        <ele>375.2</ele>
        <time>2024-04-28T09:33:14Z</time>
      </trkpt>
      <trkpt lat="45.73922" lon="3.19714">
        <ele>375.4</ele>
        <time>2024-04-28T09:33:15Z</time>
      </trkpt>
      <trkpt lat="45.73923" lon="3.19713">
        <ele>375.4</ele>
        <time>2024-04-28T09:33:16Z</time>
      </trkpt>
      <trkpt lat="45.73924" lon="3.19712">
        <ele>375.6</ele>
        <time>2024-04-28T09:33:17Z</time>
      </trkpt>
      <trkpt lat="45.73924" lon="3.19711">
        <ele>375.8</ele>
        <time>2024-04-28T09:33:18Z</time>
      </trkpt>
      <trkpt lat="45.73925" lon="3.1971">
        <ele>375.8</ele>
        <time>2024-04-28T09:33:19Z</time>
      </trkpt>
      <trkpt lat="45.73925" lon="3.1971">
        <ele>376</ele>
        <time>2024-04-28T09:33:20Z</time>
      </trkpt>
      <trkpt lat="45.73925" lon="3.1971">
        <ele>376.2</ele>
        <time>2024-04-28T09:33:21Z</time>
      </trkpt>
      <trkpt lat="45.73928" lon="3.19706">
        <ele>378.8</ele>
        <time>2024-04-28T09:33:50Z</time>
      </trkpt>
      <trkpt lat="45.7393" lon="3.19704">
        <ele>379</ele>
        <time>2024-04-28T09:33:51Z</time>
      </trkpt>
      <trkpt lat="45.73932" lon="3.19701">
        <ele>379</ele>
        <time>2024-04-28T09:33:52Z</time>
      </trkpt>
      <trkpt lat="45.73935" lon="3.19697">
        <ele>379.2</ele>
        <time>2024-04-28T09:33:53Z</time>
      </trkpt>
      <trkpt lat="45.73938" lon="3.19693">
        <ele>379.2</ele>
        <time>2024-04-28T09:33:54Z</time>
      </trkpt>
      <trkpt lat="45.73941" lon="3.19689">
        <ele>379.4</ele>
        <time>2024-04-28T09:33:55Z</time>
      </trkpt>
      <trkpt lat="45.73944" lon="3.19683">
        <ele>379.4</ele>
        <time>2024-04-28T09:33:56Z</time>
      </trkpt>
      <trkpt lat="45.73947" lon="3.19677">
        <ele>379.6</ele>
        <time>2024-04-28T09:33:57Z</time>
      </trkpt>
      <trkpt lat="45.7395" lon="3.19671">
        <ele>379.6</ele>
        <time>2024-04-28T09:33:58Z</time>
      </trkpt>
      <trkpt lat="45.73954" lon="3.19664">
        <ele>379.8</ele>
        <time>2024-04-28T09:33:59Z</time>
      </trkpt>
      <trkpt lat="45.73956" lon="3.19657">
        <ele>379.8</ele>
        <time>2024-04-28T09:34:00Z</time>
      </trkpt>
      <trkpt lat="45.73958" lon="3.1965">
        <ele>379.8</ele>
        <time>2024-04-28T09:34:01Z</time>
      </trkpt>
      <trkpt lat="45.7396" lon="3.19643">
        <ele>380</ele>
        <time>2024-04-28T09:34:02Z</time>
      </trkpt>
      <trkpt lat="45.73963" lon="3.19635">
        <ele>380</ele>
        <time>2024-04-28T09:34:03Z</time>
      </trkpt>
      <trkpt lat="45.73965" lon="3.19628">
        <ele>380.2</ele>
        <time>2024-04-28T09:34:04Z</time>
      </trkpt>
      <trkpt lat="45.73967" lon="3.1962">
        <ele>380.2</ele>
        <time>2024-04-28T09:34:05Z</time>
      </trkpt>
      <trkpt lat="45.73967" lon="3.19612">
        <ele>380.2</ele>
        <time>2024-04-28T09:34:06Z</time>
      </trkpt>
      <trkpt lat="45.73967" lon="3.19603">
        <ele>380.4</ele>
        <time>2024-04-28T09:34:07Z</time>
      </trkpt>
      <trkpt lat="45.73967" lon="3.19594">
        <ele>380.4</ele>
        <time>2024-04-28T09:34:08Z</time>
      </trkpt>
      <trkpt lat="45.73967" lon="3.19585">
        <ele>380.4</ele>
        <time>2024-04-28T09:34:09Z</time>
      </trkpt>
      <trkpt lat="45.73967" lon="3.19576">
        <ele>380.4</ele>
        <time>2024-04-28T09:34:10Z</time>
      </trkpt>
      <trkpt lat="45.73967" lon="3.19567">
        <ele>380.6</ele>
        <time>2024-04-28T09:34:11Z</time>
      </trkpt>
      <trkpt lat="45.73967" lon="3.19559">
        <ele>380.6</ele>
        <time>2024-04-28T09:34:12Z</time>
      </trkpt>
      <trkpt lat="45.73967" lon="3.1955">
        <ele>380.6</ele>
        <time>2024-04-28T09:34:13Z</time>
      </trkpt>
      <trkpt lat="45.73967" lon="3.19541">
        <ele>380.6</ele>
        <time>2024-04-28T09:34:14Z</time>
      </trkpt>
      <trkpt lat="45.73967" lon="3.19532">
        <ele>380.6</ele>
        <time>2024-04-28T09:34:15Z</time>
      </trkpt>
      <trkpt lat="45.73967" lon="3.19523">
        <ele>380.6</ele>
        <time>2024-04-28T09:34:16Z</time>
      </trkpt>
      <trkpt lat="45.73967" lon="3.19515">
        <ele>380.8</ele>
        <time>2024-04-28T09:34:17Z</time>
      </trkpt>
      <trkpt lat="45.73967" lon="3.19506">
        <ele>380.8</ele>
        <time>2024-04-28T09:34:18Z</time>
      </trkpt>
      <trkpt lat="45.73967" lon="3.19497">
        <ele>380.8</ele>
        <time>2024-04-28T09:34:19Z</time>
      </trkpt>
      <trkpt lat="45.73967" lon="3.19488">
        <ele>380.8</ele>
        <time>2024-04-28T09:34:20Z</time>
      </trkpt>
      <trkpt lat="45.73967" lon="3.19479">
        <ele>381</ele>
        <time>2024-04-28T09:34:21Z</time>
      </trkpt>
      <trkpt lat="45.73967" lon="3.1947">
        <ele>381</ele>
        <time>2024-04-28T09:34:22Z</time>
      </trkpt>
      <trkpt lat="45.73967" lon="3.19462">
        <ele>381</ele>
        <time>2024-04-28T09:34:23Z</time>
      </trkpt>
      <trkpt lat="45.73967" lon="3.19452">
        <ele>381.2</ele>
        <time>2024-04-28T09:34:24Z</time>
      </trkpt>
      <trkpt lat="45.73968" lon="3.19444">
        <ele>381.2</ele>
        <time>2024-04-28T09:34:25Z</time>
      </trkpt>
      <trkpt lat="45.7397" lon="3.19436">
        <ele>381.2</ele>
        <time>2024-04-28T09:34:26Z</time>
      </trkpt>
      <trkpt lat="45.73971" lon="3.19428">
        <ele>381.2</ele>
        <time>2024-04-28T09:34:27Z</time>
      </trkpt>
      <trkpt lat="45.73972" lon="3.1942">
        <ele>381.2</ele>
        <time>2024-04-28T09:34:28Z</time>
      </trkpt>
      <trkpt lat="45.73973" lon="3.19411">
        <ele>381.2</ele>
        <time>2024-04-28T09:34:29Z</time>
      </trkpt>
      <trkpt lat="45.73974" lon="3.19403">
        <ele>381.4</ele>
        <time>2024-04-28T09:34:30Z</time>
      </trkpt>
      <trkpt lat="45.73976" lon="3.19394">
        <ele>381.4</ele>
        <time>2024-04-28T09:34:31Z</time>
      </trkpt>
      <trkpt lat="45.73977" lon="3.19386">
        <ele>381.6</ele>
        <time>2024-04-28T09:34:32Z</time>
      </trkpt>
      <trkpt lat="45.73978" lon="3.19377">
        <ele>381.6</ele>
        <time>2024-04-28T09:34:33Z</time>
      </trkpt>
      <trkpt lat="45.73979" lon="3.19368">
        <ele>381.6</ele>
        <time>2024-04-28T09:34:34Z</time>
      </trkpt>
      <trkpt lat="45.73981" lon="3.1936">
        <ele>381.8</ele>
        <time>2024-04-28T09:34:35Z</time>
      </trkpt>
      <trkpt lat="45.73983" lon="3.19352">
        <ele>381.8</ele>
        <time>2024-04-28T09:34:36Z</time>
      </trkpt>
      <trkpt lat="45.73986" lon="3.19343">
        <ele>381.8</ele>
        <time>2024-04-28T09:34:37Z</time>
      </trkpt>
      <trkpt lat="45.73988" lon="3.19334">
        <ele>381.8</ele>
        <time>2024-04-28T09:34:38Z</time>
      </trkpt>
      <trkpt lat="45.7399" lon="3.19326">
        <ele>381.8</ele>
        <time>2024-04-28T09:34:39Z</time>
      </trkpt>
      <trkpt lat="45.73992" lon="3.19317">
        <ele>381.8</ele>
        <time>2024-04-28T09:34:40Z</time>
      </trkpt>
      <trkpt lat="45.73994" lon="3.19309">
        <ele>382</ele>
        <time>2024-04-28T09:34:41Z</time>
      </trkpt>
      <trkpt lat="45.73996" lon="3.19301">
        <ele>382</ele>
        <time>2024-04-28T09:34:42Z</time>
      </trkpt>
      <trkpt lat="45.73999" lon="3.19292">
        <ele>382</ele>
        <time>2024-04-28T09:34:43Z</time>
      </trkpt>
      <trkpt lat="45.74003" lon="3.19284">
        <ele>382</ele>
        <time>2024-04-28T09:34:44Z</time>
      </trkpt>
      <trkpt lat="45.74007" lon="3.19277">
        <ele>382</ele>
        <time>2024-04-28T09:34:45Z</time>
      </trkpt>
      <trkpt lat="45.74009" lon="3.19269">
        <ele>382</ele>
        <time>2024-04-28T09:34:46Z</time>
      </trkpt>
      <trkpt lat="45.74011" lon="3.19261">
        <ele>382.2</ele>
        <time>2024-04-28T09:34:47Z</time>
      </trkpt>
      <trkpt lat="45.74013" lon="3.19253">
        <ele>382.2</ele>
        <time>2024-04-28T09:34:48Z</time>
      </trkpt>
      <trkpt lat="45.74015" lon="3.19245">
        <ele>382.2</ele>
        <time>2024-04-28T09:34:49Z</time>
      </trkpt>
      <trkpt lat="45.74016" lon="3.19237">
        <ele>382.4</ele>
        <time>2024-04-28T09:34:50Z</time>
      </trkpt>
      <trkpt lat="45.74018" lon="3.19228">
        <ele>382.4</ele>
        <time>2024-04-28T09:34:51Z</time>
      </trkpt>
      <trkpt lat="45.7402" lon="3.1922">
        <ele>382.4</ele>
        <time>2024-04-28T09:34:52Z</time>
      </trkpt>
      <trkpt lat="45.74022" lon="3.19211">
        <ele>382.6</ele>
        <time>2024-04-28T09:34:53Z</time>
      </trkpt>
      <trkpt lat="45.74024" lon="3.19202">
        <ele>382.6</ele>
        <time>2024-04-28T09:34:54Z</time>
      </trkpt>
      <trkpt lat="45.74025" lon="3.19194">
        <ele>382.8</ele>
        <time>2024-04-28T09:34:55Z</time>
      </trkpt>
      <trkpt lat="45.74026" lon="3.19185">
        <ele>382.8</ele>
        <time>2024-04-28T09:34:56Z</time>
      </trkpt>
      <trkpt lat="45.74027" lon="3.19176">
        <ele>383</ele>
        <time>2024-04-28T09:34:57Z</time>
      </trkpt>
      <trkpt lat="45.74029" lon="3.19167">
        <ele>383</ele>
        <time>2024-04-28T09:34:58Z</time>
      </trkpt>
      <trkpt lat="45.7403" lon="3.19158">
        <ele>383.2</ele>
        <time>2024-04-28T09:34:59Z</time>
      </trkpt>
      <trkpt lat="45.74031" lon="3.19149">
        <ele>383.2</ele>
        <time>2024-04-28T09:35:00Z</time>
      </trkpt>
      <trkpt lat="45.74032" lon="3.19141">
        <ele>383.4</ele>
        <time>2024-04-28T09:35:01Z</time>
      </trkpt>
      <trkpt lat="45.74034" lon="3.19132">
        <ele>383.4</ele>
        <time>2024-04-28T09:35:02Z</time>
      </trkpt>
      <trkpt lat="45.74035" lon="3.19123">
        <ele>383.6</ele>
        <time>2024-04-28T09:35:03Z</time>
      </trkpt>
      <trkpt lat="45.74036" lon="3.19115">
        <ele>383.6</ele>
        <time>2024-04-28T09:35:04Z</time>
      </trkpt>
      <trkpt lat="45.74037" lon="3.19106">
        <ele>383.8</ele>
        <time>2024-04-28T09:35:05Z</time>
      </trkpt>
      <trkpt lat="45.74038" lon="3.19097">
        <ele>383.8</ele>
        <time>2024-04-28T09:35:06Z</time>
      </trkpt>
      <trkpt lat="45.7404" lon="3.19088">
        <ele>384</ele>
        <time>2024-04-28T09:35:07Z</time>
      </trkpt>
      <trkpt lat="45.74041" lon="3.1908">
        <ele>384</ele>
        <time>2024-04-28T09:35:08Z</time>
      </trkpt>
      <trkpt lat="45.74042" lon="3.19071">
        <ele>384.2</ele>
        <time>2024-04-28T09:35:09Z</time>
      </trkpt>
      <trkpt lat="45.74043" lon="3.19062">
        <ele>384.2</ele>
        <time>2024-04-28T09:35:10Z</time>
      </trkpt>
      <trkpt lat="45.74045" lon="3.19054">
        <ele>384.4</ele>
        <time>2024-04-28T09:35:11Z</time>
      </trkpt>
      <trkpt lat="45.74046" lon="3.19045">
        <ele>384.4</ele>
        <time>2024-04-28T09:35:12Z</time>
      </trkpt>
      <trkpt lat="45.74047" lon="3.19036">
        <ele>384.6</ele>
        <time>2024-04-28T09:35:13Z</time>
      </trkpt>
      <trkpt lat="45.74048" lon="3.19027">
        <ele>384.8</ele>
        <time>2024-04-28T09:35:14Z</time>
      </trkpt>
      <trkpt lat="45.74049" lon="3.19019">
        <ele>384.8</ele>
        <time>2024-04-28T09:35:15Z</time>
      </trkpt>
      <trkpt lat="45.74051" lon="3.1901">
        <ele>385</ele>
        <time>2024-04-28T09:35:16Z</time>
      </trkpt>
      <trkpt lat="45.74052" lon="3.19002">
        <ele>385</ele>
        <time>2024-04-28T09:35:17Z</time>
      </trkpt>
      <trkpt lat="45.74053" lon="3.18993">
        <ele>385.2</ele>
        <time>2024-04-28T09:35:18Z</time>
      </trkpt>
      <trkpt lat="45.74054" lon="3.18984">
        <ele>385.2</ele>
        <time>2024-04-28T09:35:19Z</time>
      </trkpt>
      <trkpt lat="45.74055" lon="3.18976">
        <ele>385.2</ele>
        <time>2024-04-28T09:35:20Z</time>
      </trkpt>
      <trkpt lat="45.74057" lon="3.18968">
        <ele>385.4</ele>
        <time>2024-04-28T09:35:21Z</time>
      </trkpt>
      <trkpt lat="45.74058" lon="3.18959">
        <ele>385.4</ele>
        <time>2024-04-28T09:35:22Z</time>
      </trkpt>
      <trkpt lat="45.74059" lon="3.18951">
        <ele>385.4</ele>
        <time>2024-04-28T09:35:23Z</time>
      </trkpt>
      <trkpt lat="45.7406" lon="3.18942">
        <ele>385.6</ele>
        <time>2024-04-28T09:35:24Z</time>
      </trkpt>
      <trkpt lat="45.74062" lon="3.18934">
        <ele>385.8</ele>
        <time>2024-04-28T09:35:25Z</time>
      </trkpt>
      <trkpt lat="45.74063" lon="3.18925">
        <ele>385.8</ele>
        <time>2024-04-28T09:35:26Z</time>
      </trkpt>
      <trkpt lat="45.74064" lon="3.18917">
        <ele>385.8</ele>
        <time>2024-04-28T09:35:27Z</time>
      </trkpt>
      <trkpt lat="45.74066" lon="3.18908">
        <ele>386</ele>
        <time>2024-04-28T09:35:28Z</time>
      </trkpt>
      <trkpt lat="45.74067" lon="3.18899">
        <ele>386</ele>
        <time>2024-04-28T09:35:29Z</time>
      </trkpt>
      <trkpt lat="45.74068" lon="3.18891">
        <ele>386</ele>
        <time>2024-04-28T09:35:30Z</time>
      </trkpt>
      <trkpt lat="45.7407" lon="3.18882">
        <ele>386.2</ele>
        <time>2024-04-28T09:35:31Z</time>
      </trkpt>
      <trkpt lat="45.74071" lon="3.18873">
        <ele>386.2</ele>
        <time>2024-04-28T09:35:32Z</time>
      </trkpt>
      <trkpt lat="45.74072" lon="3.18864">
        <ele>386.4</ele>
        <time>2024-04-28T09:35:33Z</time>
      </trkpt>
      <trkpt lat="45.74074" lon="3.18855">
        <ele>386.4</ele>
        <time>2024-04-28T09:35:34Z</time>
      </trkpt>
      <trkpt lat="45.74075" lon="3.18845">
        <ele>386.6</ele>
        <time>2024-04-28T09:35:35Z</time>
      </trkpt>
      <trkpt lat="45.74076" lon="3.18836">
        <ele>386.6</ele>
        <time>2024-04-28T09:35:36Z</time>
      </trkpt>
      <trkpt lat="45.74077" lon="3.18827">
        <ele>386.8</ele>
        <time>2024-04-28T09:35:37Z</time>
      </trkpt>
      <trkpt lat="45.74077" lon="3.18818">
        <ele>386.8</ele>
        <time>2024-04-28T09:35:38Z</time>
      </trkpt>
      <trkpt lat="45.74078" lon="3.18808">
        <ele>387</ele>
        <time>2024-04-28T09:35:39Z</time>
      </trkpt>
      <trkpt lat="45.74078" lon="3.18799">
        <ele>387</ele>
        <time>2024-04-28T09:35:40Z</time>
      </trkpt>
      <trkpt lat="45.74079" lon="3.1879">
        <ele>387</ele>
        <time>2024-04-28T09:35:41Z</time>
      </trkpt>
      <trkpt lat="45.7408" lon="3.18781">
        <ele>387</ele>
        <time>2024-04-28T09:35:42Z</time>
      </trkpt>
      <trkpt lat="45.74081" lon="3.18772">
        <ele>387.2</ele>
        <time>2024-04-28T09:35:43Z</time>
      </trkpt>
      <trkpt lat="45.74082" lon="3.18762">
        <ele>387.2</ele>
        <time>2024-04-28T09:35:44Z</time>
      </trkpt>
      <trkpt lat="45.74082" lon="3.18753">
        <ele>387.2</ele>
        <time>2024-04-28T09:35:45Z</time>
      </trkpt>
      <trkpt lat="45.74083" lon="3.18743">
        <ele>387.2</ele>
        <time>2024-04-28T09:35:46Z</time>
      </trkpt>
      <trkpt lat="45.74084" lon="3.18734">
        <ele>387.4</ele>
        <time>2024-04-28T09:35:47Z</time>
      </trkpt>
      <trkpt lat="45.74085" lon="3.18724">
        <ele>387.4</ele>
        <time>2024-04-28T09:35:48Z</time>
      </trkpt>
      <trkpt lat="45.74085" lon="3.18714">
        <ele>387.4</ele>
        <time>2024-04-28T09:35:49Z</time>
      </trkpt>
      <trkpt lat="45.74086" lon="3.18703">
        <ele>387.6</ele>
        <time>2024-04-28T09:35:50Z</time>
      </trkpt>
      <trkpt lat="45.74086" lon="3.18693">
        <ele>387.6</ele>
        <time>2024-04-28T09:35:51Z</time>
      </trkpt>
      <trkpt lat="45.74087" lon="3.18683">
        <ele>387.6</ele>
        <time>2024-04-28T09:35:52Z</time>
      </trkpt>
      <trkpt lat="45.74087" lon="3.18672">
        <ele>387.8</ele>
        <time>2024-04-28T09:35:53Z</time>
      </trkpt>
      <trkpt lat="45.74088" lon="3.18662">
        <ele>387.8</ele>
        <time>2024-04-28T09:35:54Z</time>
      </trkpt>
      <trkpt lat="45.74089" lon="3.18651">
        <ele>387.8</ele>
        <time>2024-04-28T09:35:55Z</time>
      </trkpt>
      <trkpt lat="45.74089" lon="3.18641">
        <ele>387.8</ele>
        <time>2024-04-28T09:35:56Z</time>
      </trkpt>
      <trkpt lat="45.7409" lon="3.18631">
        <ele>388</ele>
        <time>2024-04-28T09:35:57Z</time>
      </trkpt>
      <trkpt lat="45.7409" lon="3.18621">
        <ele>388.2</ele>
        <time>2024-04-28T09:35:58Z</time>
      </trkpt>
      <trkpt lat="45.74091" lon="3.1861">
        <ele>388.2</ele>
        <time>2024-04-28T09:35:59Z</time>
      </trkpt>
      <trkpt lat="45.74091" lon="3.186">
        <ele>388.4</ele>
        <time>2024-04-28T09:36:00Z</time>
      </trkpt>
      <trkpt lat="45.74092" lon="3.18589">
        <ele>388.4</ele>
        <time>2024-04-28T09:36:01Z</time>
      </trkpt>
      <trkpt lat="45.74092" lon="3.18579">
        <ele>388.4</ele>
        <time>2024-04-28T09:36:02Z</time>
      </trkpt>
      <trkpt lat="45.74092" lon="3.18568">
        <ele>388.6</ele>
        <time>2024-04-28T09:36:03Z</time>
      </trkpt>
      <trkpt lat="45.74093" lon="3.18557">
        <ele>388.6</ele>
        <time>2024-04-28T09:36:04Z</time>
      </trkpt>
      <trkpt lat="45.74093" lon="3.18547">
        <ele>388.6</ele>
        <time>2024-04-28T09:36:05Z</time>
      </trkpt>
      <trkpt lat="45.74094" lon="3.18537">
        <ele>388.8</ele>
        <time>2024-04-28T09:36:06Z</time>
      </trkpt>
      <trkpt lat="45.74095" lon="3.18527">
        <ele>388.8</ele>
        <time>2024-04-28T09:36:07Z</time>
      </trkpt>
      <trkpt lat="45.74096" lon="3.18517">
        <ele>388.8</ele>
        <time>2024-04-28T09:36:08Z</time>
      </trkpt>
      <trkpt lat="45.74097" lon="3.18506">
        <ele>389</ele>
        <time>2024-04-28T09:36:09Z</time>
      </trkpt>
      <trkpt lat="45.74098" lon="3.18496">
        <ele>389</ele>
        <time>2024-04-28T09:36:10Z</time>
      </trkpt>
      <trkpt lat="45.74099" lon="3.18486">
        <ele>389</ele>
        <time>2024-04-28T09:36:11Z</time>
      </trkpt>
      <trkpt lat="45.741" lon="3.18476">
        <ele>389</ele>
        <time>2024-04-28T09:36:12Z</time>
      </trkpt>
      <trkpt lat="45.74102" lon="3.18466">
        <ele>389</ele>
        <time>2024-04-28T09:36:13Z</time>
      </trkpt>
      <trkpt lat="45.74103" lon="3.18457">
        <ele>389.2</ele>
        <time>2024-04-28T09:36:14Z</time>
      </trkpt>
      <trkpt lat="45.74104" lon="3.18447">
        <ele>389.2</ele>
        <time>2024-04-28T09:36:15Z</time>
      </trkpt>
      <trkpt lat="45.74106" lon="3.18438">
        <ele>389.4</ele>
        <time>2024-04-28T09:36:16Z</time>
      </trkpt>
      <trkpt lat="45.74107" lon="3.18428">
        <ele>389.4</ele>
        <time>2024-04-28T09:36:17Z</time>
      </trkpt>
      <trkpt lat="45.74109" lon="3.18418">
        <ele>389.6</ele>
        <time>2024-04-28T09:36:18Z</time>
      </trkpt>
      <trkpt lat="45.74111" lon="3.18409">
        <ele>389.6</ele>
        <time>2024-04-28T09:36:19Z</time>
      </trkpt>
      <trkpt lat="45.74114" lon="3.18399">
        <ele>389.8</ele>
        <time>2024-04-28T09:36:20Z</time>
      </trkpt>
      <trkpt lat="45.74116" lon="3.1839">
        <ele>389.8</ele>
        <time>2024-04-28T09:36:21Z</time>
      </trkpt>
      <trkpt lat="45.74119" lon="3.1838">
        <ele>390</ele>
        <time>2024-04-28T09:36:22Z</time>
      </trkpt>
      <trkpt lat="45.74122" lon="3.18371">
        <ele>390</ele>
        <time>2024-04-28T09:36:23Z</time>
      </trkpt>
      <trkpt lat="45.74124" lon="3.18362">
        <ele>390.2</ele>
        <time>2024-04-28T09:36:24Z</time>
      </trkpt>
      <trkpt lat="45.74127" lon="3.18353">
        <ele>390.4</ele>
        <time>2024-04-28T09:36:25Z</time>
      </trkpt>
      <trkpt lat="45.74129" lon="3.18344">
        <ele>390.4</ele>
        <time>2024-04-28T09:36:26Z</time>
      </trkpt>
      <trkpt lat="45.74132" lon="3.18334">
        <ele>390.6</ele>
        <time>2024-04-28T09:36:27Z</time>
      </trkpt>
      <trkpt lat="45.74135" lon="3.18325">
        <ele>390.6</ele>
        <time>2024-04-28T09:36:28Z</time>
      </trkpt>
      <trkpt lat="45.74138" lon="3.18317">
        <ele>390.8</ele>
        <time>2024-04-28T09:36:29Z</time>
      </trkpt>
      <trkpt lat="45.74142" lon="3.18308">
        <ele>390.8</ele>
        <time>2024-04-28T09:36:30Z</time>
      </trkpt>
      <trkpt lat="45.74146" lon="3.18299">
        <ele>391</ele>
        <time>2024-04-28T09:36:31Z</time>
      </trkpt>
      <trkpt lat="45.7415" lon="3.1829">
        <ele>391</ele>
        <time>2024-04-28T09:36:32Z</time>
      </trkpt>
      <trkpt lat="45.74154" lon="3.18281">
        <ele>391</ele>
        <time>2024-04-28T09:36:33Z</time>
      </trkpt>
      <trkpt lat="45.74158" lon="3.18272">
        <ele>391</ele>
        <time>2024-04-28T09:36:34Z</time>
      </trkpt>
      <trkpt lat="45.74162" lon="3.18263">
        <ele>391</ele>
        <time>2024-04-28T09:36:35Z</time>
      </trkpt>
      <trkpt lat="45.74166" lon="3.18254">
        <ele>391</ele>
        <time>2024-04-28T09:36:36Z</time>
      </trkpt>
      <trkpt lat="45.7417" lon="3.18244">
        <ele>391</ele>
        <time>2024-04-28T09:36:37Z</time>
      </trkpt>
      <trkpt lat="45.74173" lon="3.18235">
        <ele>391</ele>
        <time>2024-04-28T09:36:38Z</time>
      </trkpt>
      <trkpt lat="45.74177" lon="3.18227">
        <ele>391</ele>
        <time>2024-04-28T09:36:39Z</time>
      </trkpt>
      <trkpt lat="45.74181" lon="3.18218">
        <ele>390.8</ele>
        <time>2024-04-28T09:36:40Z</time>
      </trkpt>
      <trkpt lat="45.74185" lon="3.1821">
        <ele>390.8</ele>
        <time>2024-04-28T09:36:41Z</time>
      </trkpt>
      <trkpt lat="45.74188" lon="3.18201">
        <ele>390.8</ele>
        <time>2024-04-28T09:36:42Z</time>
      </trkpt>
      <trkpt lat="45.74192" lon="3.18192">
        <ele>390.8</ele>
        <time>2024-04-28T09:36:43Z</time>
      </trkpt>
      <trkpt lat="45.74196" lon="3.18183">
        <ele>390.8</ele>
        <time>2024-04-28T09:36:44Z</time>
      </trkpt>
      <trkpt lat="45.742" lon="3.18174">
        <ele>390.8</ele>
        <time>2024-04-28T09:36:45Z</time>
      </trkpt>
      <trkpt lat="45.74204" lon="3.18165">
        <ele>390.8</ele>
        <time>2024-04-28T09:36:46Z</time>
      </trkpt>
      <trkpt lat="45.74207" lon="3.18157">
        <ele>390.8</ele>
        <time>2024-04-28T09:36:47Z</time>
      </trkpt>
      <trkpt lat="45.74211" lon="3.18148">
        <ele>390.8</ele>
        <time>2024-04-28T09:36:48Z</time>
      </trkpt>
      <trkpt lat="45.74215" lon="3.18139">
        <ele>390.8</ele>
        <time>2024-04-28T09:36:49Z</time>
      </trkpt>
      <trkpt lat="45.74219" lon="3.18131">
        <ele>390.8</ele>
        <time>2024-04-28T09:36:50Z</time>
      </trkpt>
      <trkpt lat="45.74222" lon="3.18122">
        <ele>390.8</ele>
        <time>2024-04-28T09:36:51Z</time>
      </trkpt>
      <trkpt lat="45.74226" lon="3.18114">
        <ele>390.8</ele>
        <time>2024-04-28T09:36:52Z</time>
      </trkpt>
      <trkpt lat="45.7423" lon="3.18105">
        <ele>390.8</ele>
        <time>2024-04-28T09:36:53Z</time>
      </trkpt>
      <trkpt lat="45.74234" lon="3.18096">
        <ele>390.8</ele>
        <time>2024-04-28T09:36:54Z</time>
      </trkpt>
      <trkpt lat="45.74237" lon="3.18087">
        <ele>391.2</ele>
        <time>2024-04-28T09:36:55Z</time>
      </trkpt>
      <trkpt lat="45.74241" lon="3.18078">
        <ele>390.8</ele>
        <time>2024-04-28T09:36:56Z</time>
      </trkpt>
      <trkpt lat="45.74245" lon="3.18069">
        <ele>390.6</ele>
        <time>2024-04-28T09:36:57Z</time>
      </trkpt>
      <trkpt lat="45.74248" lon="3.1806">
        <ele>390.6</ele>
        <time>2024-04-28T09:36:58Z</time>
      </trkpt>
      <trkpt lat="45.74252" lon="3.18051">
        <ele>390.6</ele>
        <time>2024-04-28T09:36:59Z</time>
      </trkpt>
      <trkpt lat="45.74256" lon="3.18042">
        <ele>390.6</ele>
        <time>2024-04-28T09:37:00Z</time>
      </trkpt>
      <trkpt lat="45.7426" lon="3.18033">
        <ele>390.8</ele>
        <time>2024-04-28T09:37:01Z</time>
      </trkpt>
      <trkpt lat="45.74264" lon="3.18023">
        <ele>390.6</ele>
        <time>2024-04-28T09:37:02Z</time>
      </trkpt>
      <trkpt lat="45.74268" lon="3.18014">
        <ele>390.6</ele>
        <time>2024-04-28T09:37:03Z</time>
      </trkpt>
      <trkpt lat="45.74272" lon="3.18005">
        <ele>390.8</ele>
        <time>2024-04-28T09:37:04Z</time>
      </trkpt>
      <trkpt lat="45.74276" lon="3.17996">
        <ele>390.8</ele>
        <time>2024-04-28T09:37:05Z</time>
      </trkpt>
      <trkpt lat="45.7428" lon="3.17987">
        <ele>390.8</ele>
        <time>2024-04-28T09:37:06Z</time>
      </trkpt>
      <trkpt lat="45.74284" lon="3.17978">
        <ele>390.6</ele>
        <time>2024-04-28T09:37:07Z</time>
      </trkpt>
      <trkpt lat="45.74288" lon="3.1797">
        <ele>390.6</ele>
        <time>2024-04-28T09:37:08Z</time>
      </trkpt>
      <trkpt lat="45.74292" lon="3.17961">
        <ele>390.6</ele>
        <time>2024-04-28T09:37:09Z</time>
      </trkpt>
      <trkpt lat="45.74296" lon="3.17952">
        <ele>390.4</ele>
        <time>2024-04-28T09:37:10Z</time>
      </trkpt>
      <trkpt lat="45.743" lon="3.17944">
        <ele>390.4</ele>
        <time>2024-04-28T09:37:11Z</time>
      </trkpt>
      <trkpt lat="45.74304" lon="3.17936">
        <ele>390.4</ele>
        <time>2024-04-28T09:37:12Z</time>
      </trkpt>
      <trkpt lat="45.74307" lon="3.17927">
        <ele>390.4</ele>
        <time>2024-04-28T09:37:13Z</time>
      </trkpt>
      <trkpt lat="45.74311" lon="3.17919">
        <ele>390.2</ele>
        <time>2024-04-28T09:37:14Z</time>
      </trkpt>
      <trkpt lat="45.74315" lon="3.17911">
        <ele>390.2</ele>
        <time>2024-04-28T09:37:15Z</time>
      </trkpt>
      <trkpt lat="45.74319" lon="3.17902">
        <ele>390.2</ele>
        <time>2024-04-28T09:37:16Z</time>
      </trkpt>
      <trkpt lat="45.74323" lon="3.17894">
        <ele>390.2</ele>
        <time>2024-04-28T09:37:17Z</time>
      </trkpt>
      <trkpt lat="45.74327" lon="3.17886">
        <ele>390.2</ele>
        <time>2024-04-28T09:37:18Z</time>
      </trkpt>
      <trkpt lat="45.74331" lon="3.17879">
        <ele>390.2</ele>
        <time>2024-04-28T09:37:19Z</time>
      </trkpt>
      <trkpt lat="45.74336" lon="3.17871">
        <ele>390</ele>
        <time>2024-04-28T09:37:20Z</time>
      </trkpt>
      <trkpt lat="45.7434" lon="3.17863">
        <ele>390</ele>
        <time>2024-04-28T09:37:21Z</time>
      </trkpt>
      <trkpt lat="45.74345" lon="3.17856">
        <ele>390</ele>
        <time>2024-04-28T09:37:22Z</time>
      </trkpt>
      <trkpt lat="45.74349" lon="3.17848">
        <ele>390</ele>
        <time>2024-04-28T09:37:23Z</time>
      </trkpt>
      <trkpt lat="45.74354" lon="3.17839">
        <ele>389.8</ele>
        <time>2024-04-28T09:37:24Z</time>
      </trkpt>
      <trkpt lat="45.74358" lon="3.17832">
        <ele>390</ele>
        <time>2024-04-28T09:37:25Z</time>
      </trkpt>
      <trkpt lat="45.74363" lon="3.17824">
        <ele>389.8</ele>
        <time>2024-04-28T09:37:26Z</time>
      </trkpt>
      <trkpt lat="45.74369" lon="3.17817">
        <ele>389.8</ele>
        <time>2024-04-28T09:37:27Z</time>
      </trkpt>
      <trkpt lat="45.74375" lon="3.17811">
        <ele>389.8</ele>
        <time>2024-04-28T09:37:28Z</time>
      </trkpt>
      <trkpt lat="45.74381" lon="3.17805">
        <ele>389.8</ele>
        <time>2024-04-28T09:37:29Z</time>
      </trkpt>
      <trkpt lat="45.74387" lon="3.178">
        <ele>389.8</ele>
        <time>2024-04-28T09:37:30Z</time>
      </trkpt>
      <trkpt lat="45.74393" lon="3.17794">
        <ele>389.8</ele>
        <time>2024-04-28T09:37:31Z</time>
      </trkpt>
      <trkpt lat="45.74398" lon="3.17788">
        <ele>389.8</ele>
        <time>2024-04-28T09:37:32Z</time>
      </trkpt>
      <trkpt lat="45.74404" lon="3.17782">
        <ele>390</ele>
        <time>2024-04-28T09:37:33Z</time>
      </trkpt>
      <trkpt lat="45.7441" lon="3.17776">
        <ele>389.8</ele>
        <time>2024-04-28T09:37:34Z</time>
      </trkpt>
      <trkpt lat="45.74419" lon="3.17775">
        <ele>389.8</ele>
        <time>2024-04-28T09:37:35Z</time>
      </trkpt>
      <trkpt lat="45.74423" lon="3.17772">
        <ele>389.6</ele>
        <time>2024-04-28T09:37:36Z</time>
      </trkpt>
      <trkpt lat="45.74429" lon="3.17768">
        <ele>389.6</ele>
        <time>2024-04-28T09:37:37Z</time>
      </trkpt>
      <trkpt lat="45.74432" lon="3.17758">
        <ele>389.8</ele>
        <time>2024-04-28T09:37:38Z</time>
      </trkpt>
      <trkpt lat="45.74435" lon="3.17749">
        <ele>389.8</ele>
        <time>2024-04-28T09:37:39Z</time>
      </trkpt>
      <trkpt lat="45.74438" lon="3.17741">
        <ele>389.8</ele>
        <time>2024-04-28T09:37:40Z</time>
      </trkpt>
      <trkpt lat="45.74443" lon="3.17733">
        <ele>389.8</ele>
        <time>2024-04-28T09:37:41Z</time>
      </trkpt>
      <trkpt lat="45.74447" lon="3.17724">
        <ele>389.8</ele>
        <time>2024-04-28T09:37:42Z</time>
      </trkpt>
      <trkpt lat="45.74451" lon="3.17715">
        <ele>389.8</ele>
        <time>2024-04-28T09:37:43Z</time>
      </trkpt>
      <trkpt lat="45.74455" lon="3.17707">
        <ele>389.8</ele>
        <time>2024-04-28T09:37:44Z</time>
      </trkpt>
      <trkpt lat="45.74459" lon="3.17698">
        <ele>389.8</ele>
        <time>2024-04-28T09:37:45Z</time>
      </trkpt>
      <trkpt lat="45.74464" lon="3.17689">
        <ele>389.8</ele>
        <time>2024-04-28T09:37:46Z</time>
      </trkpt>
      <trkpt lat="45.74468" lon="3.17681">
        <ele>389.4</ele>
        <time>2024-04-28T09:37:47Z</time>
      </trkpt>
      <trkpt lat="45.74473" lon="3.17672">
        <ele>389.2</ele>
        <time>2024-04-28T09:37:48Z</time>
      </trkpt>
      <trkpt lat="45.74478" lon="3.17664">
        <ele>389</ele>
        <time>2024-04-28T09:37:49Z</time>
      </trkpt>
      <trkpt lat="45.74483" lon="3.17655">
        <ele>388.8</ele>
        <time>2024-04-28T09:37:50Z</time>
      </trkpt>
      <trkpt lat="45.74489" lon="3.17647">
        <ele>388.8</ele>
        <time>2024-04-28T09:37:51Z</time>
      </trkpt>
      <trkpt lat="45.74494" lon="3.17639">
        <ele>388.8</ele>
        <time>2024-04-28T09:37:52Z</time>
      </trkpt>
      <trkpt lat="45.74499" lon="3.17631">
        <ele>388.8</ele>
        <time>2024-04-28T09:37:53Z</time>
      </trkpt>
      <trkpt lat="45.74504" lon="3.17623">
        <ele>388.6</ele>
        <time>2024-04-28T09:37:54Z</time>
      </trkpt>
      <trkpt lat="45.74509" lon="3.17615">
        <ele>388.6</ele>
        <time>2024-04-28T09:37:55Z</time>
      </trkpt>
      <trkpt lat="45.74514" lon="3.17607">
        <ele>388.6</ele>
        <time>2024-04-28T09:37:56Z</time>
      </trkpt>
      <trkpt lat="45.74519" lon="3.17598">
        <ele>388.6</ele>
        <time>2024-04-28T09:37:57Z</time>
      </trkpt>
      <trkpt lat="45.74524" lon="3.1759">
        <ele>388.4</ele>
        <time>2024-04-28T09:37:58Z</time>
      </trkpt>
      <trkpt lat="45.74529" lon="3.17581">
        <ele>388.4</ele>
        <time>2024-04-28T09:37:59Z</time>
      </trkpt>
      <trkpt lat="45.74534" lon="3.17573">
        <ele>388.2</ele>
        <time>2024-04-28T09:38:00Z</time>
      </trkpt>
      <trkpt lat="45.74539" lon="3.17564">
        <ele>388</ele>
        <time>2024-04-28T09:38:01Z</time>
      </trkpt>
      <trkpt lat="45.74544" lon="3.17555">
        <ele>387.8</ele>
        <time>2024-04-28T09:38:02Z</time>
      </trkpt>
      <trkpt lat="45.74549" lon="3.17547">
        <ele>387.8</ele>
        <time>2024-04-28T09:38:03Z</time>
      </trkpt>
      <trkpt lat="45.74554" lon="3.17538">
        <ele>387.6</ele>
        <time>2024-04-28T09:38:04Z</time>
      </trkpt>
      <trkpt lat="45.74559" lon="3.17529">
        <ele>387.6</ele>
        <time>2024-04-28T09:38:05Z</time>
      </trkpt>
      <trkpt lat="45.74564" lon="3.17521">
        <ele>387.4</ele>
        <time>2024-04-28T09:38:06Z</time>
      </trkpt>
      <trkpt lat="45.74569" lon="3.17512">
        <ele>387.4</ele>
        <time>2024-04-28T09:38:07Z</time>
      </trkpt>
      <trkpt lat="45.74574" lon="3.17504">
        <ele>387.4</ele>
        <time>2024-04-28T09:38:08Z</time>
      </trkpt>
      <trkpt lat="45.74579" lon="3.17495">
        <ele>387.2</ele>
        <time>2024-04-28T09:38:09Z</time>
      </trkpt>
      <trkpt lat="45.74584" lon="3.17487">
        <ele>387</ele>
        <time>2024-04-28T09:38:10Z</time>
      </trkpt>
      <trkpt lat="45.74589" lon="3.17478">
        <ele>387</ele>
        <time>2024-04-28T09:38:11Z</time>
      </trkpt>
      <trkpt lat="45.74594" lon="3.1747">
        <ele>387</ele>
        <time>2024-04-28T09:38:12Z</time>
      </trkpt>
      <trkpt lat="45.74599" lon="3.17461">
        <ele>387</ele>
        <time>2024-04-28T09:38:13Z</time>
      </trkpt>
      <trkpt lat="45.74604" lon="3.17453">
        <ele>386.8</ele>
        <time>2024-04-28T09:38:14Z</time>
      </trkpt>
      <trkpt lat="45.74609" lon="3.17444">
        <ele>386.8</ele>
        <time>2024-04-28T09:38:15Z</time>
      </trkpt>
      <trkpt lat="45.74614" lon="3.17435">
        <ele>386.6</ele>
        <time>2024-04-28T09:38:16Z</time>
      </trkpt>
      <trkpt lat="45.74618" lon="3.17426">
        <ele>386.4</ele>
        <time>2024-04-28T09:38:17Z</time>
      </trkpt>
      <trkpt lat="45.74622" lon="3.17416">
        <ele>386.2</ele>
        <time>2024-04-28T09:38:18Z</time>
      </trkpt>
      <trkpt lat="45.74627" lon="3.17407">
        <ele>386.2</ele>
        <time>2024-04-28T09:38:19Z</time>
      </trkpt>
      <trkpt lat="45.74631" lon="3.17397">
        <ele>386</ele>
        <time>2024-04-28T09:38:20Z</time>
      </trkpt>
      <trkpt lat="45.74635" lon="3.17387">
        <ele>386</ele>
        <time>2024-04-28T09:38:21Z</time>
      </trkpt>
      <trkpt lat="45.74639" lon="3.17378">
        <ele>385.8</ele>
        <time>2024-04-28T09:38:22Z</time>
      </trkpt>
      <trkpt lat="45.74643" lon="3.17369">
        <ele>385.6</ele>
        <time>2024-04-28T09:38:23Z</time>
      </trkpt>
      <trkpt lat="45.74647" lon="3.1736">
        <ele>385.6</ele>
        <time>2024-04-28T09:38:24Z</time>
      </trkpt>
      <trkpt lat="45.74651" lon="3.17351">
        <ele>385.4</ele>
        <time>2024-04-28T09:38:25Z</time>
      </trkpt>
      <trkpt lat="45.74655" lon="3.17342">
        <ele>385.4</ele>
        <time>2024-04-28T09:38:26Z</time>
      </trkpt>
      <trkpt lat="45.74659" lon="3.17333">
        <ele>385.4</ele>
        <time>2024-04-28T09:38:27Z</time>
      </trkpt>
      <trkpt lat="45.74663" lon="3.17325">
        <ele>385.4</ele>
        <time>2024-04-28T09:38:28Z</time>
      </trkpt>
      <trkpt lat="45.74666" lon="3.17316">
        <ele>385.2</ele>
        <time>2024-04-28T09:38:29Z</time>
      </trkpt>
      <trkpt lat="45.7467" lon="3.17307">
        <ele>385.2</ele>
        <time>2024-04-28T09:38:30Z</time>
      </trkpt>
      <trkpt lat="45.74674" lon="3.17298">
        <ele>385</ele>
        <time>2024-04-28T09:38:31Z</time>
      </trkpt>
      <trkpt lat="45.74678" lon="3.17289">
        <ele>385</ele>
        <time>2024-04-28T09:38:32Z</time>
      </trkpt>
      <trkpt lat="45.74682" lon="3.17281">
        <ele>384.8</ele>
        <time>2024-04-28T09:38:33Z</time>
      </trkpt>
      <trkpt lat="45.74686" lon="3.17272">
        <ele>384.8</ele>
        <time>2024-04-28T09:38:34Z</time>
      </trkpt>
      <trkpt lat="45.7469" lon="3.17263">
        <ele>384.6</ele>
        <time>2024-04-28T09:38:35Z</time>
      </trkpt>
      <trkpt lat="45.74694" lon="3.17254">
        <ele>384.6</ele>
        <time>2024-04-28T09:38:36Z</time>
      </trkpt>
      <trkpt lat="45.74698" lon="3.17246">
        <ele>384.6</ele>
        <time>2024-04-28T09:38:37Z</time>
      </trkpt>
      <trkpt lat="45.74702" lon="3.17237">
        <ele>384.4</ele>
        <time>2024-04-28T09:38:38Z</time>
      </trkpt>
      <trkpt lat="45.74706" lon="3.17228">
        <ele>384.4</ele>
        <time>2024-04-28T09:38:39Z</time>
      </trkpt>
      <trkpt lat="45.7471" lon="3.1722">
        <ele>384.4</ele>
        <time>2024-04-28T09:38:40Z</time>
      </trkpt>
      <trkpt lat="45.74714" lon="3.17211">
        <ele>384.4</ele>
        <time>2024-04-28T09:38:41Z</time>
      </trkpt>
      <trkpt lat="45.74718" lon="3.17202">
        <ele>384.2</ele>
        <time>2024-04-28T09:38:42Z</time>
      </trkpt>
      <trkpt lat="45.74722" lon="3.17194">
        <ele>384</ele>
        <time>2024-04-28T09:38:43Z</time>
      </trkpt>
      <trkpt lat="45.74726" lon="3.17185">
        <ele>384</ele>
        <time>2024-04-28T09:38:44Z</time>
      </trkpt>
      <trkpt lat="45.7473" lon="3.17175">
        <ele>383.8</ele>
        <time>2024-04-28T09:38:45Z</time>
      </trkpt>
      <trkpt lat="45.74733" lon="3.17166">
        <ele>383.8</ele>
        <time>2024-04-28T09:38:46Z</time>
      </trkpt>
      <trkpt lat="45.74736" lon="3.17157">
        <ele>383.6</ele>
        <time>2024-04-28T09:38:47Z</time>
      </trkpt>
      <trkpt lat="45.74739" lon="3.17147">
        <ele>383.4</ele>
        <time>2024-04-28T09:38:48Z</time>
      </trkpt>
      <trkpt lat="45.74742" lon="3.17138">
        <ele>383.4</ele>
        <time>2024-04-28T09:38:49Z</time>
      </trkpt>
      <trkpt lat="45.74745" lon="3.17129">
        <ele>383.4</ele>
        <time>2024-04-28T09:38:50Z</time>
      </trkpt>
      <trkpt lat="45.74749" lon="3.1712">
        <ele>383.4</ele>
        <time>2024-04-28T09:38:51Z</time>
      </trkpt>
      <trkpt lat="45.74752" lon="3.1711">
        <ele>383.2</ele>
        <time>2024-04-28T09:38:52Z</time>
      </trkpt>
      <trkpt lat="45.74755" lon="3.17101">
        <ele>383.2</ele>
        <time>2024-04-28T09:38:53Z</time>
      </trkpt>
      <trkpt lat="45.74758" lon="3.17091">
        <ele>383.2</ele>
        <time>2024-04-28T09:38:54Z</time>
      </trkpt>
      <trkpt lat="45.74761" lon="3.17082">
        <ele>383</ele>
        <time>2024-04-28T09:38:55Z</time>
      </trkpt>
      <trkpt lat="45.74765" lon="3.17072">
        <ele>383</ele>
        <time>2024-04-28T09:38:56Z</time>
      </trkpt>
      <trkpt lat="45.74768" lon="3.17062">
        <ele>382.8</ele>
        <time>2024-04-28T09:38:57Z</time>
      </trkpt>
      <trkpt lat="45.74772" lon="3.17053">
        <ele>382.8</ele>
        <time>2024-04-28T09:38:58Z</time>
      </trkpt>
      <trkpt lat="45.74776" lon="3.17044">
        <ele>382.8</ele>
        <time>2024-04-28T09:38:59Z</time>
      </trkpt>
      <trkpt lat="45.7478" lon="3.17035">
        <ele>382.6</ele>
        <time>2024-04-28T09:39:00Z</time>
      </trkpt>
      <trkpt lat="45.74785" lon="3.17027">
        <ele>382.6</ele>
        <time>2024-04-28T09:39:01Z</time>
      </trkpt>
      <trkpt lat="45.74789" lon="3.17018">
        <ele>382.4</ele>
        <time>2024-04-28T09:39:02Z</time>
      </trkpt>
      <trkpt lat="45.74793" lon="3.17009">
        <ele>382.4</ele>
        <time>2024-04-28T09:39:03Z</time>
      </trkpt>
      <trkpt lat="45.74797" lon="3.17001">
        <ele>382.2</ele>
        <time>2024-04-28T09:39:04Z</time>
      </trkpt>
      <trkpt lat="45.74802" lon="3.16992">
        <ele>382.2</ele>
        <time>2024-04-28T09:39:05Z</time>
      </trkpt>
      <trkpt lat="45.74808" lon="3.16987">
        <ele>382.2</ele>
        <time>2024-04-28T09:39:06Z</time>
      </trkpt>
      <trkpt lat="45.74814" lon="3.16983">
        <ele>382.2</ele>
        <time>2024-04-28T09:39:07Z</time>
      </trkpt>
      <trkpt lat="45.7482" lon="3.16979">
        <ele>382</ele>
        <time>2024-04-28T09:39:08Z</time>
      </trkpt>
      <trkpt lat="45.74824" lon="3.16971">
        <ele>382</ele>
        <time>2024-04-28T09:39:09Z</time>
      </trkpt>
      <trkpt lat="45.74826" lon="3.16961">
        <ele>381.8</ele>
        <time>2024-04-28T09:39:10Z</time>
      </trkpt>
      <trkpt lat="45.74827" lon="3.16951">
        <ele>381.8</ele>
        <time>2024-04-28T09:39:11Z</time>
      </trkpt>
      <trkpt lat="45.74825" lon="3.16942">
        <ele>381.8</ele>
        <time>2024-04-28T09:39:12Z</time>
      </trkpt>
      <trkpt lat="45.74822" lon="3.16932">
        <ele>381.6</ele>
        <time>2024-04-28T09:39:13Z</time>
      </trkpt>
      <trkpt lat="45.74821" lon="3.16919">
        <ele>381.6</ele>
        <time>2024-04-28T09:39:14Z</time>
      </trkpt>
      <trkpt lat="45.74822" lon="3.16908">
        <ele>381.4</ele>
        <time>2024-04-28T09:39:15Z</time>
      </trkpt>
      <trkpt lat="45.74823" lon="3.16897">
        <ele>381.4</ele>
        <time>2024-04-28T09:39:16Z</time>
      </trkpt>
      <trkpt lat="45.74824" lon="3.16885">
        <ele>381.2</ele>
        <time>2024-04-28T09:39:17Z</time>
      </trkpt>
      <trkpt lat="45.74827" lon="3.16875">
        <ele>381</ele>
        <time>2024-04-28T09:39:18Z</time>
      </trkpt>
      <trkpt lat="45.7483" lon="3.16864">
        <ele>380.8</ele>
        <time>2024-04-28T09:39:19Z</time>
      </trkpt>
      <trkpt lat="45.74832" lon="3.16853">
        <ele>380.6</ele>
        <time>2024-04-28T09:39:20Z</time>
      </trkpt>
      <trkpt lat="45.74835" lon="3.16842">
        <ele>380.4</ele>
        <time>2024-04-28T09:39:21Z</time>
      </trkpt>
      <trkpt lat="45.74837" lon="3.16832">
        <ele>380.4</ele>
        <time>2024-04-28T09:39:22Z</time>
      </trkpt>
      <trkpt lat="45.7484" lon="3.16821">
        <ele>380.2</ele>
        <time>2024-04-28T09:39:23Z</time>
      </trkpt>
      <trkpt lat="45.74844" lon="3.16811">
        <ele>380</ele>
        <time>2024-04-28T09:39:24Z</time>
      </trkpt>
      <trkpt lat="45.74847" lon="3.16801">
        <ele>379.8</ele>
        <time>2024-04-28T09:39:25Z</time>
      </trkpt>
      <trkpt lat="45.74851" lon="3.16791">
        <ele>379.8</ele>
        <time>2024-04-28T09:39:26Z</time>
      </trkpt>
      <trkpt lat="45.74854" lon="3.16782">
        <ele>379.6</ele>
        <time>2024-04-28T09:39:27Z</time>
      </trkpt>
      <trkpt lat="45.74858" lon="3.16772">
        <ele>379.6</ele>
        <time>2024-04-28T09:39:28Z</time>
      </trkpt>
      <trkpt lat="45.74861" lon="3.16762">
        <ele>379.4</ele>
        <time>2024-04-28T09:39:29Z</time>
      </trkpt>
      <trkpt lat="45.74865" lon="3.16752">
        <ele>379.4</ele>
        <time>2024-04-28T09:39:30Z</time>
      </trkpt>
      <trkpt lat="45.74869" lon="3.16742">
        <ele>379.2</ele>
        <time>2024-04-28T09:39:31Z</time>
      </trkpt>
      <trkpt lat="45.74872" lon="3.16732">
        <ele>379</ele>
        <time>2024-04-28T09:39:32Z</time>
      </trkpt>
      <trkpt lat="45.74876" lon="3.16722">
        <ele>379</ele>
        <time>2024-04-28T09:39:33Z</time>
      </trkpt>
      <trkpt lat="45.7488" lon="3.16711">
        <ele>379</ele>
        <time>2024-04-28T09:39:34Z</time>
      </trkpt>
      <trkpt lat="45.74884" lon="3.16701">
        <ele>378.8</ele>
        <time>2024-04-28T09:39:35Z</time>
      </trkpt>
      <trkpt lat="45.74888" lon="3.1669">
        <ele>378.6</ele>
        <time>2024-04-28T09:39:36Z</time>
      </trkpt>
      <trkpt lat="45.74892" lon="3.16679">
        <ele>378.4</ele>
        <time>2024-04-28T09:39:37Z</time>
      </trkpt>
      <trkpt lat="45.74896" lon="3.16669">
        <ele>378.4</ele>
        <time>2024-04-28T09:39:38Z</time>
      </trkpt>
      <trkpt lat="45.749" lon="3.16658">
        <ele>378.2</ele>
        <time>2024-04-28T09:39:39Z</time>
      </trkpt>
      <trkpt lat="45.74904" lon="3.16647">
        <ele>378</ele>
        <time>2024-04-28T09:39:40Z</time>
      </trkpt>
      <trkpt lat="45.74908" lon="3.16636">
        <ele>377.8</ele>
        <time>2024-04-28T09:39:41Z</time>
      </trkpt>
      <trkpt lat="45.74912" lon="3.16625">
        <ele>377.8</ele>
        <time>2024-04-28T09:39:42Z</time>
      </trkpt>
      <trkpt lat="45.74916" lon="3.16615">
        <ele>377.6</ele>
        <time>2024-04-28T09:39:43Z</time>
      </trkpt>
      <trkpt lat="45.7492" lon="3.16604">
        <ele>377.4</ele>
        <time>2024-04-28T09:39:44Z</time>
      </trkpt>
      <trkpt lat="45.74924" lon="3.16594">
        <ele>377.2</ele>
        <time>2024-04-28T09:39:45Z</time>
      </trkpt>
      <trkpt lat="45.74928" lon="3.16583">
        <ele>377</ele>
        <time>2024-04-28T09:39:46Z</time>
      </trkpt>
      <trkpt lat="45.74932" lon="3.16573">
        <ele>377</ele>
        <time>2024-04-28T09:39:47Z</time>
      </trkpt>
      <trkpt lat="45.74936" lon="3.16562">
        <ele>376.6</ele>
        <time>2024-04-28T09:39:48Z</time>
      </trkpt>
      <trkpt lat="45.7494" lon="3.16551">
        <ele>376.6</ele>
        <time>2024-04-28T09:39:49Z</time>
      </trkpt>
      <trkpt lat="45.74944" lon="3.16541">
        <ele>376.4</ele>
        <time>2024-04-28T09:39:50Z</time>
      </trkpt>
      <trkpt lat="45.74948" lon="3.1653">
        <ele>376.2</ele>
        <time>2024-04-28T09:39:51Z</time>
      </trkpt>
      <trkpt lat="45.74952" lon="3.1652">
        <ele>376</ele>
        <time>2024-04-28T09:39:52Z</time>
      </trkpt>
      <trkpt lat="45.74956" lon="3.16509">
        <ele>375.8</ele>
        <time>2024-04-28T09:39:53Z</time>
      </trkpt>
      <trkpt lat="45.7496" lon="3.16498">
        <ele>375.6</ele>
        <time>2024-04-28T09:39:54Z</time>
      </trkpt>
      <trkpt lat="45.74965" lon="3.16488">
        <ele>375.6</ele>
        <time>2024-04-28T09:39:55Z</time>
      </trkpt>
      <trkpt lat="45.7497" lon="3.16478">
        <ele>375.4</ele>
        <time>2024-04-28T09:39:56Z</time>
      </trkpt>
      <trkpt lat="45.74975" lon="3.16468">
        <ele>375.2</ele>
        <time>2024-04-28T09:39:57Z</time>
      </trkpt>
      <trkpt lat="45.74979" lon="3.16458">
        <ele>375</ele>
        <time>2024-04-28T09:39:58Z</time>
      </trkpt>
      <trkpt lat="45.74984" lon="3.16448">
        <ele>375</ele>
        <time>2024-04-28T09:39:59Z</time>
      </trkpt>
      <trkpt lat="45.74989" lon="3.16438">
        <ele>374.8</ele>
        <time>2024-04-28T09:40:00Z</time>
      </trkpt>
      <trkpt lat="45.74994" lon="3.16427">
        <ele>374.6</ele>
        <time>2024-04-28T09:40:01Z</time>
      </trkpt>
      <trkpt lat="45.74999" lon="3.16417">
        <ele>374.2</ele>
        <time>2024-04-28T09:40:02Z</time>
      </trkpt>
      <trkpt lat="45.75004" lon="3.16407">
        <ele>374</ele>
        <time>2024-04-28T09:40:03Z</time>
      </trkpt>
      <trkpt lat="45.75008" lon="3.16397">
        <ele>374</ele>
        <time>2024-04-28T09:40:04Z</time>
      </trkpt>
      <trkpt lat="45.75013" lon="3.16387">
        <ele>373.8</ele>
        <time>2024-04-28T09:40:05Z</time>
      </trkpt>
      <trkpt lat="45.75018" lon="3.16377">
        <ele>373.6</ele>
        <time>2024-04-28T09:40:06Z</time>
      </trkpt>
      <trkpt lat="45.75023" lon="3.16367">
        <ele>373.4</ele>
        <time>2024-04-28T09:40:07Z</time>
      </trkpt>
      <trkpt lat="45.75027" lon="3.16357">
        <ele>373.2</ele>
        <time>2024-04-28T09:40:08Z</time>
      </trkpt>
      <trkpt lat="45.75032" lon="3.16347">
        <ele>373</ele>
        <time>2024-04-28T09:40:09Z</time>
      </trkpt>
      <trkpt lat="45.75037" lon="3.16337">
        <ele>372.8</ele>
        <time>2024-04-28T09:40:10Z</time>
      </trkpt>
      <trkpt lat="45.75042" lon="3.16327">
        <ele>372.6</ele>
        <time>2024-04-28T09:40:11Z</time>
      </trkpt>
      <trkpt lat="45.75047" lon="3.16316">
        <ele>372.4</ele>
        <time>2024-04-28T09:40:12Z</time>
      </trkpt>
      <trkpt lat="45.75052" lon="3.16306">
        <ele>372</ele>
        <time>2024-04-28T09:40:13Z</time>
      </trkpt>
      <trkpt lat="45.75056" lon="3.16296">
        <ele>372</ele>
        <time>2024-04-28T09:40:14Z</time>
      </trkpt>
      <trkpt lat="45.7506" lon="3.16288">
        <ele>371.8</ele>
        <time>2024-04-28T09:40:15Z</time>
      </trkpt>
      <trkpt lat="45.75064" lon="3.16279">
        <ele>371.6</ele>
        <time>2024-04-28T09:40:16Z</time>
      </trkpt>
      <trkpt lat="45.75068" lon="3.16271">
        <ele>371.6</ele>
        <time>2024-04-28T09:40:17Z</time>
      </trkpt>
      <trkpt lat="45.75072" lon="3.16263">
        <ele>371.4</ele>
        <time>2024-04-28T09:40:18Z</time>
      </trkpt>
      <trkpt lat="45.75077" lon="3.16255">
        <ele>371.2</ele>
        <time>2024-04-28T09:40:19Z</time>
      </trkpt>
      <trkpt lat="45.75081" lon="3.16247">
        <ele>371</ele>
        <time>2024-04-28T09:40:20Z</time>
      </trkpt>
      <trkpt lat="45.75085" lon="3.16238">
        <ele>370.8</ele>
        <time>2024-04-28T09:40:21Z</time>
      </trkpt>
      <trkpt lat="45.7509" lon="3.16229">
        <ele>370.8</ele>
        <time>2024-04-28T09:40:22Z</time>
      </trkpt>
      <trkpt lat="45.75094" lon="3.16221">
        <ele>370.6</ele>
        <time>2024-04-28T09:40:23Z</time>
      </trkpt>
      <trkpt lat="45.75099" lon="3.16212">
        <ele>370.4</ele>
        <time>2024-04-28T09:40:24Z</time>
      </trkpt>
      <trkpt lat="45.75104" lon="3.16203">
        <ele>370.4</ele>
        <time>2024-04-28T09:40:25Z</time>
      </trkpt>
      <trkpt lat="45.75109" lon="3.16194">
        <ele>370.2</ele>
        <time>2024-04-28T09:40:26Z</time>
      </trkpt>
      <trkpt lat="45.75114" lon="3.16185">
        <ele>370</ele>
        <time>2024-04-28T09:40:27Z</time>
      </trkpt>
      <trkpt lat="45.75119" lon="3.16176">
        <ele>369.8</ele>
        <time>2024-04-28T09:40:28Z</time>
      </trkpt>
      <trkpt lat="45.75124" lon="3.16167">
        <ele>369.8</ele>
        <time>2024-04-28T09:40:29Z</time>
      </trkpt>
      <trkpt lat="45.75129" lon="3.16158">
        <ele>369.6</ele>
        <time>2024-04-28T09:40:30Z</time>
      </trkpt>
      <trkpt lat="45.75134" lon="3.16149">
        <ele>369.4</ele>
        <time>2024-04-28T09:40:31Z</time>
      </trkpt>
      <trkpt lat="45.75139" lon="3.1614">
        <ele>369.2</ele>
        <time>2024-04-28T09:40:32Z</time>
      </trkpt>
      <trkpt lat="45.75144" lon="3.16131">
        <ele>369</ele>
        <time>2024-04-28T09:40:33Z</time>
      </trkpt>
      <trkpt lat="45.75149" lon="3.16122">
        <ele>368.8</ele>
        <time>2024-04-28T09:40:34Z</time>
      </trkpt>
      <trkpt lat="45.75155" lon="3.16112">
        <ele>368.6</ele>
        <time>2024-04-28T09:40:35Z</time>
      </trkpt>
      <trkpt lat="45.7516" lon="3.16102">
        <ele>368.4</ele>
        <time>2024-04-28T09:40:36Z</time>
      </trkpt>
      <trkpt lat="45.75165" lon="3.16093">
        <ele>368.2</ele>
        <time>2024-04-28T09:40:37Z</time>
      </trkpt>
      <trkpt lat="45.75171" lon="3.16083">
        <ele>368</ele>
        <time>2024-04-28T09:40:38Z</time>
      </trkpt>
      <trkpt lat="45.75176" lon="3.16073">
        <ele>367.8</ele>
        <time>2024-04-28T09:40:39Z</time>
      </trkpt>
      <trkpt lat="45.75182" lon="3.16063">
        <ele>367.6</ele>
        <time>2024-04-28T09:40:40Z</time>
      </trkpt>
      <trkpt lat="45.75187" lon="3.16054">
        <ele>367.6</ele>
        <time>2024-04-28T09:40:41Z</time>
      </trkpt>
      <trkpt lat="45.75192" lon="3.16044">
        <ele>367.2</ele>
        <time>2024-04-28T09:40:42Z</time>
      </trkpt>
      <trkpt lat="45.75197" lon="3.16035">
        <ele>367.2</ele>
        <time>2024-04-28T09:40:43Z</time>
      </trkpt>
      <trkpt lat="45.75203" lon="3.16026">
        <ele>367</ele>
        <time>2024-04-28T09:40:44Z</time>
      </trkpt>
      <trkpt lat="45.75208" lon="3.16017">
        <ele>366.8</ele>
        <time>2024-04-28T09:40:45Z</time>
      </trkpt>
      <trkpt lat="45.75212" lon="3.16008">
        <ele>366.6</ele>
        <time>2024-04-28T09:40:46Z</time>
      </trkpt>
      <trkpt lat="45.75217" lon="3.15999">
        <ele>366.4</ele>
        <time>2024-04-28T09:40:47Z</time>
      </trkpt>
      <trkpt lat="45.75223" lon="3.15989">
        <ele>366.2</ele>
        <time>2024-04-28T09:40:48Z</time>
      </trkpt>
      <trkpt lat="45.75227" lon="3.15981">
        <ele>366</ele>
        <time>2024-04-28T09:40:49Z</time>
      </trkpt>
      <trkpt lat="45.75233" lon="3.15972">
        <ele>366</ele>
        <time>2024-04-28T09:40:50Z</time>
      </trkpt>
      <trkpt lat="45.75237" lon="3.15963">
        <ele>365.8</ele>
        <time>2024-04-28T09:40:51Z</time>
      </trkpt>
      <trkpt lat="45.75242" lon="3.15955">
        <ele>365.6</ele>
        <time>2024-04-28T09:40:52Z</time>
      </trkpt>
      <trkpt lat="45.75247" lon="3.15946">
        <ele>365.4</ele>
        <time>2024-04-28T09:40:53Z</time>
      </trkpt>
      <trkpt lat="45.75252" lon="3.15938">
        <ele>365.2</ele>
        <time>2024-04-28T09:40:54Z</time>
      </trkpt>
      <trkpt lat="45.75257" lon="3.15929">
        <ele>365.2</ele>
        <time>2024-04-28T09:40:55Z</time>
      </trkpt>
      <trkpt lat="45.75262" lon="3.1592">
        <ele>365</ele>
        <time>2024-04-28T09:40:56Z</time>
      </trkpt>
      <trkpt lat="45.75267" lon="3.15912">
        <ele>364.8</ele>
        <time>2024-04-28T09:40:57Z</time>
      </trkpt>
      <trkpt lat="45.75271" lon="3.15904">
        <ele>364.6</ele>
        <time>2024-04-28T09:40:58Z</time>
      </trkpt>
      <trkpt lat="45.75276" lon="3.15895">
        <ele>364.6</ele>
        <time>2024-04-28T09:40:59Z</time>
      </trkpt>
      <trkpt lat="45.75281" lon="3.15887">
        <ele>364.4</ele>
        <time>2024-04-28T09:41:00Z</time>
      </trkpt>
      <trkpt lat="45.75286" lon="3.15879">
        <ele>364.2</ele>
        <time>2024-04-28T09:41:01Z</time>
      </trkpt>
      <trkpt lat="45.7529" lon="3.1587">
        <ele>364.2</ele>
        <time>2024-04-28T09:41:02Z</time>
      </trkpt>
      <trkpt lat="45.75295" lon="3.15862">
        <ele>364</ele>
        <time>2024-04-28T09:41:03Z</time>
      </trkpt>
      <trkpt lat="45.753" lon="3.15854">
        <ele>363.8</ele>
        <time>2024-04-28T09:41:04Z</time>
      </trkpt>
      <trkpt lat="45.75305" lon="3.15847">
        <ele>363.8</ele>
        <time>2024-04-28T09:41:05Z</time>
      </trkpt>
      <trkpt lat="45.75311" lon="3.15839">
        <ele>363.6</ele>
        <time>2024-04-28T09:41:06Z</time>
      </trkpt>
      <trkpt lat="45.75317" lon="3.15832">
        <ele>363.6</ele>
        <time>2024-04-28T09:41:07Z</time>
      </trkpt>
      <trkpt lat="45.75323" lon="3.15824">
        <ele>363.4</ele>
        <time>2024-04-28T09:41:08Z</time>
      </trkpt>
      <trkpt lat="45.75328" lon="3.15816">
        <ele>363.2</ele>
        <time>2024-04-28T09:41:09Z</time>
      </trkpt>
      <trkpt lat="45.75334" lon="3.15809">
        <ele>363.2</ele>
        <time>2024-04-28T09:41:10Z</time>
      </trkpt>
      <trkpt lat="45.7534" lon="3.15801">
        <ele>363</ele>
        <time>2024-04-28T09:41:11Z</time>
      </trkpt>
      <trkpt lat="45.75346" lon="3.15794">
        <ele>362.8</ele>
        <time>2024-04-28T09:41:12Z</time>
      </trkpt>
      <trkpt lat="45.75351" lon="3.15786">
        <ele>362.8</ele>
        <time>2024-04-28T09:41:13Z</time>
      </trkpt>
      <trkpt lat="45.75357" lon="3.15778">
        <ele>362.6</ele>
        <time>2024-04-28T09:41:14Z</time>
      </trkpt>
      <trkpt lat="45.75364" lon="3.15771">
        <ele>362.4</ele>
        <time>2024-04-28T09:41:15Z</time>
      </trkpt>
      <trkpt lat="45.75371" lon="3.15765">
        <ele>362.2</ele>
        <time>2024-04-28T09:41:16Z</time>
      </trkpt>
      <trkpt lat="45.75381" lon="3.15767">
        <ele>362</ele>
        <time>2024-04-28T09:41:17Z</time>
      </trkpt>
      <trkpt lat="45.75389" lon="3.15764">
        <ele>361.8</ele>
        <time>2024-04-28T09:41:18Z</time>
      </trkpt>
      <trkpt lat="45.75397" lon="3.15761">
        <ele>361.6</ele>
        <time>2024-04-28T09:41:19Z</time>
      </trkpt>
      <trkpt lat="45.75406" lon="3.15761">
        <ele>361.4</ele>
        <time>2024-04-28T09:41:20Z</time>
      </trkpt>
      <trkpt lat="45.75414" lon="3.15761">
        <ele>361.2</ele>
        <time>2024-04-28T09:41:21Z</time>
      </trkpt>
      <trkpt lat="45.75423" lon="3.15761">
        <ele>361</ele>
        <time>2024-04-28T09:41:22Z</time>
      </trkpt>
      <trkpt lat="45.75431" lon="3.15761">
        <ele>360.8</ele>
        <time>2024-04-28T09:41:23Z</time>
      </trkpt>
      <trkpt lat="45.7544" lon="3.15762">
        <ele>360.8</ele>
        <time>2024-04-28T09:41:24Z</time>
      </trkpt>
      <trkpt lat="45.75448" lon="3.15762">
        <ele>360.6</ele>
        <time>2024-04-28T09:41:25Z</time>
      </trkpt>
      <trkpt lat="45.75455" lon="3.15762">
        <ele>360.4</ele>
        <time>2024-04-28T09:41:26Z</time>
      </trkpt>
      <trkpt lat="45.75462" lon="3.15762">
        <ele>360.2</ele>
        <time>2024-04-28T09:41:27Z</time>
      </trkpt>
      <trkpt lat="45.75471" lon="3.15759">
        <ele>360</ele>
        <time>2024-04-28T09:41:28Z</time>
      </trkpt>
      <trkpt lat="45.75477" lon="3.15755">
        <ele>359.8</ele>
        <time>2024-04-28T09:41:29Z</time>
      </trkpt>
      <trkpt lat="45.75484" lon="3.15751">
        <ele>359.8</ele>
        <time>2024-04-28T09:41:30Z</time>
      </trkpt>
      <trkpt lat="45.75491" lon="3.15747">
        <ele>359.6</ele>
        <time>2024-04-28T09:41:31Z</time>
      </trkpt>
      <trkpt lat="45.75498" lon="3.15742">
        <ele>359.6</ele>
        <time>2024-04-28T09:41:32Z</time>
      </trkpt>
      <trkpt lat="45.75503" lon="3.15735">
        <ele>359.4</ele>
        <time>2024-04-28T09:41:33Z</time>
      </trkpt>
      <trkpt lat="45.75508" lon="3.15729">
        <ele>359.2</ele>
        <time>2024-04-28T09:41:34Z</time>
      </trkpt>
      <trkpt lat="45.75514" lon="3.15722">
        <ele>359</ele>
        <time>2024-04-28T09:41:35Z</time>
      </trkpt>
      <trkpt lat="45.75519" lon="3.15715">
        <ele>359</ele>
        <time>2024-04-28T09:41:36Z</time>
      </trkpt>
      <trkpt lat="45.75523" lon="3.15705">
        <ele>358.6</ele>
        <time>2024-04-28T09:41:37Z</time>
      </trkpt>
      <trkpt lat="45.75527" lon="3.15696">
        <ele>358.6</ele>
        <time>2024-04-28T09:41:38Z</time>
      </trkpt>
      <trkpt lat="45.7553" lon="3.15686">
        <ele>358.4</ele>
        <time>2024-04-28T09:41:39Z</time>
      </trkpt>
      <trkpt lat="45.75533" lon="3.15677">
        <ele>358.2</ele>
        <time>2024-04-28T09:41:40Z</time>
      </trkpt>
      <trkpt lat="45.75537" lon="3.15668">
        <ele>358</ele>
        <time>2024-04-28T09:41:41Z</time>
      </trkpt>
      <trkpt lat="45.7554" lon="3.15658">
        <ele>358</ele>
        <time>2024-04-28T09:41:42Z</time>
      </trkpt>
      <trkpt lat="45.75543" lon="3.15649">
        <ele>357.8</ele>
        <time>2024-04-28T09:41:43Z</time>
      </trkpt>
      <trkpt lat="45.75547" lon="3.1564">
        <ele>357.8</ele>
        <time>2024-04-28T09:41:44Z</time>
      </trkpt>
      <trkpt lat="45.75549" lon="3.15629">
        <ele>357.6</ele>
        <time>2024-04-28T09:41:45Z</time>
      </trkpt>
      <trkpt lat="45.7555" lon="3.15619">
        <ele>357.6</ele>
        <time>2024-04-28T09:41:46Z</time>
      </trkpt>
      <trkpt lat="45.7555" lon="3.1561">
        <ele>357.6</ele>
        <time>2024-04-28T09:41:47Z</time>
      </trkpt>
      <trkpt lat="45.7555" lon="3.15598">
        <ele>357.6</ele>
        <time>2024-04-28T09:41:48Z</time>
      </trkpt>
      <trkpt lat="45.75552" lon="3.15588">
        <ele>357.4</ele>
        <time>2024-04-28T09:41:49Z</time>
      </trkpt>
      <trkpt lat="45.75554" lon="3.15578">
        <ele>357.4</ele>
        <time>2024-04-28T09:41:50Z</time>
      </trkpt>
      <trkpt lat="45.75557" lon="3.15569">
        <ele>357.4</ele>
        <time>2024-04-28T09:41:51Z</time>
      </trkpt>
      <trkpt lat="45.75559" lon="3.15563">
        <ele>357.2</ele>
        <time>2024-04-28T09:41:52Z</time>
      </trkpt>
      <trkpt lat="45.75566" lon="3.15552">
        <ele>357.2</ele>
        <time>2024-04-28T09:41:53Z</time>
      </trkpt>
      <trkpt lat="45.75569" lon="3.15547">
        <ele>357</ele>
        <time>2024-04-28T09:41:54Z</time>
      </trkpt>
      <trkpt lat="45.75572" lon="3.15542">
        <ele>357</ele>
        <time>2024-04-28T09:41:55Z</time>
      </trkpt>
      <trkpt lat="45.75574" lon="3.15539">
        <ele>356.8</ele>
        <time>2024-04-28T09:41:56Z</time>
      </trkpt>
      <trkpt lat="45.7558" lon="3.15536">
        <ele>356.8</ele>
        <time>2024-04-28T09:41:57Z</time>
      </trkpt>
      <trkpt lat="45.75585" lon="3.15534">
        <ele>356.8</ele>
        <time>2024-04-28T09:41:58Z</time>
      </trkpt>
      <trkpt lat="45.7559" lon="3.15532">
        <ele>356.8</ele>
        <time>2024-04-28T09:41:59Z</time>
      </trkpt>
      <trkpt lat="45.75596" lon="3.1553">
        <ele>356.8</ele>
        <time>2024-04-28T09:42:00Z</time>
      </trkpt>
      <trkpt lat="45.75602" lon="3.15528">
        <ele>356.6</ele>
        <time>2024-04-28T09:42:01Z</time>
      </trkpt>
      <trkpt lat="45.75609" lon="3.15526">
        <ele>356.6</ele>
        <time>2024-04-28T09:42:02Z</time>
      </trkpt>
      <trkpt lat="45.75615" lon="3.15524">
        <ele>356.6</ele>
        <time>2024-04-28T09:42:03Z</time>
      </trkpt>
      <trkpt lat="45.75622" lon="3.15522">
        <ele>356.4</ele>
        <time>2024-04-28T09:42:04Z</time>
      </trkpt>
      <trkpt lat="45.75628" lon="3.1552">
        <ele>356.4</ele>
        <time>2024-04-28T09:42:05Z</time>
      </trkpt>
      <trkpt lat="45.75635" lon="3.15518">
        <ele>356.2</ele>
        <time>2024-04-28T09:42:06Z</time>
      </trkpt>
      <trkpt lat="45.75641" lon="3.15517">
        <ele>356.2</ele>
        <time>2024-04-28T09:42:07Z</time>
      </trkpt>
      <trkpt lat="45.75648" lon="3.15516">
        <ele>356.2</ele>
        <time>2024-04-28T09:42:08Z</time>
      </trkpt>
      <trkpt lat="45.75654" lon="3.15515">
        <ele>356</ele>
        <time>2024-04-28T09:42:09Z</time>
      </trkpt>
      <trkpt lat="45.75661" lon="3.15514">
        <ele>356</ele>
        <time>2024-04-28T09:42:10Z</time>
      </trkpt>
      <trkpt lat="45.75667" lon="3.15513">
        <ele>356</ele>
        <time>2024-04-28T09:42:11Z</time>
      </trkpt>
      <trkpt lat="45.75674" lon="3.15512">
        <ele>355.8</ele>
        <time>2024-04-28T09:42:12Z</time>
      </trkpt>
      <trkpt lat="45.7568" lon="3.15511">
        <ele>355.8</ele>
        <time>2024-04-28T09:42:13Z</time>
      </trkpt>
      <trkpt lat="45.75687" lon="3.1551">
        <ele>355.6</ele>
        <time>2024-04-28T09:42:14Z</time>
      </trkpt>
      <trkpt lat="45.75693" lon="3.15509">
        <ele>355.6</ele>
        <time>2024-04-28T09:42:15Z</time>
      </trkpt>
      <trkpt lat="45.757" lon="3.15508">
        <ele>355.6</ele>
        <time>2024-04-28T09:42:16Z</time>
      </trkpt>
      <trkpt lat="45.75707" lon="3.15506">
        <ele>355.6</ele>
        <time>2024-04-28T09:42:17Z</time>
      </trkpt>
      <trkpt lat="45.75712" lon="3.15501">
        <ele>355.6</ele>
        <time>2024-04-28T09:42:18Z</time>
      </trkpt>
      <trkpt lat="45.75718" lon="3.15497">
        <ele>355.6</ele>
        <time>2024-04-28T09:42:19Z</time>
      </trkpt>
      <trkpt lat="45.75724" lon="3.15492">
        <ele>355.4</ele>
        <time>2024-04-28T09:42:20Z</time>
      </trkpt>
      <trkpt lat="45.7573" lon="3.15488">
        <ele>355.4</ele>
        <time>2024-04-28T09:42:21Z</time>
      </trkpt>
      <trkpt lat="45.75736" lon="3.15483">
        <ele>355.4</ele>
        <time>2024-04-28T09:42:22Z</time>
      </trkpt>
      <trkpt lat="45.75742" lon="3.15479">
        <ele>355.2</ele>
        <time>2024-04-28T09:42:23Z</time>
      </trkpt>
      <trkpt lat="45.75748" lon="3.15474">
        <ele>355.2</ele>
        <time>2024-04-28T09:42:24Z</time>
      </trkpt>
      <trkpt lat="45.75754" lon="3.15469">
        <ele>355</ele>
        <time>2024-04-28T09:42:25Z</time>
      </trkpt>
      <trkpt lat="45.7576" lon="3.15465">
        <ele>355</ele>
        <time>2024-04-28T09:42:26Z</time>
      </trkpt>
      <trkpt lat="45.75766" lon="3.1546">
        <ele>355</ele>
        <time>2024-04-28T09:42:27Z</time>
      </trkpt>
      <trkpt lat="45.75773" lon="3.15455">
        <ele>355</ele>
        <time>2024-04-28T09:42:28Z</time>
      </trkpt>
      <trkpt lat="45.75779" lon="3.1545">
        <ele>355</ele>
        <time>2024-04-28T09:42:29Z</time>
      </trkpt>
      <trkpt lat="45.75786" lon="3.15445">
        <ele>354.8</ele>
        <time>2024-04-28T09:42:30Z</time>
      </trkpt>
      <trkpt lat="45.75792" lon="3.1544">
        <ele>354.8</ele>
        <time>2024-04-28T09:42:31Z</time>
      </trkpt>
      <trkpt lat="45.75798" lon="3.15436">
        <ele>354.8</ele>
        <time>2024-04-28T09:42:32Z</time>
      </trkpt>
      <trkpt lat="45.75805" lon="3.15431">
        <ele>354.6</ele>
        <time>2024-04-28T09:42:33Z</time>
      </trkpt>
      <trkpt lat="45.75811" lon="3.15426">
        <ele>354.6</ele>
        <time>2024-04-28T09:42:34Z</time>
      </trkpt>
      <trkpt lat="45.75817" lon="3.15421">
        <ele>354.6</ele>
        <time>2024-04-28T09:42:35Z</time>
      </trkpt>
      <trkpt lat="45.75823" lon="3.15416">
        <ele>354.6</ele>
        <time>2024-04-28T09:42:36Z</time>
      </trkpt>
      <trkpt lat="45.7583" lon="3.15411">
        <ele>354.6</ele>
        <time>2024-04-28T09:42:37Z</time>
      </trkpt>
      <trkpt lat="45.75836" lon="3.15406">
        <ele>354.4</ele>
        <time>2024-04-28T09:42:38Z</time>
      </trkpt>
      <trkpt lat="45.75842" lon="3.15402">
        <ele>354.4</ele>
        <time>2024-04-28T09:42:39Z</time>
      </trkpt>
      <trkpt lat="45.75849" lon="3.15397">
        <ele>354.4</ele>
        <time>2024-04-28T09:42:40Z</time>
      </trkpt>
      <trkpt lat="45.75855" lon="3.15392">
        <ele>354.2</ele>
        <time>2024-04-28T09:42:41Z</time>
      </trkpt>
      <trkpt lat="45.75861" lon="3.15387">
        <ele>354.2</ele>
        <time>2024-04-28T09:42:42Z</time>
      </trkpt>
      <trkpt lat="45.75868" lon="3.15382">
        <ele>354.2</ele>
        <time>2024-04-28T09:42:43Z</time>
      </trkpt>
      <trkpt lat="45.75874" lon="3.15377">
        <ele>354</ele>
        <time>2024-04-28T09:42:44Z</time>
      </trkpt>
      <trkpt lat="45.7588" lon="3.15373">
        <ele>354</ele>
        <time>2024-04-28T09:42:45Z</time>
      </trkpt>
      <trkpt lat="45.75886" lon="3.15368">
        <ele>354</ele>
        <time>2024-04-28T09:42:46Z</time>
      </trkpt>
      <trkpt lat="45.75892" lon="3.15363">
        <ele>354</ele>
        <time>2024-04-28T09:42:47Z</time>
      </trkpt>
      <trkpt lat="45.75899" lon="3.15358">
        <ele>353.8</ele>
        <time>2024-04-28T09:42:48Z</time>
      </trkpt>
      <trkpt lat="45.75905" lon="3.15354">
        <ele>353.8</ele>
        <time>2024-04-28T09:42:49Z</time>
      </trkpt>
      <trkpt lat="45.75911" lon="3.15349">
        <ele>353.8</ele>
        <time>2024-04-28T09:42:50Z</time>
      </trkpt>
      <trkpt lat="45.75917" lon="3.15344">
        <ele>353.8</ele>
        <time>2024-04-28T09:42:51Z</time>
      </trkpt>
      <trkpt lat="45.75923" lon="3.15339">
        <ele>353.8</ele>
        <time>2024-04-28T09:42:52Z</time>
      </trkpt>
      <trkpt lat="45.7593" lon="3.15334">
        <ele>353.6</ele>
        <time>2024-04-28T09:42:53Z</time>
      </trkpt>
      <trkpt lat="45.75936" lon="3.15329">
        <ele>353.6</ele>
        <time>2024-04-28T09:42:54Z</time>
      </trkpt>
      <trkpt lat="45.75942" lon="3.15325">
        <ele>353.4</ele>
        <time>2024-04-28T09:42:55Z</time>
      </trkpt>
      <trkpt lat="45.75949" lon="3.1532">
        <ele>353.4</ele>
        <time>2024-04-28T09:42:56Z</time>
      </trkpt>
      <trkpt lat="45.75955" lon="3.15315">
        <ele>353.4</ele>
        <time>2024-04-28T09:42:57Z</time>
      </trkpt>
      <trkpt lat="45.75961" lon="3.1531">
        <ele>353.2</ele>
        <time>2024-04-28T09:42:58Z</time>
      </trkpt>
      <trkpt lat="45.75968" lon="3.15305">
        <ele>353.2</ele>
        <time>2024-04-28T09:42:59Z</time>
      </trkpt>
      <trkpt lat="45.75974" lon="3.153">
        <ele>353.2</ele>
        <time>2024-04-28T09:43:00Z</time>
      </trkpt>
      <trkpt lat="45.7598" lon="3.15296">
        <ele>353</ele>
        <time>2024-04-28T09:43:01Z</time>
      </trkpt>
      <trkpt lat="45.75986" lon="3.15291">
        <ele>353</ele>
        <time>2024-04-28T09:43:02Z</time>
      </trkpt>
      <trkpt lat="45.75992" lon="3.15286">
        <ele>353</ele>
        <time>2024-04-28T09:43:03Z</time>
      </trkpt>
      <trkpt lat="45.75998" lon="3.15281">
        <ele>352.8</ele>
        <time>2024-04-28T09:43:04Z</time>
      </trkpt>
      <trkpt lat="45.76004" lon="3.15276">
        <ele>352.8</ele>
        <time>2024-04-28T09:43:05Z</time>
      </trkpt>
      <trkpt lat="45.7601" lon="3.15272">
        <ele>352.8</ele>
        <time>2024-04-28T09:43:06Z</time>
      </trkpt>
      <trkpt lat="45.76017" lon="3.15267">
        <ele>352.6</ele>
        <time>2024-04-28T09:43:07Z</time>
      </trkpt>
      <trkpt lat="45.76023" lon="3.15262">
        <ele>352.6</ele>
        <time>2024-04-28T09:43:08Z</time>
      </trkpt>
      <trkpt lat="45.76029" lon="3.15255">
        <ele>352.6</ele>
        <time>2024-04-28T09:43:09Z</time>
      </trkpt>
      <trkpt lat="45.76034" lon="3.15249">
        <ele>352.4</ele>
        <time>2024-04-28T09:43:10Z</time>
      </trkpt>
      <trkpt lat="45.76039" lon="3.15242">
        <ele>352.4</ele>
        <time>2024-04-28T09:43:11Z</time>
      </trkpt>
      <trkpt lat="45.76045" lon="3.15235">
        <ele>352.2</ele>
        <time>2024-04-28T09:43:12Z</time>
      </trkpt>
      <trkpt lat="45.76051" lon="3.15228">
        <ele>352.2</ele>
        <time>2024-04-28T09:43:13Z</time>
      </trkpt>
      <trkpt lat="45.76056" lon="3.15221">
        <ele>352.2</ele>
        <time>2024-04-28T09:43:14Z</time>
      </trkpt>
      <trkpt lat="45.76062" lon="3.15214">
        <ele>352</ele>
        <time>2024-04-28T09:43:15Z</time>
      </trkpt>
      <trkpt lat="45.76068" lon="3.15207">
        <ele>352</ele>
        <time>2024-04-28T09:43:16Z</time>
      </trkpt>
      <trkpt lat="45.76074" lon="3.15199">
        <ele>351.8</ele>
        <time>2024-04-28T09:43:17Z</time>
      </trkpt>
      <trkpt lat="45.76079" lon="3.15192">
        <ele>351.8</ele>
        <time>2024-04-28T09:43:18Z</time>
      </trkpt>
      <trkpt lat="45.76085" lon="3.15185">
        <ele>351.6</ele>
        <time>2024-04-28T09:43:19Z</time>
      </trkpt>
      <trkpt lat="45.76091" lon="3.15177">
        <ele>351.6</ele>
        <time>2024-04-28T09:43:20Z</time>
      </trkpt>
      <trkpt lat="45.76097" lon="3.1517">
        <ele>351.4</ele>
        <time>2024-04-28T09:43:21Z</time>
      </trkpt>
      <trkpt lat="45.76103" lon="3.15162">
        <ele>351.4</ele>
        <time>2024-04-28T09:43:22Z</time>
      </trkpt>
      <trkpt lat="45.76109" lon="3.15155">
        <ele>351.2</ele>
        <time>2024-04-28T09:43:23Z</time>
      </trkpt>
      <trkpt lat="45.76114" lon="3.15147">
        <ele>351.2</ele>
        <time>2024-04-28T09:43:24Z</time>
      </trkpt>
      <trkpt lat="45.7612" lon="3.15139">
        <ele>351</ele>
        <time>2024-04-28T09:43:25Z</time>
      </trkpt>
      <trkpt lat="45.76126" lon="3.15131">
        <ele>351</ele>
        <time>2024-04-28T09:43:26Z</time>
      </trkpt>
      <trkpt lat="45.76132" lon="3.15123">
        <ele>350.8</ele>
        <time>2024-04-28T09:43:27Z</time>
      </trkpt>
      <trkpt lat="45.76137" lon="3.15116">
        <ele>350.8</ele>
        <time>2024-04-28T09:43:28Z</time>
      </trkpt>
      <trkpt lat="45.76143" lon="3.15108">
        <ele>350.6</ele>
        <time>2024-04-28T09:43:29Z</time>
      </trkpt>
      <trkpt lat="45.76149" lon="3.151">
        <ele>350.6</ele>
        <time>2024-04-28T09:43:30Z</time>
      </trkpt>
      <trkpt lat="45.76155" lon="3.15092">
        <ele>350.4</ele>
        <time>2024-04-28T09:43:31Z</time>
      </trkpt>
      <trkpt lat="45.76161" lon="3.15084">
        <ele>350.4</ele>
        <time>2024-04-28T09:43:32Z</time>
      </trkpt>
      <trkpt lat="45.76167" lon="3.15076">
        <ele>350.2</ele>
        <time>2024-04-28T09:43:33Z</time>
      </trkpt>
      <trkpt lat="45.76172" lon="3.15069">
        <ele>350.2</ele>
        <time>2024-04-28T09:43:34Z</time>
      </trkpt>
      <trkpt lat="45.76178" lon="3.15061">
        <ele>350.2</ele>
        <time>2024-04-28T09:43:35Z</time>
      </trkpt>
      <trkpt lat="45.76184" lon="3.15053">
        <ele>350</ele>
        <time>2024-04-28T09:43:36Z</time>
      </trkpt>
      <trkpt lat="45.7619" lon="3.15046">
        <ele>350</ele>
        <time>2024-04-28T09:43:37Z</time>
      </trkpt>
      <trkpt lat="45.76196" lon="3.15041">
        <ele>350</ele>
        <time>2024-04-28T09:43:38Z</time>
      </trkpt>
      <trkpt lat="45.76202" lon="3.15035">
        <ele>350</ele>
        <time>2024-04-28T09:43:39Z</time>
      </trkpt>
      <trkpt lat="45.76209" lon="3.1503">
        <ele>349.8</ele>
        <time>2024-04-28T09:43:40Z</time>
      </trkpt>
      <trkpt lat="45.76215" lon="3.15024">
        <ele>349.8</ele>
        <time>2024-04-28T09:43:41Z</time>
      </trkpt>
      <trkpt lat="45.76221" lon="3.15019">
        <ele>349.8</ele>
        <time>2024-04-28T09:43:42Z</time>
      </trkpt>
      <trkpt lat="45.76227" lon="3.15014">
        <ele>349.8</ele>
        <time>2024-04-28T09:43:43Z</time>
      </trkpt>
      <trkpt lat="45.76233" lon="3.15008">
        <ele>349.8</ele>
        <time>2024-04-28T09:43:44Z</time>
      </trkpt>
      <trkpt lat="45.76239" lon="3.15003">
        <ele>349.8</ele>
        <time>2024-04-28T09:43:45Z</time>
      </trkpt>
      <trkpt lat="45.76245" lon="3.14999">
        <ele>349.8</ele>
        <time>2024-04-28T09:43:46Z</time>
      </trkpt>
      <trkpt lat="45.76252" lon="3.14995">
        <ele>349.6</ele>
        <time>2024-04-28T09:43:47Z</time>
      </trkpt>
      <trkpt lat="45.76258" lon="3.14991">
        <ele>349.6</ele>
        <time>2024-04-28T09:43:48Z</time>
      </trkpt>
      <trkpt lat="45.76264" lon="3.14987">
        <ele>349.6</ele>
        <time>2024-04-28T09:43:49Z</time>
      </trkpt>
      <trkpt lat="45.7627" lon="3.14983">
        <ele>349.6</ele>
        <time>2024-04-28T09:43:50Z</time>
      </trkpt>
      <trkpt lat="45.76277" lon="3.14979">
        <ele>349.6</ele>
        <time>2024-04-28T09:43:51Z</time>
      </trkpt>
      <trkpt lat="45.76283" lon="3.14975">
        <ele>349.4</ele>
        <time>2024-04-28T09:43:52Z</time>
      </trkpt>
      <trkpt lat="45.7629" lon="3.14972">
        <ele>349.4</ele>
        <time>2024-04-28T09:43:53Z</time>
      </trkpt>
      <trkpt lat="45.76297" lon="3.14969">
        <ele>349.4</ele>
        <time>2024-04-28T09:43:54Z</time>
      </trkpt>
      <trkpt lat="45.76303" lon="3.14967">
        <ele>349.4</ele>
        <time>2024-04-28T09:43:55Z</time>
      </trkpt>
      <trkpt lat="45.7631" lon="3.14964">
        <ele>349.4</ele>
        <time>2024-04-28T09:43:56Z</time>
      </trkpt>
      <trkpt lat="45.76317" lon="3.14962">
        <ele>349.4</ele>
        <time>2024-04-28T09:43:57Z</time>
      </trkpt>
      <trkpt lat="45.76324" lon="3.1496">
        <ele>349.2</ele>
        <time>2024-04-28T09:43:58Z</time>
      </trkpt>
      <trkpt lat="45.7633" lon="3.14957">
        <ele>349.2</ele>
        <time>2024-04-28T09:43:59Z</time>
      </trkpt>
      <trkpt lat="45.76337" lon="3.14955">
        <ele>349.2</ele>
        <time>2024-04-28T09:44:00Z</time>
      </trkpt>
      <trkpt lat="45.76344" lon="3.14953">
        <ele>349.2</ele>
        <time>2024-04-28T09:44:01Z</time>
      </trkpt>
      <trkpt lat="45.76351" lon="3.1495">
        <ele>349.2</ele>
        <time>2024-04-28T09:44:02Z</time>
      </trkpt>
      <trkpt lat="45.76357" lon="3.14948">
        <ele>349.2</ele>
        <time>2024-04-28T09:44:03Z</time>
      </trkpt>
      <trkpt lat="45.76364" lon="3.14946">
        <ele>349.2</ele>
        <time>2024-04-28T09:44:04Z</time>
      </trkpt>
      <trkpt lat="45.7637" lon="3.14943">
        <ele>349.2</ele>
        <time>2024-04-28T09:44:05Z</time>
      </trkpt>
      <trkpt lat="45.76377" lon="3.14941">
        <ele>349.2</ele>
        <time>2024-04-28T09:44:06Z</time>
      </trkpt>
      <trkpt lat="45.76384" lon="3.14938">
        <ele>349.2</ele>
        <time>2024-04-28T09:44:07Z</time>
      </trkpt>
      <trkpt lat="45.7639" lon="3.14936">
        <ele>349</ele>
        <time>2024-04-28T09:44:08Z</time>
      </trkpt>
      <trkpt lat="45.76397" lon="3.14934">
        <ele>349</ele>
        <time>2024-04-28T09:44:09Z</time>
      </trkpt>
      <trkpt lat="45.76404" lon="3.14931">
        <ele>349</ele>
        <time>2024-04-28T09:44:10Z</time>
      </trkpt>
      <trkpt lat="45.7641" lon="3.14929">
        <ele>349</ele>
        <time>2024-04-28T09:44:11Z</time>
      </trkpt>
      <trkpt lat="45.76417" lon="3.14927">
        <ele>349</ele>
        <time>2024-04-28T09:44:12Z</time>
      </trkpt>
      <trkpt lat="45.76423" lon="3.14924">
        <ele>349</ele>
        <time>2024-04-28T09:44:13Z</time>
      </trkpt>
      <trkpt lat="45.7643" lon="3.14922">
        <ele>348.8</ele>
        <time>2024-04-28T09:44:14Z</time>
      </trkpt>
      <trkpt lat="45.76437" lon="3.1492">
        <ele>348.8</ele>
        <time>2024-04-28T09:44:15Z</time>
      </trkpt>
      <trkpt lat="45.76443" lon="3.14917">
        <ele>348.8</ele>
        <time>2024-04-28T09:44:16Z</time>
      </trkpt>
      <trkpt lat="45.7645" lon="3.14915">
        <ele>348.8</ele>
        <time>2024-04-28T09:44:17Z</time>
      </trkpt>
      <trkpt lat="45.76456" lon="3.14913">
        <ele>348.6</ele>
        <time>2024-04-28T09:44:18Z</time>
      </trkpt>
      <trkpt lat="45.76463" lon="3.1491">
        <ele>348.6</ele>
        <time>2024-04-28T09:44:19Z</time>
      </trkpt>
      <trkpt lat="45.7647" lon="3.14908">
        <ele>348.6</ele>
        <time>2024-04-28T09:44:20Z</time>
      </trkpt>
      <trkpt lat="45.76477" lon="3.14906">
        <ele>348.6</ele>
        <time>2024-04-28T09:44:21Z</time>
      </trkpt>
      <trkpt lat="45.76483" lon="3.14905">
        <ele>348.6</ele>
        <time>2024-04-28T09:44:22Z</time>
      </trkpt>
      <trkpt lat="45.7649" lon="3.14903">
        <ele>348.6</ele>
        <time>2024-04-28T09:44:23Z</time>
      </trkpt>
      <trkpt lat="45.76497" lon="3.14901">
        <ele>348.4</ele>
        <time>2024-04-28T09:44:24Z</time>
      </trkpt>
      <trkpt lat="45.76503" lon="3.14899">
        <ele>348.4</ele>
        <time>2024-04-28T09:44:25Z</time>
      </trkpt>
      <trkpt lat="45.7651" lon="3.14897">
        <ele>348.4</ele>
        <time>2024-04-28T09:44:26Z</time>
      </trkpt>
      <trkpt lat="45.76517" lon="3.14895">
        <ele>348.4</ele>
        <time>2024-04-28T09:44:27Z</time>
      </trkpt>
      <trkpt lat="45.76524" lon="3.14894">
        <ele>348.4</ele>
        <time>2024-04-28T09:44:28Z</time>
      </trkpt>
      <trkpt lat="45.76531" lon="3.14892">
        <ele>348.2</ele>
        <time>2024-04-28T09:44:29Z</time>
      </trkpt>
      <trkpt lat="45.76538" lon="3.1489">
        <ele>348.2</ele>
        <time>2024-04-28T09:44:30Z</time>
      </trkpt>
      <trkpt lat="45.76545" lon="3.14888">
        <ele>348.2</ele>
        <time>2024-04-28T09:44:31Z</time>
      </trkpt>
      <trkpt lat="45.76552" lon="3.14886">
        <ele>348</ele>
        <time>2024-04-28T09:44:32Z</time>
      </trkpt>
      <trkpt lat="45.76559" lon="3.14884">
        <ele>348</ele>
        <time>2024-04-28T09:44:33Z</time>
      </trkpt>
      <trkpt lat="45.76566" lon="3.14882">
        <ele>347.8</ele>
        <time>2024-04-28T09:44:34Z</time>
      </trkpt>
      <trkpt lat="45.76573" lon="3.1488">
        <ele>347.8</ele>
        <time>2024-04-28T09:44:35Z</time>
      </trkpt>
      <trkpt lat="45.76581" lon="3.14878">
        <ele>347.8</ele>
        <time>2024-04-28T09:44:36Z</time>
      </trkpt>
      <trkpt lat="45.76588" lon="3.14876">
        <ele>347.6</ele>
        <time>2024-04-28T09:44:37Z</time>
      </trkpt>
      <trkpt lat="45.76595" lon="3.14874">
        <ele>347.6</ele>
        <time>2024-04-28T09:44:38Z</time>
      </trkpt>
      <trkpt lat="45.76602" lon="3.14871">
        <ele>347.6</ele>
        <time>2024-04-28T09:44:39Z</time>
      </trkpt>
      <trkpt lat="45.76609" lon="3.14868">
        <ele>347.4</ele>
        <time>2024-04-28T09:44:40Z</time>
      </trkpt>
      <trkpt lat="45.76616" lon="3.14865">
        <ele>347.4</ele>
        <time>2024-04-28T09:44:41Z</time>
      </trkpt>
      <trkpt lat="45.76622" lon="3.14863">
        <ele>347.2</ele>
        <time>2024-04-28T09:44:42Z</time>
      </trkpt>
      <trkpt lat="45.76629" lon="3.1486">
        <ele>347.2</ele>
        <time>2024-04-28T09:44:43Z</time>
      </trkpt>
      <trkpt lat="45.76635" lon="3.14857">
        <ele>347.2</ele>
        <time>2024-04-28T09:44:44Z</time>
      </trkpt>
      <trkpt lat="45.76642" lon="3.14854">
        <ele>347.2</ele>
        <time>2024-04-28T09:44:45Z</time>
      </trkpt>
      <trkpt lat="45.76648" lon="3.14851">
        <ele>347.2</ele>
        <time>2024-04-28T09:44:46Z</time>
      </trkpt>
      <trkpt lat="45.76655" lon="3.14848">
        <ele>347</ele>
        <time>2024-04-28T09:44:47Z</time>
      </trkpt>
      <trkpt lat="45.76662" lon="3.14844">
        <ele>347</ele>
        <time>2024-04-28T09:44:48Z</time>
      </trkpt>
      <trkpt lat="45.76669" lon="3.14841">
        <ele>347</ele>
        <time>2024-04-28T09:44:49Z</time>
      </trkpt>
      <trkpt lat="45.76676" lon="3.14837">
        <ele>347</ele>
        <time>2024-04-28T09:44:50Z</time>
      </trkpt>
      <trkpt lat="45.76682" lon="3.14834">
        <ele>346.8</ele>
        <time>2024-04-28T09:44:51Z</time>
      </trkpt>
      <trkpt lat="45.76689" lon="3.1483">
        <ele>346.8</ele>
        <time>2024-04-28T09:44:52Z</time>
      </trkpt>
      <trkpt lat="45.76695" lon="3.14825">
        <ele>346.6</ele>
        <time>2024-04-28T09:44:53Z</time>
      </trkpt>
      <trkpt lat="45.76701" lon="3.1482">
        <ele>346.6</ele>
        <time>2024-04-28T09:44:54Z</time>
      </trkpt>
      <trkpt lat="45.76707" lon="3.14815">
        <ele>346.6</ele>
        <time>2024-04-28T09:44:55Z</time>
      </trkpt>
      <trkpt lat="45.76713" lon="3.1481">
        <ele>346.4</ele>
        <time>2024-04-28T09:44:56Z</time>
      </trkpt>
      <trkpt lat="45.76719" lon="3.14805">
        <ele>346.4</ele>
        <time>2024-04-28T09:44:57Z</time>
      </trkpt>
      <trkpt lat="45.76725" lon="3.148">
        <ele>346.2</ele>
        <time>2024-04-28T09:44:58Z</time>
      </trkpt>
      <trkpt lat="45.76731" lon="3.14795">
        <ele>346.2</ele>
        <time>2024-04-28T09:44:59Z</time>
      </trkpt>
      <trkpt lat="45.76738" lon="3.1479">
        <ele>346.2</ele>
        <time>2024-04-28T09:45:00Z</time>
      </trkpt>
      <trkpt lat="45.76744" lon="3.14785">
        <ele>346.2</ele>
        <time>2024-04-28T09:45:01Z</time>
      </trkpt>
      <trkpt lat="45.7675" lon="3.1478">
        <ele>346</ele>
        <time>2024-04-28T09:45:02Z</time>
      </trkpt>
      <trkpt lat="45.76756" lon="3.14775">
        <ele>346</ele>
        <time>2024-04-28T09:45:03Z</time>
      </trkpt>
      <trkpt lat="45.76762" lon="3.1477">
        <ele>346</ele>
        <time>2024-04-28T09:45:04Z</time>
      </trkpt>
      <trkpt lat="45.76768" lon="3.14765">
        <ele>345.8</ele>
        <time>2024-04-28T09:45:05Z</time>
      </trkpt>
      <trkpt lat="45.76774" lon="3.1476">
        <ele>345.8</ele>
        <time>2024-04-28T09:45:06Z</time>
      </trkpt>
      <trkpt lat="45.7678" lon="3.14755">
        <ele>345.8</ele>
        <time>2024-04-28T09:45:07Z</time>
      </trkpt>
      <trkpt lat="45.76787" lon="3.14749">
        <ele>345.6</ele>
        <time>2024-04-28T09:45:08Z</time>
      </trkpt>
      <trkpt lat="45.76794" lon="3.14746">
        <ele>345.6</ele>
        <time>2024-04-28T09:45:09Z</time>
      </trkpt>
      <trkpt lat="45.768" lon="3.14742">
        <ele>345.6</ele>
        <time>2024-04-28T09:45:10Z</time>
      </trkpt>
      <trkpt lat="45.76807" lon="3.14738">
        <ele>345.6</ele>
        <time>2024-04-28T09:45:11Z</time>
      </trkpt>
      <trkpt lat="45.76814" lon="3.14734">
        <ele>345.4</ele>
        <time>2024-04-28T09:45:12Z</time>
      </trkpt>
      <trkpt lat="45.7682" lon="3.1473">
        <ele>345.4</ele>
        <time>2024-04-28T09:45:13Z</time>
      </trkpt>
      <trkpt lat="45.76827" lon="3.14726">
        <ele>345.4</ele>
        <time>2024-04-28T09:45:14Z</time>
      </trkpt>
      <trkpt lat="45.76834" lon="3.14722">
        <ele>345.4</ele>
        <time>2024-04-28T09:45:15Z</time>
      </trkpt>
      <trkpt lat="45.7684" lon="3.14718">
        <ele>345.2</ele>
        <time>2024-04-28T09:45:16Z</time>
      </trkpt>
      <trkpt lat="45.76847" lon="3.14714">
        <ele>345.2</ele>
        <time>2024-04-28T09:45:17Z</time>
      </trkpt>
      <trkpt lat="45.76854" lon="3.1471">
        <ele>345.2</ele>
        <time>2024-04-28T09:45:18Z</time>
      </trkpt>
      <trkpt lat="45.7686" lon="3.14706">
        <ele>345.2</ele>
        <time>2024-04-28T09:45:19Z</time>
      </trkpt>
      <trkpt lat="45.76867" lon="3.14703">
        <ele>345.2</ele>
        <time>2024-04-28T09:45:20Z</time>
      </trkpt>
      <trkpt lat="45.76874" lon="3.147">
        <ele>345.2</ele>
        <time>2024-04-28T09:45:21Z</time>
      </trkpt>
      <trkpt lat="45.76881" lon="3.14697">
        <ele>345.2</ele>
        <time>2024-04-28T09:45:22Z</time>
      </trkpt>
      <trkpt lat="45.76888" lon="3.14694">
        <ele>345</ele>
        <time>2024-04-28T09:45:23Z</time>
      </trkpt>
      <trkpt lat="45.76895" lon="3.14691">
        <ele>345</ele>
        <time>2024-04-28T09:45:24Z</time>
      </trkpt>
      <trkpt lat="45.76902" lon="3.14688">
        <ele>345</ele>
        <time>2024-04-28T09:45:25Z</time>
      </trkpt>
      <trkpt lat="45.76909" lon="3.14686">
        <ele>344.8</ele>
        <time>2024-04-28T09:45:26Z</time>
      </trkpt>
      <trkpt lat="45.76916" lon="3.14685">
        <ele>344.8</ele>
        <time>2024-04-28T09:45:27Z</time>
      </trkpt>
      <trkpt lat="45.76923" lon="3.14683">
        <ele>344.8</ele>
        <time>2024-04-28T09:45:28Z</time>
      </trkpt>
      <trkpt lat="45.7693" lon="3.14681">
        <ele>344.8</ele>
        <time>2024-04-28T09:45:29Z</time>
      </trkpt>
      <trkpt lat="45.76937" lon="3.14679">
        <ele>344.8</ele>
        <time>2024-04-28T09:45:30Z</time>
      </trkpt>
      <trkpt lat="45.76943" lon="3.14679">
        <ele>344.6</ele>
        <time>2024-04-28T09:45:31Z</time>
      </trkpt>
      <trkpt lat="45.7695" lon="3.14678">
        <ele>344.6</ele>
        <time>2024-04-28T09:45:32Z</time>
      </trkpt>
      <trkpt lat="45.76957" lon="3.14678">
        <ele>344.6</ele>
        <time>2024-04-28T09:45:33Z</time>
      </trkpt>
      <trkpt lat="45.76964" lon="3.14677">
        <ele>344.6</ele>
        <time>2024-04-28T09:45:34Z</time>
      </trkpt>
      <trkpt lat="45.76971" lon="3.14676">
        <ele>344.6</ele>
        <time>2024-04-28T09:45:35Z</time>
      </trkpt>
      <trkpt lat="45.76977" lon="3.14676">
        <ele>344.4</ele>
        <time>2024-04-28T09:45:36Z</time>
      </trkpt>
      <trkpt lat="45.76984" lon="3.14675">
        <ele>344.4</ele>
        <time>2024-04-28T09:45:37Z</time>
      </trkpt>
      <trkpt lat="45.76991" lon="3.14675">
        <ele>344.4</ele>
        <time>2024-04-28T09:45:38Z</time>
      </trkpt>
      <trkpt lat="45.76997" lon="3.14674">
        <ele>344.4</ele>
        <time>2024-04-28T09:45:39Z</time>
      </trkpt>
      <trkpt lat="45.77005" lon="3.14674">
        <ele>344.4</ele>
        <time>2024-04-28T09:45:40Z</time>
      </trkpt>
      <trkpt lat="45.77011" lon="3.14673">
        <ele>344.4</ele>
        <time>2024-04-28T09:45:41Z</time>
      </trkpt>
      <trkpt lat="45.77018" lon="3.14673">
        <ele>344.2</ele>
        <time>2024-04-28T09:45:42Z</time>
      </trkpt>
      <trkpt lat="45.77025" lon="3.14672">
        <ele>344.2</ele>
        <time>2024-04-28T09:45:43Z</time>
      </trkpt>
      <trkpt lat="45.77032" lon="3.14672">
        <ele>344.2</ele>
        <time>2024-04-28T09:45:44Z</time>
      </trkpt>
      <trkpt lat="45.77039" lon="3.14671">
        <ele>344</ele>
        <time>2024-04-28T09:45:45Z</time>
      </trkpt>
      <trkpt lat="45.77045" lon="3.14671">
        <ele>344</ele>
        <time>2024-04-28T09:45:46Z</time>
      </trkpt>
      <trkpt lat="45.77052" lon="3.1467">
        <ele>344</ele>
        <time>2024-04-28T09:45:47Z</time>
      </trkpt>
      <trkpt lat="45.77059" lon="3.1467">
        <ele>344</ele>
        <time>2024-04-28T09:45:48Z</time>
      </trkpt>
      <trkpt lat="45.77066" lon="3.1467">
        <ele>344</ele>
        <time>2024-04-28T09:45:49Z</time>
      </trkpt>
      <trkpt lat="45.77072" lon="3.1467">
        <ele>344</ele>
        <time>2024-04-28T09:45:50Z</time>
      </trkpt>
      <trkpt lat="45.77078" lon="3.1467">
        <ele>344</ele>
        <time>2024-04-28T09:45:51Z</time>
      </trkpt>
      <trkpt lat="45.77085" lon="3.1467">
        <ele>344</ele>
        <time>2024-04-28T09:45:52Z</time>
      </trkpt>
      <trkpt lat="45.77091" lon="3.1467">
        <ele>344</ele>
        <time>2024-04-28T09:45:53Z</time>
      </trkpt>
      <trkpt lat="45.77097" lon="3.1467">
        <ele>344</ele>
        <time>2024-04-28T09:45:54Z</time>
      </trkpt>
      <trkpt lat="45.77102" lon="3.1467">
        <ele>344.2</ele>
        <time>2024-04-28T09:45:55Z</time>
      </trkpt>
      <trkpt lat="45.77108" lon="3.14671">
        <ele>344.2</ele>
        <time>2024-04-28T09:45:56Z</time>
      </trkpt>
      <trkpt lat="45.77114" lon="3.14671">
        <ele>343.8</ele>
        <time>2024-04-28T09:45:57Z</time>
      </trkpt>
      <trkpt lat="45.77119" lon="3.14672">
        <ele>344.2</ele>
        <time>2024-04-28T09:45:58Z</time>
      </trkpt>
      <trkpt lat="45.77124" lon="3.14673">
        <ele>343.8</ele>
        <time>2024-04-28T09:45:59Z</time>
      </trkpt>
      <trkpt lat="45.7713" lon="3.14674">
        <ele>344</ele>
        <time>2024-04-28T09:46:00Z</time>
      </trkpt>
      <trkpt lat="45.77135" lon="3.14675">
        <ele>344</ele>
        <time>2024-04-28T09:46:01Z</time>
      </trkpt>
      <trkpt lat="45.7714" lon="3.14675">
        <ele>344.2</ele>
        <time>2024-04-28T09:46:02Z</time>
      </trkpt>
      <trkpt lat="45.77145" lon="3.14676">
        <ele>344.2</ele>
        <time>2024-04-28T09:46:03Z</time>
      </trkpt>
      <trkpt lat="45.77149" lon="3.14677">
        <ele>344.2</ele>
        <time>2024-04-28T09:46:04Z</time>
      </trkpt>
      <trkpt lat="45.77154" lon="3.14677">
        <ele>344.4</ele>
        <time>2024-04-28T09:46:05Z</time>
      </trkpt>
      <trkpt lat="45.77159" lon="3.14678">
        <ele>344.4</ele>
        <time>2024-04-28T09:46:06Z</time>
      </trkpt>
      <trkpt lat="45.77164" lon="3.14679">
        <ele>344.4</ele>
        <time>2024-04-28T09:46:07Z</time>
      </trkpt>
      <trkpt lat="45.77168" lon="3.14679">
        <ele>344.4</ele>
        <time>2024-04-28T09:46:08Z</time>
      </trkpt>
      <trkpt lat="45.77173" lon="3.1468">
        <ele>344.4</ele>
        <time>2024-04-28T09:46:09Z</time>
      </trkpt>
      <trkpt lat="45.77179" lon="3.14681">
        <ele>344.4</ele>
        <time>2024-04-28T09:46:10Z</time>
      </trkpt>
      <trkpt lat="45.77184" lon="3.14682">
        <ele>344.4</ele>
        <time>2024-04-28T09:46:11Z</time>
      </trkpt>
      <trkpt lat="45.77189" lon="3.14683">
        <ele>344.4</ele>
        <time>2024-04-28T09:46:12Z</time>
      </trkpt>
      <trkpt lat="45.77195" lon="3.14683">
        <ele>344.4</ele>
        <time>2024-04-28T09:46:13Z</time>
      </trkpt>
      <trkpt lat="45.772" lon="3.14684">
        <ele>344.4</ele>
        <time>2024-04-28T09:46:14Z</time>
      </trkpt>
      <trkpt lat="45.77206" lon="3.14686">
        <ele>344.4</ele>
        <time>2024-04-28T09:46:15Z</time>
      </trkpt>
      <trkpt lat="45.77212" lon="3.14687">
        <ele>344.4</ele>
        <time>2024-04-28T09:46:16Z</time>
      </trkpt>
      <trkpt lat="45.77218" lon="3.14688">
        <ele>344.4</ele>
        <time>2024-04-28T09:46:17Z</time>
      </trkpt>
      <trkpt lat="45.77224" lon="3.14689">
        <ele>344.4</ele>
        <time>2024-04-28T09:46:18Z</time>
      </trkpt>
      <trkpt lat="45.7723" lon="3.1469">
        <ele>344.4</ele>
        <time>2024-04-28T09:46:19Z</time>
      </trkpt>
      <trkpt lat="45.77236" lon="3.14692">
        <ele>344.6</ele>
        <time>2024-04-28T09:46:20Z</time>
      </trkpt>
      <trkpt lat="45.77242" lon="3.14693">
        <ele>344.6</ele>
        <time>2024-04-28T09:46:21Z</time>
      </trkpt>
      <trkpt lat="45.77249" lon="3.14694">
        <ele>344.6</ele>
        <time>2024-04-28T09:46:22Z</time>
      </trkpt>
      <trkpt lat="45.77255" lon="3.14695">
        <ele>344.6</ele>
        <time>2024-04-28T09:46:23Z</time>
      </trkpt>
      <trkpt lat="45.77262" lon="3.14697">
        <ele>344.6</ele>
        <time>2024-04-28T09:46:24Z</time>
      </trkpt>
      <trkpt lat="45.77269" lon="3.14698">
        <ele>344.6</ele>
        <time>2024-04-28T09:46:25Z</time>
      </trkpt>
      <trkpt lat="45.77276" lon="3.14699">
        <ele>344.6</ele>
        <time>2024-04-28T09:46:26Z</time>
      </trkpt>
      <trkpt lat="45.77283" lon="3.14701">
        <ele>344.6</ele>
        <time>2024-04-28T09:46:27Z</time>
      </trkpt>
      <trkpt lat="45.7729" lon="3.14702">
        <ele>344.4</ele>
        <time>2024-04-28T09:46:28Z</time>
      </trkpt>
      <trkpt lat="45.77297" lon="3.14704">
        <ele>344.6</ele>
        <time>2024-04-28T09:46:29Z</time>
      </trkpt>
      <trkpt lat="45.77305" lon="3.14705">
        <ele>344.4</ele>
        <time>2024-04-28T09:46:30Z</time>
      </trkpt>
      <trkpt lat="45.77312" lon="3.14706">
        <ele>344.2</ele>
        <time>2024-04-28T09:46:31Z</time>
      </trkpt>
      <trkpt lat="45.7732" lon="3.14708">
        <ele>344.2</ele>
        <time>2024-04-28T09:46:32Z</time>
      </trkpt>
      <trkpt lat="45.77327" lon="3.14709">
        <ele>344</ele>
        <time>2024-04-28T09:46:33Z</time>
      </trkpt>
      <trkpt lat="45.77335" lon="3.14711">
        <ele>344</ele>
        <time>2024-04-28T09:46:34Z</time>
      </trkpt>
      <trkpt lat="45.77343" lon="3.14712">
        <ele>344</ele>
        <time>2024-04-28T09:46:35Z</time>
      </trkpt>
      <trkpt lat="45.77351" lon="3.14712">
        <ele>344</ele>
        <time>2024-04-28T09:46:36Z</time>
      </trkpt>
      <trkpt lat="45.77359" lon="3.14712">
        <ele>343.8</ele>
        <time>2024-04-28T09:46:37Z</time>
      </trkpt>
      <trkpt lat="45.77367" lon="3.14713">
        <ele>343.6</ele>
        <time>2024-04-28T09:46:38Z</time>
      </trkpt>
      <trkpt lat="45.77375" lon="3.14713">
        <ele>343.6</ele>
        <time>2024-04-28T09:46:39Z</time>
      </trkpt>
      <trkpt lat="45.77384" lon="3.14714">
        <ele>343.6</ele>
        <time>2024-04-28T09:46:40Z</time>
      </trkpt>
      <trkpt lat="45.77392" lon="3.14714">
        <ele>343.4</ele>
        <time>2024-04-28T09:46:41Z</time>
      </trkpt>
      <trkpt lat="45.774" lon="3.14715">
        <ele>343.4</ele>
        <time>2024-04-28T09:46:42Z</time>
      </trkpt>
      <trkpt lat="45.77409" lon="3.14715">
        <ele>343.2</ele>
        <time>2024-04-28T09:46:43Z</time>
      </trkpt>
      <trkpt lat="45.77418" lon="3.14716">
        <ele>343</ele>
        <time>2024-04-28T09:46:44Z</time>
      </trkpt>
      <trkpt lat="45.77426" lon="3.14716">
        <ele>343</ele>
        <time>2024-04-28T09:46:45Z</time>
      </trkpt>
      <trkpt lat="45.77435" lon="3.14717">
        <ele>342.8</ele>
        <time>2024-04-28T09:46:46Z</time>
      </trkpt>
      <trkpt lat="45.77444" lon="3.14717">
        <ele>342.6</ele>
        <time>2024-04-28T09:46:47Z</time>
      </trkpt>
      <trkpt lat="45.77452" lon="3.14718">
        <ele>342.4</ele>
        <time>2024-04-28T09:46:48Z</time>
      </trkpt>
      <trkpt lat="45.77461" lon="3.14718">
        <ele>342.4</ele>
        <time>2024-04-28T09:46:49Z</time>
      </trkpt>
      <trkpt lat="45.7747" lon="3.14719">
        <ele>342.2</ele>
        <time>2024-04-28T09:46:50Z</time>
      </trkpt>
      <trkpt lat="45.77479" lon="3.14719">
        <ele>342.2</ele>
        <time>2024-04-28T09:46:51Z</time>
      </trkpt>
      <trkpt lat="45.77487" lon="3.1472">
        <ele>342</ele>
        <time>2024-04-28T09:46:52Z</time>
      </trkpt>
      <trkpt lat="45.77496" lon="3.1472">
        <ele>342</ele>
        <time>2024-04-28T09:46:53Z</time>
      </trkpt>
      <trkpt lat="45.77504" lon="3.1472">
        <ele>341.8</ele>
        <time>2024-04-28T09:46:54Z</time>
      </trkpt>
      <trkpt lat="45.77513" lon="3.14721">
        <ele>341.8</ele>
        <time>2024-04-28T09:46:55Z</time>
      </trkpt>
      <trkpt lat="45.77521" lon="3.14721">
        <ele>341.6</ele>
        <time>2024-04-28T09:46:56Z</time>
      </trkpt>
      <trkpt lat="45.77529" lon="3.14722">
        <ele>341.6</ele>
        <time>2024-04-28T09:46:57Z</time>
      </trkpt>
      <trkpt lat="45.77538" lon="3.14723">
        <ele>341.6</ele>
        <time>2024-04-28T09:46:58Z</time>
      </trkpt>
      <trkpt lat="45.77545" lon="3.14725">
        <ele>341.4</ele>
        <time>2024-04-28T09:46:59Z</time>
      </trkpt>
      <trkpt lat="45.77554" lon="3.14727">
        <ele>341.4</ele>
        <time>2024-04-28T09:47:00Z</time>
      </trkpt>
      <trkpt lat="45.77562" lon="3.14728">
        <ele>341.4</ele>
        <time>2024-04-28T09:47:01Z</time>
      </trkpt>
      <trkpt lat="45.7757" lon="3.1473">
        <ele>341.4</ele>
        <time>2024-04-28T09:47:02Z</time>
      </trkpt>
      <trkpt lat="45.77578" lon="3.14733">
        <ele>341.2</ele>
        <time>2024-04-28T09:47:03Z</time>
      </trkpt>
      <trkpt lat="45.77586" lon="3.14736">
        <ele>341.2</ele>
        <time>2024-04-28T09:47:04Z</time>
      </trkpt>
      <trkpt lat="45.77594" lon="3.1474">
        <ele>341.2</ele>
        <time>2024-04-28T09:47:05Z</time>
      </trkpt>
      <trkpt lat="45.77602" lon="3.14743">
        <ele>341</ele>
        <time>2024-04-28T09:47:06Z</time>
      </trkpt>
      <trkpt lat="45.77609" lon="3.14747">
        <ele>341</ele>
        <time>2024-04-28T09:47:07Z</time>
      </trkpt>
      <trkpt lat="45.77617" lon="3.14751">
        <ele>341</ele>
        <time>2024-04-28T09:47:08Z</time>
      </trkpt>
      <trkpt lat="45.77625" lon="3.14754">
        <ele>341</ele>
        <time>2024-04-28T09:47:09Z</time>
      </trkpt>
      <trkpt lat="45.77632" lon="3.14758">
        <ele>340.8</ele>
        <time>2024-04-28T09:47:10Z</time>
      </trkpt>
      <trkpt lat="45.7764" lon="3.14761">
        <ele>340.8</ele>
        <time>2024-04-28T09:47:11Z</time>
      </trkpt>
      <trkpt lat="45.77647" lon="3.14764">
        <ele>340.6</ele>
        <time>2024-04-28T09:47:12Z</time>
      </trkpt>
      <trkpt lat="45.77654" lon="3.14768">
        <ele>340.6</ele>
        <time>2024-04-28T09:47:13Z</time>
      </trkpt>
      <trkpt lat="45.77661" lon="3.14771">
        <ele>340.6</ele>
        <time>2024-04-28T09:47:14Z</time>
      </trkpt>
      <trkpt lat="45.77668" lon="3.14774">
        <ele>340.4</ele>
        <time>2024-04-28T09:47:15Z</time>
      </trkpt>
      <trkpt lat="45.77675" lon="3.14778">
        <ele>340.4</ele>
        <time>2024-04-28T09:47:16Z</time>
      </trkpt>
      <trkpt lat="45.77682" lon="3.14781">
        <ele>340.2</ele>
        <time>2024-04-28T09:47:17Z</time>
      </trkpt>
      <trkpt lat="45.7769" lon="3.14784">
        <ele>340.2</ele>
        <time>2024-04-28T09:47:18Z</time>
      </trkpt>
      <trkpt lat="45.77697" lon="3.14787">
        <ele>340.2</ele>
        <time>2024-04-28T09:47:19Z</time>
      </trkpt>
      <trkpt lat="45.77704" lon="3.14791">
        <ele>340.2</ele>
        <time>2024-04-28T09:47:20Z</time>
      </trkpt>
      <trkpt lat="45.77711" lon="3.14794">
        <ele>340</ele>
        <time>2024-04-28T09:47:21Z</time>
      </trkpt>
      <trkpt lat="45.77718" lon="3.14797">
        <ele>340</ele>
        <time>2024-04-28T09:47:22Z</time>
      </trkpt>
      <trkpt lat="45.77725" lon="3.14799">
        <ele>340</ele>
        <time>2024-04-28T09:47:23Z</time>
      </trkpt>
      <trkpt lat="45.77732" lon="3.14799">
        <ele>340</ele>
        <time>2024-04-28T09:47:24Z</time>
      </trkpt>
      <trkpt lat="45.7774" lon="3.14799">
        <ele>339.8</ele>
        <time>2024-04-28T09:47:25Z</time>
      </trkpt>
      <trkpt lat="45.77747" lon="3.14799">
        <ele>339.8</ele>
        <time>2024-04-28T09:47:26Z</time>
      </trkpt>
      <trkpt lat="45.77755" lon="3.14799">
        <ele>339.8</ele>
        <time>2024-04-28T09:47:27Z</time>
      </trkpt>
      <trkpt lat="45.77762" lon="3.14799">
        <ele>339.6</ele>
        <time>2024-04-28T09:47:28Z</time>
      </trkpt>
      <trkpt lat="45.7777" lon="3.14799">
        <ele>339.6</ele>
        <time>2024-04-28T09:47:29Z</time>
      </trkpt>
      <trkpt lat="45.77777" lon="3.14799">
        <ele>339.6</ele>
        <time>2024-04-28T09:47:30Z</time>
      </trkpt>
      <trkpt lat="45.77785" lon="3.14797">
        <ele>339.6</ele>
        <time>2024-04-28T09:47:31Z</time>
      </trkpt>
      <trkpt lat="45.77792" lon="3.14794">
        <ele>339.6</ele>
        <time>2024-04-28T09:47:32Z</time>
      </trkpt>
      <trkpt lat="45.77799" lon="3.14792">
        <ele>339.6</ele>
        <time>2024-04-28T09:47:33Z</time>
      </trkpt>
      <trkpt lat="45.77807" lon="3.14789">
        <ele>339.4</ele>
        <time>2024-04-28T09:47:34Z</time>
      </trkpt>
      <trkpt lat="45.77814" lon="3.14787">
        <ele>339.4</ele>
        <time>2024-04-28T09:47:35Z</time>
      </trkpt>
      <trkpt lat="45.77821" lon="3.14785">
        <ele>339.4</ele>
        <time>2024-04-28T09:47:36Z</time>
      </trkpt>
      <trkpt lat="45.77828" lon="3.14782">
        <ele>339.2</ele>
        <time>2024-04-28T09:47:37Z</time>
      </trkpt>
      <trkpt lat="45.77835" lon="3.1478">
        <ele>339.2</ele>
        <time>2024-04-28T09:47:38Z</time>
      </trkpt>
      <trkpt lat="45.77842" lon="3.14778">
        <ele>339</ele>
        <time>2024-04-28T09:47:39Z</time>
      </trkpt>
      <trkpt lat="45.7785" lon="3.14776">
        <ele>339</ele>
        <time>2024-04-28T09:47:40Z</time>
      </trkpt>
      <trkpt lat="45.77857" lon="3.14774">
        <ele>339</ele>
        <time>2024-04-28T09:47:41Z</time>
      </trkpt>
      <trkpt lat="45.77864" lon="3.14772">
        <ele>338.8</ele>
        <time>2024-04-28T09:47:42Z</time>
      </trkpt>
      <trkpt lat="45.77871" lon="3.1477">
        <ele>338.8</ele>
        <time>2024-04-28T09:47:43Z</time>
      </trkpt>
      <trkpt lat="45.77878" lon="3.14768">
        <ele>338.8</ele>
        <time>2024-04-28T09:47:44Z</time>
      </trkpt>
      <trkpt lat="45.77884" lon="3.14767">
        <ele>338.8</ele>
        <time>2024-04-28T09:47:45Z</time>
      </trkpt>
      <trkpt lat="45.77892" lon="3.14765">
        <ele>338.6</ele>
        <time>2024-04-28T09:47:46Z</time>
      </trkpt>
      <trkpt lat="45.77897" lon="3.14769">
        <ele>338.6</ele>
        <time>2024-04-28T09:47:47Z</time>
      </trkpt>
      <trkpt lat="45.77901" lon="3.14772">
        <ele>338.6</ele>
        <time>2024-04-28T09:47:48Z</time>
      </trkpt>
      <trkpt lat="45.77906" lon="3.14776">
        <ele>338.4</ele>
        <time>2024-04-28T09:47:49Z</time>
      </trkpt>
      <trkpt lat="45.77909" lon="3.14778">
        <ele>338.4</ele>
        <time>2024-04-28T09:47:50Z</time>
      </trkpt>
      <trkpt lat="45.77912" lon="3.14777">
        <ele>338.6</ele>
        <time>2024-04-28T09:47:51Z</time>
      </trkpt>
      <trkpt lat="45.77917" lon="3.14775">
        <ele>338.6</ele>
        <time>2024-04-28T09:47:52Z</time>
      </trkpt>
      <trkpt lat="45.77921" lon="3.14774">
        <ele>338.4</ele>
        <time>2024-04-28T09:47:53Z</time>
      </trkpt>
      <trkpt lat="45.77924" lon="3.14773">
        <ele>338.4</ele>
        <time>2024-04-28T09:47:54Z</time>
      </trkpt>
      <trkpt lat="45.77927" lon="3.14769">
        <ele>338.6</ele>
        <time>2024-04-28T09:47:55Z</time>
      </trkpt>
      <trkpt lat="45.77931" lon="3.14765">
        <ele>338.4</ele>
        <time>2024-04-28T09:47:56Z</time>
      </trkpt>
      <trkpt lat="45.77935" lon="3.1476">
        <ele>338.4</ele>
        <time>2024-04-28T09:47:57Z</time>
      </trkpt>
      <trkpt lat="45.77937" lon="3.14755">
        <ele>338.4</ele>
        <time>2024-04-28T09:47:58Z</time>
      </trkpt>
      <trkpt lat="45.77939" lon="3.14746">
        <ele>338.4</ele>
        <time>2024-04-28T09:47:59Z</time>
      </trkpt>
      <trkpt lat="45.7794" lon="3.14737">
        <ele>338.2</ele>
        <time>2024-04-28T09:48:00Z</time>
      </trkpt>
      <trkpt lat="45.77947" lon="3.1473">
        <ele>338.2</ele>
        <time>2024-04-28T09:48:01Z</time>
      </trkpt>
      <trkpt lat="45.77952" lon="3.14726">
        <ele>338.2</ele>
        <time>2024-04-28T09:48:02Z</time>
      </trkpt>
      <trkpt lat="45.77958" lon="3.14722">
        <ele>338</ele>
        <time>2024-04-28T09:48:03Z</time>
      </trkpt>
      <trkpt lat="45.77964" lon="3.14717">
        <ele>338</ele>
        <time>2024-04-28T09:48:04Z</time>
      </trkpt>
      <trkpt lat="45.77971" lon="3.14713">
        <ele>338</ele>
        <time>2024-04-28T09:48:05Z</time>
      </trkpt>
      <trkpt lat="45.77977" lon="3.14708">
        <ele>337.8</ele>
        <time>2024-04-28T09:48:06Z</time>
      </trkpt>
      <trkpt lat="45.77983" lon="3.14704">
        <ele>337.8</ele>
        <time>2024-04-28T09:48:07Z</time>
      </trkpt>
      <trkpt lat="45.77989" lon="3.14699">
        <ele>337.8</ele>
        <time>2024-04-28T09:48:08Z</time>
      </trkpt>
      <trkpt lat="45.77995" lon="3.14695">
        <ele>337.8</ele>
        <time>2024-04-28T09:48:09Z</time>
      </trkpt>
      <trkpt lat="45.78001" lon="3.1469">
        <ele>337.8</ele>
        <time>2024-04-28T09:48:10Z</time>
      </trkpt>
      <trkpt lat="45.78008" lon="3.14686">
        <ele>337.6</ele>
        <time>2024-04-28T09:48:11Z</time>
      </trkpt>
      <trkpt lat="45.78014" lon="3.14681">
        <ele>337.6</ele>
        <time>2024-04-28T09:48:12Z</time>
      </trkpt>
      <trkpt lat="45.7802" lon="3.14677">
        <ele>337.6</ele>
        <time>2024-04-28T09:48:13Z</time>
      </trkpt>
      <trkpt lat="45.78026" lon="3.14672">
        <ele>337.6</ele>
        <time>2024-04-28T09:48:14Z</time>
      </trkpt>
      <trkpt lat="45.78033" lon="3.14668">
        <ele>337.6</ele>
        <time>2024-04-28T09:48:15Z</time>
      </trkpt>
      <trkpt lat="45.78039" lon="3.14665">
        <ele>337.6</ele>
        <time>2024-04-28T09:48:16Z</time>
      </trkpt>
      <trkpt lat="45.78046" lon="3.14661">
        <ele>337.6</ele>
        <time>2024-04-28T09:48:17Z</time>
      </trkpt>
      <trkpt lat="45.78052" lon="3.14658">
        <ele>337.6</ele>
        <time>2024-04-28T09:48:18Z</time>
      </trkpt>
      <trkpt lat="45.78059" lon="3.14654">
        <ele>337.6</ele>
        <time>2024-04-28T09:48:19Z</time>
      </trkpt>
      <trkpt lat="45.78066" lon="3.14651">
        <ele>337.6</ele>
        <time>2024-04-28T09:48:20Z</time>
      </trkpt>
      <trkpt lat="45.78072" lon="3.14648">
        <ele>337.6</ele>
        <time>2024-04-28T09:48:21Z</time>
      </trkpt>
      <trkpt lat="45.78079" lon="3.14644">
        <ele>337.6</ele>
        <time>2024-04-28T09:48:22Z</time>
      </trkpt>
      <trkpt lat="45.78085" lon="3.14641">
        <ele>337.6</ele>
        <time>2024-04-28T09:48:23Z</time>
      </trkpt>
      <trkpt lat="45.78092" lon="3.14637">
        <ele>337.6</ele>
        <time>2024-04-28T09:48:24Z</time>
      </trkpt>
      <trkpt lat="45.78098" lon="3.14634">
        <ele>337.6</ele>
        <time>2024-04-28T09:48:25Z</time>
      </trkpt>
      <trkpt lat="45.78105" lon="3.1463">
        <ele>337.6</ele>
        <time>2024-04-28T09:48:26Z</time>
      </trkpt>
      <trkpt lat="45.78112" lon="3.14627">
        <ele>337.6</ele>
        <time>2024-04-28T09:48:27Z</time>
      </trkpt>
      <trkpt lat="45.78118" lon="3.14624">
        <ele>337.6</ele>
        <time>2024-04-28T09:48:28Z</time>
      </trkpt>
      <trkpt lat="45.78125" lon="3.1462">
        <ele>337.6</ele>
        <time>2024-04-28T09:48:29Z</time>
      </trkpt>
      <trkpt lat="45.78131" lon="3.14615">
        <ele>337.6</ele>
        <time>2024-04-28T09:48:30Z</time>
      </trkpt>
      <trkpt lat="45.78137" lon="3.1461">
        <ele>337.6</ele>
        <time>2024-04-28T09:48:31Z</time>
      </trkpt>
      <trkpt lat="45.78143" lon="3.14605">
        <ele>337.6</ele>
        <time>2024-04-28T09:48:32Z</time>
      </trkpt>
      <trkpt lat="45.78149" lon="3.146">
        <ele>337.4</ele>
        <time>2024-04-28T09:48:33Z</time>
      </trkpt>
      <trkpt lat="45.78155" lon="3.14594">
        <ele>337.4</ele>
        <time>2024-04-28T09:48:34Z</time>
      </trkpt>
      <trkpt lat="45.78162" lon="3.14589">
        <ele>337.4</ele>
        <time>2024-04-28T09:48:35Z</time>
      </trkpt>
      <trkpt lat="45.78168" lon="3.14584">
        <ele>337.4</ele>
        <time>2024-04-28T09:48:36Z</time>
      </trkpt>
      <trkpt lat="45.78174" lon="3.14579">
        <ele>337.4</ele>
        <time>2024-04-28T09:48:37Z</time>
      </trkpt>
      <trkpt lat="45.78181" lon="3.14573">
        <ele>337.4</ele>
        <time>2024-04-28T09:48:38Z</time>
      </trkpt>
      <trkpt lat="45.78187" lon="3.14568">
        <ele>337.4</ele>
        <time>2024-04-28T09:48:39Z</time>
      </trkpt>
      <trkpt lat="45.78193" lon="3.14562">
        <ele>337.2</ele>
        <time>2024-04-28T09:48:40Z</time>
      </trkpt>
      <trkpt lat="45.78199" lon="3.14555">
        <ele>337.2</ele>
        <time>2024-04-28T09:48:41Z</time>
      </trkpt>
      <trkpt lat="45.78205" lon="3.14549">
        <ele>337.2</ele>
        <time>2024-04-28T09:48:42Z</time>
      </trkpt>
      <trkpt lat="45.78211" lon="3.14543">
        <ele>337.2</ele>
        <time>2024-04-28T09:48:43Z</time>
      </trkpt>
      <trkpt lat="45.78218" lon="3.14537">
        <ele>337.2</ele>
        <time>2024-04-28T09:48:44Z</time>
      </trkpt>
      <trkpt lat="45.78224" lon="3.1453">
        <ele>337</ele>
        <time>2024-04-28T09:48:45Z</time>
      </trkpt>
      <trkpt lat="45.7823" lon="3.14523">
        <ele>337</ele>
        <time>2024-04-28T09:48:46Z</time>
      </trkpt>
      <trkpt lat="45.78236" lon="3.14516">
        <ele>337</ele>
        <time>2024-04-28T09:48:47Z</time>
      </trkpt>
      <trkpt lat="45.78242" lon="3.14509">
        <ele>336.8</ele>
        <time>2024-04-28T09:48:48Z</time>
      </trkpt>
      <trkpt lat="45.78248" lon="3.14503">
        <ele>336.8</ele>
        <time>2024-04-28T09:48:49Z</time>
      </trkpt>
      <trkpt lat="45.78254" lon="3.14496">
        <ele>336.8</ele>
        <time>2024-04-28T09:48:50Z</time>
      </trkpt>
      <trkpt lat="45.7826" lon="3.1449">
        <ele>336.8</ele>
        <time>2024-04-28T09:48:51Z</time>
      </trkpt>
      <trkpt lat="45.78266" lon="3.14484">
        <ele>336.6</ele>
        <time>2024-04-28T09:48:52Z</time>
      </trkpt>
      <trkpt lat="45.78272" lon="3.14477">
        <ele>336.6</ele>
        <time>2024-04-28T09:48:53Z</time>
      </trkpt>
      <trkpt lat="45.78278" lon="3.14471">
        <ele>336.6</ele>
        <time>2024-04-28T09:48:54Z</time>
      </trkpt>
      <trkpt lat="45.78284" lon="3.14464">
        <ele>336.6</ele>
        <time>2024-04-28T09:48:55Z</time>
      </trkpt>
      <trkpt lat="45.78289" lon="3.14457">
        <ele>336.6</ele>
        <time>2024-04-28T09:48:56Z</time>
      </trkpt>
      <trkpt lat="45.78295" lon="3.1445">
        <ele>336.6</ele>
        <time>2024-04-28T09:48:57Z</time>
      </trkpt>
      <trkpt lat="45.783" lon="3.14444">
        <ele>336.6</ele>
        <time>2024-04-28T09:48:58Z</time>
      </trkpt>
      <trkpt lat="45.78305" lon="3.14437">
        <ele>336.6</ele>
        <time>2024-04-28T09:48:59Z</time>
      </trkpt>
      <trkpt lat="45.78311" lon="3.1443">
        <ele>336.6</ele>
        <time>2024-04-28T09:49:00Z</time>
      </trkpt>
      <trkpt lat="45.78316" lon="3.14424">
        <ele>336.6</ele>
        <time>2024-04-28T09:49:01Z</time>
      </trkpt>
      <trkpt lat="45.78321" lon="3.14418">
        <ele>336.6</ele>
        <time>2024-04-28T09:49:02Z</time>
      </trkpt>
      <trkpt lat="45.78326" lon="3.14411">
        <ele>336.6</ele>
        <time>2024-04-28T09:49:03Z</time>
      </trkpt>
      <trkpt lat="45.78331" lon="3.14405">
        <ele>336.6</ele>
        <time>2024-04-28T09:49:04Z</time>
      </trkpt>
      <trkpt lat="45.78338" lon="3.14405">
        <ele>336.6</ele>
        <time>2024-04-28T09:49:05Z</time>
      </trkpt>
      <trkpt lat="45.78346" lon="3.14408">
        <ele>336.6</ele>
        <time>2024-04-28T09:49:06Z</time>
      </trkpt>
      <trkpt lat="45.78353" lon="3.14405">
        <ele>336.6</ele>
        <time>2024-04-28T09:49:07Z</time>
      </trkpt>
      <trkpt lat="45.78359" lon="3.14402">
        <ele>336.6</ele>
        <time>2024-04-28T09:49:08Z</time>
      </trkpt>
      <trkpt lat="45.78367" lon="3.14392">
        <ele>336.2</ele>
        <time>2024-04-28T09:49:09Z</time>
      </trkpt>
      <trkpt lat="45.78368" lon="3.1438">
        <ele>336.6</ele>
        <time>2024-04-28T09:49:10Z</time>
      </trkpt>
      <trkpt lat="45.78368" lon="3.14371">
        <ele>336.8</ele>
        <time>2024-04-28T09:49:11Z</time>
      </trkpt>
      <trkpt lat="45.7837" lon="3.1436">
        <ele>337</ele>
        <time>2024-04-28T09:49:12Z</time>
      </trkpt>
      <trkpt lat="45.78374" lon="3.14354">
        <ele>337</ele>
        <time>2024-04-28T09:49:13Z</time>
      </trkpt>
      <trkpt lat="45.78379" lon="3.14347">
        <ele>337.2</ele>
        <time>2024-04-28T09:49:14Z</time>
      </trkpt>
      <trkpt lat="45.78384" lon="3.1434">
        <ele>336.8</ele>
        <time>2024-04-28T09:49:15Z</time>
      </trkpt>
      <trkpt lat="45.78389" lon="3.14333">
        <ele>336.8</ele>
        <time>2024-04-28T09:49:16Z</time>
      </trkpt>
      <trkpt lat="45.78393" lon="3.14326">
        <ele>337</ele>
        <time>2024-04-28T09:49:17Z</time>
      </trkpt>
      <trkpt lat="45.78398" lon="3.14319">
        <ele>337</ele>
        <time>2024-04-28T09:49:18Z</time>
      </trkpt>
      <trkpt lat="45.78402" lon="3.14313">
        <ele>337</ele>
        <time>2024-04-28T09:49:19Z</time>
      </trkpt>
      <trkpt lat="45.78407" lon="3.14306">
        <ele>337</ele>
        <time>2024-04-28T09:49:20Z</time>
      </trkpt>
      <trkpt lat="45.78412" lon="3.14299">
        <ele>337</ele>
        <time>2024-04-28T09:49:21Z</time>
      </trkpt>
      <trkpt lat="45.78417" lon="3.14293">
        <ele>337</ele>
        <time>2024-04-28T09:49:22Z</time>
      </trkpt>
      <trkpt lat="45.78422" lon="3.14287">
        <ele>337</ele>
        <time>2024-04-28T09:49:23Z</time>
      </trkpt>
      <trkpt lat="45.78427" lon="3.14281">
        <ele>337</ele>
        <time>2024-04-28T09:49:24Z</time>
      </trkpt>
      <trkpt lat="45.78432" lon="3.14275">
        <ele>337</ele>
        <time>2024-04-28T09:49:25Z</time>
      </trkpt>
      <trkpt lat="45.78436" lon="3.14269">
        <ele>337.2</ele>
        <time>2024-04-28T09:49:26Z</time>
      </trkpt>
      <trkpt lat="45.78442" lon="3.14263">
        <ele>337</ele>
        <time>2024-04-28T09:49:27Z</time>
      </trkpt>
      <trkpt lat="45.78447" lon="3.14256">
        <ele>337.2</ele>
        <time>2024-04-28T09:49:28Z</time>
      </trkpt>
      <trkpt lat="45.78451" lon="3.1425">
        <ele>337.2</ele>
        <time>2024-04-28T09:49:29Z</time>
      </trkpt>
      <trkpt lat="45.78457" lon="3.14245">
        <ele>337.2</ele>
        <time>2024-04-28T09:49:30Z</time>
      </trkpt>
      <trkpt lat="45.78462" lon="3.14239">
        <ele>337.2</ele>
        <time>2024-04-28T09:49:31Z</time>
      </trkpt>
      <trkpt lat="45.78467" lon="3.14234">
        <ele>337.4</ele>
        <time>2024-04-28T09:49:32Z</time>
      </trkpt>
      <trkpt lat="45.78473" lon="3.14229">
        <ele>337.4</ele>
        <time>2024-04-28T09:49:33Z</time>
      </trkpt>
      <trkpt lat="45.7848" lon="3.14225">
        <ele>337.4</ele>
        <time>2024-04-28T09:49:34Z</time>
      </trkpt>
      <trkpt lat="45.78487" lon="3.14227">
        <ele>337.4</ele>
        <time>2024-04-28T09:49:35Z</time>
      </trkpt>
      <trkpt lat="45.78494" lon="3.14226">
        <ele>337.4</ele>
        <time>2024-04-28T09:49:36Z</time>
      </trkpt>
      <trkpt lat="45.78499" lon="3.14219">
        <ele>337.4</ele>
        <time>2024-04-28T09:49:37Z</time>
      </trkpt>
      <trkpt lat="45.78502" lon="3.14211">
        <ele>337.4</ele>
        <time>2024-04-28T09:49:38Z</time>
      </trkpt>
      <trkpt lat="45.78506" lon="3.14201">
        <ele>337.4</ele>
        <time>2024-04-28T09:49:39Z</time>
      </trkpt>
      <trkpt lat="45.7851" lon="3.14193">
        <ele>337.4</ele>
        <time>2024-04-28T09:49:40Z</time>
      </trkpt>
      <trkpt lat="45.78516" lon="3.14186">
        <ele>337.4</ele>
        <time>2024-04-28T09:49:41Z</time>
      </trkpt>
      <trkpt lat="45.78522" lon="3.1418">
        <ele>337.2</ele>
        <time>2024-04-28T09:49:42Z</time>
      </trkpt>
      <trkpt lat="45.78528" lon="3.14175">
        <ele>337.2</ele>
        <time>2024-04-28T09:49:43Z</time>
      </trkpt>
      <trkpt lat="45.78534" lon="3.1417">
        <ele>337.2</ele>
        <time>2024-04-28T09:49:44Z</time>
      </trkpt>
      <trkpt lat="45.78541" lon="3.14165">
        <ele>337.4</ele>
        <time>2024-04-28T09:49:45Z</time>
      </trkpt>
      <trkpt lat="45.78547" lon="3.1416">
        <ele>337</ele>
        <time>2024-04-28T09:49:46Z</time>
      </trkpt>
      <trkpt lat="45.78553" lon="3.14155">
        <ele>337</ele>
        <time>2024-04-28T09:49:47Z</time>
      </trkpt>
      <trkpt lat="45.78559" lon="3.1415">
        <ele>337</ele>
        <time>2024-04-28T09:49:48Z</time>
      </trkpt>
      <trkpt lat="45.78565" lon="3.14144">
        <ele>337</ele>
        <time>2024-04-28T09:49:49Z</time>
      </trkpt>
      <trkpt lat="45.78571" lon="3.14139">
        <ele>337</ele>
        <time>2024-04-28T09:49:50Z</time>
      </trkpt>
      <trkpt lat="45.78577" lon="3.14134">
        <ele>337</ele>
        <time>2024-04-28T09:49:51Z</time>
      </trkpt>
      <trkpt lat="45.78584" lon="3.14129">
        <ele>337</ele>
        <time>2024-04-28T09:49:52Z</time>
      </trkpt>
      <trkpt lat="45.7859" lon="3.14124">
        <ele>337</ele>
        <time>2024-04-28T09:49:53Z</time>
      </trkpt>
      <trkpt lat="45.78596" lon="3.1412">
        <ele>337</ele>
        <time>2024-04-28T09:49:54Z</time>
      </trkpt>
      <trkpt lat="45.78603" lon="3.14115">
        <ele>337</ele>
        <time>2024-04-28T09:49:55Z</time>
      </trkpt>
      <trkpt lat="45.78609" lon="3.1411">
        <ele>337</ele>
        <time>2024-04-28T09:49:56Z</time>
      </trkpt>
      <trkpt lat="45.78616" lon="3.14105">
        <ele>337</ele>
        <time>2024-04-28T09:49:57Z</time>
      </trkpt>
      <trkpt lat="45.78622" lon="3.14101">
        <ele>337</ele>
        <time>2024-04-28T09:49:58Z</time>
      </trkpt>
      <trkpt lat="45.78628" lon="3.14096">
        <ele>337</ele>
        <time>2024-04-28T09:49:59Z</time>
      </trkpt>
      <trkpt lat="45.78635" lon="3.14091">
        <ele>336.8</ele>
        <time>2024-04-28T09:50:00Z</time>
      </trkpt>
      <trkpt lat="45.78641" lon="3.14086">
        <ele>336.8</ele>
        <time>2024-04-28T09:50:01Z</time>
      </trkpt>
      <trkpt lat="45.78648" lon="3.14082">
        <ele>336.8</ele>
        <time>2024-04-28T09:50:02Z</time>
      </trkpt>
      <trkpt lat="45.78654" lon="3.14077">
        <ele>336.8</ele>
        <time>2024-04-28T09:50:03Z</time>
      </trkpt>
      <trkpt lat="45.7866" lon="3.14072">
        <ele>336.6</ele>
        <time>2024-04-28T09:50:04Z</time>
      </trkpt>
      <trkpt lat="45.78667" lon="3.14067">
        <ele>336.6</ele>
        <time>2024-04-28T09:50:05Z</time>
      </trkpt>
      <trkpt lat="45.78674" lon="3.14062">
        <ele>336.6</ele>
        <time>2024-04-28T09:50:06Z</time>
      </trkpt>
      <trkpt lat="45.7868" lon="3.14058">
        <ele>336.6</ele>
        <time>2024-04-28T09:50:07Z</time>
      </trkpt>
      <trkpt lat="45.78686" lon="3.14053">
        <ele>336.6</ele>
        <time>2024-04-28T09:50:08Z</time>
      </trkpt>
      <trkpt lat="45.78693" lon="3.14048">
        <ele>336.6</ele>
        <time>2024-04-28T09:50:09Z</time>
      </trkpt>
      <trkpt lat="45.78699" lon="3.14044">
        <ele>336.6</ele>
        <time>2024-04-28T09:50:10Z</time>
      </trkpt>
      <trkpt lat="45.78705" lon="3.14039">
        <ele>336.6</ele>
        <time>2024-04-28T09:50:11Z</time>
      </trkpt>
      <trkpt lat="45.78712" lon="3.14034">
        <ele>336.6</ele>
        <time>2024-04-28T09:50:12Z</time>
      </trkpt>
      <trkpt lat="45.78718" lon="3.14029">
        <ele>336.4</ele>
        <time>2024-04-28T09:50:13Z</time>
      </trkpt>
      <trkpt lat="45.78724" lon="3.14024">
        <ele>336.4</ele>
        <time>2024-04-28T09:50:14Z</time>
      </trkpt>
      <trkpt lat="45.7873" lon="3.1402">
        <ele>336.2</ele>
        <time>2024-04-28T09:50:15Z</time>
      </trkpt>
      <trkpt lat="45.78737" lon="3.14015">
        <ele>336.2</ele>
        <time>2024-04-28T09:50:16Z</time>
      </trkpt>
      <trkpt lat="45.78743" lon="3.1401">
        <ele>336</ele>
        <time>2024-04-28T09:50:17Z</time>
      </trkpt>
      <trkpt lat="45.78749" lon="3.14005">
        <ele>336</ele>
        <time>2024-04-28T09:50:18Z</time>
      </trkpt>
      <trkpt lat="45.78755" lon="3.14">
        <ele>336</ele>
        <time>2024-04-28T09:50:19Z</time>
      </trkpt>
      <trkpt lat="45.78761" lon="3.13995">
        <ele>336</ele>
        <time>2024-04-28T09:50:20Z</time>
      </trkpt>
      <trkpt lat="45.78767" lon="3.1399">
        <ele>335.8</ele>
        <time>2024-04-28T09:50:21Z</time>
      </trkpt>
      <trkpt lat="45.78773" lon="3.13985">
        <ele>335.8</ele>
        <time>2024-04-28T09:50:22Z</time>
      </trkpt>
      <trkpt lat="45.78779" lon="3.13982">
        <ele>335.8</ele>
        <time>2024-04-28T09:50:23Z</time>
      </trkpt>
      <trkpt lat="45.78786" lon="3.1398">
        <ele>335.8</ele>
        <time>2024-04-28T09:50:24Z</time>
      </trkpt>
      <trkpt lat="45.78793" lon="3.13978">
        <ele>335.8</ele>
        <time>2024-04-28T09:50:25Z</time>
      </trkpt>
      <trkpt lat="45.788" lon="3.13975">
        <ele>335.8</ele>
        <time>2024-04-28T09:50:26Z</time>
      </trkpt>
      <trkpt lat="45.78807" lon="3.13974">
        <ele>335.8</ele>
        <time>2024-04-28T09:50:27Z</time>
      </trkpt>
      <trkpt lat="45.78814" lon="3.13977">
        <ele>335.8</ele>
        <time>2024-04-28T09:50:28Z</time>
      </trkpt>
      <trkpt lat="45.7882" lon="3.13983">
        <ele>335.6</ele>
        <time>2024-04-28T09:50:29Z</time>
      </trkpt>
      <trkpt lat="45.78826" lon="3.13988">
        <ele>335.6</ele>
        <time>2024-04-28T09:50:30Z</time>
      </trkpt>
      <trkpt lat="45.78832" lon="3.13994">
        <ele>335.6</ele>
        <time>2024-04-28T09:50:31Z</time>
      </trkpt>
      <trkpt lat="45.78838" lon="3.13999">
        <ele>335.6</ele>
        <time>2024-04-28T09:50:32Z</time>
      </trkpt>
      <trkpt lat="45.78844" lon="3.14004">
        <ele>335.6</ele>
        <time>2024-04-28T09:50:33Z</time>
      </trkpt>
      <trkpt lat="45.7885" lon="3.1401">
        <ele>335.6</ele>
        <time>2024-04-28T09:50:34Z</time>
      </trkpt>
      <trkpt lat="45.78856" lon="3.14015">
        <ele>335.4</ele>
        <time>2024-04-28T09:50:35Z</time>
      </trkpt>
      <trkpt lat="45.78862" lon="3.14021">
        <ele>335.4</ele>
        <time>2024-04-28T09:50:36Z</time>
      </trkpt>
      <trkpt lat="45.78867" lon="3.14028">
        <ele>335.4</ele>
        <time>2024-04-28T09:50:37Z</time>
      </trkpt>
      <trkpt lat="45.78872" lon="3.14034">
        <ele>335.2</ele>
        <time>2024-04-28T09:50:38Z</time>
      </trkpt>
      <trkpt lat="45.78878" lon="3.14041">
        <ele>335.2</ele>
        <time>2024-04-28T09:50:39Z</time>
      </trkpt>
      <trkpt lat="45.78883" lon="3.14047">
        <ele>335.2</ele>
        <time>2024-04-28T09:50:40Z</time>
      </trkpt>
      <trkpt lat="45.78888" lon="3.14053">
        <ele>335.2</ele>
        <time>2024-04-28T09:50:41Z</time>
      </trkpt>
      <trkpt lat="45.78894" lon="3.1406">
        <ele>335.2</ele>
        <time>2024-04-28T09:50:42Z</time>
      </trkpt>
      <trkpt lat="45.78899" lon="3.14066">
        <ele>335.2</ele>
        <time>2024-04-28T09:50:43Z</time>
      </trkpt>
      <trkpt lat="45.78905" lon="3.14073">
        <ele>335.2</ele>
        <time>2024-04-28T09:50:44Z</time>
      </trkpt>
      <trkpt lat="45.7891" lon="3.14079">
        <ele>335.2</ele>
        <time>2024-04-28T09:50:45Z</time>
      </trkpt>
      <trkpt lat="45.78915" lon="3.14086">
        <ele>335.2</ele>
        <time>2024-04-28T09:50:46Z</time>
      </trkpt>
      <trkpt lat="45.78921" lon="3.14092">
        <ele>335.2</ele>
        <time>2024-04-28T09:50:47Z</time>
      </trkpt>
      <trkpt lat="45.78926" lon="3.14099">
        <ele>335.2</ele>
        <time>2024-04-28T09:50:48Z</time>
      </trkpt>
      <trkpt lat="45.78932" lon="3.14106">
        <ele>335</ele>
        <time>2024-04-28T09:50:49Z</time>
      </trkpt>
      <trkpt lat="45.78937" lon="3.14112">
        <ele>335</ele>
        <time>2024-04-28T09:50:50Z</time>
      </trkpt>
      <trkpt lat="45.78943" lon="3.14119">
        <ele>335</ele>
        <time>2024-04-28T09:50:51Z</time>
      </trkpt>
      <trkpt lat="45.78948" lon="3.14125">
        <ele>335</ele>
        <time>2024-04-28T09:50:52Z</time>
      </trkpt>
      <trkpt lat="45.78954" lon="3.14133">
        <ele>335</ele>
        <time>2024-04-28T09:50:53Z</time>
      </trkpt>
      <trkpt lat="45.78958" lon="3.14141">
        <ele>335</ele>
        <time>2024-04-28T09:50:54Z</time>
      </trkpt>
      <trkpt lat="45.78963" lon="3.14149">
        <ele>335</ele>
        <time>2024-04-28T09:50:55Z</time>
      </trkpt>
      <trkpt lat="45.78967" lon="3.14157">
        <ele>335</ele>
        <time>2024-04-28T09:50:56Z</time>
      </trkpt>
      <trkpt lat="45.78972" lon="3.14165">
        <ele>334.8</ele>
        <time>2024-04-28T09:50:57Z</time>
      </trkpt>
      <trkpt lat="45.78976" lon="3.14172">
        <ele>334.8</ele>
        <time>2024-04-28T09:50:58Z</time>
      </trkpt>
      <trkpt lat="45.78981" lon="3.1418">
        <ele>334.8</ele>
        <time>2024-04-28T09:50:59Z</time>
      </trkpt>
      <trkpt lat="45.78985" lon="3.14189">
        <ele>334.8</ele>
        <time>2024-04-28T09:51:00Z</time>
      </trkpt>
      <trkpt lat="45.7899" lon="3.14196">
        <ele>334.8</ele>
        <time>2024-04-28T09:51:01Z</time>
      </trkpt>
      <trkpt lat="45.78995" lon="3.14204">
        <ele>334.8</ele>
        <time>2024-04-28T09:51:02Z</time>
      </trkpt>
      <trkpt lat="45.78999" lon="3.14213">
        <ele>334.8</ele>
        <time>2024-04-28T09:51:03Z</time>
      </trkpt>
      <trkpt lat="45.79004" lon="3.14221">
        <ele>334.6</ele>
        <time>2024-04-28T09:51:04Z</time>
      </trkpt>
      <trkpt lat="45.79009" lon="3.14229">
        <ele>334.6</ele>
        <time>2024-04-28T09:51:05Z</time>
      </trkpt>
      <trkpt lat="45.79013" lon="3.14236">
        <ele>334.6</ele>
        <time>2024-04-28T09:51:06Z</time>
      </trkpt>
      <trkpt lat="45.79018" lon="3.14244">
        <ele>334.4</ele>
        <time>2024-04-28T09:51:07Z</time>
      </trkpt>
      <trkpt lat="45.79022" lon="3.14252">
        <ele>334.4</ele>
        <time>2024-04-28T09:51:08Z</time>
      </trkpt>
      <trkpt lat="45.79027" lon="3.1426">
        <ele>334.4</ele>
        <time>2024-04-28T09:51:09Z</time>
      </trkpt>
      <trkpt lat="45.79031" lon="3.14267">
        <ele>334.4</ele>
        <time>2024-04-28T09:51:10Z</time>
      </trkpt>
      <trkpt lat="45.79036" lon="3.14275">
        <ele>334.2</ele>
        <time>2024-04-28T09:51:11Z</time>
      </trkpt>
      <trkpt lat="45.79041" lon="3.14283">
        <ele>334.2</ele>
        <time>2024-04-28T09:51:12Z</time>
      </trkpt>
      <trkpt lat="45.79045" lon="3.14291">
        <ele>334.4</ele>
        <time>2024-04-28T09:51:13Z</time>
      </trkpt>
      <trkpt lat="45.7905" lon="3.14299">
        <ele>334.4</ele>
        <time>2024-04-28T09:51:14Z</time>
      </trkpt>
      <trkpt lat="45.79054" lon="3.14307">
        <ele>334.4</ele>
        <time>2024-04-28T09:51:15Z</time>
      </trkpt>
      <trkpt lat="45.79058" lon="3.14315">
        <ele>334.4</ele>
        <time>2024-04-28T09:51:16Z</time>
      </trkpt>
      <trkpt lat="45.79062" lon="3.14324">
        <ele>334.4</ele>
        <time>2024-04-28T09:51:17Z</time>
      </trkpt>
      <trkpt lat="45.79066" lon="3.14333">
        <ele>334.4</ele>
        <time>2024-04-28T09:51:18Z</time>
      </trkpt>
      <trkpt lat="45.79071" lon="3.14342">
        <ele>334.4</ele>
        <time>2024-04-28T09:51:19Z</time>
      </trkpt>
      <trkpt lat="45.79076" lon="3.14353">
        <ele>334.4</ele>
        <time>2024-04-28T09:51:20Z</time>
      </trkpt>
      <trkpt lat="45.7908" lon="3.1436">
        <ele>334.4</ele>
        <time>2024-04-28T09:51:21Z</time>
      </trkpt>
      <trkpt lat="45.79085" lon="3.14369">
        <ele>334.2</ele>
        <time>2024-04-28T09:51:22Z</time>
      </trkpt>
      <trkpt lat="45.79089" lon="3.14378">
        <ele>334.8</ele>
        <time>2024-04-28T09:51:23Z</time>
      </trkpt>
      <trkpt lat="45.79094" lon="3.14386">
        <ele>334.8</ele>
        <time>2024-04-28T09:51:24Z</time>
      </trkpt>
      <trkpt lat="45.79098" lon="3.14395">
        <ele>334.8</ele>
        <time>2024-04-28T09:51:25Z</time>
      </trkpt>
      <trkpt lat="45.79103" lon="3.14403">
        <ele>334.8</ele>
        <time>2024-04-28T09:51:26Z</time>
      </trkpt>
      <trkpt lat="45.79107" lon="3.14411">
        <ele>334.8</ele>
        <time>2024-04-28T09:51:27Z</time>
      </trkpt>
      <trkpt lat="45.79111" lon="3.14419">
        <ele>334.8</ele>
        <time>2024-04-28T09:51:28Z</time>
      </trkpt>
      <trkpt lat="45.79116" lon="3.14427">
        <ele>334.8</ele>
        <time>2024-04-28T09:51:29Z</time>
      </trkpt>
      <trkpt lat="45.7912" lon="3.14435">
        <ele>335</ele>
        <time>2024-04-28T09:51:30Z</time>
      </trkpt>
      <trkpt lat="45.7913" lon="3.14435">
        <ele>335</ele>
        <time>2024-04-28T09:51:31Z</time>
      </trkpt>
      <trkpt lat="45.79135" lon="3.14442">
        <ele>335</ele>
        <time>2024-04-28T09:51:32Z</time>
      </trkpt>
      <trkpt lat="45.79139" lon="3.14449">
        <ele>335</ele>
        <time>2024-04-28T09:51:33Z</time>
      </trkpt>
      <trkpt lat="45.79144" lon="3.14455">
        <ele>335</ele>
        <time>2024-04-28T09:51:34Z</time>
      </trkpt>
      <trkpt lat="45.79148" lon="3.14462">
        <ele>335</ele>
        <time>2024-04-28T09:51:35Z</time>
      </trkpt>
      <trkpt lat="45.79153" lon="3.14469">
        <ele>335</ele>
        <time>2024-04-28T09:51:36Z</time>
      </trkpt>
      <trkpt lat="45.79157" lon="3.14475">
        <ele>335</ele>
        <time>2024-04-28T09:51:37Z</time>
      </trkpt>
      <trkpt lat="45.79161" lon="3.14482">
        <ele>335</ele>
        <time>2024-04-28T09:51:38Z</time>
      </trkpt>
      <trkpt lat="45.79166" lon="3.14488">
        <ele>335</ele>
        <time>2024-04-28T09:51:39Z</time>
      </trkpt>
      <trkpt lat="45.79171" lon="3.14493">
        <ele>335</ele>
        <time>2024-04-28T09:51:40Z</time>
      </trkpt>
      <trkpt lat="45.79176" lon="3.14498">
        <ele>335</ele>
        <time>2024-04-28T09:51:41Z</time>
      </trkpt>
      <trkpt lat="45.79181" lon="3.14503">
        <ele>335</ele>
        <time>2024-04-28T09:51:42Z</time>
      </trkpt>
      <trkpt lat="45.79186" lon="3.14509">
        <ele>335</ele>
        <time>2024-04-28T09:51:43Z</time>
      </trkpt>
      <trkpt lat="45.7919" lon="3.14514">
        <ele>335</ele>
        <time>2024-04-28T09:51:44Z</time>
      </trkpt>
      <trkpt lat="45.79195" lon="3.14519">
        <ele>335</ele>
        <time>2024-04-28T09:51:45Z</time>
      </trkpt>
      <trkpt lat="45.792" lon="3.14524">
        <ele>335.2</ele>
        <time>2024-04-28T09:51:46Z</time>
      </trkpt>
      <trkpt lat="45.79205" lon="3.14529">
        <ele>335.2</ele>
        <time>2024-04-28T09:51:47Z</time>
      </trkpt>
      <trkpt lat="45.79209" lon="3.14533">
        <ele>335.2</ele>
        <time>2024-04-28T09:51:48Z</time>
      </trkpt>
      <trkpt lat="45.79214" lon="3.14538">
        <ele>335.4</ele>
        <time>2024-04-28T09:51:49Z</time>
      </trkpt>
      <trkpt lat="45.79218" lon="3.14543">
        <ele>335.4</ele>
        <time>2024-04-28T09:51:50Z</time>
      </trkpt>
      <trkpt lat="45.79223" lon="3.14548">
        <ele>335.6</ele>
        <time>2024-04-28T09:51:51Z</time>
      </trkpt>
      <trkpt lat="45.79228" lon="3.14553">
        <ele>335.6</ele>
        <time>2024-04-28T09:51:52Z</time>
      </trkpt>
      <trkpt lat="45.79233" lon="3.14558">
        <ele>335.6</ele>
        <time>2024-04-28T09:51:53Z</time>
      </trkpt>
      <trkpt lat="45.79237" lon="3.14563">
        <ele>335.6</ele>
        <time>2024-04-28T09:51:54Z</time>
      </trkpt>
      <trkpt lat="45.79242" lon="3.14568">
        <ele>335.8</ele>
        <time>2024-04-28T09:51:55Z</time>
      </trkpt>
      <trkpt lat="45.79246" lon="3.14572">
        <ele>335.8</ele>
        <time>2024-04-28T09:51:56Z</time>
      </trkpt>
      <trkpt lat="45.79251" lon="3.14577">
        <ele>335.8</ele>
        <time>2024-04-28T09:51:57Z</time>
      </trkpt>
      <trkpt lat="45.79256" lon="3.14581">
        <ele>335.8</ele>
        <time>2024-04-28T09:51:58Z</time>
      </trkpt>
      <trkpt lat="45.79261" lon="3.14584">
        <ele>336</ele>
        <time>2024-04-28T09:51:59Z</time>
      </trkpt>
      <trkpt lat="45.79267" lon="3.14588">
        <ele>336</ele>
        <time>2024-04-28T09:52:00Z</time>
      </trkpt>
      <trkpt lat="45.79272" lon="3.14592">
        <ele>336.2</ele>
        <time>2024-04-28T09:52:01Z</time>
      </trkpt>
      <trkpt lat="45.79277" lon="3.14596">
        <ele>336.2</ele>
        <time>2024-04-28T09:52:02Z</time>
      </trkpt>
      <trkpt lat="45.79283" lon="3.146">
        <ele>336.2</ele>
        <time>2024-04-28T09:52:03Z</time>
      </trkpt>
      <trkpt lat="45.79289" lon="3.14604">
        <ele>336.2</ele>
        <time>2024-04-28T09:52:04Z</time>
      </trkpt>
      <trkpt lat="45.79294" lon="3.14608">
        <ele>336.4</ele>
        <time>2024-04-28T09:52:05Z</time>
      </trkpt>
      <trkpt lat="45.793" lon="3.14611">
        <ele>336.4</ele>
        <time>2024-04-28T09:52:06Z</time>
      </trkpt>
      <trkpt lat="45.79306" lon="3.14614">
        <ele>336.4</ele>
        <time>2024-04-28T09:52:07Z</time>
      </trkpt>
      <trkpt lat="45.79312" lon="3.14617">
        <ele>336.4</ele>
        <time>2024-04-28T09:52:08Z</time>
      </trkpt>
      <trkpt lat="45.79318" lon="3.1462">
        <ele>336.4</ele>
        <time>2024-04-28T09:52:09Z</time>
      </trkpt>
      <trkpt lat="45.79325" lon="3.14624">
        <ele>336.4</ele>
        <time>2024-04-28T09:52:10Z</time>
      </trkpt>
      <trkpt lat="45.79331" lon="3.14627">
        <ele>336.4</ele>
        <time>2024-04-28T09:52:11Z</time>
      </trkpt>
      <trkpt lat="45.79338" lon="3.1463">
        <ele>336.4</ele>
        <time>2024-04-28T09:52:12Z</time>
      </trkpt>
      <trkpt lat="45.79344" lon="3.14634">
        <ele>336.4</ele>
        <time>2024-04-28T09:52:13Z</time>
      </trkpt>
      <trkpt lat="45.79351" lon="3.14637">
        <ele>336.4</ele>
        <time>2024-04-28T09:52:14Z</time>
      </trkpt>
      <trkpt lat="45.79358" lon="3.14641">
        <ele>336.2</ele>
        <time>2024-04-28T09:52:15Z</time>
      </trkpt>
      <trkpt lat="45.79365" lon="3.14643">
        <ele>336.2</ele>
        <time>2024-04-28T09:52:16Z</time>
      </trkpt>
      <trkpt lat="45.79372" lon="3.14645">
        <ele>336</ele>
        <time>2024-04-28T09:52:17Z</time>
      </trkpt>
      <trkpt lat="45.79379" lon="3.14647">
        <ele>336.6</ele>
        <time>2024-04-28T09:52:18Z</time>
      </trkpt>
      <trkpt lat="45.79387" lon="3.14649">
        <ele>336.4</ele>
        <time>2024-04-28T09:52:19Z</time>
      </trkpt>
      <trkpt lat="45.79395" lon="3.14652">
        <ele>336.2</ele>
        <time>2024-04-28T09:52:20Z</time>
      </trkpt>
      <trkpt lat="45.79403" lon="3.14654">
        <ele>336</ele>
        <time>2024-04-28T09:52:21Z</time>
      </trkpt>
      <trkpt lat="45.79411" lon="3.14656">
        <ele>335.4</ele>
        <time>2024-04-28T09:52:22Z</time>
      </trkpt>
      <trkpt lat="45.79419" lon="3.14659">
        <ele>335.8</ele>
        <time>2024-04-28T09:52:23Z</time>
      </trkpt>
      <trkpt lat="45.79427" lon="3.1466">
        <ele>335.6</ele>
        <time>2024-04-28T09:52:24Z</time>
      </trkpt>
      <trkpt lat="45.79435" lon="3.14662">
        <ele>335.4</ele>
        <time>2024-04-28T09:52:25Z</time>
      </trkpt>
      <trkpt lat="45.79443" lon="3.14663">
        <ele>335.4</ele>
        <time>2024-04-28T09:52:26Z</time>
      </trkpt>
      <trkpt lat="45.79452" lon="3.14664">
        <ele>335.4</ele>
        <time>2024-04-28T09:52:27Z</time>
      </trkpt>
      <trkpt lat="45.79461" lon="3.14665">
        <ele>335.2</ele>
        <time>2024-04-28T09:52:28Z</time>
      </trkpt>
      <trkpt lat="45.79469" lon="3.14667">
        <ele>335.2</ele>
        <time>2024-04-28T09:52:29Z</time>
      </trkpt>
      <trkpt lat="45.79477" lon="3.14668">
        <ele>335.2</ele>
        <time>2024-04-28T09:52:30Z</time>
      </trkpt>
      <trkpt lat="45.79486" lon="3.14669">
        <ele>335</ele>
        <time>2024-04-28T09:52:31Z</time>
      </trkpt>
      <trkpt lat="45.79495" lon="3.14671">
        <ele>335</ele>
        <time>2024-04-28T09:52:32Z</time>
      </trkpt>
      <trkpt lat="45.79503" lon="3.14672">
        <ele>335</ele>
        <time>2024-04-28T09:52:33Z</time>
      </trkpt>
      <trkpt lat="45.79512" lon="3.14673">
        <ele>335</ele>
        <time>2024-04-28T09:52:34Z</time>
      </trkpt>
      <trkpt lat="45.7952" lon="3.14674">
        <ele>335</ele>
        <time>2024-04-28T09:52:35Z</time>
      </trkpt>
      <trkpt lat="45.79529" lon="3.14676">
        <ele>334.8</ele>
        <time>2024-04-28T09:52:36Z</time>
      </trkpt>
      <trkpt lat="45.79537" lon="3.14677">
        <ele>334.8</ele>
        <time>2024-04-28T09:52:37Z</time>
      </trkpt>
      <trkpt lat="45.79545" lon="3.14678">
        <ele>334.8</ele>
        <time>2024-04-28T09:52:38Z</time>
      </trkpt>
      <trkpt lat="45.79553" lon="3.14679">
        <ele>334.8</ele>
        <time>2024-04-28T09:52:39Z</time>
      </trkpt>
      <trkpt lat="45.79561" lon="3.14681">
        <ele>334.8</ele>
        <time>2024-04-28T09:52:40Z</time>
      </trkpt>
      <trkpt lat="45.79569" lon="3.14682">
        <ele>334.8</ele>
        <time>2024-04-28T09:52:41Z</time>
      </trkpt>
      <trkpt lat="45.79577" lon="3.14683">
        <ele>334.8</ele>
        <time>2024-04-28T09:52:42Z</time>
      </trkpt>
      <trkpt lat="45.79585" lon="3.14684">
        <ele>334.6</ele>
        <time>2024-04-28T09:52:43Z</time>
      </trkpt>
      <trkpt lat="45.79593" lon="3.14685">
        <ele>334.6</ele>
        <time>2024-04-28T09:52:44Z</time>
      </trkpt>
      <trkpt lat="45.79601" lon="3.14687">
        <ele>334.6</ele>
        <time>2024-04-28T09:52:45Z</time>
      </trkpt>
      <trkpt lat="45.79609" lon="3.14688">
        <ele>334.6</ele>
        <time>2024-04-28T09:52:46Z</time>
      </trkpt>
      <trkpt lat="45.79617" lon="3.14689">
        <ele>334.6</ele>
        <time>2024-04-28T09:52:47Z</time>
      </trkpt>
      <trkpt lat="45.79625" lon="3.1469">
        <ele>334.6</ele>
        <time>2024-04-28T09:52:48Z</time>
      </trkpt>
      <trkpt lat="45.79633" lon="3.14691">
        <ele>334.6</ele>
        <time>2024-04-28T09:52:49Z</time>
      </trkpt>
      <trkpt lat="45.79641" lon="3.14692">
        <ele>334.6</ele>
        <time>2024-04-28T09:52:50Z</time>
      </trkpt>
      <trkpt lat="45.79649" lon="3.14694">
        <ele>334.4</ele>
        <time>2024-04-28T09:52:51Z</time>
      </trkpt>
      <trkpt lat="45.79657" lon="3.14695">
        <ele>334.4</ele>
        <time>2024-04-28T09:52:52Z</time>
      </trkpt>
      <trkpt lat="45.79665" lon="3.14697">
        <ele>334.4</ele>
        <time>2024-04-28T09:52:53Z</time>
      </trkpt>
      <trkpt lat="45.79673" lon="3.14699">
        <ele>334.2</ele>
        <time>2024-04-28T09:52:54Z</time>
      </trkpt>
      <trkpt lat="45.79681" lon="3.147">
        <ele>334.2</ele>
        <time>2024-04-28T09:52:55Z</time>
      </trkpt>
      <trkpt lat="45.79689" lon="3.14702">
        <ele>334</ele>
        <time>2024-04-28T09:52:56Z</time>
      </trkpt>
      <trkpt lat="45.79697" lon="3.14704">
        <ele>334</ele>
        <time>2024-04-28T09:52:57Z</time>
      </trkpt>
      <trkpt lat="45.79704" lon="3.14705">
        <ele>334</ele>
        <time>2024-04-28T09:52:58Z</time>
      </trkpt>
      <trkpt lat="45.79712" lon="3.14707">
        <ele>334</ele>
        <time>2024-04-28T09:52:59Z</time>
      </trkpt>
      <trkpt lat="45.7972" lon="3.14709">
        <ele>334</ele>
        <time>2024-04-28T09:53:00Z</time>
      </trkpt>
      <trkpt lat="45.79728" lon="3.1471">
        <ele>333.8</ele>
        <time>2024-04-28T09:53:01Z</time>
      </trkpt>
      <trkpt lat="45.79736" lon="3.14712">
        <ele>333.8</ele>
        <time>2024-04-28T09:53:02Z</time>
      </trkpt>
      <trkpt lat="45.79744" lon="3.14714">
        <ele>333.8</ele>
        <time>2024-04-28T09:53:03Z</time>
      </trkpt>
      <trkpt lat="45.79752" lon="3.14716">
        <ele>333.6</ele>
        <time>2024-04-28T09:53:04Z</time>
      </trkpt>
      <trkpt lat="45.79759" lon="3.14717">
        <ele>333.6</ele>
        <time>2024-04-28T09:53:05Z</time>
      </trkpt>
      <trkpt lat="45.79767" lon="3.14719">
        <ele>333.6</ele>
        <time>2024-04-28T09:53:06Z</time>
      </trkpt>
      <trkpt lat="45.79775" lon="3.14722">
        <ele>333.6</ele>
        <time>2024-04-28T09:53:07Z</time>
      </trkpt>
      <trkpt lat="45.79781" lon="3.14728">
        <ele>333.4</ele>
        <time>2024-04-28T09:53:08Z</time>
      </trkpt>
      <trkpt lat="45.79786" lon="3.14737">
        <ele>333.4</ele>
        <time>2024-04-28T09:53:09Z</time>
      </trkpt>
      <trkpt lat="45.79795" lon="3.14743">
        <ele>333.4</ele>
        <time>2024-04-28T09:53:10Z</time>
      </trkpt>
      <trkpt lat="45.79803" lon="3.14744">
        <ele>333.4</ele>
        <time>2024-04-28T09:53:11Z</time>
      </trkpt>
      <trkpt lat="45.79812" lon="3.14741">
        <ele>333.4</ele>
        <time>2024-04-28T09:53:12Z</time>
      </trkpt>
      <trkpt lat="45.79818" lon="3.14735">
        <ele>333.4</ele>
        <time>2024-04-28T09:53:13Z</time>
      </trkpt>
      <trkpt lat="45.79826" lon="3.14732">
        <ele>333.4</ele>
        <time>2024-04-28T09:53:14Z</time>
      </trkpt>
      <trkpt lat="45.79834" lon="3.1473">
        <ele>333.4</ele>
        <time>2024-04-28T09:53:15Z</time>
      </trkpt>
      <trkpt lat="45.79842" lon="3.14728">
        <ele>333.2</ele>
        <time>2024-04-28T09:53:16Z</time>
      </trkpt>
      <trkpt lat="45.7985" lon="3.14729">
        <ele>333.2</ele>
        <time>2024-04-28T09:53:17Z</time>
      </trkpt>
      <trkpt lat="45.79858" lon="3.1473">
        <ele>333.2</ele>
        <time>2024-04-28T09:53:18Z</time>
      </trkpt>
      <trkpt lat="45.79866" lon="3.14731">
        <ele>333.2</ele>
        <time>2024-04-28T09:53:19Z</time>
      </trkpt>
      <trkpt lat="45.79874" lon="3.14732">
        <ele>333.2</ele>
        <time>2024-04-28T09:53:20Z</time>
      </trkpt>
      <trkpt lat="45.79882" lon="3.14733">
        <ele>333.2</ele>
        <time>2024-04-28T09:53:21Z</time>
      </trkpt>
      <trkpt lat="45.7989" lon="3.14734">
        <ele>333.2</ele>
        <time>2024-04-28T09:53:22Z</time>
      </trkpt>
      <trkpt lat="45.79898" lon="3.14735">
        <ele>333</ele>
        <time>2024-04-28T09:53:23Z</time>
      </trkpt>
      <trkpt lat="45.79906" lon="3.14736">
        <ele>333</ele>
        <time>2024-04-28T09:53:24Z</time>
      </trkpt>
      <trkpt lat="45.79914" lon="3.14737">
        <ele>333</ele>
        <time>2024-04-28T09:53:25Z</time>
      </trkpt>
      <trkpt lat="45.79922" lon="3.14737">
        <ele>333</ele>
        <time>2024-04-28T09:53:26Z</time>
      </trkpt>
      <trkpt lat="45.79929" lon="3.14738">
        <ele>333</ele>
        <time>2024-04-28T09:53:27Z</time>
      </trkpt>
      <trkpt lat="45.79937" lon="3.14739">
        <ele>332.8</ele>
        <time>2024-04-28T09:53:28Z</time>
      </trkpt>
      <trkpt lat="45.79945" lon="3.1474">
        <ele>332.8</ele>
        <time>2024-04-28T09:53:29Z</time>
      </trkpt>
      <trkpt lat="45.79953" lon="3.14741">
        <ele>332.8</ele>
        <time>2024-04-28T09:53:30Z</time>
      </trkpt>
      <trkpt lat="45.79961" lon="3.14742">
        <ele>332.8</ele>
        <time>2024-04-28T09:53:31Z</time>
      </trkpt>
      <trkpt lat="45.79969" lon="3.14743">
        <ele>332.8</ele>
        <time>2024-04-28T09:53:32Z</time>
      </trkpt>
      <trkpt lat="45.79976" lon="3.14744">
        <ele>332.8</ele>
        <time>2024-04-28T09:53:33Z</time>
      </trkpt>
      <trkpt lat="45.79984" lon="3.14744">
        <ele>332.8</ele>
        <time>2024-04-28T09:53:34Z</time>
      </trkpt>
      <trkpt lat="45.79991" lon="3.14745">
        <ele>332.6</ele>
        <time>2024-04-28T09:53:35Z</time>
      </trkpt>
      <trkpt lat="45.79998" lon="3.14746">
        <ele>332.6</ele>
        <time>2024-04-28T09:53:36Z</time>
      </trkpt>
      <trkpt lat="45.80006" lon="3.14747">
        <ele>332.6</ele>
        <time>2024-04-28T09:53:37Z</time>
      </trkpt>
      <trkpt lat="45.80013" lon="3.14748">
        <ele>332.4</ele>
        <time>2024-04-28T09:53:38Z</time>
      </trkpt>
      <trkpt lat="45.8002" lon="3.14749">
        <ele>332.4</ele>
        <time>2024-04-28T09:53:39Z</time>
      </trkpt>
      <trkpt lat="45.80028" lon="3.1475">
        <ele>332.4</ele>
        <time>2024-04-28T09:53:40Z</time>
      </trkpt>
      <trkpt lat="45.80035" lon="3.14751">
        <ele>332.2</ele>
        <time>2024-04-28T09:53:41Z</time>
      </trkpt>
      <trkpt lat="45.80042" lon="3.14752">
        <ele>332.2</ele>
        <time>2024-04-28T09:53:42Z</time>
      </trkpt>
      <trkpt lat="45.8005" lon="3.14753">
        <ele>332</ele>
        <time>2024-04-28T09:53:43Z</time>
      </trkpt>
      <trkpt lat="45.80057" lon="3.14754">
        <ele>332</ele>
        <time>2024-04-28T09:53:44Z</time>
      </trkpt>
      <trkpt lat="45.80064" lon="3.14755">
        <ele>332</ele>
        <time>2024-04-28T09:53:45Z</time>
      </trkpt>
      <trkpt lat="45.80072" lon="3.14756">
        <ele>331.8</ele>
        <time>2024-04-28T09:53:46Z</time>
      </trkpt>
      <trkpt lat="45.80079" lon="3.14757">
        <ele>331.8</ele>
        <time>2024-04-28T09:53:47Z</time>
      </trkpt>
      <trkpt lat="45.80086" lon="3.14758">
        <ele>331.8</ele>
        <time>2024-04-28T09:53:48Z</time>
      </trkpt>
      <trkpt lat="45.80093" lon="3.14759">
        <ele>331.8</ele>
        <time>2024-04-28T09:53:49Z</time>
      </trkpt>
      <trkpt lat="45.801" lon="3.14759">
        <ele>331.8</ele>
        <time>2024-04-28T09:53:50Z</time>
      </trkpt>
      <trkpt lat="45.80107" lon="3.1476">
        <ele>332</ele>
        <time>2024-04-28T09:53:51Z</time>
      </trkpt>
      <trkpt lat="45.80114" lon="3.14762">
        <ele>332</ele>
        <time>2024-04-28T09:53:52Z</time>
      </trkpt>
      <trkpt lat="45.8012" lon="3.14764">
        <ele>332</ele>
        <time>2024-04-28T09:53:53Z</time>
      </trkpt>
      <trkpt lat="45.80127" lon="3.14765">
        <ele>332</ele>
        <time>2024-04-28T09:53:54Z</time>
      </trkpt>
      <trkpt lat="45.80134" lon="3.14767">
        <ele>332</ele>
        <time>2024-04-28T09:53:55Z</time>
      </trkpt>
      <trkpt lat="45.80141" lon="3.14768">
        <ele>332</ele>
        <time>2024-04-28T09:53:56Z</time>
      </trkpt>
      <trkpt lat="45.80148" lon="3.1477">
        <ele>332</ele>
        <time>2024-04-28T09:53:57Z</time>
      </trkpt>
      <trkpt lat="45.80155" lon="3.14772">
        <ele>332</ele>
        <time>2024-04-28T09:53:58Z</time>
      </trkpt>
      <trkpt lat="45.80162" lon="3.14774">
        <ele>332</ele>
        <time>2024-04-28T09:53:59Z</time>
      </trkpt>
      <trkpt lat="45.80169" lon="3.14775">
        <ele>332</ele>
        <time>2024-04-28T09:54:00Z</time>
      </trkpt>
      <trkpt lat="45.80176" lon="3.14777">
        <ele>332</ele>
        <time>2024-04-28T09:54:01Z</time>
      </trkpt>
      <trkpt lat="45.80183" lon="3.14779">
        <ele>332</ele>
        <time>2024-04-28T09:54:02Z</time>
      </trkpt>
      <trkpt lat="45.8019" lon="3.14781">
        <ele>332</ele>
        <time>2024-04-28T09:54:03Z</time>
      </trkpt>
      <trkpt lat="45.80197" lon="3.14782">
        <ele>332</ele>
        <time>2024-04-28T09:54:04Z</time>
      </trkpt>
      <trkpt lat="45.80204" lon="3.14784">
        <ele>332</ele>
        <time>2024-04-28T09:54:05Z</time>
      </trkpt>
      <trkpt lat="45.80211" lon="3.14786">
        <ele>332</ele>
        <time>2024-04-28T09:54:06Z</time>
      </trkpt>
      <trkpt lat="45.80218" lon="3.14789">
        <ele>332</ele>
        <time>2024-04-28T09:54:07Z</time>
      </trkpt>
      <trkpt lat="45.80225" lon="3.14791">
        <ele>331.6</ele>
        <time>2024-04-28T09:54:08Z</time>
      </trkpt>
      <trkpt lat="45.80232" lon="3.14793">
        <ele>331.6</ele>
        <time>2024-04-28T09:54:09Z</time>
      </trkpt>
      <trkpt lat="45.80239" lon="3.14796">
        <ele>331.6</ele>
        <time>2024-04-28T09:54:10Z</time>
      </trkpt>
      <trkpt lat="45.80246" lon="3.14798">
        <ele>331.6</ele>
        <time>2024-04-28T09:54:11Z</time>
      </trkpt>
      <trkpt lat="45.80253" lon="3.148">
        <ele>331.6</ele>
        <time>2024-04-28T09:54:12Z</time>
      </trkpt>
      <trkpt lat="45.8026" lon="3.14803">
        <ele>331.8</ele>
        <time>2024-04-28T09:54:13Z</time>
      </trkpt>
      <trkpt lat="45.80267" lon="3.14805">
        <ele>331.8</ele>
        <time>2024-04-28T09:54:14Z</time>
      </trkpt>
      <trkpt lat="45.80274" lon="3.14807">
        <ele>331.6</ele>
        <time>2024-04-28T09:54:15Z</time>
      </trkpt>
      <trkpt lat="45.80281" lon="3.14809">
        <ele>331.6</ele>
        <time>2024-04-28T09:54:16Z</time>
      </trkpt>
      <trkpt lat="45.80288" lon="3.14812">
        <ele>331.6</ele>
        <time>2024-04-28T09:54:17Z</time>
      </trkpt>
      <trkpt lat="45.80294" lon="3.14814">
        <ele>331.6</ele>
        <time>2024-04-28T09:54:18Z</time>
      </trkpt>
      <trkpt lat="45.80301" lon="3.14817">
        <ele>331.6</ele>
        <time>2024-04-28T09:54:19Z</time>
      </trkpt>
      <trkpt lat="45.80307" lon="3.1482">
        <ele>331.6</ele>
        <time>2024-04-28T09:54:20Z</time>
      </trkpt>
      <trkpt lat="45.80314" lon="3.14823">
        <ele>331.6</ele>
        <time>2024-04-28T09:54:21Z</time>
      </trkpt>
      <trkpt lat="45.8032" lon="3.14826">
        <ele>331.6</ele>
        <time>2024-04-28T09:54:22Z</time>
      </trkpt>
      <trkpt lat="45.80327" lon="3.14829">
        <ele>331.6</ele>
        <time>2024-04-28T09:54:23Z</time>
      </trkpt>
      <trkpt lat="45.80333" lon="3.14832">
        <ele>331.4</ele>
        <time>2024-04-28T09:54:24Z</time>
      </trkpt>
      <trkpt lat="45.8034" lon="3.14835">
        <ele>331.4</ele>
        <time>2024-04-28T09:54:25Z</time>
      </trkpt>
      <trkpt lat="45.80346" lon="3.14838">
        <ele>331.4</ele>
        <time>2024-04-28T09:54:26Z</time>
      </trkpt>
      <trkpt lat="45.80353" lon="3.14841">
        <ele>331.4</ele>
        <time>2024-04-28T09:54:27Z</time>
      </trkpt>
      <trkpt lat="45.80359" lon="3.14844">
        <ele>331.6</ele>
        <time>2024-04-28T09:54:28Z</time>
      </trkpt>
      <trkpt lat="45.80365" lon="3.14847">
        <ele>331.6</ele>
        <time>2024-04-28T09:54:29Z</time>
      </trkpt>
      <trkpt lat="45.80371" lon="3.14851">
        <ele>331.6</ele>
        <time>2024-04-28T09:54:30Z</time>
      </trkpt>
      <trkpt lat="45.80377" lon="3.14855">
        <ele>331.6</ele>
        <time>2024-04-28T09:54:31Z</time>
      </trkpt>
      <trkpt lat="45.80383" lon="3.14859">
        <ele>331.4</ele>
        <time>2024-04-28T09:54:32Z</time>
      </trkpt>
      <trkpt lat="45.80388" lon="3.14862">
        <ele>332</ele>
        <time>2024-04-28T09:54:33Z</time>
      </trkpt>
      <trkpt lat="45.80394" lon="3.14866">
        <ele>332</ele>
        <time>2024-04-28T09:54:34Z</time>
      </trkpt>
      <trkpt lat="45.80399" lon="3.14869">
        <ele>331.8</ele>
        <time>2024-04-28T09:54:35Z</time>
      </trkpt>
      <trkpt lat="45.80404" lon="3.14872">
        <ele>331.8</ele>
        <time>2024-04-28T09:54:36Z</time>
      </trkpt>
      <trkpt lat="45.80409" lon="3.14875">
        <ele>331.8</ele>
        <time>2024-04-28T09:54:37Z</time>
      </trkpt>
      <trkpt lat="45.80414" lon="3.14879">
        <ele>331.8</ele>
        <time>2024-04-28T09:54:38Z</time>
      </trkpt>
      <trkpt lat="45.80419" lon="3.14882">
        <ele>331.8</ele>
        <time>2024-04-28T09:54:39Z</time>
      </trkpt>
      <trkpt lat="45.80424" lon="3.14885">
        <ele>332</ele>
        <time>2024-04-28T09:54:40Z</time>
      </trkpt>
      <trkpt lat="45.80429" lon="3.14888">
        <ele>332</ele>
        <time>2024-04-28T09:54:41Z</time>
      </trkpt>
      <trkpt lat="45.80434" lon="3.14891">
        <ele>332</ele>
        <time>2024-04-28T09:54:42Z</time>
      </trkpt>
      <trkpt lat="45.80438" lon="3.14894">
        <ele>332</ele>
        <time>2024-04-28T09:54:43Z</time>
      </trkpt>
      <trkpt lat="45.80443" lon="3.14897">
        <ele>332.2</ele>
        <time>2024-04-28T09:54:44Z</time>
      </trkpt>
      <trkpt lat="45.80448" lon="3.149">
        <ele>332.2</ele>
        <time>2024-04-28T09:54:45Z</time>
      </trkpt>
      <trkpt lat="45.80452" lon="3.14903">
        <ele>332.4</ele>
        <time>2024-04-28T09:54:46Z</time>
      </trkpt>
      <trkpt lat="45.80457" lon="3.14906">
        <ele>332.4</ele>
        <time>2024-04-28T09:54:47Z</time>
      </trkpt>
      <trkpt lat="45.80461" lon="3.14909">
        <ele>332.4</ele>
        <time>2024-04-28T09:54:48Z</time>
      </trkpt>
      <trkpt lat="45.80466" lon="3.14912">
        <ele>332.4</ele>
        <time>2024-04-28T09:54:49Z</time>
      </trkpt>
      <trkpt lat="45.8047" lon="3.14914">
        <ele>332.6</ele>
        <time>2024-04-28T09:54:50Z</time>
      </trkpt>
      <trkpt lat="45.80475" lon="3.14917">
        <ele>332.6</ele>
        <time>2024-04-28T09:54:51Z</time>
      </trkpt>
      <trkpt lat="45.8048" lon="3.1492">
        <ele>332.6</ele>
        <time>2024-04-28T09:54:52Z</time>
      </trkpt>
      <trkpt lat="45.80484" lon="3.14923">
        <ele>332.6</ele>
        <time>2024-04-28T09:54:53Z</time>
      </trkpt>
      <trkpt lat="45.80489" lon="3.14926">
        <ele>332.8</ele>
        <time>2024-04-28T09:54:54Z</time>
      </trkpt>
      <trkpt lat="45.80494" lon="3.14929">
        <ele>332.8</ele>
        <time>2024-04-28T09:54:55Z</time>
      </trkpt>
      <trkpt lat="45.80499" lon="3.14933">
        <ele>333</ele>
        <time>2024-04-28T09:54:56Z</time>
      </trkpt>
      <trkpt lat="45.80504" lon="3.14936">
        <ele>333</ele>
        <time>2024-04-28T09:54:57Z</time>
      </trkpt>
      <trkpt lat="45.80509" lon="3.14939">
        <ele>333</ele>
        <time>2024-04-28T09:54:58Z</time>
      </trkpt>
      <trkpt lat="45.80514" lon="3.14942">
        <ele>333.2</ele>
        <time>2024-04-28T09:54:59Z</time>
      </trkpt>
      <trkpt lat="45.80519" lon="3.14946">
        <ele>333.2</ele>
        <time>2024-04-28T09:55:00Z</time>
      </trkpt>
      <trkpt lat="45.80524" lon="3.14949">
        <ele>333.4</ele>
        <time>2024-04-28T09:55:01Z</time>
      </trkpt>
      <trkpt lat="45.80529" lon="3.14953">
        <ele>333.4</ele>
        <time>2024-04-28T09:55:02Z</time>
      </trkpt>
      <trkpt lat="45.80534" lon="3.14956">
        <ele>333.6</ele>
        <time>2024-04-28T09:55:03Z</time>
      </trkpt>
      <trkpt lat="45.80539" lon="3.1496">
        <ele>333.6</ele>
        <time>2024-04-28T09:55:04Z</time>
      </trkpt>
      <trkpt lat="45.80545" lon="3.14963">
        <ele>333.6</ele>
        <time>2024-04-28T09:55:05Z</time>
      </trkpt>
      <trkpt lat="45.8055" lon="3.14967">
        <ele>333.6</ele>
        <time>2024-04-28T09:55:06Z</time>
      </trkpt>
      <trkpt lat="45.80556" lon="3.14971">
        <ele>333.6</ele>
        <time>2024-04-28T09:55:07Z</time>
      </trkpt>
      <trkpt lat="45.80562" lon="3.14975">
        <ele>333.8</ele>
        <time>2024-04-28T09:55:08Z</time>
      </trkpt>
      <trkpt lat="45.80568" lon="3.14979">
        <ele>333.8</ele>
        <time>2024-04-28T09:55:09Z</time>
      </trkpt>
      <trkpt lat="45.80574" lon="3.14983">
        <ele>333.6</ele>
        <time>2024-04-28T09:55:10Z</time>
      </trkpt>
      <trkpt lat="45.8058" lon="3.14988">
        <ele>333.6</ele>
        <time>2024-04-28T09:55:11Z</time>
      </trkpt>
      <trkpt lat="45.80587" lon="3.14992">
        <ele>333.6</ele>
        <time>2024-04-28T09:55:12Z</time>
      </trkpt>
      <trkpt lat="45.80593" lon="3.14996">
        <ele>333.6</ele>
        <time>2024-04-28T09:55:13Z</time>
      </trkpt>
      <trkpt lat="45.806" lon="3.15">
        <ele>333.6</ele>
        <time>2024-04-28T09:55:14Z</time>
      </trkpt>
      <trkpt lat="45.80606" lon="3.15005">
        <ele>333.6</ele>
        <time>2024-04-28T09:55:15Z</time>
      </trkpt>
      <trkpt lat="45.80612" lon="3.15009">
        <ele>333.6</ele>
        <time>2024-04-28T09:55:16Z</time>
      </trkpt>
      <trkpt lat="45.80619" lon="3.15013">
        <ele>333.6</ele>
        <time>2024-04-28T09:55:17Z</time>
      </trkpt>
      <trkpt lat="45.80625" lon="3.15017">
        <ele>333.6</ele>
        <time>2024-04-28T09:55:18Z</time>
      </trkpt>
      <trkpt lat="45.80632" lon="3.15022">
        <ele>333.4</ele>
        <time>2024-04-28T09:55:19Z</time>
      </trkpt>
      <trkpt lat="45.80639" lon="3.15026">
        <ele>333.4</ele>
        <time>2024-04-28T09:55:20Z</time>
      </trkpt>
      <trkpt lat="45.80646" lon="3.1503">
        <ele>333.4</ele>
        <time>2024-04-28T09:55:21Z</time>
      </trkpt>
      <trkpt lat="45.80653" lon="3.15033">
        <ele>334</ele>
        <time>2024-04-28T09:55:22Z</time>
      </trkpt>
      <trkpt lat="45.80661" lon="3.15037">
        <ele>333.6</ele>
        <time>2024-04-28T09:55:23Z</time>
      </trkpt>
      <trkpt lat="45.80668" lon="3.15041">
        <ele>333.2</ele>
        <time>2024-04-28T09:55:24Z</time>
      </trkpt>
      <trkpt lat="45.80676" lon="3.15045">
        <ele>332.6</ele>
        <time>2024-04-28T09:55:25Z</time>
      </trkpt>
      <trkpt lat="45.80684" lon="3.15049">
        <ele>333</ele>
        <time>2024-04-28T09:55:26Z</time>
      </trkpt>
      <trkpt lat="45.80692" lon="3.15054">
        <ele>333</ele>
        <time>2024-04-28T09:55:27Z</time>
      </trkpt>
      <trkpt lat="45.807" lon="3.15057">
        <ele>332.8</ele>
        <time>2024-04-28T09:55:28Z</time>
      </trkpt>
      <trkpt lat="45.80709" lon="3.1506">
        <ele>332.8</ele>
        <time>2024-04-28T09:55:29Z</time>
      </trkpt>
      <trkpt lat="45.80717" lon="3.15063">
        <ele>332.6</ele>
        <time>2024-04-28T09:55:30Z</time>
      </trkpt>
      <trkpt lat="45.80725" lon="3.15066">
        <ele>332.6</ele>
        <time>2024-04-28T09:55:31Z</time>
      </trkpt>
      <trkpt lat="45.80734" lon="3.15069">
        <ele>332.4</ele>
        <time>2024-04-28T09:55:32Z</time>
      </trkpt>
      <trkpt lat="45.80742" lon="3.15072">
        <ele>332.4</ele>
        <time>2024-04-28T09:55:33Z</time>
      </trkpt>
      <trkpt lat="45.8075" lon="3.15075">
        <ele>332.4</ele>
        <time>2024-04-28T09:55:34Z</time>
      </trkpt>
      <trkpt lat="45.80758" lon="3.15078">
        <ele>332.2</ele>
        <time>2024-04-28T09:55:35Z</time>
      </trkpt>
      <trkpt lat="45.80766" lon="3.15081">
        <ele>332.2</ele>
        <time>2024-04-28T09:55:36Z</time>
      </trkpt>
      <trkpt lat="45.80774" lon="3.15084">
        <ele>332.2</ele>
        <time>2024-04-28T09:55:37Z</time>
      </trkpt>
      <trkpt lat="45.80782" lon="3.15087">
        <ele>332.2</ele>
        <time>2024-04-28T09:55:38Z</time>
      </trkpt>
      <trkpt lat="45.80789" lon="3.1509">
        <ele>332.2</ele>
        <time>2024-04-28T09:55:39Z</time>
      </trkpt>
      <trkpt lat="45.80797" lon="3.15092">
        <ele>332.2</ele>
        <time>2024-04-28T09:55:40Z</time>
      </trkpt>
      <trkpt lat="45.80804" lon="3.15095">
        <ele>332</ele>
        <time>2024-04-28T09:55:41Z</time>
      </trkpt>
      <trkpt lat="45.80812" lon="3.15098">
        <ele>332</ele>
        <time>2024-04-28T09:55:42Z</time>
      </trkpt>
      <trkpt lat="45.80819" lon="3.151">
        <ele>332</ele>
        <time>2024-04-28T09:55:43Z</time>
      </trkpt>
      <trkpt lat="45.80826" lon="3.15103">
        <ele>332</ele>
        <time>2024-04-28T09:55:44Z</time>
      </trkpt>
      <trkpt lat="45.80834" lon="3.15106">
        <ele>332</ele>
        <time>2024-04-28T09:55:45Z</time>
      </trkpt>
      <trkpt lat="45.80841" lon="3.15109">
        <ele>332</ele>
        <time>2024-04-28T09:55:46Z</time>
      </trkpt>
      <trkpt lat="45.80848" lon="3.15111">
        <ele>332</ele>
        <time>2024-04-28T09:55:47Z</time>
      </trkpt>
      <trkpt lat="45.80856" lon="3.15114">
        <ele>332</ele>
        <time>2024-04-28T09:55:48Z</time>
      </trkpt>
      <trkpt lat="45.80863" lon="3.15117">
        <ele>332</ele>
        <time>2024-04-28T09:55:49Z</time>
      </trkpt>
      <trkpt lat="45.8087" lon="3.15119">
        <ele>331.8</ele>
        <time>2024-04-28T09:55:50Z</time>
      </trkpt>
      <trkpt lat="45.80878" lon="3.15122">
        <ele>331.8</ele>
        <time>2024-04-28T09:55:51Z</time>
      </trkpt>
      <trkpt lat="45.80885" lon="3.15125">
        <ele>331.6</ele>
        <time>2024-04-28T09:55:52Z</time>
      </trkpt>
      <trkpt lat="45.80892" lon="3.15127">
        <ele>331.6</ele>
        <time>2024-04-28T09:55:53Z</time>
      </trkpt>
      <trkpt lat="45.809" lon="3.1513">
        <ele>331.6</ele>
        <time>2024-04-28T09:55:54Z</time>
      </trkpt>
      <trkpt lat="45.80907" lon="3.15133">
        <ele>331.6</ele>
        <time>2024-04-28T09:55:55Z</time>
      </trkpt>
      <trkpt lat="45.80915" lon="3.15136">
        <ele>331.6</ele>
        <time>2024-04-28T09:55:56Z</time>
      </trkpt>
      <trkpt lat="45.80922" lon="3.15138">
        <ele>331.6</ele>
        <time>2024-04-28T09:55:57Z</time>
      </trkpt>
      <trkpt lat="45.80929" lon="3.15141">
        <ele>331.4</ele>
        <time>2024-04-28T09:55:58Z</time>
      </trkpt>
      <trkpt lat="45.80936" lon="3.15144">
        <ele>331.4</ele>
        <time>2024-04-28T09:55:59Z</time>
      </trkpt>
      <trkpt lat="45.80944" lon="3.15146">
        <ele>331.2</ele>
        <time>2024-04-28T09:56:00Z</time>
      </trkpt>
      <trkpt lat="45.80951" lon="3.15149">
        <ele>331.2</ele>
        <time>2024-04-28T09:56:01Z</time>
      </trkpt>
      <trkpt lat="45.80958" lon="3.15152">
        <ele>331.2</ele>
        <time>2024-04-28T09:56:02Z</time>
      </trkpt>
      <trkpt lat="45.80966" lon="3.15154">
        <ele>331.2</ele>
        <time>2024-04-28T09:56:03Z</time>
      </trkpt>
      <trkpt lat="45.80973" lon="3.15157">
        <ele>331.2</ele>
        <time>2024-04-28T09:56:04Z</time>
      </trkpt>
      <trkpt lat="45.8098" lon="3.1516">
        <ele>331</ele>
        <time>2024-04-28T09:56:05Z</time>
      </trkpt>
      <trkpt lat="45.80987" lon="3.15162">
        <ele>331</ele>
        <time>2024-04-28T09:56:06Z</time>
      </trkpt>
      <trkpt lat="45.80994" lon="3.15165">
        <ele>331</ele>
        <time>2024-04-28T09:56:07Z</time>
      </trkpt>
      <trkpt lat="45.81001" lon="3.15167">
        <ele>331</ele>
        <time>2024-04-28T09:56:08Z</time>
      </trkpt>
      <trkpt lat="45.81008" lon="3.1517">
        <ele>331</ele>
        <time>2024-04-28T09:56:09Z</time>
      </trkpt>
      <trkpt lat="45.81016" lon="3.15173">
        <ele>330.8</ele>
        <time>2024-04-28T09:56:10Z</time>
      </trkpt>
      <trkpt lat="45.81023" lon="3.15175">
        <ele>330.8</ele>
        <time>2024-04-28T09:56:11Z</time>
      </trkpt>
      <trkpt lat="45.8103" lon="3.15178">
        <ele>330.8</ele>
        <time>2024-04-28T09:56:12Z</time>
      </trkpt>
      <trkpt lat="45.81037" lon="3.1518">
        <ele>331</ele>
        <time>2024-04-28T09:56:13Z</time>
      </trkpt>
      <trkpt lat="45.81044" lon="3.15183">
        <ele>330.8</ele>
        <time>2024-04-28T09:56:14Z</time>
      </trkpt>
      <trkpt lat="45.81051" lon="3.15186">
        <ele>330.8</ele>
        <time>2024-04-28T09:56:15Z</time>
      </trkpt>
      <trkpt lat="45.81058" lon="3.1519">
        <ele>330.8</ele>
        <time>2024-04-28T09:56:16Z</time>
      </trkpt>
      <trkpt lat="45.81065" lon="3.15194">
        <ele>330.8</ele>
        <time>2024-04-28T09:56:17Z</time>
      </trkpt>
      <trkpt lat="45.81071" lon="3.15197">
        <ele>330.8</ele>
        <time>2024-04-28T09:56:18Z</time>
      </trkpt>
      <trkpt lat="45.81078" lon="3.15201">
        <ele>330.8</ele>
        <time>2024-04-28T09:56:19Z</time>
      </trkpt>
      <trkpt lat="45.81085" lon="3.15205">
        <ele>330.8</ele>
        <time>2024-04-28T09:56:20Z</time>
      </trkpt>
      <trkpt lat="45.81091" lon="3.15209">
        <ele>330.6</ele>
        <time>2024-04-28T09:56:21Z</time>
      </trkpt>
      <trkpt lat="45.81098" lon="3.15212">
        <ele>330.6</ele>
        <time>2024-04-28T09:56:22Z</time>
      </trkpt>
      <trkpt lat="45.81103" lon="3.15219">
        <ele>330.6</ele>
        <time>2024-04-28T09:56:23Z</time>
      </trkpt>
      <trkpt lat="45.81107" lon="3.15227">
        <ele>330.6</ele>
        <time>2024-04-28T09:56:24Z</time>
      </trkpt>
      <trkpt lat="45.81115" lon="3.15233">
        <ele>330.6</ele>
        <time>2024-04-28T09:56:25Z</time>
      </trkpt>
      <trkpt lat="45.81122" lon="3.15233">
        <ele>330.6</ele>
        <time>2024-04-28T09:56:26Z</time>
      </trkpt>
      <trkpt lat="45.81129" lon="3.15228">
        <ele>330.6</ele>
        <time>2024-04-28T09:56:27Z</time>
      </trkpt>
      <trkpt lat="45.81134" lon="3.1522">
        <ele>330.4</ele>
        <time>2024-04-28T09:56:28Z</time>
      </trkpt>
      <trkpt lat="45.81136" lon="3.15211">
        <ele>330.4</ele>
        <time>2024-04-28T09:56:29Z</time>
      </trkpt>
      <trkpt lat="45.81136" lon="3.152">
        <ele>330.4</ele>
        <time>2024-04-28T09:56:30Z</time>
      </trkpt>
      <trkpt lat="45.81133" lon="3.15192">
        <ele>330.2</ele>
        <time>2024-04-28T09:56:31Z</time>
      </trkpt>
      <trkpt lat="45.81129" lon="3.15182">
        <ele>330.2</ele>
        <time>2024-04-28T09:56:32Z</time>
      </trkpt>
      <trkpt lat="45.81127" lon="3.15173">
        <ele>330.2</ele>
        <time>2024-04-28T09:56:33Z</time>
      </trkpt>
      <trkpt lat="45.81125" lon="3.15163">
        <ele>330.2</ele>
        <time>2024-04-28T09:56:34Z</time>
      </trkpt>
      <trkpt lat="45.81122" lon="3.15154">
        <ele>330.2</ele>
        <time>2024-04-28T09:56:35Z</time>
      </trkpt>
      <trkpt lat="45.8112" lon="3.15144">
        <ele>330</ele>
        <time>2024-04-28T09:56:36Z</time>
      </trkpt>
      <trkpt lat="45.81118" lon="3.15133">
        <ele>330</ele>
        <time>2024-04-28T09:56:37Z</time>
      </trkpt>
      <trkpt lat="45.81117" lon="3.15123">
        <ele>330</ele>
        <time>2024-04-28T09:56:38Z</time>
      </trkpt>
      <trkpt lat="45.81116" lon="3.15111">
        <ele>330</ele>
        <time>2024-04-28T09:56:39Z</time>
      </trkpt>
      <trkpt lat="45.81116" lon="3.15101">
        <ele>330</ele>
        <time>2024-04-28T09:56:40Z</time>
      </trkpt>
      <trkpt lat="45.81115" lon="3.1509">
        <ele>330</ele>
        <time>2024-04-28T09:56:41Z</time>
      </trkpt>
      <trkpt lat="45.81115" lon="3.15079">
        <ele>330</ele>
        <time>2024-04-28T09:56:42Z</time>
      </trkpt>
      <trkpt lat="45.81114" lon="3.15068">
        <ele>330</ele>
        <time>2024-04-28T09:56:43Z</time>
      </trkpt>
      <trkpt lat="45.81113" lon="3.15058">
        <ele>330</ele>
        <time>2024-04-28T09:56:44Z</time>
      </trkpt>
      <trkpt lat="45.81113" lon="3.15047">
        <ele>330</ele>
        <time>2024-04-28T09:56:45Z</time>
      </trkpt>
      <trkpt lat="45.81112" lon="3.15037">
        <ele>330</ele>
        <time>2024-04-28T09:56:46Z</time>
      </trkpt>
      <trkpt lat="45.8111" lon="3.15028">
        <ele>330.2</ele>
        <time>2024-04-28T09:56:47Z</time>
      </trkpt>
      <trkpt lat="45.81107" lon="3.15019">
        <ele>330.2</ele>
        <time>2024-04-28T09:56:48Z</time>
      </trkpt>
      <trkpt lat="45.81104" lon="3.1501">
        <ele>329.8</ele>
        <time>2024-04-28T09:56:49Z</time>
      </trkpt>
      <trkpt lat="45.81101" lon="3.15">
        <ele>329.8</ele>
        <time>2024-04-28T09:56:50Z</time>
      </trkpt>
      <trkpt lat="45.81098" lon="3.14991">
        <ele>329.8</ele>
        <time>2024-04-28T09:56:51Z</time>
      </trkpt>
      <trkpt lat="45.81095" lon="3.14981">
        <ele>329.8</ele>
        <time>2024-04-28T09:56:52Z</time>
      </trkpt>
      <trkpt lat="45.81093" lon="3.14972">
        <ele>329.8</ele>
        <time>2024-04-28T09:56:53Z</time>
      </trkpt>
      <trkpt lat="45.81091" lon="3.14962">
        <ele>330</ele>
        <time>2024-04-28T09:56:54Z</time>
      </trkpt>
      <trkpt lat="45.8109" lon="3.14953">
        <ele>329.8</ele>
        <time>2024-04-28T09:56:55Z</time>
      </trkpt>
      <trkpt lat="45.81088" lon="3.14943">
        <ele>330</ele>
        <time>2024-04-28T09:56:56Z</time>
      </trkpt>
      <trkpt lat="45.81087" lon="3.14933">
        <ele>330</ele>
        <time>2024-04-28T09:56:57Z</time>
      </trkpt>
      <trkpt lat="45.81085" lon="3.14923">
        <ele>330.2</ele>
        <time>2024-04-28T09:56:58Z</time>
      </trkpt>
      <trkpt lat="45.81084" lon="3.14913">
        <ele>330.2</ele>
        <time>2024-04-28T09:56:59Z</time>
      </trkpt>
      <trkpt lat="45.81083" lon="3.14903">
        <ele>330.2</ele>
        <time>2024-04-28T09:57:00Z</time>
      </trkpt>
      <trkpt lat="45.81082" lon="3.14894">
        <ele>330.4</ele>
        <time>2024-04-28T09:57:01Z</time>
      </trkpt>
      <trkpt lat="45.81081" lon="3.14884">
        <ele>330.4</ele>
        <time>2024-04-28T09:57:02Z</time>
      </trkpt>
      <trkpt lat="45.8108" lon="3.14874">
        <ele>330.2</ele>
        <time>2024-04-28T09:57:03Z</time>
      </trkpt>
      <trkpt lat="45.81079" lon="3.14864">
        <ele>330.2</ele>
        <time>2024-04-28T09:57:04Z</time>
      </trkpt>
      <trkpt lat="45.81078" lon="3.14854">
        <ele>330.2</ele>
        <time>2024-04-28T09:57:05Z</time>
      </trkpt>
      <trkpt lat="45.81077" lon="3.14844">
        <ele>330.2</ele>
        <time>2024-04-28T09:57:06Z</time>
      </trkpt>
      <trkpt lat="45.81076" lon="3.14834">
        <ele>330.2</ele>
        <time>2024-04-28T09:57:07Z</time>
      </trkpt>
      <trkpt lat="45.81075" lon="3.14824">
        <ele>330.2</ele>
        <time>2024-04-28T09:57:08Z</time>
      </trkpt>
      <trkpt lat="45.81074" lon="3.14814">
        <ele>330.2</ele>
        <time>2024-04-28T09:57:09Z</time>
      </trkpt>
      <trkpt lat="45.81073" lon="3.14804">
        <ele>330.2</ele>
        <time>2024-04-28T09:57:10Z</time>
      </trkpt>
      <trkpt lat="45.81072" lon="3.14794">
        <ele>330.2</ele>
        <time>2024-04-28T09:57:11Z</time>
      </trkpt>
      <trkpt lat="45.81071" lon="3.14784">
        <ele>330.2</ele>
        <time>2024-04-28T09:57:12Z</time>
      </trkpt>
      <trkpt lat="45.8107" lon="3.14774">
        <ele>330.2</ele>
        <time>2024-04-28T09:57:13Z</time>
      </trkpt>
      <trkpt lat="45.81069" lon="3.14765">
        <ele>330.2</ele>
        <time>2024-04-28T09:57:14Z</time>
      </trkpt>
      <trkpt lat="45.81068" lon="3.14755">
        <ele>330.2</ele>
        <time>2024-04-28T09:57:15Z</time>
      </trkpt>
      <trkpt lat="45.81067" lon="3.14745">
        <ele>330.2</ele>
        <time>2024-04-28T09:57:16Z</time>
      </trkpt>
      <trkpt lat="45.81066" lon="3.14735">
        <ele>330.2</ele>
        <time>2024-04-28T09:57:17Z</time>
      </trkpt>
      <trkpt lat="45.81065" lon="3.14725">
        <ele>330.2</ele>
        <time>2024-04-28T09:57:18Z</time>
      </trkpt>
      <trkpt lat="45.81064" lon="3.14715">
        <ele>330.2</ele>
        <time>2024-04-28T09:57:19Z</time>
      </trkpt>
      <trkpt lat="45.81063" lon="3.14705">
        <ele>330.2</ele>
        <time>2024-04-28T09:57:20Z</time>
      </trkpt>
      <trkpt lat="45.81062" lon="3.14695">
        <ele>330.2</ele>
        <time>2024-04-28T09:57:21Z</time>
      </trkpt>
      <trkpt lat="45.81061" lon="3.14686">
        <ele>330.2</ele>
        <time>2024-04-28T09:57:22Z</time>
      </trkpt>
      <trkpt lat="45.8106" lon="3.14676">
        <ele>330.2</ele>
        <time>2024-04-28T09:57:23Z</time>
      </trkpt>
      <trkpt lat="45.81059" lon="3.14666">
        <ele>330.2</ele>
        <time>2024-04-28T09:57:24Z</time>
      </trkpt>
      <trkpt lat="45.81058" lon="3.14657">
        <ele>330.2</ele>
        <time>2024-04-28T09:57:25Z</time>
      </trkpt>
      <trkpt lat="45.81057" lon="3.14647">
        <ele>330.2</ele>
        <time>2024-04-28T09:57:26Z</time>
      </trkpt>
      <trkpt lat="45.81056" lon="3.14637">
        <ele>330.2</ele>
        <time>2024-04-28T09:57:27Z</time>
      </trkpt>
      <trkpt lat="45.81057" lon="3.14627">
        <ele>330.2</ele>
        <time>2024-04-28T09:57:28Z</time>
      </trkpt>
      <trkpt lat="45.81058" lon="3.14617">
        <ele>330.4</ele>
        <time>2024-04-28T09:57:29Z</time>
      </trkpt>
      <trkpt lat="45.81058" lon="3.14607">
        <ele>330.4</ele>
        <time>2024-04-28T09:57:30Z</time>
      </trkpt>
      <trkpt lat="45.81059" lon="3.14598">
        <ele>330.4</ele>
        <time>2024-04-28T09:57:31Z</time>
      </trkpt>
      <trkpt lat="45.8106" lon="3.14588">
        <ele>330.6</ele>
        <time>2024-04-28T09:57:32Z</time>
      </trkpt>
      <trkpt lat="45.8106" lon="3.14579">
        <ele>330.6</ele>
        <time>2024-04-28T09:57:33Z</time>
      </trkpt>
      <trkpt lat="45.81061" lon="3.14572">
        <ele>330.6</ele>
        <time>2024-04-28T09:57:34Z</time>
      </trkpt>
      <trkpt lat="45.81066" lon="3.14564">
        <ele>330.6</ele>
        <time>2024-04-28T09:57:35Z</time>
      </trkpt>
      <trkpt lat="45.8107" lon="3.14557">
        <ele>330.8</ele>
        <time>2024-04-28T09:57:36Z</time>
      </trkpt>
      <trkpt lat="45.81075" lon="3.1455">
        <ele>330.8</ele>
        <time>2024-04-28T09:57:37Z</time>
      </trkpt>
      <trkpt lat="45.81081" lon="3.14547">
        <ele>330.8</ele>
        <time>2024-04-28T09:57:38Z</time>
      </trkpt>
      <trkpt lat="45.81088" lon="3.14546">
        <ele>330.8</ele>
        <time>2024-04-28T09:57:39Z</time>
      </trkpt>
      <trkpt lat="45.81096" lon="3.14547">
        <ele>330.8</ele>
        <time>2024-04-28T09:57:40Z</time>
      </trkpt>
      <trkpt lat="45.81103" lon="3.14548">
        <ele>330.8</ele>
        <time>2024-04-28T09:57:41Z</time>
      </trkpt>
      <trkpt lat="45.8111" lon="3.14549">
        <ele>330.8</ele>
        <time>2024-04-28T09:57:42Z</time>
      </trkpt>
      <trkpt lat="45.81116" lon="3.1455">
        <ele>331</ele>
        <time>2024-04-28T09:57:43Z</time>
      </trkpt>
      <trkpt lat="45.81123" lon="3.14551">
        <ele>331</ele>
        <time>2024-04-28T09:57:44Z</time>
      </trkpt>
      <trkpt lat="45.8113" lon="3.14552">
        <ele>331</ele>
        <time>2024-04-28T09:57:45Z</time>
      </trkpt>
      <trkpt lat="45.81138" lon="3.14553">
        <ele>331</ele>
        <time>2024-04-28T09:57:46Z</time>
      </trkpt>
      <trkpt lat="45.81145" lon="3.14555">
        <ele>331</ele>
        <time>2024-04-28T09:57:47Z</time>
      </trkpt>
      <trkpt lat="45.81153" lon="3.14556">
        <ele>331</ele>
        <time>2024-04-28T09:57:48Z</time>
      </trkpt>
      <trkpt lat="45.8116" lon="3.14557">
        <ele>331</ele>
        <time>2024-04-28T09:57:49Z</time>
      </trkpt>
      <trkpt lat="45.81168" lon="3.14558">
        <ele>331</ele>
        <time>2024-04-28T09:57:50Z</time>
      </trkpt>
      <trkpt lat="45.81175" lon="3.14559">
        <ele>331.2</ele>
        <time>2024-04-28T09:57:51Z</time>
      </trkpt>
      <trkpt lat="45.81183" lon="3.1456">
        <ele>331</ele>
        <time>2024-04-28T09:57:52Z</time>
      </trkpt>
      <trkpt lat="45.8119" lon="3.14562">
        <ele>331</ele>
        <time>2024-04-28T09:57:53Z</time>
      </trkpt>
      <trkpt lat="45.81198" lon="3.14563">
        <ele>331</ele>
        <time>2024-04-28T09:57:54Z</time>
      </trkpt>
      <trkpt lat="45.81205" lon="3.14564">
        <ele>331</ele>
        <time>2024-04-28T09:57:55Z</time>
      </trkpt>
      <trkpt lat="45.81212" lon="3.14565">
        <ele>330.8</ele>
        <time>2024-04-28T09:57:56Z</time>
      </trkpt>
      <trkpt lat="45.81218" lon="3.14566">
        <ele>330.8</ele>
        <time>2024-04-28T09:57:57Z</time>
      </trkpt>
      <trkpt lat="45.81225" lon="3.14567">
        <ele>330.8</ele>
        <time>2024-04-28T09:57:58Z</time>
      </trkpt>
      <trkpt lat="45.81231" lon="3.14567">
        <ele>330.8</ele>
        <time>2024-04-28T09:57:59Z</time>
      </trkpt>
      <trkpt lat="45.81237" lon="3.14567">
        <ele>331</ele>
        <time>2024-04-28T09:58:00Z</time>
      </trkpt>
      <trkpt lat="45.81244" lon="3.14567">
        <ele>330.8</ele>
        <time>2024-04-28T09:58:01Z</time>
      </trkpt>
      <trkpt lat="45.81251" lon="3.14567">
        <ele>331</ele>
        <time>2024-04-28T09:58:02Z</time>
      </trkpt>
      <trkpt lat="45.81258" lon="3.14567">
        <ele>331</ele>
        <time>2024-04-28T09:58:03Z</time>
      </trkpt>
      <trkpt lat="45.81265" lon="3.14567">
        <ele>331</ele>
        <time>2024-04-28T09:58:04Z</time>
      </trkpt>
      <trkpt lat="45.81273" lon="3.14567">
        <ele>331.2</ele>
        <time>2024-04-28T09:58:05Z</time>
      </trkpt>
      <trkpt lat="45.8128" lon="3.14567">
        <ele>331</ele>
        <time>2024-04-28T09:58:06Z</time>
      </trkpt>
      <trkpt lat="45.81287" lon="3.14567">
        <ele>330.8</ele>
        <time>2024-04-28T09:58:07Z</time>
      </trkpt>
      <trkpt lat="45.81295" lon="3.14567">
        <ele>331</ele>
        <time>2024-04-28T09:58:08Z</time>
      </trkpt>
      <trkpt lat="45.81302" lon="3.14567">
        <ele>331</ele>
        <time>2024-04-28T09:58:09Z</time>
      </trkpt>
      <trkpt lat="45.8131" lon="3.14567">
        <ele>331</ele>
        <time>2024-04-28T09:58:10Z</time>
      </trkpt>
      <trkpt lat="45.81317" lon="3.14564">
        <ele>331.2</ele>
        <time>2024-04-28T09:58:11Z</time>
      </trkpt>
      <trkpt lat="45.81324" lon="3.14561">
        <ele>331.2</ele>
        <time>2024-04-28T09:58:12Z</time>
      </trkpt>
      <trkpt lat="45.81324" lon="3.14561">
        <ele>331.2</ele>
        <time>2024-04-28T09:58:13Z</time>
      </trkpt>
      <trkpt lat="45.81336" lon="3.14546">
        <ele>331.2</ele>
        <time>2024-04-28T09:58:14Z</time>
      </trkpt>
      <trkpt lat="45.81337" lon="3.14536">
        <ele>331.4</ele>
        <time>2024-04-28T09:58:15Z</time>
      </trkpt>
      <trkpt lat="45.81339" lon="3.14525">
        <ele>331.2</ele>
        <time>2024-04-28T09:58:16Z</time>
      </trkpt>
      <trkpt lat="45.81341" lon="3.14515">
        <ele>331.2</ele>
        <time>2024-04-28T09:58:17Z</time>
      </trkpt>
      <trkpt lat="45.81342" lon="3.14505">
        <ele>331.2</ele>
        <time>2024-04-28T09:58:18Z</time>
      </trkpt>
      <trkpt lat="45.81344" lon="3.14494">
        <ele>331.2</ele>
        <time>2024-04-28T09:58:19Z</time>
      </trkpt>
      <trkpt lat="45.81348" lon="3.14486">
        <ele>331.2</ele>
        <time>2024-04-28T09:58:20Z</time>
      </trkpt>
      <trkpt lat="45.81352" lon="3.14477">
        <ele>331.2</ele>
        <time>2024-04-28T09:58:21Z</time>
      </trkpt>
      <trkpt lat="45.81357" lon="3.14471">
        <ele>331.2</ele>
        <time>2024-04-28T09:58:22Z</time>
      </trkpt>
      <trkpt lat="45.81363" lon="3.14465">
        <ele>331.4</ele>
        <time>2024-04-28T09:58:23Z</time>
      </trkpt>
      <trkpt lat="45.81369" lon="3.1446">
        <ele>331.4</ele>
        <time>2024-04-28T09:58:24Z</time>
      </trkpt>
      <trkpt lat="45.81375" lon="3.14454">
        <ele>331.4</ele>
        <time>2024-04-28T09:58:25Z</time>
      </trkpt>
      <trkpt lat="45.81381" lon="3.14449">
        <ele>331.6</ele>
        <time>2024-04-28T09:58:26Z</time>
      </trkpt>
      <trkpt lat="45.81387" lon="3.14443">
        <ele>331.6</ele>
        <time>2024-04-28T09:58:27Z</time>
      </trkpt>
      <trkpt lat="45.81393" lon="3.14438">
        <ele>331.6</ele>
        <time>2024-04-28T09:58:28Z</time>
      </trkpt>
      <trkpt lat="45.81398" lon="3.14433">
        <ele>331.6</ele>
        <time>2024-04-28T09:58:29Z</time>
      </trkpt>
      <trkpt lat="45.81404" lon="3.14427">
        <ele>331.6</ele>
        <time>2024-04-28T09:58:30Z</time>
      </trkpt>
      <trkpt lat="45.81411" lon="3.14423">
        <ele>331.8</ele>
        <time>2024-04-28T09:58:31Z</time>
      </trkpt>
      <trkpt lat="45.81418" lon="3.14422">
        <ele>331.8</ele>
        <time>2024-04-28T09:58:32Z</time>
      </trkpt>
      <trkpt lat="45.81425" lon="3.14421">
        <ele>331.8</ele>
        <time>2024-04-28T09:58:33Z</time>
      </trkpt>
      <trkpt lat="45.81432" lon="3.14419">
        <ele>332</ele>
        <time>2024-04-28T09:58:34Z</time>
      </trkpt>
      <trkpt lat="45.8144" lon="3.1442">
        <ele>331.8</ele>
        <time>2024-04-28T09:58:35Z</time>
      </trkpt>
      <trkpt lat="45.81447" lon="3.14424">
        <ele>331.8</ele>
        <time>2024-04-28T09:58:36Z</time>
      </trkpt>
      <trkpt lat="45.81456" lon="3.14426">
        <ele>331.6</ele>
        <time>2024-04-28T09:58:37Z</time>
      </trkpt>
      <trkpt lat="45.81462" lon="3.14422">
        <ele>331.6</ele>
        <time>2024-04-28T09:58:38Z</time>
      </trkpt>
      <trkpt lat="45.81466" lon="3.14419">
        <ele>331.6</ele>
        <time>2024-04-28T09:58:39Z</time>
      </trkpt>
      <trkpt lat="45.81472" lon="3.14406">
        <ele>331.6</ele>
        <time>2024-04-28T09:58:40Z</time>
      </trkpt>
      <trkpt lat="45.81479" lon="3.14401">
        <ele>331.6</ele>
        <time>2024-04-28T09:58:41Z</time>
      </trkpt>
      <trkpt lat="45.81486" lon="3.14397">
        <ele>331.6</ele>
        <time>2024-04-28T09:58:42Z</time>
      </trkpt>
      <trkpt lat="45.81493" lon="3.14393">
        <ele>331.8</ele>
        <time>2024-04-28T09:58:43Z</time>
      </trkpt>
      <trkpt lat="45.815" lon="3.14392">
        <ele>331.8</ele>
        <time>2024-04-28T09:58:44Z</time>
      </trkpt>
      <trkpt lat="45.81507" lon="3.14391">
        <ele>332</ele>
        <time>2024-04-28T09:58:45Z</time>
      </trkpt>
      <trkpt lat="45.81514" lon="3.14389">
        <ele>332.2</ele>
        <time>2024-04-28T09:58:46Z</time>
      </trkpt>
      <trkpt lat="45.81522" lon="3.14388">
        <ele>332.2</ele>
        <time>2024-04-28T09:58:47Z</time>
      </trkpt>
      <trkpt lat="45.81529" lon="3.14386">
        <ele>332.2</ele>
        <time>2024-04-28T09:58:48Z</time>
      </trkpt>
      <trkpt lat="45.81536" lon="3.14385">
        <ele>332.4</ele>
        <time>2024-04-28T09:58:49Z</time>
      </trkpt>
      <trkpt lat="45.81544" lon="3.14384">
        <ele>332.4</ele>
        <time>2024-04-28T09:58:50Z</time>
      </trkpt>
      <trkpt lat="45.81551" lon="3.14383">
        <ele>332.6</ele>
        <time>2024-04-28T09:58:51Z</time>
      </trkpt>
      <trkpt lat="45.81558" lon="3.14382">
        <ele>332.6</ele>
        <time>2024-04-28T09:58:52Z</time>
      </trkpt>
      <trkpt lat="45.81565" lon="3.14381">
        <ele>332.8</ele>
        <time>2024-04-28T09:58:53Z</time>
      </trkpt>
      <trkpt lat="45.81572" lon="3.1438">
        <ele>332.8</ele>
        <time>2024-04-28T09:58:54Z</time>
      </trkpt>
      <trkpt lat="45.8158" lon="3.14379">
        <ele>332.8</ele>
        <time>2024-04-28T09:58:55Z</time>
      </trkpt>
      <trkpt lat="45.81587" lon="3.14378">
        <ele>332.8</ele>
        <time>2024-04-28T09:58:56Z</time>
      </trkpt>
      <trkpt lat="45.81594" lon="3.14376">
        <ele>332.6</ele>
        <time>2024-04-28T09:58:57Z</time>
      </trkpt>
      <trkpt lat="45.81601" lon="3.14373">
        <ele>332.6</ele>
        <time>2024-04-28T09:58:58Z</time>
      </trkpt>
      <trkpt lat="45.81608" lon="3.14371">
        <ele>332.6</ele>
        <time>2024-04-28T09:58:59Z</time>
      </trkpt>
      <trkpt lat="45.81614" lon="3.14366">
        <ele>332.4</ele>
        <time>2024-04-28T09:59:00Z</time>
      </trkpt>
      <trkpt lat="45.8162" lon="3.1436">
        <ele>332.4</ele>
        <time>2024-04-28T09:59:01Z</time>
      </trkpt>
      <trkpt lat="45.81625" lon="3.14355">
        <ele>332.4</ele>
        <time>2024-04-28T09:59:02Z</time>
      </trkpt>
      <trkpt lat="45.81631" lon="3.14349">
        <ele>332.4</ele>
        <time>2024-04-28T09:59:03Z</time>
      </trkpt>
      <trkpt lat="45.81637" lon="3.14343">
        <ele>332.4</ele>
        <time>2024-04-28T09:59:04Z</time>
      </trkpt>
      <trkpt lat="45.81641" lon="3.14336">
        <ele>332.8</ele>
        <time>2024-04-28T09:59:05Z</time>
      </trkpt>
      <trkpt lat="45.81646" lon="3.14328">
        <ele>332.6</ele>
        <time>2024-04-28T09:59:06Z</time>
      </trkpt>
      <trkpt lat="45.8165" lon="3.1432">
        <ele>332.4</ele>
        <time>2024-04-28T09:59:07Z</time>
      </trkpt>
      <trkpt lat="45.81653" lon="3.1431">
        <ele>332.2</ele>
        <time>2024-04-28T09:59:08Z</time>
      </trkpt>
      <trkpt lat="45.81656" lon="3.14301">
        <ele>332</ele>
        <time>2024-04-28T09:59:09Z</time>
      </trkpt>
      <trkpt lat="45.81659" lon="3.14292">
        <ele>332</ele>
        <time>2024-04-28T09:59:10Z</time>
      </trkpt>
      <trkpt lat="45.81661" lon="3.14283">
        <ele>332</ele>
        <time>2024-04-28T09:59:11Z</time>
      </trkpt>
      <trkpt lat="45.81664" lon="3.14275">
        <ele>331.6</ele>
        <time>2024-04-28T09:59:12Z</time>
      </trkpt>
      <trkpt lat="45.81665" lon="3.14265">
        <ele>331.8</ele>
        <time>2024-04-28T09:59:13Z</time>
      </trkpt>
      <trkpt lat="45.81666" lon="3.14256">
        <ele>331.8</ele>
        <time>2024-04-28T09:59:14Z</time>
      </trkpt>
      <trkpt lat="45.81667" lon="3.14246">
        <ele>331.6</ele>
        <time>2024-04-28T09:59:15Z</time>
      </trkpt>
      <trkpt lat="45.81668" lon="3.14235">
        <ele>331.6</ele>
        <time>2024-04-28T09:59:16Z</time>
      </trkpt>
      <trkpt lat="45.81669" lon="3.14225">
        <ele>331.6</ele>
        <time>2024-04-28T09:59:17Z</time>
      </trkpt>
      <trkpt lat="45.8167" lon="3.14215">
        <ele>332</ele>
        <time>2024-04-28T09:59:18Z</time>
      </trkpt>
      <trkpt lat="45.81672" lon="3.14204">
        <ele>332</ele>
        <time>2024-04-28T09:59:19Z</time>
      </trkpt>
      <trkpt lat="45.81673" lon="3.14194">
        <ele>332</ele>
        <time>2024-04-28T09:59:20Z</time>
      </trkpt>
      <trkpt lat="45.81674" lon="3.14184">
        <ele>332</ele>
        <time>2024-04-28T09:59:21Z</time>
      </trkpt>
      <trkpt lat="45.81675" lon="3.14174">
        <ele>332</ele>
        <time>2024-04-28T09:59:22Z</time>
      </trkpt>
      <trkpt lat="45.81676" lon="3.14163">
        <ele>332</ele>
        <time>2024-04-28T09:59:23Z</time>
      </trkpt>
      <trkpt lat="45.81677" lon="3.14153">
        <ele>332</ele>
        <time>2024-04-28T09:59:24Z</time>
      </trkpt>
      <trkpt lat="45.81678" lon="3.14143">
        <ele>332</ele>
        <time>2024-04-28T09:59:25Z</time>
      </trkpt>
      <trkpt lat="45.8168" lon="3.14133">
        <ele>332</ele>
        <time>2024-04-28T09:59:26Z</time>
      </trkpt>
      <trkpt lat="45.81681" lon="3.14124">
        <ele>332</ele>
        <time>2024-04-28T09:59:27Z</time>
      </trkpt>
      <trkpt lat="45.81682" lon="3.14114">
        <ele>332</ele>
        <time>2024-04-28T09:59:28Z</time>
      </trkpt>
      <trkpt lat="45.81684" lon="3.14101">
        <ele>331.8</ele>
        <time>2024-04-28T09:59:29Z</time>
      </trkpt>
      <trkpt lat="45.81688" lon="3.14093">
        <ele>332</ele>
        <time>2024-04-28T09:59:30Z</time>
      </trkpt>
      <trkpt lat="45.81695" lon="3.14083">
        <ele>332.4</ele>
        <time>2024-04-28T09:59:31Z</time>
      </trkpt>
      <trkpt lat="45.81698" lon="3.1408">
        <ele>332.2</ele>
        <time>2024-04-28T09:59:32Z</time>
      </trkpt>
      <trkpt lat="45.8171" lon="3.14083">
        <ele>332.4</ele>
        <time>2024-04-28T09:59:33Z</time>
      </trkpt>
      <trkpt lat="45.81717" lon="3.14085">
        <ele>332.4</ele>
        <time>2024-04-28T09:59:34Z</time>
      </trkpt>
      <trkpt lat="45.81724" lon="3.14086">
        <ele>332.4</ele>
        <time>2024-04-28T09:59:35Z</time>
      </trkpt>
      <trkpt lat="45.81731" lon="3.14088">
        <ele>332.4</ele>
        <time>2024-04-28T09:59:36Z</time>
      </trkpt>
      <trkpt lat="45.81738" lon="3.14089">
        <ele>332.4</ele>
        <time>2024-04-28T09:59:37Z</time>
      </trkpt>
      <trkpt lat="45.81745" lon="3.14091">
        <ele>332.6</ele>
        <time>2024-04-28T09:59:38Z</time>
      </trkpt>
      <trkpt lat="45.81753" lon="3.14093">
        <ele>332.6</ele>
        <time>2024-04-28T09:59:39Z</time>
      </trkpt>
      <trkpt lat="45.8176" lon="3.14095">
        <ele>332.6</ele>
        <time>2024-04-28T09:59:40Z</time>
      </trkpt>
      <trkpt lat="45.81768" lon="3.14096">
        <ele>332.6</ele>
        <time>2024-04-28T09:59:41Z</time>
      </trkpt>
      <trkpt lat="45.81776" lon="3.14098">
        <ele>332.6</ele>
        <time>2024-04-28T09:59:42Z</time>
      </trkpt>
      <trkpt lat="45.81783" lon="3.141">
        <ele>332.6</ele>
        <time>2024-04-28T09:59:43Z</time>
      </trkpt>
      <trkpt lat="45.81791" lon="3.14101">
        <ele>332.6</ele>
        <time>2024-04-28T09:59:44Z</time>
      </trkpt>
      <trkpt lat="45.81798" lon="3.14103">
        <ele>332.6</ele>
        <time>2024-04-28T09:59:45Z</time>
      </trkpt>
      <trkpt lat="45.81807" lon="3.14106">
        <ele>332.4</ele>
        <time>2024-04-28T09:59:46Z</time>
      </trkpt>
      <trkpt lat="45.81813" lon="3.14107">
        <ele>332.4</ele>
        <time>2024-04-28T09:59:47Z</time>
      </trkpt>
      <trkpt lat="45.8182" lon="3.14108">
        <ele>332.4</ele>
        <time>2024-04-28T09:59:48Z</time>
      </trkpt>
      <trkpt lat="45.81828" lon="3.14109">
        <ele>332.4</ele>
        <time>2024-04-28T09:59:49Z</time>
      </trkpt>
      <trkpt lat="45.81835" lon="3.1411">
        <ele>332.4</ele>
        <time>2024-04-28T09:59:50Z</time>
      </trkpt>
      <trkpt lat="45.81842" lon="3.14111">
        <ele>332.4</ele>
        <time>2024-04-28T09:59:51Z</time>
      </trkpt>
      <trkpt lat="45.8185" lon="3.14112">
        <ele>332.4</ele>
        <time>2024-04-28T09:59:52Z</time>
      </trkpt>
      <trkpt lat="45.81857" lon="3.14113">
        <ele>332.4</ele>
        <time>2024-04-28T09:59:53Z</time>
      </trkpt>
      <trkpt lat="45.81864" lon="3.14114">
        <ele>332.4</ele>
        <time>2024-04-28T09:59:54Z</time>
      </trkpt>
      <trkpt lat="45.81872" lon="3.14115">
        <ele>332.6</ele>
        <time>2024-04-28T09:59:55Z</time>
      </trkpt>
      <trkpt lat="45.81879" lon="3.14116">
        <ele>332.6</ele>
        <time>2024-04-28T09:59:56Z</time>
      </trkpt>
      <trkpt lat="45.81886" lon="3.14117">
        <ele>332.6</ele>
        <time>2024-04-28T09:59:57Z</time>
      </trkpt>
      <trkpt lat="45.81893" lon="3.14119">
        <ele>332.6</ele>
        <time>2024-04-28T09:59:58Z</time>
      </trkpt>
      <trkpt lat="45.81901" lon="3.1412">
        <ele>332.6</ele>
        <time>2024-04-28T09:59:59Z</time>
      </trkpt>
      <trkpt lat="45.81908" lon="3.14121">
        <ele>332.6</ele>
        <time>2024-04-28T10:00:00Z</time>
      </trkpt>
      <trkpt lat="45.81916" lon="3.14122">
        <ele>332.6</ele>
        <time>2024-04-28T10:00:01Z</time>
      </trkpt>
      <trkpt lat="45.81923" lon="3.14123">
        <ele>332.6</ele>
        <time>2024-04-28T10:00:02Z</time>
      </trkpt>
      <trkpt lat="45.81931" lon="3.14124">
        <ele>332.6</ele>
        <time>2024-04-28T10:00:03Z</time>
      </trkpt>
      <trkpt lat="45.81938" lon="3.14125">
        <ele>332.6</ele>
        <time>2024-04-28T10:00:04Z</time>
      </trkpt>
      <trkpt lat="45.81945" lon="3.14126">
        <ele>332.6</ele>
        <time>2024-04-28T10:00:05Z</time>
      </trkpt>
      <trkpt lat="45.81953" lon="3.14127">
        <ele>332.6</ele>
        <time>2024-04-28T10:00:06Z</time>
      </trkpt>
      <trkpt lat="45.8196" lon="3.14128">
        <ele>332.6</ele>
        <time>2024-04-28T10:00:07Z</time>
      </trkpt>
      <trkpt lat="45.81968" lon="3.14129">
        <ele>332.6</ele>
        <time>2024-04-28T10:00:08Z</time>
      </trkpt>
      <trkpt lat="45.81975" lon="3.14131">
        <ele>332.8</ele>
        <time>2024-04-28T10:00:09Z</time>
      </trkpt>
      <trkpt lat="45.81984" lon="3.14132">
        <ele>332.8</ele>
        <time>2024-04-28T10:00:10Z</time>
      </trkpt>
      <trkpt lat="45.81991" lon="3.14133">
        <ele>332.8</ele>
        <time>2024-04-28T10:00:11Z</time>
      </trkpt>
      <trkpt lat="45.81999" lon="3.14134">
        <ele>332.8</ele>
        <time>2024-04-28T10:00:12Z</time>
      </trkpt>
      <trkpt lat="45.82007" lon="3.14135">
        <ele>333</ele>
        <time>2024-04-28T10:00:13Z</time>
      </trkpt>
      <trkpt lat="45.82014" lon="3.14136">
        <ele>333</ele>
        <time>2024-04-28T10:00:14Z</time>
      </trkpt>
      <trkpt lat="45.82022" lon="3.14137">
        <ele>333</ele>
        <time>2024-04-28T10:00:15Z</time>
      </trkpt>
      <trkpt lat="45.82029" lon="3.14138">
        <ele>333.2</ele>
        <time>2024-04-28T10:00:16Z</time>
      </trkpt>
      <trkpt lat="45.82036" lon="3.1414">
        <ele>333.2</ele>
        <time>2024-04-28T10:00:17Z</time>
      </trkpt>
      <trkpt lat="45.82044" lon="3.14141">
        <ele>333.2</ele>
        <time>2024-04-28T10:00:18Z</time>
      </trkpt>
      <trkpt lat="45.82051" lon="3.14142">
        <ele>333.4</ele>
        <time>2024-04-28T10:00:19Z</time>
      </trkpt>
      <trkpt lat="45.82059" lon="3.14143">
        <ele>333.4</ele>
        <time>2024-04-28T10:00:20Z</time>
      </trkpt>
      <trkpt lat="45.82066" lon="3.14143">
        <ele>333.4</ele>
        <time>2024-04-28T10:00:21Z</time>
      </trkpt>
      <trkpt lat="45.82073" lon="3.14143">
        <ele>333.6</ele>
        <time>2024-04-28T10:00:22Z</time>
      </trkpt>
      <trkpt lat="45.82081" lon="3.14144">
        <ele>333.6</ele>
        <time>2024-04-28T10:00:23Z</time>
      </trkpt>
      <trkpt lat="45.82088" lon="3.14144">
        <ele>333.6</ele>
        <time>2024-04-28T10:00:24Z</time>
      </trkpt>
      <trkpt lat="45.82096" lon="3.14145">
        <ele>333.6</ele>
        <time>2024-04-28T10:00:25Z</time>
      </trkpt>
      <trkpt lat="45.82104" lon="3.14146">
        <ele>333.6</ele>
        <time>2024-04-28T10:00:26Z</time>
      </trkpt>
      <trkpt lat="45.82111" lon="3.14147">
        <ele>333.8</ele>
        <time>2024-04-28T10:00:27Z</time>
      </trkpt>
      <trkpt lat="45.82119" lon="3.14148">
        <ele>333.8</ele>
        <time>2024-04-28T10:00:28Z</time>
      </trkpt>
      <trkpt lat="45.82126" lon="3.14149">
        <ele>333.8</ele>
        <time>2024-04-28T10:00:29Z</time>
      </trkpt>
      <trkpt lat="45.82134" lon="3.1415">
        <ele>334</ele>
        <time>2024-04-28T10:00:30Z</time>
      </trkpt>
      <trkpt lat="45.82141" lon="3.14151">
        <ele>334</ele>
        <time>2024-04-28T10:00:31Z</time>
      </trkpt>
      <trkpt lat="45.82148" lon="3.14152">
        <ele>334.2</ele>
        <time>2024-04-28T10:00:32Z</time>
      </trkpt>
      <trkpt lat="45.82156" lon="3.14153">
        <ele>334.2</ele>
        <time>2024-04-28T10:00:33Z</time>
      </trkpt>
      <trkpt lat="45.82164" lon="3.14154">
        <ele>334.2</ele>
        <time>2024-04-28T10:00:34Z</time>
      </trkpt>
      <trkpt lat="45.82173" lon="3.14156">
        <ele>334.2</ele>
        <time>2024-04-28T10:00:35Z</time>
      </trkpt>
      <trkpt lat="45.82179" lon="3.14162">
        <ele>334.2</ele>
        <time>2024-04-28T10:00:36Z</time>
      </trkpt>
      <trkpt lat="45.82189" lon="3.14161">
        <ele>334.4</ele>
        <time>2024-04-28T10:00:37Z</time>
      </trkpt>
      <trkpt lat="45.82195" lon="3.14167">
        <ele>334.4</ele>
        <time>2024-04-28T10:00:38Z</time>
      </trkpt>
      <trkpt lat="45.82201" lon="3.14173">
        <ele>334.4</ele>
        <time>2024-04-28T10:00:39Z</time>
      </trkpt>
      <trkpt lat="45.82207" lon="3.14177">
        <ele>334.4</ele>
        <time>2024-04-28T10:00:40Z</time>
      </trkpt>
      <trkpt lat="45.82214" lon="3.14181">
        <ele>334.4</ele>
        <time>2024-04-28T10:00:41Z</time>
      </trkpt>
      <trkpt lat="45.82221" lon="3.14185">
        <ele>334.4</ele>
        <time>2024-04-28T10:00:42Z</time>
      </trkpt>
      <trkpt lat="45.82228" lon="3.14189">
        <ele>334.4</ele>
        <time>2024-04-28T10:00:43Z</time>
      </trkpt>
      <trkpt lat="45.82235" lon="3.14194">
        <ele>334.2</ele>
        <time>2024-04-28T10:00:44Z</time>
      </trkpt>
      <trkpt lat="45.82242" lon="3.14198">
        <ele>334.2</ele>
        <time>2024-04-28T10:00:45Z</time>
      </trkpt>
      <trkpt lat="45.82249" lon="3.14202">
        <ele>334.2</ele>
        <time>2024-04-28T10:00:46Z</time>
      </trkpt>
      <trkpt lat="45.82255" lon="3.14206">
        <ele>334.2</ele>
        <time>2024-04-28T10:00:47Z</time>
      </trkpt>
      <trkpt lat="45.82262" lon="3.14209">
        <ele>334.4</ele>
        <time>2024-04-28T10:00:48Z</time>
      </trkpt>
      <trkpt lat="45.82269" lon="3.14212">
        <ele>334.4</ele>
        <time>2024-04-28T10:00:49Z</time>
      </trkpt>
      <trkpt lat="45.82276" lon="3.14216">
        <ele>334.4</ele>
        <time>2024-04-28T10:00:50Z</time>
      </trkpt>
      <trkpt lat="45.82279" lon="3.14218">
        <ele>334.4</ele>
        <time>2024-04-28T10:00:51Z</time>
      </trkpt>
      <trkpt lat="45.82289" lon="3.14225">
        <ele>334.4</ele>
        <time>2024-04-28T10:00:52Z</time>
      </trkpt>
      <trkpt lat="45.82296" lon="3.14226">
        <ele>334.4</ele>
        <time>2024-04-28T10:00:53Z</time>
      </trkpt>
      <trkpt lat="45.82303" lon="3.14227">
        <ele>334.6</ele>
        <time>2024-04-28T10:00:54Z</time>
      </trkpt>
      <trkpt lat="45.8231" lon="3.14228">
        <ele>334.8</ele>
        <time>2024-04-28T10:00:55Z</time>
      </trkpt>
      <trkpt lat="45.82318" lon="3.14228">
        <ele>334.8</ele>
        <time>2024-04-28T10:00:56Z</time>
      </trkpt>
      <trkpt lat="45.82326" lon="3.14228">
        <ele>334.8</ele>
        <time>2024-04-28T10:00:57Z</time>
      </trkpt>
      <trkpt lat="45.82333" lon="3.14228">
        <ele>334.8</ele>
        <time>2024-04-28T10:00:58Z</time>
      </trkpt>
      <trkpt lat="45.8234" lon="3.14226">
        <ele>334.8</ele>
        <time>2024-04-28T10:00:59Z</time>
      </trkpt>
      <trkpt lat="45.82347" lon="3.14225">
        <ele>334.8</ele>
        <time>2024-04-28T10:01:00Z</time>
      </trkpt>
      <trkpt lat="45.82354" lon="3.14224">
        <ele>334.8</ele>
        <time>2024-04-28T10:01:01Z</time>
      </trkpt>
      <trkpt lat="45.8236" lon="3.14221">
        <ele>334.8</ele>
        <time>2024-04-28T10:01:02Z</time>
      </trkpt>
      <trkpt lat="45.82367" lon="3.14218">
        <ele>334.8</ele>
        <time>2024-04-28T10:01:03Z</time>
      </trkpt>
      <trkpt lat="45.82373" lon="3.14214">
        <ele>334.8</ele>
        <time>2024-04-28T10:01:04Z</time>
      </trkpt>
      <trkpt lat="45.8238" lon="3.14211">
        <ele>334.8</ele>
        <time>2024-04-28T10:01:05Z</time>
      </trkpt>
      <trkpt lat="45.82386" lon="3.14207">
        <ele>334.8</ele>
        <time>2024-04-28T10:01:06Z</time>
      </trkpt>
      <trkpt lat="45.82393" lon="3.14204">
        <ele>334.8</ele>
        <time>2024-04-28T10:01:07Z</time>
      </trkpt>
      <trkpt lat="45.824" lon="3.142">
        <ele>334.8</ele>
        <time>2024-04-28T10:01:08Z</time>
      </trkpt>
      <trkpt lat="45.82406" lon="3.14197">
        <ele>334.8</ele>
        <time>2024-04-28T10:01:09Z</time>
      </trkpt>
      <trkpt lat="45.82413" lon="3.14194">
        <ele>334.8</ele>
        <time>2024-04-28T10:01:10Z</time>
      </trkpt>
      <trkpt lat="45.8242" lon="3.14191">
        <ele>334.8</ele>
        <time>2024-04-28T10:01:11Z</time>
      </trkpt>
      <trkpt lat="45.82427" lon="3.14189">
        <ele>334.8</ele>
        <time>2024-04-28T10:01:12Z</time>
      </trkpt>
      <trkpt lat="45.82434" lon="3.14186">
        <ele>334.8</ele>
        <time>2024-04-28T10:01:13Z</time>
      </trkpt>
      <trkpt lat="45.82441" lon="3.14183">
        <ele>334.8</ele>
        <time>2024-04-28T10:01:14Z</time>
      </trkpt>
      <trkpt lat="45.82448" lon="3.1418">
        <ele>334.8</ele>
        <time>2024-04-28T10:01:15Z</time>
      </trkpt>
      <trkpt lat="45.82455" lon="3.14176">
        <ele>334.8</ele>
        <time>2024-04-28T10:01:16Z</time>
      </trkpt>
      <trkpt lat="45.82462" lon="3.14174">
        <ele>335</ele>
        <time>2024-04-28T10:01:17Z</time>
      </trkpt>
      <trkpt lat="45.82469" lon="3.14172">
        <ele>335</ele>
        <time>2024-04-28T10:01:18Z</time>
      </trkpt>
      <trkpt lat="45.82476" lon="3.1417">
        <ele>335</ele>
        <time>2024-04-28T10:01:19Z</time>
      </trkpt>
      <trkpt lat="45.82483" lon="3.14167">
        <ele>334.8</ele>
        <time>2024-04-28T10:01:20Z</time>
      </trkpt>
      <trkpt lat="45.82491" lon="3.14165">
        <ele>334.8</ele>
        <time>2024-04-28T10:01:21Z</time>
      </trkpt>
      <trkpt lat="45.82498" lon="3.14162">
        <ele>334.6</ele>
        <time>2024-04-28T10:01:22Z</time>
      </trkpt>
      <trkpt lat="45.82505" lon="3.14157">
        <ele>334.6</ele>
        <time>2024-04-28T10:01:23Z</time>
      </trkpt>
      <trkpt lat="45.82511" lon="3.14152">
        <ele>334.6</ele>
        <time>2024-04-28T10:01:24Z</time>
      </trkpt>
      <trkpt lat="45.82518" lon="3.14146">
        <ele>334.4</ele>
        <time>2024-04-28T10:01:25Z</time>
      </trkpt>
      <trkpt lat="45.82524" lon="3.14139">
        <ele>334.4</ele>
        <time>2024-04-28T10:01:26Z</time>
      </trkpt>
      <trkpt lat="45.8253" lon="3.14132">
        <ele>334.4</ele>
        <time>2024-04-28T10:01:27Z</time>
      </trkpt>
      <trkpt lat="45.82536" lon="3.14125">
        <ele>334.4</ele>
        <time>2024-04-28T10:01:28Z</time>
      </trkpt>
      <trkpt lat="45.82543" lon="3.14118">
        <ele>334.4</ele>
        <time>2024-04-28T10:01:29Z</time>
      </trkpt>
      <trkpt lat="45.8255" lon="3.14114">
        <ele>334.2</ele>
        <time>2024-04-28T10:01:30Z</time>
      </trkpt>
      <trkpt lat="45.82558" lon="3.1411">
        <ele>334.2</ele>
        <time>2024-04-28T10:01:31Z</time>
      </trkpt>
      <trkpt lat="45.82565" lon="3.14106">
        <ele>334.2</ele>
        <time>2024-04-28T10:01:32Z</time>
      </trkpt>
      <trkpt lat="45.82573" lon="3.14103">
        <ele>334.2</ele>
        <time>2024-04-28T10:01:33Z</time>
      </trkpt>
      <trkpt lat="45.8258" lon="3.14101">
        <ele>334.2</ele>
        <time>2024-04-28T10:01:34Z</time>
      </trkpt>
      <trkpt lat="45.82588" lon="3.14098">
        <ele>334.2</ele>
        <time>2024-04-28T10:01:35Z</time>
      </trkpt>
      <trkpt lat="45.82595" lon="3.14096">
        <ele>334.2</ele>
        <time>2024-04-28T10:01:36Z</time>
      </trkpt>
      <trkpt lat="45.82603" lon="3.14094">
        <ele>334.2</ele>
        <time>2024-04-28T10:01:37Z</time>
      </trkpt>
      <trkpt lat="45.8261" lon="3.14092">
        <ele>334.2</ele>
        <time>2024-04-28T10:01:38Z</time>
      </trkpt>
      <trkpt lat="45.82618" lon="3.14093">
        <ele>334.2</ele>
        <time>2024-04-28T10:01:39Z</time>
      </trkpt>
      <trkpt lat="45.82625" lon="3.14095">
        <ele>334.2</ele>
        <time>2024-04-28T10:01:40Z</time>
      </trkpt>
      <trkpt lat="45.82633" lon="3.14097">
        <ele>334</ele>
        <time>2024-04-28T10:01:41Z</time>
      </trkpt>
      <trkpt lat="45.8264" lon="3.14099">
        <ele>334</ele>
        <time>2024-04-28T10:01:42Z</time>
      </trkpt>
      <trkpt lat="45.82647" lon="3.14101">
        <ele>334</ele>
        <time>2024-04-28T10:01:43Z</time>
      </trkpt>
      <trkpt lat="45.82654" lon="3.14103">
        <ele>334.2</ele>
        <time>2024-04-28T10:01:44Z</time>
      </trkpt>
      <trkpt lat="45.82661" lon="3.14105">
        <ele>334.2</ele>
        <time>2024-04-28T10:01:45Z</time>
      </trkpt>
      <trkpt lat="45.82669" lon="3.14107">
        <ele>334.2</ele>
        <time>2024-04-28T10:01:46Z</time>
      </trkpt>
      <trkpt lat="45.82676" lon="3.1411">
        <ele>334</ele>
        <time>2024-04-28T10:01:47Z</time>
      </trkpt>
      <trkpt lat="45.82683" lon="3.14113">
        <ele>334</ele>
        <time>2024-04-28T10:01:48Z</time>
      </trkpt>
      <trkpt lat="45.82691" lon="3.14117">
        <ele>334</ele>
        <time>2024-04-28T10:01:49Z</time>
      </trkpt>
      <trkpt lat="45.82698" lon="3.14121">
        <ele>334.2</ele>
        <time>2024-04-28T10:01:50Z</time>
      </trkpt>
      <trkpt lat="45.82705" lon="3.14124">
        <ele>333.8</ele>
        <time>2024-04-28T10:01:51Z</time>
      </trkpt>
      <trkpt lat="45.82713" lon="3.14128">
        <ele>334</ele>
        <time>2024-04-28T10:01:52Z</time>
      </trkpt>
      <trkpt lat="45.8272" lon="3.14132">
        <ele>334.2</ele>
        <time>2024-04-28T10:01:53Z</time>
      </trkpt>
      <trkpt lat="45.82727" lon="3.14136">
        <ele>334.2</ele>
        <time>2024-04-28T10:01:54Z</time>
      </trkpt>
      <trkpt lat="45.82734" lon="3.1414">
        <ele>333.8</ele>
        <time>2024-04-28T10:01:55Z</time>
      </trkpt>
      <trkpt lat="45.82741" lon="3.14144">
        <ele>334</ele>
        <time>2024-04-28T10:01:56Z</time>
      </trkpt>
      <trkpt lat="45.82748" lon="3.14148">
        <ele>334</ele>
        <time>2024-04-28T10:01:57Z</time>
      </trkpt>
      <trkpt lat="45.82755" lon="3.14152">
        <ele>333.8</ele>
        <time>2024-04-28T10:01:58Z</time>
      </trkpt>
      <trkpt lat="45.82762" lon="3.14156">
        <ele>333.8</ele>
        <time>2024-04-28T10:01:59Z</time>
      </trkpt>
      <trkpt lat="45.82769" lon="3.14159">
        <ele>333.8</ele>
        <time>2024-04-28T10:02:00Z</time>
      </trkpt>
      <trkpt lat="45.82776" lon="3.14163">
        <ele>333.6</ele>
        <time>2024-04-28T10:02:01Z</time>
      </trkpt>
      <trkpt lat="45.82783" lon="3.14166">
        <ele>333.6</ele>
        <time>2024-04-28T10:02:02Z</time>
      </trkpt>
      <trkpt lat="45.8279" lon="3.1417">
        <ele>333.6</ele>
        <time>2024-04-28T10:02:03Z</time>
      </trkpt>
      <trkpt lat="45.82797" lon="3.14173">
        <ele>333.4</ele>
        <time>2024-04-28T10:02:04Z</time>
      </trkpt>
      <trkpt lat="45.82804" lon="3.14176">
        <ele>333.4</ele>
        <time>2024-04-28T10:02:05Z</time>
      </trkpt>
      <trkpt lat="45.82811" lon="3.1418">
        <ele>333.4</ele>
        <time>2024-04-28T10:02:06Z</time>
      </trkpt>
      <trkpt lat="45.82818" lon="3.14183">
        <ele>333.4</ele>
        <time>2024-04-28T10:02:07Z</time>
      </trkpt>
      <trkpt lat="45.82825" lon="3.14186">
        <ele>333.2</ele>
        <time>2024-04-28T10:02:08Z</time>
      </trkpt>
      <trkpt lat="45.82832" lon="3.14189">
        <ele>333.2</ele>
        <time>2024-04-28T10:02:09Z</time>
      </trkpt>
      <trkpt lat="45.82839" lon="3.14192">
        <ele>333</ele>
        <time>2024-04-28T10:02:10Z</time>
      </trkpt>
      <trkpt lat="45.82847" lon="3.14195">
        <ele>333</ele>
        <time>2024-04-28T10:02:11Z</time>
      </trkpt>
      <trkpt lat="45.82854" lon="3.14197">
        <ele>333</ele>
        <time>2024-04-28T10:02:12Z</time>
      </trkpt>
      <trkpt lat="45.82861" lon="3.142">
        <ele>332.8</ele>
        <time>2024-04-28T10:02:13Z</time>
      </trkpt>
      <trkpt lat="45.82868" lon="3.14203">
        <ele>332.8</ele>
        <time>2024-04-28T10:02:14Z</time>
      </trkpt>
      <trkpt lat="45.82876" lon="3.14206">
        <ele>332.6</ele>
        <time>2024-04-28T10:02:15Z</time>
      </trkpt>
      <trkpt lat="45.82883" lon="3.14209">
        <ele>332.6</ele>
        <time>2024-04-28T10:02:16Z</time>
      </trkpt>
      <trkpt lat="45.8289" lon="3.14212">
        <ele>332.6</ele>
        <time>2024-04-28T10:02:17Z</time>
      </trkpt>
      <trkpt lat="45.82897" lon="3.14215">
        <ele>332.6</ele>
        <time>2024-04-28T10:02:18Z</time>
      </trkpt>
      <trkpt lat="45.82905" lon="3.14217">
        <ele>332.4</ele>
        <time>2024-04-28T10:02:19Z</time>
      </trkpt>
      <trkpt lat="45.82912" lon="3.1422">
        <ele>332.4</ele>
        <time>2024-04-28T10:02:20Z</time>
      </trkpt>
      <trkpt lat="45.82919" lon="3.14222">
        <ele>332.4</ele>
        <time>2024-04-28T10:02:21Z</time>
      </trkpt>
      <trkpt lat="45.82926" lon="3.14225">
        <ele>332.2</ele>
        <time>2024-04-28T10:02:22Z</time>
      </trkpt>
      <trkpt lat="45.82933" lon="3.14227">
        <ele>332.2</ele>
        <time>2024-04-28T10:02:23Z</time>
      </trkpt>
      <trkpt lat="45.82941" lon="3.14229">
        <ele>332.2</ele>
        <time>2024-04-28T10:02:24Z</time>
      </trkpt>
      <trkpt lat="45.82949" lon="3.1423">
        <ele>332</ele>
        <time>2024-04-28T10:02:25Z</time>
      </trkpt>
      <trkpt lat="45.82956" lon="3.14232">
        <ele>332</ele>
        <time>2024-04-28T10:02:26Z</time>
      </trkpt>
      <trkpt lat="45.82963" lon="3.14233">
        <ele>332</ele>
        <time>2024-04-28T10:02:27Z</time>
      </trkpt>
      <trkpt lat="45.82971" lon="3.14235">
        <ele>331.8</ele>
        <time>2024-04-28T10:02:28Z</time>
      </trkpt>
      <trkpt lat="45.82978" lon="3.14236">
        <ele>331.8</ele>
        <time>2024-04-28T10:02:29Z</time>
      </trkpt>
      <trkpt lat="45.82986" lon="3.14238">
        <ele>331.8</ele>
        <time>2024-04-28T10:02:30Z</time>
      </trkpt>
      <trkpt lat="45.82993" lon="3.1424">
        <ele>331.6</ele>
        <time>2024-04-28T10:02:31Z</time>
      </trkpt>
      <trkpt lat="45.83001" lon="3.14241">
        <ele>331.6</ele>
        <time>2024-04-28T10:02:32Z</time>
      </trkpt>
      <trkpt lat="45.83008" lon="3.14243">
        <ele>331.6</ele>
        <time>2024-04-28T10:02:33Z</time>
      </trkpt>
      <trkpt lat="45.83016" lon="3.14245">
        <ele>331.4</ele>
        <time>2024-04-28T10:02:34Z</time>
      </trkpt>
      <trkpt lat="45.83023" lon="3.14248">
        <ele>331.4</ele>
        <time>2024-04-28T10:02:35Z</time>
      </trkpt>
      <trkpt lat="45.8303" lon="3.14251">
        <ele>331.4</ele>
        <time>2024-04-28T10:02:36Z</time>
      </trkpt>
      <trkpt lat="45.83038" lon="3.14253">
        <ele>331.2</ele>
        <time>2024-04-28T10:02:37Z</time>
      </trkpt>
      <trkpt lat="45.83045" lon="3.14256">
        <ele>331.2</ele>
        <time>2024-04-28T10:02:38Z</time>
      </trkpt>
      <trkpt lat="45.83052" lon="3.14259">
        <ele>331</ele>
        <time>2024-04-28T10:02:39Z</time>
      </trkpt>
      <trkpt lat="45.8306" lon="3.14262">
        <ele>331</ele>
        <time>2024-04-28T10:02:40Z</time>
      </trkpt>
      <trkpt lat="45.83067" lon="3.14265">
        <ele>331</ele>
        <time>2024-04-28T10:02:41Z</time>
      </trkpt>
      <trkpt lat="45.83074" lon="3.14268">
        <ele>331</ele>
        <time>2024-04-28T10:02:42Z</time>
      </trkpt>
      <trkpt lat="45.83082" lon="3.1427">
        <ele>330.8</ele>
        <time>2024-04-28T10:02:43Z</time>
      </trkpt>
      <trkpt lat="45.83089" lon="3.14273">
        <ele>330.8</ele>
        <time>2024-04-28T10:02:44Z</time>
      </trkpt>
      <trkpt lat="45.83097" lon="3.14276">
        <ele>330.8</ele>
        <time>2024-04-28T10:02:45Z</time>
      </trkpt>
      <trkpt lat="45.83104" lon="3.1428">
        <ele>330.8</ele>
        <time>2024-04-28T10:02:46Z</time>
      </trkpt>
      <trkpt lat="45.83111" lon="3.14284">
        <ele>330.6</ele>
        <time>2024-04-28T10:02:47Z</time>
      </trkpt>
      <trkpt lat="45.83118" lon="3.14288">
        <ele>330.6</ele>
        <time>2024-04-28T10:02:48Z</time>
      </trkpt>
      <trkpt lat="45.83125" lon="3.14291">
        <ele>330.6</ele>
        <time>2024-04-28T10:02:49Z</time>
      </trkpt>
      <trkpt lat="45.83133" lon="3.14295">
        <ele>330.4</ele>
        <time>2024-04-28T10:02:50Z</time>
      </trkpt>
      <trkpt lat="45.8314" lon="3.14299">
        <ele>330.4</ele>
        <time>2024-04-28T10:02:51Z</time>
      </trkpt>
      <trkpt lat="45.83147" lon="3.14302">
        <ele>330.4</ele>
        <time>2024-04-28T10:02:52Z</time>
      </trkpt>
      <trkpt lat="45.83157" lon="3.14299">
        <ele>330.4</ele>
        <time>2024-04-28T10:02:53Z</time>
      </trkpt>
      <trkpt lat="45.83162" lon="3.143">
        <ele>330.4</ele>
        <time>2024-04-28T10:02:54Z</time>
      </trkpt>
      <trkpt lat="45.83169" lon="3.14302">
        <ele>330.4</ele>
        <time>2024-04-28T10:02:55Z</time>
      </trkpt>
      <trkpt lat="45.83176" lon="3.14303">
        <ele>330.4</ele>
        <time>2024-04-28T10:02:56Z</time>
      </trkpt>
      <trkpt lat="45.83183" lon="3.14305">
        <ele>330.4</ele>
        <time>2024-04-28T10:02:57Z</time>
      </trkpt>
      <trkpt lat="45.8319" lon="3.14307">
        <ele>330.4</ele>
        <time>2024-04-28T10:02:58Z</time>
      </trkpt>
      <trkpt lat="45.83197" lon="3.14308">
        <ele>330.4</ele>
        <time>2024-04-28T10:02:59Z</time>
      </trkpt>
      <trkpt lat="45.83204" lon="3.1431">
        <ele>330.4</ele>
        <time>2024-04-28T10:03:00Z</time>
      </trkpt>
      <trkpt lat="45.8321" lon="3.14311">
        <ele>330.6</ele>
        <time>2024-04-28T10:03:01Z</time>
      </trkpt>
      <trkpt lat="45.83217" lon="3.14313">
        <ele>330.4</ele>
        <time>2024-04-28T10:03:02Z</time>
      </trkpt>
      <trkpt lat="45.83224" lon="3.14314">
        <ele>330.4</ele>
        <time>2024-04-28T10:03:03Z</time>
      </trkpt>
      <trkpt lat="45.83231" lon="3.14316">
        <ele>330.6</ele>
        <time>2024-04-28T10:03:04Z</time>
      </trkpt>
      <trkpt lat="45.83238" lon="3.14317">
        <ele>330.6</ele>
        <time>2024-04-28T10:03:05Z</time>
      </trkpt>
      <trkpt lat="45.83245" lon="3.14319">
        <ele>330.6</ele>
        <time>2024-04-28T10:03:06Z</time>
      </trkpt>
      <trkpt lat="45.83252" lon="3.14321">
        <ele>330.2</ele>
        <time>2024-04-28T10:03:07Z</time>
      </trkpt>
      <trkpt lat="45.83259" lon="3.14322">
        <ele>330.4</ele>
        <time>2024-04-28T10:03:08Z</time>
      </trkpt>
      <trkpt lat="45.83265" lon="3.14324">
        <ele>330.4</ele>
        <time>2024-04-28T10:03:09Z</time>
      </trkpt>
      <trkpt lat="45.83272" lon="3.14325">
        <ele>330.8</ele>
        <time>2024-04-28T10:03:10Z</time>
      </trkpt>
      <trkpt lat="45.83278" lon="3.14327">
        <ele>331</ele>
        <time>2024-04-28T10:03:11Z</time>
      </trkpt>
      <trkpt lat="45.83284" lon="3.14329">
        <ele>330.8</ele>
        <time>2024-04-28T10:03:12Z</time>
      </trkpt>
      <trkpt lat="45.83291" lon="3.14331">
        <ele>330.8</ele>
        <time>2024-04-28T10:03:13Z</time>
      </trkpt>
      <trkpt lat="45.83296" lon="3.14335">
        <ele>330.8</ele>
        <time>2024-04-28T10:03:14Z</time>
      </trkpt>
      <trkpt lat="45.83301" lon="3.1434">
        <ele>330.8</ele>
        <time>2024-04-28T10:03:15Z</time>
      </trkpt>
      <trkpt lat="45.83307" lon="3.14346">
        <ele>331</ele>
        <time>2024-04-28T10:03:16Z</time>
      </trkpt>
      <trkpt lat="45.8331" lon="3.14351">
        <ele>331</ele>
        <time>2024-04-28T10:03:17Z</time>
      </trkpt>
      <trkpt lat="45.83316" lon="3.14358">
        <ele>331</ele>
        <time>2024-04-28T10:03:18Z</time>
      </trkpt>
      <trkpt lat="45.83329" lon="3.14355">
        <ele>331</ele>
        <time>2024-04-28T10:03:19Z</time>
      </trkpt>
      <trkpt lat="45.83329" lon="3.14355">
        <ele>331</ele>
        <time>2024-04-28T10:03:20Z</time>
      </trkpt>
      <trkpt lat="45.83335" lon="3.14353">
        <ele>331</ele>
        <time>2024-04-28T10:03:21Z</time>
      </trkpt>
      <trkpt lat="45.83341" lon="3.14352">
        <ele>331</ele>
        <time>2024-04-28T10:03:22Z</time>
      </trkpt>
      <trkpt lat="45.83347" lon="3.1435">
        <ele>331</ele>
        <time>2024-04-28T10:03:23Z</time>
      </trkpt>
      <trkpt lat="45.83353" lon="3.14348">
        <ele>331</ele>
        <time>2024-04-28T10:03:24Z</time>
      </trkpt>
      <trkpt lat="45.8336" lon="3.14347">
        <ele>331</ele>
        <time>2024-04-28T10:03:25Z</time>
      </trkpt>
      <trkpt lat="45.83366" lon="3.14345">
        <ele>331</ele>
        <time>2024-04-28T10:03:26Z</time>
      </trkpt>
      <trkpt lat="45.83373" lon="3.14345">
        <ele>331.2</ele>
        <time>2024-04-28T10:03:27Z</time>
      </trkpt>
      <trkpt lat="45.8338" lon="3.14346">
        <ele>331.2</ele>
        <time>2024-04-28T10:03:28Z</time>
      </trkpt>
      <trkpt lat="45.83387" lon="3.14347">
        <ele>331.2</ele>
        <time>2024-04-28T10:03:29Z</time>
      </trkpt>
      <trkpt lat="45.83393" lon="3.14348">
        <ele>331.2</ele>
        <time>2024-04-28T10:03:30Z</time>
      </trkpt>
      <trkpt lat="45.83401" lon="3.14349">
        <ele>331.2</ele>
        <time>2024-04-28T10:03:31Z</time>
      </trkpt>
      <trkpt lat="45.83407" lon="3.1435">
        <ele>331.4</ele>
        <time>2024-04-28T10:03:32Z</time>
      </trkpt>
      <trkpt lat="45.83414" lon="3.14351">
        <ele>331.4</ele>
        <time>2024-04-28T10:03:33Z</time>
      </trkpt>
      <trkpt lat="45.83421" lon="3.14352">
        <ele>331.4</ele>
        <time>2024-04-28T10:03:34Z</time>
      </trkpt>
      <trkpt lat="45.83428" lon="3.14353">
        <ele>331.4</ele>
        <time>2024-04-28T10:03:35Z</time>
      </trkpt>
      <trkpt lat="45.83435" lon="3.14354">
        <ele>331.4</ele>
        <time>2024-04-28T10:03:36Z</time>
      </trkpt>
      <trkpt lat="45.83442" lon="3.14355">
        <ele>331.4</ele>
        <time>2024-04-28T10:03:37Z</time>
      </trkpt>
      <trkpt lat="45.83449" lon="3.14357">
        <ele>331.4</ele>
        <time>2024-04-28T10:03:38Z</time>
      </trkpt>
      <trkpt lat="45.83455" lon="3.14358">
        <ele>331.4</ele>
        <time>2024-04-28T10:03:39Z</time>
      </trkpt>
      <trkpt lat="45.83462" lon="3.14359">
        <ele>331.4</ele>
        <time>2024-04-28T10:03:40Z</time>
      </trkpt>
      <trkpt lat="45.83468" lon="3.1436">
        <ele>331.4</ele>
        <time>2024-04-28T10:03:41Z</time>
      </trkpt>
      <trkpt lat="45.83475" lon="3.14361">
        <ele>331.6</ele>
        <time>2024-04-28T10:03:42Z</time>
      </trkpt>
      <trkpt lat="45.83482" lon="3.14362">
        <ele>331.6</ele>
        <time>2024-04-28T10:03:43Z</time>
      </trkpt>
      <trkpt lat="45.83488" lon="3.14363">
        <ele>331.6</ele>
        <time>2024-04-28T10:03:44Z</time>
      </trkpt>
      <trkpt lat="45.83495" lon="3.14364">
        <ele>331.6</ele>
        <time>2024-04-28T10:03:45Z</time>
      </trkpt>
      <trkpt lat="45.83501" lon="3.14365">
        <ele>331.8</ele>
        <time>2024-04-28T10:03:46Z</time>
      </trkpt>
      <trkpt lat="45.83508" lon="3.14366">
        <ele>331.8</ele>
        <time>2024-04-28T10:03:47Z</time>
      </trkpt>
      <trkpt lat="45.83514" lon="3.1437">
        <ele>331.8</ele>
        <time>2024-04-28T10:03:48Z</time>
      </trkpt>
      <trkpt lat="45.8352" lon="3.14373">
        <ele>332</ele>
        <time>2024-04-28T10:03:49Z</time>
      </trkpt>
      <trkpt lat="45.83526" lon="3.14377">
        <ele>332</ele>
        <time>2024-04-28T10:03:50Z</time>
      </trkpt>
      <trkpt lat="45.83532" lon="3.14381">
        <ele>332</ele>
        <time>2024-04-28T10:03:51Z</time>
      </trkpt>
      <trkpt lat="45.83538" lon="3.14384">
        <ele>332</ele>
        <time>2024-04-28T10:03:52Z</time>
      </trkpt>
      <trkpt lat="45.83544" lon="3.14387">
        <ele>332</ele>
        <time>2024-04-28T10:03:53Z</time>
      </trkpt>
      <trkpt lat="45.83551" lon="3.1439">
        <ele>332</ele>
        <time>2024-04-28T10:03:54Z</time>
      </trkpt>
      <trkpt lat="45.83557" lon="3.14393">
        <ele>332</ele>
        <time>2024-04-28T10:03:55Z</time>
      </trkpt>
      <trkpt lat="45.83564" lon="3.14397">
        <ele>332</ele>
        <time>2024-04-28T10:03:56Z</time>
      </trkpt>
      <trkpt lat="45.8357" lon="3.14402">
        <ele>332</ele>
        <time>2024-04-28T10:03:57Z</time>
      </trkpt>
      <trkpt lat="45.83577" lon="3.14406">
        <ele>332</ele>
        <time>2024-04-28T10:03:58Z</time>
      </trkpt>
      <trkpt lat="45.83584" lon="3.14411">
        <ele>332</ele>
        <time>2024-04-28T10:03:59Z</time>
      </trkpt>
      <trkpt lat="45.8359" lon="3.14415">
        <ele>332</ele>
        <time>2024-04-28T10:04:00Z</time>
      </trkpt>
      <trkpt lat="45.83597" lon="3.1442">
        <ele>332</ele>
        <time>2024-04-28T10:04:01Z</time>
      </trkpt>
      <trkpt lat="45.83604" lon="3.14424">
        <ele>332</ele>
        <time>2024-04-28T10:04:02Z</time>
      </trkpt>
      <trkpt lat="45.83611" lon="3.14429">
        <ele>332</ele>
        <time>2024-04-28T10:04:03Z</time>
      </trkpt>
      <trkpt lat="45.83617" lon="3.14433">
        <ele>331.8</ele>
        <time>2024-04-28T10:04:04Z</time>
      </trkpt>
      <trkpt lat="45.83624" lon="3.14438">
        <ele>331.8</ele>
        <time>2024-04-28T10:04:05Z</time>
      </trkpt>
      <trkpt lat="45.8363" lon="3.14442">
        <ele>331.8</ele>
        <time>2024-04-28T10:04:06Z</time>
      </trkpt>
      <trkpt lat="45.83637" lon="3.14447">
        <ele>332.2</ele>
        <time>2024-04-28T10:04:07Z</time>
      </trkpt>
      <trkpt lat="45.83644" lon="3.14451">
        <ele>331.8</ele>
        <time>2024-04-28T10:04:08Z</time>
      </trkpt>
      <trkpt lat="45.8365" lon="3.14455">
        <ele>331.4</ele>
        <time>2024-04-28T10:04:09Z</time>
      </trkpt>
      <trkpt lat="45.83657" lon="3.14459">
        <ele>331.6</ele>
        <time>2024-04-28T10:04:10Z</time>
      </trkpt>
      <trkpt lat="45.83664" lon="3.14463">
        <ele>331.6</ele>
        <time>2024-04-28T10:04:11Z</time>
      </trkpt>
      <trkpt lat="45.83671" lon="3.14466">
        <ele>331.4</ele>
        <time>2024-04-28T10:04:12Z</time>
      </trkpt>
      <trkpt lat="45.83678" lon="3.14469">
        <ele>331.4</ele>
        <time>2024-04-28T10:04:13Z</time>
      </trkpt>
      <trkpt lat="45.83685" lon="3.14472">
        <ele>331.2</ele>
        <time>2024-04-28T10:04:14Z</time>
      </trkpt>
      <trkpt lat="45.83692" lon="3.14475">
        <ele>331.2</ele>
        <time>2024-04-28T10:04:15Z</time>
      </trkpt>
      <trkpt lat="45.83699" lon="3.14478">
        <ele>331.2</ele>
        <time>2024-04-28T10:04:16Z</time>
      </trkpt>
      <trkpt lat="45.83706" lon="3.14481">
        <ele>331.2</ele>
        <time>2024-04-28T10:04:17Z</time>
      </trkpt>
      <trkpt lat="45.83713" lon="3.14483">
        <ele>331.2</ele>
        <time>2024-04-28T10:04:18Z</time>
      </trkpt>
      <trkpt lat="45.83719" lon="3.14486">
        <ele>331.2</ele>
        <time>2024-04-28T10:04:19Z</time>
      </trkpt>
      <trkpt lat="45.83727" lon="3.14488">
        <ele>331.2</ele>
        <time>2024-04-28T10:04:20Z</time>
      </trkpt>
      <trkpt lat="45.83734" lon="3.14489">
        <ele>331.2</ele>
        <time>2024-04-28T10:04:21Z</time>
      </trkpt>
      <trkpt lat="45.8374" lon="3.1449">
        <ele>331.2</ele>
        <time>2024-04-28T10:04:22Z</time>
      </trkpt>
      <trkpt lat="45.83747" lon="3.14491">
        <ele>331.2</ele>
        <time>2024-04-28T10:04:23Z</time>
      </trkpt>
      <trkpt lat="45.83753" lon="3.14491">
        <ele>331.2</ele>
        <time>2024-04-28T10:04:24Z</time>
      </trkpt>
      <trkpt lat="45.8376" lon="3.14492">
        <ele>331.2</ele>
        <time>2024-04-28T10:04:25Z</time>
      </trkpt>
      <trkpt lat="45.83766" lon="3.14497">
        <ele>331.2</ele>
        <time>2024-04-28T10:04:26Z</time>
      </trkpt>
      <trkpt lat="45.83772" lon="3.14497">
        <ele>331.4</ele>
        <time>2024-04-28T10:04:27Z</time>
      </trkpt>
      <trkpt lat="45.83778" lon="3.14498">
        <ele>331.4</ele>
        <time>2024-04-28T10:04:28Z</time>
      </trkpt>
      <trkpt lat="45.83785" lon="3.14499">
        <ele>331.4</ele>
        <time>2024-04-28T10:04:29Z</time>
      </trkpt>
      <trkpt lat="45.83791" lon="3.14499">
        <ele>331</ele>
        <time>2024-04-28T10:04:30Z</time>
      </trkpt>
      <trkpt lat="45.83797" lon="3.145">
        <ele>331</ele>
        <time>2024-04-28T10:04:31Z</time>
      </trkpt>
      <trkpt lat="45.83803" lon="3.14501">
        <ele>331.2</ele>
        <time>2024-04-28T10:04:32Z</time>
      </trkpt>
      <trkpt lat="45.83809" lon="3.14501">
        <ele>331.2</ele>
        <time>2024-04-28T10:04:33Z</time>
      </trkpt>
      <trkpt lat="45.83814" lon="3.14501">
        <ele>331.4</ele>
        <time>2024-04-28T10:04:34Z</time>
      </trkpt>
      <trkpt lat="45.8382" lon="3.14502">
        <ele>331.6</ele>
        <time>2024-04-28T10:04:35Z</time>
      </trkpt>
      <trkpt lat="45.83825" lon="3.14502">
        <ele>331.6</ele>
        <time>2024-04-28T10:04:36Z</time>
      </trkpt>
      <trkpt lat="45.8383" lon="3.14502">
        <ele>331.8</ele>
        <time>2024-04-28T10:04:37Z</time>
      </trkpt>
      <trkpt lat="45.83835" lon="3.14502">
        <ele>331.6</ele>
        <time>2024-04-28T10:04:38Z</time>
      </trkpt>
      <trkpt lat="45.83839" lon="3.14502">
        <ele>331.6</ele>
        <time>2024-04-28T10:04:39Z</time>
      </trkpt>
      <trkpt lat="45.83843" lon="3.14503">
        <ele>331.6</ele>
        <time>2024-04-28T10:04:40Z</time>
      </trkpt>
      <trkpt lat="45.83848" lon="3.14503">
        <ele>331.8</ele>
        <time>2024-04-28T10:04:41Z</time>
      </trkpt>
      <trkpt lat="45.83852" lon="3.14503">
        <ele>331.8</ele>
        <time>2024-04-28T10:04:42Z</time>
      </trkpt>
      <trkpt lat="45.83856" lon="3.14503">
        <ele>331.8</ele>
        <time>2024-04-28T10:04:43Z</time>
      </trkpt>
      <trkpt lat="45.8386" lon="3.14503">
        <ele>331.8</ele>
        <time>2024-04-28T10:04:44Z</time>
      </trkpt>
      <trkpt lat="45.83864" lon="3.14504">
        <ele>332</ele>
        <time>2024-04-28T10:04:45Z</time>
      </trkpt>
      <trkpt lat="45.83869" lon="3.14504">
        <ele>332</ele>
        <time>2024-04-28T10:04:46Z</time>
      </trkpt>
      <trkpt lat="45.83873" lon="3.14504">
        <ele>332.2</ele>
        <time>2024-04-28T10:04:47Z</time>
      </trkpt>
      <trkpt lat="45.83876" lon="3.14504">
        <ele>332.2</ele>
        <time>2024-04-28T10:04:48Z</time>
      </trkpt>
      <trkpt lat="45.8388" lon="3.14504">
        <ele>332.4</ele>
        <time>2024-04-28T10:04:49Z</time>
      </trkpt>
      <trkpt lat="45.83883" lon="3.14505">
        <ele>332.6</ele>
        <time>2024-04-28T10:04:50Z</time>
      </trkpt>
      <trkpt lat="45.83887" lon="3.14505">
        <ele>332.8</ele>
        <time>2024-04-28T10:04:51Z</time>
      </trkpt>
      <trkpt lat="45.83891" lon="3.14505">
        <ele>332.8</ele>
        <time>2024-04-28T10:04:52Z</time>
      </trkpt>
      <trkpt lat="45.83894" lon="3.14505">
        <ele>333</ele>
        <time>2024-04-28T10:04:53Z</time>
      </trkpt>
      <trkpt lat="45.83898" lon="3.14505">
        <ele>333</ele>
        <time>2024-04-28T10:04:54Z</time>
      </trkpt>
      <trkpt lat="45.83901" lon="3.14505">
        <ele>333.2</ele>
        <time>2024-04-28T10:04:55Z</time>
      </trkpt>
      <trkpt lat="45.83904" lon="3.14506">
        <ele>333.2</ele>
        <time>2024-04-28T10:04:56Z</time>
      </trkpt>
      <trkpt lat="45.83907" lon="3.14506">
        <ele>333.4</ele>
        <time>2024-04-28T10:04:57Z</time>
      </trkpt>
      <trkpt lat="45.83911" lon="3.14506">
        <ele>333.4</ele>
        <time>2024-04-28T10:04:58Z</time>
      </trkpt>
      <trkpt lat="45.83914" lon="3.14506">
        <ele>333.6</ele>
        <time>2024-04-28T10:04:59Z</time>
      </trkpt>
      <trkpt lat="45.83917" lon="3.14506">
        <ele>333.8</ele>
        <time>2024-04-28T10:05:00Z</time>
      </trkpt>
      <trkpt lat="45.83921" lon="3.14506">
        <ele>334</ele>
        <time>2024-04-28T10:05:01Z</time>
      </trkpt>
      <trkpt lat="45.83924" lon="3.14507">
        <ele>334</ele>
        <time>2024-04-28T10:05:02Z</time>
      </trkpt>
      <trkpt lat="45.83927" lon="3.14507">
        <ele>334.4</ele>
        <time>2024-04-28T10:05:03Z</time>
      </trkpt>
      <trkpt lat="45.83931" lon="3.14507">
        <ele>334.6</ele>
        <time>2024-04-28T10:05:04Z</time>
      </trkpt>
      <trkpt lat="45.83934" lon="3.14507">
        <ele>334.6</ele>
        <time>2024-04-28T10:05:05Z</time>
      </trkpt>
      <trkpt lat="45.83937" lon="3.14507">
        <ele>334.8</ele>
        <time>2024-04-28T10:05:06Z</time>
      </trkpt>
      <trkpt lat="45.83941" lon="3.14506">
        <ele>335</ele>
        <time>2024-04-28T10:05:07Z</time>
      </trkpt>
      <trkpt lat="45.83944" lon="3.14505">
        <ele>335</ele>
        <time>2024-04-28T10:05:08Z</time>
      </trkpt>
      <trkpt lat="45.83948" lon="3.14504">
        <ele>335.2</ele>
        <time>2024-04-28T10:05:09Z</time>
      </trkpt>
      <trkpt lat="45.83951" lon="3.14503">
        <ele>335.4</ele>
        <time>2024-04-28T10:05:10Z</time>
      </trkpt>
      <trkpt lat="45.83954" lon="3.14501">
        <ele>335.4</ele>
        <time>2024-04-28T10:05:11Z</time>
      </trkpt>
      <trkpt lat="45.83957" lon="3.145">
        <ele>335.6</ele>
        <time>2024-04-28T10:05:12Z</time>
      </trkpt>
      <trkpt lat="45.83961" lon="3.14499">
        <ele>335.8</ele>
        <time>2024-04-28T10:05:13Z</time>
      </trkpt>
      <trkpt lat="45.83964" lon="3.14498">
        <ele>335.8</ele>
        <time>2024-04-28T10:05:14Z</time>
      </trkpt>
      <trkpt lat="45.83967" lon="3.14496">
        <ele>336</ele>
        <time>2024-04-28T10:05:15Z</time>
      </trkpt>
      <trkpt lat="45.83971" lon="3.14495">
        <ele>336</ele>
        <time>2024-04-28T10:05:16Z</time>
      </trkpt>
      <trkpt lat="45.83975" lon="3.14494">
        <ele>336.2</ele>
        <time>2024-04-28T10:05:17Z</time>
      </trkpt>
      <trkpt lat="45.83978" lon="3.14492">
        <ele>336.4</ele>
        <time>2024-04-28T10:05:18Z</time>
      </trkpt>
      <trkpt lat="45.83981" lon="3.14491">
        <ele>336.4</ele>
        <time>2024-04-28T10:05:19Z</time>
      </trkpt>
      <trkpt lat="45.83985" lon="3.1449">
        <ele>336.6</ele>
        <time>2024-04-28T10:05:20Z</time>
      </trkpt>
      <trkpt lat="45.83988" lon="3.14488">
        <ele>336.8</ele>
        <time>2024-04-28T10:05:21Z</time>
      </trkpt>
      <trkpt lat="45.83992" lon="3.14487">
        <ele>336.8</ele>
        <time>2024-04-28T10:05:22Z</time>
      </trkpt>
      <trkpt lat="45.83995" lon="3.14486">
        <ele>337</ele>
        <time>2024-04-28T10:05:23Z</time>
      </trkpt>
      <trkpt lat="45.83999" lon="3.14484">
        <ele>337</ele>
        <time>2024-04-28T10:05:24Z</time>
      </trkpt>
      <trkpt lat="45.84003" lon="3.14483">
        <ele>337.2</ele>
        <time>2024-04-28T10:05:25Z</time>
      </trkpt>
      <trkpt lat="45.84007" lon="3.14482">
        <ele>337.2</ele>
        <time>2024-04-28T10:05:26Z</time>
      </trkpt>
      <trkpt lat="45.84011" lon="3.14477">
        <ele>337.4</ele>
        <time>2024-04-28T10:05:27Z</time>
      </trkpt>
      <trkpt lat="45.84015" lon="3.14477">
        <ele>337.6</ele>
        <time>2024-04-28T10:05:28Z</time>
      </trkpt>
      <trkpt lat="45.84019" lon="3.14476">
        <ele>337.6</ele>
        <time>2024-04-28T10:05:29Z</time>
      </trkpt>
      <trkpt lat="45.84024" lon="3.14476">
        <ele>337.8</ele>
        <time>2024-04-28T10:05:30Z</time>
      </trkpt>
      <trkpt lat="45.84029" lon="3.14476">
        <ele>337.8</ele>
        <time>2024-04-28T10:05:31Z</time>
      </trkpt>
      <trkpt lat="45.84034" lon="3.14476">
        <ele>337.8</ele>
        <time>2024-04-28T10:05:32Z</time>
      </trkpt>
      <trkpt lat="45.84039" lon="3.14475">
        <ele>337.8</ele>
        <time>2024-04-28T10:05:33Z</time>
      </trkpt>
      <trkpt lat="45.84041" lon="3.14475">
        <ele>338</ele>
        <time>2024-04-28T10:05:34Z</time>
      </trkpt>
      <trkpt lat="45.84048" lon="3.14479">
        <ele>338</ele>
        <time>2024-04-28T10:05:35Z</time>
      </trkpt>
      <trkpt lat="45.84053" lon="3.14479">
        <ele>338.2</ele>
        <time>2024-04-28T10:05:36Z</time>
      </trkpt>
      <trkpt lat="45.84058" lon="3.14479">
        <ele>338.2</ele>
        <time>2024-04-28T10:05:37Z</time>
      </trkpt>
      <trkpt lat="45.84063" lon="3.14476">
        <ele>338.2</ele>
        <time>2024-04-28T10:05:38Z</time>
      </trkpt>
      <trkpt lat="45.84067" lon="3.1447">
        <ele>338.2</ele>
        <time>2024-04-28T10:05:39Z</time>
      </trkpt>
      <trkpt lat="45.8407" lon="3.14464">
        <ele>338.2</ele>
        <time>2024-04-28T10:05:40Z</time>
      </trkpt>
      <trkpt lat="45.84073" lon="3.14453">
        <ele>338.4</ele>
        <time>2024-04-28T10:05:41Z</time>
      </trkpt>
      <trkpt lat="45.84078" lon="3.14447">
        <ele>338.4</ele>
        <time>2024-04-28T10:05:42Z</time>
      </trkpt>
      <trkpt lat="45.84083" lon="3.1444">
        <ele>338.2</ele>
        <time>2024-04-28T10:05:43Z</time>
      </trkpt>
      <trkpt lat="45.84089" lon="3.14433">
        <ele>338.2</ele>
        <time>2024-04-28T10:05:44Z</time>
      </trkpt>
      <trkpt lat="45.84094" lon="3.14426">
        <ele>338.2</ele>
        <time>2024-04-28T10:05:45Z</time>
      </trkpt>
      <trkpt lat="45.84101" lon="3.14419">
        <ele>338</ele>
        <time>2024-04-28T10:05:46Z</time>
      </trkpt>
      <trkpt lat="45.84107" lon="3.14412">
        <ele>338</ele>
        <time>2024-04-28T10:05:47Z</time>
      </trkpt>
      <trkpt lat="45.84113" lon="3.14404">
        <ele>338</ele>
        <time>2024-04-28T10:05:48Z</time>
      </trkpt>
      <trkpt lat="45.84119" lon="3.14394">
        <ele>339</ele>
        <time>2024-04-28T10:05:49Z</time>
      </trkpt>
      <trkpt lat="45.84125" lon="3.14384">
        <ele>338.2</ele>
        <time>2024-04-28T10:05:50Z</time>
      </trkpt>
      <trkpt lat="45.84132" lon="3.14374">
        <ele>337.4</ele>
        <time>2024-04-28T10:05:51Z</time>
      </trkpt>
      <trkpt lat="45.84138" lon="3.14363">
        <ele>336.6</ele>
        <time>2024-04-28T10:05:52Z</time>
      </trkpt>
      <trkpt lat="45.84146" lon="3.14352">
        <ele>337.2</ele>
        <time>2024-04-28T10:05:53Z</time>
      </trkpt>
      <trkpt lat="45.84153" lon="3.14341">
        <ele>337</ele>
        <time>2024-04-28T10:05:54Z</time>
      </trkpt>
      <trkpt lat="45.84161" lon="3.14329">
        <ele>336.6</ele>
        <time>2024-04-28T10:05:55Z</time>
      </trkpt>
      <trkpt lat="45.84169" lon="3.14317">
        <ele>336.4</ele>
        <time>2024-04-28T10:05:56Z</time>
      </trkpt>
      <trkpt lat="45.84177" lon="3.14304">
        <ele>336</ele>
        <time>2024-04-28T10:05:57Z</time>
      </trkpt>
      <trkpt lat="45.84187" lon="3.14292">
        <ele>335.8</ele>
        <time>2024-04-28T10:05:58Z</time>
      </trkpt>
      <trkpt lat="45.84196" lon="3.1428">
        <ele>335.4</ele>
        <time>2024-04-28T10:05:59Z</time>
      </trkpt>
      <trkpt lat="45.84206" lon="3.14267">
        <ele>335</ele>
        <time>2024-04-28T10:06:00Z</time>
      </trkpt>
      <trkpt lat="45.84215" lon="3.14255">
        <ele>334.8</ele>
        <time>2024-04-28T10:06:01Z</time>
      </trkpt>
      <trkpt lat="45.84227" lon="3.14244">
        <ele>334.4</ele>
        <time>2024-04-28T10:06:02Z</time>
      </trkpt>
      <trkpt lat="45.84239" lon="3.14235">
        <ele>334.2</ele>
        <time>2024-04-28T10:06:03Z</time>
      </trkpt>
      <trkpt lat="45.84252" lon="3.14228">
        <ele>334</ele>
        <time>2024-04-28T10:06:04Z</time>
      </trkpt>
      <trkpt lat="45.84264" lon="3.14221">
        <ele>333.6</ele>
        <time>2024-04-28T10:06:05Z</time>
      </trkpt>
      <trkpt lat="45.84277" lon="3.14214">
        <ele>333.4</ele>
        <time>2024-04-28T10:06:06Z</time>
      </trkpt>
      <trkpt lat="45.84289" lon="3.14207">
        <ele>333.2</ele>
        <time>2024-04-28T10:06:07Z</time>
      </trkpt>
      <trkpt lat="45.84301" lon="3.142">
        <ele>333</ele>
        <time>2024-04-28T10:06:08Z</time>
      </trkpt>
      <trkpt lat="45.84312" lon="3.14194">
        <ele>332.8</ele>
        <time>2024-04-28T10:06:09Z</time>
      </trkpt>
      <trkpt lat="45.84324" lon="3.14188">
        <ele>332.6</ele>
        <time>2024-04-28T10:06:10Z</time>
      </trkpt>
      <trkpt lat="45.84334" lon="3.14182">
        <ele>332.4</ele>
        <time>2024-04-28T10:06:11Z</time>
      </trkpt>
      <trkpt lat="45.84345" lon="3.14176">
        <ele>332.2</ele>
        <time>2024-04-28T10:06:12Z</time>
      </trkpt>
      <trkpt lat="45.84355" lon="3.14171">
        <ele>332</ele>
        <time>2024-04-28T10:06:13Z</time>
      </trkpt>
      <trkpt lat="45.84365" lon="3.14167">
        <ele>332</ele>
        <time>2024-04-28T10:06:14Z</time>
      </trkpt>
      <trkpt lat="45.84375" lon="3.14162">
        <ele>331.8</ele>
        <time>2024-04-28T10:06:15Z</time>
      </trkpt>
      <trkpt lat="45.84385" lon="3.14157">
        <ele>331.6</ele>
        <time>2024-04-28T10:06:16Z</time>
      </trkpt>
      <trkpt lat="45.84394" lon="3.14153">
        <ele>331.6</ele>
        <time>2024-04-28T10:06:17Z</time>
      </trkpt>
      <trkpt lat="45.84403" lon="3.14148">
        <ele>331.4</ele>
        <time>2024-04-28T10:06:18Z</time>
      </trkpt>
      <trkpt lat="45.84412" lon="3.14144">
        <ele>331.4</ele>
        <time>2024-04-28T10:06:19Z</time>
      </trkpt>
      <trkpt lat="45.84421" lon="3.1414">
        <ele>331.2</ele>
        <time>2024-04-28T10:06:20Z</time>
      </trkpt>
      <trkpt lat="45.8443" lon="3.14135">
        <ele>331</ele>
        <time>2024-04-28T10:06:21Z</time>
      </trkpt>
      <trkpt lat="45.84439" lon="3.14131">
        <ele>331</ele>
        <time>2024-04-28T10:06:22Z</time>
      </trkpt>
      <trkpt lat="45.84447" lon="3.14127">
        <ele>330.8</ele>
        <time>2024-04-28T10:06:23Z</time>
      </trkpt>
      <trkpt lat="45.84456" lon="3.14123">
        <ele>330.8</ele>
        <time>2024-04-28T10:06:24Z</time>
      </trkpt>
      <trkpt lat="45.84464" lon="3.14119">
        <ele>330.8</ele>
        <time>2024-04-28T10:06:25Z</time>
      </trkpt>
      <trkpt lat="45.84472" lon="3.14115">
        <ele>330.6</ele>
        <time>2024-04-28T10:06:26Z</time>
      </trkpt>
      <trkpt lat="45.8448" lon="3.14112">
        <ele>330.4</ele>
        <time>2024-04-28T10:06:27Z</time>
      </trkpt>
      <trkpt lat="45.84488" lon="3.14108">
        <ele>330.4</ele>
        <time>2024-04-28T10:06:28Z</time>
      </trkpt>
      <trkpt lat="45.84496" lon="3.14104">
        <ele>330.2</ele>
        <time>2024-04-28T10:06:29Z</time>
      </trkpt>
      <trkpt lat="45.84504" lon="3.141">
        <ele>330.2</ele>
        <time>2024-04-28T10:06:30Z</time>
      </trkpt>
      <trkpt lat="45.84512" lon="3.14096">
        <ele>330</ele>
        <time>2024-04-28T10:06:31Z</time>
      </trkpt>
      <trkpt lat="45.8452" lon="3.14093">
        <ele>330</ele>
        <time>2024-04-28T10:06:32Z</time>
      </trkpt>
      <trkpt lat="45.84527" lon="3.14089">
        <ele>329.8</ele>
        <time>2024-04-28T10:06:33Z</time>
      </trkpt>
      <trkpt lat="45.84535" lon="3.14085">
        <ele>329.8</ele>
        <time>2024-04-28T10:06:34Z</time>
      </trkpt>
      <trkpt lat="45.84543" lon="3.14082">
        <ele>329.6</ele>
        <time>2024-04-28T10:06:35Z</time>
      </trkpt>
      <trkpt lat="45.8455" lon="3.14078">
        <ele>329.6</ele>
        <time>2024-04-28T10:06:36Z</time>
      </trkpt>
      <trkpt lat="45.84558" lon="3.14074">
        <ele>329.6</ele>
        <time>2024-04-28T10:06:37Z</time>
      </trkpt>
      <trkpt lat="45.84565" lon="3.14071">
        <ele>329.4</ele>
        <time>2024-04-28T10:06:38Z</time>
      </trkpt>
      <trkpt lat="45.84572" lon="3.14068">
        <ele>329.4</ele>
        <time>2024-04-28T10:06:39Z</time>
      </trkpt>
      <trkpt lat="45.84579" lon="3.14064">
        <ele>329.2</ele>
        <time>2024-04-28T10:06:40Z</time>
      </trkpt>
      <trkpt lat="45.84586" lon="3.14061">
        <ele>329.2</ele>
        <time>2024-04-28T10:06:41Z</time>
      </trkpt>
      <trkpt lat="45.84593" lon="3.14057">
        <ele>329</ele>
        <time>2024-04-28T10:06:42Z</time>
      </trkpt>
      <trkpt lat="45.846" lon="3.14054">
        <ele>329</ele>
        <time>2024-04-28T10:06:43Z</time>
      </trkpt>
      <trkpt lat="45.84608" lon="3.1405">
        <ele>328.8</ele>
        <time>2024-04-28T10:06:44Z</time>
      </trkpt>
      <trkpt lat="45.84615" lon="3.14047">
        <ele>328.8</ele>
        <time>2024-04-28T10:06:45Z</time>
      </trkpt>
      <trkpt lat="45.84622" lon="3.14044">
        <ele>328.6</ele>
        <time>2024-04-28T10:06:46Z</time>
      </trkpt>
      <trkpt lat="45.8463" lon="3.1404">
        <ele>328.6</ele>
        <time>2024-04-28T10:06:47Z</time>
      </trkpt>
      <trkpt lat="45.84637" lon="3.14037">
        <ele>328.4</ele>
        <time>2024-04-28T10:06:48Z</time>
      </trkpt>
      <trkpt lat="45.84644" lon="3.14033">
        <ele>328.4</ele>
        <time>2024-04-28T10:06:49Z</time>
      </trkpt>
      <trkpt lat="45.84651" lon="3.1403">
        <ele>328.4</ele>
        <time>2024-04-28T10:06:50Z</time>
      </trkpt>
      <trkpt lat="45.84658" lon="3.14026">
        <ele>328.2</ele>
        <time>2024-04-28T10:06:51Z</time>
      </trkpt>
      <trkpt lat="45.84665" lon="3.14023">
        <ele>328.2</ele>
        <time>2024-04-28T10:06:52Z</time>
      </trkpt>
      <trkpt lat="45.84673" lon="3.1402">
        <ele>328</ele>
        <time>2024-04-28T10:06:53Z</time>
      </trkpt>
      <trkpt lat="45.8468" lon="3.14016">
        <ele>328</ele>
        <time>2024-04-28T10:06:54Z</time>
      </trkpt>
      <trkpt lat="45.84687" lon="3.14013">
        <ele>328</ele>
        <time>2024-04-28T10:06:55Z</time>
      </trkpt>
      <trkpt lat="45.84695" lon="3.14009">
        <ele>328</ele>
        <time>2024-04-28T10:06:56Z</time>
      </trkpt>
      <trkpt lat="45.84702" lon="3.14006">
        <ele>328</ele>
        <time>2024-04-28T10:06:57Z</time>
      </trkpt>
      <trkpt lat="45.8471" lon="3.14002">
        <ele>328</ele>
        <time>2024-04-28T10:06:58Z</time>
      </trkpt>
      <trkpt lat="45.84717" lon="3.13998">
        <ele>327.8</ele>
        <time>2024-04-28T10:06:59Z</time>
      </trkpt>
      <trkpt lat="45.84725" lon="3.13995">
        <ele>327.8</ele>
        <time>2024-04-28T10:07:00Z</time>
      </trkpt>
      <trkpt lat="45.84732" lon="3.13991">
        <ele>327.6</ele>
        <time>2024-04-28T10:07:01Z</time>
      </trkpt>
      <trkpt lat="45.8474" lon="3.13988">
        <ele>327.6</ele>
        <time>2024-04-28T10:07:02Z</time>
      </trkpt>
      <trkpt lat="45.84747" lon="3.13984">
        <ele>327.6</ele>
        <time>2024-04-28T10:07:03Z</time>
      </trkpt>
      <trkpt lat="45.84755" lon="3.13981">
        <ele>327.4</ele>
        <time>2024-04-28T10:07:04Z</time>
      </trkpt>
      <trkpt lat="45.84762" lon="3.13977">
        <ele>327.4</ele>
        <time>2024-04-28T10:07:05Z</time>
      </trkpt>
      <trkpt lat="45.8477" lon="3.13973">
        <ele>327.2</ele>
        <time>2024-04-28T10:07:06Z</time>
      </trkpt>
      <trkpt lat="45.84778" lon="3.1397">
        <ele>327.2</ele>
        <time>2024-04-28T10:07:07Z</time>
      </trkpt>
      <trkpt lat="45.84785" lon="3.13966">
        <ele>327.2</ele>
        <time>2024-04-28T10:07:08Z</time>
      </trkpt>
      <trkpt lat="45.84793" lon="3.13962">
        <ele>327</ele>
        <time>2024-04-28T10:07:09Z</time>
      </trkpt>
      <trkpt lat="45.84801" lon="3.13959">
        <ele>326.8</ele>
        <time>2024-04-28T10:07:10Z</time>
      </trkpt>
      <trkpt lat="45.84808" lon="3.13955">
        <ele>326.6</ele>
        <time>2024-04-28T10:07:11Z</time>
      </trkpt>
      <trkpt lat="45.84816" lon="3.13951">
        <ele>326.8</ele>
        <time>2024-04-28T10:07:12Z</time>
      </trkpt>
      <trkpt lat="45.84824" lon="3.13948">
        <ele>326.8</ele>
        <time>2024-04-28T10:07:13Z</time>
      </trkpt>
      <trkpt lat="45.84831" lon="3.13944">
        <ele>326.6</ele>
        <time>2024-04-28T10:07:14Z</time>
      </trkpt>
      <trkpt lat="45.84839" lon="3.1394">
        <ele>326.6</ele>
        <time>2024-04-28T10:07:15Z</time>
      </trkpt>
      <trkpt lat="45.84847" lon="3.13937">
        <ele>326.6</ele>
        <time>2024-04-28T10:07:16Z</time>
      </trkpt>
      <trkpt lat="45.84855" lon="3.13933">
        <ele>326.6</ele>
        <time>2024-04-28T10:07:17Z</time>
      </trkpt>
      <trkpt lat="45.84862" lon="3.13929">
        <ele>326.4</ele>
        <time>2024-04-28T10:07:18Z</time>
      </trkpt>
      <trkpt lat="45.8487" lon="3.13926">
        <ele>326.4</ele>
        <time>2024-04-28T10:07:19Z</time>
      </trkpt>
      <trkpt lat="45.84878" lon="3.13922">
        <ele>326.4</ele>
        <time>2024-04-28T10:07:20Z</time>
      </trkpt>
      <trkpt lat="45.84886" lon="3.13918">
        <ele>326.4</ele>
        <time>2024-04-28T10:07:21Z</time>
      </trkpt>
      <trkpt lat="45.84894" lon="3.13914">
        <ele>326.2</ele>
        <time>2024-04-28T10:07:22Z</time>
      </trkpt>
      <trkpt lat="45.84902" lon="3.13911">
        <ele>326.2</ele>
        <time>2024-04-28T10:07:23Z</time>
      </trkpt>
      <trkpt lat="45.84909" lon="3.13907">
        <ele>326.2</ele>
        <time>2024-04-28T10:07:24Z</time>
      </trkpt>
      <trkpt lat="45.84917" lon="3.13903">
        <ele>326.2</ele>
        <time>2024-04-28T10:07:25Z</time>
      </trkpt>
      <trkpt lat="45.84924" lon="3.139">
        <ele>326.2</ele>
        <time>2024-04-28T10:07:26Z</time>
      </trkpt>
      <trkpt lat="45.84932" lon="3.13896">
        <ele>326</ele>
        <time>2024-04-28T10:07:27Z</time>
      </trkpt>
      <trkpt lat="45.84939" lon="3.13893">
        <ele>326</ele>
        <time>2024-04-28T10:07:28Z</time>
      </trkpt>
      <trkpt lat="45.84947" lon="3.13889">
        <ele>326</ele>
        <time>2024-04-28T10:07:29Z</time>
      </trkpt>
      <trkpt lat="45.84954" lon="3.13886">
        <ele>326</ele>
        <time>2024-04-28T10:07:30Z</time>
      </trkpt>
      <trkpt lat="45.84962" lon="3.13883">
        <ele>325.8</ele>
        <time>2024-04-28T10:07:31Z</time>
      </trkpt>
      <trkpt lat="45.84969" lon="3.1388">
        <ele>325.8</ele>
        <time>2024-04-28T10:07:32Z</time>
      </trkpt>
      <trkpt lat="45.84976" lon="3.13877">
        <ele>325.6</ele>
        <time>2024-04-28T10:07:33Z</time>
      </trkpt>
      <trkpt lat="45.84984" lon="3.13874">
        <ele>325.6</ele>
        <time>2024-04-28T10:07:34Z</time>
      </trkpt>
      <trkpt lat="45.84991" lon="3.13871">
        <ele>325.6</ele>
        <time>2024-04-28T10:07:35Z</time>
      </trkpt>
      <trkpt lat="45.84998" lon="3.13868">
        <ele>325.6</ele>
        <time>2024-04-28T10:07:36Z</time>
      </trkpt>
      <trkpt lat="45.85006" lon="3.13865">
        <ele>325.6</ele>
        <time>2024-04-28T10:07:37Z</time>
      </trkpt>
      <trkpt lat="45.85013" lon="3.13862">
        <ele>325.4</ele>
        <time>2024-04-28T10:07:38Z</time>
      </trkpt>
      <trkpt lat="45.8502" lon="3.13858">
        <ele>325.4</ele>
        <time>2024-04-28T10:07:39Z</time>
      </trkpt>
      <trkpt lat="45.85028" lon="3.13855">
        <ele>325.4</ele>
        <time>2024-04-28T10:07:40Z</time>
      </trkpt>
      <trkpt lat="45.85035" lon="3.13852">
        <ele>325.4</ele>
        <time>2024-04-28T10:07:41Z</time>
      </trkpt>
      <trkpt lat="45.85042" lon="3.13848">
        <ele>325.2</ele>
        <time>2024-04-28T10:07:42Z</time>
      </trkpt>
      <trkpt lat="45.85049" lon="3.13844">
        <ele>325.2</ele>
        <time>2024-04-28T10:07:43Z</time>
      </trkpt>
      <trkpt lat="45.85056" lon="3.13841">
        <ele>325.2</ele>
        <time>2024-04-28T10:07:44Z</time>
      </trkpt>
      <trkpt lat="45.85063" lon="3.13837">
        <ele>325.2</ele>
        <time>2024-04-28T10:07:45Z</time>
      </trkpt>
      <trkpt lat="45.85069" lon="3.13834">
        <ele>325.2</ele>
        <time>2024-04-28T10:07:46Z</time>
      </trkpt>
      <trkpt lat="45.85076" lon="3.1383">
        <ele>325.2</ele>
        <time>2024-04-28T10:07:47Z</time>
      </trkpt>
      <trkpt lat="45.85083" lon="3.13827">
        <ele>325.2</ele>
        <time>2024-04-28T10:07:48Z</time>
      </trkpt>
      <trkpt lat="45.8509" lon="3.13823">
        <ele>325.2</ele>
        <time>2024-04-28T10:07:49Z</time>
      </trkpt>
      <trkpt lat="45.85097" lon="3.13819">
        <ele>325.2</ele>
        <time>2024-04-28T10:07:50Z</time>
      </trkpt>
      <trkpt lat="45.85104" lon="3.13816">
        <ele>325</ele>
        <time>2024-04-28T10:07:51Z</time>
      </trkpt>
      <trkpt lat="45.8511" lon="3.13813">
        <ele>325</ele>
        <time>2024-04-28T10:07:52Z</time>
      </trkpt>
      <trkpt lat="45.85117" lon="3.13809">
        <ele>325</ele>
        <time>2024-04-28T10:07:53Z</time>
      </trkpt>
      <trkpt lat="45.85124" lon="3.13805">
        <ele>325</ele>
        <time>2024-04-28T10:07:54Z</time>
      </trkpt>
      <trkpt lat="45.85131" lon="3.13802">
        <ele>325</ele>
        <time>2024-04-28T10:07:55Z</time>
      </trkpt>
      <trkpt lat="45.85138" lon="3.13798">
        <ele>325</ele>
        <time>2024-04-28T10:07:56Z</time>
      </trkpt>
      <trkpt lat="45.85145" lon="3.13795">
        <ele>325</ele>
        <time>2024-04-28T10:07:57Z</time>
      </trkpt>
      <trkpt lat="45.85152" lon="3.13791">
        <ele>324.8</ele>
        <time>2024-04-28T10:07:58Z</time>
      </trkpt>
      <trkpt lat="45.8516" lon="3.13787">
        <ele>324.8</ele>
        <time>2024-04-28T10:07:59Z</time>
      </trkpt>
      <trkpt lat="45.85167" lon="3.13784">
        <ele>324.8</ele>
        <time>2024-04-28T10:08:00Z</time>
      </trkpt>
      <trkpt lat="45.85174" lon="3.1378">
        <ele>324.6</ele>
        <time>2024-04-28T10:08:01Z</time>
      </trkpt>
      <trkpt lat="45.85181" lon="3.13777">
        <ele>324.6</ele>
        <time>2024-04-28T10:08:02Z</time>
      </trkpt>
      <trkpt lat="45.85188" lon="3.13773">
        <ele>324.6</ele>
        <time>2024-04-28T10:08:03Z</time>
      </trkpt>
      <trkpt lat="45.85196" lon="3.1377">
        <ele>324.6</ele>
        <time>2024-04-28T10:08:04Z</time>
      </trkpt>
      <trkpt lat="45.85203" lon="3.13766">
        <ele>324.6</ele>
        <time>2024-04-28T10:08:05Z</time>
      </trkpt>
      <trkpt lat="45.85211" lon="3.13763">
        <ele>324.6</ele>
        <time>2024-04-28T10:08:06Z</time>
      </trkpt>
      <trkpt lat="45.85218" lon="3.13759">
        <ele>324.6</ele>
        <time>2024-04-28T10:08:07Z</time>
      </trkpt>
      <trkpt lat="45.85225" lon="3.13756">
        <ele>324.6</ele>
        <time>2024-04-28T10:08:08Z</time>
      </trkpt>
      <trkpt lat="45.85233" lon="3.13752">
        <ele>324.4</ele>
        <time>2024-04-28T10:08:09Z</time>
      </trkpt>
      <trkpt lat="45.8524" lon="3.13749">
        <ele>324.4</ele>
        <time>2024-04-28T10:08:10Z</time>
      </trkpt>
      <trkpt lat="45.85248" lon="3.13745">
        <ele>324.4</ele>
        <time>2024-04-28T10:08:11Z</time>
      </trkpt>
      <trkpt lat="45.85255" lon="3.13742">
        <ele>324.4</ele>
        <time>2024-04-28T10:08:12Z</time>
      </trkpt>
      <trkpt lat="45.85263" lon="3.13738">
        <ele>324.4</ele>
        <time>2024-04-28T10:08:13Z</time>
      </trkpt>
      <trkpt lat="45.8527" lon="3.13735">
        <ele>324.4</ele>
        <time>2024-04-28T10:08:14Z</time>
      </trkpt>
      <trkpt lat="45.85277" lon="3.13732">
        <ele>324.4</ele>
        <time>2024-04-28T10:08:15Z</time>
      </trkpt>
      <trkpt lat="45.85285" lon="3.1373">
        <ele>324.4</ele>
        <time>2024-04-28T10:08:16Z</time>
      </trkpt>
      <trkpt lat="45.85293" lon="3.13728">
        <ele>324.4</ele>
        <time>2024-04-28T10:08:17Z</time>
      </trkpt>
      <trkpt lat="45.853" lon="3.13726">
        <ele>324.4</ele>
        <time>2024-04-28T10:08:18Z</time>
      </trkpt>
      <trkpt lat="45.85308" lon="3.13724">
        <ele>324.4</ele>
        <time>2024-04-28T10:08:19Z</time>
      </trkpt>
      <trkpt lat="45.85315" lon="3.13722">
        <ele>324.4</ele>
        <time>2024-04-28T10:08:20Z</time>
      </trkpt>
      <trkpt lat="45.85323" lon="3.13719">
        <ele>324.4</ele>
        <time>2024-04-28T10:08:21Z</time>
      </trkpt>
      <trkpt lat="45.85331" lon="3.13717">
        <ele>324.2</ele>
        <time>2024-04-28T10:08:22Z</time>
      </trkpt>
      <trkpt lat="45.85338" lon="3.13715">
        <ele>324.2</ele>
        <time>2024-04-28T10:08:23Z</time>
      </trkpt>
      <trkpt lat="45.85346" lon="3.13713">
        <ele>324.2</ele>
        <time>2024-04-28T10:08:24Z</time>
      </trkpt>
      <trkpt lat="45.85353" lon="3.13711">
        <ele>324.2</ele>
        <time>2024-04-28T10:08:25Z</time>
      </trkpt>
      <trkpt lat="45.85361" lon="3.13709">
        <ele>324.2</ele>
        <time>2024-04-28T10:08:26Z</time>
      </trkpt>
      <trkpt lat="45.85368" lon="3.13707">
        <ele>324.2</ele>
        <time>2024-04-28T10:08:27Z</time>
      </trkpt>
      <trkpt lat="45.85376" lon="3.13705">
        <ele>324.2</ele>
        <time>2024-04-28T10:08:28Z</time>
      </trkpt>
      <trkpt lat="45.85384" lon="3.13703">
        <ele>324.2</ele>
        <time>2024-04-28T10:08:29Z</time>
      </trkpt>
      <trkpt lat="45.85392" lon="3.13701">
        <ele>324.2</ele>
        <time>2024-04-28T10:08:30Z</time>
      </trkpt>
      <trkpt lat="45.854" lon="3.13698">
        <ele>324.2</ele>
        <time>2024-04-28T10:08:31Z</time>
      </trkpt>
      <trkpt lat="45.85407" lon="3.13696">
        <ele>324.2</ele>
        <time>2024-04-28T10:08:32Z</time>
      </trkpt>
      <trkpt lat="45.85415" lon="3.13694">
        <ele>324.2</ele>
        <time>2024-04-28T10:08:33Z</time>
      </trkpt>
      <trkpt lat="45.85423" lon="3.13692">
        <ele>324.2</ele>
        <time>2024-04-28T10:08:34Z</time>
      </trkpt>
      <trkpt lat="45.8543" lon="3.1369">
        <ele>324.2</ele>
        <time>2024-04-28T10:08:35Z</time>
      </trkpt>
      <trkpt lat="45.85438" lon="3.13688">
        <ele>324.2</ele>
        <time>2024-04-28T10:08:36Z</time>
      </trkpt>
      <trkpt lat="45.85446" lon="3.13686">
        <ele>324.2</ele>
        <time>2024-04-28T10:08:37Z</time>
      </trkpt>
      <trkpt lat="45.85453" lon="3.13684">
        <ele>324.2</ele>
        <time>2024-04-28T10:08:38Z</time>
      </trkpt>
      <trkpt lat="45.85461" lon="3.13682">
        <ele>324</ele>
        <time>2024-04-28T10:08:39Z</time>
      </trkpt>
      <trkpt lat="45.85469" lon="3.1368">
        <ele>324</ele>
        <time>2024-04-28T10:08:40Z</time>
      </trkpt>
      <trkpt lat="45.85476" lon="3.13677">
        <ele>324.2</ele>
        <time>2024-04-28T10:08:41Z</time>
      </trkpt>
      <trkpt lat="45.85484" lon="3.13675">
        <ele>324.2</ele>
        <time>2024-04-28T10:08:42Z</time>
      </trkpt>
      <trkpt lat="45.85491" lon="3.13673">
        <ele>324.2</ele>
        <time>2024-04-28T10:08:43Z</time>
      </trkpt>
      <trkpt lat="45.85499" lon="3.13671">
        <ele>324.2</ele>
        <time>2024-04-28T10:08:44Z</time>
      </trkpt>
      <trkpt lat="45.85506" lon="3.13669">
        <ele>324.2</ele>
        <time>2024-04-28T10:08:45Z</time>
      </trkpt>
      <trkpt lat="45.85514" lon="3.13667">
        <ele>324.2</ele>
        <time>2024-04-28T10:08:46Z</time>
      </trkpt>
      <trkpt lat="45.85521" lon="3.13665">
        <ele>324</ele>
        <time>2024-04-28T10:08:47Z</time>
      </trkpt>
      <trkpt lat="45.85529" lon="3.13662">
        <ele>324.2</ele>
        <time>2024-04-28T10:08:48Z</time>
      </trkpt>
      <trkpt lat="45.85536" lon="3.13659">
        <ele>324.2</ele>
        <time>2024-04-28T10:08:49Z</time>
      </trkpt>
      <trkpt lat="45.85544" lon="3.13657">
        <ele>324.2</ele>
        <time>2024-04-28T10:08:50Z</time>
      </trkpt>
      <trkpt lat="45.85551" lon="3.13654">
        <ele>324.2</ele>
        <time>2024-04-28T10:08:51Z</time>
      </trkpt>
      <trkpt lat="45.85559" lon="3.13651">
        <ele>324.2</ele>
        <time>2024-04-28T10:08:52Z</time>
      </trkpt>
      <trkpt lat="45.85566" lon="3.13649">
        <ele>324.4</ele>
        <time>2024-04-28T10:08:53Z</time>
      </trkpt>
      <trkpt lat="45.85573" lon="3.13646">
        <ele>324.2</ele>
        <time>2024-04-28T10:08:54Z</time>
      </trkpt>
      <trkpt lat="45.85581" lon="3.13643">
        <ele>324.2</ele>
        <time>2024-04-28T10:08:55Z</time>
      </trkpt>
      <trkpt lat="45.85588" lon="3.13641">
        <ele>324.2</ele>
        <time>2024-04-28T10:08:56Z</time>
      </trkpt>
      <trkpt lat="45.85596" lon="3.13638">
        <ele>324.2</ele>
        <time>2024-04-28T10:08:57Z</time>
      </trkpt>
      <trkpt lat="45.85603" lon="3.13635">
        <ele>324.2</ele>
        <time>2024-04-28T10:08:58Z</time>
      </trkpt>
      <trkpt lat="45.85611" lon="3.13633">
        <ele>324.2</ele>
        <time>2024-04-28T10:08:59Z</time>
      </trkpt>
      <trkpt lat="45.85618" lon="3.1363">
        <ele>324.2</ele>
        <time>2024-04-28T10:09:00Z</time>
      </trkpt>
      <trkpt lat="45.85625" lon="3.13627">
        <ele>324.2</ele>
        <time>2024-04-28T10:09:01Z</time>
      </trkpt>
      <trkpt lat="45.85633" lon="3.13625">
        <ele>324.2</ele>
        <time>2024-04-28T10:09:02Z</time>
      </trkpt>
      <trkpt lat="45.8564" lon="3.13622">
        <ele>324.2</ele>
        <time>2024-04-28T10:09:03Z</time>
      </trkpt>
      <trkpt lat="45.85648" lon="3.13619">
        <ele>324.2</ele>
        <time>2024-04-28T10:09:04Z</time>
      </trkpt>
      <trkpt lat="45.85655" lon="3.13617">
        <ele>324.2</ele>
        <time>2024-04-28T10:09:05Z</time>
      </trkpt>
      <trkpt lat="45.85663" lon="3.13614">
        <ele>324.2</ele>
        <time>2024-04-28T10:09:06Z</time>
      </trkpt>
      <trkpt lat="45.8567" lon="3.13611">
        <ele>324.2</ele>
        <time>2024-04-28T10:09:07Z</time>
      </trkpt>
      <trkpt lat="45.85678" lon="3.13609">
        <ele>324.2</ele>
        <time>2024-04-28T10:09:08Z</time>
      </trkpt>
      <trkpt lat="45.85685" lon="3.13606">
        <ele>324.2</ele>
        <time>2024-04-28T10:09:09Z</time>
      </trkpt>
      <trkpt lat="45.85693" lon="3.13603">
        <ele>324.2</ele>
        <time>2024-04-28T10:09:10Z</time>
      </trkpt>
      <trkpt lat="45.857" lon="3.136">
        <ele>324.2</ele>
        <time>2024-04-28T10:09:11Z</time>
      </trkpt>
      <trkpt lat="45.85708" lon="3.13598">
        <ele>324.2</ele>
        <time>2024-04-28T10:09:12Z</time>
      </trkpt>
      <trkpt lat="45.85715" lon="3.13595">
        <ele>324.2</ele>
        <time>2024-04-28T10:09:13Z</time>
      </trkpt>
      <trkpt lat="45.85723" lon="3.13592">
        <ele>324.2</ele>
        <time>2024-04-28T10:09:14Z</time>
      </trkpt>
      <trkpt lat="45.8573" lon="3.1359">
        <ele>324.2</ele>
        <time>2024-04-28T10:09:15Z</time>
      </trkpt>
      <trkpt lat="45.85738" lon="3.13587">
        <ele>324.4</ele>
        <time>2024-04-28T10:09:16Z</time>
      </trkpt>
      <trkpt lat="45.85746" lon="3.13585">
        <ele>324.2</ele>
        <time>2024-04-28T10:09:17Z</time>
      </trkpt>
      <trkpt lat="45.85753" lon="3.13582">
        <ele>324.2</ele>
        <time>2024-04-28T10:09:18Z</time>
      </trkpt>
      <trkpt lat="45.85761" lon="3.1358">
        <ele>324.2</ele>
        <time>2024-04-28T10:09:19Z</time>
      </trkpt>
      <trkpt lat="45.85769" lon="3.13578">
        <ele>324.2</ele>
        <time>2024-04-28T10:09:20Z</time>
      </trkpt>
      <trkpt lat="45.85776" lon="3.13575">
        <ele>324.2</ele>
        <time>2024-04-28T10:09:21Z</time>
      </trkpt>
      <trkpt lat="45.85784" lon="3.13573">
        <ele>324.2</ele>
        <time>2024-04-28T10:09:22Z</time>
      </trkpt>
      <trkpt lat="45.85792" lon="3.13571">
        <ele>324.2</ele>
        <time>2024-04-28T10:09:23Z</time>
      </trkpt>
      <trkpt lat="45.85799" lon="3.13569">
        <ele>324.2</ele>
        <time>2024-04-28T10:09:24Z</time>
      </trkpt>
      <trkpt lat="45.85807" lon="3.13566">
        <ele>324.4</ele>
        <time>2024-04-28T10:09:25Z</time>
      </trkpt>
      <trkpt lat="45.85815" lon="3.13564">
        <ele>324.2</ele>
        <time>2024-04-28T10:09:26Z</time>
      </trkpt>
      <trkpt lat="45.85823" lon="3.13561">
        <ele>324.2</ele>
        <time>2024-04-28T10:09:27Z</time>
      </trkpt>
      <trkpt lat="45.8583" lon="3.13558">
        <ele>324.4</ele>
        <time>2024-04-28T10:09:28Z</time>
      </trkpt>
      <trkpt lat="45.85838" lon="3.13555">
        <ele>324.4</ele>
        <time>2024-04-28T10:09:29Z</time>
      </trkpt>
      <trkpt lat="45.85845" lon="3.13552">
        <ele>324.4</ele>
        <time>2024-04-28T10:09:30Z</time>
      </trkpt>
      <trkpt lat="45.85853" lon="3.13549">
        <ele>324.4</ele>
        <time>2024-04-28T10:09:31Z</time>
      </trkpt>
      <trkpt lat="45.8586" lon="3.13545">
        <ele>324.2</ele>
        <time>2024-04-28T10:09:32Z</time>
      </trkpt>
      <trkpt lat="45.85868" lon="3.13542">
        <ele>324.4</ele>
        <time>2024-04-28T10:09:33Z</time>
      </trkpt>
      <trkpt lat="45.85875" lon="3.13539">
        <ele>324.4</ele>
        <time>2024-04-28T10:09:34Z</time>
      </trkpt>
      <trkpt lat="45.85882" lon="3.13536">
        <ele>324.4</ele>
        <time>2024-04-28T10:09:35Z</time>
      </trkpt>
      <trkpt lat="45.8589" lon="3.13533">
        <ele>324.2</ele>
        <time>2024-04-28T10:09:36Z</time>
      </trkpt>
      <trkpt lat="45.85897" lon="3.1353">
        <ele>324.2</ele>
        <time>2024-04-28T10:09:37Z</time>
      </trkpt>
      <trkpt lat="45.85905" lon="3.13527">
        <ele>324.2</ele>
        <time>2024-04-28T10:09:38Z</time>
      </trkpt>
      <trkpt lat="45.85912" lon="3.13524">
        <ele>324.2</ele>
        <time>2024-04-28T10:09:39Z</time>
      </trkpt>
      <trkpt lat="45.8592" lon="3.1352">
        <ele>324.2</ele>
        <time>2024-04-28T10:09:40Z</time>
      </trkpt>
      <trkpt lat="45.85927" lon="3.13517">
        <ele>324.2</ele>
        <time>2024-04-28T10:09:41Z</time>
      </trkpt>
      <trkpt lat="45.85935" lon="3.13514">
        <ele>324.2</ele>
        <time>2024-04-28T10:09:42Z</time>
      </trkpt>
      <trkpt lat="45.85943" lon="3.13511">
        <ele>324.2</ele>
        <time>2024-04-28T10:09:43Z</time>
      </trkpt>
      <trkpt lat="45.85951" lon="3.13509">
        <ele>324.2</ele>
        <time>2024-04-28T10:09:44Z</time>
      </trkpt>
      <trkpt lat="45.85958" lon="3.13506">
        <ele>324.2</ele>
        <time>2024-04-28T10:09:45Z</time>
      </trkpt>
      <trkpt lat="45.85966" lon="3.13503">
        <ele>324.2</ele>
        <time>2024-04-28T10:09:46Z</time>
      </trkpt>
      <trkpt lat="45.85974" lon="3.13501">
        <ele>324.2</ele>
        <time>2024-04-28T10:09:47Z</time>
      </trkpt>
      <trkpt lat="45.85981" lon="3.13498">
        <ele>324.2</ele>
        <time>2024-04-28T10:09:48Z</time>
      </trkpt>
      <trkpt lat="45.85989" lon="3.13495">
        <ele>324.4</ele>
        <time>2024-04-28T10:09:49Z</time>
      </trkpt>
      <trkpt lat="45.85997" lon="3.13493">
        <ele>324.4</ele>
        <time>2024-04-28T10:09:50Z</time>
      </trkpt>
      <trkpt lat="45.86004" lon="3.1349">
        <ele>324.4</ele>
        <time>2024-04-28T10:09:51Z</time>
      </trkpt>
      <trkpt lat="45.86012" lon="3.13487">
        <ele>324.4</ele>
        <time>2024-04-28T10:09:52Z</time>
      </trkpt>
      <trkpt lat="45.8602" lon="3.13485">
        <ele>324.2</ele>
        <time>2024-04-28T10:09:53Z</time>
      </trkpt>
      <trkpt lat="45.86027" lon="3.13482">
        <ele>324.2</ele>
        <time>2024-04-28T10:09:54Z</time>
      </trkpt>
      <trkpt lat="45.86034" lon="3.1348">
        <ele>324.2</ele>
        <time>2024-04-28T10:09:55Z</time>
      </trkpt>
      <trkpt lat="45.86042" lon="3.13477">
        <ele>324.2</ele>
        <time>2024-04-28T10:09:56Z</time>
      </trkpt>
      <trkpt lat="45.86049" lon="3.13475">
        <ele>324.4</ele>
        <time>2024-04-28T10:09:57Z</time>
      </trkpt>
      <trkpt lat="45.86056" lon="3.13472">
        <ele>324.4</ele>
        <time>2024-04-28T10:09:58Z</time>
      </trkpt>
      <trkpt lat="45.86064" lon="3.1347">
        <ele>324.4</ele>
        <time>2024-04-28T10:09:59Z</time>
      </trkpt>
      <trkpt lat="45.86071" lon="3.13467">
        <ele>324.4</ele>
        <time>2024-04-28T10:10:00Z</time>
      </trkpt>
      <trkpt lat="45.86079" lon="3.13465">
        <ele>324.4</ele>
        <time>2024-04-28T10:10:01Z</time>
      </trkpt>
      <trkpt lat="45.86086" lon="3.13462">
        <ele>324.4</ele>
        <time>2024-04-28T10:10:02Z</time>
      </trkpt>
      <trkpt lat="45.86093" lon="3.13461">
        <ele>324.4</ele>
        <time>2024-04-28T10:10:03Z</time>
      </trkpt>
      <trkpt lat="45.861" lon="3.1346">
        <ele>324.4</ele>
        <time>2024-04-28T10:10:04Z</time>
      </trkpt>
      <trkpt lat="45.86108" lon="3.13459">
        <ele>324.4</ele>
        <time>2024-04-28T10:10:05Z</time>
      </trkpt>
      <trkpt lat="45.86115" lon="3.13458">
        <ele>324.4</ele>
        <time>2024-04-28T10:10:06Z</time>
      </trkpt>
      <trkpt lat="45.86122" lon="3.13457">
        <ele>324.4</ele>
        <time>2024-04-28T10:10:07Z</time>
      </trkpt>
      <trkpt lat="45.8613" lon="3.13456">
        <ele>324.4</ele>
        <time>2024-04-28T10:10:08Z</time>
      </trkpt>
      <trkpt lat="45.86137" lon="3.13455">
        <ele>324.4</ele>
        <time>2024-04-28T10:10:09Z</time>
      </trkpt>
      <trkpt lat="45.86144" lon="3.13453">
        <ele>324.4</ele>
        <time>2024-04-28T10:10:10Z</time>
      </trkpt>
      <trkpt lat="45.86151" lon="3.13452">
        <ele>324.4</ele>
        <time>2024-04-28T10:10:11Z</time>
      </trkpt>
      <trkpt lat="45.86159" lon="3.13451">
        <ele>324.4</ele>
        <time>2024-04-28T10:10:12Z</time>
      </trkpt>
      <trkpt lat="45.86166" lon="3.1345">
        <ele>324.4</ele>
        <time>2024-04-28T10:10:13Z</time>
      </trkpt>
      <trkpt lat="45.86173" lon="3.13449">
        <ele>324.4</ele>
        <time>2024-04-28T10:10:14Z</time>
      </trkpt>
      <trkpt lat="45.8618" lon="3.13448">
        <ele>324.4</ele>
        <time>2024-04-28T10:10:15Z</time>
      </trkpt>
      <trkpt lat="45.86188" lon="3.13447">
        <ele>324.4</ele>
        <time>2024-04-28T10:10:16Z</time>
      </trkpt>
      <trkpt lat="45.86194" lon="3.13446">
        <ele>324.4</ele>
        <time>2024-04-28T10:10:17Z</time>
      </trkpt>
      <trkpt lat="45.86202" lon="3.13445">
        <ele>324.4</ele>
        <time>2024-04-28T10:10:18Z</time>
      </trkpt>
      <trkpt lat="45.86209" lon="3.13444">
        <ele>324.4</ele>
        <time>2024-04-28T10:10:19Z</time>
      </trkpt>
      <trkpt lat="45.86216" lon="3.13443">
        <ele>324.4</ele>
        <time>2024-04-28T10:10:20Z</time>
      </trkpt>
      <trkpt lat="45.86223" lon="3.13442">
        <ele>324.4</ele>
        <time>2024-04-28T10:10:21Z</time>
      </trkpt>
      <trkpt lat="45.8623" lon="3.1344">
        <ele>324.4</ele>
        <time>2024-04-28T10:10:22Z</time>
      </trkpt>
      <trkpt lat="45.86237" lon="3.13439">
        <ele>324.6</ele>
        <time>2024-04-28T10:10:23Z</time>
      </trkpt>
      <trkpt lat="45.86244" lon="3.13438">
        <ele>324.6</ele>
        <time>2024-04-28T10:10:24Z</time>
      </trkpt>
      <trkpt lat="45.86251" lon="3.13437">
        <ele>324.6</ele>
        <time>2024-04-28T10:10:25Z</time>
      </trkpt>
      <trkpt lat="45.86258" lon="3.13436">
        <ele>324.6</ele>
        <time>2024-04-28T10:10:26Z</time>
      </trkpt>
      <trkpt lat="45.86265" lon="3.13435">
        <ele>324.6</ele>
        <time>2024-04-28T10:10:27Z</time>
      </trkpt>
      <trkpt lat="45.86272" lon="3.13434">
        <ele>324.6</ele>
        <time>2024-04-28T10:10:28Z</time>
      </trkpt>
      <trkpt lat="45.86278" lon="3.13433">
        <ele>324.8</ele>
        <time>2024-04-28T10:10:29Z</time>
      </trkpt>
      <trkpt lat="45.86285" lon="3.13432">
        <ele>324.8</ele>
        <time>2024-04-28T10:10:30Z</time>
      </trkpt>
      <trkpt lat="45.86292" lon="3.13431">
        <ele>324.8</ele>
        <time>2024-04-28T10:10:31Z</time>
      </trkpt>
      <trkpt lat="45.86299" lon="3.1343">
        <ele>324.8</ele>
        <time>2024-04-28T10:10:32Z</time>
      </trkpt>
      <trkpt lat="45.86306" lon="3.13429">
        <ele>324.8</ele>
        <time>2024-04-28T10:10:33Z</time>
      </trkpt>
      <trkpt lat="45.86313" lon="3.13428">
        <ele>324.8</ele>
        <time>2024-04-28T10:10:34Z</time>
      </trkpt>
      <trkpt lat="45.8632" lon="3.13427">
        <ele>324.8</ele>
        <time>2024-04-28T10:10:35Z</time>
      </trkpt>
      <trkpt lat="45.86326" lon="3.13426">
        <ele>324.8</ele>
        <time>2024-04-28T10:10:36Z</time>
      </trkpt>
      <trkpt lat="45.86333" lon="3.13425">
        <ele>325</ele>
        <time>2024-04-28T10:10:37Z</time>
      </trkpt>
      <trkpt lat="45.8634" lon="3.13424">
        <ele>325</ele>
        <time>2024-04-28T10:10:38Z</time>
      </trkpt>
      <trkpt lat="45.86346" lon="3.13423">
        <ele>325</ele>
        <time>2024-04-28T10:10:39Z</time>
      </trkpt>
      <trkpt lat="45.86353" lon="3.13422">
        <ele>325</ele>
        <time>2024-04-28T10:10:40Z</time>
      </trkpt>
      <trkpt lat="45.86359" lon="3.13421">
        <ele>325.2</ele>
        <time>2024-04-28T10:10:41Z</time>
      </trkpt>
      <trkpt lat="45.86366" lon="3.1342">
        <ele>325.2</ele>
        <time>2024-04-28T10:10:42Z</time>
      </trkpt>
      <trkpt lat="45.86373" lon="3.13419">
        <ele>325.2</ele>
        <time>2024-04-28T10:10:43Z</time>
      </trkpt>
      <trkpt lat="45.8638" lon="3.13418">
        <ele>325.2</ele>
        <time>2024-04-28T10:10:44Z</time>
      </trkpt>
      <trkpt lat="45.86386" lon="3.13417">
        <ele>325.2</ele>
        <time>2024-04-28T10:10:45Z</time>
      </trkpt>
      <trkpt lat="45.86393" lon="3.13416">
        <ele>325.2</ele>
        <time>2024-04-28T10:10:46Z</time>
      </trkpt>
      <trkpt lat="45.864" lon="3.13415">
        <ele>325.2</ele>
        <time>2024-04-28T10:10:47Z</time>
      </trkpt>
      <trkpt lat="45.86407" lon="3.13414">
        <ele>325.2</ele>
        <time>2024-04-28T10:10:48Z</time>
      </trkpt>
      <trkpt lat="45.86414" lon="3.13413">
        <ele>325.2</ele>
        <time>2024-04-28T10:10:49Z</time>
      </trkpt>
      <trkpt lat="45.86421" lon="3.13412">
        <ele>325.2</ele>
        <time>2024-04-28T10:10:50Z</time>
      </trkpt>
      <trkpt lat="45.86428" lon="3.13411">
        <ele>325.2</ele>
        <time>2024-04-28T10:10:51Z</time>
      </trkpt>
      <trkpt lat="45.86434" lon="3.13409">
        <ele>325.2</ele>
        <time>2024-04-28T10:10:52Z</time>
      </trkpt>
      <trkpt lat="45.86441" lon="3.13408">
        <ele>325.2</ele>
        <time>2024-04-28T10:10:53Z</time>
      </trkpt>
      <trkpt lat="45.86448" lon="3.13407">
        <ele>325.2</ele>
        <time>2024-04-28T10:10:54Z</time>
      </trkpt>
      <trkpt lat="45.86455" lon="3.13406">
        <ele>325.2</ele>
        <time>2024-04-28T10:10:55Z</time>
      </trkpt>
      <trkpt lat="45.86462" lon="3.13405">
        <ele>325.2</ele>
        <time>2024-04-28T10:10:56Z</time>
      </trkpt>
      <trkpt lat="45.86469" lon="3.13404">
        <ele>325.4</ele>
        <time>2024-04-28T10:10:57Z</time>
      </trkpt>
      <trkpt lat="45.86476" lon="3.13403">
        <ele>325.4</ele>
        <time>2024-04-28T10:10:58Z</time>
      </trkpt>
      <trkpt lat="45.86483" lon="3.13402">
        <ele>325.4</ele>
        <time>2024-04-28T10:10:59Z</time>
      </trkpt>
      <trkpt lat="45.8649" lon="3.13401">
        <ele>325.4</ele>
        <time>2024-04-28T10:11:00Z</time>
      </trkpt>
      <trkpt lat="45.86497" lon="3.134">
        <ele>325.4</ele>
        <time>2024-04-28T10:11:01Z</time>
      </trkpt>
      <trkpt lat="45.86504" lon="3.13399">
        <ele>325.4</ele>
        <time>2024-04-28T10:11:02Z</time>
      </trkpt>
      <trkpt lat="45.86511" lon="3.13398">
        <ele>325.4</ele>
        <time>2024-04-28T10:11:03Z</time>
      </trkpt>
      <trkpt lat="45.86518" lon="3.13397">
        <ele>325.6</ele>
        <time>2024-04-28T10:11:04Z</time>
      </trkpt>
      <trkpt lat="45.86525" lon="3.13396">
        <ele>325.6</ele>
        <time>2024-04-28T10:11:05Z</time>
      </trkpt>
      <trkpt lat="45.86532" lon="3.13395">
        <ele>325.6</ele>
        <time>2024-04-28T10:11:06Z</time>
      </trkpt>
      <trkpt lat="45.86539" lon="3.13394">
        <ele>325.6</ele>
        <time>2024-04-28T10:11:07Z</time>
      </trkpt>
      <trkpt lat="45.86546" lon="3.13393">
        <ele>325.6</ele>
        <time>2024-04-28T10:11:08Z</time>
      </trkpt>
      <trkpt lat="45.86553" lon="3.13392">
        <ele>325.6</ele>
        <time>2024-04-28T10:11:09Z</time>
      </trkpt>
      <trkpt lat="45.8656" lon="3.13391">
        <ele>325.6</ele>
        <time>2024-04-28T10:11:10Z</time>
      </trkpt>
      <trkpt lat="45.86566" lon="3.13389">
        <ele>325.6</ele>
        <time>2024-04-28T10:11:11Z</time>
      </trkpt>
      <trkpt lat="45.86574" lon="3.13388">
        <ele>325.6</ele>
        <time>2024-04-28T10:11:12Z</time>
      </trkpt>
      <trkpt lat="45.86581" lon="3.13387">
        <ele>325.6</ele>
        <time>2024-04-28T10:11:13Z</time>
      </trkpt>
      <trkpt lat="45.86587" lon="3.13387">
        <ele>325.6</ele>
        <time>2024-04-28T10:11:14Z</time>
      </trkpt>
      <trkpt lat="45.86595" lon="3.13387">
        <ele>325.6</ele>
        <time>2024-04-28T10:11:15Z</time>
      </trkpt>
      <trkpt lat="45.86602" lon="3.13387">
        <ele>325.8</ele>
        <time>2024-04-28T10:11:16Z</time>
      </trkpt>
      <trkpt lat="45.86609" lon="3.13386">
        <ele>325.8</ele>
        <time>2024-04-28T10:11:17Z</time>
      </trkpt>
      <trkpt lat="45.86616" lon="3.13386">
        <ele>325.8</ele>
        <time>2024-04-28T10:11:18Z</time>
      </trkpt>
      <trkpt lat="45.86623" lon="3.13386">
        <ele>325.8</ele>
        <time>2024-04-28T10:11:19Z</time>
      </trkpt>
      <trkpt lat="45.8663" lon="3.13386">
        <ele>326</ele>
        <time>2024-04-28T10:11:20Z</time>
      </trkpt>
      <trkpt lat="45.86637" lon="3.13386">
        <ele>326</ele>
        <time>2024-04-28T10:11:21Z</time>
      </trkpt>
      <trkpt lat="45.86645" lon="3.13385">
        <ele>326</ele>
        <time>2024-04-28T10:11:22Z</time>
      </trkpt>
      <trkpt lat="45.86652" lon="3.13385">
        <ele>326</ele>
        <time>2024-04-28T10:11:23Z</time>
      </trkpt>
      <trkpt lat="45.8666" lon="3.13385">
        <ele>326</ele>
        <time>2024-04-28T10:11:24Z</time>
      </trkpt>
      <trkpt lat="45.86667" lon="3.13387">
        <ele>326</ele>
        <time>2024-04-28T10:11:25Z</time>
      </trkpt>
      <trkpt lat="45.86674" lon="3.13389">
        <ele>326</ele>
        <time>2024-04-28T10:11:26Z</time>
      </trkpt>
      <trkpt lat="45.86682" lon="3.13391">
        <ele>326</ele>
        <time>2024-04-28T10:11:27Z</time>
      </trkpt>
      <trkpt lat="45.86689" lon="3.13394">
        <ele>326</ele>
        <time>2024-04-28T10:11:28Z</time>
      </trkpt>
      <trkpt lat="45.86696" lon="3.13396">
        <ele>326</ele>
        <time>2024-04-28T10:11:29Z</time>
      </trkpt>
      <trkpt lat="45.86703" lon="3.13398">
        <ele>326</ele>
        <time>2024-04-28T10:11:30Z</time>
      </trkpt>
      <trkpt lat="45.8671" lon="3.134">
        <ele>326</ele>
        <time>2024-04-28T10:11:31Z</time>
      </trkpt>
      <trkpt lat="45.86717" lon="3.13402">
        <ele>326</ele>
        <time>2024-04-28T10:11:32Z</time>
      </trkpt>
      <trkpt lat="45.86724" lon="3.13405">
        <ele>326</ele>
        <time>2024-04-28T10:11:33Z</time>
      </trkpt>
      <trkpt lat="45.86731" lon="3.13409">
        <ele>326</ele>
        <time>2024-04-28T10:11:34Z</time>
      </trkpt>
      <trkpt lat="45.86738" lon="3.13413">
        <ele>326</ele>
        <time>2024-04-28T10:11:35Z</time>
      </trkpt>
      <trkpt lat="45.86745" lon="3.13417">
        <ele>326</ele>
        <time>2024-04-28T10:11:36Z</time>
      </trkpt>
      <trkpt lat="45.86751" lon="3.1342">
        <ele>326</ele>
        <time>2024-04-28T10:11:37Z</time>
      </trkpt>
      <trkpt lat="45.86757" lon="3.13426">
        <ele>326</ele>
        <time>2024-04-28T10:11:38Z</time>
      </trkpt>
      <trkpt lat="45.86763" lon="3.13431">
        <ele>326</ele>
        <time>2024-04-28T10:11:39Z</time>
      </trkpt>
      <trkpt lat="45.86769" lon="3.13437">
        <ele>326</ele>
        <time>2024-04-28T10:11:40Z</time>
      </trkpt>
      <trkpt lat="45.86775" lon="3.13443">
        <ele>326</ele>
        <time>2024-04-28T10:11:41Z</time>
      </trkpt>
      <trkpt lat="45.86779" lon="3.1345">
        <ele>326</ele>
        <time>2024-04-28T10:11:42Z</time>
      </trkpt>
      <trkpt lat="45.86783" lon="3.13458">
        <ele>326</ele>
        <time>2024-04-28T10:11:43Z</time>
      </trkpt>
      <trkpt lat="45.86787" lon="3.13466">
        <ele>326</ele>
        <time>2024-04-28T10:11:44Z</time>
      </trkpt>
      <trkpt lat="45.8679" lon="3.13474">
        <ele>326</ele>
        <time>2024-04-28T10:11:45Z</time>
      </trkpt>
      <trkpt lat="45.86797" lon="3.13485">
        <ele>326</ele>
        <time>2024-04-28T10:11:46Z</time>
      </trkpt>
      <trkpt lat="45.86803" lon="3.13488">
        <ele>326</ele>
        <time>2024-04-28T10:11:47Z</time>
      </trkpt>
      <trkpt lat="45.86812" lon="3.13488">
        <ele>326.2</ele>
        <time>2024-04-28T10:11:48Z</time>
      </trkpt>
      <trkpt lat="45.86819" lon="3.13484">
        <ele>326.2</ele>
        <time>2024-04-28T10:11:49Z</time>
      </trkpt>
      <trkpt lat="45.86824" lon="3.13476">
        <ele>326.2</ele>
        <time>2024-04-28T10:11:50Z</time>
      </trkpt>
      <trkpt lat="45.8683" lon="3.1347">
        <ele>326.2</ele>
        <time>2024-04-28T10:11:51Z</time>
      </trkpt>
      <trkpt lat="45.86836" lon="3.13464">
        <ele>326.2</ele>
        <time>2024-04-28T10:11:52Z</time>
      </trkpt>
      <trkpt lat="45.86842" lon="3.13458">
        <ele>326.2</ele>
        <time>2024-04-28T10:11:53Z</time>
      </trkpt>
      <trkpt lat="45.86848" lon="3.13451">
        <ele>326.2</ele>
        <time>2024-04-28T10:11:54Z</time>
      </trkpt>
      <trkpt lat="45.86854" lon="3.13445">
        <ele>326.2</ele>
        <time>2024-04-28T10:11:55Z</time>
      </trkpt>
      <trkpt lat="45.86859" lon="3.13438">
        <ele>326.2</ele>
        <time>2024-04-28T10:11:56Z</time>
      </trkpt>
      <trkpt lat="45.86865" lon="3.13431">
        <ele>326.2</ele>
        <time>2024-04-28T10:11:57Z</time>
      </trkpt>
      <trkpt lat="45.86871" lon="3.13424">
        <ele>326.2</ele>
        <time>2024-04-28T10:11:58Z</time>
      </trkpt>
      <trkpt lat="45.86876" lon="3.13417">
        <ele>326</ele>
        <time>2024-04-28T10:11:59Z</time>
      </trkpt>
      <trkpt lat="45.8688" lon="3.13409">
        <ele>326.2</ele>
        <time>2024-04-28T10:12:00Z</time>
      </trkpt>
      <trkpt lat="45.86883" lon="3.134">
        <ele>326.2</ele>
        <time>2024-04-28T10:12:01Z</time>
      </trkpt>
      <trkpt lat="45.86887" lon="3.13391">
        <ele>326.2</ele>
        <time>2024-04-28T10:12:02Z</time>
      </trkpt>
      <trkpt lat="45.8689" lon="3.13381">
        <ele>326.2</ele>
        <time>2024-04-28T10:12:03Z</time>
      </trkpt>
      <trkpt lat="45.86894" lon="3.13372">
        <ele>326.2</ele>
        <time>2024-04-28T10:12:04Z</time>
      </trkpt>
      <trkpt lat="45.86897" lon="3.13362">
        <ele>326.2</ele>
        <time>2024-04-28T10:12:05Z</time>
      </trkpt>
      <trkpt lat="45.86901" lon="3.13353">
        <ele>326.2</ele>
        <time>2024-04-28T10:12:06Z</time>
      </trkpt>
      <trkpt lat="45.86907" lon="3.13348">
        <ele>326.2</ele>
        <time>2024-04-28T10:12:07Z</time>
      </trkpt>
      <trkpt lat="45.86915" lon="3.13344">
        <ele>326.2</ele>
        <time>2024-04-28T10:12:08Z</time>
      </trkpt>
      <trkpt lat="45.86922" lon="3.1334">
        <ele>326.2</ele>
        <time>2024-04-28T10:12:09Z</time>
      </trkpt>
      <trkpt lat="45.86929" lon="3.13338">
        <ele>326.2</ele>
        <time>2024-04-28T10:12:10Z</time>
      </trkpt>
      <trkpt lat="45.86936" lon="3.13337">
        <ele>326.4</ele>
        <time>2024-04-28T10:12:11Z</time>
      </trkpt>
      <trkpt lat="45.86943" lon="3.13336">
        <ele>326.4</ele>
        <time>2024-04-28T10:12:12Z</time>
      </trkpt>
      <trkpt lat="45.8695" lon="3.13335">
        <ele>326.4</ele>
        <time>2024-04-28T10:12:13Z</time>
      </trkpt>
      <trkpt lat="45.86957" lon="3.13334">
        <ele>326.6</ele>
        <time>2024-04-28T10:12:14Z</time>
      </trkpt>
      <trkpt lat="45.86964" lon="3.13333">
        <ele>326.6</ele>
        <time>2024-04-28T10:12:15Z</time>
      </trkpt>
      <trkpt lat="45.86971" lon="3.13332">
        <ele>326.6</ele>
        <time>2024-04-28T10:12:16Z</time>
      </trkpt>
      <trkpt lat="45.86978" lon="3.13332">
        <ele>326.8</ele>
        <time>2024-04-28T10:12:17Z</time>
      </trkpt>
      <trkpt lat="45.86985" lon="3.13331">
        <ele>326.8</ele>
        <time>2024-04-28T10:12:18Z</time>
      </trkpt>
      <trkpt lat="45.86992" lon="3.1333">
        <ele>326.8</ele>
        <time>2024-04-28T10:12:19Z</time>
      </trkpt>
      <trkpt lat="45.86998" lon="3.13329">
        <ele>327</ele>
        <time>2024-04-28T10:12:20Z</time>
      </trkpt>
      <trkpt lat="45.87005" lon="3.13328">
        <ele>327</ele>
        <time>2024-04-28T10:12:21Z</time>
      </trkpt>
      <trkpt lat="45.87012" lon="3.13327">
        <ele>327</ele>
        <time>2024-04-28T10:12:22Z</time>
      </trkpt>
      <trkpt lat="45.87019" lon="3.13327">
        <ele>327.2</ele>
        <time>2024-04-28T10:12:23Z</time>
      </trkpt>
      <trkpt lat="45.87025" lon="3.13326">
        <ele>327.2</ele>
        <time>2024-04-28T10:12:24Z</time>
      </trkpt>
      <trkpt lat="45.87032" lon="3.13325">
        <ele>327.2</ele>
        <time>2024-04-28T10:12:25Z</time>
      </trkpt>
      <trkpt lat="45.87039" lon="3.13324">
        <ele>327.2</ele>
        <time>2024-04-28T10:12:26Z</time>
      </trkpt>
      <trkpt lat="45.87045" lon="3.13323">
        <ele>327.2</ele>
        <time>2024-04-28T10:12:27Z</time>
      </trkpt>
      <trkpt lat="45.87052" lon="3.13322">
        <ele>327.4</ele>
        <time>2024-04-28T10:12:28Z</time>
      </trkpt>
      <trkpt lat="45.87059" lon="3.13322">
        <ele>327.4</ele>
        <time>2024-04-28T10:12:29Z</time>
      </trkpt>
      <trkpt lat="45.87066" lon="3.13321">
        <ele>327.4</ele>
        <time>2024-04-28T10:12:30Z</time>
      </trkpt>
      <trkpt lat="45.87073" lon="3.1332">
        <ele>327.4</ele>
        <time>2024-04-28T10:12:31Z</time>
      </trkpt>
      <trkpt lat="45.87079" lon="3.1332">
        <ele>327.6</ele>
        <time>2024-04-28T10:12:32Z</time>
      </trkpt>
      <trkpt lat="45.87086" lon="3.13319">
        <ele>327.6</ele>
        <time>2024-04-28T10:12:33Z</time>
      </trkpt>
      <trkpt lat="45.87092" lon="3.13318">
        <ele>327.6</ele>
        <time>2024-04-28T10:12:34Z</time>
      </trkpt>
      <trkpt lat="45.87099" lon="3.13318">
        <ele>327.6</ele>
        <time>2024-04-28T10:12:35Z</time>
      </trkpt>
      <trkpt lat="45.87106" lon="3.13317">
        <ele>327.6</ele>
        <time>2024-04-28T10:12:36Z</time>
      </trkpt>
      <trkpt lat="45.87113" lon="3.13316">
        <ele>327.8</ele>
        <time>2024-04-28T10:12:37Z</time>
      </trkpt>
      <trkpt lat="45.87119" lon="3.13316">
        <ele>327.8</ele>
        <time>2024-04-28T10:12:38Z</time>
      </trkpt>
      <trkpt lat="45.87125" lon="3.13316">
        <ele>327.8</ele>
        <time>2024-04-28T10:12:39Z</time>
      </trkpt>
      <trkpt lat="45.87131" lon="3.13315">
        <ele>327.8</ele>
        <time>2024-04-28T10:12:40Z</time>
      </trkpt>
      <trkpt lat="45.87137" lon="3.13314">
        <ele>327.8</ele>
        <time>2024-04-28T10:12:41Z</time>
      </trkpt>
      <trkpt lat="45.87143" lon="3.13314">
        <ele>328</ele>
        <time>2024-04-28T10:12:42Z</time>
      </trkpt>
      <trkpt lat="45.87149" lon="3.13313">
        <ele>328</ele>
        <time>2024-04-28T10:12:43Z</time>
      </trkpt>
      <trkpt lat="45.87154" lon="3.13313">
        <ele>328</ele>
        <time>2024-04-28T10:12:44Z</time>
      </trkpt>
      <trkpt lat="45.87158" lon="3.13312">
        <ele>328</ele>
        <time>2024-04-28T10:12:45Z</time>
      </trkpt>
      <trkpt lat="45.87163" lon="3.13312">
        <ele>328</ele>
        <time>2024-04-28T10:12:46Z</time>
      </trkpt>
      <trkpt lat="45.87167" lon="3.13311">
        <ele>328</ele>
        <time>2024-04-28T10:12:47Z</time>
      </trkpt>
      <trkpt lat="45.87172" lon="3.13311">
        <ele>328</ele>
        <time>2024-04-28T10:12:48Z</time>
      </trkpt>
      <trkpt lat="45.87178" lon="3.1331">
        <ele>328</ele>
        <time>2024-04-28T10:12:49Z</time>
      </trkpt>
      <trkpt lat="45.87185" lon="3.1331">
        <ele>328</ele>
        <time>2024-04-28T10:12:50Z</time>
      </trkpt>
      <trkpt lat="45.87191" lon="3.1331">
        <ele>328</ele>
        <time>2024-04-28T10:12:51Z</time>
      </trkpt>
      <trkpt lat="45.87197" lon="3.13309">
        <ele>328</ele>
        <time>2024-04-28T10:12:52Z</time>
      </trkpt>
      <trkpt lat="45.87204" lon="3.13308">
        <ele>328</ele>
        <time>2024-04-28T10:12:53Z</time>
      </trkpt>
      <trkpt lat="45.87211" lon="3.13307">
        <ele>328</ele>
        <time>2024-04-28T10:12:54Z</time>
      </trkpt>
      <trkpt lat="45.87217" lon="3.13307">
        <ele>328</ele>
        <time>2024-04-28T10:12:55Z</time>
      </trkpt>
      <trkpt lat="45.87224" lon="3.13306">
        <ele>328</ele>
        <time>2024-04-28T10:12:56Z</time>
      </trkpt>
      <trkpt lat="45.87231" lon="3.13305">
        <ele>328</ele>
        <time>2024-04-28T10:12:57Z</time>
      </trkpt>
      <trkpt lat="45.87238" lon="3.13305">
        <ele>328.2</ele>
        <time>2024-04-28T10:12:58Z</time>
      </trkpt>
      <trkpt lat="45.87245" lon="3.13304">
        <ele>328.2</ele>
        <time>2024-04-28T10:12:59Z</time>
      </trkpt>
      <trkpt lat="45.87252" lon="3.13303">
        <ele>328.2</ele>
        <time>2024-04-28T10:13:00Z</time>
      </trkpt>
      <trkpt lat="45.87259" lon="3.13303">
        <ele>328.2</ele>
        <time>2024-04-28T10:13:01Z</time>
      </trkpt>
      <trkpt lat="45.87266" lon="3.13302">
        <ele>328.2</ele>
        <time>2024-04-28T10:13:02Z</time>
      </trkpt>
      <trkpt lat="45.87273" lon="3.13301">
        <ele>328.2</ele>
        <time>2024-04-28T10:13:03Z</time>
      </trkpt>
      <trkpt lat="45.8728" lon="3.133">
        <ele>328.2</ele>
        <time>2024-04-28T10:13:04Z</time>
      </trkpt>
      <trkpt lat="45.87287" lon="3.13299">
        <ele>328.2</ele>
        <time>2024-04-28T10:13:05Z</time>
      </trkpt>
      <trkpt lat="45.87294" lon="3.13299">
        <ele>328.2</ele>
        <time>2024-04-28T10:13:06Z</time>
      </trkpt>
      <trkpt lat="45.87301" lon="3.13299">
        <ele>328.2</ele>
        <time>2024-04-28T10:13:07Z</time>
      </trkpt>
      <trkpt lat="45.87308" lon="3.13298">
        <ele>328.2</ele>
        <time>2024-04-28T10:13:08Z</time>
      </trkpt>
      <trkpt lat="45.87315" lon="3.13298">
        <ele>328.2</ele>
        <time>2024-04-28T10:13:09Z</time>
      </trkpt>
      <trkpt lat="45.87322" lon="3.13298">
        <ele>328.2</ele>
        <time>2024-04-28T10:13:10Z</time>
      </trkpt>
      <trkpt lat="45.8733" lon="3.13298">
        <ele>328.2</ele>
        <time>2024-04-28T10:13:11Z</time>
      </trkpt>
      <trkpt lat="45.87337" lon="3.13297">
        <ele>328.2</ele>
        <time>2024-04-28T10:13:12Z</time>
      </trkpt>
      <trkpt lat="45.87344" lon="3.13297">
        <ele>328.2</ele>
        <time>2024-04-28T10:13:13Z</time>
      </trkpt>
      <trkpt lat="45.87351" lon="3.13297">
        <ele>328.2</ele>
        <time>2024-04-28T10:13:14Z</time>
      </trkpt>
      <trkpt lat="45.87358" lon="3.13295">
        <ele>328.2</ele>
        <time>2024-04-28T10:13:15Z</time>
      </trkpt>
      <trkpt lat="45.87365" lon="3.13294">
        <ele>328.2</ele>
        <time>2024-04-28T10:13:16Z</time>
      </trkpt>
      <trkpt lat="45.87372" lon="3.13293">
        <ele>328.2</ele>
        <time>2024-04-28T10:13:17Z</time>
      </trkpt>
      <trkpt lat="45.87379" lon="3.13293">
        <ele>328.2</ele>
        <time>2024-04-28T10:13:18Z</time>
      </trkpt>
      <trkpt lat="45.87386" lon="3.13293">
        <ele>328.4</ele>
        <time>2024-04-28T10:13:19Z</time>
      </trkpt>
      <trkpt lat="45.87394" lon="3.13292">
        <ele>328.4</ele>
        <time>2024-04-28T10:13:20Z</time>
      </trkpt>
      <trkpt lat="45.87401" lon="3.13292">
        <ele>328.4</ele>
        <time>2024-04-28T10:13:21Z</time>
      </trkpt>
      <trkpt lat="45.87408" lon="3.13292">
        <ele>328.4</ele>
        <time>2024-04-28T10:13:22Z</time>
      </trkpt>
      <trkpt lat="45.87415" lon="3.13292">
        <ele>328.4</ele>
        <time>2024-04-28T10:13:23Z</time>
      </trkpt>
      <trkpt lat="45.87422" lon="3.13292">
        <ele>328.4</ele>
        <time>2024-04-28T10:13:24Z</time>
      </trkpt>
      <trkpt lat="45.87429" lon="3.13292">
        <ele>328.4</ele>
        <time>2024-04-28T10:13:25Z</time>
      </trkpt>
      <trkpt lat="45.87436" lon="3.13292">
        <ele>328.4</ele>
        <time>2024-04-28T10:13:26Z</time>
      </trkpt>
      <trkpt lat="45.87443" lon="3.13292">
        <ele>328.4</ele>
        <time>2024-04-28T10:13:27Z</time>
      </trkpt>
      <trkpt lat="45.8745" lon="3.13292">
        <ele>328.6</ele>
        <time>2024-04-28T10:13:28Z</time>
      </trkpt>
      <trkpt lat="45.87457" lon="3.13292">
        <ele>328.4</ele>
        <time>2024-04-28T10:13:29Z</time>
      </trkpt>
      <trkpt lat="45.87464" lon="3.13292">
        <ele>328.6</ele>
        <time>2024-04-28T10:13:30Z</time>
      </trkpt>
      <trkpt lat="45.87472" lon="3.13291">
        <ele>328.6</ele>
        <time>2024-04-28T10:13:31Z</time>
      </trkpt>
      <trkpt lat="45.87479" lon="3.13291">
        <ele>328.6</ele>
        <time>2024-04-28T10:13:32Z</time>
      </trkpt>
      <trkpt lat="45.87486" lon="3.13291">
        <ele>328.6</ele>
        <time>2024-04-28T10:13:33Z</time>
      </trkpt>
      <trkpt lat="45.87493" lon="3.13291">
        <ele>328.6</ele>
        <time>2024-04-28T10:13:34Z</time>
      </trkpt>
      <trkpt lat="45.875" lon="3.13291">
        <ele>328.6</ele>
        <time>2024-04-28T10:13:35Z</time>
      </trkpt>
      <trkpt lat="45.87507" lon="3.13291">
        <ele>328.6</ele>
        <time>2024-04-28T10:13:36Z</time>
      </trkpt>
      <trkpt lat="45.87514" lon="3.13291">
        <ele>328.8</ele>
        <time>2024-04-28T10:13:37Z</time>
      </trkpt>
      <trkpt lat="45.87521" lon="3.13291">
        <ele>328.8</ele>
        <time>2024-04-28T10:13:38Z</time>
      </trkpt>
      <trkpt lat="45.87528" lon="3.13291">
        <ele>328.8</ele>
        <time>2024-04-28T10:13:39Z</time>
      </trkpt>
      <trkpt lat="45.87535" lon="3.13291">
        <ele>328.8</ele>
        <time>2024-04-28T10:13:40Z</time>
      </trkpt>
      <trkpt lat="45.87542" lon="3.13291">
        <ele>328.8</ele>
        <time>2024-04-28T10:13:41Z</time>
      </trkpt>
      <trkpt lat="45.87548" lon="3.13292">
        <ele>328.8</ele>
        <time>2024-04-28T10:13:42Z</time>
      </trkpt>
      <trkpt lat="45.87555" lon="3.13293">
        <ele>328.8</ele>
        <time>2024-04-28T10:13:43Z</time>
      </trkpt>
      <trkpt lat="45.87562" lon="3.13294">
        <ele>329</ele>
        <time>2024-04-28T10:13:44Z</time>
      </trkpt>
      <trkpt lat="45.87569" lon="3.13295">
        <ele>329</ele>
        <time>2024-04-28T10:13:45Z</time>
      </trkpt>
      <trkpt lat="45.87576" lon="3.13296">
        <ele>329</ele>
        <time>2024-04-28T10:13:46Z</time>
      </trkpt>
      <trkpt lat="45.87582" lon="3.13297">
        <ele>329</ele>
        <time>2024-04-28T10:13:47Z</time>
      </trkpt>
      <trkpt lat="45.87589" lon="3.13298">
        <ele>329</ele>
        <time>2024-04-28T10:13:48Z</time>
      </trkpt>
      <trkpt lat="45.87596" lon="3.13299">
        <ele>329</ele>
        <time>2024-04-28T10:13:49Z</time>
      </trkpt>
      <trkpt lat="45.87603" lon="3.133">
        <ele>329</ele>
        <time>2024-04-28T10:13:50Z</time>
      </trkpt>
      <trkpt lat="45.8761" lon="3.133">
        <ele>329</ele>
        <time>2024-04-28T10:13:51Z</time>
      </trkpt>
      <trkpt lat="45.87617" lon="3.13301">
        <ele>329</ele>
        <time>2024-04-28T10:13:52Z</time>
      </trkpt>
      <trkpt lat="45.87624" lon="3.13302">
        <ele>329</ele>
        <time>2024-04-28T10:13:53Z</time>
      </trkpt>
      <trkpt lat="45.87631" lon="3.13303">
        <ele>329</ele>
        <time>2024-04-28T10:13:54Z</time>
      </trkpt>
      <trkpt lat="45.87638" lon="3.13304">
        <ele>329.2</ele>
        <time>2024-04-28T10:13:55Z</time>
      </trkpt>
      <trkpt lat="45.87644" lon="3.13305">
        <ele>329.2</ele>
        <time>2024-04-28T10:13:56Z</time>
      </trkpt>
      <trkpt lat="45.87651" lon="3.13306">
        <ele>329.2</ele>
        <time>2024-04-28T10:13:57Z</time>
      </trkpt>
      <trkpt lat="45.87658" lon="3.13307">
        <ele>329.2</ele>
        <time>2024-04-28T10:13:58Z</time>
      </trkpt>
      <trkpt lat="45.87665" lon="3.13308">
        <ele>329.2</ele>
        <time>2024-04-28T10:13:59Z</time>
      </trkpt>
      <trkpt lat="45.87672" lon="3.13309">
        <ele>329.2</ele>
        <time>2024-04-28T10:14:00Z</time>
      </trkpt>
      <trkpt lat="45.87678" lon="3.1331">
        <ele>329.2</ele>
        <time>2024-04-28T10:14:01Z</time>
      </trkpt>
      <trkpt lat="45.87685" lon="3.13311">
        <ele>329.2</ele>
        <time>2024-04-28T10:14:02Z</time>
      </trkpt>
      <trkpt lat="45.87692" lon="3.13311">
        <ele>329.2</ele>
        <time>2024-04-28T10:14:03Z</time>
      </trkpt>
      <trkpt lat="45.87698" lon="3.13312">
        <ele>329.2</ele>
        <time>2024-04-28T10:14:04Z</time>
      </trkpt>
      <trkpt lat="45.87705" lon="3.13313">
        <ele>329.4</ele>
        <time>2024-04-28T10:14:05Z</time>
      </trkpt>
      <trkpt lat="45.87712" lon="3.13314">
        <ele>329.4</ele>
        <time>2024-04-28T10:14:06Z</time>
      </trkpt>
      <trkpt lat="45.87718" lon="3.13315">
        <ele>329.4</ele>
        <time>2024-04-28T10:14:07Z</time>
      </trkpt>
      <trkpt lat="45.87725" lon="3.13316">
        <ele>329.4</ele>
        <time>2024-04-28T10:14:08Z</time>
      </trkpt>
      <trkpt lat="45.87732" lon="3.13317">
        <ele>329.4</ele>
        <time>2024-04-28T10:14:09Z</time>
      </trkpt>
      <trkpt lat="45.87739" lon="3.13318">
        <ele>329.4</ele>
        <time>2024-04-28T10:14:10Z</time>
      </trkpt>
      <trkpt lat="45.87745" lon="3.13319">
        <ele>329.6</ele>
        <time>2024-04-28T10:14:11Z</time>
      </trkpt>
      <trkpt lat="45.87752" lon="3.1332">
        <ele>329.6</ele>
        <time>2024-04-28T10:14:12Z</time>
      </trkpt>
      <trkpt lat="45.87759" lon="3.1332">
        <ele>329.6</ele>
        <time>2024-04-28T10:14:13Z</time>
      </trkpt>
      <trkpt lat="45.87766" lon="3.13321">
        <ele>329.6</ele>
        <time>2024-04-28T10:14:14Z</time>
      </trkpt>
      <trkpt lat="45.87773" lon="3.13322">
        <ele>329.6</ele>
        <time>2024-04-28T10:14:15Z</time>
      </trkpt>
      <trkpt lat="45.87779" lon="3.13323">
        <ele>329.6</ele>
        <time>2024-04-28T10:14:16Z</time>
      </trkpt>
      <trkpt lat="45.87786" lon="3.13324">
        <ele>329.6</ele>
        <time>2024-04-28T10:14:17Z</time>
      </trkpt>
      <trkpt lat="45.87793" lon="3.13325">
        <ele>329.6</ele>
        <time>2024-04-28T10:14:18Z</time>
      </trkpt>
      <trkpt lat="45.878" lon="3.13326">
        <ele>329.6</ele>
        <time>2024-04-28T10:14:19Z</time>
      </trkpt>
      <trkpt lat="45.87807" lon="3.13327">
        <ele>329.6</ele>
        <time>2024-04-28T10:14:20Z</time>
      </trkpt>
      <trkpt lat="45.87814" lon="3.13328">
        <ele>329.6</ele>
        <time>2024-04-28T10:14:21Z</time>
      </trkpt>
      <trkpt lat="45.87821" lon="3.13329">
        <ele>329.6</ele>
        <time>2024-04-28T10:14:22Z</time>
      </trkpt>
      <trkpt lat="45.87828" lon="3.1333">
        <ele>329.6</ele>
        <time>2024-04-28T10:14:23Z</time>
      </trkpt>
      <trkpt lat="45.87835" lon="3.13331">
        <ele>329.6</ele>
        <time>2024-04-28T10:14:24Z</time>
      </trkpt>
      <trkpt lat="45.87842" lon="3.13332">
        <ele>329.6</ele>
        <time>2024-04-28T10:14:25Z</time>
      </trkpt>
      <trkpt lat="45.87848" lon="3.13332">
        <ele>329.6</ele>
        <time>2024-04-28T10:14:26Z</time>
      </trkpt>
      <trkpt lat="45.87855" lon="3.13333">
        <ele>329.6</ele>
        <time>2024-04-28T10:14:27Z</time>
      </trkpt>
      <trkpt lat="45.8786" lon="3.13338">
        <ele>329.8</ele>
        <time>2024-04-28T10:14:28Z</time>
      </trkpt>
      <trkpt lat="45.87864" lon="3.13344">
        <ele>329.8</ele>
        <time>2024-04-28T10:14:29Z</time>
      </trkpt>
      <trkpt lat="45.87868" lon="3.13349">
        <ele>329.8</ele>
        <time>2024-04-28T10:14:30Z</time>
      </trkpt>
      <trkpt lat="45.87873" lon="3.13357">
        <ele>329.8</ele>
        <time>2024-04-28T10:14:31Z</time>
      </trkpt>
      <trkpt lat="45.87871" lon="3.13363">
        <ele>329.8</ele>
        <time>2024-04-28T10:14:32Z</time>
      </trkpt>
      <trkpt lat="45.87868" lon="3.1337">
        <ele>329.8</ele>
        <time>2024-04-28T10:14:33Z</time>
      </trkpt>
      <trkpt lat="45.87865" lon="3.13378">
        <ele>329.8</ele>
        <time>2024-04-28T10:14:34Z</time>
      </trkpt>
      <trkpt lat="45.87862" lon="3.13386">
        <ele>329.8</ele>
        <time>2024-04-28T10:14:35Z</time>
      </trkpt>
      <trkpt lat="45.87859" lon="3.13394">
        <ele>329.8</ele>
        <time>2024-04-28T10:14:36Z</time>
      </trkpt>
      <trkpt lat="45.87855" lon="3.13403">
        <ele>329.8</ele>
        <time>2024-04-28T10:14:37Z</time>
      </trkpt>
      <trkpt lat="45.87852" lon="3.13412">
        <ele>330</ele>
        <time>2024-04-28T10:14:38Z</time>
      </trkpt>
      <trkpt lat="45.87848" lon="3.1342">
        <ele>330</ele>
        <time>2024-04-28T10:14:39Z</time>
      </trkpt>
      <trkpt lat="45.87845" lon="3.13429">
        <ele>330</ele>
        <time>2024-04-28T10:14:40Z</time>
      </trkpt>
      <trkpt lat="45.87841" lon="3.13438">
        <ele>329.8</ele>
        <time>2024-04-28T10:14:41Z</time>
      </trkpt>
      <trkpt lat="45.87838" lon="3.13447">
        <ele>329.8</ele>
        <time>2024-04-28T10:14:42Z</time>
      </trkpt>
      <trkpt lat="45.87834" lon="3.13456">
        <ele>330</ele>
        <time>2024-04-28T10:14:43Z</time>
      </trkpt>
      <trkpt lat="45.87831" lon="3.13464">
        <ele>330</ele>
        <time>2024-04-28T10:14:44Z</time>
      </trkpt>
      <trkpt lat="45.87827" lon="3.13473">
        <ele>330</ele>
        <time>2024-04-28T10:14:45Z</time>
      </trkpt>
      <trkpt lat="45.87824" lon="3.13482">
        <ele>329.8</ele>
        <time>2024-04-28T10:14:46Z</time>
      </trkpt>
      <trkpt lat="45.8782" lon="3.13491">
        <ele>329.8</ele>
        <time>2024-04-28T10:14:47Z</time>
      </trkpt>
      <trkpt lat="45.87817" lon="3.135">
        <ele>329.8</ele>
        <time>2024-04-28T10:14:48Z</time>
      </trkpt>
      <trkpt lat="45.87813" lon="3.13508">
        <ele>329.8</ele>
        <time>2024-04-28T10:14:49Z</time>
      </trkpt>
      <trkpt lat="45.8781" lon="3.13517">
        <ele>329.8</ele>
        <time>2024-04-28T10:14:50Z</time>
      </trkpt>
      <trkpt lat="45.87806" lon="3.13526">
        <ele>329.8</ele>
        <time>2024-04-28T10:14:51Z</time>
      </trkpt>
      <trkpt lat="45.87803" lon="3.13535">
        <ele>329.8</ele>
        <time>2024-04-28T10:14:52Z</time>
      </trkpt>
      <trkpt lat="45.87799" lon="3.13544">
        <ele>329.8</ele>
        <time>2024-04-28T10:14:53Z</time>
      </trkpt>
      <trkpt lat="45.87795" lon="3.13553">
        <ele>329.8</ele>
        <time>2024-04-28T10:14:54Z</time>
      </trkpt>
      <trkpt lat="45.87792" lon="3.13562">
        <ele>329.8</ele>
        <time>2024-04-28T10:14:55Z</time>
      </trkpt>
      <trkpt lat="45.87789" lon="3.13569">
        <ele>330</ele>
        <time>2024-04-28T10:14:56Z</time>
      </trkpt>
      <trkpt lat="45.87786" lon="3.13577">
        <ele>330.2</ele>
        <time>2024-04-28T10:14:57Z</time>
      </trkpt>
      <trkpt lat="45.87782" lon="3.13586">
        <ele>330.2</ele>
        <time>2024-04-28T10:14:58Z</time>
      </trkpt>
      <trkpt lat="45.87779" lon="3.13594">
        <ele>330.2</ele>
        <time>2024-04-28T10:14:59Z</time>
      </trkpt>
      <trkpt lat="45.87775" lon="3.13603">
        <ele>330.4</ele>
        <time>2024-04-28T10:15:00Z</time>
      </trkpt>
      <trkpt lat="45.87772" lon="3.13612">
        <ele>330.4</ele>
        <time>2024-04-28T10:15:01Z</time>
      </trkpt>
      <trkpt lat="45.87768" lon="3.13621">
        <ele>330.4</ele>
        <time>2024-04-28T10:15:02Z</time>
      </trkpt>
      <trkpt lat="45.87765" lon="3.13629">
        <ele>330.6</ele>
        <time>2024-04-28T10:15:03Z</time>
      </trkpt>
      <trkpt lat="45.87761" lon="3.13638">
        <ele>330.6</ele>
        <time>2024-04-28T10:15:04Z</time>
      </trkpt>
      <trkpt lat="45.87758" lon="3.13647">
        <ele>330.6</ele>
        <time>2024-04-28T10:15:05Z</time>
      </trkpt>
      <trkpt lat="45.87754" lon="3.13655">
        <ele>330.6</ele>
        <time>2024-04-28T10:15:06Z</time>
      </trkpt>
      <trkpt lat="45.87751" lon="3.13664">
        <ele>330.6</ele>
        <time>2024-04-28T10:15:07Z</time>
      </trkpt>
      <trkpt lat="45.87747" lon="3.13673">
        <ele>330.6</ele>
        <time>2024-04-28T10:15:08Z</time>
      </trkpt>
      <trkpt lat="45.87744" lon="3.13682">
        <ele>330.6</ele>
        <time>2024-04-28T10:15:09Z</time>
      </trkpt>
      <trkpt lat="45.8774" lon="3.1369">
        <ele>330.6</ele>
        <time>2024-04-28T10:15:10Z</time>
      </trkpt>
      <trkpt lat="45.87737" lon="3.137">
        <ele>330.6</ele>
        <time>2024-04-28T10:15:11Z</time>
      </trkpt>
      <trkpt lat="45.87733" lon="3.13709">
        <ele>330.6</ele>
        <time>2024-04-28T10:15:12Z</time>
      </trkpt>
      <trkpt lat="45.8773" lon="3.13717">
        <ele>330.6</ele>
        <time>2024-04-28T10:15:13Z</time>
      </trkpt>
      <trkpt lat="45.87726" lon="3.13726">
        <ele>330.6</ele>
        <time>2024-04-28T10:15:14Z</time>
      </trkpt>
      <trkpt lat="45.87723" lon="3.13735">
        <ele>330.8</ele>
        <time>2024-04-28T10:15:15Z</time>
      </trkpt>
      <trkpt lat="45.87719" lon="3.13744">
        <ele>330.8</ele>
        <time>2024-04-28T10:15:16Z</time>
      </trkpt>
      <trkpt lat="45.87716" lon="3.13753">
        <ele>330.8</ele>
        <time>2024-04-28T10:15:17Z</time>
      </trkpt>
      <trkpt lat="45.87712" lon="3.13761">
        <ele>330.8</ele>
        <time>2024-04-28T10:15:18Z</time>
      </trkpt>
      <trkpt lat="45.87709" lon="3.1377">
        <ele>330.8</ele>
        <time>2024-04-28T10:15:19Z</time>
      </trkpt>
      <trkpt lat="45.87705" lon="3.13778">
        <ele>330.8</ele>
        <time>2024-04-28T10:15:20Z</time>
      </trkpt>
      <trkpt lat="45.87702" lon="3.13787">
        <ele>330.8</ele>
        <time>2024-04-28T10:15:21Z</time>
      </trkpt>
      <trkpt lat="45.87699" lon="3.13795">
        <ele>330.8</ele>
        <time>2024-04-28T10:15:22Z</time>
      </trkpt>
      <trkpt lat="45.87695" lon="3.13803">
        <ele>330.8</ele>
        <time>2024-04-28T10:15:23Z</time>
      </trkpt>
      <trkpt lat="45.87692" lon="3.13812">
        <ele>330.8</ele>
        <time>2024-04-28T10:15:24Z</time>
      </trkpt>
      <trkpt lat="45.87689" lon="3.1382">
        <ele>330.8</ele>
        <time>2024-04-28T10:15:25Z</time>
      </trkpt>
      <trkpt lat="45.87685" lon="3.13829">
        <ele>330.8</ele>
        <time>2024-04-28T10:15:26Z</time>
      </trkpt>
      <trkpt lat="45.87682" lon="3.13837">
        <ele>330.8</ele>
        <time>2024-04-28T10:15:27Z</time>
      </trkpt>
      <trkpt lat="45.87678" lon="3.13846">
        <ele>330.8</ele>
        <time>2024-04-28T10:15:28Z</time>
      </trkpt>
      <trkpt lat="45.87675" lon="3.13854">
        <ele>330.8</ele>
        <time>2024-04-28T10:15:29Z</time>
      </trkpt>
      <trkpt lat="45.87672" lon="3.13862">
        <ele>331</ele>
        <time>2024-04-28T10:15:30Z</time>
      </trkpt>
      <trkpt lat="45.87668" lon="3.13871">
        <ele>331</ele>
        <time>2024-04-28T10:15:31Z</time>
      </trkpt>
      <trkpt lat="45.87665" lon="3.13879">
        <ele>331</ele>
        <time>2024-04-28T10:15:32Z</time>
      </trkpt>
      <trkpt lat="45.87662" lon="3.13887">
        <ele>331</ele>
        <time>2024-04-28T10:15:33Z</time>
      </trkpt>
      <trkpt lat="45.87658" lon="3.13896">
        <ele>331</ele>
        <time>2024-04-28T10:15:34Z</time>
      </trkpt>
      <trkpt lat="45.87655" lon="3.13904">
        <ele>331</ele>
        <time>2024-04-28T10:15:35Z</time>
      </trkpt>
      <trkpt lat="45.87652" lon="3.13913">
        <ele>331</ele>
        <time>2024-04-28T10:15:36Z</time>
      </trkpt>
      <trkpt lat="45.87648" lon="3.13921">
        <ele>331</ele>
        <time>2024-04-28T10:15:37Z</time>
      </trkpt>
      <trkpt lat="45.87645" lon="3.1393">
        <ele>331</ele>
        <time>2024-04-28T10:15:38Z</time>
      </trkpt>
      <trkpt lat="45.87641" lon="3.13939">
        <ele>331</ele>
        <time>2024-04-28T10:15:39Z</time>
      </trkpt>
      <trkpt lat="45.87638" lon="3.13947">
        <ele>331</ele>
        <time>2024-04-28T10:15:40Z</time>
      </trkpt>
      <trkpt lat="45.87634" lon="3.13956">
        <ele>331</ele>
        <time>2024-04-28T10:15:41Z</time>
      </trkpt>
      <trkpt lat="45.87631" lon="3.13965">
        <ele>331</ele>
        <time>2024-04-28T10:15:42Z</time>
      </trkpt>
      <trkpt lat="45.87627" lon="3.13973">
        <ele>331</ele>
        <time>2024-04-28T10:15:43Z</time>
      </trkpt>
      <trkpt lat="45.87624" lon="3.13982">
        <ele>331</ele>
        <time>2024-04-28T10:15:44Z</time>
      </trkpt>
      <trkpt lat="45.87621" lon="3.1399">
        <ele>331</ele>
        <time>2024-04-28T10:15:45Z</time>
      </trkpt>
      <trkpt lat="45.87617" lon="3.13999">
        <ele>331</ele>
        <time>2024-04-28T10:15:46Z</time>
      </trkpt>
      <trkpt lat="45.87614" lon="3.14008">
        <ele>331</ele>
        <time>2024-04-28T10:15:47Z</time>
      </trkpt>
      <trkpt lat="45.8761" lon="3.14016">
        <ele>331</ele>
        <time>2024-04-28T10:15:48Z</time>
      </trkpt>
      <trkpt lat="45.87607" lon="3.14025">
        <ele>331</ele>
        <time>2024-04-28T10:15:49Z</time>
      </trkpt>
      <trkpt lat="45.87603" lon="3.14033">
        <ele>331</ele>
        <time>2024-04-28T10:15:50Z</time>
      </trkpt>
      <trkpt lat="45.876" lon="3.14042">
        <ele>331</ele>
        <time>2024-04-28T10:15:51Z</time>
      </trkpt>
      <trkpt lat="45.87597" lon="3.1405">
        <ele>331</ele>
        <time>2024-04-28T10:15:52Z</time>
      </trkpt>
      <trkpt lat="45.87593" lon="3.14059">
        <ele>331</ele>
        <time>2024-04-28T10:15:53Z</time>
      </trkpt>
      <trkpt lat="45.8759" lon="3.14068">
        <ele>331</ele>
        <time>2024-04-28T10:15:54Z</time>
      </trkpt>
      <trkpt lat="45.87586" lon="3.14076">
        <ele>331.2</ele>
        <time>2024-04-28T10:15:55Z</time>
      </trkpt>
      <trkpt lat="45.87583" lon="3.14085">
        <ele>331</ele>
        <time>2024-04-28T10:15:56Z</time>
      </trkpt>
      <trkpt lat="45.87579" lon="3.14094">
        <ele>331</ele>
        <time>2024-04-28T10:15:57Z</time>
      </trkpt>
      <trkpt lat="45.87576" lon="3.14102">
        <ele>331.2</ele>
        <time>2024-04-28T10:15:58Z</time>
      </trkpt>
      <trkpt lat="45.87572" lon="3.14111">
        <ele>331.2</ele>
        <time>2024-04-28T10:15:59Z</time>
      </trkpt>
      <trkpt lat="45.87569" lon="3.1412">
        <ele>331</ele>
        <time>2024-04-28T10:16:00Z</time>
      </trkpt>
      <trkpt lat="45.87565" lon="3.14128">
        <ele>331</ele>
        <time>2024-04-28T10:16:01Z</time>
      </trkpt>
      <trkpt lat="45.87562" lon="3.14137">
        <ele>331</ele>
        <time>2024-04-28T10:16:02Z</time>
      </trkpt>
      <trkpt lat="45.87558" lon="3.14146">
        <ele>331</ele>
        <time>2024-04-28T10:16:03Z</time>
      </trkpt>
      <trkpt lat="45.87555" lon="3.14154">
        <ele>331.2</ele>
        <time>2024-04-28T10:16:04Z</time>
      </trkpt>
      <trkpt lat="45.87552" lon="3.14163">
        <ele>331</ele>
        <time>2024-04-28T10:16:05Z</time>
      </trkpt>
      <trkpt lat="45.87548" lon="3.14172">
        <ele>331</ele>
        <time>2024-04-28T10:16:06Z</time>
      </trkpt>
      <trkpt lat="45.87545" lon="3.1418">
        <ele>331</ele>
        <time>2024-04-28T10:16:07Z</time>
      </trkpt>
      <trkpt lat="45.87541" lon="3.14189">
        <ele>331</ele>
        <time>2024-04-28T10:16:08Z</time>
      </trkpt>
      <trkpt lat="45.87538" lon="3.14197">
        <ele>331.2</ele>
        <time>2024-04-28T10:16:09Z</time>
      </trkpt>
      <trkpt lat="45.87534" lon="3.14206">
        <ele>331</ele>
        <time>2024-04-28T10:16:10Z</time>
      </trkpt>
      <trkpt lat="45.87531" lon="3.14215">
        <ele>331</ele>
        <time>2024-04-28T10:16:11Z</time>
      </trkpt>
      <trkpt lat="45.87527" lon="3.14223">
        <ele>331</ele>
        <time>2024-04-28T10:16:12Z</time>
      </trkpt>
      <trkpt lat="45.87524" lon="3.14232">
        <ele>331</ele>
        <time>2024-04-28T10:16:13Z</time>
      </trkpt>
      <trkpt lat="45.87521" lon="3.1424">
        <ele>331</ele>
        <time>2024-04-28T10:16:14Z</time>
      </trkpt>
      <trkpt lat="45.87517" lon="3.14249">
        <ele>330.8</ele>
        <time>2024-04-28T10:16:15Z</time>
      </trkpt>
      <trkpt lat="45.87514" lon="3.14258">
        <ele>330.8</ele>
        <time>2024-04-28T10:16:16Z</time>
      </trkpt>
      <trkpt lat="45.8751" lon="3.14266">
        <ele>330.8</ele>
        <time>2024-04-28T10:16:17Z</time>
      </trkpt>
      <trkpt lat="45.87507" lon="3.14275">
        <ele>330.8</ele>
        <time>2024-04-28T10:16:18Z</time>
      </trkpt>
      <trkpt lat="45.87504" lon="3.14283">
        <ele>330.8</ele>
        <time>2024-04-28T10:16:19Z</time>
      </trkpt>
      <trkpt lat="45.87501" lon="3.14292">
        <ele>330.8</ele>
        <time>2024-04-28T10:16:20Z</time>
      </trkpt>
      <trkpt lat="45.87498" lon="3.14301">
        <ele>330.8</ele>
        <time>2024-04-28T10:16:21Z</time>
      </trkpt>
      <trkpt lat="45.87495" lon="3.14309">
        <ele>330.6</ele>
        <time>2024-04-28T10:16:22Z</time>
      </trkpt>
      <trkpt lat="45.87491" lon="3.14318">
        <ele>330.6</ele>
        <time>2024-04-28T10:16:23Z</time>
      </trkpt>
      <trkpt lat="45.87488" lon="3.14327">
        <ele>330.6</ele>
        <time>2024-04-28T10:16:24Z</time>
      </trkpt>
      <trkpt lat="45.87485" lon="3.14335">
        <ele>330.6</ele>
        <time>2024-04-28T10:16:25Z</time>
      </trkpt>
      <trkpt lat="45.87482" lon="3.14344">
        <ele>330.6</ele>
        <time>2024-04-28T10:16:26Z</time>
      </trkpt>
      <trkpt lat="45.87479" lon="3.14353">
        <ele>330.6</ele>
        <time>2024-04-28T10:16:27Z</time>
      </trkpt>
      <trkpt lat="45.87476" lon="3.14362">
        <ele>330.4</ele>
        <time>2024-04-28T10:16:28Z</time>
      </trkpt>
      <trkpt lat="45.87474" lon="3.14372">
        <ele>330.4</ele>
        <time>2024-04-28T10:16:29Z</time>
      </trkpt>
      <trkpt lat="45.87471" lon="3.14381">
        <ele>330.4</ele>
        <time>2024-04-28T10:16:30Z</time>
      </trkpt>
      <trkpt lat="45.87469" lon="3.14391">
        <ele>330.4</ele>
        <time>2024-04-28T10:16:31Z</time>
      </trkpt>
      <trkpt lat="45.87466" lon="3.144">
        <ele>330.4</ele>
        <time>2024-04-28T10:16:32Z</time>
      </trkpt>
      <trkpt lat="45.87464" lon="3.1441">
        <ele>330.4</ele>
        <time>2024-04-28T10:16:33Z</time>
      </trkpt>
      <trkpt lat="45.87461" lon="3.14419">
        <ele>330.2</ele>
        <time>2024-04-28T10:16:34Z</time>
      </trkpt>
      <trkpt lat="45.87459" lon="3.14429">
        <ele>330.2</ele>
        <time>2024-04-28T10:16:35Z</time>
      </trkpt>
      <trkpt lat="45.87457" lon="3.14438">
        <ele>330.2</ele>
        <time>2024-04-28T10:16:36Z</time>
      </trkpt>
      <trkpt lat="45.87454" lon="3.14448">
        <ele>330.2</ele>
        <time>2024-04-28T10:16:37Z</time>
      </trkpt>
      <trkpt lat="45.87452" lon="3.14457">
        <ele>330.2</ele>
        <time>2024-04-28T10:16:38Z</time>
      </trkpt>
      <trkpt lat="45.87449" lon="3.14467">
        <ele>330</ele>
        <time>2024-04-28T10:16:39Z</time>
      </trkpt>
      <trkpt lat="45.87447" lon="3.14476">
        <ele>330</ele>
        <time>2024-04-28T10:16:40Z</time>
      </trkpt>
      <trkpt lat="45.87445" lon="3.14486">
        <ele>330</ele>
        <time>2024-04-28T10:16:41Z</time>
      </trkpt>
      <trkpt lat="45.87443" lon="3.14496">
        <ele>330</ele>
        <time>2024-04-28T10:16:42Z</time>
      </trkpt>
      <trkpt lat="45.87441" lon="3.14506">
        <ele>330</ele>
        <time>2024-04-28T10:16:43Z</time>
      </trkpt>
      <trkpt lat="45.87439" lon="3.14516">
        <ele>329.8</ele>
        <time>2024-04-28T10:16:44Z</time>
      </trkpt>
      <trkpt lat="45.87437" lon="3.14526">
        <ele>329.8</ele>
        <time>2024-04-28T10:16:45Z</time>
      </trkpt>
      <trkpt lat="45.87435" lon="3.14535">
        <ele>329.8</ele>
        <time>2024-04-28T10:16:46Z</time>
      </trkpt>
      <trkpt lat="45.87433" lon="3.14546">
        <ele>329.8</ele>
        <time>2024-04-28T10:16:47Z</time>
      </trkpt>
      <trkpt lat="45.87431" lon="3.14555">
        <ele>329.6</ele>
        <time>2024-04-28T10:16:48Z</time>
      </trkpt>
      <trkpt lat="45.87429" lon="3.14565">
        <ele>329.6</ele>
        <time>2024-04-28T10:16:49Z</time>
      </trkpt>
      <trkpt lat="45.87427" lon="3.14575">
        <ele>329.6</ele>
        <time>2024-04-28T10:16:50Z</time>
      </trkpt>
      <trkpt lat="45.87425" lon="3.14584">
        <ele>329.4</ele>
        <time>2024-04-28T10:16:51Z</time>
      </trkpt>
      <trkpt lat="45.87423" lon="3.14593">
        <ele>329.4</ele>
        <time>2024-04-28T10:16:52Z</time>
      </trkpt>
      <trkpt lat="45.87421" lon="3.14603">
        <ele>329.4</ele>
        <time>2024-04-28T10:16:53Z</time>
      </trkpt>
      <trkpt lat="45.87419" lon="3.14613">
        <ele>329.4</ele>
        <time>2024-04-28T10:16:54Z</time>
      </trkpt>
      <trkpt lat="45.87417" lon="3.14622">
        <ele>329.4</ele>
        <time>2024-04-28T10:16:55Z</time>
      </trkpt>
      <trkpt lat="45.87415" lon="3.14632">
        <ele>329.4</ele>
        <time>2024-04-28T10:16:56Z</time>
      </trkpt>
      <trkpt lat="45.87413" lon="3.14641">
        <ele>329.2</ele>
        <time>2024-04-28T10:16:57Z</time>
      </trkpt>
      <trkpt lat="45.87411" lon="3.14651">
        <ele>329.2</ele>
        <time>2024-04-28T10:16:58Z</time>
      </trkpt>
      <trkpt lat="45.87409" lon="3.14661">
        <ele>329.2</ele>
        <time>2024-04-28T10:16:59Z</time>
      </trkpt>
      <trkpt lat="45.87407" lon="3.1467">
        <ele>329.2</ele>
        <time>2024-04-28T10:17:00Z</time>
      </trkpt>
      <trkpt lat="45.87405" lon="3.1468">
        <ele>329.2</ele>
        <time>2024-04-28T10:17:01Z</time>
      </trkpt>
      <trkpt lat="45.87403" lon="3.1469">
        <ele>329.2</ele>
        <time>2024-04-28T10:17:02Z</time>
      </trkpt>
      <trkpt lat="45.87401" lon="3.147">
        <ele>329</ele>
        <time>2024-04-28T10:17:03Z</time>
      </trkpt>
      <trkpt lat="45.87399" lon="3.14709">
        <ele>329</ele>
        <time>2024-04-28T10:17:04Z</time>
      </trkpt>
      <trkpt lat="45.87397" lon="3.14719">
        <ele>329</ele>
        <time>2024-04-28T10:17:05Z</time>
      </trkpt>
      <trkpt lat="45.87395" lon="3.14729">
        <ele>329</ele>
        <time>2024-04-28T10:17:06Z</time>
      </trkpt>
      <trkpt lat="45.87393" lon="3.14739">
        <ele>329</ele>
        <time>2024-04-28T10:17:07Z</time>
      </trkpt>
      <trkpt lat="45.87391" lon="3.14749">
        <ele>329</ele>
        <time>2024-04-28T10:17:08Z</time>
      </trkpt>
      <trkpt lat="45.87389" lon="3.14759">
        <ele>329</ele>
        <time>2024-04-28T10:17:09Z</time>
      </trkpt>
      <trkpt lat="45.87387" lon="3.14768">
        <ele>329</ele>
        <time>2024-04-28T10:17:10Z</time>
      </trkpt>
      <trkpt lat="45.87385" lon="3.14779">
        <ele>328.8</ele>
        <time>2024-04-28T10:17:11Z</time>
      </trkpt>
      <trkpt lat="45.87383" lon="3.14788">
        <ele>328.8</ele>
        <time>2024-04-28T10:17:12Z</time>
      </trkpt>
      <trkpt lat="45.8738" lon="3.14798">
        <ele>328.8</ele>
        <time>2024-04-28T10:17:13Z</time>
      </trkpt>
      <trkpt lat="45.87378" lon="3.14809">
        <ele>328.8</ele>
        <time>2024-04-28T10:17:14Z</time>
      </trkpt>
      <trkpt lat="45.87376" lon="3.14819">
        <ele>328.8</ele>
        <time>2024-04-28T10:17:15Z</time>
      </trkpt>
      <trkpt lat="45.87374" lon="3.14829">
        <ele>328.8</ele>
        <time>2024-04-28T10:17:16Z</time>
      </trkpt>
      <trkpt lat="45.87372" lon="3.14839">
        <ele>328.6</ele>
        <time>2024-04-28T10:17:17Z</time>
      </trkpt>
      <trkpt lat="45.8737" lon="3.14848">
        <ele>328.6</ele>
        <time>2024-04-28T10:17:18Z</time>
      </trkpt>
      <trkpt lat="45.87368" lon="3.14858">
        <ele>328.6</ele>
        <time>2024-04-28T10:17:19Z</time>
      </trkpt>
      <trkpt lat="45.87366" lon="3.14868">
        <ele>328.6</ele>
        <time>2024-04-28T10:17:20Z</time>
      </trkpt>
      <trkpt lat="45.87364" lon="3.14878">
        <ele>328.6</ele>
        <time>2024-04-28T10:17:21Z</time>
      </trkpt>
      <trkpt lat="45.87362" lon="3.14888">
        <ele>328.6</ele>
        <time>2024-04-28T10:17:22Z</time>
      </trkpt>
      <trkpt lat="45.8736" lon="3.14898">
        <ele>328.4</ele>
        <time>2024-04-28T10:17:23Z</time>
      </trkpt>
      <trkpt lat="45.87358" lon="3.14908">
        <ele>328.4</ele>
        <time>2024-04-28T10:17:24Z</time>
      </trkpt>
      <trkpt lat="45.87356" lon="3.14918">
        <ele>328.4</ele>
        <time>2024-04-28T10:17:25Z</time>
      </trkpt>
      <trkpt lat="45.87354" lon="3.14928">
        <ele>328.4</ele>
        <time>2024-04-28T10:17:26Z</time>
      </trkpt>
      <trkpt lat="45.87352" lon="3.14938">
        <ele>328.4</ele>
        <time>2024-04-28T10:17:27Z</time>
      </trkpt>
      <trkpt lat="45.8735" lon="3.14948">
        <ele>328.4</ele>
        <time>2024-04-28T10:17:28Z</time>
      </trkpt>
      <trkpt lat="45.87349" lon="3.14958">
        <ele>328.4</ele>
        <time>2024-04-28T10:17:29Z</time>
      </trkpt>
      <trkpt lat="45.87347" lon="3.14968">
        <ele>328.4</ele>
        <time>2024-04-28T10:17:30Z</time>
      </trkpt>
      <trkpt lat="45.87345" lon="3.14978">
        <ele>328.4</ele>
        <time>2024-04-28T10:17:31Z</time>
      </trkpt>
      <trkpt lat="45.87343" lon="3.14988">
        <ele>328.2</ele>
        <time>2024-04-28T10:17:32Z</time>
      </trkpt>
      <trkpt lat="45.87341" lon="3.14998">
        <ele>328.2</ele>
        <time>2024-04-28T10:17:33Z</time>
      </trkpt>
      <trkpt lat="45.87339" lon="3.15008">
        <ele>328.2</ele>
        <time>2024-04-28T10:17:34Z</time>
      </trkpt>
      <trkpt lat="45.87337" lon="3.15018">
        <ele>328.2</ele>
        <time>2024-04-28T10:17:35Z</time>
      </trkpt>
      <trkpt lat="45.87334" lon="3.15028">
        <ele>328.2</ele>
        <time>2024-04-28T10:17:36Z</time>
      </trkpt>
      <trkpt lat="45.87332" lon="3.15038">
        <ele>328.2</ele>
        <time>2024-04-28T10:17:37Z</time>
      </trkpt>
      <trkpt lat="45.8733" lon="3.15048">
        <ele>328.2</ele>
        <time>2024-04-28T10:17:38Z</time>
      </trkpt>
      <trkpt lat="45.87328" lon="3.15058">
        <ele>328.2</ele>
        <time>2024-04-28T10:17:39Z</time>
      </trkpt>
      <trkpt lat="45.87326" lon="3.15068">
        <ele>328.2</ele>
        <time>2024-04-28T10:17:40Z</time>
      </trkpt>
      <trkpt lat="45.87324" lon="3.15078">
        <ele>328</ele>
        <time>2024-04-28T10:17:41Z</time>
      </trkpt>
      <trkpt lat="45.87322" lon="3.15088">
        <ele>328.2</ele>
        <time>2024-04-28T10:17:42Z</time>
      </trkpt>
      <trkpt lat="45.8732" lon="3.15098">
        <ele>328.2</ele>
        <time>2024-04-28T10:17:43Z</time>
      </trkpt>
      <trkpt lat="45.87318" lon="3.15109">
        <ele>328</ele>
        <time>2024-04-28T10:17:44Z</time>
      </trkpt>
      <trkpt lat="45.87315" lon="3.15119">
        <ele>328</ele>
        <time>2024-04-28T10:17:45Z</time>
      </trkpt>
      <trkpt lat="45.87313" lon="3.15129">
        <ele>328</ele>
        <time>2024-04-28T10:17:46Z</time>
      </trkpt>
      <trkpt lat="45.87311" lon="3.15139">
        <ele>328</ele>
        <time>2024-04-28T10:17:47Z</time>
      </trkpt>
      <trkpt lat="45.87309" lon="3.15149">
        <ele>328</ele>
        <time>2024-04-28T10:17:48Z</time>
      </trkpt>
      <trkpt lat="45.87307" lon="3.15158">
        <ele>328</ele>
        <time>2024-04-28T10:17:49Z</time>
      </trkpt>
      <trkpt lat="45.87305" lon="3.15168">
        <ele>328</ele>
        <time>2024-04-28T10:17:50Z</time>
      </trkpt>
      <trkpt lat="45.87303" lon="3.15178">
        <ele>328</ele>
        <time>2024-04-28T10:17:51Z</time>
      </trkpt>
      <trkpt lat="45.87301" lon="3.15188">
        <ele>327.8</ele>
        <time>2024-04-28T10:17:52Z</time>
      </trkpt>
      <trkpt lat="45.87299" lon="3.15197">
        <ele>327.8</ele>
        <time>2024-04-28T10:17:53Z</time>
      </trkpt>
      <trkpt lat="45.87297" lon="3.15207">
        <ele>327.8</ele>
        <time>2024-04-28T10:17:54Z</time>
      </trkpt>
      <trkpt lat="45.87295" lon="3.15217">
        <ele>327.8</ele>
        <time>2024-04-28T10:17:55Z</time>
      </trkpt>
      <trkpt lat="45.87293" lon="3.15227">
        <ele>327.8</ele>
        <time>2024-04-28T10:17:56Z</time>
      </trkpt>
      <trkpt lat="45.87291" lon="3.15237">
        <ele>327.8</ele>
        <time>2024-04-28T10:17:57Z</time>
      </trkpt>
      <trkpt lat="45.87289" lon="3.15247">
        <ele>327.8</ele>
        <time>2024-04-28T10:17:58Z</time>
      </trkpt>
      <trkpt lat="45.87287" lon="3.15257">
        <ele>327.6</ele>
        <time>2024-04-28T10:17:59Z</time>
      </trkpt>
      <trkpt lat="45.87284" lon="3.15267">
        <ele>327.6</ele>
        <time>2024-04-28T10:18:00Z</time>
      </trkpt>
      <trkpt lat="45.87282" lon="3.15277">
        <ele>327.6</ele>
        <time>2024-04-28T10:18:01Z</time>
      </trkpt>
      <trkpt lat="45.8728" lon="3.15287">
        <ele>327.6</ele>
        <time>2024-04-28T10:18:02Z</time>
      </trkpt>
      <trkpt lat="45.87278" lon="3.15297">
        <ele>327.6</ele>
        <time>2024-04-28T10:18:03Z</time>
      </trkpt>
      <trkpt lat="45.87276" lon="3.15307">
        <ele>327.6</ele>
        <time>2024-04-28T10:18:04Z</time>
      </trkpt>
      <trkpt lat="45.87274" lon="3.15317">
        <ele>327.4</ele>
        <time>2024-04-28T10:18:05Z</time>
      </trkpt>
      <trkpt lat="45.87272" lon="3.15327">
        <ele>327.4</ele>
        <time>2024-04-28T10:18:06Z</time>
      </trkpt>
      <trkpt lat="45.8727" lon="3.15337">
        <ele>327.4</ele>
        <time>2024-04-28T10:18:07Z</time>
      </trkpt>
      <trkpt lat="45.87268" lon="3.15347">
        <ele>327.4</ele>
        <time>2024-04-28T10:18:08Z</time>
      </trkpt>
      <trkpt lat="45.87265" lon="3.15356">
        <ele>327.4</ele>
        <time>2024-04-28T10:18:09Z</time>
      </trkpt>
      <trkpt lat="45.87262" lon="3.15365">
        <ele>327.4</ele>
        <time>2024-04-28T10:18:10Z</time>
      </trkpt>
      <trkpt lat="45.87259" lon="3.15374">
        <ele>327.4</ele>
        <time>2024-04-28T10:18:11Z</time>
      </trkpt>
      <trkpt lat="45.87257" lon="3.15383">
        <ele>327.4</ele>
        <time>2024-04-28T10:18:12Z</time>
      </trkpt>
      <trkpt lat="45.87254" lon="3.15391">
        <ele>327.4</ele>
        <time>2024-04-28T10:18:13Z</time>
      </trkpt>
      <trkpt lat="45.87251" lon="3.154">
        <ele>327.4</ele>
        <time>2024-04-28T10:18:14Z</time>
      </trkpt>
      <trkpt lat="45.87248" lon="3.15408">
        <ele>327.2</ele>
        <time>2024-04-28T10:18:15Z</time>
      </trkpt>
      <trkpt lat="45.87245" lon="3.15416">
        <ele>327.2</ele>
        <time>2024-04-28T10:18:16Z</time>
      </trkpt>
      <trkpt lat="45.87243" lon="3.15424">
        <ele>327.2</ele>
        <time>2024-04-28T10:18:17Z</time>
      </trkpt>
      <trkpt lat="45.8724" lon="3.15431">
        <ele>327.2</ele>
        <time>2024-04-28T10:18:18Z</time>
      </trkpt>
      <trkpt lat="45.87237" lon="3.15438">
        <ele>327.4</ele>
        <time>2024-04-28T10:18:19Z</time>
      </trkpt>
      <trkpt lat="45.87235" lon="3.15445">
        <ele>327.4</ele>
        <time>2024-04-28T10:18:20Z</time>
      </trkpt>
      <trkpt lat="45.87233" lon="3.15452">
        <ele>327.4</ele>
        <time>2024-04-28T10:18:21Z</time>
      </trkpt>
      <trkpt lat="45.8723" lon="3.15458">
        <ele>327.4</ele>
        <time>2024-04-28T10:18:22Z</time>
      </trkpt>
      <trkpt lat="45.87228" lon="3.15465">
        <ele>327.4</ele>
        <time>2024-04-28T10:18:23Z</time>
      </trkpt>
      <trkpt lat="45.87225" lon="3.15471">
        <ele>327.2</ele>
        <time>2024-04-28T10:18:24Z</time>
      </trkpt>
      <trkpt lat="45.87223" lon="3.15478">
        <ele>327.4</ele>
        <time>2024-04-28T10:18:25Z</time>
      </trkpt>
      <trkpt lat="45.87221" lon="3.15484">
        <ele>327.6</ele>
        <time>2024-04-28T10:18:26Z</time>
      </trkpt>
      <trkpt lat="45.87218" lon="3.15491">
        <ele>327.6</ele>
        <time>2024-04-28T10:18:27Z</time>
      </trkpt>
      <trkpt lat="45.87216" lon="3.15498">
        <ele>327.6</ele>
        <time>2024-04-28T10:18:28Z</time>
      </trkpt>
      <trkpt lat="45.87214" lon="3.15504">
        <ele>327.8</ele>
        <time>2024-04-28T10:18:29Z</time>
      </trkpt>
      <trkpt lat="45.87211" lon="3.15512">
        <ele>327.8</ele>
        <time>2024-04-28T10:18:30Z</time>
      </trkpt>
      <trkpt lat="45.87209" lon="3.15519">
        <ele>327.6</ele>
        <time>2024-04-28T10:18:31Z</time>
      </trkpt>
      <trkpt lat="45.87208" lon="3.15525">
        <ele>327.6</ele>
        <time>2024-04-28T10:18:32Z</time>
      </trkpt>
      <trkpt lat="45.87206" lon="3.15532">
        <ele>327.6</ele>
        <time>2024-04-28T10:18:33Z</time>
      </trkpt>
      <trkpt lat="45.87204" lon="3.15539">
        <ele>327.6</ele>
        <time>2024-04-28T10:18:34Z</time>
      </trkpt>
      <trkpt lat="45.87202" lon="3.15546">
        <ele>327.6</ele>
        <time>2024-04-28T10:18:35Z</time>
      </trkpt>
      <trkpt lat="45.872" lon="3.15553">
        <ele>327.6</ele>
        <time>2024-04-28T10:18:36Z</time>
      </trkpt>
      <trkpt lat="45.87198" lon="3.1556">
        <ele>327.6</ele>
        <time>2024-04-28T10:18:37Z</time>
      </trkpt>
      <trkpt lat="45.87196" lon="3.15566">
        <ele>327.6</ele>
        <time>2024-04-28T10:18:38Z</time>
      </trkpt>
      <trkpt lat="45.87194" lon="3.15573">
        <ele>327.6</ele>
        <time>2024-04-28T10:18:39Z</time>
      </trkpt>
      <trkpt lat="45.87193" lon="3.15579">
        <ele>327.8</ele>
        <time>2024-04-28T10:18:40Z</time>
      </trkpt>
      <trkpt lat="45.87191" lon="3.15586">
        <ele>327.8</ele>
        <time>2024-04-28T10:18:41Z</time>
      </trkpt>
      <trkpt lat="45.87189" lon="3.15593">
        <ele>327.8</ele>
        <time>2024-04-28T10:18:42Z</time>
      </trkpt>
      <trkpt lat="45.87187" lon="3.15601">
        <ele>328</ele>
        <time>2024-04-28T10:18:43Z</time>
      </trkpt>
      <trkpt lat="45.87184" lon="3.15609">
        <ele>328</ele>
        <time>2024-04-28T10:18:44Z</time>
      </trkpt>
      <trkpt lat="45.87183" lon="3.15617">
        <ele>327.8</ele>
        <time>2024-04-28T10:18:45Z</time>
      </trkpt>
      <trkpt lat="45.87181" lon="3.15625">
        <ele>328</ele>
        <time>2024-04-28T10:18:46Z</time>
      </trkpt>
      <trkpt lat="45.87179" lon="3.15632">
        <ele>328</ele>
        <time>2024-04-28T10:18:47Z</time>
      </trkpt>
      <trkpt lat="45.87177" lon="3.1564">
        <ele>328</ele>
        <time>2024-04-28T10:18:48Z</time>
      </trkpt>
      <trkpt lat="45.87175" lon="3.15648">
        <ele>328</ele>
        <time>2024-04-28T10:18:49Z</time>
      </trkpt>
      <trkpt lat="45.87174" lon="3.15656">
        <ele>328</ele>
        <time>2024-04-28T10:18:50Z</time>
      </trkpt>
      <trkpt lat="45.87172" lon="3.15664">
        <ele>328</ele>
        <time>2024-04-28T10:18:51Z</time>
      </trkpt>
      <trkpt lat="45.8717" lon="3.15673">
        <ele>328</ele>
        <time>2024-04-28T10:18:52Z</time>
      </trkpt>
      <trkpt lat="45.87168" lon="3.15682">
        <ele>328</ele>
        <time>2024-04-28T10:18:53Z</time>
      </trkpt>
      <trkpt lat="45.87166" lon="3.1569">
        <ele>328</ele>
        <time>2024-04-28T10:18:54Z</time>
      </trkpt>
      <trkpt lat="45.87165" lon="3.15699">
        <ele>328</ele>
        <time>2024-04-28T10:18:55Z</time>
      </trkpt>
      <trkpt lat="45.87163" lon="3.15708">
        <ele>327.8</ele>
        <time>2024-04-28T10:18:56Z</time>
      </trkpt>
      <trkpt lat="45.87161" lon="3.15717">
        <ele>327.8</ele>
        <time>2024-04-28T10:18:57Z</time>
      </trkpt>
      <trkpt lat="45.8716" lon="3.15726">
        <ele>328</ele>
        <time>2024-04-28T10:18:58Z</time>
      </trkpt>
      <trkpt lat="45.87158" lon="3.15736">
        <ele>327.8</ele>
        <time>2024-04-28T10:18:59Z</time>
      </trkpt>
      <trkpt lat="45.87156" lon="3.15745">
        <ele>327.6</ele>
        <time>2024-04-28T10:19:00Z</time>
      </trkpt>
      <trkpt lat="45.87154" lon="3.15755">
        <ele>327.6</ele>
        <time>2024-04-28T10:19:01Z</time>
      </trkpt>
      <trkpt lat="45.87152" lon="3.15764">
        <ele>327.6</ele>
        <time>2024-04-28T10:19:02Z</time>
      </trkpt>
      <trkpt lat="45.87151" lon="3.15774">
        <ele>327.6</ele>
        <time>2024-04-28T10:19:03Z</time>
      </trkpt>
      <trkpt lat="45.87149" lon="3.15784">
        <ele>327.4</ele>
        <time>2024-04-28T10:19:04Z</time>
      </trkpt>
      <trkpt lat="45.87147" lon="3.15794">
        <ele>327.4</ele>
        <time>2024-04-28T10:19:05Z</time>
      </trkpt>
      <trkpt lat="45.87145" lon="3.15803">
        <ele>327.6</ele>
        <time>2024-04-28T10:19:06Z</time>
      </trkpt>
      <trkpt lat="45.87143" lon="3.15814">
        <ele>327.6</ele>
        <time>2024-04-28T10:19:07Z</time>
      </trkpt>
      <trkpt lat="45.87141" lon="3.15825">
        <ele>327.6</ele>
        <time>2024-04-28T10:19:08Z</time>
      </trkpt>
      <trkpt lat="45.87141" lon="3.15835">
        <ele>327.4</ele>
        <time>2024-04-28T10:19:09Z</time>
      </trkpt>
      <trkpt lat="45.8714" lon="3.15846">
        <ele>327.4</ele>
        <time>2024-04-28T10:19:10Z</time>
      </trkpt>
      <trkpt lat="45.87139" lon="3.15857">
        <ele>327.4</ele>
        <time>2024-04-28T10:19:11Z</time>
      </trkpt>
      <trkpt lat="45.87138" lon="3.15868">
        <ele>327.2</ele>
        <time>2024-04-28T10:19:12Z</time>
      </trkpt>
      <trkpt lat="45.87137" lon="3.15879">
        <ele>327.2</ele>
        <time>2024-04-28T10:19:13Z</time>
      </trkpt>
      <trkpt lat="45.87136" lon="3.1589">
        <ele>327.2</ele>
        <time>2024-04-28T10:19:14Z</time>
      </trkpt>
      <trkpt lat="45.87136" lon="3.15901">
        <ele>327.2</ele>
        <time>2024-04-28T10:19:15Z</time>
      </trkpt>
      <trkpt lat="45.87135" lon="3.15912">
        <ele>327.2</ele>
        <time>2024-04-28T10:19:16Z</time>
      </trkpt>
      <trkpt lat="45.87134" lon="3.15924">
        <ele>327</ele>
        <time>2024-04-28T10:19:17Z</time>
      </trkpt>
      <trkpt lat="45.87133" lon="3.15935">
        <ele>327</ele>
        <time>2024-04-28T10:19:18Z</time>
      </trkpt>
      <trkpt lat="45.87132" lon="3.15946">
        <ele>326.8</ele>
        <time>2024-04-28T10:19:19Z</time>
      </trkpt>
      <trkpt lat="45.87131" lon="3.15957">
        <ele>326.8</ele>
        <time>2024-04-28T10:19:20Z</time>
      </trkpt>
      <trkpt lat="45.87131" lon="3.15968">
        <ele>326.8</ele>
        <time>2024-04-28T10:19:21Z</time>
      </trkpt>
      <trkpt lat="45.8713" lon="3.15979">
        <ele>326.6</ele>
        <time>2024-04-28T10:19:22Z</time>
      </trkpt>
      <trkpt lat="45.87129" lon="3.1599">
        <ele>326.6</ele>
        <time>2024-04-28T10:19:23Z</time>
      </trkpt>
      <trkpt lat="45.87128" lon="3.16">
        <ele>326.6</ele>
        <time>2024-04-28T10:19:24Z</time>
      </trkpt>
      <trkpt lat="45.87127" lon="3.16011">
        <ele>326.6</ele>
        <time>2024-04-28T10:19:25Z</time>
      </trkpt>
      <trkpt lat="45.87127" lon="3.16021">
        <ele>326.6</ele>
        <time>2024-04-28T10:19:26Z</time>
      </trkpt>
      <trkpt lat="45.87126" lon="3.16031">
        <ele>326.4</ele>
        <time>2024-04-28T10:19:27Z</time>
      </trkpt>
      <trkpt lat="45.87125" lon="3.16041">
        <ele>326.4</ele>
        <time>2024-04-28T10:19:28Z</time>
      </trkpt>
      <trkpt lat="45.87124" lon="3.16051">
        <ele>326.4</ele>
        <time>2024-04-28T10:19:29Z</time>
      </trkpt>
      <trkpt lat="45.87122" lon="3.16061">
        <ele>326.4</ele>
        <time>2024-04-28T10:19:30Z</time>
      </trkpt>
      <trkpt lat="45.8712" lon="3.1607">
        <ele>326.4</ele>
        <time>2024-04-28T10:19:31Z</time>
      </trkpt>
      <trkpt lat="45.87118" lon="3.1608">
        <ele>326.2</ele>
        <time>2024-04-28T10:19:32Z</time>
      </trkpt>
      <trkpt lat="45.87117" lon="3.1609">
        <ele>326.2</ele>
        <time>2024-04-28T10:19:33Z</time>
      </trkpt>
      <trkpt lat="45.87114" lon="3.161">
        <ele>326.2</ele>
        <time>2024-04-28T10:19:34Z</time>
      </trkpt>
      <trkpt lat="45.87112" lon="3.16109">
        <ele>326.2</ele>
        <time>2024-04-28T10:19:35Z</time>
      </trkpt>
      <trkpt lat="45.87111" lon="3.16119">
        <ele>326.2</ele>
        <time>2024-04-28T10:19:36Z</time>
      </trkpt>
      <trkpt lat="45.87109" lon="3.16129">
        <ele>326.2</ele>
        <time>2024-04-28T10:19:37Z</time>
      </trkpt>
      <trkpt lat="45.87107" lon="3.16138">
        <ele>326.2</ele>
        <time>2024-04-28T10:19:38Z</time>
      </trkpt>
      <trkpt lat="45.87105" lon="3.16148">
        <ele>326</ele>
        <time>2024-04-28T10:19:39Z</time>
      </trkpt>
      <trkpt lat="45.87103" lon="3.16158">
        <ele>326</ele>
        <time>2024-04-28T10:19:40Z</time>
      </trkpt>
      <trkpt lat="45.87101" lon="3.16168">
        <ele>325.8</ele>
        <time>2024-04-28T10:19:41Z</time>
      </trkpt>
      <trkpt lat="45.87099" lon="3.16178">
        <ele>325.8</ele>
        <time>2024-04-28T10:19:42Z</time>
      </trkpt>
      <trkpt lat="45.87096" lon="3.16188">
        <ele>325.8</ele>
        <time>2024-04-28T10:19:43Z</time>
      </trkpt>
      <trkpt lat="45.87094" lon="3.16198">
        <ele>325.8</ele>
        <time>2024-04-28T10:19:44Z</time>
      </trkpt>
      <trkpt lat="45.87092" lon="3.16208">
        <ele>325.8</ele>
        <time>2024-04-28T10:19:45Z</time>
      </trkpt>
      <trkpt lat="45.8709" lon="3.16218">
        <ele>325.8</ele>
        <time>2024-04-28T10:19:46Z</time>
      </trkpt>
      <trkpt lat="45.87088" lon="3.16227">
        <ele>325.6</ele>
        <time>2024-04-28T10:19:47Z</time>
      </trkpt>
      <trkpt lat="45.87086" lon="3.16237">
        <ele>325.6</ele>
        <time>2024-04-28T10:19:48Z</time>
      </trkpt>
      <trkpt lat="45.87084" lon="3.16247">
        <ele>325.6</ele>
        <time>2024-04-28T10:19:49Z</time>
      </trkpt>
      <trkpt lat="45.87082" lon="3.16257">
        <ele>325.4</ele>
        <time>2024-04-28T10:19:50Z</time>
      </trkpt>
      <trkpt lat="45.8708" lon="3.16267">
        <ele>325.6</ele>
        <time>2024-04-28T10:19:51Z</time>
      </trkpt>
      <trkpt lat="45.87078" lon="3.16277">
        <ele>325.6</ele>
        <time>2024-04-28T10:19:52Z</time>
      </trkpt>
      <trkpt lat="45.87076" lon="3.16287">
        <ele>325.4</ele>
        <time>2024-04-28T10:19:53Z</time>
      </trkpt>
      <trkpt lat="45.87074" lon="3.16297">
        <ele>325.4</ele>
        <time>2024-04-28T10:19:54Z</time>
      </trkpt>
      <trkpt lat="45.87072" lon="3.16307">
        <ele>325.4</ele>
        <time>2024-04-28T10:19:55Z</time>
      </trkpt>
      <trkpt lat="45.8707" lon="3.16317">
        <ele>325.4</ele>
        <time>2024-04-28T10:19:56Z</time>
      </trkpt>
      <trkpt lat="45.87068" lon="3.16327">
        <ele>325.4</ele>
        <time>2024-04-28T10:19:57Z</time>
      </trkpt>
      <trkpt lat="45.87066" lon="3.16337">
        <ele>325.4</ele>
        <time>2024-04-28T10:19:58Z</time>
      </trkpt>
      <trkpt lat="45.87064" lon="3.16346">
        <ele>325.4</ele>
        <time>2024-04-28T10:19:59Z</time>
      </trkpt>
      <trkpt lat="45.87062" lon="3.16356">
        <ele>325.2</ele>
        <time>2024-04-28T10:20:00Z</time>
      </trkpt>
      <trkpt lat="45.87059" lon="3.16366">
        <ele>325.2</ele>
        <time>2024-04-28T10:20:01Z</time>
      </trkpt>
      <trkpt lat="45.87057" lon="3.16376">
        <ele>325.2</ele>
        <time>2024-04-28T10:20:02Z</time>
      </trkpt>
      <trkpt lat="45.87055" lon="3.16385">
        <ele>325.2</ele>
        <time>2024-04-28T10:20:03Z</time>
      </trkpt>
      <trkpt lat="45.87053" lon="3.16395">
        <ele>325.2</ele>
        <time>2024-04-28T10:20:04Z</time>
      </trkpt>
      <trkpt lat="45.87051" lon="3.16405">
        <ele>325.2</ele>
        <time>2024-04-28T10:20:05Z</time>
      </trkpt>
      <trkpt lat="45.87049" lon="3.16415">
        <ele>325.2</ele>
        <time>2024-04-28T10:20:06Z</time>
      </trkpt>
      <trkpt lat="45.87047" lon="3.16424">
        <ele>325.2</ele>
        <time>2024-04-28T10:20:07Z</time>
      </trkpt>
      <trkpt lat="45.87045" lon="3.16434">
        <ele>325</ele>
        <time>2024-04-28T10:20:08Z</time>
      </trkpt>
      <trkpt lat="45.87043" lon="3.16444">
        <ele>325</ele>
        <time>2024-04-28T10:20:09Z</time>
      </trkpt>
      <trkpt lat="45.87041" lon="3.16453">
        <ele>325</ele>
        <time>2024-04-28T10:20:10Z</time>
      </trkpt>
      <trkpt lat="45.87039" lon="3.16463">
        <ele>325</ele>
        <time>2024-04-28T10:20:11Z</time>
      </trkpt>
      <trkpt lat="45.87036" lon="3.16472">
        <ele>325</ele>
        <time>2024-04-28T10:20:12Z</time>
      </trkpt>
      <trkpt lat="45.87034" lon="3.16481">
        <ele>324.8</ele>
        <time>2024-04-28T10:20:13Z</time>
      </trkpt>
      <trkpt lat="45.87031" lon="3.16491">
        <ele>324.8</ele>
        <time>2024-04-28T10:20:14Z</time>
      </trkpt>
      <trkpt lat="45.87029" lon="3.165">
        <ele>325</ele>
        <time>2024-04-28T10:20:15Z</time>
      </trkpt>
      <trkpt lat="45.87027" lon="3.16509">
        <ele>324.8</ele>
        <time>2024-04-28T10:20:16Z</time>
      </trkpt>
      <trkpt lat="45.87024" lon="3.16518">
        <ele>324.8</ele>
        <time>2024-04-28T10:20:17Z</time>
      </trkpt>
      <trkpt lat="45.87022" lon="3.16527">
        <ele>324.8</ele>
        <time>2024-04-28T10:20:18Z</time>
      </trkpt>
      <trkpt lat="45.8702" lon="3.16536">
        <ele>324.8</ele>
        <time>2024-04-28T10:20:19Z</time>
      </trkpt>
      <trkpt lat="45.87017" lon="3.16545">
        <ele>324.8</ele>
        <time>2024-04-28T10:20:20Z</time>
      </trkpt>
      <trkpt lat="45.87015" lon="3.16555">
        <ele>324.8</ele>
        <time>2024-04-28T10:20:21Z</time>
      </trkpt>
      <trkpt lat="45.87013" lon="3.16564">
        <ele>324.8</ele>
        <time>2024-04-28T10:20:22Z</time>
      </trkpt>
      <trkpt lat="45.8701" lon="3.16573">
        <ele>324.8</ele>
        <time>2024-04-28T10:20:23Z</time>
      </trkpt>
      <trkpt lat="45.87008" lon="3.16582">
        <ele>324.8</ele>
        <time>2024-04-28T10:20:24Z</time>
      </trkpt>
      <trkpt lat="45.87006" lon="3.16591">
        <ele>324.8</ele>
        <time>2024-04-28T10:20:25Z</time>
      </trkpt>
      <trkpt lat="45.87003" lon="3.166">
        <ele>324.8</ele>
        <time>2024-04-28T10:20:26Z</time>
      </trkpt>
      <trkpt lat="45.87001" lon="3.16609">
        <ele>324.8</ele>
        <time>2024-04-28T10:20:27Z</time>
      </trkpt>
      <trkpt lat="45.86999" lon="3.16618">
        <ele>324.8</ele>
        <time>2024-04-28T10:20:28Z</time>
      </trkpt>
      <trkpt lat="45.86996" lon="3.16626">
        <ele>324.6</ele>
        <time>2024-04-28T10:20:29Z</time>
      </trkpt>
      <trkpt lat="45.86994" lon="3.16635">
        <ele>324.6</ele>
        <time>2024-04-28T10:20:30Z</time>
      </trkpt>
      <trkpt lat="45.86992" lon="3.16644">
        <ele>324.8</ele>
        <time>2024-04-28T10:20:31Z</time>
      </trkpt>
      <trkpt lat="45.86989" lon="3.16653">
        <ele>324.6</ele>
        <time>2024-04-28T10:20:32Z</time>
      </trkpt>
      <trkpt lat="45.86987" lon="3.16663">
        <ele>324.6</ele>
        <time>2024-04-28T10:20:33Z</time>
      </trkpt>
      <trkpt lat="45.86985" lon="3.16672">
        <ele>324.6</ele>
        <time>2024-04-28T10:20:34Z</time>
      </trkpt>
      <trkpt lat="45.86982" lon="3.16681">
        <ele>324.6</ele>
        <time>2024-04-28T10:20:35Z</time>
      </trkpt>
      <trkpt lat="45.8698" lon="3.1669">
        <ele>324.6</ele>
        <time>2024-04-28T10:20:36Z</time>
      </trkpt>
      <trkpt lat="45.86978" lon="3.16699">
        <ele>324.6</ele>
        <time>2024-04-28T10:20:37Z</time>
      </trkpt>
      <trkpt lat="45.86975" lon="3.16708">
        <ele>324.6</ele>
        <time>2024-04-28T10:20:38Z</time>
      </trkpt>
      <trkpt lat="45.86973" lon="3.16718">
        <ele>324.6</ele>
        <time>2024-04-28T10:20:39Z</time>
      </trkpt>
      <trkpt lat="45.86971" lon="3.16727">
        <ele>324.6</ele>
        <time>2024-04-28T10:20:40Z</time>
      </trkpt>
      <trkpt lat="45.86968" lon="3.16736">
        <ele>324.6</ele>
        <time>2024-04-28T10:20:41Z</time>
      </trkpt>
      <trkpt lat="45.86966" lon="3.16746">
        <ele>324.6</ele>
        <time>2024-04-28T10:20:42Z</time>
      </trkpt>
      <trkpt lat="45.86963" lon="3.16755">
        <ele>324.4</ele>
        <time>2024-04-28T10:20:43Z</time>
      </trkpt>
      <trkpt lat="45.86961" lon="3.16764">
        <ele>324.4</ele>
        <time>2024-04-28T10:20:44Z</time>
      </trkpt>
      <trkpt lat="45.86958" lon="3.16774">
        <ele>324.4</ele>
        <time>2024-04-28T10:20:45Z</time>
      </trkpt>
      <trkpt lat="45.86956" lon="3.16783">
        <ele>324.4</ele>
        <time>2024-04-28T10:20:46Z</time>
      </trkpt>
      <trkpt lat="45.86954" lon="3.16793">
        <ele>324.2</ele>
        <time>2024-04-28T10:20:47Z</time>
      </trkpt>
      <trkpt lat="45.86951" lon="3.16802">
        <ele>324.2</ele>
        <time>2024-04-28T10:20:48Z</time>
      </trkpt>
      <trkpt lat="45.86949" lon="3.16812">
        <ele>324.2</ele>
        <time>2024-04-28T10:20:49Z</time>
      </trkpt>
      <trkpt lat="45.86946" lon="3.16821">
        <ele>324</ele>
        <time>2024-04-28T10:20:50Z</time>
      </trkpt>
      <trkpt lat="45.86945" lon="3.16831">
        <ele>324</ele>
        <time>2024-04-28T10:20:51Z</time>
      </trkpt>
      <trkpt lat="45.86943" lon="3.1684">
        <ele>324</ele>
        <time>2024-04-28T10:20:52Z</time>
      </trkpt>
      <trkpt lat="45.86941" lon="3.1685">
        <ele>324</ele>
        <time>2024-04-28T10:20:53Z</time>
      </trkpt>
      <trkpt lat="45.86939" lon="3.16859">
        <ele>324</ele>
        <time>2024-04-28T10:20:54Z</time>
      </trkpt>
      <trkpt lat="45.86938" lon="3.16869">
        <ele>323.8</ele>
        <time>2024-04-28T10:20:55Z</time>
      </trkpt>
      <trkpt lat="45.86937" lon="3.16879">
        <ele>323.8</ele>
        <time>2024-04-28T10:20:56Z</time>
      </trkpt>
      <trkpt lat="45.86936" lon="3.16888">
        <ele>323.8</ele>
        <time>2024-04-28T10:20:57Z</time>
      </trkpt>
      <trkpt lat="45.86935" lon="3.16898">
        <ele>323.8</ele>
        <time>2024-04-28T10:20:58Z</time>
      </trkpt>
      <trkpt lat="45.86934" lon="3.16908">
        <ele>323.8</ele>
        <time>2024-04-28T10:20:59Z</time>
      </trkpt>
      <trkpt lat="45.86933" lon="3.16918">
        <ele>323.8</ele>
        <time>2024-04-28T10:21:00Z</time>
      </trkpt>
      <trkpt lat="45.86932" lon="3.16928">
        <ele>323.6</ele>
        <time>2024-04-28T10:21:01Z</time>
      </trkpt>
      <trkpt lat="45.86931" lon="3.16938">
        <ele>323.6</ele>
        <time>2024-04-28T10:21:02Z</time>
      </trkpt>
      <trkpt lat="45.8693" lon="3.16948">
        <ele>323.6</ele>
        <time>2024-04-28T10:21:03Z</time>
      </trkpt>
      <trkpt lat="45.86929" lon="3.16958">
        <ele>323.6</ele>
        <time>2024-04-28T10:21:04Z</time>
      </trkpt>
      <trkpt lat="45.86928" lon="3.16968">
        <ele>323.4</ele>
        <time>2024-04-28T10:21:05Z</time>
      </trkpt>
      <trkpt lat="45.86927" lon="3.16979">
        <ele>323.4</ele>
        <time>2024-04-28T10:21:06Z</time>
      </trkpt>
      <trkpt lat="45.86927" lon="3.16989">
        <ele>323.4</ele>
        <time>2024-04-28T10:21:07Z</time>
      </trkpt>
      <trkpt lat="45.86926" lon="3.16999">
        <ele>323.4</ele>
        <time>2024-04-28T10:21:08Z</time>
      </trkpt>
      <trkpt lat="45.86926" lon="3.1701">
        <ele>323.2</ele>
        <time>2024-04-28T10:21:09Z</time>
      </trkpt>
      <trkpt lat="45.86926" lon="3.1702">
        <ele>323.2</ele>
        <time>2024-04-28T10:21:10Z</time>
      </trkpt>
      <trkpt lat="45.86925" lon="3.1703">
        <ele>323.2</ele>
        <time>2024-04-28T10:21:11Z</time>
      </trkpt>
      <trkpt lat="45.86925" lon="3.1704">
        <ele>323.2</ele>
        <time>2024-04-28T10:21:12Z</time>
      </trkpt>
      <trkpt lat="45.86925" lon="3.17051">
        <ele>323.2</ele>
        <time>2024-04-28T10:21:13Z</time>
      </trkpt>
      <trkpt lat="45.86924" lon="3.17061">
        <ele>323.2</ele>
        <time>2024-04-28T10:21:14Z</time>
      </trkpt>
      <trkpt lat="45.86924" lon="3.17071">
        <ele>323.2</ele>
        <time>2024-04-28T10:21:15Z</time>
      </trkpt>
      <trkpt lat="45.86924" lon="3.17082">
        <ele>323.2</ele>
        <time>2024-04-28T10:21:16Z</time>
      </trkpt>
      <trkpt lat="45.86923" lon="3.17092">
        <ele>323.2</ele>
        <time>2024-04-28T10:21:17Z</time>
      </trkpt>
      <trkpt lat="45.86923" lon="3.17103">
        <ele>323.2</ele>
        <time>2024-04-28T10:21:18Z</time>
      </trkpt>
      <trkpt lat="45.86922" lon="3.17113">
        <ele>323.2</ele>
        <time>2024-04-28T10:21:19Z</time>
      </trkpt>
      <trkpt lat="45.86922" lon="3.17123">
        <ele>323.2</ele>
        <time>2024-04-28T10:21:20Z</time>
      </trkpt>
      <trkpt lat="45.86922" lon="3.17134">
        <ele>323.2</ele>
        <time>2024-04-28T10:21:21Z</time>
      </trkpt>
      <trkpt lat="45.86921" lon="3.17144">
        <ele>323.2</ele>
        <time>2024-04-28T10:21:22Z</time>
      </trkpt>
      <trkpt lat="45.86921" lon="3.17154">
        <ele>323.2</ele>
        <time>2024-04-28T10:21:23Z</time>
      </trkpt>
      <trkpt lat="45.86921" lon="3.17164">
        <ele>323.2</ele>
        <time>2024-04-28T10:21:24Z</time>
      </trkpt>
      <trkpt lat="45.8692" lon="3.17175">
        <ele>323.2</ele>
        <time>2024-04-28T10:21:25Z</time>
      </trkpt>
      <trkpt lat="45.8692" lon="3.17185">
        <ele>323.2</ele>
        <time>2024-04-28T10:21:26Z</time>
      </trkpt>
      <trkpt lat="45.8692" lon="3.17195">
        <ele>323.2</ele>
        <time>2024-04-28T10:21:27Z</time>
      </trkpt>
      <trkpt lat="45.86919" lon="3.17205">
        <ele>323.2</ele>
        <time>2024-04-28T10:21:28Z</time>
      </trkpt>
      <trkpt lat="45.86919" lon="3.17216">
        <ele>323.2</ele>
        <time>2024-04-28T10:21:29Z</time>
      </trkpt>
      <trkpt lat="45.86919" lon="3.17226">
        <ele>323.2</ele>
        <time>2024-04-28T10:21:30Z</time>
      </trkpt>
      <trkpt lat="45.86918" lon="3.17237">
        <ele>323.2</ele>
        <time>2024-04-28T10:21:31Z</time>
      </trkpt>
      <trkpt lat="45.86918" lon="3.17247">
        <ele>323.2</ele>
        <time>2024-04-28T10:21:32Z</time>
      </trkpt>
      <trkpt lat="45.86918" lon="3.17257">
        <ele>323.2</ele>
        <time>2024-04-28T10:21:33Z</time>
      </trkpt>
      <trkpt lat="45.86917" lon="3.17267">
        <ele>323.2</ele>
        <time>2024-04-28T10:21:34Z</time>
      </trkpt>
      <trkpt lat="45.86917" lon="3.17277">
        <ele>323.2</ele>
        <time>2024-04-28T10:21:35Z</time>
      </trkpt>
      <trkpt lat="45.86917" lon="3.17287">
        <ele>323.2</ele>
        <time>2024-04-28T10:21:36Z</time>
      </trkpt>
      <trkpt lat="45.86916" lon="3.17298">
        <ele>323.2</ele>
        <time>2024-04-28T10:21:37Z</time>
      </trkpt>
      <trkpt lat="45.86916" lon="3.17308">
        <ele>323</ele>
        <time>2024-04-28T10:21:38Z</time>
      </trkpt>
      <trkpt lat="45.86916" lon="3.17318">
        <ele>323</ele>
        <time>2024-04-28T10:21:39Z</time>
      </trkpt>
      <trkpt lat="45.86915" lon="3.17328">
        <ele>323</ele>
        <time>2024-04-28T10:21:40Z</time>
      </trkpt>
      <trkpt lat="45.86915" lon="3.17339">
        <ele>323</ele>
        <time>2024-04-28T10:21:41Z</time>
      </trkpt>
      <trkpt lat="45.86914" lon="3.17349">
        <ele>323</ele>
        <time>2024-04-28T10:21:42Z</time>
      </trkpt>
      <trkpt lat="45.86914" lon="3.17359">
        <ele>323.2</ele>
        <time>2024-04-28T10:21:43Z</time>
      </trkpt>
      <trkpt lat="45.86914" lon="3.17369">
        <ele>323.2</ele>
        <time>2024-04-28T10:21:44Z</time>
      </trkpt>
      <trkpt lat="45.86913" lon="3.17379">
        <ele>323</ele>
        <time>2024-04-28T10:21:45Z</time>
      </trkpt>
      <trkpt lat="45.86913" lon="3.17389">
        <ele>323</ele>
        <time>2024-04-28T10:21:46Z</time>
      </trkpt>
      <trkpt lat="45.86913" lon="3.17399">
        <ele>323</ele>
        <time>2024-04-28T10:21:47Z</time>
      </trkpt>
      <trkpt lat="45.86912" lon="3.17409">
        <ele>323</ele>
        <time>2024-04-28T10:21:48Z</time>
      </trkpt>
      <trkpt lat="45.86912" lon="3.17419">
        <ele>323</ele>
        <time>2024-04-28T10:21:49Z</time>
      </trkpt>
      <trkpt lat="45.86912" lon="3.17429">
        <ele>323</ele>
        <time>2024-04-28T10:21:50Z</time>
      </trkpt>
      <trkpt lat="45.86911" lon="3.17439">
        <ele>323</ele>
        <time>2024-04-28T10:21:51Z</time>
      </trkpt>
      <trkpt lat="45.86911" lon="3.17449">
        <ele>323</ele>
        <time>2024-04-28T10:21:52Z</time>
      </trkpt>
      <trkpt lat="45.86911" lon="3.17458">
        <ele>323</ele>
        <time>2024-04-28T10:21:53Z</time>
      </trkpt>
      <trkpt lat="45.8691" lon="3.17468">
        <ele>323</ele>
        <time>2024-04-28T10:21:54Z</time>
      </trkpt>
      <trkpt lat="45.8691" lon="3.17478">
        <ele>322.8</ele>
        <time>2024-04-28T10:21:55Z</time>
      </trkpt>
      <trkpt lat="45.8691" lon="3.17488">
        <ele>323</ele>
        <time>2024-04-28T10:21:56Z</time>
      </trkpt>
      <trkpt lat="45.86909" lon="3.17498">
        <ele>322.8</ele>
        <time>2024-04-28T10:21:57Z</time>
      </trkpt>
      <trkpt lat="45.86909" lon="3.17508">
        <ele>322.8</ele>
        <time>2024-04-28T10:21:58Z</time>
      </trkpt>
      <trkpt lat="45.86909" lon="3.17518">
        <ele>322.8</ele>
        <time>2024-04-28T10:21:59Z</time>
      </trkpt>
      <trkpt lat="45.86908" lon="3.17528">
        <ele>322.8</ele>
        <time>2024-04-28T10:22:00Z</time>
      </trkpt>
      <trkpt lat="45.86908" lon="3.17539">
        <ele>322.8</ele>
        <time>2024-04-28T10:22:01Z</time>
      </trkpt>
      <trkpt lat="45.86908" lon="3.17549">
        <ele>322.8</ele>
        <time>2024-04-28T10:22:02Z</time>
      </trkpt>
      <trkpt lat="45.86907" lon="3.17559">
        <ele>322.8</ele>
        <time>2024-04-28T10:22:03Z</time>
      </trkpt>
      <trkpt lat="45.86907" lon="3.17569">
        <ele>322.8</ele>
        <time>2024-04-28T10:22:04Z</time>
      </trkpt>
      <trkpt lat="45.86907" lon="3.17579">
        <ele>322.8</ele>
        <time>2024-04-28T10:22:05Z</time>
      </trkpt>
      <trkpt lat="45.86906" lon="3.17589">
        <ele>322.8</ele>
        <time>2024-04-28T10:22:06Z</time>
      </trkpt>
      <trkpt lat="45.86906" lon="3.17599">
        <ele>322.8</ele>
        <time>2024-04-28T10:22:07Z</time>
      </trkpt>
      <trkpt lat="45.86906" lon="3.17608">
        <ele>322.6</ele>
        <time>2024-04-28T10:22:08Z</time>
      </trkpt>
      <trkpt lat="45.86905" lon="3.17618">
        <ele>322.6</ele>
        <time>2024-04-28T10:22:09Z</time>
      </trkpt>
      <trkpt lat="45.86905" lon="3.17628">
        <ele>322.6</ele>
        <time>2024-04-28T10:22:10Z</time>
      </trkpt>
      <trkpt lat="45.86905" lon="3.17638">
        <ele>322.8</ele>
        <time>2024-04-28T10:22:11Z</time>
      </trkpt>
      <trkpt lat="45.86904" lon="3.17648">
        <ele>322.6</ele>
        <time>2024-04-28T10:22:12Z</time>
      </trkpt>
      <trkpt lat="45.86904" lon="3.17658">
        <ele>322.8</ele>
        <time>2024-04-28T10:22:13Z</time>
      </trkpt>
      <trkpt lat="45.86904" lon="3.17668">
        <ele>322.8</ele>
        <time>2024-04-28T10:22:14Z</time>
      </trkpt>
      <trkpt lat="45.86903" lon="3.17677">
        <ele>322.8</ele>
        <time>2024-04-28T10:22:15Z</time>
      </trkpt>
      <trkpt lat="45.86903" lon="3.17687">
        <ele>322.8</ele>
        <time>2024-04-28T10:22:16Z</time>
      </trkpt>
      <trkpt lat="45.86903" lon="3.17698">
        <ele>322.6</ele>
        <time>2024-04-28T10:22:17Z</time>
      </trkpt>
      <trkpt lat="45.86902" lon="3.17708">
        <ele>322.8</ele>
        <time>2024-04-28T10:22:18Z</time>
      </trkpt>
      <trkpt lat="45.86902" lon="3.17718">
        <ele>322.8</ele>
        <time>2024-04-28T10:22:19Z</time>
      </trkpt>
      <trkpt lat="45.86902" lon="3.17728">
        <ele>322.6</ele>
        <time>2024-04-28T10:22:20Z</time>
      </trkpt>
      <trkpt lat="45.86901" lon="3.17737">
        <ele>322.8</ele>
        <time>2024-04-28T10:22:21Z</time>
      </trkpt>
      <trkpt lat="45.86901" lon="3.17747">
        <ele>322.8</ele>
        <time>2024-04-28T10:22:22Z</time>
      </trkpt>
      <trkpt lat="45.86901" lon="3.17757">
        <ele>322.8</ele>
        <time>2024-04-28T10:22:23Z</time>
      </trkpt>
      <trkpt lat="45.869" lon="3.17767">
        <ele>322.8</ele>
        <time>2024-04-28T10:22:24Z</time>
      </trkpt>
      <trkpt lat="45.869" lon="3.17777">
        <ele>322.8</ele>
        <time>2024-04-28T10:22:25Z</time>
      </trkpt>
      <trkpt lat="45.869" lon="3.17787">
        <ele>322.8</ele>
        <time>2024-04-28T10:22:26Z</time>
      </trkpt>
      <trkpt lat="45.86899" lon="3.17797">
        <ele>322.6</ele>
        <time>2024-04-28T10:22:27Z</time>
      </trkpt>
      <trkpt lat="45.86899" lon="3.17806">
        <ele>322.6</ele>
        <time>2024-04-28T10:22:28Z</time>
      </trkpt>
      <trkpt lat="45.86899" lon="3.17816">
        <ele>322.6</ele>
        <time>2024-04-28T10:22:29Z</time>
      </trkpt>
      <trkpt lat="45.86898" lon="3.17826">
        <ele>322.6</ele>
        <time>2024-04-28T10:22:30Z</time>
      </trkpt>
      <trkpt lat="45.86898" lon="3.17836">
        <ele>322.6</ele>
        <time>2024-04-28T10:22:31Z</time>
      </trkpt>
      <trkpt lat="45.86898" lon="3.17845">
        <ele>322.6</ele>
        <time>2024-04-28T10:22:32Z</time>
      </trkpt>
      <trkpt lat="45.86897" lon="3.17855">
        <ele>322.6</ele>
        <time>2024-04-28T10:22:33Z</time>
      </trkpt>
      <trkpt lat="45.86897" lon="3.17865">
        <ele>322.6</ele>
        <time>2024-04-28T10:22:34Z</time>
      </trkpt>
      <trkpt lat="45.86897" lon="3.17874">
        <ele>322.6</ele>
        <time>2024-04-28T10:22:35Z</time>
      </trkpt>
      <trkpt lat="45.86896" lon="3.17884">
        <ele>322.4</ele>
        <time>2024-04-28T10:22:36Z</time>
      </trkpt>
      <trkpt lat="45.86896" lon="3.17893">
        <ele>322.4</ele>
        <time>2024-04-28T10:22:37Z</time>
      </trkpt>
      <trkpt lat="45.86896" lon="3.17903">
        <ele>322.4</ele>
        <time>2024-04-28T10:22:38Z</time>
      </trkpt>
      <trkpt lat="45.86895" lon="3.17912">
        <ele>322.4</ele>
        <time>2024-04-28T10:22:39Z</time>
      </trkpt>
      <trkpt lat="45.86895" lon="3.17922">
        <ele>322.4</ele>
        <time>2024-04-28T10:22:40Z</time>
      </trkpt>
      <trkpt lat="45.86895" lon="3.17931">
        <ele>322.4</ele>
        <time>2024-04-28T10:22:41Z</time>
      </trkpt>
      <trkpt lat="45.86894" lon="3.17941">
        <ele>322.4</ele>
        <time>2024-04-28T10:22:42Z</time>
      </trkpt>
      <trkpt lat="45.86894" lon="3.17951">
        <ele>322.4</ele>
        <time>2024-04-28T10:22:43Z</time>
      </trkpt>
      <trkpt lat="45.86894" lon="3.17961">
        <ele>322.4</ele>
        <time>2024-04-28T10:22:44Z</time>
      </trkpt>
      <trkpt lat="45.86893" lon="3.17971">
        <ele>322.4</ele>
        <time>2024-04-28T10:22:45Z</time>
      </trkpt>
      <trkpt lat="45.86893" lon="3.17981">
        <ele>322.4</ele>
        <time>2024-04-28T10:22:46Z</time>
      </trkpt>
      <trkpt lat="45.86893" lon="3.17991">
        <ele>322.4</ele>
        <time>2024-04-28T10:22:47Z</time>
      </trkpt>
      <trkpt lat="45.86892" lon="3.18001">
        <ele>322.4</ele>
        <time>2024-04-28T10:22:48Z</time>
      </trkpt>
      <trkpt lat="45.86892" lon="3.18011">
        <ele>322.4</ele>
        <time>2024-04-28T10:22:49Z</time>
      </trkpt>
      <trkpt lat="45.86892" lon="3.18021">
        <ele>322.4</ele>
        <time>2024-04-28T10:22:50Z</time>
      </trkpt>
      <trkpt lat="45.86891" lon="3.18031">
        <ele>322.4</ele>
        <time>2024-04-28T10:22:51Z</time>
      </trkpt>
      <trkpt lat="45.86891" lon="3.18041">
        <ele>322.4</ele>
        <time>2024-04-28T10:22:52Z</time>
      </trkpt>
      <trkpt lat="45.86891" lon="3.18051">
        <ele>322.2</ele>
        <time>2024-04-28T10:22:53Z</time>
      </trkpt>
      <trkpt lat="45.8689" lon="3.1806">
        <ele>322.2</ele>
        <time>2024-04-28T10:22:54Z</time>
      </trkpt>
      <trkpt lat="45.8689" lon="3.1807">
        <ele>322.2</ele>
        <time>2024-04-28T10:22:55Z</time>
      </trkpt>
      <trkpt lat="45.8689" lon="3.18079">
        <ele>322.2</ele>
        <time>2024-04-28T10:22:56Z</time>
      </trkpt>
      <trkpt lat="45.86889" lon="3.18089">
        <ele>322.2</ele>
        <time>2024-04-28T10:22:57Z</time>
      </trkpt>
      <trkpt lat="45.86889" lon="3.18098">
        <ele>322.2</ele>
        <time>2024-04-28T10:22:58Z</time>
      </trkpt>
      <trkpt lat="45.86889" lon="3.18107">
        <ele>322.2</ele>
        <time>2024-04-28T10:22:59Z</time>
      </trkpt>
      <trkpt lat="45.86888" lon="3.18117">
        <ele>322.2</ele>
        <time>2024-04-28T10:23:00Z</time>
      </trkpt>
      <trkpt lat="45.86888" lon="3.18127">
        <ele>322.2</ele>
        <time>2024-04-28T10:23:01Z</time>
      </trkpt>
      <trkpt lat="45.86888" lon="3.18136">
        <ele>322</ele>
        <time>2024-04-28T10:23:02Z</time>
      </trkpt>
      <trkpt lat="45.86887" lon="3.18145">
        <ele>322</ele>
        <time>2024-04-28T10:23:03Z</time>
      </trkpt>
      <trkpt lat="45.86887" lon="3.18155">
        <ele>322</ele>
        <time>2024-04-28T10:23:04Z</time>
      </trkpt>
      <trkpt lat="45.86887" lon="3.18164">
        <ele>322</ele>
        <time>2024-04-28T10:23:05Z</time>
      </trkpt>
      <trkpt lat="45.86886" lon="3.18174">
        <ele>322</ele>
        <time>2024-04-28T10:23:06Z</time>
      </trkpt>
      <trkpt lat="45.86886" lon="3.18183">
        <ele>322</ele>
        <time>2024-04-28T10:23:07Z</time>
      </trkpt>
      <trkpt lat="45.86886" lon="3.18193">
        <ele>322</ele>
        <time>2024-04-28T10:23:08Z</time>
      </trkpt>
      <trkpt lat="45.86886" lon="3.18202">
        <ele>322</ele>
        <time>2024-04-28T10:23:09Z</time>
      </trkpt>
      <trkpt lat="45.86885" lon="3.18212">
        <ele>321.8</ele>
        <time>2024-04-28T10:23:10Z</time>
      </trkpt>
      <trkpt lat="45.86885" lon="3.18221">
        <ele>321.8</ele>
        <time>2024-04-28T10:23:11Z</time>
      </trkpt>
      <trkpt lat="45.86885" lon="3.18231">
        <ele>321.8</ele>
        <time>2024-04-28T10:23:12Z</time>
      </trkpt>
      <trkpt lat="45.86884" lon="3.18241">
        <ele>321.8</ele>
        <time>2024-04-28T10:23:13Z</time>
      </trkpt>
      <trkpt lat="45.86884" lon="3.1825">
        <ele>321.8</ele>
        <time>2024-04-28T10:23:14Z</time>
      </trkpt>
      <trkpt lat="45.86884" lon="3.1826">
        <ele>321.8</ele>
        <time>2024-04-28T10:23:15Z</time>
      </trkpt>
      <trkpt lat="45.86883" lon="3.18269">
        <ele>321.8</ele>
        <time>2024-04-28T10:23:16Z</time>
      </trkpt>
      <trkpt lat="45.86883" lon="3.18279">
        <ele>321.8</ele>
        <time>2024-04-28T10:23:17Z</time>
      </trkpt>
      <trkpt lat="45.86883" lon="3.18288">
        <ele>321.8</ele>
        <time>2024-04-28T10:23:18Z</time>
      </trkpt>
      <trkpt lat="45.86882" lon="3.18297">
        <ele>321.8</ele>
        <time>2024-04-28T10:23:19Z</time>
      </trkpt>
      <trkpt lat="45.86882" lon="3.18307">
        <ele>321.8</ele>
        <time>2024-04-28T10:23:20Z</time>
      </trkpt>
      <trkpt lat="45.86882" lon="3.18316">
        <ele>321.8</ele>
        <time>2024-04-28T10:23:21Z</time>
      </trkpt>
      <trkpt lat="45.86881" lon="3.18326">
        <ele>321.8</ele>
        <time>2024-04-28T10:23:22Z</time>
      </trkpt>
      <trkpt lat="45.86881" lon="3.18336">
        <ele>321.8</ele>
        <time>2024-04-28T10:23:23Z</time>
      </trkpt>
      <trkpt lat="45.86881" lon="3.18346">
        <ele>321.8</ele>
        <time>2024-04-28T10:23:24Z</time>
      </trkpt>
      <trkpt lat="45.86881" lon="3.18356">
        <ele>321.8</ele>
        <time>2024-04-28T10:23:25Z</time>
      </trkpt>
      <trkpt lat="45.8688" lon="3.18366">
        <ele>321.8</ele>
        <time>2024-04-28T10:23:26Z</time>
      </trkpt>
      <trkpt lat="45.8688" lon="3.18375">
        <ele>321.8</ele>
        <time>2024-04-28T10:23:27Z</time>
      </trkpt>
      <trkpt lat="45.8688" lon="3.18385">
        <ele>321.8</ele>
        <time>2024-04-28T10:23:28Z</time>
      </trkpt>
      <trkpt lat="45.86879" lon="3.18395">
        <ele>321.6</ele>
        <time>2024-04-28T10:23:29Z</time>
      </trkpt>
      <trkpt lat="45.86879" lon="3.18405">
        <ele>321.6</ele>
        <time>2024-04-28T10:23:30Z</time>
      </trkpt>
      <trkpt lat="45.86879" lon="3.18415">
        <ele>321.6</ele>
        <time>2024-04-28T10:23:31Z</time>
      </trkpt>
      <trkpt lat="45.86878" lon="3.18425">
        <ele>321.6</ele>
        <time>2024-04-28T10:23:32Z</time>
      </trkpt>
      <trkpt lat="45.86878" lon="3.18435">
        <ele>321.6</ele>
        <time>2024-04-28T10:23:33Z</time>
      </trkpt>
      <trkpt lat="45.86878" lon="3.18446">
        <ele>321.6</ele>
        <time>2024-04-28T10:23:34Z</time>
      </trkpt>
      <trkpt lat="45.86877" lon="3.18456">
        <ele>321.6</ele>
        <time>2024-04-28T10:23:35Z</time>
      </trkpt>
      <trkpt lat="45.86877" lon="3.18466">
        <ele>321.6</ele>
        <time>2024-04-28T10:23:36Z</time>
      </trkpt>
      <trkpt lat="45.86877" lon="3.18477">
        <ele>321.6</ele>
        <time>2024-04-28T10:23:37Z</time>
      </trkpt>
      <trkpt lat="45.86876" lon="3.18487">
        <ele>321.6</ele>
        <time>2024-04-28T10:23:38Z</time>
      </trkpt>
      <trkpt lat="45.86876" lon="3.18497">
        <ele>321.6</ele>
        <time>2024-04-28T10:23:39Z</time>
      </trkpt>
      <trkpt lat="45.86876" lon="3.18508">
        <ele>321.6</ele>
        <time>2024-04-28T10:23:40Z</time>
      </trkpt>
      <trkpt lat="45.86875" lon="3.18519">
        <ele>321.6</ele>
        <time>2024-04-28T10:23:41Z</time>
      </trkpt>
      <trkpt lat="45.86875" lon="3.18529">
        <ele>321.4</ele>
        <time>2024-04-28T10:23:42Z</time>
      </trkpt>
      <trkpt lat="45.86874" lon="3.1854">
        <ele>321.4</ele>
        <time>2024-04-28T10:23:43Z</time>
      </trkpt>
      <trkpt lat="45.86874" lon="3.1855">
        <ele>321.4</ele>
        <time>2024-04-28T10:23:44Z</time>
      </trkpt>
      <trkpt lat="45.86874" lon="3.18561">
        <ele>321.4</ele>
        <time>2024-04-28T10:23:45Z</time>
      </trkpt>
      <trkpt lat="45.86873" lon="3.18571">
        <ele>321.4</ele>
        <time>2024-04-28T10:23:46Z</time>
      </trkpt>
      <trkpt lat="45.86873" lon="3.18582">
        <ele>321.4</ele>
        <time>2024-04-28T10:23:47Z</time>
      </trkpt>
      <trkpt lat="45.86873" lon="3.18592">
        <ele>321.4</ele>
        <time>2024-04-28T10:23:48Z</time>
      </trkpt>
      <trkpt lat="45.86872" lon="3.18603">
        <ele>321.4</ele>
        <time>2024-04-28T10:23:49Z</time>
      </trkpt>
      <trkpt lat="45.86872" lon="3.18613">
        <ele>321.4</ele>
        <time>2024-04-28T10:23:50Z</time>
      </trkpt>
      <trkpt lat="45.86872" lon="3.18624">
        <ele>321.4</ele>
        <time>2024-04-28T10:23:51Z</time>
      </trkpt>
      <trkpt lat="45.86871" lon="3.18635">
        <ele>321.4</ele>
        <time>2024-04-28T10:23:52Z</time>
      </trkpt>
      <trkpt lat="45.86871" lon="3.18645">
        <ele>321.2</ele>
        <time>2024-04-28T10:23:53Z</time>
      </trkpt>
      <trkpt lat="45.86871" lon="3.18656">
        <ele>321.2</ele>
        <time>2024-04-28T10:23:54Z</time>
      </trkpt>
      <trkpt lat="45.8687" lon="3.18667">
        <ele>321.2</ele>
        <time>2024-04-28T10:23:55Z</time>
      </trkpt>
      <trkpt lat="45.8687" lon="3.18678">
        <ele>321.2</ele>
        <time>2024-04-28T10:23:56Z</time>
      </trkpt>
      <trkpt lat="45.8687" lon="3.18688">
        <ele>321.2</ele>
        <time>2024-04-28T10:23:57Z</time>
      </trkpt>
      <trkpt lat="45.86869" lon="3.18699">
        <ele>321.2</ele>
        <time>2024-04-28T10:23:58Z</time>
      </trkpt>
      <trkpt lat="45.86869" lon="3.18709">
        <ele>321.2</ele>
        <time>2024-04-28T10:23:59Z</time>
      </trkpt>
      <trkpt lat="45.86869" lon="3.18719">
        <ele>321.2</ele>
        <time>2024-04-28T10:24:00Z</time>
      </trkpt>
      <trkpt lat="45.86868" lon="3.18729">
        <ele>321.2</ele>
        <time>2024-04-28T10:24:01Z</time>
      </trkpt>
      <trkpt lat="45.86868" lon="3.1874">
        <ele>321.2</ele>
        <time>2024-04-28T10:24:02Z</time>
      </trkpt>
      <trkpt lat="45.86868" lon="3.1875">
        <ele>321.2</ele>
        <time>2024-04-28T10:24:03Z</time>
      </trkpt>
      <trkpt lat="45.86867" lon="3.1876">
        <ele>321.2</ele>
        <time>2024-04-28T10:24:04Z</time>
      </trkpt>
      <trkpt lat="45.86866" lon="3.1877">
        <ele>321.2</ele>
        <time>2024-04-28T10:24:05Z</time>
      </trkpt>
      <trkpt lat="45.86865" lon="3.1878">
        <ele>321.2</ele>
        <time>2024-04-28T10:24:06Z</time>
      </trkpt>
      <trkpt lat="45.86864" lon="3.1879">
        <ele>321.2</ele>
        <time>2024-04-28T10:24:07Z</time>
      </trkpt>
      <trkpt lat="45.86863" lon="3.188">
        <ele>321.2</ele>
        <time>2024-04-28T10:24:08Z</time>
      </trkpt>
      <trkpt lat="45.86862" lon="3.18811">
        <ele>321.2</ele>
        <time>2024-04-28T10:24:09Z</time>
      </trkpt>
      <trkpt lat="45.8686" lon="3.18822">
        <ele>321.2</ele>
        <time>2024-04-28T10:24:10Z</time>
      </trkpt>
      <trkpt lat="45.86859" lon="3.18832">
        <ele>321.2</ele>
        <time>2024-04-28T10:24:11Z</time>
      </trkpt>
      <trkpt lat="45.86858" lon="3.18843">
        <ele>321.2</ele>
        <time>2024-04-28T10:24:12Z</time>
      </trkpt>
      <trkpt lat="45.86856" lon="3.18853">
        <ele>321.2</ele>
        <time>2024-04-28T10:24:13Z</time>
      </trkpt>
      <trkpt lat="45.86855" lon="3.18864">
        <ele>321</ele>
        <time>2024-04-28T10:24:14Z</time>
      </trkpt>
      <trkpt lat="45.86854" lon="3.18874">
        <ele>321</ele>
        <time>2024-04-28T10:24:15Z</time>
      </trkpt>
      <trkpt lat="45.86851" lon="3.18884">
        <ele>321</ele>
        <time>2024-04-28T10:24:16Z</time>
      </trkpt>
      <trkpt lat="45.86849" lon="3.18894">
        <ele>321</ele>
        <time>2024-04-28T10:24:17Z</time>
      </trkpt>
      <trkpt lat="45.86847" lon="3.18904">
        <ele>321</ele>
        <time>2024-04-28T10:24:18Z</time>
      </trkpt>
      <trkpt lat="45.86845" lon="3.18913">
        <ele>321</ele>
        <time>2024-04-28T10:24:19Z</time>
      </trkpt>
      <trkpt lat="45.86842" lon="3.18922">
        <ele>321</ele>
        <time>2024-04-28T10:24:20Z</time>
      </trkpt>
      <trkpt lat="45.8684" lon="3.18932">
        <ele>321</ele>
        <time>2024-04-28T10:24:21Z</time>
      </trkpt>
      <trkpt lat="45.86838" lon="3.18941">
        <ele>321</ele>
        <time>2024-04-28T10:24:22Z</time>
      </trkpt>
      <trkpt lat="45.86836" lon="3.1895">
        <ele>321</ele>
        <time>2024-04-28T10:24:23Z</time>
      </trkpt>
      <trkpt lat="45.86834" lon="3.18959">
        <ele>321</ele>
        <time>2024-04-28T10:24:24Z</time>
      </trkpt>
      <trkpt lat="45.86832" lon="3.18968">
        <ele>321</ele>
        <time>2024-04-28T10:24:25Z</time>
      </trkpt>
      <trkpt lat="45.86834" lon="3.18978">
        <ele>321</ele>
        <time>2024-04-28T10:24:26Z</time>
      </trkpt>
      <trkpt lat="45.86838" lon="3.18985">
        <ele>321</ele>
        <time>2024-04-28T10:24:27Z</time>
      </trkpt>
      <trkpt lat="45.86845" lon="3.18988">
        <ele>321</ele>
        <time>2024-04-28T10:24:28Z</time>
      </trkpt>
      <trkpt lat="45.86851" lon="3.18985">
        <ele>321</ele>
        <time>2024-04-28T10:24:29Z</time>
      </trkpt>
      <trkpt lat="45.86857" lon="3.18981">
        <ele>320.8</ele>
        <time>2024-04-28T10:24:30Z</time>
      </trkpt>
      <trkpt lat="45.86864" lon="3.18977">
        <ele>320.8</ele>
        <time>2024-04-28T10:24:31Z</time>
      </trkpt>
      <trkpt lat="45.8687" lon="3.18974">
        <ele>320.8</ele>
        <time>2024-04-28T10:24:32Z</time>
      </trkpt>
      <trkpt lat="45.86877" lon="3.18971">
        <ele>320.8</ele>
        <time>2024-04-28T10:24:33Z</time>
      </trkpt>
      <trkpt lat="45.86884" lon="3.18968">
        <ele>320.6</ele>
        <time>2024-04-28T10:24:34Z</time>
      </trkpt>
      <trkpt lat="45.86891" lon="3.18965">
        <ele>320.6</ele>
        <time>2024-04-28T10:24:35Z</time>
      </trkpt>
      <trkpt lat="45.86899" lon="3.18962">
        <ele>320.6</ele>
        <time>2024-04-28T10:24:36Z</time>
      </trkpt>
      <trkpt lat="45.86906" lon="3.18959">
        <ele>320.6</ele>
        <time>2024-04-28T10:24:37Z</time>
      </trkpt>
      <trkpt lat="45.86914" lon="3.18956">
        <ele>320.4</ele>
        <time>2024-04-28T10:24:38Z</time>
      </trkpt>
      <trkpt lat="45.86921" lon="3.18953">
        <ele>320.4</ele>
        <time>2024-04-28T10:24:39Z</time>
      </trkpt>
      <trkpt lat="45.86928" lon="3.1895">
        <ele>320.4</ele>
        <time>2024-04-28T10:24:40Z</time>
      </trkpt>
      <trkpt lat="45.86936" lon="3.18947">
        <ele>320.4</ele>
        <time>2024-04-28T10:24:41Z</time>
      </trkpt>
      <trkpt lat="45.86943" lon="3.18944">
        <ele>320.4</ele>
        <time>2024-04-28T10:24:42Z</time>
      </trkpt>
      <trkpt lat="45.8695" lon="3.18942">
        <ele>320.2</ele>
        <time>2024-04-28T10:24:43Z</time>
      </trkpt>
      <trkpt lat="45.86957" lon="3.18939">
        <ele>320.2</ele>
        <time>2024-04-28T10:24:44Z</time>
      </trkpt>
      <trkpt lat="45.86964" lon="3.18936">
        <ele>320.2</ele>
        <time>2024-04-28T10:24:45Z</time>
      </trkpt>
      <trkpt lat="45.86971" lon="3.18933">
        <ele>320</ele>
        <time>2024-04-28T10:24:46Z</time>
      </trkpt>
      <trkpt lat="45.86979" lon="3.18931">
        <ele>320</ele>
        <time>2024-04-28T10:24:47Z</time>
      </trkpt>
      <trkpt lat="45.86986" lon="3.1893">
        <ele>320</ele>
        <time>2024-04-28T10:24:48Z</time>
      </trkpt>
      <trkpt lat="45.86993" lon="3.18929">
        <ele>320</ele>
        <time>2024-04-28T10:24:49Z</time>
      </trkpt>
      <trkpt lat="45.87" lon="3.18928">
        <ele>320</ele>
        <time>2024-04-28T10:24:50Z</time>
      </trkpt>
      <trkpt lat="45.87008" lon="3.18927">
        <ele>320</ele>
        <time>2024-04-28T10:24:51Z</time>
      </trkpt>
      <trkpt lat="45.87015" lon="3.18926">
        <ele>319.8</ele>
        <time>2024-04-28T10:24:52Z</time>
      </trkpt>
      <trkpt lat="45.87023" lon="3.18925">
        <ele>319.8</ele>
        <time>2024-04-28T10:24:53Z</time>
      </trkpt>
      <trkpt lat="45.8703" lon="3.18924">
        <ele>319.8</ele>
        <time>2024-04-28T10:24:54Z</time>
      </trkpt>
      <trkpt lat="45.87038" lon="3.18923">
        <ele>319.8</ele>
        <time>2024-04-28T10:24:55Z</time>
      </trkpt>
      <trkpt lat="45.87046" lon="3.18921">
        <ele>319.6</ele>
        <time>2024-04-28T10:24:56Z</time>
      </trkpt>
      <trkpt lat="45.87053" lon="3.1892">
        <ele>319.6</ele>
        <time>2024-04-28T10:24:57Z</time>
      </trkpt>
      <trkpt lat="45.8706" lon="3.18919">
        <ele>319.6</ele>
        <time>2024-04-28T10:24:58Z</time>
      </trkpt>
      <trkpt lat="45.87068" lon="3.18918">
        <ele>319.6</ele>
        <time>2024-04-28T10:24:59Z</time>
      </trkpt>
      <trkpt lat="45.87075" lon="3.18917">
        <ele>319.6</ele>
        <time>2024-04-28T10:25:00Z</time>
      </trkpt>
      <trkpt lat="45.87083" lon="3.18916">
        <ele>319.6</ele>
        <time>2024-04-28T10:25:01Z</time>
      </trkpt>
      <trkpt lat="45.8709" lon="3.18915">
        <ele>319.6</ele>
        <time>2024-04-28T10:25:02Z</time>
      </trkpt>
      <trkpt lat="45.87097" lon="3.18914">
        <ele>319.6</ele>
        <time>2024-04-28T10:25:03Z</time>
      </trkpt>
      <trkpt lat="45.87105" lon="3.18913">
        <ele>319.4</ele>
        <time>2024-04-28T10:25:04Z</time>
      </trkpt>
      <trkpt lat="45.87112" lon="3.18912">
        <ele>319.4</ele>
        <time>2024-04-28T10:25:05Z</time>
      </trkpt>
      <trkpt lat="45.8712" lon="3.18911">
        <ele>319.4</ele>
        <time>2024-04-28T10:25:06Z</time>
      </trkpt>
      <trkpt lat="45.87127" lon="3.18909">
        <ele>319.4</ele>
        <time>2024-04-28T10:25:07Z</time>
      </trkpt>
      <trkpt lat="45.87135" lon="3.18908">
        <ele>319.2</ele>
        <time>2024-04-28T10:25:08Z</time>
      </trkpt>
      <trkpt lat="45.87142" lon="3.18907">
        <ele>319.2</ele>
        <time>2024-04-28T10:25:09Z</time>
      </trkpt>
      <trkpt lat="45.8715" lon="3.18906">
        <ele>319.2</ele>
        <time>2024-04-28T10:25:10Z</time>
      </trkpt>
      <trkpt lat="45.87158" lon="3.18906">
        <ele>319</ele>
        <time>2024-04-28T10:25:11Z</time>
      </trkpt>
      <trkpt lat="45.87165" lon="3.18906">
        <ele>319</ele>
        <time>2024-04-28T10:25:12Z</time>
      </trkpt>
      <trkpt lat="45.87173" lon="3.18906">
        <ele>319</ele>
        <time>2024-04-28T10:25:13Z</time>
      </trkpt>
      <trkpt lat="45.8718" lon="3.18906">
        <ele>319</ele>
        <time>2024-04-28T10:25:14Z</time>
      </trkpt>
      <trkpt lat="45.87187" lon="3.18905">
        <ele>319</ele>
        <time>2024-04-28T10:25:15Z</time>
      </trkpt>
      <trkpt lat="45.87195" lon="3.18905">
        <ele>319</ele>
        <time>2024-04-28T10:25:16Z</time>
      </trkpt>
      <trkpt lat="45.87202" lon="3.18905">
        <ele>319</ele>
        <time>2024-04-28T10:25:17Z</time>
      </trkpt>
      <trkpt lat="45.8721" lon="3.18905">
        <ele>319</ele>
        <time>2024-04-28T10:25:18Z</time>
      </trkpt>
      <trkpt lat="45.87218" lon="3.18905">
        <ele>319</ele>
        <time>2024-04-28T10:25:19Z</time>
      </trkpt>
      <trkpt lat="45.87225" lon="3.18904">
        <ele>319</ele>
        <time>2024-04-28T10:25:20Z</time>
      </trkpt>
      <trkpt lat="45.87233" lon="3.18904">
        <ele>319</ele>
        <time>2024-04-28T10:25:21Z</time>
      </trkpt>
      <trkpt lat="45.8724" lon="3.18904">
        <ele>319</ele>
        <time>2024-04-28T10:25:22Z</time>
      </trkpt>
      <trkpt lat="45.87248" lon="3.18903">
        <ele>319</ele>
        <time>2024-04-28T10:25:23Z</time>
      </trkpt>
      <trkpt lat="45.87255" lon="3.18901">
        <ele>319</ele>
        <time>2024-04-28T10:25:24Z</time>
      </trkpt>
      <trkpt lat="45.87263" lon="3.18899">
        <ele>319</ele>
        <time>2024-04-28T10:25:25Z</time>
      </trkpt>
      <trkpt lat="45.8727" lon="3.18896">
        <ele>318.8</ele>
        <time>2024-04-28T10:25:26Z</time>
      </trkpt>
      <trkpt lat="45.87277" lon="3.18894">
        <ele>318.8</ele>
        <time>2024-04-28T10:25:27Z</time>
      </trkpt>
      <trkpt lat="45.87285" lon="3.18892">
        <ele>318.8</ele>
        <time>2024-04-28T10:25:28Z</time>
      </trkpt>
      <trkpt lat="45.87292" lon="3.1889">
        <ele>318.8</ele>
        <time>2024-04-28T10:25:29Z</time>
      </trkpt>
      <trkpt lat="45.873" lon="3.18887">
        <ele>318.8</ele>
        <time>2024-04-28T10:25:30Z</time>
      </trkpt>
      <trkpt lat="45.87307" lon="3.18885">
        <ele>318.8</ele>
        <time>2024-04-28T10:25:31Z</time>
      </trkpt>
      <trkpt lat="45.87314" lon="3.18882">
        <ele>318.6</ele>
        <time>2024-04-28T10:25:32Z</time>
      </trkpt>
      <trkpt lat="45.87321" lon="3.1888">
        <ele>318.6</ele>
        <time>2024-04-28T10:25:33Z</time>
      </trkpt>
      <trkpt lat="45.87328" lon="3.18876">
        <ele>318.6</ele>
        <time>2024-04-28T10:25:34Z</time>
      </trkpt>
      <trkpt lat="45.87335" lon="3.18872">
        <ele>318.6</ele>
        <time>2024-04-28T10:25:35Z</time>
      </trkpt>
      <trkpt lat="45.87342" lon="3.18868">
        <ele>318.6</ele>
        <time>2024-04-28T10:25:36Z</time>
      </trkpt>
      <trkpt lat="45.87349" lon="3.18863">
        <ele>318.4</ele>
        <time>2024-04-28T10:25:37Z</time>
      </trkpt>
      <trkpt lat="45.87356" lon="3.18858">
        <ele>318.4</ele>
        <time>2024-04-28T10:25:38Z</time>
      </trkpt>
      <trkpt lat="45.87363" lon="3.18854">
        <ele>318.4</ele>
        <time>2024-04-28T10:25:39Z</time>
      </trkpt>
      <trkpt lat="45.8737" lon="3.18849">
        <ele>318.4</ele>
        <time>2024-04-28T10:25:40Z</time>
      </trkpt>
      <trkpt lat="45.87378" lon="3.18845">
        <ele>318.4</ele>
        <time>2024-04-28T10:25:41Z</time>
      </trkpt>
      <trkpt lat="45.87385" lon="3.1884">
        <ele>318.4</ele>
        <time>2024-04-28T10:25:42Z</time>
      </trkpt>
      <trkpt lat="45.87392" lon="3.18835">
        <ele>318.4</ele>
        <time>2024-04-28T10:25:43Z</time>
      </trkpt>
      <trkpt lat="45.874" lon="3.18831">
        <ele>318.4</ele>
        <time>2024-04-28T10:25:44Z</time>
      </trkpt>
      <trkpt lat="45.87407" lon="3.18826">
        <ele>318.4</ele>
        <time>2024-04-28T10:25:45Z</time>
      </trkpt>
      <trkpt lat="45.87413" lon="3.18818">
        <ele>318.4</ele>
        <time>2024-04-28T10:25:46Z</time>
      </trkpt>
      <trkpt lat="45.87419" lon="3.18811">
        <ele>318.4</ele>
        <time>2024-04-28T10:25:47Z</time>
      </trkpt>
      <trkpt lat="45.87425" lon="3.18804">
        <ele>318.4</ele>
        <time>2024-04-28T10:25:48Z</time>
      </trkpt>
      <trkpt lat="45.87431" lon="3.18797">
        <ele>318.4</ele>
        <time>2024-04-28T10:25:49Z</time>
      </trkpt>
      <trkpt lat="45.87437" lon="3.1879">
        <ele>318.4</ele>
        <time>2024-04-28T10:25:50Z</time>
      </trkpt>
      <trkpt lat="45.87444" lon="3.18783">
        <ele>318.4</ele>
        <time>2024-04-28T10:25:51Z</time>
      </trkpt>
      <trkpt lat="45.8745" lon="3.18776">
        <ele>318.4</ele>
        <time>2024-04-28T10:25:52Z</time>
      </trkpt>
      <trkpt lat="45.87455" lon="3.18768">
        <ele>318.4</ele>
        <time>2024-04-28T10:25:53Z</time>
      </trkpt>
      <trkpt lat="45.8746" lon="3.18759">
        <ele>318.4</ele>
        <time>2024-04-28T10:25:54Z</time>
      </trkpt>
      <trkpt lat="45.87464" lon="3.18751">
        <ele>318.4</ele>
        <time>2024-04-28T10:25:55Z</time>
      </trkpt>
      <trkpt lat="45.87469" lon="3.18742">
        <ele>318.4</ele>
        <time>2024-04-28T10:25:56Z</time>
      </trkpt>
      <trkpt lat="45.87474" lon="3.18734">
        <ele>318.4</ele>
        <time>2024-04-28T10:25:57Z</time>
      </trkpt>
      <trkpt lat="45.87479" lon="3.18725">
        <ele>318.4</ele>
        <time>2024-04-28T10:25:58Z</time>
      </trkpt>
      <trkpt lat="45.87483" lon="3.18717">
        <ele>318.4</ele>
        <time>2024-04-28T10:25:59Z</time>
      </trkpt>
      <trkpt lat="45.87488" lon="3.18708">
        <ele>318.4</ele>
        <time>2024-04-28T10:26:00Z</time>
      </trkpt>
      <trkpt lat="45.87493" lon="3.187">
        <ele>318.4</ele>
        <time>2024-04-28T10:26:01Z</time>
      </trkpt>
      <trkpt lat="45.87497" lon="3.18691">
        <ele>318.4</ele>
        <time>2024-04-28T10:26:02Z</time>
      </trkpt>
      <trkpt lat="45.87502" lon="3.18683">
        <ele>318.4</ele>
        <time>2024-04-28T10:26:03Z</time>
      </trkpt>
      <trkpt lat="45.87507" lon="3.18675">
        <ele>318.4</ele>
        <time>2024-04-28T10:26:04Z</time>
      </trkpt>
      <trkpt lat="45.87511" lon="3.18667">
        <ele>318.4</ele>
        <time>2024-04-28T10:26:05Z</time>
      </trkpt>
      <trkpt lat="45.87516" lon="3.18659">
        <ele>318.4</ele>
        <time>2024-04-28T10:26:06Z</time>
      </trkpt>
      <trkpt lat="45.8752" lon="3.18651">
        <ele>318.4</ele>
        <time>2024-04-28T10:26:07Z</time>
      </trkpt>
      <trkpt lat="45.87525" lon="3.18643">
        <ele>318.2</ele>
        <time>2024-04-28T10:26:08Z</time>
      </trkpt>
      <trkpt lat="45.87529" lon="3.18634">
        <ele>318.2</ele>
        <time>2024-04-28T10:26:09Z</time>
      </trkpt>
      <trkpt lat="45.87534" lon="3.18626">
        <ele>318.2</ele>
        <time>2024-04-28T10:26:10Z</time>
      </trkpt>
      <trkpt lat="45.87538" lon="3.18618">
        <ele>318.2</ele>
        <time>2024-04-28T10:26:11Z</time>
      </trkpt>
      <trkpt lat="45.87543" lon="3.1861">
        <ele>318.2</ele>
        <time>2024-04-28T10:26:12Z</time>
      </trkpt>
      <trkpt lat="45.87547" lon="3.18602">
        <ele>318.2</ele>
        <time>2024-04-28T10:26:13Z</time>
      </trkpt>
      <trkpt lat="45.87552" lon="3.18594">
        <ele>318.2</ele>
        <time>2024-04-28T10:26:14Z</time>
      </trkpt>
      <trkpt lat="45.87557" lon="3.18585">
        <ele>318.2</ele>
        <time>2024-04-28T10:26:15Z</time>
      </trkpt>
      <trkpt lat="45.87561" lon="3.18577">
        <ele>318.2</ele>
        <time>2024-04-28T10:26:16Z</time>
      </trkpt>
      <trkpt lat="45.87566" lon="3.18569">
        <ele>318.2</ele>
        <time>2024-04-28T10:26:17Z</time>
      </trkpt>
      <trkpt lat="45.8757" lon="3.18561">
        <ele>318</ele>
        <time>2024-04-28T10:26:18Z</time>
      </trkpt>
      <trkpt lat="45.87575" lon="3.18553">
        <ele>318</ele>
        <time>2024-04-28T10:26:19Z</time>
      </trkpt>
      <trkpt lat="45.87579" lon="3.18545">
        <ele>318</ele>
        <time>2024-04-28T10:26:20Z</time>
      </trkpt>
      <trkpt lat="45.87584" lon="3.18537">
        <ele>318</ele>
        <time>2024-04-28T10:26:21Z</time>
      </trkpt>
      <trkpt lat="45.87588" lon="3.18529">
        <ele>318</ele>
        <time>2024-04-28T10:26:22Z</time>
      </trkpt>
      <trkpt lat="45.87593" lon="3.1852">
        <ele>318</ele>
        <time>2024-04-28T10:26:23Z</time>
      </trkpt>
      <trkpt lat="45.87598" lon="3.18512">
        <ele>318</ele>
        <time>2024-04-28T10:26:24Z</time>
      </trkpt>
      <trkpt lat="45.87602" lon="3.18503">
        <ele>318</ele>
        <time>2024-04-28T10:26:25Z</time>
      </trkpt>
      <trkpt lat="45.87607" lon="3.18495">
        <ele>318</ele>
        <time>2024-04-28T10:26:26Z</time>
      </trkpt>
      <trkpt lat="45.87612" lon="3.18487">
        <ele>318</ele>
        <time>2024-04-28T10:26:27Z</time>
      </trkpt>
      <trkpt lat="45.87616" lon="3.18479">
        <ele>318</ele>
        <time>2024-04-28T10:26:28Z</time>
      </trkpt>
      <trkpt lat="45.87621" lon="3.1847">
        <ele>318</ele>
        <time>2024-04-28T10:26:29Z</time>
      </trkpt>
      <trkpt lat="45.87625" lon="3.18462">
        <ele>318</ele>
        <time>2024-04-28T10:26:30Z</time>
      </trkpt>
      <trkpt lat="45.8763" lon="3.18454">
        <ele>318</ele>
        <time>2024-04-28T10:26:31Z</time>
      </trkpt>
      <trkpt lat="45.87634" lon="3.18446">
        <ele>318</ele>
        <time>2024-04-28T10:26:32Z</time>
      </trkpt>
      <trkpt lat="45.8764" lon="3.18439">
        <ele>318</ele>
        <time>2024-04-28T10:26:33Z</time>
      </trkpt>
      <trkpt lat="45.87647" lon="3.18435">
        <ele>318</ele>
        <time>2024-04-28T10:26:34Z</time>
      </trkpt>
      <trkpt lat="45.87653" lon="3.18432">
        <ele>318</ele>
        <time>2024-04-28T10:26:35Z</time>
      </trkpt>
      <trkpt lat="45.8766" lon="3.18428">
        <ele>318</ele>
        <time>2024-04-28T10:26:36Z</time>
      </trkpt>
      <trkpt lat="45.87667" lon="3.18427">
        <ele>318</ele>
        <time>2024-04-28T10:26:37Z</time>
      </trkpt>
      <trkpt lat="45.87675" lon="3.18426">
        <ele>318</ele>
        <time>2024-04-28T10:26:38Z</time>
      </trkpt>
      <trkpt lat="45.87682" lon="3.18425">
        <ele>317.8</ele>
        <time>2024-04-28T10:26:39Z</time>
      </trkpt>
      <trkpt lat="45.87689" lon="3.18425">
        <ele>318</ele>
        <time>2024-04-28T10:26:40Z</time>
      </trkpt>
      <trkpt lat="45.87696" lon="3.18424">
        <ele>317.8</ele>
        <time>2024-04-28T10:26:41Z</time>
      </trkpt>
      <trkpt lat="45.87704" lon="3.18423">
        <ele>317.8</ele>
        <time>2024-04-28T10:26:42Z</time>
      </trkpt>
      <trkpt lat="45.87711" lon="3.18423">
        <ele>317.8</ele>
        <time>2024-04-28T10:26:43Z</time>
      </trkpt>
      <trkpt lat="45.87718" lon="3.18422">
        <ele>317.8</ele>
        <time>2024-04-28T10:26:44Z</time>
      </trkpt>
      <trkpt lat="45.87725" lon="3.18422">
        <ele>317.8</ele>
        <time>2024-04-28T10:26:45Z</time>
      </trkpt>
      <trkpt lat="45.87732" lon="3.18421">
        <ele>317.8</ele>
        <time>2024-04-28T10:26:46Z</time>
      </trkpt>
      <trkpt lat="45.87739" lon="3.18421">
        <ele>317.8</ele>
        <time>2024-04-28T10:26:47Z</time>
      </trkpt>
      <trkpt lat="45.87746" lon="3.1842">
        <ele>317.8</ele>
        <time>2024-04-28T10:26:48Z</time>
      </trkpt>
      <trkpt lat="45.87753" lon="3.1842">
        <ele>317.8</ele>
        <time>2024-04-28T10:26:49Z</time>
      </trkpt>
      <trkpt lat="45.8776" lon="3.18419">
        <ele>318</ele>
        <time>2024-04-28T10:26:50Z</time>
      </trkpt>
      <trkpt lat="45.87768" lon="3.18418">
        <ele>318</ele>
        <time>2024-04-28T10:26:51Z</time>
      </trkpt>
      <trkpt lat="45.87775" lon="3.18418">
        <ele>318</ele>
        <time>2024-04-28T10:26:52Z</time>
      </trkpt>
      <trkpt lat="45.87782" lon="3.18417">
        <ele>318</ele>
        <time>2024-04-28T10:26:53Z</time>
      </trkpt>
      <trkpt lat="45.8779" lon="3.18417">
        <ele>318</ele>
        <time>2024-04-28T10:26:54Z</time>
      </trkpt>
      <trkpt lat="45.87797" lon="3.18416">
        <ele>317.8</ele>
        <time>2024-04-28T10:26:55Z</time>
      </trkpt>
      <trkpt lat="45.87804" lon="3.18416">
        <ele>318</ele>
        <time>2024-04-28T10:26:56Z</time>
      </trkpt>
      <trkpt lat="45.87811" lon="3.18415">
        <ele>318</ele>
        <time>2024-04-28T10:26:57Z</time>
      </trkpt>
      <trkpt lat="45.87819" lon="3.18415">
        <ele>318</ele>
        <time>2024-04-28T10:26:58Z</time>
      </trkpt>
      <trkpt lat="45.87826" lon="3.18414">
        <ele>318</ele>
        <time>2024-04-28T10:26:59Z</time>
      </trkpt>
      <trkpt lat="45.87834" lon="3.18414">
        <ele>318</ele>
        <time>2024-04-28T10:27:00Z</time>
      </trkpt>
      <trkpt lat="45.87841" lon="3.18413">
        <ele>318</ele>
        <time>2024-04-28T10:27:01Z</time>
      </trkpt>
      <trkpt lat="45.87849" lon="3.18412">
        <ele>318</ele>
        <time>2024-04-28T10:27:02Z</time>
      </trkpt>
      <trkpt lat="45.87857" lon="3.18412">
        <ele>317.8</ele>
        <time>2024-04-28T10:27:03Z</time>
      </trkpt>
      <trkpt lat="45.87864" lon="3.18411">
        <ele>317.8</ele>
        <time>2024-04-28T10:27:04Z</time>
      </trkpt>
      <trkpt lat="45.87872" lon="3.18411">
        <ele>317.8</ele>
        <time>2024-04-28T10:27:05Z</time>
      </trkpt>
      <trkpt lat="45.87879" lon="3.1841">
        <ele>317.8</ele>
        <time>2024-04-28T10:27:06Z</time>
      </trkpt>
      <trkpt lat="45.87886" lon="3.1841">
        <ele>317.8</ele>
        <time>2024-04-28T10:27:07Z</time>
      </trkpt>
      <trkpt lat="45.87894" lon="3.18409">
        <ele>317.8</ele>
        <time>2024-04-28T10:27:08Z</time>
      </trkpt>
      <trkpt lat="45.87902" lon="3.18409">
        <ele>317.8</ele>
        <time>2024-04-28T10:27:09Z</time>
      </trkpt>
      <trkpt lat="45.87909" lon="3.18408">
        <ele>317.8</ele>
        <time>2024-04-28T10:27:10Z</time>
      </trkpt>
      <trkpt lat="45.87917" lon="3.18408">
        <ele>317.8</ele>
        <time>2024-04-28T10:27:11Z</time>
      </trkpt>
      <trkpt lat="45.87925" lon="3.18407">
        <ele>317.6</ele>
        <time>2024-04-28T10:27:12Z</time>
      </trkpt>
      <trkpt lat="45.87932" lon="3.18407">
        <ele>317.6</ele>
        <time>2024-04-28T10:27:13Z</time>
      </trkpt>
      <trkpt lat="45.8794" lon="3.18406">
        <ele>317.6</ele>
        <time>2024-04-28T10:27:14Z</time>
      </trkpt>
      <trkpt lat="45.87948" lon="3.18406">
        <ele>317.6</ele>
        <time>2024-04-28T10:27:15Z</time>
      </trkpt>
      <trkpt lat="45.87955" lon="3.18405">
        <ele>317.6</ele>
        <time>2024-04-28T10:27:16Z</time>
      </trkpt>
      <trkpt lat="45.87963" lon="3.18405">
        <ele>317.6</ele>
        <time>2024-04-28T10:27:17Z</time>
      </trkpt>
      <trkpt lat="45.8797" lon="3.18404">
        <ele>317.6</ele>
        <time>2024-04-28T10:27:18Z</time>
      </trkpt>
      <trkpt lat="45.87978" lon="3.18404">
        <ele>317.6</ele>
        <time>2024-04-28T10:27:19Z</time>
      </trkpt>
      <trkpt lat="45.87986" lon="3.18403">
        <ele>317.6</ele>
        <time>2024-04-28T10:27:20Z</time>
      </trkpt>
      <trkpt lat="45.87993" lon="3.18403">
        <ele>317.6</ele>
        <time>2024-04-28T10:27:21Z</time>
      </trkpt>
      <trkpt lat="45.88001" lon="3.18402">
        <ele>317.6</ele>
        <time>2024-04-28T10:27:22Z</time>
      </trkpt>
      <trkpt lat="45.88008" lon="3.18402">
        <ele>317.6</ele>
        <time>2024-04-28T10:27:23Z</time>
      </trkpt>
      <trkpt lat="45.88016" lon="3.18401">
        <ele>317.4</ele>
        <time>2024-04-28T10:27:24Z</time>
      </trkpt>
      <trkpt lat="45.88024" lon="3.18401">
        <ele>317.4</ele>
        <time>2024-04-28T10:27:25Z</time>
      </trkpt>
      <trkpt lat="45.88031" lon="3.184">
        <ele>317.4</ele>
        <time>2024-04-28T10:27:26Z</time>
      </trkpt>
      <trkpt lat="45.88039" lon="3.184">
        <ele>317.4</ele>
        <time>2024-04-28T10:27:27Z</time>
      </trkpt>
      <trkpt lat="45.88046" lon="3.18399">
        <ele>317.4</ele>
        <time>2024-04-28T10:27:28Z</time>
      </trkpt>
      <trkpt lat="45.88054" lon="3.18399">
        <ele>317.4</ele>
        <time>2024-04-28T10:27:29Z</time>
      </trkpt>
      <trkpt lat="45.88062" lon="3.18398">
        <ele>317.4</ele>
        <time>2024-04-28T10:27:30Z</time>
      </trkpt>
      <trkpt lat="45.88069" lon="3.18398">
        <ele>317.4</ele>
        <time>2024-04-28T10:27:31Z</time>
      </trkpt>
      <trkpt lat="45.88077" lon="3.18397">
        <ele>317.4</ele>
        <time>2024-04-28T10:27:32Z</time>
      </trkpt>
      <trkpt lat="45.88085" lon="3.18397">
        <ele>317.4</ele>
        <time>2024-04-28T10:27:33Z</time>
      </trkpt>
      <trkpt lat="45.88092" lon="3.18396">
        <ele>317.2</ele>
        <time>2024-04-28T10:27:34Z</time>
      </trkpt>
      <trkpt lat="45.881" lon="3.18396">
        <ele>317.2</ele>
        <time>2024-04-28T10:27:35Z</time>
      </trkpt>
      <trkpt lat="45.88107" lon="3.18395">
        <ele>317.2</ele>
        <time>2024-04-28T10:27:36Z</time>
      </trkpt>
      <trkpt lat="45.88115" lon="3.18395">
        <ele>317.2</ele>
        <time>2024-04-28T10:27:37Z</time>
      </trkpt>
      <trkpt lat="45.88122" lon="3.18394">
        <ele>317.2</ele>
        <time>2024-04-28T10:27:38Z</time>
      </trkpt>
      <trkpt lat="45.8813" lon="3.18394">
        <ele>317.2</ele>
        <time>2024-04-28T10:27:39Z</time>
      </trkpt>
      <trkpt lat="45.88137" lon="3.18393">
        <ele>317.2</ele>
        <time>2024-04-28T10:27:40Z</time>
      </trkpt>
      <trkpt lat="45.88145" lon="3.18393">
        <ele>317.2</ele>
        <time>2024-04-28T10:27:41Z</time>
      </trkpt>
      <trkpt lat="45.88152" lon="3.18392">
        <ele>317.2</ele>
        <time>2024-04-28T10:27:42Z</time>
      </trkpt>
      <trkpt lat="45.8816" lon="3.18392">
        <ele>317</ele>
        <time>2024-04-28T10:27:43Z</time>
      </trkpt>
      <trkpt lat="45.88167" lon="3.18391">
        <ele>317</ele>
        <time>2024-04-28T10:27:44Z</time>
      </trkpt>
      <trkpt lat="45.88175" lon="3.18391">
        <ele>317</ele>
        <time>2024-04-28T10:27:45Z</time>
      </trkpt>
      <trkpt lat="45.88182" lon="3.1839">
        <ele>317</ele>
        <time>2024-04-28T10:27:46Z</time>
      </trkpt>
      <trkpt lat="45.8819" lon="3.1839">
        <ele>317</ele>
        <time>2024-04-28T10:27:47Z</time>
      </trkpt>
      <trkpt lat="45.88197" lon="3.18389">
        <ele>317</ele>
        <time>2024-04-28T10:27:48Z</time>
      </trkpt>
      <trkpt lat="45.88205" lon="3.18389">
        <ele>317</ele>
        <time>2024-04-28T10:27:49Z</time>
      </trkpt>
      <trkpt lat="45.88212" lon="3.18388">
        <ele>317</ele>
        <time>2024-04-28T10:27:50Z</time>
      </trkpt>
      <trkpt lat="45.8822" lon="3.18388">
        <ele>317</ele>
        <time>2024-04-28T10:27:51Z</time>
      </trkpt>
      <trkpt lat="45.88227" lon="3.18387">
        <ele>316.8</ele>
        <time>2024-04-28T10:27:52Z</time>
      </trkpt>
      <trkpt lat="45.88235" lon="3.18387">
        <ele>316.8</ele>
        <time>2024-04-28T10:27:53Z</time>
      </trkpt>
      <trkpt lat="45.88242" lon="3.18387">
        <ele>316.8</ele>
        <time>2024-04-28T10:27:54Z</time>
      </trkpt>
      <trkpt lat="45.8825" lon="3.18388">
        <ele>316.8</ele>
        <time>2024-04-28T10:27:55Z</time>
      </trkpt>
      <trkpt lat="45.88257" lon="3.18388">
        <ele>316.8</ele>
        <time>2024-04-28T10:27:56Z</time>
      </trkpt>
      <trkpt lat="45.88265" lon="3.18389">
        <ele>316.8</ele>
        <time>2024-04-28T10:27:57Z</time>
      </trkpt>
      <trkpt lat="45.88272" lon="3.1839">
        <ele>316.8</ele>
        <time>2024-04-28T10:27:58Z</time>
      </trkpt>
      <trkpt lat="45.8828" lon="3.1839">
        <ele>316.6</ele>
        <time>2024-04-28T10:27:59Z</time>
      </trkpt>
      <trkpt lat="45.88288" lon="3.18391">
        <ele>316.6</ele>
        <time>2024-04-28T10:28:00Z</time>
      </trkpt>
      <trkpt lat="45.88295" lon="3.18392">
        <ele>316.6</ele>
        <time>2024-04-28T10:28:01Z</time>
      </trkpt>
      <trkpt lat="45.88303" lon="3.18393">
        <ele>316.6</ele>
        <time>2024-04-28T10:28:02Z</time>
      </trkpt>
      <trkpt lat="45.8831" lon="3.18394">
        <ele>316.6</ele>
        <time>2024-04-28T10:28:03Z</time>
      </trkpt>
      <trkpt lat="45.88318" lon="3.18395">
        <ele>316.6</ele>
        <time>2024-04-28T10:28:04Z</time>
      </trkpt>
      <trkpt lat="45.88325" lon="3.18397">
        <ele>316.6</ele>
        <time>2024-04-28T10:28:05Z</time>
      </trkpt>
      <trkpt lat="45.88332" lon="3.18398">
        <ele>316.6</ele>
        <time>2024-04-28T10:28:06Z</time>
      </trkpt>
      <trkpt lat="45.8834" lon="3.18399">
        <ele>316.6</ele>
        <time>2024-04-28T10:28:07Z</time>
      </trkpt>
      <trkpt lat="45.88347" lon="3.184">
        <ele>316.6</ele>
        <time>2024-04-28T10:28:08Z</time>
      </trkpt>
      <trkpt lat="45.88354" lon="3.18401">
        <ele>316.6</ele>
        <time>2024-04-28T10:28:09Z</time>
      </trkpt>
      <trkpt lat="45.88362" lon="3.18403">
        <ele>316.6</ele>
        <time>2024-04-28T10:28:10Z</time>
      </trkpt>
      <trkpt lat="45.88369" lon="3.18404">
        <ele>316.6</ele>
        <time>2024-04-28T10:28:11Z</time>
      </trkpt>
      <trkpt lat="45.88377" lon="3.18405">
        <ele>316.4</ele>
        <time>2024-04-28T10:28:12Z</time>
      </trkpt>
      <trkpt lat="45.88384" lon="3.18406">
        <ele>316.4</ele>
        <time>2024-04-28T10:28:13Z</time>
      </trkpt>
      <trkpt lat="45.88391" lon="3.18408">
        <ele>316.4</ele>
        <time>2024-04-28T10:28:14Z</time>
      </trkpt>
      <trkpt lat="45.88399" lon="3.18408">
        <ele>316.4</ele>
        <time>2024-04-28T10:28:15Z</time>
      </trkpt>
      <trkpt lat="45.88406" lon="3.18409">
        <ele>316.4</ele>
        <time>2024-04-28T10:28:16Z</time>
      </trkpt>
      <trkpt lat="45.88413" lon="3.18409">
        <ele>316.4</ele>
        <time>2024-04-28T10:28:17Z</time>
      </trkpt>
      <trkpt lat="45.8842" lon="3.18409">
        <ele>316.4</ele>
        <time>2024-04-28T10:28:18Z</time>
      </trkpt>
      <trkpt lat="45.88427" lon="3.18409">
        <ele>316.4</ele>
        <time>2024-04-28T10:28:19Z</time>
      </trkpt>
      <trkpt lat="45.88434" lon="3.18409">
        <ele>316.4</ele>
        <time>2024-04-28T10:28:20Z</time>
      </trkpt>
      <trkpt lat="45.88441" lon="3.18409">
        <ele>316.4</ele>
        <time>2024-04-28T10:28:21Z</time>
      </trkpt>
      <trkpt lat="45.88449" lon="3.1841">
        <ele>316.4</ele>
        <time>2024-04-28T10:28:22Z</time>
      </trkpt>
      <trkpt lat="45.88456" lon="3.1841">
        <ele>316.4</ele>
        <time>2024-04-28T10:28:23Z</time>
      </trkpt>
      <trkpt lat="45.88463" lon="3.1841">
        <ele>316.4</ele>
        <time>2024-04-28T10:28:24Z</time>
      </trkpt>
      <trkpt lat="45.8847" lon="3.1841">
        <ele>316.4</ele>
        <time>2024-04-28T10:28:25Z</time>
      </trkpt>
      <trkpt lat="45.88477" lon="3.1841">
        <ele>316.4</ele>
        <time>2024-04-28T10:28:26Z</time>
      </trkpt>
      <trkpt lat="45.88485" lon="3.1841">
        <ele>316.4</ele>
        <time>2024-04-28T10:28:27Z</time>
      </trkpt>
      <trkpt lat="45.88492" lon="3.18411">
        <ele>316.4</ele>
        <time>2024-04-28T10:28:28Z</time>
      </trkpt>
      <trkpt lat="45.88499" lon="3.18411">
        <ele>316.2</ele>
        <time>2024-04-28T10:28:29Z</time>
      </trkpt>
      <trkpt lat="45.88506" lon="3.18411">
        <ele>316.2</ele>
        <time>2024-04-28T10:28:30Z</time>
      </trkpt>
      <trkpt lat="45.88513" lon="3.18411">
        <ele>316.2</ele>
        <time>2024-04-28T10:28:31Z</time>
      </trkpt>
      <trkpt lat="45.88521" lon="3.18411">
        <ele>316.2</ele>
        <time>2024-04-28T10:28:32Z</time>
      </trkpt>
      <trkpt lat="45.88528" lon="3.18411">
        <ele>316.2</ele>
        <time>2024-04-28T10:28:33Z</time>
      </trkpt>
      <trkpt lat="45.88535" lon="3.18412">
        <ele>316.2</ele>
        <time>2024-04-28T10:28:34Z</time>
      </trkpt>
      <trkpt lat="45.88542" lon="3.18412">
        <ele>316.2</ele>
        <time>2024-04-28T10:28:35Z</time>
      </trkpt>
      <trkpt lat="45.88549" lon="3.18412">
        <ele>316.2</ele>
        <time>2024-04-28T10:28:36Z</time>
      </trkpt>
      <trkpt lat="45.88556" lon="3.18412">
        <ele>316.2</ele>
        <time>2024-04-28T10:28:37Z</time>
      </trkpt>
      <trkpt lat="45.88563" lon="3.18412">
        <ele>316.2</ele>
        <time>2024-04-28T10:28:38Z</time>
      </trkpt>
      <trkpt lat="45.8857" lon="3.18412">
        <ele>316.2</ele>
        <time>2024-04-28T10:28:39Z</time>
      </trkpt>
      <trkpt lat="45.88577" lon="3.18413">
        <ele>316.2</ele>
        <time>2024-04-28T10:28:40Z</time>
      </trkpt>
      <trkpt lat="45.88584" lon="3.18413">
        <ele>316.2</ele>
        <time>2024-04-28T10:28:41Z</time>
      </trkpt>
      <trkpt lat="45.8859" lon="3.18413">
        <ele>316.2</ele>
        <time>2024-04-28T10:28:42Z</time>
      </trkpt>
      <trkpt lat="45.88597" lon="3.18413">
        <ele>316.2</ele>
        <time>2024-04-28T10:28:43Z</time>
      </trkpt>
      <trkpt lat="45.88604" lon="3.18413">
        <ele>316.2</ele>
        <time>2024-04-28T10:28:44Z</time>
      </trkpt>
      <trkpt lat="45.88611" lon="3.18413">
        <ele>316.2</ele>
        <time>2024-04-28T10:28:45Z</time>
      </trkpt>
      <trkpt lat="45.88618" lon="3.18413">
        <ele>316.2</ele>
        <time>2024-04-28T10:28:46Z</time>
      </trkpt>
      <trkpt lat="45.88624" lon="3.18413">
        <ele>316.2</ele>
        <time>2024-04-28T10:28:47Z</time>
      </trkpt>
      <trkpt lat="45.88631" lon="3.18413">
        <ele>316.2</ele>
        <time>2024-04-28T10:28:48Z</time>
      </trkpt>
      <trkpt lat="45.88638" lon="3.18413">
        <ele>316.2</ele>
        <time>2024-04-28T10:28:49Z</time>
      </trkpt>
      <trkpt lat="45.88644" lon="3.18413">
        <ele>316</ele>
        <time>2024-04-28T10:28:50Z</time>
      </trkpt>
      <trkpt lat="45.88651" lon="3.1841">
        <ele>316</ele>
        <time>2024-04-28T10:28:51Z</time>
      </trkpt>
      <trkpt lat="45.88657" lon="3.18407">
        <ele>316</ele>
        <time>2024-04-28T10:28:52Z</time>
      </trkpt>
      <trkpt lat="45.88664" lon="3.18404">
        <ele>316.2</ele>
        <time>2024-04-28T10:28:53Z</time>
      </trkpt>
      <trkpt lat="45.8867" lon="3.184">
        <ele>316.2</ele>
        <time>2024-04-28T10:28:54Z</time>
      </trkpt>
      <trkpt lat="45.88676" lon="3.18394">
        <ele>316.2</ele>
        <time>2024-04-28T10:28:55Z</time>
      </trkpt>
      <trkpt lat="45.88681" lon="3.18387">
        <ele>316</ele>
        <time>2024-04-28T10:28:56Z</time>
      </trkpt>
      <trkpt lat="45.88684" lon="3.18379">
        <ele>316</ele>
        <time>2024-04-28T10:28:57Z</time>
      </trkpt>
      <trkpt lat="45.88687" lon="3.1837">
        <ele>316</ele>
        <time>2024-04-28T10:28:58Z</time>
      </trkpt>
      <trkpt lat="45.8869" lon="3.18361">
        <ele>316</ele>
        <time>2024-04-28T10:28:59Z</time>
      </trkpt>
      <trkpt lat="45.88693" lon="3.18352">
        <ele>316</ele>
        <time>2024-04-28T10:29:00Z</time>
      </trkpt>
      <trkpt lat="45.88692" lon="3.18342">
        <ele>316</ele>
        <time>2024-04-28T10:29:01Z</time>
      </trkpt>
      <trkpt lat="45.88692" lon="3.18331">
        <ele>316</ele>
        <time>2024-04-28T10:29:02Z</time>
      </trkpt>
      <trkpt lat="45.88691" lon="3.18321">
        <ele>316</ele>
        <time>2024-04-28T10:29:03Z</time>
      </trkpt>
      <trkpt lat="45.88687" lon="3.18312">
        <ele>316</ele>
        <time>2024-04-28T10:29:04Z</time>
      </trkpt>
      <trkpt lat="45.88684" lon="3.18302">
        <ele>316</ele>
        <time>2024-04-28T10:29:05Z</time>
      </trkpt>
      <trkpt lat="45.88681" lon="3.18292">
        <ele>316</ele>
        <time>2024-04-28T10:29:06Z</time>
      </trkpt>
      <trkpt lat="45.88678" lon="3.18283">
        <ele>316</ele>
        <time>2024-04-28T10:29:07Z</time>
      </trkpt>
      <trkpt lat="45.88674" lon="3.18273">
        <ele>316</ele>
        <time>2024-04-28T10:29:08Z</time>
      </trkpt>
      <trkpt lat="45.88671" lon="3.18264">
        <ele>316</ele>
        <time>2024-04-28T10:29:09Z</time>
      </trkpt>
      <trkpt lat="45.88668" lon="3.18254">
        <ele>316</ele>
        <time>2024-04-28T10:29:10Z</time>
      </trkpt>
      <trkpt lat="45.88665" lon="3.18245">
        <ele>316</ele>
        <time>2024-04-28T10:29:11Z</time>
      </trkpt>
      <trkpt lat="45.88662" lon="3.18236">
        <ele>316</ele>
        <time>2024-04-28T10:29:12Z</time>
      </trkpt>
      <trkpt lat="45.88659" lon="3.18226">
        <ele>316</ele>
        <time>2024-04-28T10:29:13Z</time>
      </trkpt>
      <trkpt lat="45.88656" lon="3.18217">
        <ele>316</ele>
        <time>2024-04-28T10:29:14Z</time>
      </trkpt>
      <trkpt lat="45.88652" lon="3.18208">
        <ele>316</ele>
        <time>2024-04-28T10:29:15Z</time>
      </trkpt>
      <trkpt lat="45.88649" lon="3.18199">
        <ele>316</ele>
        <time>2024-04-28T10:29:16Z</time>
      </trkpt>
      <trkpt lat="45.88646" lon="3.1819">
        <ele>316.2</ele>
        <time>2024-04-28T10:29:17Z</time>
      </trkpt>
      <trkpt lat="45.88643" lon="3.18181">
        <ele>316</ele>
        <time>2024-04-28T10:29:18Z</time>
      </trkpt>
      <trkpt lat="45.8864" lon="3.18172">
        <ele>316</ele>
        <time>2024-04-28T10:29:19Z</time>
      </trkpt>
      <trkpt lat="45.88637" lon="3.18163">
        <ele>316.2</ele>
        <time>2024-04-28T10:29:20Z</time>
      </trkpt>
      <trkpt lat="45.88634" lon="3.18153">
        <ele>316.2</ele>
        <time>2024-04-28T10:29:21Z</time>
      </trkpt>
      <trkpt lat="45.88632" lon="3.18144">
        <ele>316.2</ele>
        <time>2024-04-28T10:29:22Z</time>
      </trkpt>
      <trkpt lat="45.88629" lon="3.18135">
        <ele>316.2</ele>
        <time>2024-04-28T10:29:23Z</time>
      </trkpt>
      <trkpt lat="45.88626" lon="3.18126">
        <ele>316.2</ele>
        <time>2024-04-28T10:29:24Z</time>
      </trkpt>
      <trkpt lat="45.88624" lon="3.18117">
        <ele>316.2</ele>
        <time>2024-04-28T10:29:25Z</time>
      </trkpt>
      <trkpt lat="45.88621" lon="3.18108">
        <ele>316.2</ele>
        <time>2024-04-28T10:29:26Z</time>
      </trkpt>
      <trkpt lat="45.88619" lon="3.18099">
        <ele>316.2</ele>
        <time>2024-04-28T10:29:27Z</time>
      </trkpt>
      <trkpt lat="45.88616" lon="3.18091">
        <ele>316.2</ele>
        <time>2024-04-28T10:29:28Z</time>
      </trkpt>
      <trkpt lat="45.88614" lon="3.18082">
        <ele>316.2</ele>
        <time>2024-04-28T10:29:29Z</time>
      </trkpt>
      <trkpt lat="45.88611" lon="3.18073">
        <ele>316.2</ele>
        <time>2024-04-28T10:29:30Z</time>
      </trkpt>
      <trkpt lat="45.88609" lon="3.18064">
        <ele>316.2</ele>
        <time>2024-04-28T10:29:31Z</time>
      </trkpt>
      <trkpt lat="45.88606" lon="3.18056">
        <ele>316.2</ele>
        <time>2024-04-28T10:29:32Z</time>
      </trkpt>
      <trkpt lat="45.88603" lon="3.18047">
        <ele>316.2</ele>
        <time>2024-04-28T10:29:33Z</time>
      </trkpt>
      <trkpt lat="45.88601" lon="3.18038">
        <ele>316.2</ele>
        <time>2024-04-28T10:29:34Z</time>
      </trkpt>
      <trkpt lat="45.88598" lon="3.18029">
        <ele>316.2</ele>
        <time>2024-04-28T10:29:35Z</time>
      </trkpt>
      <trkpt lat="45.88596" lon="3.1802">
        <ele>316.2</ele>
        <time>2024-04-28T10:29:36Z</time>
      </trkpt>
      <trkpt lat="45.88593" lon="3.18011">
        <ele>316.2</ele>
        <time>2024-04-28T10:29:37Z</time>
      </trkpt>
      <trkpt lat="45.8859" lon="3.18001">
        <ele>316.2</ele>
        <time>2024-04-28T10:29:38Z</time>
      </trkpt>
      <trkpt lat="45.88588" lon="3.17992">
        <ele>316.2</ele>
        <time>2024-04-28T10:29:39Z</time>
      </trkpt>
      <trkpt lat="45.88585" lon="3.17983">
        <ele>316.4</ele>
        <time>2024-04-28T10:29:40Z</time>
      </trkpt>
      <trkpt lat="45.88582" lon="3.17974">
        <ele>316.4</ele>
        <time>2024-04-28T10:29:41Z</time>
      </trkpt>
      <trkpt lat="45.8858" lon="3.17965">
        <ele>316.4</ele>
        <time>2024-04-28T10:29:42Z</time>
      </trkpt>
      <trkpt lat="45.88579" lon="3.17955">
        <ele>316.4</ele>
        <time>2024-04-28T10:29:43Z</time>
      </trkpt>
      <trkpt lat="45.88579" lon="3.17945">
        <ele>316.4</ele>
        <time>2024-04-28T10:29:44Z</time>
      </trkpt>
      <trkpt lat="45.88578" lon="3.17935">
        <ele>316.4</ele>
        <time>2024-04-28T10:29:45Z</time>
      </trkpt>
      <trkpt lat="45.88578" lon="3.17925">
        <ele>316.4</ele>
        <time>2024-04-28T10:29:46Z</time>
      </trkpt>
      <trkpt lat="45.88578" lon="3.17915">
        <ele>316.4</ele>
        <time>2024-04-28T10:29:47Z</time>
      </trkpt>
      <trkpt lat="45.88577" lon="3.17905">
        <ele>316.4</ele>
        <time>2024-04-28T10:29:48Z</time>
      </trkpt>
      <trkpt lat="45.88578" lon="3.17895">
        <ele>316.4</ele>
        <time>2024-04-28T10:29:49Z</time>
      </trkpt>
      <trkpt lat="45.8858" lon="3.17885">
        <ele>316.4</ele>
        <time>2024-04-28T10:29:50Z</time>
      </trkpt>
      <trkpt lat="45.88582" lon="3.17876">
        <ele>316.4</ele>
        <time>2024-04-28T10:29:51Z</time>
      </trkpt>
      <trkpt lat="45.88584" lon="3.17867">
        <ele>316.4</ele>
        <time>2024-04-28T10:29:52Z</time>
      </trkpt>
      <trkpt lat="45.88589" lon="3.1786">
        <ele>316.4</ele>
        <time>2024-04-28T10:29:53Z</time>
      </trkpt>
      <trkpt lat="45.88594" lon="3.17854">
        <ele>316.4</ele>
        <time>2024-04-28T10:29:54Z</time>
      </trkpt>
      <trkpt lat="45.886" lon="3.17848">
        <ele>316.4</ele>
        <time>2024-04-28T10:29:55Z</time>
      </trkpt>
      <trkpt lat="45.88607" lon="3.17846">
        <ele>316.4</ele>
        <time>2024-04-28T10:29:56Z</time>
      </trkpt>
      <trkpt lat="45.88614" lon="3.17844">
        <ele>316.4</ele>
        <time>2024-04-28T10:29:57Z</time>
      </trkpt>
      <trkpt lat="45.88621" lon="3.17842">
        <ele>316.4</ele>
        <time>2024-04-28T10:29:58Z</time>
      </trkpt>
      <trkpt lat="45.88628" lon="3.17842">
        <ele>316.4</ele>
        <time>2024-04-28T10:29:59Z</time>
      </trkpt>
      <trkpt lat="45.88636" lon="3.17843">
        <ele>316.4</ele>
        <time>2024-04-28T10:30:00Z</time>
      </trkpt>
      <trkpt lat="45.88643" lon="3.17843">
        <ele>316.4</ele>
        <time>2024-04-28T10:30:01Z</time>
      </trkpt>
      <trkpt lat="45.8865" lon="3.17843">
        <ele>316.4</ele>
        <time>2024-04-28T10:30:02Z</time>
      </trkpt>
      <trkpt lat="45.88657" lon="3.17844">
        <ele>316.4</ele>
        <time>2024-04-28T10:30:03Z</time>
      </trkpt>
      <trkpt lat="45.88665" lon="3.17844">
        <ele>316.4</ele>
        <time>2024-04-28T10:30:04Z</time>
      </trkpt>
      <trkpt lat="45.88672" lon="3.17845">
        <ele>316.4</ele>
        <time>2024-04-28T10:30:05Z</time>
      </trkpt>
      <trkpt lat="45.88679" lon="3.17845">
        <ele>316.4</ele>
        <time>2024-04-28T10:30:06Z</time>
      </trkpt>
      <trkpt lat="45.88686" lon="3.17846">
        <ele>316.4</ele>
        <time>2024-04-28T10:30:07Z</time>
      </trkpt>
      <trkpt lat="45.88693" lon="3.17846">
        <ele>316.4</ele>
        <time>2024-04-28T10:30:08Z</time>
      </trkpt>
      <trkpt lat="45.887" lon="3.17846">
        <ele>316.4</ele>
        <time>2024-04-28T10:30:09Z</time>
      </trkpt>
      <trkpt lat="45.88708" lon="3.17847">
        <ele>316.4</ele>
        <time>2024-04-28T10:30:10Z</time>
      </trkpt>
      <trkpt lat="45.88715" lon="3.17847">
        <ele>316.6</ele>
        <time>2024-04-28T10:30:11Z</time>
      </trkpt>
      <trkpt lat="45.88722" lon="3.17848">
        <ele>316.6</ele>
        <time>2024-04-28T10:30:12Z</time>
      </trkpt>
      <trkpt lat="45.88729" lon="3.17848">
        <ele>316.6</ele>
        <time>2024-04-28T10:30:13Z</time>
      </trkpt>
      <trkpt lat="45.88736" lon="3.17848">
        <ele>316.6</ele>
        <time>2024-04-28T10:30:14Z</time>
      </trkpt>
      <trkpt lat="45.88744" lon="3.17849">
        <ele>316.6</ele>
        <time>2024-04-28T10:30:15Z</time>
      </trkpt>
      <trkpt lat="45.88751" lon="3.17849">
        <ele>316.6</ele>
        <time>2024-04-28T10:30:16Z</time>
      </trkpt>
      <trkpt lat="45.88758" lon="3.1785">
        <ele>316.6</ele>
        <time>2024-04-28T10:30:17Z</time>
      </trkpt>
      <trkpt lat="45.88773" lon="3.1785">
        <ele>316.6</ele>
        <time>2024-04-28T10:30:18Z</time>
      </trkpt>
      <trkpt lat="45.88773" lon="3.1785">
        <ele>316.6</ele>
        <time>2024-04-28T10:30:19Z</time>
      </trkpt>
      <trkpt lat="45.8878" lon="3.17851">
        <ele>316.6</ele>
        <time>2024-04-28T10:30:20Z</time>
      </trkpt>
      <trkpt lat="45.88787" lon="3.17851">
        <ele>316.6</ele>
        <time>2024-04-28T10:30:21Z</time>
      </trkpt>
      <trkpt lat="45.88794" lon="3.17852">
        <ele>316.6</ele>
        <time>2024-04-28T10:30:22Z</time>
      </trkpt>
      <trkpt lat="45.88801" lon="3.17852">
        <ele>316.6</ele>
        <time>2024-04-28T10:30:23Z</time>
      </trkpt>
      <trkpt lat="45.88808" lon="3.17853">
        <ele>316.6</ele>
        <time>2024-04-28T10:30:24Z</time>
      </trkpt>
      <trkpt lat="45.88815" lon="3.17853">
        <ele>316.6</ele>
        <time>2024-04-28T10:30:25Z</time>
      </trkpt>
      <trkpt lat="45.88822" lon="3.17853">
        <ele>316.6</ele>
        <time>2024-04-28T10:30:26Z</time>
      </trkpt>
      <trkpt lat="45.88829" lon="3.17854">
        <ele>316.6</ele>
        <time>2024-04-28T10:30:27Z</time>
      </trkpt>
      <trkpt lat="45.88835" lon="3.17854">
        <ele>316.6</ele>
        <time>2024-04-28T10:30:28Z</time>
      </trkpt>
      <trkpt lat="45.88842" lon="3.17854">
        <ele>316.6</ele>
        <time>2024-04-28T10:30:29Z</time>
      </trkpt>
      <trkpt lat="45.88848" lon="3.17856">
        <ele>316.6</ele>
        <time>2024-04-28T10:30:30Z</time>
      </trkpt>
      <trkpt lat="45.88854" lon="3.17859">
        <ele>316.6</ele>
        <time>2024-04-28T10:30:31Z</time>
      </trkpt>
      <trkpt lat="45.88859" lon="3.17861">
        <ele>316.6</ele>
        <time>2024-04-28T10:30:32Z</time>
      </trkpt>
      <trkpt lat="45.88865" lon="3.17864">
        <ele>316.6</ele>
        <time>2024-04-28T10:30:33Z</time>
      </trkpt>
      <trkpt lat="45.88869" lon="3.17866">
        <ele>316.6</ele>
        <time>2024-04-28T10:30:34Z</time>
      </trkpt>
      <trkpt lat="45.88872" lon="3.17867">
        <ele>316.6</ele>
        <time>2024-04-28T10:30:35Z</time>
      </trkpt>
      <trkpt lat="45.88874" lon="3.17868">
        <ele>316.6</ele>
        <time>2024-04-28T10:30:36Z</time>
      </trkpt>
      <trkpt lat="45.88876" lon="3.17869">
        <ele>316.6</ele>
        <time>2024-04-28T10:30:37Z</time>
      </trkpt>
      <trkpt lat="45.88877" lon="3.1787">
        <ele>316.6</ele>
        <time>2024-04-28T10:30:38Z</time>
      </trkpt>
      <trkpt lat="45.88879" lon="3.17871">
        <ele>316.6</ele>
        <time>2024-04-28T10:30:39Z</time>
      </trkpt>
      <trkpt lat="45.88885" lon="3.17871">
        <ele>316.6</ele>
        <time>2024-04-28T10:30:40Z</time>
      </trkpt>
      <trkpt lat="45.88888" lon="3.17869">
        <ele>316.6</ele>
        <time>2024-04-28T10:30:41Z</time>
      </trkpt>
      <trkpt lat="45.88892" lon="3.17868">
        <ele>316.6</ele>
        <time>2024-04-28T10:30:42Z</time>
      </trkpt>
      <trkpt lat="45.88897" lon="3.17866">
        <ele>316.6</ele>
        <time>2024-04-28T10:30:43Z</time>
      </trkpt>
      <trkpt lat="45.88902" lon="3.17864">
        <ele>316.6</ele>
        <time>2024-04-28T10:30:44Z</time>
      </trkpt>
      <trkpt lat="45.88907" lon="3.17862">
        <ele>316.6</ele>
        <time>2024-04-28T10:30:45Z</time>
      </trkpt>
      <trkpt lat="45.88913" lon="3.1786">
        <ele>316.6</ele>
        <time>2024-04-28T10:30:46Z</time>
      </trkpt>
      <trkpt lat="45.88921" lon="3.1786">
        <ele>316.6</ele>
        <time>2024-04-28T10:30:47Z</time>
      </trkpt>
      <trkpt lat="45.88927" lon="3.17861">
        <ele>316.6</ele>
        <time>2024-04-28T10:30:48Z</time>
      </trkpt>
      <trkpt lat="45.88934" lon="3.17862">
        <ele>316.6</ele>
        <time>2024-04-28T10:30:49Z</time>
      </trkpt>
      <trkpt lat="45.88941" lon="3.17863">
        <ele>316.6</ele>
        <time>2024-04-28T10:30:50Z</time>
      </trkpt>
      <trkpt lat="45.88947" lon="3.17864">
        <ele>316.6</ele>
        <time>2024-04-28T10:30:51Z</time>
      </trkpt>
      <trkpt lat="45.88954" lon="3.17865">
        <ele>316.6</ele>
        <time>2024-04-28T10:30:52Z</time>
      </trkpt>
      <trkpt lat="45.88962" lon="3.17866">
        <ele>316.6</ele>
        <time>2024-04-28T10:30:53Z</time>
      </trkpt>
      <trkpt lat="45.88969" lon="3.17867">
        <ele>316.6</ele>
        <time>2024-04-28T10:30:54Z</time>
      </trkpt>
      <trkpt lat="45.88976" lon="3.17868">
        <ele>316.6</ele>
        <time>2024-04-28T10:30:55Z</time>
      </trkpt>
      <trkpt lat="45.88983" lon="3.17869">
        <ele>316.6</ele>
        <time>2024-04-28T10:30:56Z</time>
      </trkpt>
      <trkpt lat="45.8899" lon="3.17871">
        <ele>316.6</ele>
        <time>2024-04-28T10:30:57Z</time>
      </trkpt>
      <trkpt lat="45.88997" lon="3.17872">
        <ele>316.6</ele>
        <time>2024-04-28T10:30:58Z</time>
      </trkpt>
      <trkpt lat="45.89004" lon="3.17873">
        <ele>316.6</ele>
        <time>2024-04-28T10:30:59Z</time>
      </trkpt>
      <trkpt lat="45.89012" lon="3.17874">
        <ele>316.6</ele>
        <time>2024-04-28T10:31:00Z</time>
      </trkpt>
      <trkpt lat="45.89019" lon="3.17875">
        <ele>316.6</ele>
        <time>2024-04-28T10:31:01Z</time>
      </trkpt>
      <trkpt lat="45.89026" lon="3.17876">
        <ele>316.6</ele>
        <time>2024-04-28T10:31:02Z</time>
      </trkpt>
      <trkpt lat="45.89033" lon="3.17877">
        <ele>316.6</ele>
        <time>2024-04-28T10:31:03Z</time>
      </trkpt>
      <trkpt lat="45.8904" lon="3.17879">
        <ele>316.6</ele>
        <time>2024-04-28T10:31:04Z</time>
      </trkpt>
      <trkpt lat="45.89048" lon="3.1788">
        <ele>316.6</ele>
        <time>2024-04-28T10:31:05Z</time>
      </trkpt>
      <trkpt lat="45.89055" lon="3.17881">
        <ele>316.6</ele>
        <time>2024-04-28T10:31:06Z</time>
      </trkpt>
      <trkpt lat="45.89063" lon="3.17882">
        <ele>316.6</ele>
        <time>2024-04-28T10:31:07Z</time>
      </trkpt>
      <trkpt lat="45.8907" lon="3.17883">
        <ele>316.6</ele>
        <time>2024-04-28T10:31:08Z</time>
      </trkpt>
      <trkpt lat="45.89077" lon="3.17884">
        <ele>316.6</ele>
        <time>2024-04-28T10:31:09Z</time>
      </trkpt>
      <trkpt lat="45.89085" lon="3.17886">
        <ele>316.6</ele>
        <time>2024-04-28T10:31:10Z</time>
      </trkpt>
      <trkpt lat="45.89092" lon="3.17887">
        <ele>316.6</ele>
        <time>2024-04-28T10:31:11Z</time>
      </trkpt>
      <trkpt lat="45.89099" lon="3.17888">
        <ele>316.8</ele>
        <time>2024-04-28T10:31:12Z</time>
      </trkpt>
      <trkpt lat="45.89106" lon="3.17889">
        <ele>316.6</ele>
        <time>2024-04-28T10:31:13Z</time>
      </trkpt>
      <trkpt lat="45.89113" lon="3.1789">
        <ele>316.8</ele>
        <time>2024-04-28T10:31:14Z</time>
      </trkpt>
      <trkpt lat="45.8912" lon="3.17891">
        <ele>316.6</ele>
        <time>2024-04-28T10:31:15Z</time>
      </trkpt>
      <trkpt lat="45.89127" lon="3.17892">
        <ele>316.8</ele>
        <time>2024-04-28T10:31:16Z</time>
      </trkpt>
      <trkpt lat="45.89134" lon="3.17893">
        <ele>316.8</ele>
        <time>2024-04-28T10:31:17Z</time>
      </trkpt>
      <trkpt lat="45.89148" lon="3.17896">
        <ele>316.8</ele>
        <time>2024-04-28T10:31:18Z</time>
      </trkpt>
      <trkpt lat="45.89155" lon="3.17897">
        <ele>316.8</ele>
        <time>2024-04-28T10:31:19Z</time>
      </trkpt>
      <trkpt lat="45.89155" lon="3.17897">
        <ele>316.8</ele>
        <time>2024-04-28T10:31:20Z</time>
      </trkpt>
      <trkpt lat="45.89169" lon="3.17899">
        <ele>316.8</ele>
        <time>2024-04-28T10:31:21Z</time>
      </trkpt>
      <trkpt lat="45.89176" lon="3.179">
        <ele>316.8</ele>
        <time>2024-04-28T10:31:22Z</time>
      </trkpt>
      <trkpt lat="45.89183" lon="3.17901">
        <ele>316.8</ele>
        <time>2024-04-28T10:31:23Z</time>
      </trkpt>
      <trkpt lat="45.89183" lon="3.17901">
        <ele>316.8</ele>
        <time>2024-04-28T10:31:24Z</time>
      </trkpt>
      <trkpt lat="45.89197" lon="3.17903">
        <ele>316.8</ele>
        <time>2024-04-28T10:31:25Z</time>
      </trkpt>
      <trkpt lat="45.89204" lon="3.17904">
        <ele>316.8</ele>
        <time>2024-04-28T10:31:26Z</time>
      </trkpt>
      <trkpt lat="45.89211" lon="3.17906">
        <ele>316.8</ele>
        <time>2024-04-28T10:31:27Z</time>
      </trkpt>
      <trkpt lat="45.89211" lon="3.17906">
        <ele>316.8</ele>
        <time>2024-04-28T10:31:28Z</time>
      </trkpt>
      <trkpt lat="45.89224" lon="3.17908">
        <ele>316.8</ele>
        <time>2024-04-28T10:31:29Z</time>
      </trkpt>
      <trkpt lat="45.89231" lon="3.1791">
        <ele>316.8</ele>
        <time>2024-04-28T10:31:30Z</time>
      </trkpt>
      <trkpt lat="45.89238" lon="3.17911">
        <ele>316.8</ele>
        <time>2024-04-28T10:31:31Z</time>
      </trkpt>
      <trkpt lat="45.89245" lon="3.17912">
        <ele>316.8</ele>
        <time>2024-04-28T10:31:32Z</time>
      </trkpt>
      <trkpt lat="45.89252" lon="3.17914">
        <ele>316.8</ele>
        <time>2024-04-28T10:31:33Z</time>
      </trkpt>
      <trkpt lat="45.89252" lon="3.17914">
        <ele>316.8</ele>
        <time>2024-04-28T10:31:34Z</time>
      </trkpt>
      <trkpt lat="45.89266" lon="3.17916">
        <ele>316.8</ele>
        <time>2024-04-28T10:31:35Z</time>
      </trkpt>
      <trkpt lat="45.89273" lon="3.17917">
        <ele>316.8</ele>
        <time>2024-04-28T10:31:36Z</time>
      </trkpt>
      <trkpt lat="45.8928" lon="3.17918">
        <ele>316.8</ele>
        <time>2024-04-28T10:31:37Z</time>
      </trkpt>
      <trkpt lat="45.89287" lon="3.17919">
        <ele>316.8</ele>
        <time>2024-04-28T10:31:38Z</time>
      </trkpt>
      <trkpt lat="45.89294" lon="3.1792">
        <ele>316.8</ele>
        <time>2024-04-28T10:31:39Z</time>
      </trkpt>
      <trkpt lat="45.89301" lon="3.17921">
        <ele>316.8</ele>
        <time>2024-04-28T10:31:40Z</time>
      </trkpt>
      <trkpt lat="45.89308" lon="3.17922">
        <ele>316.8</ele>
        <time>2024-04-28T10:31:41Z</time>
      </trkpt>
      <trkpt lat="45.89315" lon="3.17923">
        <ele>316.8</ele>
        <time>2024-04-28T10:31:42Z</time>
      </trkpt>
      <trkpt lat="45.89322" lon="3.17924">
        <ele>316.8</ele>
        <time>2024-04-28T10:31:43Z</time>
      </trkpt>
      <trkpt lat="45.89329" lon="3.17925">
        <ele>316.6</ele>
        <time>2024-04-28T10:31:44Z</time>
      </trkpt>
      <trkpt lat="45.89336" lon="3.17926">
        <ele>316.6</ele>
        <time>2024-04-28T10:31:45Z</time>
      </trkpt>
      <trkpt lat="45.89343" lon="3.17927">
        <ele>316.6</ele>
        <time>2024-04-28T10:31:46Z</time>
      </trkpt>
      <trkpt lat="45.8935" lon="3.17928">
        <ele>316.8</ele>
        <time>2024-04-28T10:31:47Z</time>
      </trkpt>
      <trkpt lat="45.89357" lon="3.17929">
        <ele>316.8</ele>
        <time>2024-04-28T10:31:48Z</time>
      </trkpt>
      <trkpt lat="45.89364" lon="3.1793">
        <ele>316.8</ele>
        <time>2024-04-28T10:31:49Z</time>
      </trkpt>
      <trkpt lat="45.89371" lon="3.17931">
        <ele>316.6</ele>
        <time>2024-04-28T10:31:50Z</time>
      </trkpt>
      <trkpt lat="45.89377" lon="3.17932">
        <ele>316.6</ele>
        <time>2024-04-28T10:31:51Z</time>
      </trkpt>
      <trkpt lat="45.89384" lon="3.17933">
        <ele>316.6</ele>
        <time>2024-04-28T10:31:52Z</time>
      </trkpt>
      <trkpt lat="45.89391" lon="3.17934">
        <ele>316.6</ele>
        <time>2024-04-28T10:31:53Z</time>
      </trkpt>
      <trkpt lat="45.89398" lon="3.17935">
        <ele>316.6</ele>
        <time>2024-04-28T10:31:54Z</time>
      </trkpt>
      <trkpt lat="45.89398" lon="3.17935">
        <ele>316.6</ele>
        <time>2024-04-28T10:31:55Z</time>
      </trkpt>
      <trkpt lat="45.89405" lon="3.17936">
        <ele>316.6</ele>
        <time>2024-04-28T10:31:56Z</time>
      </trkpt>
      <trkpt lat="45.89412" lon="3.17937">
        <ele>316.6</ele>
        <time>2024-04-28T10:31:57Z</time>
      </trkpt>
      <trkpt lat="45.89426" lon="3.17939">
        <ele>316.6</ele>
        <time>2024-04-28T10:31:58Z</time>
      </trkpt>
      <trkpt lat="45.89433" lon="3.17941">
        <ele>316.6</ele>
        <time>2024-04-28T10:31:59Z</time>
      </trkpt>
      <trkpt lat="45.8944" lon="3.17942">
        <ele>316.6</ele>
        <time>2024-04-28T10:32:00Z</time>
      </trkpt>
      <trkpt lat="45.89446" lon="3.17943">
        <ele>316.6</ele>
        <time>2024-04-28T10:32:01Z</time>
      </trkpt>
      <trkpt lat="45.89453" lon="3.17944">
        <ele>316.6</ele>
        <time>2024-04-28T10:32:02Z</time>
      </trkpt>
      <trkpt lat="45.8946" lon="3.17946">
        <ele>316.6</ele>
        <time>2024-04-28T10:32:03Z</time>
      </trkpt>
      <trkpt lat="45.89467" lon="3.17947">
        <ele>316.6</ele>
        <time>2024-04-28T10:32:04Z</time>
      </trkpt>
      <trkpt lat="45.89474" lon="3.17948">
        <ele>316.6</ele>
        <time>2024-04-28T10:32:05Z</time>
      </trkpt>
      <trkpt lat="45.89481" lon="3.17949">
        <ele>316.6</ele>
        <time>2024-04-28T10:32:06Z</time>
      </trkpt>
      <trkpt lat="45.89488" lon="3.1795">
        <ele>316.6</ele>
        <time>2024-04-28T10:32:07Z</time>
      </trkpt>
      <trkpt lat="45.89494" lon="3.17952">
        <ele>316.6</ele>
        <time>2024-04-28T10:32:08Z</time>
      </trkpt>
      <trkpt lat="45.89501" lon="3.17953">
        <ele>316.6</ele>
        <time>2024-04-28T10:32:09Z</time>
      </trkpt>
      <trkpt lat="45.89508" lon="3.17954">
        <ele>316.6</ele>
        <time>2024-04-28T10:32:10Z</time>
      </trkpt>
      <trkpt lat="45.89515" lon="3.17955">
        <ele>316.6</ele>
        <time>2024-04-28T10:32:11Z</time>
      </trkpt>
      <trkpt lat="45.89515" lon="3.17955">
        <ele>316.6</ele>
        <time>2024-04-28T10:32:12Z</time>
      </trkpt>
      <trkpt lat="45.89522" lon="3.17956">
        <ele>316.6</ele>
        <time>2024-04-28T10:32:13Z</time>
      </trkpt>
      <trkpt lat="45.89536" lon="3.17957">
        <ele>316.6</ele>
        <time>2024-04-28T10:32:14Z</time>
      </trkpt>
      <trkpt lat="45.89543" lon="3.17958">
        <ele>316.6</ele>
        <time>2024-04-28T10:32:15Z</time>
      </trkpt>
      <trkpt lat="45.8955" lon="3.17959">
        <ele>316.4</ele>
        <time>2024-04-28T10:32:16Z</time>
      </trkpt>
      <trkpt lat="45.89556" lon="3.1796">
        <ele>316.4</ele>
        <time>2024-04-28T10:32:17Z</time>
      </trkpt>
      <trkpt lat="45.89563" lon="3.17961">
        <ele>316.6</ele>
        <time>2024-04-28T10:32:18Z</time>
      </trkpt>
      <trkpt lat="45.8957" lon="3.17962">
        <ele>316.6</ele>
        <time>2024-04-28T10:32:19Z</time>
      </trkpt>
      <trkpt lat="45.89577" lon="3.17962">
        <ele>316.4</ele>
        <time>2024-04-28T10:32:20Z</time>
      </trkpt>
      <trkpt lat="45.89584" lon="3.17963">
        <ele>316.6</ele>
        <time>2024-04-28T10:32:21Z</time>
      </trkpt>
      <trkpt lat="45.89591" lon="3.17964">
        <ele>316.6</ele>
        <time>2024-04-28T10:32:22Z</time>
      </trkpt>
      <trkpt lat="45.89597" lon="3.17965">
        <ele>316.6</ele>
        <time>2024-04-28T10:32:23Z</time>
      </trkpt>
      <trkpt lat="45.89604" lon="3.17966">
        <ele>316.6</ele>
        <time>2024-04-28T10:32:24Z</time>
      </trkpt>
      <trkpt lat="45.89611" lon="3.17964">
        <ele>316.6</ele>
        <time>2024-04-28T10:32:25Z</time>
      </trkpt>
      <trkpt lat="45.89617" lon="3.17961">
        <ele>316.6</ele>
        <time>2024-04-28T10:32:26Z</time>
      </trkpt>
      <trkpt lat="45.89617" lon="3.17961">
        <ele>316.8</ele>
        <time>2024-04-28T10:32:27Z</time>
      </trkpt>
      <trkpt lat="45.8963" lon="3.17954">
        <ele>316.8</ele>
        <time>2024-04-28T10:32:28Z</time>
      </trkpt>
      <trkpt lat="45.89637" lon="3.17951">
        <ele>316.8</ele>
        <time>2024-04-28T10:32:29Z</time>
      </trkpt>
      <trkpt lat="45.89644" lon="3.17947">
        <ele>316.8</ele>
        <time>2024-04-28T10:32:30Z</time>
      </trkpt>
      <trkpt lat="45.89651" lon="3.17943">
        <ele>316.8</ele>
        <time>2024-04-28T10:32:31Z</time>
      </trkpt>
      <trkpt lat="45.89658" lon="3.1794">
        <ele>316.8</ele>
        <time>2024-04-28T10:32:32Z</time>
      </trkpt>
      <trkpt lat="45.89664" lon="3.17936">
        <ele>316.8</ele>
        <time>2024-04-28T10:32:33Z</time>
      </trkpt>
      <trkpt lat="45.89671" lon="3.17933">
        <ele>316.8</ele>
        <time>2024-04-28T10:32:34Z</time>
      </trkpt>
      <trkpt lat="45.89678" lon="3.17929">
        <ele>316.8</ele>
        <time>2024-04-28T10:32:35Z</time>
      </trkpt>
      <trkpt lat="45.89684" lon="3.17926">
        <ele>316.8</ele>
        <time>2024-04-28T10:32:36Z</time>
      </trkpt>
      <trkpt lat="45.89684" lon="3.17926">
        <ele>316.8</ele>
        <time>2024-04-28T10:32:37Z</time>
      </trkpt>
      <trkpt lat="45.89698" lon="3.17919">
        <ele>316.8</ele>
        <time>2024-04-28T10:32:38Z</time>
      </trkpt>
      <trkpt lat="45.89705" lon="3.17915">
        <ele>316.8</ele>
        <time>2024-04-28T10:32:39Z</time>
      </trkpt>
      <trkpt lat="45.89712" lon="3.17912">
        <ele>316.8</ele>
        <time>2024-04-28T10:32:40Z</time>
      </trkpt>
      <trkpt lat="45.89719" lon="3.17908">
        <ele>316.6</ele>
        <time>2024-04-28T10:32:41Z</time>
      </trkpt>
      <trkpt lat="45.89726" lon="3.17904">
        <ele>316.6</ele>
        <time>2024-04-28T10:32:42Z</time>
      </trkpt>
      <trkpt lat="45.89733" lon="3.17901">
        <ele>316.6</ele>
        <time>2024-04-28T10:32:43Z</time>
      </trkpt>
      <trkpt lat="45.8974" lon="3.17897">
        <ele>316.6</ele>
        <time>2024-04-28T10:32:44Z</time>
      </trkpt>
      <trkpt lat="45.89747" lon="3.17893">
        <ele>316.8</ele>
        <time>2024-04-28T10:32:45Z</time>
      </trkpt>
      <trkpt lat="45.89754" lon="3.1789">
        <ele>316.8</ele>
        <time>2024-04-28T10:32:46Z</time>
      </trkpt>
      <trkpt lat="45.8976" lon="3.17884">
        <ele>316.6</ele>
        <time>2024-04-28T10:32:47Z</time>
      </trkpt>
      <trkpt lat="45.8976" lon="3.17884">
        <ele>316.6</ele>
        <time>2024-04-28T10:32:48Z</time>
      </trkpt>
      <trkpt lat="45.89771" lon="3.1787">
        <ele>316.8</ele>
        <time>2024-04-28T10:32:49Z</time>
      </trkpt>
      <trkpt lat="45.89775" lon="3.17861">
        <ele>316.8</ele>
        <time>2024-04-28T10:32:50Z</time>
      </trkpt>
      <trkpt lat="45.89776" lon="3.17851">
        <ele>316.6</ele>
        <time>2024-04-28T10:32:51Z</time>
      </trkpt>
      <trkpt lat="45.89778" lon="3.17841">
        <ele>316.8</ele>
        <time>2024-04-28T10:32:52Z</time>
      </trkpt>
      <trkpt lat="45.89779" lon="3.17831">
        <ele>316.6</ele>
        <time>2024-04-28T10:32:53Z</time>
      </trkpt>
      <trkpt lat="45.89779" lon="3.1782">
        <ele>316.6</ele>
        <time>2024-04-28T10:32:54Z</time>
      </trkpt>
      <trkpt lat="45.89779" lon="3.17809">
        <ele>316.8</ele>
        <time>2024-04-28T10:32:55Z</time>
      </trkpt>
      <trkpt lat="45.89778" lon="3.17798">
        <ele>316.6</ele>
        <time>2024-04-28T10:32:56Z</time>
      </trkpt>
      <trkpt lat="45.89778" lon="3.17786">
        <ele>316.6</ele>
        <time>2024-04-28T10:32:57Z</time>
      </trkpt>
      <trkpt lat="45.89778" lon="3.17775">
        <ele>316.8</ele>
        <time>2024-04-28T10:32:58Z</time>
      </trkpt>
      <trkpt lat="45.89778" lon="3.17764">
        <ele>316.8</ele>
        <time>2024-04-28T10:32:59Z</time>
      </trkpt>
      <trkpt lat="45.89778" lon="3.17754">
        <ele>316.8</ele>
        <time>2024-04-28T10:33:00Z</time>
      </trkpt>
      <trkpt lat="45.89778" lon="3.17743">
        <ele>316.8</ele>
        <time>2024-04-28T10:33:01Z</time>
      </trkpt>
      <trkpt lat="45.89778" lon="3.17732">
        <ele>316.8</ele>
        <time>2024-04-28T10:33:02Z</time>
      </trkpt>
      <trkpt lat="45.89777" lon="3.17722">
        <ele>316.8</ele>
        <time>2024-04-28T10:33:03Z</time>
      </trkpt>
      <trkpt lat="45.89777" lon="3.17711">
        <ele>317</ele>
        <time>2024-04-28T10:33:04Z</time>
      </trkpt>
      <trkpt lat="45.89777" lon="3.177">
        <ele>317</ele>
        <time>2024-04-28T10:33:05Z</time>
      </trkpt>
      <trkpt lat="45.89777" lon="3.17689">
        <ele>317</ele>
        <time>2024-04-28T10:33:06Z</time>
      </trkpt>
      <trkpt lat="45.89777" lon="3.17679">
        <ele>317</ele>
        <time>2024-04-28T10:33:07Z</time>
      </trkpt>
      <trkpt lat="45.89777" lon="3.17679">
        <ele>317</ele>
        <time>2024-04-28T10:33:08Z</time>
      </trkpt>
      <trkpt lat="45.89777" lon="3.17658">
        <ele>317</ele>
        <time>2024-04-28T10:33:09Z</time>
      </trkpt>
      <trkpt lat="45.89778" lon="3.17648">
        <ele>317</ele>
        <time>2024-04-28T10:33:10Z</time>
      </trkpt>
      <trkpt lat="45.89778" lon="3.17637">
        <ele>317</ele>
        <time>2024-04-28T10:33:11Z</time>
      </trkpt>
      <trkpt lat="45.89779" lon="3.17627">
        <ele>317.2</ele>
        <time>2024-04-28T10:33:12Z</time>
      </trkpt>
      <trkpt lat="45.89779" lon="3.17616">
        <ele>317.2</ele>
        <time>2024-04-28T10:33:13Z</time>
      </trkpt>
      <trkpt lat="45.89779" lon="3.17616">
        <ele>317.2</ele>
        <time>2024-04-28T10:33:14Z</time>
      </trkpt>
      <trkpt lat="45.89779" lon="3.17606">
        <ele>317.2</ele>
        <time>2024-04-28T10:33:15Z</time>
      </trkpt>
      <trkpt lat="45.8978" lon="3.17585">
        <ele>317.2</ele>
        <time>2024-04-28T10:33:16Z</time>
      </trkpt>
      <trkpt lat="45.89781" lon="3.17574">
        <ele>317.2</ele>
        <time>2024-04-28T10:33:17Z</time>
      </trkpt>
      <trkpt lat="45.89781" lon="3.17564">
        <ele>317.4</ele>
        <time>2024-04-28T10:33:18Z</time>
      </trkpt>
      <trkpt lat="45.89781" lon="3.17564">
        <ele>317.4</ele>
        <time>2024-04-28T10:33:19Z</time>
      </trkpt>
      <trkpt lat="45.89782" lon="3.17543">
        <ele>317.4</ele>
        <time>2024-04-28T10:33:20Z</time>
      </trkpt>
      <trkpt lat="45.89782" lon="3.17532">
        <ele>317.4</ele>
        <time>2024-04-28T10:33:21Z</time>
      </trkpt>
      <trkpt lat="45.89783" lon="3.17521">
        <ele>317.4</ele>
        <time>2024-04-28T10:33:22Z</time>
      </trkpt>
      <trkpt lat="45.89783" lon="3.17511">
        <ele>317.4</ele>
        <time>2024-04-28T10:33:23Z</time>
      </trkpt>
      <trkpt lat="45.89784" lon="3.17501">
        <ele>317.4</ele>
        <time>2024-04-28T10:33:24Z</time>
      </trkpt>
      <trkpt lat="45.89784" lon="3.1749">
        <ele>317.4</ele>
        <time>2024-04-28T10:33:25Z</time>
      </trkpt>
      <trkpt lat="45.89785" lon="3.1748">
        <ele>317.4</ele>
        <time>2024-04-28T10:33:26Z</time>
      </trkpt>
      <trkpt lat="45.89785" lon="3.17471">
        <ele>317.4</ele>
        <time>2024-04-28T10:33:27Z</time>
      </trkpt>
      <trkpt lat="45.89785" lon="3.17471">
        <ele>317.6</ele>
        <time>2024-04-28T10:33:28Z</time>
      </trkpt>
      <trkpt lat="45.89794" lon="3.17457">
        <ele>317.6</ele>
        <time>2024-04-28T10:33:29Z</time>
      </trkpt>
      <trkpt lat="45.898" lon="3.17456">
        <ele>317.6</ele>
        <time>2024-04-28T10:33:30Z</time>
      </trkpt>
      <trkpt lat="45.89807" lon="3.17454">
        <ele>317.6</ele>
        <time>2024-04-28T10:33:31Z</time>
      </trkpt>
      <trkpt lat="45.89815" lon="3.17452">
        <ele>317.6</ele>
        <time>2024-04-28T10:33:32Z</time>
      </trkpt>
      <trkpt lat="45.89823" lon="3.17449">
        <ele>317.6</ele>
        <time>2024-04-28T10:33:33Z</time>
      </trkpt>
      <trkpt lat="45.8983" lon="3.17449">
        <ele>317.4</ele>
        <time>2024-04-28T10:33:34Z</time>
      </trkpt>
      <trkpt lat="45.89838" lon="3.17449">
        <ele>317.6</ele>
        <time>2024-04-28T10:33:35Z</time>
      </trkpt>
      <trkpt lat="45.89846" lon="3.17449">
        <ele>317.6</ele>
        <time>2024-04-28T10:33:36Z</time>
      </trkpt>
      <trkpt lat="45.89853" lon="3.17449">
        <ele>317.6</ele>
        <time>2024-04-28T10:33:37Z</time>
      </trkpt>
      <trkpt lat="45.89861" lon="3.17449">
        <ele>317.6</ele>
        <time>2024-04-28T10:33:38Z</time>
      </trkpt>
      <trkpt lat="45.89868" lon="3.17449">
        <ele>317.6</ele>
        <time>2024-04-28T10:33:39Z</time>
      </trkpt>
      <trkpt lat="45.89876" lon="3.17449">
        <ele>317.6</ele>
        <time>2024-04-28T10:33:40Z</time>
      </trkpt>
      <trkpt lat="45.89883" lon="3.17449">
        <ele>317.6</ele>
        <time>2024-04-28T10:33:41Z</time>
      </trkpt>
      <trkpt lat="45.89891" lon="3.17449">
        <ele>317.6</ele>
        <time>2024-04-28T10:33:42Z</time>
      </trkpt>
      <trkpt lat="45.89898" lon="3.17449">
        <ele>317.6</ele>
        <time>2024-04-28T10:33:43Z</time>
      </trkpt>
      <trkpt lat="45.89905" lon="3.17449">
        <ele>317.6</ele>
        <time>2024-04-28T10:33:44Z</time>
      </trkpt>
      <trkpt lat="45.89913" lon="3.17449">
        <ele>317.6</ele>
        <time>2024-04-28T10:33:45Z</time>
      </trkpt>
      <trkpt lat="45.8992" lon="3.17449">
        <ele>317.6</ele>
        <time>2024-04-28T10:33:46Z</time>
      </trkpt>
      <trkpt lat="45.89928" lon="3.17449">
        <ele>317.6</ele>
        <time>2024-04-28T10:33:47Z</time>
      </trkpt>
      <trkpt lat="45.89935" lon="3.17449">
        <ele>317.6</ele>
        <time>2024-04-28T10:33:48Z</time>
      </trkpt>
      <trkpt lat="45.89943" lon="3.17449">
        <ele>317.6</ele>
        <time>2024-04-28T10:33:49Z</time>
      </trkpt>
      <trkpt lat="45.89958" lon="3.17449">
        <ele>317.6</ele>
        <time>2024-04-28T10:33:50Z</time>
      </trkpt>
      <trkpt lat="45.89965" lon="3.17449">
        <ele>317.6</ele>
        <time>2024-04-28T10:33:51Z</time>
      </trkpt>
      <trkpt lat="45.89972" lon="3.17449">
        <ele>317.6</ele>
        <time>2024-04-28T10:33:52Z</time>
      </trkpt>
      <trkpt lat="45.8998" lon="3.17451">
        <ele>317.6</ele>
        <time>2024-04-28T10:33:53Z</time>
      </trkpt>
      <trkpt lat="45.89987" lon="3.17452">
        <ele>317.6</ele>
        <time>2024-04-28T10:33:54Z</time>
      </trkpt>
      <trkpt lat="45.89994" lon="3.17454">
        <ele>317.6</ele>
        <time>2024-04-28T10:33:55Z</time>
      </trkpt>
      <trkpt lat="45.90002" lon="3.17456">
        <ele>317.8</ele>
        <time>2024-04-28T10:33:56Z</time>
      </trkpt>
      <trkpt lat="45.90009" lon="3.17458">
        <ele>317.6</ele>
        <time>2024-04-28T10:33:57Z</time>
      </trkpt>
      <trkpt lat="45.90016" lon="3.1746">
        <ele>317.6</ele>
        <time>2024-04-28T10:33:58Z</time>
      </trkpt>
      <trkpt lat="45.90023" lon="3.17462">
        <ele>317.8</ele>
        <time>2024-04-28T10:33:59Z</time>
      </trkpt>
      <trkpt lat="45.90031" lon="3.17464">
        <ele>317.8</ele>
        <time>2024-04-28T10:34:00Z</time>
      </trkpt>
      <trkpt lat="45.90038" lon="3.17466">
        <ele>317.8</ele>
        <time>2024-04-28T10:34:01Z</time>
      </trkpt>
      <trkpt lat="45.90045" lon="3.17468">
        <ele>317.8</ele>
        <time>2024-04-28T10:34:02Z</time>
      </trkpt>
      <trkpt lat="45.90053" lon="3.17469">
        <ele>317.8</ele>
        <time>2024-04-28T10:34:03Z</time>
      </trkpt>
      <trkpt lat="45.9006" lon="3.17471">
        <ele>317.8</ele>
        <time>2024-04-28T10:34:04Z</time>
      </trkpt>
      <trkpt lat="45.90067" lon="3.17473">
        <ele>317.8</ele>
        <time>2024-04-28T10:34:05Z</time>
      </trkpt>
      <trkpt lat="45.90074" lon="3.17475">
        <ele>317.8</ele>
        <time>2024-04-28T10:34:06Z</time>
      </trkpt>
      <trkpt lat="45.90081" lon="3.17477">
        <ele>317.8</ele>
        <time>2024-04-28T10:34:07Z</time>
      </trkpt>
      <trkpt lat="45.90088" lon="3.17479">
        <ele>317.8</ele>
        <time>2024-04-28T10:34:08Z</time>
      </trkpt>
      <trkpt lat="45.90095" lon="3.1748">
        <ele>317.8</ele>
        <time>2024-04-28T10:34:09Z</time>
      </trkpt>
      <trkpt lat="45.90102" lon="3.17482">
        <ele>317.8</ele>
        <time>2024-04-28T10:34:10Z</time>
      </trkpt>
      <trkpt lat="45.9011" lon="3.17484">
        <ele>317.8</ele>
        <time>2024-04-28T10:34:11Z</time>
      </trkpt>
      <trkpt lat="45.90117" lon="3.17486">
        <ele>317.8</ele>
        <time>2024-04-28T10:34:12Z</time>
      </trkpt>
      <trkpt lat="45.90124" lon="3.17488">
        <ele>317.8</ele>
        <time>2024-04-28T10:34:13Z</time>
      </trkpt>
      <trkpt lat="45.90132" lon="3.1749">
        <ele>317.8</ele>
        <time>2024-04-28T10:34:14Z</time>
      </trkpt>
      <trkpt lat="45.90139" lon="3.17492">
        <ele>317.8</ele>
        <time>2024-04-28T10:34:15Z</time>
      </trkpt>
      <trkpt lat="45.90147" lon="3.17494">
        <ele>317.8</ele>
        <time>2024-04-28T10:34:16Z</time>
      </trkpt>
      <trkpt lat="45.90154" lon="3.17496">
        <ele>317.8</ele>
        <time>2024-04-28T10:34:17Z</time>
      </trkpt>
      <trkpt lat="45.90162" lon="3.17498">
        <ele>317.8</ele>
        <time>2024-04-28T10:34:18Z</time>
      </trkpt>
      <trkpt lat="45.90169" lon="3.175">
        <ele>317.8</ele>
        <time>2024-04-28T10:34:19Z</time>
      </trkpt>
      <trkpt lat="45.90176" lon="3.17502">
        <ele>317.8</ele>
        <time>2024-04-28T10:34:20Z</time>
      </trkpt>
      <trkpt lat="45.90184" lon="3.17503">
        <ele>317.8</ele>
        <time>2024-04-28T10:34:21Z</time>
      </trkpt>
      <trkpt lat="45.90191" lon="3.17505">
        <ele>317.8</ele>
        <time>2024-04-28T10:34:22Z</time>
      </trkpt>
      <trkpt lat="45.90198" lon="3.17507">
        <ele>317.8</ele>
        <time>2024-04-28T10:34:23Z</time>
      </trkpt>
      <trkpt lat="45.90206" lon="3.17509">
        <ele>317.8</ele>
        <time>2024-04-28T10:34:24Z</time>
      </trkpt>
      <trkpt lat="45.90213" lon="3.17511">
        <ele>317.8</ele>
        <time>2024-04-28T10:34:25Z</time>
      </trkpt>
      <trkpt lat="45.9022" lon="3.17513">
        <ele>317.8</ele>
        <time>2024-04-28T10:34:26Z</time>
      </trkpt>
      <trkpt lat="45.90228" lon="3.17515">
        <ele>317.8</ele>
        <time>2024-04-28T10:34:27Z</time>
      </trkpt>
      <trkpt lat="45.90235" lon="3.17517">
        <ele>317.8</ele>
        <time>2024-04-28T10:34:28Z</time>
      </trkpt>
      <trkpt lat="45.90243" lon="3.17519">
        <ele>317.8</ele>
        <time>2024-04-28T10:34:29Z</time>
      </trkpt>
      <trkpt lat="45.9025" lon="3.17521">
        <ele>317.8</ele>
        <time>2024-04-28T10:34:30Z</time>
      </trkpt>
      <trkpt lat="45.90257" lon="3.17523">
        <ele>317.8</ele>
        <time>2024-04-28T10:34:31Z</time>
      </trkpt>
      <trkpt lat="45.90265" lon="3.17525">
        <ele>317.6</ele>
        <time>2024-04-28T10:34:32Z</time>
      </trkpt>
      <trkpt lat="45.90272" lon="3.17526">
        <ele>317.6</ele>
        <time>2024-04-28T10:34:33Z</time>
      </trkpt>
      <trkpt lat="45.90279" lon="3.17528">
        <ele>317.6</ele>
        <time>2024-04-28T10:34:34Z</time>
      </trkpt>
      <trkpt lat="45.90286" lon="3.1753">
        <ele>317.6</ele>
        <time>2024-04-28T10:34:35Z</time>
      </trkpt>
      <trkpt lat="45.90294" lon="3.17532">
        <ele>317.6</ele>
        <time>2024-04-28T10:34:36Z</time>
      </trkpt>
      <trkpt lat="45.90301" lon="3.17534">
        <ele>317.8</ele>
        <time>2024-04-28T10:34:37Z</time>
      </trkpt>
      <trkpt lat="45.90309" lon="3.17536">
        <ele>317.8</ele>
        <time>2024-04-28T10:34:38Z</time>
      </trkpt>
      <trkpt lat="45.90316" lon="3.17538">
        <ele>317.8</ele>
        <time>2024-04-28T10:34:39Z</time>
      </trkpt>
      <trkpt lat="45.90323" lon="3.1754">
        <ele>317.8</ele>
        <time>2024-04-28T10:34:40Z</time>
      </trkpt>
      <trkpt lat="45.90331" lon="3.17542">
        <ele>317.8</ele>
        <time>2024-04-28T10:34:41Z</time>
      </trkpt>
      <trkpt lat="45.90338" lon="3.17544">
        <ele>317.8</ele>
        <time>2024-04-28T10:34:42Z</time>
      </trkpt>
      <trkpt lat="45.90345" lon="3.17546">
        <ele>317.8</ele>
        <time>2024-04-28T10:34:43Z</time>
      </trkpt>
      <trkpt lat="45.90352" lon="3.17547">
        <ele>317.8</ele>
        <time>2024-04-28T10:34:44Z</time>
      </trkpt>
      <trkpt lat="45.90359" lon="3.1755">
        <ele>317.8</ele>
        <time>2024-04-28T10:34:45Z</time>
      </trkpt>
      <trkpt lat="45.90366" lon="3.17553">
        <ele>317.8</ele>
        <time>2024-04-28T10:34:46Z</time>
      </trkpt>
      <trkpt lat="45.90374" lon="3.17555">
        <ele>317.8</ele>
        <time>2024-04-28T10:34:47Z</time>
      </trkpt>
      <trkpt lat="45.90381" lon="3.17557">
        <ele>317.8</ele>
        <time>2024-04-28T10:34:48Z</time>
      </trkpt>
      <trkpt lat="45.90388" lon="3.1756">
        <ele>317.8</ele>
        <time>2024-04-28T10:34:49Z</time>
      </trkpt>
      <trkpt lat="45.90396" lon="3.17562">
        <ele>317.8</ele>
        <time>2024-04-28T10:34:50Z</time>
      </trkpt>
      <trkpt lat="45.90403" lon="3.17564">
        <ele>317.6</ele>
        <time>2024-04-28T10:34:51Z</time>
      </trkpt>
      <trkpt lat="45.90411" lon="3.17566">
        <ele>317.6</ele>
        <time>2024-04-28T10:34:52Z</time>
      </trkpt>
      <trkpt lat="45.90418" lon="3.17568">
        <ele>317.6</ele>
        <time>2024-04-28T10:34:53Z</time>
      </trkpt>
      <trkpt lat="45.90425" lon="3.1757">
        <ele>317.6</ele>
        <time>2024-04-28T10:34:54Z</time>
      </trkpt>
      <trkpt lat="45.90432" lon="3.17572">
        <ele>317.6</ele>
        <time>2024-04-28T10:34:55Z</time>
      </trkpt>
      <trkpt lat="45.9044" lon="3.17574">
        <ele>317.6</ele>
        <time>2024-04-28T10:34:56Z</time>
      </trkpt>
      <trkpt lat="45.90447" lon="3.17576">
        <ele>317.6</ele>
        <time>2024-04-28T10:34:57Z</time>
      </trkpt>
      <trkpt lat="45.90455" lon="3.17579">
        <ele>317.6</ele>
        <time>2024-04-28T10:34:58Z</time>
      </trkpt>
      <trkpt lat="45.90462" lon="3.17581">
        <ele>317.6</ele>
        <time>2024-04-28T10:34:59Z</time>
      </trkpt>
      <trkpt lat="45.9047" lon="3.17583">
        <ele>317.8</ele>
        <time>2024-04-28T10:35:00Z</time>
      </trkpt>
      <trkpt lat="45.90477" lon="3.17585">
        <ele>317.8</ele>
        <time>2024-04-28T10:35:01Z</time>
      </trkpt>
      <trkpt lat="45.90484" lon="3.17587">
        <ele>317.8</ele>
        <time>2024-04-28T10:35:02Z</time>
      </trkpt>
      <trkpt lat="45.90491" lon="3.17589">
        <ele>317.8</ele>
        <time>2024-04-28T10:35:03Z</time>
      </trkpt>
      <trkpt lat="45.90497" lon="3.17591">
        <ele>317.8</ele>
        <time>2024-04-28T10:35:04Z</time>
      </trkpt>
      <trkpt lat="45.90504" lon="3.17593">
        <ele>318</ele>
        <time>2024-04-28T10:35:05Z</time>
      </trkpt>
      <trkpt lat="45.90511" lon="3.17595">
        <ele>318</ele>
        <time>2024-04-28T10:35:06Z</time>
      </trkpt>
      <trkpt lat="45.90518" lon="3.17597">
        <ele>318</ele>
        <time>2024-04-28T10:35:07Z</time>
      </trkpt>
      <trkpt lat="45.90524" lon="3.17599">
        <ele>318</ele>
        <time>2024-04-28T10:35:08Z</time>
      </trkpt>
      <trkpt lat="45.90531" lon="3.176">
        <ele>318.2</ele>
        <time>2024-04-28T10:35:09Z</time>
      </trkpt>
      <trkpt lat="45.90537" lon="3.17602">
        <ele>318.2</ele>
        <time>2024-04-28T10:35:10Z</time>
      </trkpt>
      <trkpt lat="45.90544" lon="3.17604">
        <ele>318.2</ele>
        <time>2024-04-28T10:35:11Z</time>
      </trkpt>
      <trkpt lat="45.9055" lon="3.17606">
        <ele>318.2</ele>
        <time>2024-04-28T10:35:12Z</time>
      </trkpt>
      <trkpt lat="45.90557" lon="3.17608">
        <ele>318.2</ele>
        <time>2024-04-28T10:35:13Z</time>
      </trkpt>
      <trkpt lat="45.90563" lon="3.1761">
        <ele>318.4</ele>
        <time>2024-04-28T10:35:14Z</time>
      </trkpt>
      <trkpt lat="45.9057" lon="3.17612">
        <ele>318.4</ele>
        <time>2024-04-28T10:35:15Z</time>
      </trkpt>
      <trkpt lat="45.90577" lon="3.17614">
        <ele>318.4</ele>
        <time>2024-04-28T10:35:16Z</time>
      </trkpt>
      <trkpt lat="45.90577" lon="3.17614">
        <ele>318.4</ele>
        <time>2024-04-28T10:35:17Z</time>
      </trkpt>
      <trkpt lat="45.90592" lon="3.17616">
        <ele>318.4</ele>
        <time>2024-04-28T10:35:18Z</time>
      </trkpt>
      <trkpt lat="45.90599" lon="3.17618">
        <ele>318.4</ele>
        <time>2024-04-28T10:35:19Z</time>
      </trkpt>
      <trkpt lat="45.90607" lon="3.17619">
        <ele>318.4</ele>
        <time>2024-04-28T10:35:20Z</time>
      </trkpt>
      <trkpt lat="45.90615" lon="3.1762">
        <ele>318.4</ele>
        <time>2024-04-28T10:35:21Z</time>
      </trkpt>
      <trkpt lat="45.90623" lon="3.17621">
        <ele>318.4</ele>
        <time>2024-04-28T10:35:22Z</time>
      </trkpt>
      <trkpt lat="45.90631" lon="3.17623">
        <ele>318.4</ele>
        <time>2024-04-28T10:35:23Z</time>
      </trkpt>
      <trkpt lat="45.90639" lon="3.17624">
        <ele>318.4</ele>
        <time>2024-04-28T10:35:24Z</time>
      </trkpt>
      <trkpt lat="45.90648" lon="3.17625">
        <ele>318.2</ele>
        <time>2024-04-28T10:35:25Z</time>
      </trkpt>
      <trkpt lat="45.90656" lon="3.17627">
        <ele>318.2</ele>
        <time>2024-04-28T10:35:26Z</time>
      </trkpt>
      <trkpt lat="45.90664" lon="3.17628">
        <ele>318.2</ele>
        <time>2024-04-28T10:35:27Z</time>
      </trkpt>
      <trkpt lat="45.90672" lon="3.17629">
        <ele>318.6</ele>
        <time>2024-04-28T10:35:28Z</time>
      </trkpt>
      <trkpt lat="45.9068" lon="3.17631">
        <ele>318.4</ele>
        <time>2024-04-28T10:35:29Z</time>
      </trkpt>
      <trkpt lat="45.90688" lon="3.17632">
        <ele>318.4</ele>
        <time>2024-04-28T10:35:30Z</time>
      </trkpt>
      <trkpt lat="45.90696" lon="3.17633">
        <ele>318.2</ele>
        <time>2024-04-28T10:35:31Z</time>
      </trkpt>
      <trkpt lat="45.90704" lon="3.17634">
        <ele>318.2</ele>
        <time>2024-04-28T10:35:32Z</time>
      </trkpt>
      <trkpt lat="45.90712" lon="3.17636">
        <ele>318.2</ele>
        <time>2024-04-28T10:35:33Z</time>
      </trkpt>
      <trkpt lat="45.9072" lon="3.17637">
        <ele>318</ele>
        <time>2024-04-28T10:35:34Z</time>
      </trkpt>
      <trkpt lat="45.90727" lon="3.17639">
        <ele>317.8</ele>
        <time>2024-04-28T10:35:35Z</time>
      </trkpt>
      <trkpt lat="45.90735" lon="3.17641">
        <ele>317.8</ele>
        <time>2024-04-28T10:35:36Z</time>
      </trkpt>
      <trkpt lat="45.90735" lon="3.17641">
        <ele>318</ele>
        <time>2024-04-28T10:35:37Z</time>
      </trkpt>
      <trkpt lat="45.90743" lon="3.17644">
        <ele>318</ele>
        <time>2024-04-28T10:35:38Z</time>
      </trkpt>
      <trkpt lat="45.90758" lon="3.17649">
        <ele>318</ele>
        <time>2024-04-28T10:35:39Z</time>
      </trkpt>
      <trkpt lat="45.90765" lon="3.17652">
        <ele>318</ele>
        <time>2024-04-28T10:35:40Z</time>
      </trkpt>
      <trkpt lat="45.90773" lon="3.17655">
        <ele>318</ele>
        <time>2024-04-28T10:35:41Z</time>
      </trkpt>
      <trkpt lat="45.9078" lon="3.17657">
        <ele>318</ele>
        <time>2024-04-28T10:35:42Z</time>
      </trkpt>
      <trkpt lat="45.9078" lon="3.17657">
        <ele>318</ele>
        <time>2024-04-28T10:35:43Z</time>
      </trkpt>
      <trkpt lat="45.90788" lon="3.1766">
        <ele>318</ele>
        <time>2024-04-28T10:35:44Z</time>
      </trkpt>
      <trkpt lat="45.90803" lon="3.17665">
        <ele>318</ele>
        <time>2024-04-28T10:35:45Z</time>
      </trkpt>
      <trkpt lat="45.9081" lon="3.17667">
        <ele>318</ele>
        <time>2024-04-28T10:35:46Z</time>
      </trkpt>
      <trkpt lat="45.90817" lon="3.1767">
        <ele>318</ele>
        <time>2024-04-28T10:35:47Z</time>
      </trkpt>
      <trkpt lat="45.90817" lon="3.1767">
        <ele>318</ele>
        <time>2024-04-28T10:35:48Z</time>
      </trkpt>
      <trkpt lat="45.90831" lon="3.17675">
        <ele>318</ele>
        <time>2024-04-28T10:35:49Z</time>
      </trkpt>
      <trkpt lat="45.90838" lon="3.17678">
        <ele>318</ele>
        <time>2024-04-28T10:35:50Z</time>
      </trkpt>
      <trkpt lat="45.90845" lon="3.17681">
        <ele>317.8</ele>
        <time>2024-04-28T10:35:51Z</time>
      </trkpt>
      <trkpt lat="45.90851" lon="3.17684">
        <ele>318.2</ele>
        <time>2024-04-28T10:35:52Z</time>
      </trkpt>
      <trkpt lat="45.90858" lon="3.17687">
        <ele>318.2</ele>
        <time>2024-04-28T10:35:53Z</time>
      </trkpt>
      <trkpt lat="45.90865" lon="3.1769">
        <ele>318.2</ele>
        <time>2024-04-28T10:35:54Z</time>
      </trkpt>
      <trkpt lat="45.90872" lon="3.17693">
        <ele>318.2</ele>
        <time>2024-04-28T10:35:55Z</time>
      </trkpt>
      <trkpt lat="45.90879" lon="3.17696">
        <ele>318.2</ele>
        <time>2024-04-28T10:35:56Z</time>
      </trkpt>
      <trkpt lat="45.90886" lon="3.17699">
        <ele>318.4</ele>
        <time>2024-04-28T10:35:57Z</time>
      </trkpt>
      <trkpt lat="45.90893" lon="3.17702">
        <ele>318.4</ele>
        <time>2024-04-28T10:35:58Z</time>
      </trkpt>
      <trkpt lat="45.909" lon="3.17705">
        <ele>318.2</ele>
        <time>2024-04-28T10:35:59Z</time>
      </trkpt>
      <trkpt lat="45.90908" lon="3.17708">
        <ele>318.4</ele>
        <time>2024-04-28T10:36:00Z</time>
      </trkpt>
      <trkpt lat="45.90914" lon="3.17711">
        <ele>318.4</ele>
        <time>2024-04-28T10:36:01Z</time>
      </trkpt>
      <trkpt lat="45.90921" lon="3.17714">
        <ele>318.2</ele>
        <time>2024-04-28T10:36:02Z</time>
      </trkpt>
      <trkpt lat="45.90928" lon="3.17717">
        <ele>318.2</ele>
        <time>2024-04-28T10:36:03Z</time>
      </trkpt>
      <trkpt lat="45.90935" lon="3.1772">
        <ele>318.2</ele>
        <time>2024-04-28T10:36:04Z</time>
      </trkpt>
      <trkpt lat="45.90942" lon="3.17723">
        <ele>318.2</ele>
        <time>2024-04-28T10:36:05Z</time>
      </trkpt>
      <trkpt lat="45.90948" lon="3.17726">
        <ele>318</ele>
        <time>2024-04-28T10:36:06Z</time>
      </trkpt>
      <trkpt lat="45.90955" lon="3.17729">
        <ele>318</ele>
        <time>2024-04-28T10:36:07Z</time>
      </trkpt>
      <trkpt lat="45.90962" lon="3.17732">
        <ele>318</ele>
        <time>2024-04-28T10:36:08Z</time>
      </trkpt>
      <trkpt lat="45.90969" lon="3.17735">
        <ele>318</ele>
        <time>2024-04-28T10:36:09Z</time>
      </trkpt>
      <trkpt lat="45.90976" lon="3.17738">
        <ele>318</ele>
        <time>2024-04-28T10:36:10Z</time>
      </trkpt>
      <trkpt lat="45.90983" lon="3.17741">
        <ele>318</ele>
        <time>2024-04-28T10:36:11Z</time>
      </trkpt>
      <trkpt lat="45.9099" lon="3.17744">
        <ele>317.8</ele>
        <time>2024-04-28T10:36:12Z</time>
      </trkpt>
      <trkpt lat="45.90997" lon="3.17747">
        <ele>318</ele>
        <time>2024-04-28T10:36:13Z</time>
      </trkpt>
      <trkpt lat="45.91004" lon="3.1775">
        <ele>318</ele>
        <time>2024-04-28T10:36:14Z</time>
      </trkpt>
      <trkpt lat="45.9101" lon="3.17753">
        <ele>318</ele>
        <time>2024-04-28T10:36:15Z</time>
      </trkpt>
      <trkpt lat="45.91017" lon="3.17756">
        <ele>317.8</ele>
        <time>2024-04-28T10:36:16Z</time>
      </trkpt>
      <trkpt lat="45.91024" lon="3.17759">
        <ele>317.8</ele>
        <time>2024-04-28T10:36:17Z</time>
      </trkpt>
      <trkpt lat="45.91031" lon="3.17763">
        <ele>317.8</ele>
        <time>2024-04-28T10:36:18Z</time>
      </trkpt>
      <trkpt lat="45.91038" lon="3.17766">
        <ele>317.8</ele>
        <time>2024-04-28T10:36:19Z</time>
      </trkpt>
      <trkpt lat="45.91045" lon="3.17769">
        <ele>317.8</ele>
        <time>2024-04-28T10:36:20Z</time>
      </trkpt>
      <trkpt lat="45.91052" lon="3.17772">
        <ele>317.8</ele>
        <time>2024-04-28T10:36:21Z</time>
      </trkpt>
      <trkpt lat="45.91059" lon="3.17775">
        <ele>317.8</ele>
        <time>2024-04-28T10:36:22Z</time>
      </trkpt>
      <trkpt lat="45.91066" lon="3.17778">
        <ele>317.6</ele>
        <time>2024-04-28T10:36:23Z</time>
      </trkpt>
      <trkpt lat="45.91073" lon="3.17781">
        <ele>317.6</ele>
        <time>2024-04-28T10:36:24Z</time>
      </trkpt>
      <trkpt lat="45.9108" lon="3.17784">
        <ele>317.6</ele>
        <time>2024-04-28T10:36:25Z</time>
      </trkpt>
      <trkpt lat="45.91087" lon="3.17789">
        <ele>317.6</ele>
        <time>2024-04-28T10:36:26Z</time>
      </trkpt>
      <trkpt lat="45.91093" lon="3.17794">
        <ele>317.6</ele>
        <time>2024-04-28T10:36:27Z</time>
      </trkpt>
      <trkpt lat="45.911" lon="3.17799">
        <ele>317.4</ele>
        <time>2024-04-28T10:36:28Z</time>
      </trkpt>
      <trkpt lat="45.91106" lon="3.17804">
        <ele>317.4</ele>
        <time>2024-04-28T10:36:29Z</time>
      </trkpt>
      <trkpt lat="45.91113" lon="3.1781">
        <ele>317.4</ele>
        <time>2024-04-28T10:36:30Z</time>
      </trkpt>
      <trkpt lat="45.91119" lon="3.17815">
        <ele>317.4</ele>
        <time>2024-04-28T10:36:31Z</time>
      </trkpt>
      <trkpt lat="45.91125" lon="3.1782">
        <ele>317.4</ele>
        <time>2024-04-28T10:36:32Z</time>
      </trkpt>
      <trkpt lat="45.91131" lon="3.17825">
        <ele>317.4</ele>
        <time>2024-04-28T10:36:33Z</time>
      </trkpt>
      <trkpt lat="45.91137" lon="3.17831">
        <ele>317.2</ele>
        <time>2024-04-28T10:36:34Z</time>
      </trkpt>
      <trkpt lat="45.91143" lon="3.17838">
        <ele>317.2</ele>
        <time>2024-04-28T10:36:35Z</time>
      </trkpt>
      <trkpt lat="45.91149" lon="3.17844">
        <ele>317.2</ele>
        <time>2024-04-28T10:36:36Z</time>
      </trkpt>
      <trkpt lat="45.91154" lon="3.1785">
        <ele>317.2</ele>
        <time>2024-04-28T10:36:37Z</time>
      </trkpt>
      <trkpt lat="45.9116" lon="3.17856">
        <ele>317.2</ele>
        <time>2024-04-28T10:36:38Z</time>
      </trkpt>
      <trkpt lat="45.91166" lon="3.17862">
        <ele>317.2</ele>
        <time>2024-04-28T10:36:39Z</time>
      </trkpt>
      <trkpt lat="45.91172" lon="3.17869">
        <ele>317.2</ele>
        <time>2024-04-28T10:36:40Z</time>
      </trkpt>
      <trkpt lat="45.91178" lon="3.17875">
        <ele>317.2</ele>
        <time>2024-04-28T10:36:41Z</time>
      </trkpt>
      <trkpt lat="45.91184" lon="3.17881">
        <ele>317.2</ele>
        <time>2024-04-28T10:36:42Z</time>
      </trkpt>
      <trkpt lat="45.91189" lon="3.17888">
        <ele>317.2</ele>
        <time>2024-04-28T10:36:43Z</time>
      </trkpt>
      <trkpt lat="45.91195" lon="3.17894">
        <ele>317.2</ele>
        <time>2024-04-28T10:36:44Z</time>
      </trkpt>
      <trkpt lat="45.91201" lon="3.179">
        <ele>317.2</ele>
        <time>2024-04-28T10:36:45Z</time>
      </trkpt>
      <trkpt lat="45.91207" lon="3.17907">
        <ele>317.2</ele>
        <time>2024-04-28T10:36:46Z</time>
      </trkpt>
      <trkpt lat="45.91213" lon="3.17913">
        <ele>317.2</ele>
        <time>2024-04-28T10:36:47Z</time>
      </trkpt>
      <trkpt lat="45.91219" lon="3.17919">
        <ele>317.2</ele>
        <time>2024-04-28T10:36:48Z</time>
      </trkpt>
      <trkpt lat="45.91224" lon="3.17928">
        <ele>317.2</ele>
        <time>2024-04-28T10:36:49Z</time>
      </trkpt>
      <trkpt lat="45.91228" lon="3.17937">
        <ele>317.2</ele>
        <time>2024-04-28T10:36:50Z</time>
      </trkpt>
      <trkpt lat="45.91232" lon="3.17947">
        <ele>317.2</ele>
        <time>2024-04-28T10:36:51Z</time>
      </trkpt>
      <trkpt lat="45.91234" lon="3.17956">
        <ele>317.2</ele>
        <time>2024-04-28T10:36:52Z</time>
      </trkpt>
      <trkpt lat="45.91237" lon="3.17966">
        <ele>317.2</ele>
        <time>2024-04-28T10:36:53Z</time>
      </trkpt>
      <trkpt lat="45.91239" lon="3.17976">
        <ele>317</ele>
        <time>2024-04-28T10:36:54Z</time>
      </trkpt>
      <trkpt lat="45.91241" lon="3.17985">
        <ele>317.2</ele>
        <time>2024-04-28T10:36:55Z</time>
      </trkpt>
      <trkpt lat="45.91242" lon="3.17995">
        <ele>317.2</ele>
        <time>2024-04-28T10:36:56Z</time>
      </trkpt>
      <trkpt lat="45.91244" lon="3.18005">
        <ele>317.4</ele>
        <time>2024-04-28T10:36:57Z</time>
      </trkpt>
      <trkpt lat="45.91246" lon="3.18015">
        <ele>317.4</ele>
        <time>2024-04-28T10:36:58Z</time>
      </trkpt>
      <trkpt lat="45.91247" lon="3.18025">
        <ele>317.4</ele>
        <time>2024-04-28T10:36:59Z</time>
      </trkpt>
      <trkpt lat="45.91249" lon="3.18035">
        <ele>317.4</ele>
        <time>2024-04-28T10:37:00Z</time>
      </trkpt>
      <trkpt lat="45.9125" lon="3.18045">
        <ele>317.4</ele>
        <time>2024-04-28T10:37:01Z</time>
      </trkpt>
      <trkpt lat="45.91252" lon="3.18055">
        <ele>317.4</ele>
        <time>2024-04-28T10:37:02Z</time>
      </trkpt>
      <trkpt lat="45.91253" lon="3.18064">
        <ele>317.4</ele>
        <time>2024-04-28T10:37:03Z</time>
      </trkpt>
      <trkpt lat="45.91255" lon="3.18075">
        <ele>317.4</ele>
        <time>2024-04-28T10:37:04Z</time>
      </trkpt>
      <trkpt lat="45.91257" lon="3.18085">
        <ele>317.4</ele>
        <time>2024-04-28T10:37:05Z</time>
      </trkpt>
      <trkpt lat="45.91258" lon="3.18095">
        <ele>317.6</ele>
        <time>2024-04-28T10:37:06Z</time>
      </trkpt>
      <trkpt lat="45.9126" lon="3.18105">
        <ele>317.6</ele>
        <time>2024-04-28T10:37:07Z</time>
      </trkpt>
      <trkpt lat="45.91261" lon="3.18115">
        <ele>317.6</ele>
        <time>2024-04-28T10:37:08Z</time>
      </trkpt>
      <trkpt lat="45.91263" lon="3.18125">
        <ele>317.6</ele>
        <time>2024-04-28T10:37:09Z</time>
      </trkpt>
      <trkpt lat="45.91265" lon="3.18135">
        <ele>317.6</ele>
        <time>2024-04-28T10:37:10Z</time>
      </trkpt>
      <trkpt lat="45.91266" lon="3.18144">
        <ele>317.6</ele>
        <time>2024-04-28T10:37:11Z</time>
      </trkpt>
      <trkpt lat="45.91268" lon="3.18154">
        <ele>317.6</ele>
        <time>2024-04-28T10:37:12Z</time>
      </trkpt>
      <trkpt lat="45.91269" lon="3.18164">
        <ele>317.6</ele>
        <time>2024-04-28T10:37:13Z</time>
      </trkpt>
      <trkpt lat="45.91271" lon="3.18174">
        <ele>317.6</ele>
        <time>2024-04-28T10:37:14Z</time>
      </trkpt>
      <trkpt lat="45.91274" lon="3.18183">
        <ele>317.8</ele>
        <time>2024-04-28T10:37:15Z</time>
      </trkpt>
      <trkpt lat="45.91276" lon="3.18193">
        <ele>317.8</ele>
        <time>2024-04-28T10:37:16Z</time>
      </trkpt>
      <trkpt lat="45.91279" lon="3.18203">
        <ele>317.8</ele>
        <time>2024-04-28T10:37:17Z</time>
      </trkpt>
      <trkpt lat="45.91282" lon="3.18212">
        <ele>317.8</ele>
        <time>2024-04-28T10:37:18Z</time>
      </trkpt>
      <trkpt lat="45.91285" lon="3.18221">
        <ele>317.8</ele>
        <time>2024-04-28T10:37:19Z</time>
      </trkpt>
      <trkpt lat="45.91289" lon="3.18229">
        <ele>317.8</ele>
        <time>2024-04-28T10:37:20Z</time>
      </trkpt>
      <trkpt lat="45.91293" lon="3.18238">
        <ele>317.8</ele>
        <time>2024-04-28T10:37:21Z</time>
      </trkpt>
      <trkpt lat="45.91296" lon="3.18247">
        <ele>317.8</ele>
        <time>2024-04-28T10:37:22Z</time>
      </trkpt>
      <trkpt lat="45.913" lon="3.18255">
        <ele>318</ele>
        <time>2024-04-28T10:37:23Z</time>
      </trkpt>
      <trkpt lat="45.91304" lon="3.18263">
        <ele>318</ele>
        <time>2024-04-28T10:37:24Z</time>
      </trkpt>
      <trkpt lat="45.91309" lon="3.1827">
        <ele>318</ele>
        <time>2024-04-28T10:37:25Z</time>
      </trkpt>
      <trkpt lat="45.91314" lon="3.18278">
        <ele>318</ele>
        <time>2024-04-28T10:37:26Z</time>
      </trkpt>
      <trkpt lat="45.91319" lon="3.18285">
        <ele>318</ele>
        <time>2024-04-28T10:37:27Z</time>
      </trkpt>
      <trkpt lat="45.91324" lon="3.18292">
        <ele>318.2</ele>
        <time>2024-04-28T10:37:28Z</time>
      </trkpt>
      <trkpt lat="45.91329" lon="3.183">
        <ele>318.2</ele>
        <time>2024-04-28T10:37:29Z</time>
      </trkpt>
      <trkpt lat="45.91334" lon="3.18307">
        <ele>318.2</ele>
        <time>2024-04-28T10:37:30Z</time>
      </trkpt>
      <trkpt lat="45.91339" lon="3.18314">
        <ele>318.2</ele>
        <time>2024-04-28T10:37:31Z</time>
      </trkpt>
      <trkpt lat="45.91344" lon="3.18321">
        <ele>318.2</ele>
        <time>2024-04-28T10:37:32Z</time>
      </trkpt>
      <trkpt lat="45.91349" lon="3.18329">
        <ele>318.2</ele>
        <time>2024-04-28T10:37:33Z</time>
      </trkpt>
      <trkpt lat="45.91354" lon="3.18336">
        <ele>318.2</ele>
        <time>2024-04-28T10:37:34Z</time>
      </trkpt>
      <trkpt lat="45.91359" lon="3.18343">
        <ele>318.2</ele>
        <time>2024-04-28T10:37:35Z</time>
      </trkpt>
      <trkpt lat="45.91363" lon="3.1835">
        <ele>318.4</ele>
        <time>2024-04-28T10:37:36Z</time>
      </trkpt>
      <trkpt lat="45.91368" lon="3.18357">
        <ele>318.4</ele>
        <time>2024-04-28T10:37:37Z</time>
      </trkpt>
      <trkpt lat="45.91373" lon="3.18364">
        <ele>318.4</ele>
        <time>2024-04-28T10:37:38Z</time>
      </trkpt>
      <trkpt lat="45.91378" lon="3.18372">
        <ele>318.4</ele>
        <time>2024-04-28T10:37:39Z</time>
      </trkpt>
      <trkpt lat="45.91383" lon="3.18379">
        <ele>318.4</ele>
        <time>2024-04-28T10:37:40Z</time>
      </trkpt>
      <trkpt lat="45.91388" lon="3.18386">
        <ele>318.4</ele>
        <time>2024-04-28T10:37:41Z</time>
      </trkpt>
      <trkpt lat="45.91388" lon="3.18386">
        <ele>318.6</ele>
        <time>2024-04-28T10:37:42Z</time>
      </trkpt>
      <trkpt lat="45.91398" lon="3.184">
        <ele>318.6</ele>
        <time>2024-04-28T10:37:43Z</time>
      </trkpt>
      <trkpt lat="45.91403" lon="3.18408">
        <ele>318.6</ele>
        <time>2024-04-28T10:37:44Z</time>
      </trkpt>
      <trkpt lat="45.91408" lon="3.18415">
        <ele>318.6</ele>
        <time>2024-04-28T10:37:45Z</time>
      </trkpt>
      <trkpt lat="45.91413" lon="3.18422">
        <ele>318.6</ele>
        <time>2024-04-28T10:37:46Z</time>
      </trkpt>
      <trkpt lat="45.91413" lon="3.18422">
        <ele>318.6</ele>
        <time>2024-04-28T10:37:47Z</time>
      </trkpt>
      <trkpt lat="45.91423" lon="3.18436">
        <ele>318.6</ele>
        <time>2024-04-28T10:37:48Z</time>
      </trkpt>
      <trkpt lat="45.91428" lon="3.18444">
        <ele>318.6</ele>
        <time>2024-04-28T10:37:49Z</time>
      </trkpt>
      <trkpt lat="45.91432" lon="3.18451">
        <ele>318.6</ele>
        <time>2024-04-28T10:37:50Z</time>
      </trkpt>
      <trkpt lat="45.91437" lon="3.18458">
        <ele>318.8</ele>
        <time>2024-04-28T10:37:51Z</time>
      </trkpt>
      <trkpt lat="45.91442" lon="3.18465">
        <ele>318.8</ele>
        <time>2024-04-28T10:37:52Z</time>
      </trkpt>
      <trkpt lat="45.91447" lon="3.18473">
        <ele>318.8</ele>
        <time>2024-04-28T10:37:53Z</time>
      </trkpt>
      <trkpt lat="45.91452" lon="3.1848">
        <ele>318.8</ele>
        <time>2024-04-28T10:37:54Z</time>
      </trkpt>
      <trkpt lat="45.91457" lon="3.18487">
        <ele>318.8</ele>
        <time>2024-04-28T10:37:55Z</time>
      </trkpt>
      <trkpt lat="45.91462" lon="3.18495">
        <ele>318.8</ele>
        <time>2024-04-28T10:37:56Z</time>
      </trkpt>
      <trkpt lat="45.91467" lon="3.18502">
        <ele>318.8</ele>
        <time>2024-04-28T10:37:57Z</time>
      </trkpt>
      <trkpt lat="45.91472" lon="3.18509">
        <ele>319</ele>
        <time>2024-04-28T10:37:58Z</time>
      </trkpt>
      <trkpt lat="45.91477" lon="3.18516">
        <ele>319</ele>
        <time>2024-04-28T10:37:59Z</time>
      </trkpt>
      <trkpt lat="45.91482" lon="3.18524">
        <ele>319</ele>
        <time>2024-04-28T10:38:00Z</time>
      </trkpt>
      <trkpt lat="45.91487" lon="3.18531">
        <ele>319</ele>
        <time>2024-04-28T10:38:01Z</time>
      </trkpt>
      <trkpt lat="45.91492" lon="3.18538">
        <ele>319</ele>
        <time>2024-04-28T10:38:02Z</time>
      </trkpt>
      <trkpt lat="45.91497" lon="3.18545">
        <ele>319</ele>
        <time>2024-04-28T10:38:03Z</time>
      </trkpt>
      <trkpt lat="45.91502" lon="3.18553">
        <ele>319</ele>
        <time>2024-04-28T10:38:04Z</time>
      </trkpt>
      <trkpt lat="45.91507" lon="3.1856">
        <ele>319</ele>
        <time>2024-04-28T10:38:05Z</time>
      </trkpt>
      <trkpt lat="45.91512" lon="3.18567">
        <ele>319.2</ele>
        <time>2024-04-28T10:38:06Z</time>
      </trkpt>
      <trkpt lat="45.91517" lon="3.18574">
        <ele>319.2</ele>
        <time>2024-04-28T10:38:07Z</time>
      </trkpt>
      <trkpt lat="45.91522" lon="3.18582">
        <ele>319.2</ele>
        <time>2024-04-28T10:38:08Z</time>
      </trkpt>
      <trkpt lat="45.91526" lon="3.18589">
        <ele>319.2</ele>
        <time>2024-04-28T10:38:09Z</time>
      </trkpt>
      <trkpt lat="45.91531" lon="3.18596">
        <ele>319.2</ele>
        <time>2024-04-28T10:38:10Z</time>
      </trkpt>
      <trkpt lat="45.91536" lon="3.18602">
        <ele>319.2</ele>
        <time>2024-04-28T10:38:11Z</time>
      </trkpt>
      <trkpt lat="45.91541" lon="3.18609">
        <ele>319.2</ele>
        <time>2024-04-28T10:38:12Z</time>
      </trkpt>
      <trkpt lat="45.91546" lon="3.18616">
        <ele>319.2</ele>
        <time>2024-04-28T10:38:13Z</time>
      </trkpt>
      <trkpt lat="45.91551" lon="3.18623">
        <ele>319.4</ele>
        <time>2024-04-28T10:38:14Z</time>
      </trkpt>
      <trkpt lat="45.91556" lon="3.1863">
        <ele>319.4</ele>
        <time>2024-04-28T10:38:15Z</time>
      </trkpt>
      <trkpt lat="45.9156" lon="3.18637">
        <ele>319.4</ele>
        <time>2024-04-28T10:38:16Z</time>
      </trkpt>
      <trkpt lat="45.91565" lon="3.18643">
        <ele>319.4</ele>
        <time>2024-04-28T10:38:17Z</time>
      </trkpt>
      <trkpt lat="45.9157" lon="3.1865">
        <ele>319.4</ele>
        <time>2024-04-28T10:38:18Z</time>
      </trkpt>
      <trkpt lat="45.91575" lon="3.18657">
        <ele>319.4</ele>
        <time>2024-04-28T10:38:19Z</time>
      </trkpt>
      <trkpt lat="45.9158" lon="3.18664">
        <ele>319.4</ele>
        <time>2024-04-28T10:38:20Z</time>
      </trkpt>
      <trkpt lat="45.91585" lon="3.18671">
        <ele>319.4</ele>
        <time>2024-04-28T10:38:21Z</time>
      </trkpt>
      <trkpt lat="45.9159" lon="3.18678">
        <ele>319.4</ele>
        <time>2024-04-28T10:38:22Z</time>
      </trkpt>
      <trkpt lat="45.91595" lon="3.18685">
        <ele>319.4</ele>
        <time>2024-04-28T10:38:23Z</time>
      </trkpt>
      <trkpt lat="45.916" lon="3.18692">
        <ele>319.6</ele>
        <time>2024-04-28T10:38:24Z</time>
      </trkpt>
      <trkpt lat="45.91604" lon="3.18698">
        <ele>319.6</ele>
        <time>2024-04-28T10:38:25Z</time>
      </trkpt>
      <trkpt lat="45.91609" lon="3.18705">
        <ele>319.6</ele>
        <time>2024-04-28T10:38:26Z</time>
      </trkpt>
      <trkpt lat="45.91614" lon="3.18712">
        <ele>319.6</ele>
        <time>2024-04-28T10:38:27Z</time>
      </trkpt>
      <trkpt lat="45.91619" lon="3.1872">
        <ele>319.6</ele>
        <time>2024-04-28T10:38:28Z</time>
      </trkpt>
      <trkpt lat="45.91623" lon="3.18728">
        <ele>319.6</ele>
        <time>2024-04-28T10:38:29Z</time>
      </trkpt>
      <trkpt lat="45.91627" lon="3.18735">
        <ele>319.6</ele>
        <time>2024-04-28T10:38:30Z</time>
      </trkpt>
      <trkpt lat="45.91631" lon="3.18744">
        <ele>319.6</ele>
        <time>2024-04-28T10:38:31Z</time>
      </trkpt>
      <trkpt lat="45.91635" lon="3.18752">
        <ele>319.6</ele>
        <time>2024-04-28T10:38:32Z</time>
      </trkpt>
      <trkpt lat="45.91639" lon="3.1876">
        <ele>319.6</ele>
        <time>2024-04-28T10:38:33Z</time>
      </trkpt>
      <trkpt lat="45.91639" lon="3.1876">
        <ele>319.8</ele>
        <time>2024-04-28T10:38:34Z</time>
      </trkpt>
      <trkpt lat="45.91647" lon="3.18776">
        <ele>319.8</ele>
        <time>2024-04-28T10:38:35Z</time>
      </trkpt>
      <trkpt lat="45.9165" lon="3.18784">
        <ele>319.8</ele>
        <time>2024-04-28T10:38:36Z</time>
      </trkpt>
      <trkpt lat="45.91654" lon="3.18792">
        <ele>319.8</ele>
        <time>2024-04-28T10:38:37Z</time>
      </trkpt>
      <trkpt lat="45.91657" lon="3.188">
        <ele>319.8</ele>
        <time>2024-04-28T10:38:38Z</time>
      </trkpt>
      <trkpt lat="45.91661" lon="3.18808">
        <ele>319.8</ele>
        <time>2024-04-28T10:38:39Z</time>
      </trkpt>
      <trkpt lat="45.91664" lon="3.18816">
        <ele>319.8</ele>
        <time>2024-04-28T10:38:40Z</time>
      </trkpt>
      <trkpt lat="45.91668" lon="3.18824">
        <ele>319.8</ele>
        <time>2024-04-28T10:38:41Z</time>
      </trkpt>
      <trkpt lat="45.91672" lon="3.18832">
        <ele>319.8</ele>
        <time>2024-04-28T10:38:42Z</time>
      </trkpt>
      <trkpt lat="45.91675" lon="3.1884">
        <ele>320</ele>
        <time>2024-04-28T10:38:43Z</time>
      </trkpt>
      <trkpt lat="45.91679" lon="3.18848">
        <ele>320</ele>
        <time>2024-04-28T10:38:44Z</time>
      </trkpt>
      <trkpt lat="45.91682" lon="3.18856">
        <ele>320</ele>
        <time>2024-04-28T10:38:45Z</time>
      </trkpt>
      <trkpt lat="45.91686" lon="3.18863">
        <ele>320</ele>
        <time>2024-04-28T10:38:46Z</time>
      </trkpt>
      <trkpt lat="45.91686" lon="3.18863">
        <ele>320</ele>
        <time>2024-04-28T10:38:47Z</time>
      </trkpt>
      <trkpt lat="45.91689" lon="3.18871">
        <ele>320</ele>
        <time>2024-04-28T10:38:48Z</time>
      </trkpt>
      <trkpt lat="45.91692" lon="3.18879">
        <ele>320</ele>
        <time>2024-04-28T10:38:49Z</time>
      </trkpt>
      <trkpt lat="45.91696" lon="3.18894">
        <ele>320</ele>
        <time>2024-04-28T10:38:50Z</time>
      </trkpt>
      <trkpt lat="45.91699" lon="3.18902">
        <ele>320.2</ele>
        <time>2024-04-28T10:38:51Z</time>
      </trkpt>
      <trkpt lat="45.91701" lon="3.18909">
        <ele>320.2</ele>
        <time>2024-04-28T10:38:52Z</time>
      </trkpt>
      <trkpt lat="45.91704" lon="3.18916">
        <ele>320.2</ele>
        <time>2024-04-28T10:38:53Z</time>
      </trkpt>
      <trkpt lat="45.91706" lon="3.18924">
        <ele>320.2</ele>
        <time>2024-04-28T10:38:54Z</time>
      </trkpt>
      <trkpt lat="45.91707" lon="3.18931">
        <ele>320.2</ele>
        <time>2024-04-28T10:38:55Z</time>
      </trkpt>
      <trkpt lat="45.91708" lon="3.18939">
        <ele>320.2</ele>
        <time>2024-04-28T10:38:56Z</time>
      </trkpt>
      <trkpt lat="45.91709" lon="3.18947">
        <ele>320.2</ele>
        <time>2024-04-28T10:38:57Z</time>
      </trkpt>
      <trkpt lat="45.91709" lon="3.18954">
        <ele>320.2</ele>
        <time>2024-04-28T10:38:58Z</time>
      </trkpt>
      <trkpt lat="45.9171" lon="3.18962">
        <ele>320.2</ele>
        <time>2024-04-28T10:38:59Z</time>
      </trkpt>
      <trkpt lat="45.91711" lon="3.18969">
        <ele>320.2</ele>
        <time>2024-04-28T10:39:00Z</time>
      </trkpt>
      <trkpt lat="45.91712" lon="3.18976">
        <ele>320.4</ele>
        <time>2024-04-28T10:39:01Z</time>
      </trkpt>
      <trkpt lat="45.91712" lon="3.18976">
        <ele>320.4</ele>
        <time>2024-04-28T10:39:02Z</time>
      </trkpt>
      <trkpt lat="45.91718" lon="3.18989">
        <ele>320.4</ele>
        <time>2024-04-28T10:39:03Z</time>
      </trkpt>
      <trkpt lat="45.91718" lon="3.18989">
        <ele>320.4</ele>
        <time>2024-04-28T10:39:04Z</time>
      </trkpt>
      <trkpt lat="45.91725" lon="3.19001">
        <ele>320.4</ele>
        <time>2024-04-28T10:39:05Z</time>
      </trkpt>
      <trkpt lat="45.91729" lon="3.19006">
        <ele>320.4</ele>
        <time>2024-04-28T10:39:06Z</time>
      </trkpt>
      <trkpt lat="45.91732" lon="3.19012">
        <ele>320.4</ele>
        <time>2024-04-28T10:39:07Z</time>
      </trkpt>
      <trkpt lat="45.91735" lon="3.19017">
        <ele>320.4</ele>
        <time>2024-04-28T10:39:08Z</time>
      </trkpt>
      <trkpt lat="45.91738" lon="3.19022">
        <ele>320.4</ele>
        <time>2024-04-28T10:39:09Z</time>
      </trkpt>
      <trkpt lat="45.91742" lon="3.19027">
        <ele>320.4</ele>
        <time>2024-04-28T10:39:10Z</time>
      </trkpt>
      <trkpt lat="45.91746" lon="3.19032">
        <ele>320.4</ele>
        <time>2024-04-28T10:39:11Z</time>
      </trkpt>
      <trkpt lat="45.91749" lon="3.19036">
        <ele>320.4</ele>
        <time>2024-04-28T10:39:12Z</time>
      </trkpt>
      <trkpt lat="45.91753" lon="3.1904">
        <ele>320.4</ele>
        <time>2024-04-28T10:39:13Z</time>
      </trkpt>
      <trkpt lat="45.91757" lon="3.19045">
        <ele>320.4</ele>
        <time>2024-04-28T10:39:14Z</time>
      </trkpt>
      <trkpt lat="45.9176" lon="3.19049">
        <ele>320.4</ele>
        <time>2024-04-28T10:39:15Z</time>
      </trkpt>
      <trkpt lat="45.91763" lon="3.19053">
        <ele>320.6</ele>
        <time>2024-04-28T10:39:16Z</time>
      </trkpt>
      <trkpt lat="45.91767" lon="3.19057">
        <ele>320.6</ele>
        <time>2024-04-28T10:39:17Z</time>
      </trkpt>
      <trkpt lat="45.9177" lon="3.1906">
        <ele>320.6</ele>
        <time>2024-04-28T10:39:18Z</time>
      </trkpt>
      <trkpt lat="45.91773" lon="3.19063">
        <ele>320.6</ele>
        <time>2024-04-28T10:39:19Z</time>
      </trkpt>
      <trkpt lat="45.91776" lon="3.19067">
        <ele>320.6</ele>
        <time>2024-04-28T10:39:20Z</time>
      </trkpt>
      <trkpt lat="45.9178" lon="3.1907">
        <ele>320.6</ele>
        <time>2024-04-28T10:39:21Z</time>
      </trkpt>
      <trkpt lat="45.91784" lon="3.19074">
        <ele>320.6</ele>
        <time>2024-04-28T10:39:22Z</time>
      </trkpt>
      <trkpt lat="45.91787" lon="3.19079">
        <ele>320.6</ele>
        <time>2024-04-28T10:39:23Z</time>
      </trkpt>
      <trkpt lat="45.9179" lon="3.19083">
        <ele>320.8</ele>
        <time>2024-04-28T10:39:24Z</time>
      </trkpt>
      <trkpt lat="45.91793" lon="3.19088">
        <ele>320.8</ele>
        <time>2024-04-28T10:39:25Z</time>
      </trkpt>
      <trkpt lat="45.91796" lon="3.19092">
        <ele>320.8</ele>
        <time>2024-04-28T10:39:26Z</time>
      </trkpt>
      <trkpt lat="45.91799" lon="3.19097">
        <ele>320.8</ele>
        <time>2024-04-28T10:39:27Z</time>
      </trkpt>
      <trkpt lat="45.91803" lon="3.19102">
        <ele>321</ele>
        <time>2024-04-28T10:39:28Z</time>
      </trkpt>
      <trkpt lat="45.91806" lon="3.19106">
        <ele>321</ele>
        <time>2024-04-28T10:39:29Z</time>
      </trkpt>
      <trkpt lat="45.91809" lon="3.19111">
        <ele>321</ele>
        <time>2024-04-28T10:39:30Z</time>
      </trkpt>
      <trkpt lat="45.91812" lon="3.19114">
        <ele>321</ele>
        <time>2024-04-28T10:39:31Z</time>
      </trkpt>
      <trkpt lat="45.91812" lon="3.19114">
        <ele>321</ele>
        <time>2024-04-28T10:39:32Z</time>
      </trkpt>
      <trkpt lat="45.91818" lon="3.19123">
        <ele>321</ele>
        <time>2024-04-28T10:39:33Z</time>
      </trkpt>
      <trkpt lat="45.91822" lon="3.19128">
        <ele>321</ele>
        <time>2024-04-28T10:39:34Z</time>
      </trkpt>
      <trkpt lat="45.91825" lon="3.19132">
        <ele>321</ele>
        <time>2024-04-28T10:39:35Z</time>
      </trkpt>
      <trkpt lat="45.91829" lon="3.19137">
        <ele>321.2</ele>
        <time>2024-04-28T10:39:36Z</time>
      </trkpt>
      <trkpt lat="45.91832" lon="3.19142">
        <ele>321.2</ele>
        <time>2024-04-28T10:39:37Z</time>
      </trkpt>
      <trkpt lat="45.91836" lon="3.19146">
        <ele>321</ele>
        <time>2024-04-28T10:39:38Z</time>
      </trkpt>
      <trkpt lat="45.9184" lon="3.19151">
        <ele>321</ele>
        <time>2024-04-28T10:39:39Z</time>
      </trkpt>
      <trkpt lat="45.91844" lon="3.19156">
        <ele>321</ele>
        <time>2024-04-28T10:39:40Z</time>
      </trkpt>
      <trkpt lat="45.91847" lon="3.19161">
        <ele>321</ele>
        <time>2024-04-28T10:39:41Z</time>
      </trkpt>
      <trkpt lat="45.91851" lon="3.19166">
        <ele>321</ele>
        <time>2024-04-28T10:39:42Z</time>
      </trkpt>
      <trkpt lat="45.91854" lon="3.1917">
        <ele>321</ele>
        <time>2024-04-28T10:39:43Z</time>
      </trkpt>
      <trkpt lat="45.91858" lon="3.19175">
        <ele>321</ele>
        <time>2024-04-28T10:39:44Z</time>
      </trkpt>
      <trkpt lat="45.91861" lon="3.19179">
        <ele>321</ele>
        <time>2024-04-28T10:39:45Z</time>
      </trkpt>
      <trkpt lat="45.91861" lon="3.19179">
        <ele>321</ele>
        <time>2024-04-28T10:39:46Z</time>
      </trkpt>
      <trkpt lat="45.91862" lon="3.19181">
        <ele>321</ele>
        <time>2024-04-28T10:39:47Z</time>
      </trkpt>
      <trkpt lat="45.91862" lon="3.19181">
        <ele>321.2</ele>
        <time>2024-04-28T10:39:48Z</time>
      </trkpt>
      <trkpt lat="45.91862" lon="3.19181">
        <ele>321.2</ele>
        <time>2024-04-28T10:39:49Z</time>
      </trkpt>
      <trkpt lat="45.91873" lon="3.19179">
        <ele>321.4</ele>
        <time>2024-04-28T10:39:55Z</time>
      </trkpt>
      <trkpt lat="45.91876" lon="3.19178">
        <ele>321.4</ele>
        <time>2024-04-28T10:39:56Z</time>
      </trkpt>
      <trkpt lat="45.91882" lon="3.19178">
        <ele>321.4</ele>
        <time>2024-04-28T10:39:57Z</time>
      </trkpt>
      <trkpt lat="45.91886" lon="3.19178">
        <ele>321.4</ele>
        <time>2024-04-28T10:39:58Z</time>
      </trkpt>
      <trkpt lat="45.9189" lon="3.19177">
        <ele>321.4</ele>
        <time>2024-04-28T10:39:59Z</time>
      </trkpt>
      <trkpt lat="45.91895" lon="3.19177">
        <ele>321.4</ele>
        <time>2024-04-28T10:40:00Z</time>
      </trkpt>
      <trkpt lat="45.919" lon="3.19177">
        <ele>321.4</ele>
        <time>2024-04-28T10:40:01Z</time>
      </trkpt>
      <trkpt lat="45.91906" lon="3.19176">
        <ele>321.4</ele>
        <time>2024-04-28T10:40:02Z</time>
      </trkpt>
      <trkpt lat="45.91912" lon="3.19176">
        <ele>321.6</ele>
        <time>2024-04-28T10:40:03Z</time>
      </trkpt>
      <trkpt lat="45.91917" lon="3.19175">
        <ele>321.6</ele>
        <time>2024-04-28T10:40:04Z</time>
      </trkpt>
      <trkpt lat="45.91922" lon="3.19175">
        <ele>321.8</ele>
        <time>2024-04-28T10:40:05Z</time>
      </trkpt>
      <trkpt lat="45.91928" lon="3.19175">
        <ele>321.8</ele>
        <time>2024-04-28T10:40:06Z</time>
      </trkpt>
      <trkpt lat="45.91934" lon="3.19175">
        <ele>322</ele>
        <time>2024-04-28T10:40:07Z</time>
      </trkpt>
      <trkpt lat="45.91939" lon="3.19177">
        <ele>322</ele>
        <time>2024-04-28T10:40:08Z</time>
      </trkpt>
      <trkpt lat="45.91944" lon="3.19179">
        <ele>322</ele>
        <time>2024-04-28T10:40:09Z</time>
      </trkpt>
      <trkpt lat="45.91949" lon="3.19181">
        <ele>322.2</ele>
        <time>2024-04-28T10:40:10Z</time>
      </trkpt>
      <trkpt lat="45.91955" lon="3.19183">
        <ele>322.2</ele>
        <time>2024-04-28T10:40:11Z</time>
      </trkpt>
      <trkpt lat="45.9196" lon="3.19185">
        <ele>322.2</ele>
        <time>2024-04-28T10:40:12Z</time>
      </trkpt>
      <trkpt lat="45.91965" lon="3.19187">
        <ele>322.4</ele>
        <time>2024-04-28T10:40:13Z</time>
      </trkpt>
      <trkpt lat="45.91965" lon="3.19187">
        <ele>322.4</ele>
        <time>2024-04-28T10:40:14Z</time>
      </trkpt>
      <trkpt lat="45.91974" lon="3.19192">
        <ele>322.4</ele>
        <time>2024-04-28T10:40:15Z</time>
      </trkpt>
      <trkpt lat="45.91979" lon="3.19194">
        <ele>322.6</ele>
        <time>2024-04-28T10:40:16Z</time>
      </trkpt>
      <trkpt lat="45.91983" lon="3.19197">
        <ele>322.6</ele>
        <time>2024-04-28T10:40:17Z</time>
      </trkpt>
      <trkpt lat="45.91987" lon="3.19199">
        <ele>322.6</ele>
        <time>2024-04-28T10:40:18Z</time>
      </trkpt>
      <trkpt lat="45.91992" lon="3.19202">
        <ele>322.6</ele>
        <time>2024-04-28T10:40:19Z</time>
      </trkpt>
      <trkpt lat="45.91996" lon="3.19204">
        <ele>322.8</ele>
        <time>2024-04-28T10:40:20Z</time>
      </trkpt>
      <trkpt lat="45.92001" lon="3.19207">
        <ele>322.8</ele>
        <time>2024-04-28T10:40:21Z</time>
      </trkpt>
      <trkpt lat="45.92006" lon="3.1921">
        <ele>322.8</ele>
        <time>2024-04-28T10:40:22Z</time>
      </trkpt>
      <trkpt lat="45.9201" lon="3.19212">
        <ele>323</ele>
        <time>2024-04-28T10:40:23Z</time>
      </trkpt>
      <trkpt lat="45.92015" lon="3.19215">
        <ele>323</ele>
        <time>2024-04-28T10:40:24Z</time>
      </trkpt>
      <trkpt lat="45.92019" lon="3.19217">
        <ele>323.2</ele>
        <time>2024-04-28T10:40:25Z</time>
      </trkpt>
      <trkpt lat="45.92023" lon="3.1922">
        <ele>323.2</ele>
        <time>2024-04-28T10:40:26Z</time>
      </trkpt>
      <trkpt lat="45.92027" lon="3.19222">
        <ele>323.2</ele>
        <time>2024-04-28T10:40:27Z</time>
      </trkpt>
      <trkpt lat="45.92031" lon="3.19225">
        <ele>323.2</ele>
        <time>2024-04-28T10:40:28Z</time>
      </trkpt>
      <trkpt lat="45.92035" lon="3.19227">
        <ele>323.4</ele>
        <time>2024-04-28T10:40:29Z</time>
      </trkpt>
      <trkpt lat="45.92039" lon="3.1923">
        <ele>323.4</ele>
        <time>2024-04-28T10:40:30Z</time>
      </trkpt>
      <trkpt lat="45.92043" lon="3.19232">
        <ele>323.4</ele>
        <time>2024-04-28T10:40:31Z</time>
      </trkpt>
      <trkpt lat="45.92047" lon="3.19234">
        <ele>323.6</ele>
        <time>2024-04-28T10:40:32Z</time>
      </trkpt>
      <trkpt lat="45.92051" lon="3.19237">
        <ele>323.6</ele>
        <time>2024-04-28T10:40:33Z</time>
      </trkpt>
      <trkpt lat="45.92055" lon="3.19239">
        <ele>323.8</ele>
        <time>2024-04-28T10:40:34Z</time>
      </trkpt>
      <trkpt lat="45.92059" lon="3.19241">
        <ele>323.8</ele>
        <time>2024-04-28T10:40:35Z</time>
      </trkpt>
      <trkpt lat="45.92063" lon="3.19244">
        <ele>323.8</ele>
        <time>2024-04-28T10:40:36Z</time>
      </trkpt>
      <trkpt lat="45.92067" lon="3.19246">
        <ele>324</ele>
        <time>2024-04-28T10:40:37Z</time>
      </trkpt>
      <trkpt lat="45.92071" lon="3.19249">
        <ele>324</ele>
        <time>2024-04-28T10:40:38Z</time>
      </trkpt>
      <trkpt lat="45.92075" lon="3.19251">
        <ele>324</ele>
        <time>2024-04-28T10:40:39Z</time>
      </trkpt>
      <trkpt lat="45.9208" lon="3.19254">
        <ele>324</ele>
        <time>2024-04-28T10:40:40Z</time>
      </trkpt>
      <trkpt lat="45.92084" lon="3.19257">
        <ele>324</ele>
        <time>2024-04-28T10:40:41Z</time>
      </trkpt>
      <trkpt lat="45.92089" lon="3.19259">
        <ele>324.2</ele>
        <time>2024-04-28T10:40:42Z</time>
      </trkpt>
      <trkpt lat="45.92094" lon="3.19262">
        <ele>324.2</ele>
        <time>2024-04-28T10:40:43Z</time>
      </trkpt>
      <trkpt lat="45.92099" lon="3.19265">
        <ele>324.2</ele>
        <time>2024-04-28T10:40:44Z</time>
      </trkpt>
      <trkpt lat="45.92104" lon="3.19268">
        <ele>324.4</ele>
        <time>2024-04-28T10:40:45Z</time>
      </trkpt>
      <trkpt lat="45.92108" lon="3.19271">
        <ele>324.4</ele>
        <time>2024-04-28T10:40:46Z</time>
      </trkpt>
      <trkpt lat="45.92113" lon="3.19273">
        <ele>324.6</ele>
        <time>2024-04-28T10:40:47Z</time>
      </trkpt>
      <trkpt lat="45.92117" lon="3.19276">
        <ele>324.6</ele>
        <time>2024-04-28T10:40:48Z</time>
      </trkpt>
      <trkpt lat="45.92122" lon="3.19279">
        <ele>324.8</ele>
        <time>2024-04-28T10:40:49Z</time>
      </trkpt>
      <trkpt lat="45.92127" lon="3.19282">
        <ele>324.8</ele>
        <time>2024-04-28T10:40:50Z</time>
      </trkpt>
      <trkpt lat="45.92131" lon="3.19285">
        <ele>325</ele>
        <time>2024-04-28T10:40:51Z</time>
      </trkpt>
      <trkpt lat="45.92136" lon="3.19287">
        <ele>325</ele>
        <time>2024-04-28T10:40:52Z</time>
      </trkpt>
      <trkpt lat="45.92141" lon="3.1929">
        <ele>325.2</ele>
        <time>2024-04-28T10:40:53Z</time>
      </trkpt>
      <trkpt lat="45.92146" lon="3.19293">
        <ele>325.2</ele>
        <time>2024-04-28T10:40:54Z</time>
      </trkpt>
      <trkpt lat="45.92151" lon="3.19296">
        <ele>325.2</ele>
        <time>2024-04-28T10:40:55Z</time>
      </trkpt>
      <trkpt lat="45.92156" lon="3.19299">
        <ele>325.4</ele>
        <time>2024-04-28T10:40:56Z</time>
      </trkpt>
      <trkpt lat="45.92162" lon="3.19303">
        <ele>325.4</ele>
        <time>2024-04-28T10:40:57Z</time>
      </trkpt>
      <trkpt lat="45.92167" lon="3.19306">
        <ele>325.6</ele>
        <time>2024-04-28T10:40:58Z</time>
      </trkpt>
      <trkpt lat="45.92173" lon="3.19309">
        <ele>325.6</ele>
        <time>2024-04-28T10:40:59Z</time>
      </trkpt>
      <trkpt lat="45.92178" lon="3.19312">
        <ele>325.8</ele>
        <time>2024-04-28T10:41:00Z</time>
      </trkpt>
      <trkpt lat="45.92184" lon="3.19315">
        <ele>325.8</ele>
        <time>2024-04-28T10:41:01Z</time>
      </trkpt>
      <trkpt lat="45.92189" lon="3.19319">
        <ele>325.8</ele>
        <time>2024-04-28T10:41:02Z</time>
      </trkpt>
      <trkpt lat="45.92195" lon="3.19322">
        <ele>326</ele>
        <time>2024-04-28T10:41:03Z</time>
      </trkpt>
      <trkpt lat="45.922" lon="3.19326">
        <ele>326</ele>
        <time>2024-04-28T10:41:04Z</time>
      </trkpt>
      <trkpt lat="45.92206" lon="3.19329">
        <ele>326.2</ele>
        <time>2024-04-28T10:41:05Z</time>
      </trkpt>
      <trkpt lat="45.92211" lon="3.19332">
        <ele>326.2</ele>
        <time>2024-04-28T10:41:06Z</time>
      </trkpt>
      <trkpt lat="45.92217" lon="3.19336">
        <ele>326.2</ele>
        <time>2024-04-28T10:41:07Z</time>
      </trkpt>
      <trkpt lat="45.92223" lon="3.19339">
        <ele>326.4</ele>
        <time>2024-04-28T10:41:08Z</time>
      </trkpt>
      <trkpt lat="45.92229" lon="3.19342">
        <ele>326.4</ele>
        <time>2024-04-28T10:41:09Z</time>
      </trkpt>
      <trkpt lat="45.92235" lon="3.19345">
        <ele>326.4</ele>
        <time>2024-04-28T10:41:10Z</time>
      </trkpt>
      <trkpt lat="45.92241" lon="3.19348">
        <ele>326.6</ele>
        <time>2024-04-28T10:41:11Z</time>
      </trkpt>
      <trkpt lat="45.92248" lon="3.1935">
        <ele>326.6</ele>
        <time>2024-04-28T10:41:12Z</time>
      </trkpt>
      <trkpt lat="45.92254" lon="3.19353">
        <ele>326.8</ele>
        <time>2024-04-28T10:41:13Z</time>
      </trkpt>
      <trkpt lat="45.9226" lon="3.19356">
        <ele>326.8</ele>
        <time>2024-04-28T10:41:14Z</time>
      </trkpt>
      <trkpt lat="45.92267" lon="3.19358">
        <ele>327</ele>
        <time>2024-04-28T10:41:15Z</time>
      </trkpt>
      <trkpt lat="45.92273" lon="3.19361">
        <ele>327</ele>
        <time>2024-04-28T10:41:16Z</time>
      </trkpt>
      <trkpt lat="45.9228" lon="3.19364">
        <ele>327.2</ele>
        <time>2024-04-28T10:41:17Z</time>
      </trkpt>
      <trkpt lat="45.92286" lon="3.19366">
        <ele>327.4</ele>
        <time>2024-04-28T10:41:18Z</time>
      </trkpt>
      <trkpt lat="45.92293" lon="3.19369">
        <ele>327.4</ele>
        <time>2024-04-28T10:41:19Z</time>
      </trkpt>
      <trkpt lat="45.923" lon="3.1937">
        <ele>327.6</ele>
        <time>2024-04-28T10:41:20Z</time>
      </trkpt>
      <trkpt lat="45.92307" lon="3.1937">
        <ele>327.6</ele>
        <time>2024-04-28T10:41:21Z</time>
      </trkpt>
      <trkpt lat="45.92314" lon="3.1937">
        <ele>327.8</ele>
        <time>2024-04-28T10:41:22Z</time>
      </trkpt>
      <trkpt lat="45.9232" lon="3.1937">
        <ele>328</ele>
        <time>2024-04-28T10:41:23Z</time>
      </trkpt>
      <trkpt lat="45.92327" lon="3.1937">
        <ele>328</ele>
        <time>2024-04-28T10:41:24Z</time>
      </trkpt>
      <trkpt lat="45.92334" lon="3.19369">
        <ele>328.2</ele>
        <time>2024-04-28T10:41:25Z</time>
      </trkpt>
      <trkpt lat="45.92341" lon="3.19367">
        <ele>328.2</ele>
        <time>2024-04-28T10:41:26Z</time>
      </trkpt>
      <trkpt lat="45.92348" lon="3.19365">
        <ele>328.4</ele>
        <time>2024-04-28T10:41:27Z</time>
      </trkpt>
      <trkpt lat="45.92355" lon="3.19363">
        <ele>328.4</ele>
        <time>2024-04-28T10:41:28Z</time>
      </trkpt>
      <trkpt lat="45.92361" lon="3.19361">
        <ele>328.6</ele>
        <time>2024-04-28T10:41:29Z</time>
      </trkpt>
      <trkpt lat="45.92368" lon="3.19359">
        <ele>328.6</ele>
        <time>2024-04-28T10:41:30Z</time>
      </trkpt>
      <trkpt lat="45.92375" lon="3.19357">
        <ele>328.6</ele>
        <time>2024-04-28T10:41:31Z</time>
      </trkpt>
      <trkpt lat="45.92382" lon="3.19355">
        <ele>328.8</ele>
        <time>2024-04-28T10:41:32Z</time>
      </trkpt>
      <trkpt lat="45.92389" lon="3.19353">
        <ele>328.8</ele>
        <time>2024-04-28T10:41:33Z</time>
      </trkpt>
      <trkpt lat="45.92396" lon="3.19351">
        <ele>329</ele>
        <time>2024-04-28T10:41:34Z</time>
      </trkpt>
      <trkpt lat="45.92402" lon="3.19349">
        <ele>329</ele>
        <time>2024-04-28T10:41:35Z</time>
      </trkpt>
      <trkpt lat="45.92409" lon="3.19347">
        <ele>329</ele>
        <time>2024-04-28T10:41:36Z</time>
      </trkpt>
      <trkpt lat="45.92417" lon="3.19346">
        <ele>329.2</ele>
        <time>2024-04-28T10:41:37Z</time>
      </trkpt>
      <trkpt lat="45.92424" lon="3.19345">
        <ele>329.2</ele>
        <time>2024-04-28T10:41:38Z</time>
      </trkpt>
      <trkpt lat="45.92431" lon="3.19345">
        <ele>329.2</ele>
        <time>2024-04-28T10:41:39Z</time>
      </trkpt>
      <trkpt lat="45.92438" lon="3.19345">
        <ele>329.4</ele>
        <time>2024-04-28T10:41:40Z</time>
      </trkpt>
      <trkpt lat="45.92446" lon="3.19344">
        <ele>329.4</ele>
        <time>2024-04-28T10:41:41Z</time>
      </trkpt>
      <trkpt lat="45.92453" lon="3.19344">
        <ele>329.6</ele>
        <time>2024-04-28T10:41:42Z</time>
      </trkpt>
      <trkpt lat="45.9246" lon="3.19344">
        <ele>329.6</ele>
        <time>2024-04-28T10:41:43Z</time>
      </trkpt>
      <trkpt lat="45.92467" lon="3.19345">
        <ele>329.8</ele>
        <time>2024-04-28T10:41:44Z</time>
      </trkpt>
      <trkpt lat="45.92474" lon="3.19347">
        <ele>329.8</ele>
        <time>2024-04-28T10:41:45Z</time>
      </trkpt>
      <trkpt lat="45.92481" lon="3.19348">
        <ele>329.8</ele>
        <time>2024-04-28T10:41:46Z</time>
      </trkpt>
      <trkpt lat="45.92489" lon="3.1935">
        <ele>330</ele>
        <time>2024-04-28T10:41:47Z</time>
      </trkpt>
      <trkpt lat="45.92496" lon="3.19351">
        <ele>330</ele>
        <time>2024-04-28T10:41:48Z</time>
      </trkpt>
      <trkpt lat="45.92503" lon="3.19353">
        <ele>330</ele>
        <time>2024-04-28T10:41:49Z</time>
      </trkpt>
      <trkpt lat="45.9251" lon="3.19356">
        <ele>330.2</ele>
        <time>2024-04-28T10:41:50Z</time>
      </trkpt>
      <trkpt lat="45.92516" lon="3.19359">
        <ele>330.2</ele>
        <time>2024-04-28T10:41:51Z</time>
      </trkpt>
      <trkpt lat="45.92523" lon="3.19363">
        <ele>330.4</ele>
        <time>2024-04-28T10:41:52Z</time>
      </trkpt>
      <trkpt lat="45.9253" lon="3.19366">
        <ele>330.4</ele>
        <time>2024-04-28T10:41:53Z</time>
      </trkpt>
      <trkpt lat="45.92537" lon="3.19369">
        <ele>330.4</ele>
        <time>2024-04-28T10:41:54Z</time>
      </trkpt>
      <trkpt lat="45.92543" lon="3.19373">
        <ele>330.6</ele>
        <time>2024-04-28T10:41:55Z</time>
      </trkpt>
      <trkpt lat="45.9255" lon="3.19376">
        <ele>330.6</ele>
        <time>2024-04-28T10:41:56Z</time>
      </trkpt>
      <trkpt lat="45.92557" lon="3.19379">
        <ele>330.8</ele>
        <time>2024-04-28T10:41:57Z</time>
      </trkpt>
      <trkpt lat="45.92563" lon="3.19382">
        <ele>330.8</ele>
        <time>2024-04-28T10:41:58Z</time>
      </trkpt>
      <trkpt lat="45.9257" lon="3.19385">
        <ele>331</ele>
        <time>2024-04-28T10:41:59Z</time>
      </trkpt>
      <trkpt lat="45.92576" lon="3.19388">
        <ele>331</ele>
        <time>2024-04-28T10:42:00Z</time>
      </trkpt>
      <trkpt lat="45.92582" lon="3.19392">
        <ele>331</ele>
        <time>2024-04-28T10:42:01Z</time>
      </trkpt>
      <trkpt lat="45.92589" lon="3.19395">
        <ele>331.2</ele>
        <time>2024-04-28T10:42:02Z</time>
      </trkpt>
      <trkpt lat="45.92595" lon="3.19398">
        <ele>331.2</ele>
        <time>2024-04-28T10:42:03Z</time>
      </trkpt>
      <trkpt lat="45.92602" lon="3.19401">
        <ele>331.4</ele>
        <time>2024-04-28T10:42:04Z</time>
      </trkpt>
      <trkpt lat="45.92608" lon="3.19404">
        <ele>331.4</ele>
        <time>2024-04-28T10:42:05Z</time>
      </trkpt>
      <trkpt lat="45.92614" lon="3.19407">
        <ele>331.6</ele>
        <time>2024-04-28T10:42:06Z</time>
      </trkpt>
      <trkpt lat="45.92621" lon="3.1941">
        <ele>331.6</ele>
        <time>2024-04-28T10:42:07Z</time>
      </trkpt>
      <trkpt lat="45.92627" lon="3.19413">
        <ele>331.8</ele>
        <time>2024-04-28T10:42:08Z</time>
      </trkpt>
      <trkpt lat="45.92633" lon="3.19416">
        <ele>331.8</ele>
        <time>2024-04-28T10:42:09Z</time>
      </trkpt>
      <trkpt lat="45.9264" lon="3.19419">
        <ele>331.8</ele>
        <time>2024-04-28T10:42:10Z</time>
      </trkpt>
      <trkpt lat="45.92646" lon="3.19422">
        <ele>332</ele>
        <time>2024-04-28T10:42:11Z</time>
      </trkpt>
      <trkpt lat="45.92646" lon="3.19422">
        <ele>332</ele>
        <time>2024-04-28T10:42:12Z</time>
      </trkpt>
      <trkpt lat="45.92659" lon="3.19428">
        <ele>332.2</ele>
        <time>2024-04-28T10:42:13Z</time>
      </trkpt>
      <trkpt lat="45.92665" lon="3.19429">
        <ele>332.2</ele>
        <time>2024-04-28T10:42:14Z</time>
      </trkpt>
      <trkpt lat="45.92672" lon="3.1943">
        <ele>332.2</ele>
        <time>2024-04-28T10:42:15Z</time>
      </trkpt>
      <trkpt lat="45.92679" lon="3.19431">
        <ele>332.4</ele>
        <time>2024-04-28T10:42:16Z</time>
      </trkpt>
      <trkpt lat="45.92685" lon="3.19432">
        <ele>332.4</ele>
        <time>2024-04-28T10:42:17Z</time>
      </trkpt>
      <trkpt lat="45.92692" lon="3.19433">
        <ele>332.4</ele>
        <time>2024-04-28T10:42:18Z</time>
      </trkpt>
      <trkpt lat="45.92698" lon="3.19434">
        <ele>332.6</ele>
        <time>2024-04-28T10:42:19Z</time>
      </trkpt>
      <trkpt lat="45.92704" lon="3.19433">
        <ele>332.6</ele>
        <time>2024-04-28T10:42:20Z</time>
      </trkpt>
      <trkpt lat="45.92711" lon="3.19431">
        <ele>332.6</ele>
        <time>2024-04-28T10:42:21Z</time>
      </trkpt>
      <trkpt lat="45.92717" lon="3.1943">
        <ele>332.8</ele>
        <time>2024-04-28T10:42:22Z</time>
      </trkpt>
      <trkpt lat="45.92724" lon="3.19428">
        <ele>332.8</ele>
        <time>2024-04-28T10:42:23Z</time>
      </trkpt>
      <trkpt lat="45.9273" lon="3.19427">
        <ele>332.8</ele>
        <time>2024-04-28T10:42:24Z</time>
      </trkpt>
      <trkpt lat="45.92737" lon="3.19426">
        <ele>333</ele>
        <time>2024-04-28T10:42:25Z</time>
      </trkpt>
      <trkpt lat="45.92744" lon="3.19424">
        <ele>333</ele>
        <time>2024-04-28T10:42:26Z</time>
      </trkpt>
      <trkpt lat="45.92751" lon="3.19423">
        <ele>333</ele>
        <time>2024-04-28T10:42:27Z</time>
      </trkpt>
      <trkpt lat="45.92758" lon="3.19421">
        <ele>333</ele>
        <time>2024-04-28T10:42:28Z</time>
      </trkpt>
      <trkpt lat="45.92765" lon="3.19418">
        <ele>333.2</ele>
        <time>2024-04-28T10:42:29Z</time>
      </trkpt>
      <trkpt lat="45.92771" lon="3.19414">
        <ele>333.2</ele>
        <time>2024-04-28T10:42:30Z</time>
      </trkpt>
      <trkpt lat="45.92778" lon="3.19411">
        <ele>333.2</ele>
        <time>2024-04-28T10:42:31Z</time>
      </trkpt>
      <trkpt lat="45.92785" lon="3.19408">
        <ele>333.2</ele>
        <time>2024-04-28T10:42:32Z</time>
      </trkpt>
      <trkpt lat="45.92792" lon="3.19405">
        <ele>333.4</ele>
        <time>2024-04-28T10:42:33Z</time>
      </trkpt>
      <trkpt lat="45.92799" lon="3.19401">
        <ele>333.4</ele>
        <time>2024-04-28T10:42:34Z</time>
      </trkpt>
      <trkpt lat="45.92806" lon="3.19398">
        <ele>333.4</ele>
        <time>2024-04-28T10:42:35Z</time>
      </trkpt>
      <trkpt lat="45.92813" lon="3.19395">
        <ele>333.4</ele>
        <time>2024-04-28T10:42:36Z</time>
      </trkpt>
      <trkpt lat="45.9282" lon="3.19391">
        <ele>333.4</ele>
        <time>2024-04-28T10:42:37Z</time>
      </trkpt>
      <trkpt lat="45.92827" lon="3.19388">
        <ele>333.4</ele>
        <time>2024-04-28T10:42:38Z</time>
      </trkpt>
      <trkpt lat="45.92834" lon="3.19385">
        <ele>333.4</ele>
        <time>2024-04-28T10:42:39Z</time>
      </trkpt>
      <trkpt lat="45.92841" lon="3.19382">
        <ele>333.6</ele>
        <time>2024-04-28T10:42:40Z</time>
      </trkpt>
      <trkpt lat="45.92848" lon="3.19378">
        <ele>333.6</ele>
        <time>2024-04-28T10:42:41Z</time>
      </trkpt>
      <trkpt lat="45.92855" lon="3.19375">
        <ele>333.6</ele>
        <time>2024-04-28T10:42:42Z</time>
      </trkpt>
      <trkpt lat="45.92862" lon="3.19372">
        <ele>333.6</ele>
        <time>2024-04-28T10:42:43Z</time>
      </trkpt>
      <trkpt lat="45.92869" lon="3.19369">
        <ele>333.6</ele>
        <time>2024-04-28T10:42:44Z</time>
      </trkpt>
      <trkpt lat="45.92876" lon="3.19365">
        <ele>333.6</ele>
        <time>2024-04-28T10:42:45Z</time>
      </trkpt>
      <trkpt lat="45.92883" lon="3.19362">
        <ele>333.8</ele>
        <time>2024-04-28T10:42:46Z</time>
      </trkpt>
      <trkpt lat="45.9289" lon="3.19359">
        <ele>333.8</ele>
        <time>2024-04-28T10:42:47Z</time>
      </trkpt>
      <trkpt lat="45.92897" lon="3.19356">
        <ele>333.8</ele>
        <time>2024-04-28T10:42:48Z</time>
      </trkpt>
      <trkpt lat="45.92903" lon="3.19352">
        <ele>333.8</ele>
        <time>2024-04-28T10:42:49Z</time>
      </trkpt>
      <trkpt lat="45.9291" lon="3.19349">
        <ele>333.8</ele>
        <time>2024-04-28T10:42:50Z</time>
      </trkpt>
      <trkpt lat="45.92917" lon="3.19346">
        <ele>333.8</ele>
        <time>2024-04-28T10:42:51Z</time>
      </trkpt>
      <trkpt lat="45.92924" lon="3.19343">
        <ele>333.8</ele>
        <time>2024-04-28T10:42:52Z</time>
      </trkpt>
      <trkpt lat="45.92931" lon="3.1934">
        <ele>333.8</ele>
        <time>2024-04-28T10:42:53Z</time>
      </trkpt>
      <trkpt lat="45.92938" lon="3.19336">
        <ele>333.8</ele>
        <time>2024-04-28T10:42:54Z</time>
      </trkpt>
      <trkpt lat="45.92945" lon="3.19333">
        <ele>334</ele>
        <time>2024-04-28T10:42:55Z</time>
      </trkpt>
      <trkpt lat="45.92952" lon="3.1933">
        <ele>334</ele>
        <time>2024-04-28T10:42:56Z</time>
      </trkpt>
      <trkpt lat="45.92958" lon="3.19327">
        <ele>334</ele>
        <time>2024-04-28T10:42:57Z</time>
      </trkpt>
      <trkpt lat="45.92965" lon="3.19323">
        <ele>334</ele>
        <time>2024-04-28T10:42:58Z</time>
      </trkpt>
      <trkpt lat="45.92972" lon="3.1932">
        <ele>334</ele>
        <time>2024-04-28T10:42:59Z</time>
      </trkpt>
      <trkpt lat="45.92979" lon="3.19317">
        <ele>334</ele>
        <time>2024-04-28T10:43:00Z</time>
      </trkpt>
      <trkpt lat="45.92986" lon="3.19314">
        <ele>334</ele>
        <time>2024-04-28T10:43:01Z</time>
      </trkpt>
      <trkpt lat="45.92993" lon="3.1931">
        <ele>334</ele>
        <time>2024-04-28T10:43:02Z</time>
      </trkpt>
      <trkpt lat="45.93001" lon="3.19307">
        <ele>334</ele>
        <time>2024-04-28T10:43:03Z</time>
      </trkpt>
      <trkpt lat="45.93008" lon="3.19304">
        <ele>334</ele>
        <time>2024-04-28T10:43:04Z</time>
      </trkpt>
      <trkpt lat="45.93015" lon="3.193">
        <ele>334</ele>
        <time>2024-04-28T10:43:05Z</time>
      </trkpt>
      <trkpt lat="45.93022" lon="3.19297">
        <ele>334</ele>
        <time>2024-04-28T10:43:06Z</time>
      </trkpt>
      <trkpt lat="45.93029" lon="3.19293">
        <ele>334</ele>
        <time>2024-04-28T10:43:07Z</time>
      </trkpt>
      <trkpt lat="45.93036" lon="3.1929">
        <ele>334</ele>
        <time>2024-04-28T10:43:08Z</time>
      </trkpt>
      <trkpt lat="45.93044" lon="3.19287">
        <ele>334</ele>
        <time>2024-04-28T10:43:09Z</time>
      </trkpt>
      <trkpt lat="45.93051" lon="3.19283">
        <ele>334</ele>
        <time>2024-04-28T10:43:10Z</time>
      </trkpt>
      <trkpt lat="45.93058" lon="3.1928">
        <ele>334</ele>
        <time>2024-04-28T10:43:11Z</time>
      </trkpt>
      <trkpt lat="45.93065" lon="3.19277">
        <ele>334</ele>
        <time>2024-04-28T10:43:12Z</time>
      </trkpt>
      <trkpt lat="45.93072" lon="3.19273">
        <ele>334</ele>
        <time>2024-04-28T10:43:13Z</time>
      </trkpt>
      <trkpt lat="45.93079" lon="3.1927">
        <ele>334</ele>
        <time>2024-04-28T10:43:14Z</time>
      </trkpt>
      <trkpt lat="45.93086" lon="3.19267">
        <ele>334</ele>
        <time>2024-04-28T10:43:15Z</time>
      </trkpt>
      <trkpt lat="45.93093" lon="3.19264">
        <ele>334</ele>
        <time>2024-04-28T10:43:16Z</time>
      </trkpt>
      <trkpt lat="45.93099" lon="3.19261">
        <ele>334</ele>
        <time>2024-04-28T10:43:17Z</time>
      </trkpt>
      <trkpt lat="45.93106" lon="3.19257">
        <ele>334</ele>
        <time>2024-04-28T10:43:18Z</time>
      </trkpt>
      <trkpt lat="45.93113" lon="3.19254">
        <ele>334</ele>
        <time>2024-04-28T10:43:19Z</time>
      </trkpt>
      <trkpt lat="45.9312" lon="3.19251">
        <ele>334</ele>
        <time>2024-04-28T10:43:20Z</time>
      </trkpt>
      <trkpt lat="45.93127" lon="3.19247">
        <ele>334</ele>
        <time>2024-04-28T10:43:21Z</time>
      </trkpt>
      <trkpt lat="45.93134" lon="3.19244">
        <ele>334</ele>
        <time>2024-04-28T10:43:22Z</time>
      </trkpt>
      <trkpt lat="45.93141" lon="3.1924">
        <ele>334</ele>
        <time>2024-04-28T10:43:23Z</time>
      </trkpt>
      <trkpt lat="45.93148" lon="3.19235">
        <ele>333.8</ele>
        <time>2024-04-28T10:43:24Z</time>
      </trkpt>
      <trkpt lat="45.93155" lon="3.19231">
        <ele>334</ele>
        <time>2024-04-28T10:43:25Z</time>
      </trkpt>
      <trkpt lat="45.93162" lon="3.19226">
        <ele>334</ele>
        <time>2024-04-28T10:43:26Z</time>
      </trkpt>
      <trkpt lat="45.93168" lon="3.19222">
        <ele>334</ele>
        <time>2024-04-28T10:43:27Z</time>
      </trkpt>
      <trkpt lat="45.93174" lon="3.19217">
        <ele>334</ele>
        <time>2024-04-28T10:43:28Z</time>
      </trkpt>
      <trkpt lat="45.93181" lon="3.19213">
        <ele>334</ele>
        <time>2024-04-28T10:43:29Z</time>
      </trkpt>
      <trkpt lat="45.93187" lon="3.19208">
        <ele>334</ele>
        <time>2024-04-28T10:43:30Z</time>
      </trkpt>
      <trkpt lat="45.93193" lon="3.19203">
        <ele>334</ele>
        <time>2024-04-28T10:43:31Z</time>
      </trkpt>
      <trkpt lat="45.932" lon="3.19198">
        <ele>334</ele>
        <time>2024-04-28T10:43:32Z</time>
      </trkpt>
      <trkpt lat="45.93206" lon="3.19193">
        <ele>334</ele>
        <time>2024-04-28T10:43:33Z</time>
      </trkpt>
      <trkpt lat="45.93212" lon="3.19188">
        <ele>334</ele>
        <time>2024-04-28T10:43:34Z</time>
      </trkpt>
      <trkpt lat="45.93218" lon="3.19183">
        <ele>334</ele>
        <time>2024-04-28T10:43:35Z</time>
      </trkpt>
      <trkpt lat="45.93224" lon="3.19179">
        <ele>334</ele>
        <time>2024-04-28T10:43:36Z</time>
      </trkpt>
      <trkpt lat="45.93231" lon="3.19177">
        <ele>334</ele>
        <time>2024-04-28T10:43:37Z</time>
      </trkpt>
      <trkpt lat="45.93238" lon="3.19175">
        <ele>334</ele>
        <time>2024-04-28T10:43:38Z</time>
      </trkpt>
      <trkpt lat="45.93245" lon="3.19172">
        <ele>334</ele>
        <time>2024-04-28T10:43:39Z</time>
      </trkpt>
      <trkpt lat="45.93252" lon="3.1917">
        <ele>334</ele>
        <time>2024-04-28T10:43:40Z</time>
      </trkpt>
      <trkpt lat="45.9326" lon="3.19167">
        <ele>334</ele>
        <time>2024-04-28T10:43:41Z</time>
      </trkpt>
      <trkpt lat="45.93267" lon="3.19165">
        <ele>334</ele>
        <time>2024-04-28T10:43:42Z</time>
      </trkpt>
      <trkpt lat="45.93274" lon="3.19162">
        <ele>333.8</ele>
        <time>2024-04-28T10:43:43Z</time>
      </trkpt>
      <trkpt lat="45.93281" lon="3.1916">
        <ele>333.8</ele>
        <time>2024-04-28T10:43:44Z</time>
      </trkpt>
      <trkpt lat="45.93288" lon="3.19157">
        <ele>333.8</ele>
        <time>2024-04-28T10:43:45Z</time>
      </trkpt>
      <trkpt lat="45.93296" lon="3.19155">
        <ele>333.8</ele>
        <time>2024-04-28T10:43:46Z</time>
      </trkpt>
      <trkpt lat="45.93303" lon="3.19152">
        <ele>333.8</ele>
        <time>2024-04-28T10:43:47Z</time>
      </trkpt>
      <trkpt lat="45.9331" lon="3.1915">
        <ele>333.8</ele>
        <time>2024-04-28T10:43:48Z</time>
      </trkpt>
      <trkpt lat="45.93317" lon="3.19148">
        <ele>333.8</ele>
        <time>2024-04-28T10:43:49Z</time>
      </trkpt>
      <trkpt lat="45.93325" lon="3.19148">
        <ele>333.8</ele>
        <time>2024-04-28T10:43:50Z</time>
      </trkpt>
      <trkpt lat="45.93332" lon="3.19148">
        <ele>333.8</ele>
        <time>2024-04-28T10:43:51Z</time>
      </trkpt>
      <trkpt lat="45.9334" lon="3.19148">
        <ele>333.8</ele>
        <time>2024-04-28T10:43:52Z</time>
      </trkpt>
      <trkpt lat="45.93347" lon="3.19148">
        <ele>333.8</ele>
        <time>2024-04-28T10:43:53Z</time>
      </trkpt>
      <trkpt lat="45.93354" lon="3.19147">
        <ele>333.8</ele>
        <time>2024-04-28T10:43:54Z</time>
      </trkpt>
      <trkpt lat="45.93362" lon="3.19147">
        <ele>333.8</ele>
        <time>2024-04-28T10:43:55Z</time>
      </trkpt>
      <trkpt lat="45.93369" lon="3.19147">
        <ele>333.6</ele>
        <time>2024-04-28T10:43:56Z</time>
      </trkpt>
      <trkpt lat="45.93377" lon="3.19147">
        <ele>333.6</ele>
        <time>2024-04-28T10:43:57Z</time>
      </trkpt>
      <trkpt lat="45.93384" lon="3.19147">
        <ele>333.6</ele>
        <time>2024-04-28T10:43:58Z</time>
      </trkpt>
      <trkpt lat="45.93392" lon="3.19146">
        <ele>333.6</ele>
        <time>2024-04-28T10:43:59Z</time>
      </trkpt>
      <trkpt lat="45.93399" lon="3.19146">
        <ele>333.6</ele>
        <time>2024-04-28T10:44:00Z</time>
      </trkpt>
      <trkpt lat="45.93406" lon="3.19144">
        <ele>333.6</ele>
        <time>2024-04-28T10:44:01Z</time>
      </trkpt>
      <trkpt lat="45.93413" lon="3.19143">
        <ele>333.6</ele>
        <time>2024-04-28T10:44:02Z</time>
      </trkpt>
      <trkpt lat="45.9342" lon="3.19142">
        <ele>333.6</ele>
        <time>2024-04-28T10:44:03Z</time>
      </trkpt>
      <trkpt lat="45.93428" lon="3.1914">
        <ele>333.6</ele>
        <time>2024-04-28T10:44:04Z</time>
      </trkpt>
      <trkpt lat="45.93435" lon="3.19139">
        <ele>333.4</ele>
        <time>2024-04-28T10:44:05Z</time>
      </trkpt>
      <trkpt lat="45.93442" lon="3.19138">
        <ele>333.4</ele>
        <time>2024-04-28T10:44:06Z</time>
      </trkpt>
      <trkpt lat="45.93449" lon="3.19137">
        <ele>333.4</ele>
        <time>2024-04-28T10:44:07Z</time>
      </trkpt>
      <trkpt lat="45.93456" lon="3.19135">
        <ele>333.4</ele>
        <time>2024-04-28T10:44:08Z</time>
      </trkpt>
      <trkpt lat="45.93463" lon="3.19134">
        <ele>333.4</ele>
        <time>2024-04-28T10:44:09Z</time>
      </trkpt>
      <trkpt lat="45.9347" lon="3.19133">
        <ele>333.4</ele>
        <time>2024-04-28T10:44:10Z</time>
      </trkpt>
      <trkpt lat="45.93477" lon="3.19131">
        <ele>333.4</ele>
        <time>2024-04-28T10:44:11Z</time>
      </trkpt>
      <trkpt lat="45.93484" lon="3.1913">
        <ele>333.4</ele>
        <time>2024-04-28T10:44:12Z</time>
      </trkpt>
      <trkpt lat="45.93491" lon="3.19129">
        <ele>333.4</ele>
        <time>2024-04-28T10:44:13Z</time>
      </trkpt>
      <trkpt lat="45.93499" lon="3.19128">
        <ele>333.4</ele>
        <time>2024-04-28T10:44:14Z</time>
      </trkpt>
      <trkpt lat="45.93506" lon="3.19126">
        <ele>333.4</ele>
        <time>2024-04-28T10:44:15Z</time>
      </trkpt>
      <trkpt lat="45.93513" lon="3.19125">
        <ele>333.4</ele>
        <time>2024-04-28T10:44:16Z</time>
      </trkpt>
      <trkpt lat="45.9352" lon="3.19124">
        <ele>333.4</ele>
        <time>2024-04-28T10:44:17Z</time>
      </trkpt>
      <trkpt lat="45.93527" lon="3.19123">
        <ele>333.2</ele>
        <time>2024-04-28T10:44:18Z</time>
      </trkpt>
      <trkpt lat="45.93534" lon="3.19121">
        <ele>333.2</ele>
        <time>2024-04-28T10:44:19Z</time>
      </trkpt>
      <trkpt lat="45.93541" lon="3.1912">
        <ele>333.2</ele>
        <time>2024-04-28T10:44:20Z</time>
      </trkpt>
      <trkpt lat="45.93548" lon="3.19119">
        <ele>333.2</ele>
        <time>2024-04-28T10:44:21Z</time>
      </trkpt>
      <trkpt lat="45.93555" lon="3.19117">
        <ele>333.2</ele>
        <time>2024-04-28T10:44:22Z</time>
      </trkpt>
      <trkpt lat="45.93562" lon="3.19116">
        <ele>333.2</ele>
        <time>2024-04-28T10:44:23Z</time>
      </trkpt>
      <trkpt lat="45.93569" lon="3.19115">
        <ele>333.2</ele>
        <time>2024-04-28T10:44:24Z</time>
      </trkpt>
      <trkpt lat="45.93576" lon="3.19114">
        <ele>333.2</ele>
        <time>2024-04-28T10:44:25Z</time>
      </trkpt>
      <trkpt lat="45.93583" lon="3.19112">
        <ele>333.2</ele>
        <time>2024-04-28T10:44:26Z</time>
      </trkpt>
      <trkpt lat="45.9359" lon="3.19111">
        <ele>333.2</ele>
        <time>2024-04-28T10:44:27Z</time>
      </trkpt>
      <trkpt lat="45.93597" lon="3.1911">
        <ele>333</ele>
        <time>2024-04-28T10:44:28Z</time>
      </trkpt>
      <trkpt lat="45.93604" lon="3.19109">
        <ele>333</ele>
        <time>2024-04-28T10:44:29Z</time>
      </trkpt>
      <trkpt lat="45.93611" lon="3.19108">
        <ele>333</ele>
        <time>2024-04-28T10:44:30Z</time>
      </trkpt>
      <trkpt lat="45.93618" lon="3.19107">
        <ele>333</ele>
        <time>2024-04-28T10:44:31Z</time>
      </trkpt>
      <trkpt lat="45.93625" lon="3.19106">
        <ele>333</ele>
        <time>2024-04-28T10:44:32Z</time>
      </trkpt>
      <trkpt lat="45.93632" lon="3.19105">
        <ele>332.8</ele>
        <time>2024-04-28T10:44:33Z</time>
      </trkpt>
      <trkpt lat="45.93639" lon="3.19104">
        <ele>332.8</ele>
        <time>2024-04-28T10:44:34Z</time>
      </trkpt>
      <trkpt lat="45.93647" lon="3.19102">
        <ele>332.8</ele>
        <time>2024-04-28T10:44:35Z</time>
      </trkpt>
      <trkpt lat="45.93654" lon="3.19101">
        <ele>332.8</ele>
        <time>2024-04-28T10:44:36Z</time>
      </trkpt>
      <trkpt lat="45.93661" lon="3.191">
        <ele>332.8</ele>
        <time>2024-04-28T10:44:37Z</time>
      </trkpt>
      <trkpt lat="45.93668" lon="3.19099">
        <ele>332.8</ele>
        <time>2024-04-28T10:44:38Z</time>
      </trkpt>
      <trkpt lat="45.93675" lon="3.19098">
        <ele>332.6</ele>
        <time>2024-04-28T10:44:39Z</time>
      </trkpt>
      <trkpt lat="45.93682" lon="3.19097">
        <ele>332.6</ele>
        <time>2024-04-28T10:44:40Z</time>
      </trkpt>
      <trkpt lat="45.93689" lon="3.19096">
        <ele>332.8</ele>
        <time>2024-04-28T10:44:41Z</time>
      </trkpt>
      <trkpt lat="45.93696" lon="3.19095">
        <ele>332.6</ele>
        <time>2024-04-28T10:44:42Z</time>
      </trkpt>
      <trkpt lat="45.93703" lon="3.19093">
        <ele>332.6</ele>
        <time>2024-04-28T10:44:43Z</time>
      </trkpt>
      <trkpt lat="45.9371" lon="3.19092">
        <ele>332.6</ele>
        <time>2024-04-28T10:44:44Z</time>
      </trkpt>
      <trkpt lat="45.93717" lon="3.19091">
        <ele>332.6</ele>
        <time>2024-04-28T10:44:45Z</time>
      </trkpt>
      <trkpt lat="45.93724" lon="3.1909">
        <ele>332.4</ele>
        <time>2024-04-28T10:44:46Z</time>
      </trkpt>
      <trkpt lat="45.93731" lon="3.19089">
        <ele>332.4</ele>
        <time>2024-04-28T10:44:47Z</time>
      </trkpt>
      <trkpt lat="45.93738" lon="3.19088">
        <ele>332.4</ele>
        <time>2024-04-28T10:44:48Z</time>
      </trkpt>
      <trkpt lat="45.93744" lon="3.19087">
        <ele>332.2</ele>
        <time>2024-04-28T10:44:49Z</time>
      </trkpt>
      <trkpt lat="45.93752" lon="3.19086">
        <ele>332.2</ele>
        <time>2024-04-28T10:44:50Z</time>
      </trkpt>
      <trkpt lat="45.93759" lon="3.19084">
        <ele>332</ele>
        <time>2024-04-28T10:44:51Z</time>
      </trkpt>
      <trkpt lat="45.93766" lon="3.19083">
        <ele>332</ele>
        <time>2024-04-28T10:44:52Z</time>
      </trkpt>
      <trkpt lat="45.93773" lon="3.19081">
        <ele>331.8</ele>
        <time>2024-04-28T10:44:53Z</time>
      </trkpt>
      <trkpt lat="45.93781" lon="3.1908">
        <ele>331.8</ele>
        <time>2024-04-28T10:44:54Z</time>
      </trkpt>
      <trkpt lat="45.93788" lon="3.1908">
        <ele>331.8</ele>
        <time>2024-04-28T10:44:55Z</time>
      </trkpt>
      <trkpt lat="45.93796" lon="3.19081">
        <ele>331.6</ele>
        <time>2024-04-28T10:44:56Z</time>
      </trkpt>
      <trkpt lat="45.93803" lon="3.19082">
        <ele>331.6</ele>
        <time>2024-04-28T10:44:57Z</time>
      </trkpt>
      <trkpt lat="45.93811" lon="3.19082">
        <ele>331.4</ele>
        <time>2024-04-28T10:44:58Z</time>
      </trkpt>
      <trkpt lat="45.93819" lon="3.19083">
        <ele>331.4</ele>
        <time>2024-04-28T10:44:59Z</time>
      </trkpt>
      <trkpt lat="45.93826" lon="3.19083">
        <ele>331.2</ele>
        <time>2024-04-28T10:45:00Z</time>
      </trkpt>
      <trkpt lat="45.93834" lon="3.19084">
        <ele>331</ele>
        <time>2024-04-28T10:45:01Z</time>
      </trkpt>
      <trkpt lat="45.93841" lon="3.19083">
        <ele>330.8</ele>
        <time>2024-04-28T10:45:02Z</time>
      </trkpt>
      <trkpt lat="45.93849" lon="3.19082">
        <ele>330.8</ele>
        <time>2024-04-28T10:45:03Z</time>
      </trkpt>
      <trkpt lat="45.93856" lon="3.1908">
        <ele>330.6</ele>
        <time>2024-04-28T10:45:04Z</time>
      </trkpt>
      <trkpt lat="45.93864" lon="3.19078">
        <ele>330.6</ele>
        <time>2024-04-28T10:45:05Z</time>
      </trkpt>
      <trkpt lat="45.93872" lon="3.19077">
        <ele>330.4</ele>
        <time>2024-04-28T10:45:06Z</time>
      </trkpt>
      <trkpt lat="45.9388" lon="3.19075">
        <ele>330.2</ele>
        <time>2024-04-28T10:45:07Z</time>
      </trkpt>
      <trkpt lat="45.93888" lon="3.19074">
        <ele>330.2</ele>
        <time>2024-04-28T10:45:08Z</time>
      </trkpt>
      <trkpt lat="45.93896" lon="3.19072">
        <ele>330</ele>
        <time>2024-04-28T10:45:09Z</time>
      </trkpt>
      <trkpt lat="45.93903" lon="3.19069">
        <ele>330</ele>
        <time>2024-04-28T10:45:10Z</time>
      </trkpt>
      <trkpt lat="45.93911" lon="3.19064">
        <ele>329.8</ele>
        <time>2024-04-28T10:45:11Z</time>
      </trkpt>
      <trkpt lat="45.93919" lon="3.1906">
        <ele>329.6</ele>
        <time>2024-04-28T10:45:12Z</time>
      </trkpt>
      <trkpt lat="45.93926" lon="3.19056">
        <ele>329.6</ele>
        <time>2024-04-28T10:45:13Z</time>
      </trkpt>
      <trkpt lat="45.93934" lon="3.19052">
        <ele>329.4</ele>
        <time>2024-04-28T10:45:14Z</time>
      </trkpt>
      <trkpt lat="45.93941" lon="3.19048">
        <ele>329.4</ele>
        <time>2024-04-28T10:45:15Z</time>
      </trkpt>
      <trkpt lat="45.93949" lon="3.19044">
        <ele>329.2</ele>
        <time>2024-04-28T10:45:16Z</time>
      </trkpt>
      <trkpt lat="45.93956" lon="3.1904">
        <ele>329</ele>
        <time>2024-04-28T10:45:17Z</time>
      </trkpt>
      <trkpt lat="45.93963" lon="3.19036">
        <ele>329</ele>
        <time>2024-04-28T10:45:18Z</time>
      </trkpt>
      <trkpt lat="45.9397" lon="3.19032">
        <ele>328.8</ele>
        <time>2024-04-28T10:45:19Z</time>
      </trkpt>
      <trkpt lat="45.93977" lon="3.19028">
        <ele>328.8</ele>
        <time>2024-04-28T10:45:20Z</time>
      </trkpt>
      <trkpt lat="45.93984" lon="3.19025">
        <ele>328.6</ele>
        <time>2024-04-28T10:45:21Z</time>
      </trkpt>
      <trkpt lat="45.93991" lon="3.19021">
        <ele>328.6</ele>
        <time>2024-04-28T10:45:22Z</time>
      </trkpt>
      <trkpt lat="45.93997" lon="3.19016">
        <ele>328.4</ele>
        <time>2024-04-28T10:45:23Z</time>
      </trkpt>
      <trkpt lat="45.94003" lon="3.19012">
        <ele>328.2</ele>
        <time>2024-04-28T10:45:24Z</time>
      </trkpt>
      <trkpt lat="45.9401" lon="3.19008">
        <ele>328.2</ele>
        <time>2024-04-28T10:45:25Z</time>
      </trkpt>
      <trkpt lat="45.94016" lon="3.19003">
        <ele>328.2</ele>
        <time>2024-04-28T10:45:26Z</time>
      </trkpt>
      <trkpt lat="45.94022" lon="3.18999">
        <ele>328</ele>
        <time>2024-04-28T10:45:27Z</time>
      </trkpt>
      <trkpt lat="45.94029" lon="3.18995">
        <ele>328</ele>
        <time>2024-04-28T10:45:28Z</time>
      </trkpt>
      <trkpt lat="45.94035" lon="3.1899">
        <ele>328</ele>
        <time>2024-04-28T10:45:29Z</time>
      </trkpt>
      <trkpt lat="45.94041" lon="3.18986">
        <ele>327.8</ele>
        <time>2024-04-28T10:45:30Z</time>
      </trkpt>
      <trkpt lat="45.94048" lon="3.18982">
        <ele>327.8</ele>
        <time>2024-04-28T10:45:31Z</time>
      </trkpt>
      <trkpt lat="45.94053" lon="3.18978">
        <ele>327.8</ele>
        <time>2024-04-28T10:45:32Z</time>
      </trkpt>
      <trkpt lat="45.94059" lon="3.18974">
        <ele>327.6</ele>
        <time>2024-04-28T10:45:33Z</time>
      </trkpt>
      <trkpt lat="45.94065" lon="3.1897">
        <ele>327.6</ele>
        <time>2024-04-28T10:45:34Z</time>
      </trkpt>
      <trkpt lat="45.9407" lon="3.18966">
        <ele>327.6</ele>
        <time>2024-04-28T10:45:35Z</time>
      </trkpt>
      <trkpt lat="45.94076" lon="3.18962">
        <ele>327.4</ele>
        <time>2024-04-28T10:45:36Z</time>
      </trkpt>
      <trkpt lat="45.94081" lon="3.18957">
        <ele>327.4</ele>
        <time>2024-04-28T10:45:37Z</time>
      </trkpt>
      <trkpt lat="45.94085" lon="3.18951">
        <ele>327.4</ele>
        <time>2024-04-28T10:45:38Z</time>
      </trkpt>
      <trkpt lat="45.9409" lon="3.18945">
        <ele>327.4</ele>
        <time>2024-04-28T10:45:39Z</time>
      </trkpt>
      <trkpt lat="45.94094" lon="3.18939">
        <ele>327.2</ele>
        <time>2024-04-28T10:45:40Z</time>
      </trkpt>
      <trkpt lat="45.94098" lon="3.18934">
        <ele>327.2</ele>
        <time>2024-04-28T10:45:41Z</time>
      </trkpt>
      <trkpt lat="45.94102" lon="3.18928">
        <ele>327.2</ele>
        <time>2024-04-28T10:45:42Z</time>
      </trkpt>
      <trkpt lat="45.94106" lon="3.18923">
        <ele>327.2</ele>
        <time>2024-04-28T10:45:43Z</time>
      </trkpt>
      <trkpt lat="45.9411" lon="3.18918">
        <ele>327.2</ele>
        <time>2024-04-28T10:45:44Z</time>
      </trkpt>
      <trkpt lat="45.94113" lon="3.18914">
        <ele>327.2</ele>
        <time>2024-04-28T10:45:45Z</time>
      </trkpt>
      <trkpt lat="45.94117" lon="3.1891">
        <ele>327.2</ele>
        <time>2024-04-28T10:45:46Z</time>
      </trkpt>
      <trkpt lat="45.94122" lon="3.18917">
        <ele>327.2</ele>
        <time>2024-04-28T10:45:47Z</time>
      </trkpt>
      <trkpt lat="45.94122" lon="3.18917">
        <ele>327.2</ele>
        <time>2024-04-28T10:45:48Z</time>
      </trkpt>
      <trkpt lat="45.94122" lon="3.18927">
        <ele>327.2</ele>
        <time>2024-04-28T10:45:49Z</time>
      </trkpt>
      <trkpt lat="45.94122" lon="3.18933">
        <ele>327.2</ele>
        <time>2024-04-28T10:45:50Z</time>
      </trkpt>
      <trkpt lat="45.94122" lon="3.18939">
        <ele>327.2</ele>
        <time>2024-04-28T10:45:51Z</time>
      </trkpt>
      <trkpt lat="45.94123" lon="3.18947">
        <ele>327.2</ele>
        <time>2024-04-28T10:45:52Z</time>
      </trkpt>
      <trkpt lat="45.94123" lon="3.18954">
        <ele>327</ele>
        <time>2024-04-28T10:45:53Z</time>
      </trkpt>
      <trkpt lat="45.94123" lon="3.18962">
        <ele>327</ele>
        <time>2024-04-28T10:45:54Z</time>
      </trkpt>
      <trkpt lat="45.94123" lon="3.1897">
        <ele>327</ele>
        <time>2024-04-28T10:45:55Z</time>
      </trkpt>
      <trkpt lat="45.94123" lon="3.18979">
        <ele>327</ele>
        <time>2024-04-28T10:45:56Z</time>
      </trkpt>
      <trkpt lat="45.94123" lon="3.18987">
        <ele>327</ele>
        <time>2024-04-28T10:45:57Z</time>
      </trkpt>
      <trkpt lat="45.94123" lon="3.18996">
        <ele>326.8</ele>
        <time>2024-04-28T10:45:58Z</time>
      </trkpt>
      <trkpt lat="45.94124" lon="3.19004">
        <ele>326.8</ele>
        <time>2024-04-28T10:45:59Z</time>
      </trkpt>
      <trkpt lat="45.94124" lon="3.19013">
        <ele>326.8</ele>
        <time>2024-04-28T10:46:00Z</time>
      </trkpt>
      <trkpt lat="45.94124" lon="3.19022">
        <ele>326.6</ele>
        <time>2024-04-28T10:46:01Z</time>
      </trkpt>
      <trkpt lat="45.94124" lon="3.19031">
        <ele>326.6</ele>
        <time>2024-04-28T10:46:02Z</time>
      </trkpt>
      <trkpt lat="45.94124" lon="3.1904">
        <ele>326.4</ele>
        <time>2024-04-28T10:46:03Z</time>
      </trkpt>
      <trkpt lat="45.94124" lon="3.19049">
        <ele>326.4</ele>
        <time>2024-04-28T10:46:04Z</time>
      </trkpt>
      <trkpt lat="45.94123" lon="3.19057">
        <ele>326.2</ele>
        <time>2024-04-28T10:46:05Z</time>
      </trkpt>
      <trkpt lat="45.94121" lon="3.19066">
        <ele>326.2</ele>
        <time>2024-04-28T10:46:06Z</time>
      </trkpt>
      <trkpt lat="45.94119" lon="3.19076">
        <ele>326</ele>
        <time>2024-04-28T10:46:07Z</time>
      </trkpt>
      <trkpt lat="45.94117" lon="3.19085">
        <ele>326</ele>
        <time>2024-04-28T10:46:08Z</time>
      </trkpt>
      <trkpt lat="45.94115" lon="3.19095">
        <ele>325.8</ele>
        <time>2024-04-28T10:46:09Z</time>
      </trkpt>
      <trkpt lat="45.94113" lon="3.19104">
        <ele>325.6</ele>
        <time>2024-04-28T10:46:10Z</time>
      </trkpt>
      <trkpt lat="45.94111" lon="3.19114">
        <ele>325.6</ele>
        <time>2024-04-28T10:46:11Z</time>
      </trkpt>
      <trkpt lat="45.94109" lon="3.19123">
        <ele>325.6</ele>
        <time>2024-04-28T10:46:12Z</time>
      </trkpt>
      <trkpt lat="45.94107" lon="3.19132">
        <ele>325.4</ele>
        <time>2024-04-28T10:46:13Z</time>
      </trkpt>
      <trkpt lat="45.94105" lon="3.19142">
        <ele>325.4</ele>
        <time>2024-04-28T10:46:14Z</time>
      </trkpt>
      <trkpt lat="45.94103" lon="3.19152">
        <ele>325.2</ele>
        <time>2024-04-28T10:46:15Z</time>
      </trkpt>
      <trkpt lat="45.94101" lon="3.19161">
        <ele>325.2</ele>
        <time>2024-04-28T10:46:16Z</time>
      </trkpt>
      <trkpt lat="45.941" lon="3.19171">
        <ele>325.2</ele>
        <time>2024-04-28T10:46:17Z</time>
      </trkpt>
      <trkpt lat="45.94098" lon="3.19181">
        <ele>325</ele>
        <time>2024-04-28T10:46:18Z</time>
      </trkpt>
      <trkpt lat="45.94095" lon="3.1919">
        <ele>325</ele>
        <time>2024-04-28T10:46:19Z</time>
      </trkpt>
      <trkpt lat="45.94092" lon="3.19199">
        <ele>324.8</ele>
        <time>2024-04-28T10:46:20Z</time>
      </trkpt>
      <trkpt lat="45.94089" lon="3.19207">
        <ele>324.8</ele>
        <time>2024-04-28T10:46:21Z</time>
      </trkpt>
      <trkpt lat="45.94085" lon="3.19216">
        <ele>324.8</ele>
        <time>2024-04-28T10:46:22Z</time>
      </trkpt>
      <trkpt lat="45.94082" lon="3.19225">
        <ele>324.8</ele>
        <time>2024-04-28T10:46:23Z</time>
      </trkpt>
      <trkpt lat="45.94077" lon="3.19232">
        <ele>324.6</ele>
        <time>2024-04-28T10:46:24Z</time>
      </trkpt>
      <trkpt lat="45.94072" lon="3.1924">
        <ele>324.6</ele>
        <time>2024-04-28T10:46:25Z</time>
      </trkpt>
      <trkpt lat="45.94068" lon="3.19248">
        <ele>324.6</ele>
        <time>2024-04-28T10:46:26Z</time>
      </trkpt>
      <trkpt lat="45.94064" lon="3.19256">
        <ele>324.4</ele>
        <time>2024-04-28T10:46:27Z</time>
      </trkpt>
      <trkpt lat="45.94059" lon="3.19264">
        <ele>324.4</ele>
        <time>2024-04-28T10:46:28Z</time>
      </trkpt>
      <trkpt lat="45.94055" lon="3.19271">
        <ele>324.2</ele>
        <time>2024-04-28T10:46:29Z</time>
      </trkpt>
      <trkpt lat="45.9405" lon="3.19279">
        <ele>324.2</ele>
        <time>2024-04-28T10:46:30Z</time>
      </trkpt>
      <trkpt lat="45.94046" lon="3.19286">
        <ele>324.2</ele>
        <time>2024-04-28T10:46:31Z</time>
      </trkpt>
      <trkpt lat="45.94042" lon="3.19294">
        <ele>324.2</ele>
        <time>2024-04-28T10:46:32Z</time>
      </trkpt>
      <trkpt lat="45.94037" lon="3.19301">
        <ele>324</ele>
        <time>2024-04-28T10:46:33Z</time>
      </trkpt>
      <trkpt lat="45.94033" lon="3.19309">
        <ele>324</ele>
        <time>2024-04-28T10:46:34Z</time>
      </trkpt>
      <trkpt lat="45.94028" lon="3.19317">
        <ele>324</ele>
        <time>2024-04-28T10:46:35Z</time>
      </trkpt>
      <trkpt lat="45.94024" lon="3.19324">
        <ele>324</ele>
        <time>2024-04-28T10:46:36Z</time>
      </trkpt>
      <trkpt lat="45.9402" lon="3.19332">
        <ele>323.8</ele>
        <time>2024-04-28T10:46:37Z</time>
      </trkpt>
      <trkpt lat="45.94015" lon="3.1934">
        <ele>323.8</ele>
        <time>2024-04-28T10:46:38Z</time>
      </trkpt>
      <trkpt lat="45.94011" lon="3.19348">
        <ele>323.8</ele>
        <time>2024-04-28T10:46:39Z</time>
      </trkpt>
      <trkpt lat="45.94006" lon="3.19355">
        <ele>323.8</ele>
        <time>2024-04-28T10:46:40Z</time>
      </trkpt>
      <trkpt lat="45.94002" lon="3.19363">
        <ele>323.8</ele>
        <time>2024-04-28T10:46:41Z</time>
      </trkpt>
      <trkpt lat="45.94001" lon="3.19372">
        <ele>323.8</ele>
        <time>2024-04-28T10:46:42Z</time>
      </trkpt>
      <trkpt lat="45.93999" lon="3.19382">
        <ele>323.8</ele>
        <time>2024-04-28T10:46:43Z</time>
      </trkpt>
      <trkpt lat="45.93998" lon="3.19391">
        <ele>323.8</ele>
        <time>2024-04-28T10:46:44Z</time>
      </trkpt>
      <trkpt lat="45.93997" lon="3.194">
        <ele>323.8</ele>
        <time>2024-04-28T10:46:45Z</time>
      </trkpt>
      <trkpt lat="45.93995" lon="3.1941">
        <ele>323.8</ele>
        <time>2024-04-28T10:46:46Z</time>
      </trkpt>
      <trkpt lat="45.93994" lon="3.19419">
        <ele>323.8</ele>
        <time>2024-04-28T10:46:47Z</time>
      </trkpt>
      <trkpt lat="45.93993" lon="3.19428">
        <ele>323.8</ele>
        <time>2024-04-28T10:46:48Z</time>
      </trkpt>
      <trkpt lat="45.93992" lon="3.19437">
        <ele>323.8</ele>
        <time>2024-04-28T10:46:49Z</time>
      </trkpt>
      <trkpt lat="45.93991" lon="3.19445">
        <ele>323.8</ele>
        <time>2024-04-28T10:46:50Z</time>
      </trkpt>
      <trkpt lat="45.93989" lon="3.19454">
        <ele>323.8</ele>
        <time>2024-04-28T10:46:51Z</time>
      </trkpt>
      <trkpt lat="45.93989" lon="3.19464">
        <ele>323.8</ele>
        <time>2024-04-28T10:46:52Z</time>
      </trkpt>
      <trkpt lat="45.9399" lon="3.19472">
        <ele>323.8</ele>
        <time>2024-04-28T10:46:53Z</time>
      </trkpt>
      <trkpt lat="45.9399" lon="3.19481">
        <ele>323.8</ele>
        <time>2024-04-28T10:46:54Z</time>
      </trkpt>
      <trkpt lat="45.93991" lon="3.19489">
        <ele>323.8</ele>
        <time>2024-04-28T10:46:55Z</time>
      </trkpt>
      <trkpt lat="45.93991" lon="3.19498">
        <ele>323.8</ele>
        <time>2024-04-28T10:46:56Z</time>
      </trkpt>
      <trkpt lat="45.93992" lon="3.19506">
        <ele>323.8</ele>
        <time>2024-04-28T10:46:57Z</time>
      </trkpt>
      <trkpt lat="45.93992" lon="3.19514">
        <ele>323.8</ele>
        <time>2024-04-28T10:46:58Z</time>
      </trkpt>
      <trkpt lat="45.93993" lon="3.19522">
        <ele>323.8</ele>
        <time>2024-04-28T10:46:59Z</time>
      </trkpt>
      <trkpt lat="45.93993" lon="3.1953">
        <ele>323.6</ele>
        <time>2024-04-28T10:47:00Z</time>
      </trkpt>
      <trkpt lat="45.93993" lon="3.19537">
        <ele>323.8</ele>
        <time>2024-04-28T10:47:01Z</time>
      </trkpt>
      <trkpt lat="45.93994" lon="3.19545">
        <ele>324.2</ele>
        <time>2024-04-28T10:47:02Z</time>
      </trkpt>
      <trkpt lat="45.93994" lon="3.19552">
        <ele>324.2</ele>
        <time>2024-04-28T10:47:03Z</time>
      </trkpt>
      <trkpt lat="45.93995" lon="3.1956">
        <ele>324</ele>
        <time>2024-04-28T10:47:04Z</time>
      </trkpt>
      <trkpt lat="45.93995" lon="3.19567">
        <ele>324</ele>
        <time>2024-04-28T10:47:05Z</time>
      </trkpt>
      <trkpt lat="45.93995" lon="3.19574">
        <ele>324</ele>
        <time>2024-04-28T10:47:06Z</time>
      </trkpt>
      <trkpt lat="45.93994" lon="3.19581">
        <ele>324</ele>
        <time>2024-04-28T10:47:07Z</time>
      </trkpt>
      <trkpt lat="45.93993" lon="3.19588">
        <ele>324</ele>
        <time>2024-04-28T10:47:08Z</time>
      </trkpt>
      <trkpt lat="45.93992" lon="3.19595">
        <ele>324</ele>
        <time>2024-04-28T10:47:09Z</time>
      </trkpt>
      <trkpt lat="45.93991" lon="3.19603">
        <ele>324.2</ele>
        <time>2024-04-28T10:47:10Z</time>
      </trkpt>
      <trkpt lat="45.9399" lon="3.1961">
        <ele>324.2</ele>
        <time>2024-04-28T10:47:11Z</time>
      </trkpt>
      <trkpt lat="45.93989" lon="3.19617">
        <ele>324.2</ele>
        <time>2024-04-28T10:47:12Z</time>
      </trkpt>
      <trkpt lat="45.93988" lon="3.19624">
        <ele>324.2</ele>
        <time>2024-04-28T10:47:13Z</time>
      </trkpt>
      <trkpt lat="45.93987" lon="3.19631">
        <ele>324.2</ele>
        <time>2024-04-28T10:47:14Z</time>
      </trkpt>
      <trkpt lat="45.93986" lon="3.19638">
        <ele>324.2</ele>
        <time>2024-04-28T10:47:15Z</time>
      </trkpt>
      <trkpt lat="45.93985" lon="3.19645">
        <ele>324.4</ele>
        <time>2024-04-28T10:47:16Z</time>
      </trkpt>
      <trkpt lat="45.93984" lon="3.19652">
        <ele>324.4</ele>
        <time>2024-04-28T10:47:17Z</time>
      </trkpt>
      <trkpt lat="45.93983" lon="3.19659">
        <ele>324.4</ele>
        <time>2024-04-28T10:47:18Z</time>
      </trkpt>
      <trkpt lat="45.93982" lon="3.19666">
        <ele>324.4</ele>
        <time>2024-04-28T10:47:19Z</time>
      </trkpt>
      <trkpt lat="45.93981" lon="3.19674">
        <ele>324.4</ele>
        <time>2024-04-28T10:47:20Z</time>
      </trkpt>
      <trkpt lat="45.9398" lon="3.19681">
        <ele>324.4</ele>
        <time>2024-04-28T10:47:21Z</time>
      </trkpt>
      <trkpt lat="45.93979" lon="3.19689">
        <ele>324.4</ele>
        <time>2024-04-28T10:47:22Z</time>
      </trkpt>
      <trkpt lat="45.93978" lon="3.19696">
        <ele>324.4</ele>
        <time>2024-04-28T10:47:23Z</time>
      </trkpt>
      <trkpt lat="45.93977" lon="3.19704">
        <ele>324.4</ele>
        <time>2024-04-28T10:47:24Z</time>
      </trkpt>
      <trkpt lat="45.93976" lon="3.19712">
        <ele>324.4</ele>
        <time>2024-04-28T10:47:25Z</time>
      </trkpt>
      <trkpt lat="45.93975" lon="3.1972">
        <ele>324.4</ele>
        <time>2024-04-28T10:47:26Z</time>
      </trkpt>
      <trkpt lat="45.93974" lon="3.19728">
        <ele>324.4</ele>
        <time>2024-04-28T10:47:27Z</time>
      </trkpt>
      <trkpt lat="45.93972" lon="3.19737">
        <ele>324.4</ele>
        <time>2024-04-28T10:47:28Z</time>
      </trkpt>
      <trkpt lat="45.9397" lon="3.19746">
        <ele>324.4</ele>
        <time>2024-04-28T10:47:29Z</time>
      </trkpt>
      <trkpt lat="45.93969" lon="3.19754">
        <ele>324.4</ele>
        <time>2024-04-28T10:47:30Z</time>
      </trkpt>
      <trkpt lat="45.93967" lon="3.19763">
        <ele>324.4</ele>
        <time>2024-04-28T10:47:31Z</time>
      </trkpt>
      <trkpt lat="45.93965" lon="3.19772">
        <ele>324.4</ele>
        <time>2024-04-28T10:47:32Z</time>
      </trkpt>
      <trkpt lat="45.93963" lon="3.19781">
        <ele>324.4</ele>
        <time>2024-04-28T10:47:33Z</time>
      </trkpt>
      <trkpt lat="45.93961" lon="3.1979">
        <ele>324.4</ele>
        <time>2024-04-28T10:47:34Z</time>
      </trkpt>
      <trkpt lat="45.93959" lon="3.19799">
        <ele>324.4</ele>
        <time>2024-04-28T10:47:35Z</time>
      </trkpt>
      <trkpt lat="45.93957" lon="3.19809">
        <ele>324.4</ele>
        <time>2024-04-28T10:47:36Z</time>
      </trkpt>
      <trkpt lat="45.93955" lon="3.19818">
        <ele>324.4</ele>
        <time>2024-04-28T10:47:37Z</time>
      </trkpt>
      <trkpt lat="45.93954" lon="3.19827">
        <ele>324.4</ele>
        <time>2024-04-28T10:47:38Z</time>
      </trkpt>
      <trkpt lat="45.93952" lon="3.19837">
        <ele>324.6</ele>
        <time>2024-04-28T10:47:39Z</time>
      </trkpt>
      <trkpt lat="45.9395" lon="3.19847">
        <ele>324.4</ele>
        <time>2024-04-28T10:47:40Z</time>
      </trkpt>
      <trkpt lat="45.93948" lon="3.19856">
        <ele>324.4</ele>
        <time>2024-04-28T10:47:41Z</time>
      </trkpt>
      <trkpt lat="45.93946" lon="3.19865">
        <ele>324.4</ele>
        <time>2024-04-28T10:47:42Z</time>
      </trkpt>
      <trkpt lat="45.93944" lon="3.19875">
        <ele>324.4</ele>
        <time>2024-04-28T10:47:43Z</time>
      </trkpt>
      <trkpt lat="45.93942" lon="3.19884">
        <ele>324.2</ele>
        <time>2024-04-28T10:47:44Z</time>
      </trkpt>
      <trkpt lat="45.9394" lon="3.19893">
        <ele>324.4</ele>
        <time>2024-04-28T10:47:45Z</time>
      </trkpt>
      <trkpt lat="45.93938" lon="3.19902">
        <ele>324.2</ele>
        <time>2024-04-28T10:47:46Z</time>
      </trkpt>
      <trkpt lat="45.93937" lon="3.1991">
        <ele>324.2</ele>
        <time>2024-04-28T10:47:47Z</time>
      </trkpt>
      <trkpt lat="45.93935" lon="3.19919">
        <ele>324.2</ele>
        <time>2024-04-28T10:47:48Z</time>
      </trkpt>
      <trkpt lat="45.93934" lon="3.19928">
        <ele>324.2</ele>
        <time>2024-04-28T10:47:49Z</time>
      </trkpt>
      <trkpt lat="45.93932" lon="3.19937">
        <ele>324.2</ele>
        <time>2024-04-28T10:47:50Z</time>
      </trkpt>
      <trkpt lat="45.93931" lon="3.19946">
        <ele>324.2</ele>
        <time>2024-04-28T10:47:51Z</time>
      </trkpt>
      <trkpt lat="45.93929" lon="3.19956">
        <ele>324</ele>
        <time>2024-04-28T10:47:52Z</time>
      </trkpt>
      <trkpt lat="45.93927" lon="3.19965">
        <ele>324</ele>
        <time>2024-04-28T10:47:53Z</time>
      </trkpt>
      <trkpt lat="45.93926" lon="3.19974">
        <ele>324</ele>
        <time>2024-04-28T10:47:54Z</time>
      </trkpt>
      <trkpt lat="45.93924" lon="3.19983">
        <ele>324</ele>
        <time>2024-04-28T10:47:55Z</time>
      </trkpt>
      <trkpt lat="45.93923" lon="3.19991">
        <ele>323.8</ele>
        <time>2024-04-28T10:47:56Z</time>
      </trkpt>
      <trkpt lat="45.93921" lon="3.2">
        <ele>323.8</ele>
        <time>2024-04-28T10:47:57Z</time>
      </trkpt>
      <trkpt lat="45.9392" lon="3.20009">
        <ele>323.8</ele>
        <time>2024-04-28T10:47:58Z</time>
      </trkpt>
      <trkpt lat="45.93918" lon="3.20018">
        <ele>323.8</ele>
        <time>2024-04-28T10:47:59Z</time>
      </trkpt>
      <trkpt lat="45.93917" lon="3.20028">
        <ele>323.8</ele>
        <time>2024-04-28T10:48:00Z</time>
      </trkpt>
      <trkpt lat="45.93915" lon="3.20037">
        <ele>323.8</ele>
        <time>2024-04-28T10:48:01Z</time>
      </trkpt>
      <trkpt lat="45.93914" lon="3.20046">
        <ele>323.6</ele>
        <time>2024-04-28T10:48:02Z</time>
      </trkpt>
      <trkpt lat="45.93912" lon="3.20055">
        <ele>323.6</ele>
        <time>2024-04-28T10:48:03Z</time>
      </trkpt>
      <trkpt lat="45.9391" lon="3.20064">
        <ele>323.6</ele>
        <time>2024-04-28T10:48:04Z</time>
      </trkpt>
      <trkpt lat="45.93909" lon="3.20073">
        <ele>323.4</ele>
        <time>2024-04-28T10:48:05Z</time>
      </trkpt>
      <trkpt lat="45.93907" lon="3.20082">
        <ele>323.4</ele>
        <time>2024-04-28T10:48:06Z</time>
      </trkpt>
      <trkpt lat="45.93905" lon="3.20091">
        <ele>323.4</ele>
        <time>2024-04-28T10:48:07Z</time>
      </trkpt>
      <trkpt lat="45.93904" lon="3.201">
        <ele>323.4</ele>
        <time>2024-04-28T10:48:08Z</time>
      </trkpt>
      <trkpt lat="45.93902" lon="3.20109">
        <ele>323.4</ele>
        <time>2024-04-28T10:48:09Z</time>
      </trkpt>
      <trkpt lat="45.939" lon="3.20117">
        <ele>323.4</ele>
        <time>2024-04-28T10:48:10Z</time>
      </trkpt>
      <trkpt lat="45.93898" lon="3.20126">
        <ele>323.4</ele>
        <time>2024-04-28T10:48:11Z</time>
      </trkpt>
      <trkpt lat="45.93896" lon="3.20136">
        <ele>323.2</ele>
        <time>2024-04-28T10:48:12Z</time>
      </trkpt>
      <trkpt lat="45.93892" lon="3.20143">
        <ele>323.2</ele>
        <time>2024-04-28T10:48:13Z</time>
      </trkpt>
      <trkpt lat="45.93888" lon="3.20151">
        <ele>323.2</ele>
        <time>2024-04-28T10:48:14Z</time>
      </trkpt>
      <trkpt lat="45.93885" lon="3.20159">
        <ele>323.2</ele>
        <time>2024-04-28T10:48:15Z</time>
      </trkpt>
      <trkpt lat="45.93881" lon="3.20167">
        <ele>323.2</ele>
        <time>2024-04-28T10:48:16Z</time>
      </trkpt>
      <trkpt lat="45.93877" lon="3.20175">
        <ele>323.2</ele>
        <time>2024-04-28T10:48:17Z</time>
      </trkpt>
      <trkpt lat="45.93873" lon="3.20183">
        <ele>323</ele>
        <time>2024-04-28T10:48:18Z</time>
      </trkpt>
      <trkpt lat="45.9387" lon="3.20192">
        <ele>323</ele>
        <time>2024-04-28T10:48:19Z</time>
      </trkpt>
      <trkpt lat="45.93866" lon="3.202">
        <ele>323</ele>
        <time>2024-04-28T10:48:20Z</time>
      </trkpt>
      <trkpt lat="45.93861" lon="3.20207">
        <ele>322.8</ele>
        <time>2024-04-28T10:48:21Z</time>
      </trkpt>
      <trkpt lat="45.93857" lon="3.20214">
        <ele>322.8</ele>
        <time>2024-04-28T10:48:22Z</time>
      </trkpt>
      <trkpt lat="45.93852" lon="3.20222">
        <ele>322.8</ele>
        <time>2024-04-28T10:48:23Z</time>
      </trkpt>
      <trkpt lat="45.93848" lon="3.20229">
        <ele>322.8</ele>
        <time>2024-04-28T10:48:24Z</time>
      </trkpt>
      <trkpt lat="45.93844" lon="3.20237">
        <ele>322.6</ele>
        <time>2024-04-28T10:48:25Z</time>
      </trkpt>
      <trkpt lat="45.93839" lon="3.20244">
        <ele>322.6</ele>
        <time>2024-04-28T10:48:26Z</time>
      </trkpt>
      <trkpt lat="45.93835" lon="3.20252">
        <ele>322.6</ele>
        <time>2024-04-28T10:48:27Z</time>
      </trkpt>
      <trkpt lat="45.9383" lon="3.2026">
        <ele>322.6</ele>
        <time>2024-04-28T10:48:28Z</time>
      </trkpt>
      <trkpt lat="45.93826" lon="3.20267">
        <ele>322.6</ele>
        <time>2024-04-28T10:48:29Z</time>
      </trkpt>
      <trkpt lat="45.93821" lon="3.20275">
        <ele>322.6</ele>
        <time>2024-04-28T10:48:30Z</time>
      </trkpt>
      <trkpt lat="45.93817" lon="3.20283">
        <ele>322.4</ele>
        <time>2024-04-28T10:48:31Z</time>
      </trkpt>
      <trkpt lat="45.93812" lon="3.2029">
        <ele>322.4</ele>
        <time>2024-04-28T10:48:32Z</time>
      </trkpt>
      <trkpt lat="45.93808" lon="3.20298">
        <ele>322.4</ele>
        <time>2024-04-28T10:48:33Z</time>
      </trkpt>
      <trkpt lat="45.93804" lon="3.20305">
        <ele>322.2</ele>
        <time>2024-04-28T10:48:34Z</time>
      </trkpt>
      <trkpt lat="45.93799" lon="3.20312">
        <ele>322.2</ele>
        <time>2024-04-28T10:48:35Z</time>
      </trkpt>
      <trkpt lat="45.93795" lon="3.2032">
        <ele>322.2</ele>
        <time>2024-04-28T10:48:36Z</time>
      </trkpt>
      <trkpt lat="45.93791" lon="3.20328">
        <ele>322.2</ele>
        <time>2024-04-28T10:48:37Z</time>
      </trkpt>
      <trkpt lat="45.93787" lon="3.20336">
        <ele>322.2</ele>
        <time>2024-04-28T10:48:38Z</time>
      </trkpt>
      <trkpt lat="45.93783" lon="3.20344">
        <ele>322.2</ele>
        <time>2024-04-28T10:48:39Z</time>
      </trkpt>
      <trkpt lat="45.93779" lon="3.20351">
        <ele>322.2</ele>
        <time>2024-04-28T10:48:40Z</time>
      </trkpt>
      <trkpt lat="45.93775" lon="3.20359">
        <ele>322.2</ele>
        <time>2024-04-28T10:48:41Z</time>
      </trkpt>
      <trkpt lat="45.93771" lon="3.20367">
        <ele>322.2</ele>
        <time>2024-04-28T10:48:42Z</time>
      </trkpt>
      <trkpt lat="45.93767" lon="3.20374">
        <ele>322</ele>
        <time>2024-04-28T10:48:43Z</time>
      </trkpt>
      <trkpt lat="45.93763" lon="3.20382">
        <ele>322</ele>
        <time>2024-04-28T10:48:44Z</time>
      </trkpt>
      <trkpt lat="45.93759" lon="3.2039">
        <ele>322</ele>
        <time>2024-04-28T10:48:45Z</time>
      </trkpt>
      <trkpt lat="45.93756" lon="3.20398">
        <ele>322</ele>
        <time>2024-04-28T10:48:46Z</time>
      </trkpt>
      <trkpt lat="45.93754" lon="3.20407">
        <ele>322</ele>
        <time>2024-04-28T10:48:47Z</time>
      </trkpt>
      <trkpt lat="45.93751" lon="3.20416">
        <ele>322</ele>
        <time>2024-04-28T10:48:48Z</time>
      </trkpt>
      <trkpt lat="45.93748" lon="3.20424">
        <ele>322</ele>
        <time>2024-04-28T10:48:49Z</time>
      </trkpt>
      <trkpt lat="45.93746" lon="3.20433">
        <ele>321.8</ele>
        <time>2024-04-28T10:48:50Z</time>
      </trkpt>
      <trkpt lat="45.93743" lon="3.20441">
        <ele>321.8</ele>
        <time>2024-04-28T10:48:51Z</time>
      </trkpt>
      <trkpt lat="45.9374" lon="3.2045">
        <ele>321.8</ele>
        <time>2024-04-28T10:48:52Z</time>
      </trkpt>
      <trkpt lat="45.93738" lon="3.20458">
        <ele>321.8</ele>
        <time>2024-04-28T10:48:53Z</time>
      </trkpt>
      <trkpt lat="45.93735" lon="3.20467">
        <ele>321.8</ele>
        <time>2024-04-28T10:48:54Z</time>
      </trkpt>
      <trkpt lat="45.93732" lon="3.20476">
        <ele>321.8</ele>
        <time>2024-04-28T10:48:55Z</time>
      </trkpt>
      <trkpt lat="45.93729" lon="3.20485">
        <ele>321.8</ele>
        <time>2024-04-28T10:48:56Z</time>
      </trkpt>
      <trkpt lat="45.93728" lon="3.20495">
        <ele>321.6</ele>
        <time>2024-04-28T10:48:57Z</time>
      </trkpt>
      <trkpt lat="45.93727" lon="3.20504">
        <ele>321.6</ele>
        <time>2024-04-28T10:48:58Z</time>
      </trkpt>
      <trkpt lat="45.93726" lon="3.20513">
        <ele>321.6</ele>
        <time>2024-04-28T10:48:59Z</time>
      </trkpt>
      <trkpt lat="45.93724" lon="3.20521">
        <ele>321.6</ele>
        <time>2024-04-28T10:49:00Z</time>
      </trkpt>
      <trkpt lat="45.93723" lon="3.2053">
        <ele>321.4</ele>
        <time>2024-04-28T10:49:01Z</time>
      </trkpt>
      <trkpt lat="45.93722" lon="3.20539">
        <ele>321.4</ele>
        <time>2024-04-28T10:49:02Z</time>
      </trkpt>
      <trkpt lat="45.93721" lon="3.20549">
        <ele>321.4</ele>
        <time>2024-04-28T10:49:03Z</time>
      </trkpt>
      <trkpt lat="45.9372" lon="3.20557">
        <ele>321.4</ele>
        <time>2024-04-28T10:49:04Z</time>
      </trkpt>
      <trkpt lat="45.93719" lon="3.20567">
        <ele>321.4</ele>
        <time>2024-04-28T10:49:05Z</time>
      </trkpt>
      <trkpt lat="45.93719" lon="3.20577">
        <ele>321.4</ele>
        <time>2024-04-28T10:49:06Z</time>
      </trkpt>
      <trkpt lat="45.9372" lon="3.20586">
        <ele>321.4</ele>
        <time>2024-04-28T10:49:07Z</time>
      </trkpt>
      <trkpt lat="45.93721" lon="3.20595">
        <ele>321.2</ele>
        <time>2024-04-28T10:49:08Z</time>
      </trkpt>
      <trkpt lat="45.93722" lon="3.20605">
        <ele>321.2</ele>
        <time>2024-04-28T10:49:09Z</time>
      </trkpt>
      <trkpt lat="45.93723" lon="3.20614">
        <ele>321.2</ele>
        <time>2024-04-28T10:49:10Z</time>
      </trkpt>
      <trkpt lat="45.93723" lon="3.20624">
        <ele>321.2</ele>
        <time>2024-04-28T10:49:11Z</time>
      </trkpt>
      <trkpt lat="45.93724" lon="3.20633">
        <ele>321.2</ele>
        <time>2024-04-28T10:49:12Z</time>
      </trkpt>
      <trkpt lat="45.93725" lon="3.20642">
        <ele>321.2</ele>
        <time>2024-04-28T10:49:13Z</time>
      </trkpt>
      <trkpt lat="45.93726" lon="3.20652">
        <ele>321.2</ele>
        <time>2024-04-28T10:49:14Z</time>
      </trkpt>
      <trkpt lat="45.93728" lon="3.20661">
        <ele>321.2</ele>
        <time>2024-04-28T10:49:15Z</time>
      </trkpt>
      <trkpt lat="45.9373" lon="3.2067">
        <ele>321</ele>
        <time>2024-04-28T10:49:16Z</time>
      </trkpt>
      <trkpt lat="45.93731" lon="3.20679">
        <ele>321</ele>
        <time>2024-04-28T10:49:17Z</time>
      </trkpt>
      <trkpt lat="45.93733" lon="3.20688">
        <ele>321</ele>
        <time>2024-04-28T10:49:18Z</time>
      </trkpt>
      <trkpt lat="45.93735" lon="3.20697">
        <ele>321</ele>
        <time>2024-04-28T10:49:19Z</time>
      </trkpt>
      <trkpt lat="45.93736" lon="3.20706">
        <ele>320.8</ele>
        <time>2024-04-28T10:49:20Z</time>
      </trkpt>
      <trkpt lat="45.93738" lon="3.20715">
        <ele>320.8</ele>
        <time>2024-04-28T10:49:21Z</time>
      </trkpt>
      <trkpt lat="45.9374" lon="3.20724">
        <ele>320.8</ele>
        <time>2024-04-28T10:49:22Z</time>
      </trkpt>
      <trkpt lat="45.93741" lon="3.20733">
        <ele>320.6</ele>
        <time>2024-04-28T10:49:23Z</time>
      </trkpt>
      <trkpt lat="45.93743" lon="3.20742">
        <ele>320.6</ele>
        <time>2024-04-28T10:49:24Z</time>
      </trkpt>
      <trkpt lat="45.93745" lon="3.20751">
        <ele>320.6</ele>
        <time>2024-04-28T10:49:25Z</time>
      </trkpt>
      <trkpt lat="45.93746" lon="3.2076">
        <ele>320.6</ele>
        <time>2024-04-28T10:49:26Z</time>
      </trkpt>
      <trkpt lat="45.93748" lon="3.20769">
        <ele>320.6</ele>
        <time>2024-04-28T10:49:27Z</time>
      </trkpt>
      <trkpt lat="45.9375" lon="3.20778">
        <ele>320.6</ele>
        <time>2024-04-28T10:49:28Z</time>
      </trkpt>
      <trkpt lat="45.93751" lon="3.20787">
        <ele>320.6</ele>
        <time>2024-04-28T10:49:29Z</time>
      </trkpt>
      <trkpt lat="45.93753" lon="3.20796">
        <ele>320.6</ele>
        <time>2024-04-28T10:49:30Z</time>
      </trkpt>
      <trkpt lat="45.93755" lon="3.20806">
        <ele>320.4</ele>
        <time>2024-04-28T10:49:31Z</time>
      </trkpt>
      <trkpt lat="45.93757" lon="3.20815">
        <ele>320.4</ele>
        <time>2024-04-28T10:49:32Z</time>
      </trkpt>
      <trkpt lat="45.93758" lon="3.20824">
        <ele>320.4</ele>
        <time>2024-04-28T10:49:33Z</time>
      </trkpt>
      <trkpt lat="45.9376" lon="3.20834">
        <ele>320.4</ele>
        <time>2024-04-28T10:49:34Z</time>
      </trkpt>
      <trkpt lat="45.93762" lon="3.20843">
        <ele>320.4</ele>
        <time>2024-04-28T10:49:35Z</time>
      </trkpt>
      <trkpt lat="45.93763" lon="3.20852">
        <ele>320.4</ele>
        <time>2024-04-28T10:49:36Z</time>
      </trkpt>
      <trkpt lat="45.93765" lon="3.20861">
        <ele>320.4</ele>
        <time>2024-04-28T10:49:37Z</time>
      </trkpt>
      <trkpt lat="45.93767" lon="3.2087">
        <ele>320.4</ele>
        <time>2024-04-28T10:49:38Z</time>
      </trkpt>
      <trkpt lat="45.93768" lon="3.20879">
        <ele>320.2</ele>
        <time>2024-04-28T10:49:39Z</time>
      </trkpt>
      <trkpt lat="45.9377" lon="3.20888">
        <ele>320.4</ele>
        <time>2024-04-28T10:49:40Z</time>
      </trkpt>
      <trkpt lat="45.93772" lon="3.20897">
        <ele>320.2</ele>
        <time>2024-04-28T10:49:41Z</time>
      </trkpt>
      <trkpt lat="45.93773" lon="3.20906">
        <ele>320.4</ele>
        <time>2024-04-28T10:49:42Z</time>
      </trkpt>
      <trkpt lat="45.93775" lon="3.20915">
        <ele>320.4</ele>
        <time>2024-04-28T10:49:43Z</time>
      </trkpt>
      <trkpt lat="45.93777" lon="3.20925">
        <ele>320.2</ele>
        <time>2024-04-28T10:49:44Z</time>
      </trkpt>
      <trkpt lat="45.93779" lon="3.20934">
        <ele>320.2</ele>
        <time>2024-04-28T10:49:45Z</time>
      </trkpt>
      <trkpt lat="45.9378" lon="3.20943">
        <ele>320.2</ele>
        <time>2024-04-28T10:49:46Z</time>
      </trkpt>
      <trkpt lat="45.93782" lon="3.20952">
        <ele>320.2</ele>
        <time>2024-04-28T10:49:47Z</time>
      </trkpt>
      <trkpt lat="45.93784" lon="3.20962">
        <ele>320</ele>
        <time>2024-04-28T10:49:48Z</time>
      </trkpt>
      <trkpt lat="45.93785" lon="3.20971">
        <ele>320</ele>
        <time>2024-04-28T10:49:49Z</time>
      </trkpt>
      <trkpt lat="45.93787" lon="3.2098">
        <ele>320</ele>
        <time>2024-04-28T10:49:50Z</time>
      </trkpt>
      <trkpt lat="45.93789" lon="3.20989">
        <ele>320</ele>
        <time>2024-04-28T10:49:51Z</time>
      </trkpt>
      <trkpt lat="45.93791" lon="3.20999">
        <ele>319.8</ele>
        <time>2024-04-28T10:49:52Z</time>
      </trkpt>
      <trkpt lat="45.93792" lon="3.21008">
        <ele>319.8</ele>
        <time>2024-04-28T10:49:53Z</time>
      </trkpt>
      <trkpt lat="45.93794" lon="3.21017">
        <ele>319.8</ele>
        <time>2024-04-28T10:49:54Z</time>
      </trkpt>
      <trkpt lat="45.93796" lon="3.21026">
        <ele>319.8</ele>
        <time>2024-04-28T10:49:55Z</time>
      </trkpt>
      <trkpt lat="45.93797" lon="3.21035">
        <ele>319.8</ele>
        <time>2024-04-28T10:49:56Z</time>
      </trkpt>
      <trkpt lat="45.93799" lon="3.21044">
        <ele>319.8</ele>
        <time>2024-04-28T10:49:57Z</time>
      </trkpt>
      <trkpt lat="45.93801" lon="3.21053">
        <ele>319.8</ele>
        <time>2024-04-28T10:49:58Z</time>
      </trkpt>
      <trkpt lat="45.93802" lon="3.21062">
        <ele>319.8</ele>
        <time>2024-04-28T10:49:59Z</time>
      </trkpt>
      <trkpt lat="45.93804" lon="3.21072">
        <ele>319.8</ele>
        <time>2024-04-28T10:50:00Z</time>
      </trkpt>
      <trkpt lat="45.93806" lon="3.21081">
        <ele>319.8</ele>
        <time>2024-04-28T10:50:01Z</time>
      </trkpt>
      <trkpt lat="45.93807" lon="3.2109">
        <ele>319.8</ele>
        <time>2024-04-28T10:50:02Z</time>
      </trkpt>
      <trkpt lat="45.93809" lon="3.21099">
        <ele>319.8</ele>
        <time>2024-04-28T10:50:03Z</time>
      </trkpt>
      <trkpt lat="45.9381" lon="3.21108">
        <ele>319.8</ele>
        <time>2024-04-28T10:50:04Z</time>
      </trkpt>
      <trkpt lat="45.93812" lon="3.21117">
        <ele>319.8</ele>
        <time>2024-04-28T10:50:05Z</time>
      </trkpt>
      <trkpt lat="45.93813" lon="3.21127">
        <ele>319.8</ele>
        <time>2024-04-28T10:50:06Z</time>
      </trkpt>
      <trkpt lat="45.93814" lon="3.21136">
        <ele>319.8</ele>
        <time>2024-04-28T10:50:07Z</time>
      </trkpt>
      <trkpt lat="45.93816" lon="3.21145">
        <ele>319.6</ele>
        <time>2024-04-28T10:50:08Z</time>
      </trkpt>
      <trkpt lat="45.93817" lon="3.21154">
        <ele>319.6</ele>
        <time>2024-04-28T10:50:09Z</time>
      </trkpt>
      <trkpt lat="45.93819" lon="3.21164">
        <ele>319.6</ele>
        <time>2024-04-28T10:50:10Z</time>
      </trkpt>
      <trkpt lat="45.9382" lon="3.21173">
        <ele>319.6</ele>
        <time>2024-04-28T10:50:11Z</time>
      </trkpt>
      <trkpt lat="45.93821" lon="3.21182">
        <ele>319.6</ele>
        <time>2024-04-28T10:50:12Z</time>
      </trkpt>
      <trkpt lat="45.93823" lon="3.21192">
        <ele>319.6</ele>
        <time>2024-04-28T10:50:13Z</time>
      </trkpt>
      <trkpt lat="45.93824" lon="3.21201">
        <ele>319.6</ele>
        <time>2024-04-28T10:50:14Z</time>
      </trkpt>
      <trkpt lat="45.93826" lon="3.2121">
        <ele>319.6</ele>
        <time>2024-04-28T10:50:15Z</time>
      </trkpt>
      <trkpt lat="45.93827" lon="3.2122">
        <ele>319.4</ele>
        <time>2024-04-28T10:50:16Z</time>
      </trkpt>
      <trkpt lat="45.93828" lon="3.21229">
        <ele>319.6</ele>
        <time>2024-04-28T10:50:17Z</time>
      </trkpt>
      <trkpt lat="45.9383" lon="3.21237">
        <ele>319.4</ele>
        <time>2024-04-28T10:50:18Z</time>
      </trkpt>
      <trkpt lat="45.93831" lon="3.21247">
        <ele>319.4</ele>
        <time>2024-04-28T10:50:19Z</time>
      </trkpt>
      <trkpt lat="45.93832" lon="3.21256">
        <ele>319.4</ele>
        <time>2024-04-28T10:50:20Z</time>
      </trkpt>
      <trkpt lat="45.93834" lon="3.21265">
        <ele>319.4</ele>
        <time>2024-04-28T10:50:21Z</time>
      </trkpt>
      <trkpt lat="45.93835" lon="3.21274">
        <ele>319.4</ele>
        <time>2024-04-28T10:50:22Z</time>
      </trkpt>
      <trkpt lat="45.93837" lon="3.21284">
        <ele>319.2</ele>
        <time>2024-04-28T10:50:23Z</time>
      </trkpt>
      <trkpt lat="45.93838" lon="3.21293">
        <ele>319.2</ele>
        <time>2024-04-28T10:50:24Z</time>
      </trkpt>
      <trkpt lat="45.93839" lon="3.21303">
        <ele>319.2</ele>
        <time>2024-04-28T10:50:25Z</time>
      </trkpt>
      <trkpt lat="45.9384" lon="3.21312">
        <ele>319.2</ele>
        <time>2024-04-28T10:50:26Z</time>
      </trkpt>
      <trkpt lat="45.93842" lon="3.21322">
        <ele>319.2</ele>
        <time>2024-04-28T10:50:27Z</time>
      </trkpt>
      <trkpt lat="45.93843" lon="3.21332">
        <ele>319.2</ele>
        <time>2024-04-28T10:50:28Z</time>
      </trkpt>
      <trkpt lat="45.93842" lon="3.21342">
        <ele>319</ele>
        <time>2024-04-28T10:50:29Z</time>
      </trkpt>
      <trkpt lat="45.93842" lon="3.21351">
        <ele>319</ele>
        <time>2024-04-28T10:50:30Z</time>
      </trkpt>
      <trkpt lat="45.93842" lon="3.21361">
        <ele>319</ele>
        <time>2024-04-28T10:50:31Z</time>
      </trkpt>
      <trkpt lat="45.93841" lon="3.21371">
        <ele>319</ele>
        <time>2024-04-28T10:50:32Z</time>
      </trkpt>
      <trkpt lat="45.9384" lon="3.21381">
        <ele>319</ele>
        <time>2024-04-28T10:50:33Z</time>
      </trkpt>
      <trkpt lat="45.93838" lon="3.2139">
        <ele>319</ele>
        <time>2024-04-28T10:50:34Z</time>
      </trkpt>
      <trkpt lat="45.93835" lon="3.21399">
        <ele>319</ele>
        <time>2024-04-28T10:50:35Z</time>
      </trkpt>
      <trkpt lat="45.93833" lon="3.21408">
        <ele>318.8</ele>
        <time>2024-04-28T10:50:36Z</time>
      </trkpt>
      <trkpt lat="45.9383" lon="3.21417">
        <ele>318.8</ele>
        <time>2024-04-28T10:50:37Z</time>
      </trkpt>
      <trkpt lat="45.93828" lon="3.21426">
        <ele>318.8</ele>
        <time>2024-04-28T10:50:38Z</time>
      </trkpt>
      <trkpt lat="45.93825" lon="3.21435">
        <ele>318.6</ele>
        <time>2024-04-28T10:50:39Z</time>
      </trkpt>
      <trkpt lat="45.93823" lon="3.21444">
        <ele>318.6</ele>
        <time>2024-04-28T10:50:40Z</time>
      </trkpt>
      <trkpt lat="45.9382" lon="3.21454">
        <ele>318.6</ele>
        <time>2024-04-28T10:50:41Z</time>
      </trkpt>
      <trkpt lat="45.93818" lon="3.21463">
        <ele>318.4</ele>
        <time>2024-04-28T10:50:42Z</time>
      </trkpt>
      <trkpt lat="45.93816" lon="3.21472">
        <ele>318.4</ele>
        <time>2024-04-28T10:50:43Z</time>
      </trkpt>
      <trkpt lat="45.93814" lon="3.21481">
        <ele>318.4</ele>
        <time>2024-04-28T10:50:44Z</time>
      </trkpt>
      <trkpt lat="45.93812" lon="3.21491">
        <ele>318.2</ele>
        <time>2024-04-28T10:50:45Z</time>
      </trkpt>
      <trkpt lat="45.9381" lon="3.215">
        <ele>318.2</ele>
        <time>2024-04-28T10:50:46Z</time>
      </trkpt>
      <trkpt lat="45.93808" lon="3.21509">
        <ele>318.2</ele>
        <time>2024-04-28T10:50:47Z</time>
      </trkpt>
      <trkpt lat="45.93806" lon="3.21519">
        <ele>318.2</ele>
        <time>2024-04-28T10:50:48Z</time>
      </trkpt>
      <trkpt lat="45.93804" lon="3.21528">
        <ele>318.2</ele>
        <time>2024-04-28T10:50:49Z</time>
      </trkpt>
      <trkpt lat="45.93802" lon="3.21537">
        <ele>318.2</ele>
        <time>2024-04-28T10:50:50Z</time>
      </trkpt>
      <trkpt lat="45.938" lon="3.21546">
        <ele>318.2</ele>
        <time>2024-04-28T10:50:51Z</time>
      </trkpt>
      <trkpt lat="45.93798" lon="3.21555">
        <ele>318.2</ele>
        <time>2024-04-28T10:50:52Z</time>
      </trkpt>
      <trkpt lat="45.93796" lon="3.21564">
        <ele>318</ele>
        <time>2024-04-28T10:50:53Z</time>
      </trkpt>
      <trkpt lat="45.93794" lon="3.21573">
        <ele>318</ele>
        <time>2024-04-28T10:50:54Z</time>
      </trkpt>
      <trkpt lat="45.93792" lon="3.21582">
        <ele>318</ele>
        <time>2024-04-28T10:50:55Z</time>
      </trkpt>
      <trkpt lat="45.9379" lon="3.2159">
        <ele>318</ele>
        <time>2024-04-28T10:50:56Z</time>
      </trkpt>
      <trkpt lat="45.93789" lon="3.21599">
        <ele>318</ele>
        <time>2024-04-28T10:50:57Z</time>
      </trkpt>
      <trkpt lat="45.93787" lon="3.21608">
        <ele>318</ele>
        <time>2024-04-28T10:50:58Z</time>
      </trkpt>
      <trkpt lat="45.93785" lon="3.21616">
        <ele>318</ele>
        <time>2024-04-28T10:50:59Z</time>
      </trkpt>
      <trkpt lat="45.93783" lon="3.21625">
        <ele>318</ele>
        <time>2024-04-28T10:51:00Z</time>
      </trkpt>
      <trkpt lat="45.93783" lon="3.21635">
        <ele>318</ele>
        <time>2024-04-28T10:51:01Z</time>
      </trkpt>
      <trkpt lat="45.93783" lon="3.21644">
        <ele>318</ele>
        <time>2024-04-28T10:51:02Z</time>
      </trkpt>
      <trkpt lat="45.93783" lon="3.21653">
        <ele>317.8</ele>
        <time>2024-04-28T10:51:03Z</time>
      </trkpt>
      <trkpt lat="45.93784" lon="3.21662">
        <ele>317.8</ele>
        <time>2024-04-28T10:51:04Z</time>
      </trkpt>
      <trkpt lat="45.93785" lon="3.21671">
        <ele>317.8</ele>
        <time>2024-04-28T10:51:05Z</time>
      </trkpt>
      <trkpt lat="45.93787" lon="3.2168">
        <ele>317.8</ele>
        <time>2024-04-28T10:51:06Z</time>
      </trkpt>
      <trkpt lat="45.93789" lon="3.21689">
        <ele>317.8</ele>
        <time>2024-04-28T10:51:07Z</time>
      </trkpt>
      <trkpt lat="45.9379" lon="3.21698">
        <ele>317.8</ele>
        <time>2024-04-28T10:51:08Z</time>
      </trkpt>
      <trkpt lat="45.93792" lon="3.21707">
        <ele>317.8</ele>
        <time>2024-04-28T10:51:09Z</time>
      </trkpt>
      <trkpt lat="45.93795" lon="3.21717">
        <ele>317.8</ele>
        <time>2024-04-28T10:51:10Z</time>
      </trkpt>
      <trkpt lat="45.938" lon="3.21723">
        <ele>317.6</ele>
        <time>2024-04-28T10:51:11Z</time>
      </trkpt>
      <trkpt lat="45.93805" lon="3.21729">
        <ele>317.6</ele>
        <time>2024-04-28T10:51:12Z</time>
      </trkpt>
      <trkpt lat="45.9381" lon="3.21736">
        <ele>317.6</ele>
        <time>2024-04-28T10:51:13Z</time>
      </trkpt>
      <trkpt lat="45.93815" lon="3.21742">
        <ele>317.6</ele>
        <time>2024-04-28T10:51:14Z</time>
      </trkpt>
      <trkpt lat="45.9382" lon="3.21748">
        <ele>317.6</ele>
        <time>2024-04-28T10:51:15Z</time>
      </trkpt>
      <trkpt lat="45.93824" lon="3.21755">
        <ele>317.6</ele>
        <time>2024-04-28T10:51:16Z</time>
      </trkpt>
      <trkpt lat="45.93829" lon="3.21761">
        <ele>317.6</ele>
        <time>2024-04-28T10:51:17Z</time>
      </trkpt>
      <trkpt lat="45.93834" lon="3.21767">
        <ele>317.6</ele>
        <time>2024-04-28T10:51:18Z</time>
      </trkpt>
      <trkpt lat="45.93838" lon="3.21773">
        <ele>317.4</ele>
        <time>2024-04-28T10:51:19Z</time>
      </trkpt>
      <trkpt lat="45.93843" lon="3.21779">
        <ele>317.4</ele>
        <time>2024-04-28T10:51:20Z</time>
      </trkpt>
      <trkpt lat="45.93848" lon="3.21786">
        <ele>317.2</ele>
        <time>2024-04-28T10:51:21Z</time>
      </trkpt>
      <trkpt lat="45.93853" lon="3.21792">
        <ele>317.2</ele>
        <time>2024-04-28T10:51:22Z</time>
      </trkpt>
      <trkpt lat="45.93858" lon="3.21797">
        <ele>317.2</ele>
        <time>2024-04-28T10:51:23Z</time>
      </trkpt>
      <trkpt lat="45.93863" lon="3.21803">
        <ele>317.2</ele>
        <time>2024-04-28T10:51:24Z</time>
      </trkpt>
      <trkpt lat="45.93867" lon="3.21809">
        <ele>317.2</ele>
        <time>2024-04-28T10:51:25Z</time>
      </trkpt>
      <trkpt lat="45.93872" lon="3.21815">
        <ele>317.2</ele>
        <time>2024-04-28T10:51:26Z</time>
      </trkpt>
      <trkpt lat="45.93876" lon="3.2182">
        <ele>317.2</ele>
        <time>2024-04-28T10:51:27Z</time>
      </trkpt>
      <trkpt lat="45.93881" lon="3.21829">
        <ele>317.2</ele>
        <time>2024-04-28T10:51:28Z</time>
      </trkpt>
      <trkpt lat="45.93881" lon="3.21829">
        <ele>317.2</ele>
        <time>2024-04-28T10:51:29Z</time>
      </trkpt>
      <trkpt lat="45.93884" lon="3.21845">
        <ele>317.2</ele>
        <time>2024-04-28T10:51:30Z</time>
      </trkpt>
      <trkpt lat="45.93886" lon="3.21853">
        <ele>317.2</ele>
        <time>2024-04-28T10:51:31Z</time>
      </trkpt>
      <trkpt lat="45.93888" lon="3.21861">
        <ele>317.2</ele>
        <time>2024-04-28T10:51:32Z</time>
      </trkpt>
      <trkpt lat="45.93889" lon="3.21869">
        <ele>317</ele>
        <time>2024-04-28T10:51:33Z</time>
      </trkpt>
      <trkpt lat="45.93891" lon="3.21876">
        <ele>317</ele>
        <time>2024-04-28T10:51:34Z</time>
      </trkpt>
      <trkpt lat="45.93893" lon="3.21884">
        <ele>317</ele>
        <time>2024-04-28T10:51:35Z</time>
      </trkpt>
      <trkpt lat="45.93894" lon="3.21891">
        <ele>317</ele>
        <time>2024-04-28T10:51:36Z</time>
      </trkpt>
      <trkpt lat="45.93896" lon="3.21899">
        <ele>317</ele>
        <time>2024-04-28T10:51:37Z</time>
      </trkpt>
      <trkpt lat="45.93897" lon="3.21906">
        <ele>317</ele>
        <time>2024-04-28T10:51:38Z</time>
      </trkpt>
      <trkpt lat="45.93899" lon="3.21913">
        <ele>317</ele>
        <time>2024-04-28T10:51:39Z</time>
      </trkpt>
      <trkpt lat="45.93901" lon="3.2192">
        <ele>317</ele>
        <time>2024-04-28T10:51:40Z</time>
      </trkpt>
      <trkpt lat="45.93902" lon="3.21927">
        <ele>317</ele>
        <time>2024-04-28T10:51:41Z</time>
      </trkpt>
      <trkpt lat="45.93904" lon="3.21934">
        <ele>317</ele>
        <time>2024-04-28T10:51:42Z</time>
      </trkpt>
      <trkpt lat="45.93905" lon="3.2194">
        <ele>317</ele>
        <time>2024-04-28T10:51:43Z</time>
      </trkpt>
      <trkpt lat="45.93907" lon="3.21947">
        <ele>317</ele>
        <time>2024-04-28T10:51:44Z</time>
      </trkpt>
      <trkpt lat="45.93909" lon="3.21954">
        <ele>317</ele>
        <time>2024-04-28T10:51:45Z</time>
      </trkpt>
      <trkpt lat="45.93911" lon="3.2196">
        <ele>317</ele>
        <time>2024-04-28T10:51:46Z</time>
      </trkpt>
      <trkpt lat="45.93912" lon="3.21967">
        <ele>317</ele>
        <time>2024-04-28T10:51:47Z</time>
      </trkpt>
      <trkpt lat="45.93914" lon="3.21974">
        <ele>317</ele>
        <time>2024-04-28T10:51:48Z</time>
      </trkpt>
      <trkpt lat="45.93916" lon="3.21981">
        <ele>317</ele>
        <time>2024-04-28T10:51:49Z</time>
      </trkpt>
      <trkpt lat="45.93915" lon="3.21987">
        <ele>317.2</ele>
        <time>2024-04-28T10:51:50Z</time>
      </trkpt>
      <trkpt lat="45.93914" lon="3.21994">
        <ele>317.2</ele>
        <time>2024-04-28T10:51:51Z</time>
      </trkpt>
      <trkpt lat="45.93913" lon="3.22001">
        <ele>317.4</ele>
        <time>2024-04-28T10:51:52Z</time>
      </trkpt>
      <trkpt lat="45.93912" lon="3.22007">
        <ele>317.4</ele>
        <time>2024-04-28T10:51:53Z</time>
      </trkpt>
      <trkpt lat="45.93911" lon="3.22012">
        <ele>317.4</ele>
        <time>2024-04-28T10:51:54Z</time>
      </trkpt>
      <trkpt lat="45.93907" lon="3.22017">
        <ele>317.4</ele>
        <time>2024-04-28T10:51:55Z</time>
      </trkpt>
      <trkpt lat="45.93904" lon="3.22022">
        <ele>317.6</ele>
        <time>2024-04-28T10:51:56Z</time>
      </trkpt>
      <trkpt lat="45.93901" lon="3.22026">
        <ele>317.6</ele>
        <time>2024-04-28T10:51:57Z</time>
      </trkpt>
      <trkpt lat="45.93897" lon="3.22032">
        <ele>317.8</ele>
        <time>2024-04-28T10:51:58Z</time>
      </trkpt>
      <trkpt lat="45.93893" lon="3.22037">
        <ele>317.8</ele>
        <time>2024-04-28T10:51:59Z</time>
      </trkpt>
      <trkpt lat="45.9389" lon="3.22041">
        <ele>318</ele>
        <time>2024-04-28T10:52:00Z</time>
      </trkpt>
      <trkpt lat="45.93887" lon="3.22046">
        <ele>318</ele>
        <time>2024-04-28T10:52:01Z</time>
      </trkpt>
      <trkpt lat="45.93883" lon="3.22052">
        <ele>318.2</ele>
        <time>2024-04-28T10:52:02Z</time>
      </trkpt>
      <trkpt lat="45.93879" lon="3.22057">
        <ele>318.2</ele>
        <time>2024-04-28T10:52:03Z</time>
      </trkpt>
      <trkpt lat="45.93875" lon="3.22062">
        <ele>318.2</ele>
        <time>2024-04-28T10:52:04Z</time>
      </trkpt>
      <trkpt lat="45.93872" lon="3.22067">
        <ele>318.2</ele>
        <time>2024-04-28T10:52:05Z</time>
      </trkpt>
      <trkpt lat="45.93868" lon="3.22072">
        <ele>318.2</ele>
        <time>2024-04-28T10:52:06Z</time>
      </trkpt>
      <trkpt lat="45.93864" lon="3.22077">
        <ele>318.4</ele>
        <time>2024-04-28T10:52:07Z</time>
      </trkpt>
      <trkpt lat="45.9386" lon="3.22081">
        <ele>318.4</ele>
        <time>2024-04-28T10:52:08Z</time>
      </trkpt>
      <trkpt lat="45.93855" lon="3.22086">
        <ele>318.4</ele>
        <time>2024-04-28T10:52:09Z</time>
      </trkpt>
      <trkpt lat="45.93851" lon="3.22089">
        <ele>318.4</ele>
        <time>2024-04-28T10:52:10Z</time>
      </trkpt>
      <trkpt lat="45.93847" lon="3.22093">
        <ele>318.4</ele>
        <time>2024-04-28T10:52:11Z</time>
      </trkpt>
      <trkpt lat="45.93843" lon="3.22097">
        <ele>318.4</ele>
        <time>2024-04-28T10:52:12Z</time>
      </trkpt>
      <trkpt lat="45.93838" lon="3.221">
        <ele>318.4</ele>
        <time>2024-04-28T10:52:13Z</time>
      </trkpt>
      <trkpt lat="45.93834" lon="3.22104">
        <ele>318.4</ele>
        <time>2024-04-28T10:52:14Z</time>
      </trkpt>
      <trkpt lat="45.93829" lon="3.22108">
        <ele>318.4</ele>
        <time>2024-04-28T10:52:15Z</time>
      </trkpt>
      <trkpt lat="45.93825" lon="3.22112">
        <ele>318.6</ele>
        <time>2024-04-28T10:52:16Z</time>
      </trkpt>
      <trkpt lat="45.9382" lon="3.22116">
        <ele>318.6</ele>
        <time>2024-04-28T10:52:17Z</time>
      </trkpt>
      <trkpt lat="45.93816" lon="3.2212">
        <ele>318.6</ele>
        <time>2024-04-28T10:52:18Z</time>
      </trkpt>
      <trkpt lat="45.93812" lon="3.22124">
        <ele>318.8</ele>
        <time>2024-04-28T10:52:19Z</time>
      </trkpt>
      <trkpt lat="45.93807" lon="3.22128">
        <ele>318.8</ele>
        <time>2024-04-28T10:52:20Z</time>
      </trkpt>
      <trkpt lat="45.93803" lon="3.22132">
        <ele>318.8</ele>
        <time>2024-04-28T10:52:21Z</time>
      </trkpt>
      <trkpt lat="45.93799" lon="3.22135">
        <ele>319</ele>
        <time>2024-04-28T10:52:22Z</time>
      </trkpt>
      <trkpt lat="45.93795" lon="3.22139">
        <ele>319</ele>
        <time>2024-04-28T10:52:23Z</time>
      </trkpt>
      <trkpt lat="45.9379" lon="3.22143">
        <ele>319</ele>
        <time>2024-04-28T10:52:24Z</time>
      </trkpt>
      <trkpt lat="45.93786" lon="3.22147">
        <ele>319</ele>
        <time>2024-04-28T10:52:25Z</time>
      </trkpt>
      <trkpt lat="45.93781" lon="3.22151">
        <ele>319</ele>
        <time>2024-04-28T10:52:26Z</time>
      </trkpt>
      <trkpt lat="45.93777" lon="3.22154">
        <ele>319</ele>
        <time>2024-04-28T10:52:27Z</time>
      </trkpt>
      <trkpt lat="45.93773" lon="3.22158">
        <ele>319</ele>
        <time>2024-04-28T10:52:28Z</time>
      </trkpt>
      <trkpt lat="45.93768" lon="3.22162">
        <ele>319</ele>
        <time>2024-04-28T10:52:29Z</time>
      </trkpt>
      <trkpt lat="45.93764" lon="3.22166">
        <ele>319</ele>
        <time>2024-04-28T10:52:30Z</time>
      </trkpt>
      <trkpt lat="45.93759" lon="3.2217">
        <ele>319.2</ele>
        <time>2024-04-28T10:52:31Z</time>
      </trkpt>
      <trkpt lat="45.93755" lon="3.22174">
        <ele>319.2</ele>
        <time>2024-04-28T10:52:32Z</time>
      </trkpt>
      <trkpt lat="45.9375" lon="3.22178">
        <ele>319.2</ele>
        <time>2024-04-28T10:52:33Z</time>
      </trkpt>
      <trkpt lat="45.93746" lon="3.22183">
        <ele>319.2</ele>
        <time>2024-04-28T10:52:34Z</time>
      </trkpt>
      <trkpt lat="45.93741" lon="3.22187">
        <ele>319.2</ele>
        <time>2024-04-28T10:52:35Z</time>
      </trkpt>
      <trkpt lat="45.93736" lon="3.22192">
        <ele>319.4</ele>
        <time>2024-04-28T10:52:36Z</time>
      </trkpt>
      <trkpt lat="45.93731" lon="3.22197">
        <ele>319.4</ele>
        <time>2024-04-28T10:52:37Z</time>
      </trkpt>
      <trkpt lat="45.93726" lon="3.22201">
        <ele>319.4</ele>
        <time>2024-04-28T10:52:38Z</time>
      </trkpt>
      <trkpt lat="45.93722" lon="3.22205">
        <ele>319.4</ele>
        <time>2024-04-28T10:52:39Z</time>
      </trkpt>
      <trkpt lat="45.9372" lon="3.22207">
        <ele>319.4</ele>
        <time>2024-04-28T10:52:40Z</time>
      </trkpt>
      <trkpt lat="45.93719" lon="3.22208">
        <ele>319.4</ele>
        <time>2024-04-28T10:52:41Z</time>
      </trkpt>
      <trkpt lat="45.93717" lon="3.2221">
        <ele>319.4</ele>
        <time>2024-04-28T10:52:42Z</time>
      </trkpt>
      <trkpt lat="45.93716" lon="3.22211">
        <ele>319.6</ele>
        <time>2024-04-28T10:52:43Z</time>
      </trkpt>
      <trkpt lat="45.93714" lon="3.22213">
        <ele>319.6</ele>
        <time>2024-04-28T10:52:44Z</time>
      </trkpt>
      <trkpt lat="45.9371" lon="3.22218">
        <ele>319.6</ele>
        <time>2024-04-28T10:52:45Z</time>
      </trkpt>
      <trkpt lat="45.93705" lon="3.22222">
        <ele>319.6</ele>
        <time>2024-04-28T10:52:46Z</time>
      </trkpt>
      <trkpt lat="45.937" lon="3.22227">
        <ele>319.6</ele>
        <time>2024-04-28T10:52:47Z</time>
      </trkpt>
      <trkpt lat="45.93696" lon="3.22232">
        <ele>319.6</ele>
        <time>2024-04-28T10:52:48Z</time>
      </trkpt>
      <trkpt lat="45.93691" lon="3.22237">
        <ele>319.6</ele>
        <time>2024-04-28T10:52:49Z</time>
      </trkpt>
      <trkpt lat="45.93687" lon="3.22241">
        <ele>319.6</ele>
        <time>2024-04-28T10:52:50Z</time>
      </trkpt>
      <trkpt lat="45.93682" lon="3.22246">
        <ele>319.8</ele>
        <time>2024-04-28T10:52:51Z</time>
      </trkpt>
      <trkpt lat="45.93678" lon="3.22251">
        <ele>319.8</ele>
        <time>2024-04-28T10:52:52Z</time>
      </trkpt>
      <trkpt lat="45.93674" lon="3.22256">
        <ele>319.8</ele>
        <time>2024-04-28T10:52:53Z</time>
      </trkpt>
      <trkpt lat="45.93669" lon="3.2226">
        <ele>320</ele>
        <time>2024-04-28T10:52:54Z</time>
      </trkpt>
      <trkpt lat="45.93665" lon="3.22265">
        <ele>320</ele>
        <time>2024-04-28T10:52:55Z</time>
      </trkpt>
      <trkpt lat="45.93661" lon="3.22269">
        <ele>320</ele>
        <time>2024-04-28T10:52:56Z</time>
      </trkpt>
      <trkpt lat="45.93656" lon="3.22274">
        <ele>320</ele>
        <time>2024-04-28T10:52:57Z</time>
      </trkpt>
      <trkpt lat="45.93652" lon="3.22279">
        <ele>320.2</ele>
        <time>2024-04-28T10:52:58Z</time>
      </trkpt>
      <trkpt lat="45.93647" lon="3.22284">
        <ele>320.2</ele>
        <time>2024-04-28T10:52:59Z</time>
      </trkpt>
      <trkpt lat="45.93642" lon="3.22289">
        <ele>320.2</ele>
        <time>2024-04-28T10:53:00Z</time>
      </trkpt>
      <trkpt lat="45.93638" lon="3.22294">
        <ele>320.2</ele>
        <time>2024-04-28T10:53:01Z</time>
      </trkpt>
      <trkpt lat="45.93634" lon="3.22301">
        <ele>320.4</ele>
        <time>2024-04-28T10:53:02Z</time>
      </trkpt>
      <trkpt lat="45.9363" lon="3.22308">
        <ele>320.4</ele>
        <time>2024-04-28T10:53:03Z</time>
      </trkpt>
      <trkpt lat="45.93626" lon="3.22315">
        <ele>320.4</ele>
        <time>2024-04-28T10:53:04Z</time>
      </trkpt>
      <trkpt lat="45.93622" lon="3.22322">
        <ele>320.4</ele>
        <time>2024-04-28T10:53:05Z</time>
      </trkpt>
      <trkpt lat="45.93618" lon="3.22329">
        <ele>320.6</ele>
        <time>2024-04-28T10:53:06Z</time>
      </trkpt>
      <trkpt lat="45.93614" lon="3.22336">
        <ele>320.8</ele>
        <time>2024-04-28T10:53:07Z</time>
      </trkpt>
      <trkpt lat="45.9361" lon="3.22343">
        <ele>320.8</ele>
        <time>2024-04-28T10:53:08Z</time>
      </trkpt>
      <trkpt lat="45.93606" lon="3.2235">
        <ele>320.8</ele>
        <time>2024-04-28T10:53:09Z</time>
      </trkpt>
      <trkpt lat="45.93602" lon="3.22357">
        <ele>321</ele>
        <time>2024-04-28T10:53:10Z</time>
      </trkpt>
      <trkpt lat="45.93598" lon="3.22364">
        <ele>321</ele>
        <time>2024-04-28T10:53:11Z</time>
      </trkpt>
      <trkpt lat="45.93595" lon="3.22371">
        <ele>321</ele>
        <time>2024-04-28T10:53:12Z</time>
      </trkpt>
      <trkpt lat="45.93591" lon="3.22377">
        <ele>321</ele>
        <time>2024-04-28T10:53:13Z</time>
      </trkpt>
      <trkpt lat="45.93587" lon="3.22384">
        <ele>321</ele>
        <time>2024-04-28T10:53:14Z</time>
      </trkpt>
      <trkpt lat="45.93583" lon="3.22391">
        <ele>321</ele>
        <time>2024-04-28T10:53:15Z</time>
      </trkpt>
      <trkpt lat="45.93579" lon="3.22398">
        <ele>321.2</ele>
        <time>2024-04-28T10:53:16Z</time>
      </trkpt>
      <trkpt lat="45.93575" lon="3.22405">
        <ele>321.2</ele>
        <time>2024-04-28T10:53:17Z</time>
      </trkpt>
      <trkpt lat="45.93572" lon="3.22411">
        <ele>321.4</ele>
        <time>2024-04-28T10:53:18Z</time>
      </trkpt>
      <trkpt lat="45.93568" lon="3.22418">
        <ele>321.4</ele>
        <time>2024-04-28T10:53:19Z</time>
      </trkpt>
      <trkpt lat="45.93564" lon="3.22425">
        <ele>321.4</ele>
        <time>2024-04-28T10:53:20Z</time>
      </trkpt>
      <trkpt lat="45.9356" lon="3.22432">
        <ele>321.6</ele>
        <time>2024-04-28T10:53:21Z</time>
      </trkpt>
      <trkpt lat="45.93556" lon="3.22439">
        <ele>321.6</ele>
        <time>2024-04-28T10:53:22Z</time>
      </trkpt>
      <trkpt lat="45.93552" lon="3.22446">
        <ele>321.6</ele>
        <time>2024-04-28T10:53:23Z</time>
      </trkpt>
      <trkpt lat="45.93548" lon="3.22452">
        <ele>321.6</ele>
        <time>2024-04-28T10:53:24Z</time>
      </trkpt>
      <trkpt lat="45.93545" lon="3.22459">
        <ele>321.8</ele>
        <time>2024-04-28T10:53:25Z</time>
      </trkpt>
      <trkpt lat="45.93541" lon="3.22465">
        <ele>321.8</ele>
        <time>2024-04-28T10:53:26Z</time>
      </trkpt>
      <trkpt lat="45.93537" lon="3.22472">
        <ele>321.8</ele>
        <time>2024-04-28T10:53:27Z</time>
      </trkpt>
      <trkpt lat="45.93533" lon="3.22479">
        <ele>321.8</ele>
        <time>2024-04-28T10:53:28Z</time>
      </trkpt>
      <trkpt lat="45.93529" lon="3.22486">
        <ele>321.8</ele>
        <time>2024-04-28T10:53:29Z</time>
      </trkpt>
      <trkpt lat="45.93526" lon="3.22493">
        <ele>321.8</ele>
        <time>2024-04-28T10:53:30Z</time>
      </trkpt>
      <trkpt lat="45.93521" lon="3.225">
        <ele>322</ele>
        <time>2024-04-28T10:53:31Z</time>
      </trkpt>
      <trkpt lat="45.93517" lon="3.22507">
        <ele>322</ele>
        <time>2024-04-28T10:53:32Z</time>
      </trkpt>
      <trkpt lat="45.93513" lon="3.22514">
        <ele>322</ele>
        <time>2024-04-28T10:53:33Z</time>
      </trkpt>
      <trkpt lat="45.93509" lon="3.22521">
        <ele>322</ele>
        <time>2024-04-28T10:53:34Z</time>
      </trkpt>
      <trkpt lat="45.93505" lon="3.22529">
        <ele>322</ele>
        <time>2024-04-28T10:53:35Z</time>
      </trkpt>
      <trkpt lat="45.93501" lon="3.22536">
        <ele>322.2</ele>
        <time>2024-04-28T10:53:36Z</time>
      </trkpt>
      <trkpt lat="45.93497" lon="3.22544">
        <ele>322.2</ele>
        <time>2024-04-28T10:53:37Z</time>
      </trkpt>
      <trkpt lat="45.93492" lon="3.22551">
        <ele>322.2</ele>
        <time>2024-04-28T10:53:38Z</time>
      </trkpt>
      <trkpt lat="45.93488" lon="3.22559">
        <ele>322.2</ele>
        <time>2024-04-28T10:53:39Z</time>
      </trkpt>
      <trkpt lat="45.93484" lon="3.22567">
        <ele>322.2</ele>
        <time>2024-04-28T10:53:40Z</time>
      </trkpt>
      <trkpt lat="45.93479" lon="3.22574">
        <ele>322.2</ele>
        <time>2024-04-28T10:53:41Z</time>
      </trkpt>
      <trkpt lat="45.93475" lon="3.22582">
        <ele>322.4</ele>
        <time>2024-04-28T10:53:42Z</time>
      </trkpt>
      <trkpt lat="45.93471" lon="3.2259">
        <ele>322.4</ele>
        <time>2024-04-28T10:53:43Z</time>
      </trkpt>
      <trkpt lat="45.93466" lon="3.22597">
        <ele>322.4</ele>
        <time>2024-04-28T10:53:44Z</time>
      </trkpt>
      <trkpt lat="45.93462" lon="3.22605">
        <ele>322.4</ele>
        <time>2024-04-28T10:53:45Z</time>
      </trkpt>
      <trkpt lat="45.93458" lon="3.22613">
        <ele>322.6</ele>
        <time>2024-04-28T10:53:46Z</time>
      </trkpt>
      <trkpt lat="45.93453" lon="3.22621">
        <ele>322.6</ele>
        <time>2024-04-28T10:53:47Z</time>
      </trkpt>
      <trkpt lat="45.93449" lon="3.22629">
        <ele>322.6</ele>
        <time>2024-04-28T10:53:48Z</time>
      </trkpt>
      <trkpt lat="45.93444" lon="3.22636">
        <ele>322.6</ele>
        <time>2024-04-28T10:53:49Z</time>
      </trkpt>
      <trkpt lat="45.9344" lon="3.22644">
        <ele>322.6</ele>
        <time>2024-04-28T10:53:50Z</time>
      </trkpt>
      <trkpt lat="45.93436" lon="3.22652">
        <ele>322.8</ele>
        <time>2024-04-28T10:53:51Z</time>
      </trkpt>
      <trkpt lat="45.93432" lon="3.22659">
        <ele>322.8</ele>
        <time>2024-04-28T10:53:52Z</time>
      </trkpt>
      <trkpt lat="45.93427" lon="3.22667">
        <ele>322.8</ele>
        <time>2024-04-28T10:53:53Z</time>
      </trkpt>
      <trkpt lat="45.93423" lon="3.22674">
        <ele>323</ele>
        <time>2024-04-28T10:53:54Z</time>
      </trkpt>
      <trkpt lat="45.93419" lon="3.22682">
        <ele>323</ele>
        <time>2024-04-28T10:53:55Z</time>
      </trkpt>
      <trkpt lat="45.93415" lon="3.2269">
        <ele>323</ele>
        <time>2024-04-28T10:53:56Z</time>
      </trkpt>
      <trkpt lat="45.93411" lon="3.22697">
        <ele>323</ele>
        <time>2024-04-28T10:53:57Z</time>
      </trkpt>
      <trkpt lat="45.93406" lon="3.22705">
        <ele>323.2</ele>
        <time>2024-04-28T10:53:58Z</time>
      </trkpt>
      <trkpt lat="45.93403" lon="3.22712">
        <ele>323.2</ele>
        <time>2024-04-28T10:53:59Z</time>
      </trkpt>
      <trkpt lat="45.93399" lon="3.2272">
        <ele>323.2</ele>
        <time>2024-04-28T10:54:00Z</time>
      </trkpt>
      <trkpt lat="45.93395" lon="3.22727">
        <ele>323.4</ele>
        <time>2024-04-28T10:54:01Z</time>
      </trkpt>
      <trkpt lat="45.93391" lon="3.22735">
        <ele>323.4</ele>
        <time>2024-04-28T10:54:02Z</time>
      </trkpt>
      <trkpt lat="45.93387" lon="3.22742">
        <ele>323.4</ele>
        <time>2024-04-28T10:54:03Z</time>
      </trkpt>
      <trkpt lat="45.93383" lon="3.22749">
        <ele>323.6</ele>
        <time>2024-04-28T10:54:04Z</time>
      </trkpt>
      <trkpt lat="45.93379" lon="3.22756">
        <ele>323.6</ele>
        <time>2024-04-28T10:54:05Z</time>
      </trkpt>
      <trkpt lat="45.93376" lon="3.22764">
        <ele>323.6</ele>
        <time>2024-04-28T10:54:06Z</time>
      </trkpt>
      <trkpt lat="45.93373" lon="3.22772">
        <ele>323.6</ele>
        <time>2024-04-28T10:54:07Z</time>
      </trkpt>
      <trkpt lat="45.93371" lon="3.2278">
        <ele>323.6</ele>
        <time>2024-04-28T10:54:08Z</time>
      </trkpt>
      <trkpt lat="45.93368" lon="3.22788">
        <ele>323.6</ele>
        <time>2024-04-28T10:54:09Z</time>
      </trkpt>
      <trkpt lat="45.93366" lon="3.22796">
        <ele>323.6</ele>
        <time>2024-04-28T10:54:10Z</time>
      </trkpt>
      <trkpt lat="45.93363" lon="3.22805">
        <ele>323.6</ele>
        <time>2024-04-28T10:54:11Z</time>
      </trkpt>
      <trkpt lat="45.9336" lon="3.22813">
        <ele>323.6</ele>
        <time>2024-04-28T10:54:12Z</time>
      </trkpt>
      <trkpt lat="45.93357" lon="3.22822">
        <ele>323.6</ele>
        <time>2024-04-28T10:54:13Z</time>
      </trkpt>
      <trkpt lat="45.93354" lon="3.22831">
        <ele>323.6</ele>
        <time>2024-04-28T10:54:14Z</time>
      </trkpt>
      <trkpt lat="45.93351" lon="3.2284">
        <ele>323.8</ele>
        <time>2024-04-28T10:54:15Z</time>
      </trkpt>
      <trkpt lat="45.93349" lon="3.22849">
        <ele>323.8</ele>
        <time>2024-04-28T10:54:16Z</time>
      </trkpt>
      <trkpt lat="45.93346" lon="3.22858">
        <ele>323.8</ele>
        <time>2024-04-28T10:54:17Z</time>
      </trkpt>
      <trkpt lat="45.93343" lon="3.22867">
        <ele>323.8</ele>
        <time>2024-04-28T10:54:18Z</time>
      </trkpt>
      <trkpt lat="45.9334" lon="3.22876">
        <ele>323.8</ele>
        <time>2024-04-28T10:54:19Z</time>
      </trkpt>
      <trkpt lat="45.93337" lon="3.22885">
        <ele>323.8</ele>
        <time>2024-04-28T10:54:20Z</time>
      </trkpt>
      <trkpt lat="45.93334" lon="3.22895">
        <ele>323.8</ele>
        <time>2024-04-28T10:54:21Z</time>
      </trkpt>
      <trkpt lat="45.93331" lon="3.22904">
        <ele>323.8</ele>
        <time>2024-04-28T10:54:22Z</time>
      </trkpt>
      <trkpt lat="45.93328" lon="3.22913">
        <ele>323.8</ele>
        <time>2024-04-28T10:54:23Z</time>
      </trkpt>
      <trkpt lat="45.93325" lon="3.22922">
        <ele>323.8</ele>
        <time>2024-04-28T10:54:24Z</time>
      </trkpt>
      <trkpt lat="45.93322" lon="3.22931">
        <ele>323.8</ele>
        <time>2024-04-28T10:54:25Z</time>
      </trkpt>
      <trkpt lat="45.93319" lon="3.22941">
        <ele>323.8</ele>
        <time>2024-04-28T10:54:26Z</time>
      </trkpt>
      <trkpt lat="45.93316" lon="3.2295">
        <ele>323.8</ele>
        <time>2024-04-28T10:54:27Z</time>
      </trkpt>
      <trkpt lat="45.93313" lon="3.2296">
        <ele>323.8</ele>
        <time>2024-04-28T10:54:28Z</time>
      </trkpt>
      <trkpt lat="45.9331" lon="3.22969">
        <ele>323.8</ele>
        <time>2024-04-28T10:54:29Z</time>
      </trkpt>
      <trkpt lat="45.93307" lon="3.22978">
        <ele>323.6</ele>
        <time>2024-04-28T10:54:30Z</time>
      </trkpt>
      <trkpt lat="45.93307" lon="3.22978">
        <ele>323.8</ele>
        <time>2024-04-28T10:54:31Z</time>
      </trkpt>
      <trkpt lat="45.93304" lon="3.22988">
        <ele>323.6</ele>
        <time>2024-04-28T10:54:32Z</time>
      </trkpt>
      <trkpt lat="45.93298" lon="3.23006">
        <ele>323.4</ele>
        <time>2024-04-28T10:54:33Z</time>
      </trkpt>
      <trkpt lat="45.93295" lon="3.23015">
        <ele>323.6</ele>
        <time>2024-04-28T10:54:34Z</time>
      </trkpt>
      <trkpt lat="45.93292" lon="3.23024">
        <ele>323.4</ele>
        <time>2024-04-28T10:54:35Z</time>
      </trkpt>
      <trkpt lat="45.93289" lon="3.23034">
        <ele>323.4</ele>
        <time>2024-04-28T10:54:36Z</time>
      </trkpt>
      <trkpt lat="45.93289" lon="3.23034">
        <ele>323.4</ele>
        <time>2024-04-28T10:54:37Z</time>
      </trkpt>
      <trkpt lat="45.93286" lon="3.23043">
        <ele>323.4</ele>
        <time>2024-04-28T10:54:38Z</time>
      </trkpt>
      <trkpt lat="45.9328" lon="3.23062">
        <ele>323.4</ele>
        <time>2024-04-28T10:54:39Z</time>
      </trkpt>
      <trkpt lat="45.93276" lon="3.23071">
        <ele>323.4</ele>
        <time>2024-04-28T10:54:40Z</time>
      </trkpt>
      <trkpt lat="45.93273" lon="3.2308">
        <ele>323.2</ele>
        <time>2024-04-28T10:54:41Z</time>
      </trkpt>
      <trkpt lat="45.9327" lon="3.2309">
        <ele>323.2</ele>
        <time>2024-04-28T10:54:42Z</time>
      </trkpt>
      <trkpt lat="45.93267" lon="3.23099">
        <ele>323.2</ele>
        <time>2024-04-28T10:54:43Z</time>
      </trkpt>
      <trkpt lat="45.93264" lon="3.23108">
        <ele>323.2</ele>
        <time>2024-04-28T10:54:44Z</time>
      </trkpt>
      <trkpt lat="45.93261" lon="3.23117">
        <ele>323.2</ele>
        <time>2024-04-28T10:54:45Z</time>
      </trkpt>
      <trkpt lat="45.93257" lon="3.23127">
        <ele>323</ele>
        <time>2024-04-28T10:54:46Z</time>
      </trkpt>
      <trkpt lat="45.93254" lon="3.23136">
        <ele>323</ele>
        <time>2024-04-28T10:54:47Z</time>
      </trkpt>
      <trkpt lat="45.93251" lon="3.23146">
        <ele>322.8</ele>
        <time>2024-04-28T10:54:48Z</time>
      </trkpt>
      <trkpt lat="45.93248" lon="3.23156">
        <ele>322.8</ele>
        <time>2024-04-28T10:54:49Z</time>
      </trkpt>
      <trkpt lat="45.93244" lon="3.23166">
        <ele>322.8</ele>
        <time>2024-04-28T10:54:50Z</time>
      </trkpt>
      <trkpt lat="45.93241" lon="3.23176">
        <ele>322.6</ele>
        <time>2024-04-28T10:54:51Z</time>
      </trkpt>
      <trkpt lat="45.93237" lon="3.23186">
        <ele>322.6</ele>
        <time>2024-04-28T10:54:52Z</time>
      </trkpt>
      <trkpt lat="45.93234" lon="3.23197">
        <ele>322.4</ele>
        <time>2024-04-28T10:54:53Z</time>
      </trkpt>
      <trkpt lat="45.9323" lon="3.23208">
        <ele>322.4</ele>
        <time>2024-04-28T10:54:54Z</time>
      </trkpt>
      <trkpt lat="45.93226" lon="3.23218">
        <ele>322.2</ele>
        <time>2024-04-28T10:54:55Z</time>
      </trkpt>
      <trkpt lat="45.93223" lon="3.23228">
        <ele>322.2</ele>
        <time>2024-04-28T10:54:56Z</time>
      </trkpt>
      <trkpt lat="45.93219" lon="3.23238">
        <ele>322</ele>
        <time>2024-04-28T10:54:57Z</time>
      </trkpt>
      <trkpt lat="45.93216" lon="3.23248">
        <ele>322</ele>
        <time>2024-04-28T10:54:58Z</time>
      </trkpt>
      <trkpt lat="45.93213" lon="3.23258">
        <ele>321.8</ele>
        <time>2024-04-28T10:54:59Z</time>
      </trkpt>
      <trkpt lat="45.93209" lon="3.23268">
        <ele>321.8</ele>
        <time>2024-04-28T10:55:00Z</time>
      </trkpt>
      <trkpt lat="45.93206" lon="3.23278">
        <ele>321.8</ele>
        <time>2024-04-28T10:55:01Z</time>
      </trkpt>
      <trkpt lat="45.93203" lon="3.23288">
        <ele>321.6</ele>
        <time>2024-04-28T10:55:02Z</time>
      </trkpt>
      <trkpt lat="45.93199" lon="3.23298">
        <ele>321.6</ele>
        <time>2024-04-28T10:55:03Z</time>
      </trkpt>
      <trkpt lat="45.93196" lon="3.23307">
        <ele>321.6</ele>
        <time>2024-04-28T10:55:04Z</time>
      </trkpt>
      <trkpt lat="45.93193" lon="3.23317">
        <ele>321.4</ele>
        <time>2024-04-28T10:55:05Z</time>
      </trkpt>
      <trkpt lat="45.93189" lon="3.23327">
        <ele>321.4</ele>
        <time>2024-04-28T10:55:06Z</time>
      </trkpt>
      <trkpt lat="45.93186" lon="3.23337">
        <ele>321.4</ele>
        <time>2024-04-28T10:55:07Z</time>
      </trkpt>
      <trkpt lat="45.93182" lon="3.23347">
        <ele>321.4</ele>
        <time>2024-04-28T10:55:08Z</time>
      </trkpt>
      <trkpt lat="45.93179" lon="3.23356">
        <ele>321.2</ele>
        <time>2024-04-28T10:55:09Z</time>
      </trkpt>
      <trkpt lat="45.93175" lon="3.23366">
        <ele>321.2</ele>
        <time>2024-04-28T10:55:10Z</time>
      </trkpt>
      <trkpt lat="45.93172" lon="3.23375">
        <ele>321.2</ele>
        <time>2024-04-28T10:55:11Z</time>
      </trkpt>
      <trkpt lat="45.93169" lon="3.23384">
        <ele>321.2</ele>
        <time>2024-04-28T10:55:12Z</time>
      </trkpt>
      <trkpt lat="45.93165" lon="3.23393">
        <ele>321.2</ele>
        <time>2024-04-28T10:55:13Z</time>
      </trkpt>
      <trkpt lat="45.93161" lon="3.23401">
        <ele>321.2</ele>
        <time>2024-04-28T10:55:14Z</time>
      </trkpt>
      <trkpt lat="45.93158" lon="3.2341">
        <ele>321</ele>
        <time>2024-04-28T10:55:15Z</time>
      </trkpt>
      <trkpt lat="45.93154" lon="3.23419">
        <ele>321</ele>
        <time>2024-04-28T10:55:16Z</time>
      </trkpt>
      <trkpt lat="45.9315" lon="3.23427">
        <ele>321</ele>
        <time>2024-04-28T10:55:17Z</time>
      </trkpt>
      <trkpt lat="45.93147" lon="3.23436">
        <ele>321</ele>
        <time>2024-04-28T10:55:18Z</time>
      </trkpt>
      <trkpt lat="45.93143" lon="3.23445">
        <ele>321</ele>
        <time>2024-04-28T10:55:19Z</time>
      </trkpt>
      <trkpt lat="45.93138" lon="3.23454">
        <ele>321</ele>
        <time>2024-04-28T10:55:20Z</time>
      </trkpt>
      <trkpt lat="45.93133" lon="3.23461">
        <ele>321</ele>
        <time>2024-04-28T10:55:21Z</time>
      </trkpt>
      <trkpt lat="45.93128" lon="3.23468">
        <ele>320.8</ele>
        <time>2024-04-28T10:55:22Z</time>
      </trkpt>
      <trkpt lat="45.93123" lon="3.23476">
        <ele>320.8</ele>
        <time>2024-04-28T10:55:23Z</time>
      </trkpt>
      <trkpt lat="45.93118" lon="3.23483">
        <ele>320.8</ele>
        <time>2024-04-28T10:55:24Z</time>
      </trkpt>
      <trkpt lat="45.93113" lon="3.23491">
        <ele>320.8</ele>
        <time>2024-04-28T10:55:25Z</time>
      </trkpt>
      <trkpt lat="45.93108" lon="3.23499">
        <ele>320.8</ele>
        <time>2024-04-28T10:55:26Z</time>
      </trkpt>
      <trkpt lat="45.93103" lon="3.23506">
        <ele>320.8</ele>
        <time>2024-04-28T10:55:27Z</time>
      </trkpt>
      <trkpt lat="45.93098" lon="3.23514">
        <ele>320.6</ele>
        <time>2024-04-28T10:55:28Z</time>
      </trkpt>
      <trkpt lat="45.93093" lon="3.23521">
        <ele>320.6</ele>
        <time>2024-04-28T10:55:29Z</time>
      </trkpt>
      <trkpt lat="45.93088" lon="3.23529">
        <ele>320.6</ele>
        <time>2024-04-28T10:55:30Z</time>
      </trkpt>
      <trkpt lat="45.93083" lon="3.23537">
        <ele>320.6</ele>
        <time>2024-04-28T10:55:31Z</time>
      </trkpt>
      <trkpt lat="45.93077" lon="3.23545">
        <ele>320.4</ele>
        <time>2024-04-28T10:55:32Z</time>
      </trkpt>
      <trkpt lat="45.93072" lon="3.23552">
        <ele>320.4</ele>
        <time>2024-04-28T10:55:33Z</time>
      </trkpt>
      <trkpt lat="45.93067" lon="3.2356">
        <ele>320.4</ele>
        <time>2024-04-28T10:55:34Z</time>
      </trkpt>
      <trkpt lat="45.93062" lon="3.23567">
        <ele>320.2</ele>
        <time>2024-04-28T10:55:35Z</time>
      </trkpt>
      <trkpt lat="45.93057" lon="3.23575">
        <ele>320.2</ele>
        <time>2024-04-28T10:55:36Z</time>
      </trkpt>
      <trkpt lat="45.93052" lon="3.23583">
        <ele>320</ele>
        <time>2024-04-28T10:55:37Z</time>
      </trkpt>
      <trkpt lat="45.93047" lon="3.2359">
        <ele>320</ele>
        <time>2024-04-28T10:55:38Z</time>
      </trkpt>
      <trkpt lat="45.93042" lon="3.23598">
        <ele>320</ele>
        <time>2024-04-28T10:55:39Z</time>
      </trkpt>
      <trkpt lat="45.93037" lon="3.23605">
        <ele>320</ele>
        <time>2024-04-28T10:55:40Z</time>
      </trkpt>
      <trkpt lat="45.93032" lon="3.23613">
        <ele>320</ele>
        <time>2024-04-28T10:55:41Z</time>
      </trkpt>
      <trkpt lat="45.93027" lon="3.23621">
        <ele>320</ele>
        <time>2024-04-28T10:55:42Z</time>
      </trkpt>
      <trkpt lat="45.93022" lon="3.23628">
        <ele>320</ele>
        <time>2024-04-28T10:55:43Z</time>
      </trkpt>
      <trkpt lat="45.93017" lon="3.23635">
        <ele>320</ele>
        <time>2024-04-28T10:55:44Z</time>
      </trkpt>
      <trkpt lat="45.93011" lon="3.23642">
        <ele>319.8</ele>
        <time>2024-04-28T10:55:45Z</time>
      </trkpt>
      <trkpt lat="45.93006" lon="3.23649">
        <ele>319.8</ele>
        <time>2024-04-28T10:55:46Z</time>
      </trkpt>
      <trkpt lat="45.93" lon="3.23657">
        <ele>319.8</ele>
        <time>2024-04-28T10:55:47Z</time>
      </trkpt>
      <trkpt lat="45.92995" lon="3.23664">
        <ele>319.8</ele>
        <time>2024-04-28T10:55:48Z</time>
      </trkpt>
      <trkpt lat="45.9299" lon="3.23671">
        <ele>319.8</ele>
        <time>2024-04-28T10:55:49Z</time>
      </trkpt>
      <trkpt lat="45.92984" lon="3.23678">
        <ele>319.6</ele>
        <time>2024-04-28T10:55:50Z</time>
      </trkpt>
      <trkpt lat="45.92979" lon="3.23685">
        <ele>319.6</ele>
        <time>2024-04-28T10:55:51Z</time>
      </trkpt>
      <trkpt lat="45.92974" lon="3.23692">
        <ele>319.6</ele>
        <time>2024-04-28T10:55:52Z</time>
      </trkpt>
      <trkpt lat="45.92969" lon="3.23699">
        <ele>319.6</ele>
        <time>2024-04-28T10:55:53Z</time>
      </trkpt>
      <trkpt lat="45.92963" lon="3.23706">
        <ele>319.6</ele>
        <time>2024-04-28T10:55:54Z</time>
      </trkpt>
      <trkpt lat="45.92958" lon="3.23713">
        <ele>319.6</ele>
        <time>2024-04-28T10:55:55Z</time>
      </trkpt>
      <trkpt lat="45.92953" lon="3.2372">
        <ele>319.6</ele>
        <time>2024-04-28T10:55:56Z</time>
      </trkpt>
      <trkpt lat="45.92953" lon="3.2372">
        <ele>319.4</ele>
        <time>2024-04-28T10:55:57Z</time>
      </trkpt>
      <trkpt lat="45.92948" lon="3.23727">
        <ele>319.4</ele>
        <time>2024-04-28T10:55:58Z</time>
      </trkpt>
      <trkpt lat="45.92942" lon="3.23734">
        <ele>319.4</ele>
        <time>2024-04-28T10:55:59Z</time>
      </trkpt>
      <trkpt lat="45.92937" lon="3.23741">
        <ele>319.4</ele>
        <time>2024-04-28T10:56:00Z</time>
      </trkpt>
      <trkpt lat="45.92932" lon="3.23748">
        <ele>319.4</ele>
        <time>2024-04-28T10:56:01Z</time>
      </trkpt>
      <trkpt lat="45.92927" lon="3.23755">
        <ele>319.4</ele>
        <time>2024-04-28T10:56:02Z</time>
      </trkpt>
      <trkpt lat="45.92922" lon="3.23762">
        <ele>319.4</ele>
        <time>2024-04-28T10:56:03Z</time>
      </trkpt>
      <trkpt lat="45.92917" lon="3.23769">
        <ele>319.2</ele>
        <time>2024-04-28T10:56:04Z</time>
      </trkpt>
      <trkpt lat="45.92912" lon="3.23775">
        <ele>319.2</ele>
        <time>2024-04-28T10:56:05Z</time>
      </trkpt>
      <trkpt lat="45.92906" lon="3.23782">
        <ele>319.2</ele>
        <time>2024-04-28T10:56:06Z</time>
      </trkpt>
      <trkpt lat="45.92901" lon="3.23789">
        <ele>319.2</ele>
        <time>2024-04-28T10:56:07Z</time>
      </trkpt>
      <trkpt lat="45.92896" lon="3.23796">
        <ele>319.2</ele>
        <time>2024-04-28T10:56:08Z</time>
      </trkpt>
      <trkpt lat="45.92891" lon="3.23803">
        <ele>319.2</ele>
        <time>2024-04-28T10:56:09Z</time>
      </trkpt>
      <trkpt lat="45.92886" lon="3.23809">
        <ele>319.2</ele>
        <time>2024-04-28T10:56:10Z</time>
      </trkpt>
      <trkpt lat="45.92881" lon="3.23816">
        <ele>319.2</ele>
        <time>2024-04-28T10:56:11Z</time>
      </trkpt>
      <trkpt lat="45.92876" lon="3.23823">
        <ele>319.2</ele>
        <time>2024-04-28T10:56:12Z</time>
      </trkpt>
      <trkpt lat="45.92871" lon="3.2383">
        <ele>319.2</ele>
        <time>2024-04-28T10:56:13Z</time>
      </trkpt>
      <trkpt lat="45.92866" lon="3.23837">
        <ele>319.2</ele>
        <time>2024-04-28T10:56:14Z</time>
      </trkpt>
      <trkpt lat="45.92861" lon="3.23843">
        <ele>319</ele>
        <time>2024-04-28T10:56:15Z</time>
      </trkpt>
      <trkpt lat="45.92855" lon="3.2385">
        <ele>319</ele>
        <time>2024-04-28T10:56:16Z</time>
      </trkpt>
      <trkpt lat="45.9285" lon="3.23857">
        <ele>319.2</ele>
        <time>2024-04-28T10:56:17Z</time>
      </trkpt>
      <trkpt lat="45.92845" lon="3.23864">
        <ele>319</ele>
        <time>2024-04-28T10:56:18Z</time>
      </trkpt>
      <trkpt lat="45.9284" lon="3.23871">
        <ele>319.2</ele>
        <time>2024-04-28T10:56:19Z</time>
      </trkpt>
      <trkpt lat="45.92835" lon="3.23877">
        <ele>319.2</ele>
        <time>2024-04-28T10:56:20Z</time>
      </trkpt>
      <trkpt lat="45.92831" lon="3.23884">
        <ele>319</ele>
        <time>2024-04-28T10:56:21Z</time>
      </trkpt>
      <trkpt lat="45.92826" lon="3.2389">
        <ele>319</ele>
        <time>2024-04-28T10:56:22Z</time>
      </trkpt>
      <trkpt lat="45.92821" lon="3.23896">
        <ele>319</ele>
        <time>2024-04-28T10:56:23Z</time>
      </trkpt>
      <trkpt lat="45.92816" lon="3.23903">
        <ele>319</ele>
        <time>2024-04-28T10:56:24Z</time>
      </trkpt>
      <trkpt lat="45.92812" lon="3.23909">
        <ele>319.2</ele>
        <time>2024-04-28T10:56:25Z</time>
      </trkpt>
      <trkpt lat="45.92807" lon="3.23915">
        <ele>319</ele>
        <time>2024-04-28T10:56:26Z</time>
      </trkpt>
      <trkpt lat="45.92802" lon="3.23921">
        <ele>319.2</ele>
        <time>2024-04-28T10:56:27Z</time>
      </trkpt>
      <trkpt lat="45.92797" lon="3.23926">
        <ele>319.2</ele>
        <time>2024-04-28T10:56:28Z</time>
      </trkpt>
      <trkpt lat="45.92793" lon="3.23932">
        <ele>319.2</ele>
        <time>2024-04-28T10:56:29Z</time>
      </trkpt>
      <trkpt lat="45.92788" lon="3.23937">
        <ele>319</ele>
        <time>2024-04-28T10:56:30Z</time>
      </trkpt>
      <trkpt lat="45.92784" lon="3.23943">
        <ele>319.2</ele>
        <time>2024-04-28T10:56:31Z</time>
      </trkpt>
      <trkpt lat="45.9278" lon="3.23948">
        <ele>319.4</ele>
        <time>2024-04-28T10:56:32Z</time>
      </trkpt>
      <trkpt lat="45.92775" lon="3.23953">
        <ele>319.2</ele>
        <time>2024-04-28T10:56:33Z</time>
      </trkpt>
      <trkpt lat="45.92771" lon="3.23958">
        <ele>319.2</ele>
        <time>2024-04-28T10:56:34Z</time>
      </trkpt>
      <trkpt lat="45.92767" lon="3.23964">
        <ele>319.2</ele>
        <time>2024-04-28T10:56:35Z</time>
      </trkpt>
      <trkpt lat="45.92763" lon="3.23968">
        <ele>319.2</ele>
        <time>2024-04-28T10:56:36Z</time>
      </trkpt>
      <trkpt lat="45.92759" lon="3.23973">
        <ele>319</ele>
        <time>2024-04-28T10:56:37Z</time>
      </trkpt>
      <trkpt lat="45.92755" lon="3.23978">
        <ele>319</ele>
        <time>2024-04-28T10:56:38Z</time>
      </trkpt>
      <trkpt lat="45.92751" lon="3.23983">
        <ele>319.2</ele>
        <time>2024-04-28T10:56:39Z</time>
      </trkpt>
      <trkpt lat="45.92747" lon="3.23988">
        <ele>319.2</ele>
        <time>2024-04-28T10:56:40Z</time>
      </trkpt>
      <trkpt lat="45.92743" lon="3.23992">
        <ele>319.2</ele>
        <time>2024-04-28T10:56:41Z</time>
      </trkpt>
      <trkpt lat="45.9274" lon="3.23998">
        <ele>319.2</ele>
        <time>2024-04-28T10:56:42Z</time>
      </trkpt>
      <trkpt lat="45.92738" lon="3.24004">
        <ele>319.2</ele>
        <time>2024-04-28T10:56:43Z</time>
      </trkpt>
      <trkpt lat="45.92735" lon="3.2401">
        <ele>319.2</ele>
        <time>2024-04-28T10:56:44Z</time>
      </trkpt>
      <trkpt lat="45.92733" lon="3.24015">
        <ele>319.2</ele>
        <time>2024-04-28T10:56:45Z</time>
      </trkpt>
      <trkpt lat="45.9273" lon="3.24021">
        <ele>319.2</ele>
        <time>2024-04-28T10:56:46Z</time>
      </trkpt>
      <trkpt lat="45.92728" lon="3.24027">
        <ele>319.4</ele>
        <time>2024-04-28T10:56:47Z</time>
      </trkpt>
      <trkpt lat="45.92725" lon="3.24033">
        <ele>319.4</ele>
        <time>2024-04-28T10:56:48Z</time>
      </trkpt>
      <trkpt lat="45.92723" lon="3.24038">
        <ele>319.4</ele>
        <time>2024-04-28T10:56:49Z</time>
      </trkpt>
      <trkpt lat="45.9272" lon="3.24044">
        <ele>319.4</ele>
        <time>2024-04-28T10:56:50Z</time>
      </trkpt>
      <trkpt lat="45.92718" lon="3.24049">
        <ele>319.4</ele>
        <time>2024-04-28T10:56:51Z</time>
      </trkpt>
      <trkpt lat="45.92715" lon="3.24055">
        <ele>319.6</ele>
        <time>2024-04-28T10:56:52Z</time>
      </trkpt>
      <trkpt lat="45.92713" lon="3.2406">
        <ele>319.6</ele>
        <time>2024-04-28T10:56:53Z</time>
      </trkpt>
      <trkpt lat="45.92711" lon="3.24066">
        <ele>319.6</ele>
        <time>2024-04-28T10:56:54Z</time>
      </trkpt>
      <trkpt lat="45.92708" lon="3.24072">
        <ele>319.6</ele>
        <time>2024-04-28T10:56:55Z</time>
      </trkpt>
      <trkpt lat="45.92706" lon="3.24077">
        <ele>319.8</ele>
        <time>2024-04-28T10:56:56Z</time>
      </trkpt>
      <trkpt lat="45.92703" lon="3.24083">
        <ele>319.8</ele>
        <time>2024-04-28T10:56:57Z</time>
      </trkpt>
      <trkpt lat="45.92701" lon="3.2409">
        <ele>319.8</ele>
        <time>2024-04-28T10:56:58Z</time>
      </trkpt>
      <trkpt lat="45.927" lon="3.24096">
        <ele>319.8</ele>
        <time>2024-04-28T10:56:59Z</time>
      </trkpt>
      <trkpt lat="45.92698" lon="3.24102">
        <ele>319.8</ele>
        <time>2024-04-28T10:57:00Z</time>
      </trkpt>
      <trkpt lat="45.92696" lon="3.24108">
        <ele>320</ele>
        <time>2024-04-28T10:57:01Z</time>
      </trkpt>
      <trkpt lat="45.92695" lon="3.24114">
        <ele>320</ele>
        <time>2024-04-28T10:57:02Z</time>
      </trkpt>
      <trkpt lat="45.92693" lon="3.24121">
        <ele>320</ele>
        <time>2024-04-28T10:57:03Z</time>
      </trkpt>
      <trkpt lat="45.92691" lon="3.24127">
        <ele>320</ele>
        <time>2024-04-28T10:57:04Z</time>
      </trkpt>
      <trkpt lat="45.9269" lon="3.24134">
        <ele>320</ele>
        <time>2024-04-28T10:57:05Z</time>
      </trkpt>
      <trkpt lat="45.92688" lon="3.2414">
        <ele>320.2</ele>
        <time>2024-04-28T10:57:06Z</time>
      </trkpt>
      <trkpt lat="45.92686" lon="3.24146">
        <ele>320.2</ele>
        <time>2024-04-28T10:57:07Z</time>
      </trkpt>
      <trkpt lat="45.92685" lon="3.24153">
        <ele>320.2</ele>
        <time>2024-04-28T10:57:08Z</time>
      </trkpt>
      <trkpt lat="45.92683" lon="3.24159">
        <ele>320.2</ele>
        <time>2024-04-28T10:57:09Z</time>
      </trkpt>
      <trkpt lat="45.92681" lon="3.24165">
        <ele>320.2</ele>
        <time>2024-04-28T10:57:10Z</time>
      </trkpt>
      <trkpt lat="45.9268" lon="3.24173">
        <ele>320.2</ele>
        <time>2024-04-28T10:57:11Z</time>
      </trkpt>
      <trkpt lat="45.92679" lon="3.2418">
        <ele>320.2</ele>
        <time>2024-04-28T10:57:12Z</time>
      </trkpt>
      <trkpt lat="45.92679" lon="3.24187">
        <ele>320.4</ele>
        <time>2024-04-28T10:57:13Z</time>
      </trkpt>
      <trkpt lat="45.92678" lon="3.24194">
        <ele>320.4</ele>
        <time>2024-04-28T10:57:14Z</time>
      </trkpt>
      <trkpt lat="45.92678" lon="3.24202">
        <ele>320.4</ele>
        <time>2024-04-28T10:57:15Z</time>
      </trkpt>
      <trkpt lat="45.92677" lon="3.2421">
        <ele>320.4</ele>
        <time>2024-04-28T10:57:16Z</time>
      </trkpt>
      <trkpt lat="45.92676" lon="3.24219">
        <ele>320.4</ele>
        <time>2024-04-28T10:57:17Z</time>
      </trkpt>
      <trkpt lat="45.92676" lon="3.24227">
        <ele>320.6</ele>
        <time>2024-04-28T10:57:18Z</time>
      </trkpt>
      <trkpt lat="45.92675" lon="3.24236">
        <ele>320.6</ele>
        <time>2024-04-28T10:57:19Z</time>
      </trkpt>
      <trkpt lat="45.92674" lon="3.24244">
        <ele>320.6</ele>
        <time>2024-04-28T10:57:20Z</time>
      </trkpt>
      <trkpt lat="45.92674" lon="3.24253">
        <ele>320.6</ele>
        <time>2024-04-28T10:57:21Z</time>
      </trkpt>
      <trkpt lat="45.92673" lon="3.24261">
        <ele>320.6</ele>
        <time>2024-04-28T10:57:22Z</time>
      </trkpt>
      <trkpt lat="45.92673" lon="3.2427">
        <ele>320.8</ele>
        <time>2024-04-28T10:57:23Z</time>
      </trkpt>
      <trkpt lat="45.92672" lon="3.24278">
        <ele>320.8</ele>
        <time>2024-04-28T10:57:24Z</time>
      </trkpt>
      <trkpt lat="45.92671" lon="3.24286">
        <ele>320.8</ele>
        <time>2024-04-28T10:57:25Z</time>
      </trkpt>
      <trkpt lat="45.92669" lon="3.24295">
        <ele>320.8</ele>
        <time>2024-04-28T10:57:26Z</time>
      </trkpt>
      <trkpt lat="45.92668" lon="3.24302">
        <ele>321</ele>
        <time>2024-04-28T10:57:27Z</time>
      </trkpt>
      <trkpt lat="45.92666" lon="3.2431">
        <ele>320.8</ele>
        <time>2024-04-28T10:57:28Z</time>
      </trkpt>
      <trkpt lat="45.92664" lon="3.24319">
        <ele>321</ele>
        <time>2024-04-28T10:57:29Z</time>
      </trkpt>
      <trkpt lat="45.92663" lon="3.24328">
        <ele>321</ele>
        <time>2024-04-28T10:57:30Z</time>
      </trkpt>
      <trkpt lat="45.92661" lon="3.24336">
        <ele>321</ele>
        <time>2024-04-28T10:57:31Z</time>
      </trkpt>
      <trkpt lat="45.92659" lon="3.24345">
        <ele>321</ele>
        <time>2024-04-28T10:57:32Z</time>
      </trkpt>
      <trkpt lat="45.92657" lon="3.24354">
        <ele>321</ele>
        <time>2024-04-28T10:57:33Z</time>
      </trkpt>
      <trkpt lat="45.92655" lon="3.24362">
        <ele>321</ele>
        <time>2024-04-28T10:57:34Z</time>
      </trkpt>
      <trkpt lat="45.92653" lon="3.24371">
        <ele>321</ele>
        <time>2024-04-28T10:57:35Z</time>
      </trkpt>
      <trkpt lat="45.92651" lon="3.2438">
        <ele>321</ele>
        <time>2024-04-28T10:57:36Z</time>
      </trkpt>
      <trkpt lat="45.9265" lon="3.24389">
        <ele>321</ele>
        <time>2024-04-28T10:57:37Z</time>
      </trkpt>
      <trkpt lat="45.92648" lon="3.24398">
        <ele>321</ele>
        <time>2024-04-28T10:57:38Z</time>
      </trkpt>
      <trkpt lat="45.92646" lon="3.24406">
        <ele>321</ele>
        <time>2024-04-28T10:57:39Z</time>
      </trkpt>
      <trkpt lat="45.92643" lon="3.24415">
        <ele>321</ele>
        <time>2024-04-28T10:57:40Z</time>
      </trkpt>
      <trkpt lat="45.9264" lon="3.24423">
        <ele>321</ele>
        <time>2024-04-28T10:57:41Z</time>
      </trkpt>
      <trkpt lat="45.92636" lon="3.24431">
        <ele>320.8</ele>
        <time>2024-04-28T10:57:42Z</time>
      </trkpt>
      <trkpt lat="45.92633" lon="3.24439">
        <ele>321</ele>
        <time>2024-04-28T10:57:43Z</time>
      </trkpt>
      <trkpt lat="45.9263" lon="3.24447">
        <ele>321</ele>
        <time>2024-04-28T10:57:44Z</time>
      </trkpt>
      <trkpt lat="45.92627" lon="3.24455">
        <ele>321</ele>
        <time>2024-04-28T10:57:45Z</time>
      </trkpt>
      <trkpt lat="45.92624" lon="3.24462">
        <ele>320.8</ele>
        <time>2024-04-28T10:57:46Z</time>
      </trkpt>
      <trkpt lat="45.9262" lon="3.2447">
        <ele>320.8</ele>
        <time>2024-04-28T10:57:47Z</time>
      </trkpt>
      <trkpt lat="45.92617" lon="3.24478">
        <ele>320.8</ele>
        <time>2024-04-28T10:57:48Z</time>
      </trkpt>
      <trkpt lat="45.92614" lon="3.24486">
        <ele>321</ele>
        <time>2024-04-28T10:57:49Z</time>
      </trkpt>
      <trkpt lat="45.92611" lon="3.24493">
        <ele>320.8</ele>
        <time>2024-04-28T10:57:50Z</time>
      </trkpt>
      <trkpt lat="45.92608" lon="3.24501">
        <ele>320.8</ele>
        <time>2024-04-28T10:57:51Z</time>
      </trkpt>
      <trkpt lat="45.92605" lon="3.24509">
        <ele>320.8</ele>
        <time>2024-04-28T10:57:52Z</time>
      </trkpt>
      <trkpt lat="45.926" lon="3.24515">
        <ele>320.8</ele>
        <time>2024-04-28T10:57:53Z</time>
      </trkpt>
      <trkpt lat="45.92596" lon="3.24521">
        <ele>320.8</ele>
        <time>2024-04-28T10:57:54Z</time>
      </trkpt>
      <trkpt lat="45.92592" lon="3.24527">
        <ele>320.8</ele>
        <time>2024-04-28T10:57:55Z</time>
      </trkpt>
      <trkpt lat="45.92588" lon="3.24533">
        <ele>320.8</ele>
        <time>2024-04-28T10:57:56Z</time>
      </trkpt>
      <trkpt lat="45.92584" lon="3.24538">
        <ele>320.8</ele>
        <time>2024-04-28T10:57:57Z</time>
      </trkpt>
      <trkpt lat="45.9258" lon="3.24543">
        <ele>320.8</ele>
        <time>2024-04-28T10:57:58Z</time>
      </trkpt>
      <trkpt lat="45.92577" lon="3.24548">
        <ele>320.8</ele>
        <time>2024-04-28T10:57:59Z</time>
      </trkpt>
      <trkpt lat="45.92574" lon="3.24553">
        <ele>320.8</ele>
        <time>2024-04-28T10:58:00Z</time>
      </trkpt>
      <trkpt lat="45.9257" lon="3.24558">
        <ele>320.8</ele>
        <time>2024-04-28T10:58:01Z</time>
      </trkpt>
      <trkpt lat="45.92567" lon="3.24563">
        <ele>320.8</ele>
        <time>2024-04-28T10:58:02Z</time>
      </trkpt>
      <trkpt lat="45.92564" lon="3.24571">
        <ele>320.8</ele>
        <time>2024-04-28T10:58:03Z</time>
      </trkpt>
      <trkpt lat="45.92563" lon="3.24579">
        <ele>320.8</ele>
        <time>2024-04-28T10:58:04Z</time>
      </trkpt>
      <trkpt lat="45.92562" lon="3.24587">
        <ele>320.8</ele>
        <time>2024-04-28T10:58:05Z</time>
      </trkpt>
      <trkpt lat="45.92561" lon="3.24596">
        <ele>320.8</ele>
        <time>2024-04-28T10:58:06Z</time>
      </trkpt>
      <trkpt lat="45.9256" lon="3.24606">
        <ele>320.8</ele>
        <time>2024-04-28T10:58:07Z</time>
      </trkpt>
      <trkpt lat="45.92558" lon="3.24616">
        <ele>320.8</ele>
        <time>2024-04-28T10:58:08Z</time>
      </trkpt>
      <trkpt lat="45.92557" lon="3.24625">
        <ele>321</ele>
        <time>2024-04-28T10:58:09Z</time>
      </trkpt>
      <trkpt lat="45.92555" lon="3.24633">
        <ele>321</ele>
        <time>2024-04-28T10:58:10Z</time>
      </trkpt>
      <trkpt lat="45.92553" lon="3.24642">
        <ele>321</ele>
        <time>2024-04-28T10:58:11Z</time>
      </trkpt>
      <trkpt lat="45.92551" lon="3.2465">
        <ele>321</ele>
        <time>2024-04-28T10:58:12Z</time>
      </trkpt>
      <trkpt lat="45.92548" lon="3.24659">
        <ele>321</ele>
        <time>2024-04-28T10:58:13Z</time>
      </trkpt>
      <trkpt lat="45.92546" lon="3.24667">
        <ele>321</ele>
        <time>2024-04-28T10:58:14Z</time>
      </trkpt>
      <trkpt lat="45.92544" lon="3.24675">
        <ele>321</ele>
        <time>2024-04-28T10:58:15Z</time>
      </trkpt>
      <trkpt lat="45.92542" lon="3.24684">
        <ele>321</ele>
        <time>2024-04-28T10:58:16Z</time>
      </trkpt>
      <trkpt lat="45.9254" lon="3.24692">
        <ele>321</ele>
        <time>2024-04-28T10:58:17Z</time>
      </trkpt>
      <trkpt lat="45.92538" lon="3.247">
        <ele>321.2</ele>
        <time>2024-04-28T10:58:18Z</time>
      </trkpt>
      <trkpt lat="45.92536" lon="3.24709">
        <ele>321.2</ele>
        <time>2024-04-28T10:58:19Z</time>
      </trkpt>
      <trkpt lat="45.92533" lon="3.24717">
        <ele>321.2</ele>
        <time>2024-04-28T10:58:20Z</time>
      </trkpt>
      <trkpt lat="45.92531" lon="3.24726">
        <ele>321.2</ele>
        <time>2024-04-28T10:58:21Z</time>
      </trkpt>
      <trkpt lat="45.92529" lon="3.24734">
        <ele>321.4</ele>
        <time>2024-04-28T10:58:22Z</time>
      </trkpt>
      <trkpt lat="45.92527" lon="3.24742">
        <ele>321.4</ele>
        <time>2024-04-28T10:58:23Z</time>
      </trkpt>
      <trkpt lat="45.92525" lon="3.24751">
        <ele>321.4</ele>
        <time>2024-04-28T10:58:24Z</time>
      </trkpt>
      <trkpt lat="45.92523" lon="3.24759">
        <ele>321.4</ele>
        <time>2024-04-28T10:58:25Z</time>
      </trkpt>
      <trkpt lat="45.9252" lon="3.24768">
        <ele>321.4</ele>
        <time>2024-04-28T10:58:26Z</time>
      </trkpt>
      <trkpt lat="45.92518" lon="3.24777">
        <ele>321.4</ele>
        <time>2024-04-28T10:58:27Z</time>
      </trkpt>
      <trkpt lat="45.92516" lon="3.24785">
        <ele>321.4</ele>
        <time>2024-04-28T10:58:28Z</time>
      </trkpt>
      <trkpt lat="45.92514" lon="3.24794">
        <ele>321.4</ele>
        <time>2024-04-28T10:58:29Z</time>
      </trkpt>
      <trkpt lat="45.92512" lon="3.24803">
        <ele>321.4</ele>
        <time>2024-04-28T10:58:30Z</time>
      </trkpt>
      <trkpt lat="45.92509" lon="3.24812">
        <ele>321.4</ele>
        <time>2024-04-28T10:58:31Z</time>
      </trkpt>
      <trkpt lat="45.92507" lon="3.24821">
        <ele>321.4</ele>
        <time>2024-04-28T10:58:32Z</time>
      </trkpt>
      <trkpt lat="45.92505" lon="3.2483">
        <ele>321.4</ele>
        <time>2024-04-28T10:58:33Z</time>
      </trkpt>
      <trkpt lat="45.92502" lon="3.2484">
        <ele>321.6</ele>
        <time>2024-04-28T10:58:34Z</time>
      </trkpt>
      <trkpt lat="45.925" lon="3.24848">
        <ele>321.6</ele>
        <time>2024-04-28T10:58:35Z</time>
      </trkpt>
      <trkpt lat="45.92498" lon="3.24857">
        <ele>321.6</ele>
        <time>2024-04-28T10:58:36Z</time>
      </trkpt>
      <trkpt lat="45.92495" lon="3.24866">
        <ele>321.6</ele>
        <time>2024-04-28T10:58:37Z</time>
      </trkpt>
      <trkpt lat="45.92493" lon="3.24875">
        <ele>321.6</ele>
        <time>2024-04-28T10:58:38Z</time>
      </trkpt>
      <trkpt lat="45.92491" lon="3.24883">
        <ele>321.6</ele>
        <time>2024-04-28T10:58:39Z</time>
      </trkpt>
      <trkpt lat="45.92489" lon="3.24892">
        <ele>321.6</ele>
        <time>2024-04-28T10:58:40Z</time>
      </trkpt>
      <trkpt lat="45.92487" lon="3.24901">
        <ele>321.8</ele>
        <time>2024-04-28T10:58:41Z</time>
      </trkpt>
      <trkpt lat="45.92484" lon="3.24909">
        <ele>321.8</ele>
        <time>2024-04-28T10:58:42Z</time>
      </trkpt>
      <trkpt lat="45.92482" lon="3.24918">
        <ele>321.8</ele>
        <time>2024-04-28T10:58:43Z</time>
      </trkpt>
      <trkpt lat="45.9248" lon="3.24926">
        <ele>321.8</ele>
        <time>2024-04-28T10:58:44Z</time>
      </trkpt>
      <trkpt lat="45.92478" lon="3.24935">
        <ele>321.8</ele>
        <time>2024-04-28T10:58:45Z</time>
      </trkpt>
      <trkpt lat="45.92476" lon="3.24943">
        <ele>321.8</ele>
        <time>2024-04-28T10:58:46Z</time>
      </trkpt>
      <trkpt lat="45.92474" lon="3.24951">
        <ele>321.8</ele>
        <time>2024-04-28T10:58:47Z</time>
      </trkpt>
      <trkpt lat="45.92472" lon="3.24959">
        <ele>321.8</ele>
        <time>2024-04-28T10:58:48Z</time>
      </trkpt>
      <trkpt lat="45.92469" lon="3.24968">
        <ele>321.8</ele>
        <time>2024-04-28T10:58:49Z</time>
      </trkpt>
      <trkpt lat="45.92467" lon="3.24976">
        <ele>321.8</ele>
        <time>2024-04-28T10:58:50Z</time>
      </trkpt>
      <trkpt lat="45.92465" lon="3.24984">
        <ele>321.8</ele>
        <time>2024-04-28T10:58:51Z</time>
      </trkpt>
      <trkpt lat="45.92463" lon="3.24993">
        <ele>322</ele>
        <time>2024-04-28T10:58:52Z</time>
      </trkpt>
      <trkpt lat="45.92461" lon="3.25001">
        <ele>322</ele>
        <time>2024-04-28T10:58:53Z</time>
      </trkpt>
      <trkpt lat="45.92459" lon="3.2501">
        <ele>322</ele>
        <time>2024-04-28T10:58:54Z</time>
      </trkpt>
      <trkpt lat="45.92457" lon="3.25018">
        <ele>322</ele>
        <time>2024-04-28T10:58:55Z</time>
      </trkpt>
      <trkpt lat="45.92454" lon="3.25028">
        <ele>322</ele>
        <time>2024-04-28T10:58:56Z</time>
      </trkpt>
      <trkpt lat="45.92453" lon="3.25037">
        <ele>322</ele>
        <time>2024-04-28T10:58:57Z</time>
      </trkpt>
      <trkpt lat="45.92452" lon="3.25046">
        <ele>322</ele>
        <time>2024-04-28T10:58:58Z</time>
      </trkpt>
      <trkpt lat="45.9245" lon="3.25055">
        <ele>322</ele>
        <time>2024-04-28T10:58:59Z</time>
      </trkpt>
      <trkpt lat="45.92449" lon="3.25065">
        <ele>322</ele>
        <time>2024-04-28T10:59:00Z</time>
      </trkpt>
      <trkpt lat="45.92447" lon="3.25074">
        <ele>322</ele>
        <time>2024-04-28T10:59:01Z</time>
      </trkpt>
      <trkpt lat="45.92446" lon="3.25084">
        <ele>322</ele>
        <time>2024-04-28T10:59:02Z</time>
      </trkpt>
      <trkpt lat="45.92444" lon="3.25093">
        <ele>322</ele>
        <time>2024-04-28T10:59:03Z</time>
      </trkpt>
      <trkpt lat="45.92443" lon="3.25103">
        <ele>322</ele>
        <time>2024-04-28T10:59:04Z</time>
      </trkpt>
      <trkpt lat="45.92441" lon="3.25113">
        <ele>322</ele>
        <time>2024-04-28T10:59:05Z</time>
      </trkpt>
      <trkpt lat="45.9244" lon="3.25123">
        <ele>322</ele>
        <time>2024-04-28T10:59:06Z</time>
      </trkpt>
      <trkpt lat="45.92439" lon="3.25133">
        <ele>322</ele>
        <time>2024-04-28T10:59:07Z</time>
      </trkpt>
      <trkpt lat="45.92439" lon="3.25143">
        <ele>322</ele>
        <time>2024-04-28T10:59:08Z</time>
      </trkpt>
      <trkpt lat="45.92438" lon="3.25153">
        <ele>322.2</ele>
        <time>2024-04-28T10:59:09Z</time>
      </trkpt>
      <trkpt lat="45.92438" lon="3.25164">
        <ele>321.8</ele>
        <time>2024-04-28T10:59:10Z</time>
      </trkpt>
      <trkpt lat="45.92437" lon="3.25174">
        <ele>321.8</ele>
        <time>2024-04-28T10:59:11Z</time>
      </trkpt>
      <trkpt lat="45.92437" lon="3.25183">
        <ele>321.8</ele>
        <time>2024-04-28T10:59:12Z</time>
      </trkpt>
      <trkpt lat="45.92436" lon="3.25193">
        <ele>321.8</ele>
        <time>2024-04-28T10:59:13Z</time>
      </trkpt>
      <trkpt lat="45.92436" lon="3.25203">
        <ele>321.8</ele>
        <time>2024-04-28T10:59:14Z</time>
      </trkpt>
      <trkpt lat="45.92435" lon="3.25212">
        <ele>321.6</ele>
        <time>2024-04-28T10:59:15Z</time>
      </trkpt>
      <trkpt lat="45.92435" lon="3.25222">
        <ele>321.6</ele>
        <time>2024-04-28T10:59:16Z</time>
      </trkpt>
      <trkpt lat="45.92434" lon="3.25232">
        <ele>321.6</ele>
        <time>2024-04-28T10:59:17Z</time>
      </trkpt>
      <trkpt lat="45.92433" lon="3.25242">
        <ele>321.6</ele>
        <time>2024-04-28T10:59:18Z</time>
      </trkpt>
      <trkpt lat="45.92433" lon="3.25251">
        <ele>321.6</ele>
        <time>2024-04-28T10:59:19Z</time>
      </trkpt>
      <trkpt lat="45.92432" lon="3.25261">
        <ele>321.6</ele>
        <time>2024-04-28T10:59:20Z</time>
      </trkpt>
      <trkpt lat="45.92432" lon="3.25271">
        <ele>321.4</ele>
        <time>2024-04-28T10:59:21Z</time>
      </trkpt>
      <trkpt lat="45.92431" lon="3.25281">
        <ele>321.4</ele>
        <time>2024-04-28T10:59:22Z</time>
      </trkpt>
      <trkpt lat="45.92431" lon="3.25292">
        <ele>321.4</ele>
        <time>2024-04-28T10:59:23Z</time>
      </trkpt>
      <trkpt lat="45.9243" lon="3.25302">
        <ele>321.4</ele>
        <time>2024-04-28T10:59:24Z</time>
      </trkpt>
      <trkpt lat="45.9243" lon="3.25312">
        <ele>321.4</ele>
        <time>2024-04-28T10:59:25Z</time>
      </trkpt>
      <trkpt lat="45.92429" lon="3.25322">
        <ele>321.2</ele>
        <time>2024-04-28T10:59:26Z</time>
      </trkpt>
      <trkpt lat="45.92429" lon="3.25332">
        <ele>321.2</ele>
        <time>2024-04-28T10:59:27Z</time>
      </trkpt>
      <trkpt lat="45.92428" lon="3.25343">
        <ele>321.2</ele>
        <time>2024-04-28T10:59:28Z</time>
      </trkpt>
      <trkpt lat="45.92428" lon="3.25353">
        <ele>321</ele>
        <time>2024-04-28T10:59:29Z</time>
      </trkpt>
      <trkpt lat="45.92427" lon="3.25364">
        <ele>321</ele>
        <time>2024-04-28T10:59:30Z</time>
      </trkpt>
      <trkpt lat="45.92426" lon="3.25374">
        <ele>320.8</ele>
        <time>2024-04-28T10:59:31Z</time>
      </trkpt>
      <trkpt lat="45.92425" lon="3.25384">
        <ele>320.8</ele>
        <time>2024-04-28T10:59:32Z</time>
      </trkpt>
      <trkpt lat="45.92424" lon="3.25394">
        <ele>320.8</ele>
        <time>2024-04-28T10:59:33Z</time>
      </trkpt>
      <trkpt lat="45.92423" lon="3.25404">
        <ele>320.8</ele>
        <time>2024-04-28T10:59:34Z</time>
      </trkpt>
      <trkpt lat="45.92421" lon="3.25414">
        <ele>320.6</ele>
        <time>2024-04-28T10:59:35Z</time>
      </trkpt>
      <trkpt lat="45.9242" lon="3.25425">
        <ele>320.6</ele>
        <time>2024-04-28T10:59:36Z</time>
      </trkpt>
      <trkpt lat="45.92419" lon="3.25435">
        <ele>320.6</ele>
        <time>2024-04-28T10:59:37Z</time>
      </trkpt>
      <trkpt lat="45.92418" lon="3.25445">
        <ele>320.4</ele>
        <time>2024-04-28T10:59:38Z</time>
      </trkpt>
      <trkpt lat="45.92417" lon="3.25455">
        <ele>320.4</ele>
        <time>2024-04-28T10:59:39Z</time>
      </trkpt>
      <trkpt lat="45.92415" lon="3.25466">
        <ele>320.2</ele>
        <time>2024-04-28T10:59:40Z</time>
      </trkpt>
      <trkpt lat="45.92414" lon="3.25476">
        <ele>320.2</ele>
        <time>2024-04-28T10:59:41Z</time>
      </trkpt>
      <trkpt lat="45.92412" lon="3.25486">
        <ele>320</ele>
        <time>2024-04-28T10:59:42Z</time>
      </trkpt>
      <trkpt lat="45.92411" lon="3.25497">
        <ele>320</ele>
        <time>2024-04-28T10:59:43Z</time>
      </trkpt>
      <trkpt lat="45.9241" lon="3.25507">
        <ele>319.8</ele>
        <time>2024-04-28T10:59:44Z</time>
      </trkpt>
      <trkpt lat="45.92408" lon="3.25517">
        <ele>319.8</ele>
        <time>2024-04-28T10:59:45Z</time>
      </trkpt>
      <trkpt lat="45.92407" lon="3.25527">
        <ele>319.8</ele>
        <time>2024-04-28T10:59:46Z</time>
      </trkpt>
      <trkpt lat="45.92405" lon="3.25538">
        <ele>319.6</ele>
        <time>2024-04-28T10:59:47Z</time>
      </trkpt>
      <trkpt lat="45.92404" lon="3.25548">
        <ele>319.6</ele>
        <time>2024-04-28T10:59:48Z</time>
      </trkpt>
      <trkpt lat="45.92402" lon="3.25558">
        <ele>319.4</ele>
        <time>2024-04-28T10:59:49Z</time>
      </trkpt>
      <trkpt lat="45.92401" lon="3.25568">
        <ele>319.4</ele>
        <time>2024-04-28T10:59:50Z</time>
      </trkpt>
      <trkpt lat="45.924" lon="3.25578">
        <ele>319.4</ele>
        <time>2024-04-28T10:59:51Z</time>
      </trkpt>
      <trkpt lat="45.92398" lon="3.25588">
        <ele>319.4</ele>
        <time>2024-04-28T10:59:52Z</time>
      </trkpt>
      <trkpt lat="45.92397" lon="3.25599">
        <ele>319.4</ele>
        <time>2024-04-28T10:59:53Z</time>
      </trkpt>
      <trkpt lat="45.92395" lon="3.25609">
        <ele>319.2</ele>
        <time>2024-04-28T10:59:54Z</time>
      </trkpt>
      <trkpt lat="45.92394" lon="3.25619">
        <ele>319.2</ele>
        <time>2024-04-28T10:59:55Z</time>
      </trkpt>
      <trkpt lat="45.92393" lon="3.2563">
        <ele>319.2</ele>
        <time>2024-04-28T10:59:56Z</time>
      </trkpt>
      <trkpt lat="45.92391" lon="3.2564">
        <ele>319</ele>
        <time>2024-04-28T10:59:57Z</time>
      </trkpt>
      <trkpt lat="45.9239" lon="3.2565">
        <ele>319</ele>
        <time>2024-04-28T10:59:58Z</time>
      </trkpt>
      <trkpt lat="45.92388" lon="3.2566">
        <ele>318.8</ele>
        <time>2024-04-28T10:59:59Z</time>
      </trkpt>
      <trkpt lat="45.92387" lon="3.2567">
        <ele>318.8</ele>
        <time>2024-04-28T11:00:00Z</time>
      </trkpt>
      <trkpt lat="45.92386" lon="3.2568">
        <ele>318.6</ele>
        <time>2024-04-28T11:00:01Z</time>
      </trkpt>
      <trkpt lat="45.92384" lon="3.2569">
        <ele>318.6</ele>
        <time>2024-04-28T11:00:02Z</time>
      </trkpt>
      <trkpt lat="45.92383" lon="3.25701">
        <ele>318.6</ele>
        <time>2024-04-28T11:00:03Z</time>
      </trkpt>
      <trkpt lat="45.92381" lon="3.25712">
        <ele>318.4</ele>
        <time>2024-04-28T11:00:04Z</time>
      </trkpt>
      <trkpt lat="45.9238" lon="3.25722">
        <ele>318.4</ele>
        <time>2024-04-28T11:00:05Z</time>
      </trkpt>
      <trkpt lat="45.92378" lon="3.25732">
        <ele>318.2</ele>
        <time>2024-04-28T11:00:06Z</time>
      </trkpt>
      <trkpt lat="45.92377" lon="3.25742">
        <ele>318.2</ele>
        <time>2024-04-28T11:00:07Z</time>
      </trkpt>
      <trkpt lat="45.92376" lon="3.25752">
        <ele>318</ele>
        <time>2024-04-28T11:00:08Z</time>
      </trkpt>
      <trkpt lat="45.92375" lon="3.25763">
        <ele>318</ele>
        <time>2024-04-28T11:00:09Z</time>
      </trkpt>
      <trkpt lat="45.92374" lon="3.25774">
        <ele>317.6</ele>
        <time>2024-04-28T11:00:10Z</time>
      </trkpt>
      <trkpt lat="45.92374" lon="3.25784">
        <ele>317.6</ele>
        <time>2024-04-28T11:00:11Z</time>
      </trkpt>
      <trkpt lat="45.92373" lon="3.25795">
        <ele>317.6</ele>
        <time>2024-04-28T11:00:12Z</time>
      </trkpt>
      <trkpt lat="45.92372" lon="3.25806">
        <ele>317.4</ele>
        <time>2024-04-28T11:00:13Z</time>
      </trkpt>
      <trkpt lat="45.92372" lon="3.25817">
        <ele>317.2</ele>
        <time>2024-04-28T11:00:14Z</time>
      </trkpt>
      <trkpt lat="45.92371" lon="3.25827">
        <ele>317</ele>
        <time>2024-04-28T11:00:15Z</time>
      </trkpt>
      <trkpt lat="45.9237" lon="3.25838">
        <ele>316.8</ele>
        <time>2024-04-28T11:00:16Z</time>
      </trkpt>
      <trkpt lat="45.9237" lon="3.25848">
        <ele>316.8</ele>
        <time>2024-04-28T11:00:17Z</time>
      </trkpt>
      <trkpt lat="45.92369" lon="3.25868">
        <ele>316.6</ele>
        <time>2024-04-28T11:00:18Z</time>
      </trkpt>
      <trkpt lat="45.92369" lon="3.25868">
        <ele>316.4</ele>
        <time>2024-04-28T11:00:19Z</time>
      </trkpt>
      <trkpt lat="45.92368" lon="3.25878">
        <ele>316.4</ele>
        <time>2024-04-28T11:00:20Z</time>
      </trkpt>
      <trkpt lat="45.92367" lon="3.25889">
        <ele>316.2</ele>
        <time>2024-04-28T11:00:21Z</time>
      </trkpt>
      <trkpt lat="45.92367" lon="3.25899">
        <ele>316.2</ele>
        <time>2024-04-28T11:00:22Z</time>
      </trkpt>
      <trkpt lat="45.92366" lon="3.25909">
        <ele>316.2</ele>
        <time>2024-04-28T11:00:23Z</time>
      </trkpt>
      <trkpt lat="45.92366" lon="3.25919">
        <ele>316</ele>
        <time>2024-04-28T11:00:24Z</time>
      </trkpt>
      <trkpt lat="45.92365" lon="3.2593">
        <ele>316</ele>
        <time>2024-04-28T11:00:25Z</time>
      </trkpt>
      <trkpt lat="45.92364" lon="3.25941">
        <ele>315.8</ele>
        <time>2024-04-28T11:00:26Z</time>
      </trkpt>
      <trkpt lat="45.92364" lon="3.25951">
        <ele>315.8</ele>
        <time>2024-04-28T11:00:27Z</time>
      </trkpt>
      <trkpt lat="45.92363" lon="3.25961">
        <ele>315.6</ele>
        <time>2024-04-28T11:00:28Z</time>
      </trkpt>
      <trkpt lat="45.92363" lon="3.25972">
        <ele>315.4</ele>
        <time>2024-04-28T11:00:29Z</time>
      </trkpt>
      <trkpt lat="45.92362" lon="3.25982">
        <ele>315.4</ele>
        <time>2024-04-28T11:00:30Z</time>
      </trkpt>
      <trkpt lat="45.92361" lon="3.25993">
        <ele>315.4</ele>
        <time>2024-04-28T11:00:31Z</time>
      </trkpt>
      <trkpt lat="45.92361" lon="3.26003">
        <ele>315.2</ele>
        <time>2024-04-28T11:00:32Z</time>
      </trkpt>
      <trkpt lat="45.9236" lon="3.26013">
        <ele>315.2</ele>
        <time>2024-04-28T11:00:33Z</time>
      </trkpt>
      <trkpt lat="45.9236" lon="3.26023">
        <ele>315</ele>
        <time>2024-04-28T11:00:34Z</time>
      </trkpt>
      <trkpt lat="45.92359" lon="3.26033">
        <ele>315</ele>
        <time>2024-04-28T11:00:35Z</time>
      </trkpt>
      <trkpt lat="45.92358" lon="3.26043">
        <ele>314.8</ele>
        <time>2024-04-28T11:00:36Z</time>
      </trkpt>
      <trkpt lat="45.92358" lon="3.26053">
        <ele>314.8</ele>
        <time>2024-04-28T11:00:37Z</time>
      </trkpt>
      <trkpt lat="45.92358" lon="3.26063">
        <ele>314.6</ele>
        <time>2024-04-28T11:00:38Z</time>
      </trkpt>
      <trkpt lat="45.92358" lon="3.26073">
        <ele>314.4</ele>
        <time>2024-04-28T11:00:39Z</time>
      </trkpt>
      <trkpt lat="45.92358" lon="3.26083">
        <ele>314.4</ele>
        <time>2024-04-28T11:00:40Z</time>
      </trkpt>
      <trkpt lat="45.92358" lon="3.26093">
        <ele>314.4</ele>
        <time>2024-04-28T11:00:41Z</time>
      </trkpt>
      <trkpt lat="45.92358" lon="3.26103">
        <ele>314.2</ele>
        <time>2024-04-28T11:00:42Z</time>
      </trkpt>
      <trkpt lat="45.92358" lon="3.26113">
        <ele>314.2</ele>
        <time>2024-04-28T11:00:43Z</time>
      </trkpt>
      <trkpt lat="45.92358" lon="3.26123">
        <ele>314</ele>
        <time>2024-04-28T11:00:44Z</time>
      </trkpt>
      <trkpt lat="45.92358" lon="3.26133">
        <ele>314</ele>
        <time>2024-04-28T11:00:45Z</time>
      </trkpt>
      <trkpt lat="45.92358" lon="3.26143">
        <ele>313.8</ele>
        <time>2024-04-28T11:00:46Z</time>
      </trkpt>
      <trkpt lat="45.92358" lon="3.26153">
        <ele>313.8</ele>
        <time>2024-04-28T11:00:47Z</time>
      </trkpt>
      <trkpt lat="45.92358" lon="3.26163">
        <ele>313.8</ele>
        <time>2024-04-28T11:00:48Z</time>
      </trkpt>
      <trkpt lat="45.92358" lon="3.26173">
        <ele>313.6</ele>
        <time>2024-04-28T11:00:49Z</time>
      </trkpt>
      <trkpt lat="45.92358" lon="3.26183">
        <ele>313.6</ele>
        <time>2024-04-28T11:00:50Z</time>
      </trkpt>
      <trkpt lat="45.92358" lon="3.26193">
        <ele>313.6</ele>
        <time>2024-04-28T11:00:51Z</time>
      </trkpt>
      <trkpt lat="45.92358" lon="3.26204">
        <ele>313.4</ele>
        <time>2024-04-28T11:00:52Z</time>
      </trkpt>
      <trkpt lat="45.92358" lon="3.26214">
        <ele>313.4</ele>
        <time>2024-04-28T11:00:53Z</time>
      </trkpt>
      <trkpt lat="45.92358" lon="3.26223">
        <ele>313.2</ele>
        <time>2024-04-28T11:00:54Z</time>
      </trkpt>
      <trkpt lat="45.92358" lon="3.26234">
        <ele>313.2</ele>
        <time>2024-04-28T11:00:55Z</time>
      </trkpt>
      <trkpt lat="45.92357" lon="3.26243">
        <ele>313.2</ele>
        <time>2024-04-28T11:00:56Z</time>
      </trkpt>
      <trkpt lat="45.92356" lon="3.26253">
        <ele>313.2</ele>
        <time>2024-04-28T11:00:57Z</time>
      </trkpt>
      <trkpt lat="45.92355" lon="3.26263">
        <ele>313.2</ele>
        <time>2024-04-28T11:00:58Z</time>
      </trkpt>
      <trkpt lat="45.92354" lon="3.26272">
        <ele>313.2</ele>
        <time>2024-04-28T11:00:59Z</time>
      </trkpt>
      <trkpt lat="45.92353" lon="3.26282">
        <ele>313</ele>
        <time>2024-04-28T11:01:00Z</time>
      </trkpt>
      <trkpt lat="45.92352" lon="3.26292">
        <ele>313</ele>
        <time>2024-04-28T11:01:01Z</time>
      </trkpt>
      <trkpt lat="45.92352" lon="3.26301">
        <ele>312.8</ele>
        <time>2024-04-28T11:01:02Z</time>
      </trkpt>
      <trkpt lat="45.92351" lon="3.2631">
        <ele>312.8</ele>
        <time>2024-04-28T11:01:03Z</time>
      </trkpt>
      <trkpt lat="45.9235" lon="3.2632">
        <ele>312.8</ele>
        <time>2024-04-28T11:01:04Z</time>
      </trkpt>
      <trkpt lat="45.92349" lon="3.26329">
        <ele>312.8</ele>
        <time>2024-04-28T11:01:05Z</time>
      </trkpt>
      <trkpt lat="45.92348" lon="3.26337">
        <ele>312.8</ele>
        <time>2024-04-28T11:01:06Z</time>
      </trkpt>
      <trkpt lat="45.92348" lon="3.26346">
        <ele>312.6</ele>
        <time>2024-04-28T11:01:07Z</time>
      </trkpt>
      <trkpt lat="45.92347" lon="3.26355">
        <ele>312.6</ele>
        <time>2024-04-28T11:01:08Z</time>
      </trkpt>
      <trkpt lat="45.92346" lon="3.26365">
        <ele>312.6</ele>
        <time>2024-04-28T11:01:09Z</time>
      </trkpt>
      <trkpt lat="45.92345" lon="3.26374">
        <ele>312.6</ele>
        <time>2024-04-28T11:01:10Z</time>
      </trkpt>
      <trkpt lat="45.92344" lon="3.26383">
        <ele>312.4</ele>
        <time>2024-04-28T11:01:11Z</time>
      </trkpt>
      <trkpt lat="45.92344" lon="3.26392">
        <ele>312.4</ele>
        <time>2024-04-28T11:01:12Z</time>
      </trkpt>
      <trkpt lat="45.92343" lon="3.26401">
        <ele>312.4</ele>
        <time>2024-04-28T11:01:13Z</time>
      </trkpt>
      <trkpt lat="45.92342" lon="3.26411">
        <ele>312.4</ele>
        <time>2024-04-28T11:01:14Z</time>
      </trkpt>
      <trkpt lat="45.92341" lon="3.2642">
        <ele>312.4</ele>
        <time>2024-04-28T11:01:15Z</time>
      </trkpt>
      <trkpt lat="45.9234" lon="3.2643">
        <ele>312.2</ele>
        <time>2024-04-28T11:01:16Z</time>
      </trkpt>
      <trkpt lat="45.92339" lon="3.26439">
        <ele>312.2</ele>
        <time>2024-04-28T11:01:17Z</time>
      </trkpt>
      <trkpt lat="45.92338" lon="3.26459">
        <ele>312.2</ele>
        <time>2024-04-28T11:01:18Z</time>
      </trkpt>
      <trkpt lat="45.92338" lon="3.26459">
        <ele>312.2</ele>
        <time>2024-04-28T11:01:19Z</time>
      </trkpt>
      <trkpt lat="45.92337" lon="3.26469">
        <ele>312.2</ele>
        <time>2024-04-28T11:01:20Z</time>
      </trkpt>
      <trkpt lat="45.92336" lon="3.26478">
        <ele>312</ele>
        <time>2024-04-28T11:01:21Z</time>
      </trkpt>
      <trkpt lat="45.92335" lon="3.26488">
        <ele>312</ele>
        <time>2024-04-28T11:01:22Z</time>
      </trkpt>
      <trkpt lat="45.92334" lon="3.26497">
        <ele>312</ele>
        <time>2024-04-28T11:01:23Z</time>
      </trkpt>
      <trkpt lat="45.92333" lon="3.26507">
        <ele>312</ele>
        <time>2024-04-28T11:01:24Z</time>
      </trkpt>
      <trkpt lat="45.92332" lon="3.26516">
        <ele>312</ele>
        <time>2024-04-28T11:01:25Z</time>
      </trkpt>
      <trkpt lat="45.92332" lon="3.26526">
        <ele>311.8</ele>
        <time>2024-04-28T11:01:26Z</time>
      </trkpt>
      <trkpt lat="45.92331" lon="3.26536">
        <ele>311.8</ele>
        <time>2024-04-28T11:01:27Z</time>
      </trkpt>
      <trkpt lat="45.9233" lon="3.26545">
        <ele>311.8</ele>
        <time>2024-04-28T11:01:28Z</time>
      </trkpt>
      <trkpt lat="45.92329" lon="3.26555">
        <ele>311.8</ele>
        <time>2024-04-28T11:01:29Z</time>
      </trkpt>
      <trkpt lat="45.92328" lon="3.26565">
        <ele>311.8</ele>
        <time>2024-04-28T11:01:30Z</time>
      </trkpt>
      <trkpt lat="45.92327" lon="3.26575">
        <ele>311.8</ele>
        <time>2024-04-28T11:01:31Z</time>
      </trkpt>
      <trkpt lat="45.92326" lon="3.26584">
        <ele>311.6</ele>
        <time>2024-04-28T11:01:32Z</time>
      </trkpt>
      <trkpt lat="45.92326" lon="3.26593">
        <ele>311.6</ele>
        <time>2024-04-28T11:01:33Z</time>
      </trkpt>
      <trkpt lat="45.92325" lon="3.26603">
        <ele>311.6</ele>
        <time>2024-04-28T11:01:34Z</time>
      </trkpt>
      <trkpt lat="45.92325" lon="3.26612">
        <ele>311.4</ele>
        <time>2024-04-28T11:01:35Z</time>
      </trkpt>
      <trkpt lat="45.92324" lon="3.26622">
        <ele>311.4</ele>
        <time>2024-04-28T11:01:36Z</time>
      </trkpt>
      <trkpt lat="45.92324" lon="3.26631">
        <ele>311.4</ele>
        <time>2024-04-28T11:01:37Z</time>
      </trkpt>
      <trkpt lat="45.92323" lon="3.26641">
        <ele>311.4</ele>
        <time>2024-04-28T11:01:38Z</time>
      </trkpt>
      <trkpt lat="45.92322" lon="3.2665">
        <ele>311.4</ele>
        <time>2024-04-28T11:01:39Z</time>
      </trkpt>
      <trkpt lat="45.92322" lon="3.26659">
        <ele>311.2</ele>
        <time>2024-04-28T11:01:40Z</time>
      </trkpt>
      <trkpt lat="45.92321" lon="3.26668">
        <ele>311.2</ele>
        <time>2024-04-28T11:01:41Z</time>
      </trkpt>
      <trkpt lat="45.92321" lon="3.26677">
        <ele>311.2</ele>
        <time>2024-04-28T11:01:42Z</time>
      </trkpt>
      <trkpt lat="45.9232" lon="3.26686">
        <ele>311.2</ele>
        <time>2024-04-28T11:01:43Z</time>
      </trkpt>
      <trkpt lat="45.9232" lon="3.26695">
        <ele>311.2</ele>
        <time>2024-04-28T11:01:44Z</time>
      </trkpt>
      <trkpt lat="45.92319" lon="3.26704">
        <ele>311.2</ele>
        <time>2024-04-28T11:01:45Z</time>
      </trkpt>
      <trkpt lat="45.92319" lon="3.26713">
        <ele>311.2</ele>
        <time>2024-04-28T11:01:46Z</time>
      </trkpt>
      <trkpt lat="45.92318" lon="3.26722">
        <ele>311.2</ele>
        <time>2024-04-28T11:01:47Z</time>
      </trkpt>
      <trkpt lat="45.92318" lon="3.2673">
        <ele>311.2</ele>
        <time>2024-04-28T11:01:48Z</time>
      </trkpt>
      <trkpt lat="45.92317" lon="3.2674">
        <ele>311</ele>
        <time>2024-04-28T11:01:49Z</time>
      </trkpt>
      <trkpt lat="45.92317" lon="3.26749">
        <ele>311</ele>
        <time>2024-04-28T11:01:50Z</time>
      </trkpt>
      <trkpt lat="45.92317" lon="3.26758">
        <ele>311.2</ele>
        <time>2024-04-28T11:01:51Z</time>
      </trkpt>
      <trkpt lat="45.92317" lon="3.26767">
        <ele>311.2</ele>
        <time>2024-04-28T11:01:52Z</time>
      </trkpt>
      <trkpt lat="45.92316" lon="3.26776">
        <ele>311</ele>
        <time>2024-04-28T11:01:53Z</time>
      </trkpt>
      <trkpt lat="45.92316" lon="3.26785">
        <ele>311</ele>
        <time>2024-04-28T11:01:54Z</time>
      </trkpt>
      <trkpt lat="45.92316" lon="3.26794">
        <ele>311</ele>
        <time>2024-04-28T11:01:55Z</time>
      </trkpt>
      <trkpt lat="45.92316" lon="3.26803">
        <ele>311</ele>
        <time>2024-04-28T11:01:56Z</time>
      </trkpt>
      <trkpt lat="45.92315" lon="3.26812">
        <ele>311.2</ele>
        <time>2024-04-28T11:01:57Z</time>
      </trkpt>
      <trkpt lat="45.92315" lon="3.26821">
        <ele>311.2</ele>
        <time>2024-04-28T11:01:58Z</time>
      </trkpt>
      <trkpt lat="45.92315" lon="3.26829">
        <ele>311.2</ele>
        <time>2024-04-28T11:01:59Z</time>
      </trkpt>
      <trkpt lat="45.92315" lon="3.26838">
        <ele>311.2</ele>
        <time>2024-04-28T11:02:00Z</time>
      </trkpt>
      <trkpt lat="45.92314" lon="3.26847">
        <ele>311</ele>
        <time>2024-04-28T11:02:01Z</time>
      </trkpt>
      <trkpt lat="45.92314" lon="3.26855">
        <ele>311</ele>
        <time>2024-04-28T11:02:02Z</time>
      </trkpt>
      <trkpt lat="45.92314" lon="3.26864">
        <ele>311</ele>
        <time>2024-04-28T11:02:03Z</time>
      </trkpt>
      <trkpt lat="45.92314" lon="3.26873">
        <ele>311</ele>
        <time>2024-04-28T11:02:04Z</time>
      </trkpt>
      <trkpt lat="45.92313" lon="3.26882">
        <ele>311</ele>
        <time>2024-04-28T11:02:05Z</time>
      </trkpt>
      <trkpt lat="45.92313" lon="3.2689">
        <ele>311</ele>
        <time>2024-04-28T11:02:06Z</time>
      </trkpt>
      <trkpt lat="45.92312" lon="3.26899">
        <ele>311</ele>
        <time>2024-04-28T11:02:07Z</time>
      </trkpt>
      <trkpt lat="45.92312" lon="3.26907">
        <ele>311</ele>
        <time>2024-04-28T11:02:08Z</time>
      </trkpt>
      <trkpt lat="45.92311" lon="3.26916">
        <ele>311</ele>
        <time>2024-04-28T11:02:09Z</time>
      </trkpt>
      <trkpt lat="45.92311" lon="3.26924">
        <ele>311</ele>
        <time>2024-04-28T11:02:10Z</time>
      </trkpt>
      <trkpt lat="45.9231" lon="3.26932">
        <ele>311</ele>
        <time>2024-04-28T11:02:11Z</time>
      </trkpt>
      <trkpt lat="45.9231" lon="3.2694">
        <ele>311</ele>
        <time>2024-04-28T11:02:12Z</time>
      </trkpt>
      <trkpt lat="45.92309" lon="3.26948">
        <ele>310.8</ele>
        <time>2024-04-28T11:02:13Z</time>
      </trkpt>
      <trkpt lat="45.92309" lon="3.26957">
        <ele>310.8</ele>
        <time>2024-04-28T11:02:14Z</time>
      </trkpt>
      <trkpt lat="45.92308" lon="3.26965">
        <ele>310.8</ele>
        <time>2024-04-28T11:02:15Z</time>
      </trkpt>
      <trkpt lat="45.92307" lon="3.26973">
        <ele>310.8</ele>
        <time>2024-04-28T11:02:16Z</time>
      </trkpt>
      <trkpt lat="45.92307" lon="3.26982">
        <ele>310.8</ele>
        <time>2024-04-28T11:02:17Z</time>
      </trkpt>
      <trkpt lat="45.92306" lon="3.26999">
        <ele>310.8</ele>
        <time>2024-04-28T11:02:18Z</time>
      </trkpt>
      <trkpt lat="45.92305" lon="3.27007">
        <ele>310.8</ele>
        <time>2024-04-28T11:02:19Z</time>
      </trkpt>
      <trkpt lat="45.92305" lon="3.27015">
        <ele>310.8</ele>
        <time>2024-04-28T11:02:20Z</time>
      </trkpt>
      <trkpt lat="45.92304" lon="3.27023">
        <ele>311</ele>
        <time>2024-04-28T11:02:21Z</time>
      </trkpt>
      <trkpt lat="45.92304" lon="3.27032">
        <ele>310.8</ele>
        <time>2024-04-28T11:02:22Z</time>
      </trkpt>
      <trkpt lat="45.92303" lon="3.2704">
        <ele>311</ele>
        <time>2024-04-28T11:02:23Z</time>
      </trkpt>
      <trkpt lat="45.92302" lon="3.27048">
        <ele>311</ele>
        <time>2024-04-28T11:02:24Z</time>
      </trkpt>
      <trkpt lat="45.92302" lon="3.27057">
        <ele>311</ele>
        <time>2024-04-28T11:02:25Z</time>
      </trkpt>
      <trkpt lat="45.92301" lon="3.27065">
        <ele>311</ele>
        <time>2024-04-28T11:02:26Z</time>
      </trkpt>
      <trkpt lat="45.92301" lon="3.27073">
        <ele>311</ele>
        <time>2024-04-28T11:02:27Z</time>
      </trkpt>
      <trkpt lat="45.923" lon="3.27082">
        <ele>311</ele>
        <time>2024-04-28T11:02:28Z</time>
      </trkpt>
      <trkpt lat="45.923" lon="3.2709">
        <ele>311</ele>
        <time>2024-04-28T11:02:29Z</time>
      </trkpt>
      <trkpt lat="45.92299" lon="3.27098">
        <ele>311.2</ele>
        <time>2024-04-28T11:02:30Z</time>
      </trkpt>
      <trkpt lat="45.92299" lon="3.27106">
        <ele>311</ele>
        <time>2024-04-28T11:02:31Z</time>
      </trkpt>
      <trkpt lat="45.92298" lon="3.27115">
        <ele>311</ele>
        <time>2024-04-28T11:02:32Z</time>
      </trkpt>
      <trkpt lat="45.92299" lon="3.27123">
        <ele>311</ele>
        <time>2024-04-28T11:02:33Z</time>
      </trkpt>
      <trkpt lat="45.92301" lon="3.27132">
        <ele>311</ele>
        <time>2024-04-28T11:02:34Z</time>
      </trkpt>
      <trkpt lat="45.92302" lon="3.2714">
        <ele>311</ele>
        <time>2024-04-28T11:02:35Z</time>
      </trkpt>
      <trkpt lat="45.92303" lon="3.27149">
        <ele>311.2</ele>
        <time>2024-04-28T11:02:36Z</time>
      </trkpt>
      <trkpt lat="45.92304" lon="3.27157">
        <ele>311.2</ele>
        <time>2024-04-28T11:02:37Z</time>
      </trkpt>
      <trkpt lat="45.92305" lon="3.27166">
        <ele>311.2</ele>
        <time>2024-04-28T11:02:38Z</time>
      </trkpt>
      <trkpt lat="45.92307" lon="3.27175">
        <ele>311.2</ele>
        <time>2024-04-28T11:02:39Z</time>
      </trkpt>
      <trkpt lat="45.92308" lon="3.27184">
        <ele>311.2</ele>
        <time>2024-04-28T11:02:40Z</time>
      </trkpt>
      <trkpt lat="45.92309" lon="3.27193">
        <ele>311.2</ele>
        <time>2024-04-28T11:02:41Z</time>
      </trkpt>
      <trkpt lat="45.9231" lon="3.27202">
        <ele>311.2</ele>
        <time>2024-04-28T11:02:42Z</time>
      </trkpt>
      <trkpt lat="45.92311" lon="3.2721">
        <ele>311.2</ele>
        <time>2024-04-28T11:02:43Z</time>
      </trkpt>
      <trkpt lat="45.92313" lon="3.27219">
        <ele>311.2</ele>
        <time>2024-04-28T11:02:44Z</time>
      </trkpt>
      <trkpt lat="45.92314" lon="3.27228">
        <ele>311.2</ele>
        <time>2024-04-28T11:02:45Z</time>
      </trkpt>
      <trkpt lat="45.92315" lon="3.27237">
        <ele>311.2</ele>
        <time>2024-04-28T11:02:46Z</time>
      </trkpt>
      <trkpt lat="45.92316" lon="3.27245">
        <ele>311.2</ele>
        <time>2024-04-28T11:02:47Z</time>
      </trkpt>
      <trkpt lat="45.92318" lon="3.27255">
        <ele>311.2</ele>
        <time>2024-04-28T11:02:48Z</time>
      </trkpt>
      <trkpt lat="45.9232" lon="3.27262">
        <ele>311.2</ele>
        <time>2024-04-28T11:02:49Z</time>
      </trkpt>
      <trkpt lat="45.92322" lon="3.2727">
        <ele>311.2</ele>
        <time>2024-04-28T11:02:50Z</time>
      </trkpt>
      <trkpt lat="45.92324" lon="3.27278">
        <ele>311.2</ele>
        <time>2024-04-28T11:02:51Z</time>
      </trkpt>
      <trkpt lat="45.92325" lon="3.27287">
        <ele>311</ele>
        <time>2024-04-28T11:02:52Z</time>
      </trkpt>
      <trkpt lat="45.92327" lon="3.27296">
        <ele>310.8</ele>
        <time>2024-04-28T11:02:53Z</time>
      </trkpt>
      <trkpt lat="45.9233" lon="3.27304">
        <ele>311</ele>
        <time>2024-04-28T11:02:54Z</time>
      </trkpt>
      <trkpt lat="45.92332" lon="3.27313">
        <ele>311</ele>
        <time>2024-04-28T11:02:55Z</time>
      </trkpt>
      <trkpt lat="45.92334" lon="3.27321">
        <ele>311</ele>
        <time>2024-04-28T11:02:56Z</time>
      </trkpt>
      <trkpt lat="45.92336" lon="3.2733">
        <ele>311</ele>
        <time>2024-04-28T11:02:57Z</time>
      </trkpt>
      <trkpt lat="45.92339" lon="3.27339">
        <ele>310.8</ele>
        <time>2024-04-28T11:02:58Z</time>
      </trkpt>
      <trkpt lat="45.92342" lon="3.27347">
        <ele>310.8</ele>
        <time>2024-04-28T11:02:59Z</time>
      </trkpt>
      <trkpt lat="45.92344" lon="3.27356">
        <ele>310.8</ele>
        <time>2024-04-28T11:03:00Z</time>
      </trkpt>
      <trkpt lat="45.92347" lon="3.27365">
        <ele>310.8</ele>
        <time>2024-04-28T11:03:01Z</time>
      </trkpt>
      <trkpt lat="45.9235" lon="3.27373">
        <ele>310.6</ele>
        <time>2024-04-28T11:03:02Z</time>
      </trkpt>
      <trkpt lat="45.92351" lon="3.27382">
        <ele>310.6</ele>
        <time>2024-04-28T11:03:03Z</time>
      </trkpt>
      <trkpt lat="45.92352" lon="3.27391">
        <ele>310.6</ele>
        <time>2024-04-28T11:03:04Z</time>
      </trkpt>
      <trkpt lat="45.92353" lon="3.274">
        <ele>310.6</ele>
        <time>2024-04-28T11:03:05Z</time>
      </trkpt>
      <trkpt lat="45.92353" lon="3.27409">
        <ele>310.4</ele>
        <time>2024-04-28T11:03:06Z</time>
      </trkpt>
      <trkpt lat="45.92351" lon="3.27418">
        <ele>310.4</ele>
        <time>2024-04-28T11:03:07Z</time>
      </trkpt>
      <trkpt lat="45.9235" lon="3.27426">
        <ele>310.4</ele>
        <time>2024-04-28T11:03:08Z</time>
      </trkpt>
      <trkpt lat="45.92348" lon="3.27434">
        <ele>310.4</ele>
        <time>2024-04-28T11:03:09Z</time>
      </trkpt>
      <trkpt lat="45.92346" lon="3.27443">
        <ele>310.4</ele>
        <time>2024-04-28T11:03:10Z</time>
      </trkpt>
      <trkpt lat="45.92345" lon="3.27451">
        <ele>310.4</ele>
        <time>2024-04-28T11:03:11Z</time>
      </trkpt>
      <trkpt lat="45.92343" lon="3.27459">
        <ele>310.4</ele>
        <time>2024-04-28T11:03:12Z</time>
      </trkpt>
      <trkpt lat="45.92341" lon="3.27467">
        <ele>310.4</ele>
        <time>2024-04-28T11:03:13Z</time>
      </trkpt>
      <trkpt lat="45.9234" lon="3.27476">
        <ele>310.2</ele>
        <time>2024-04-28T11:03:14Z</time>
      </trkpt>
      <trkpt lat="45.92339" lon="3.27483">
        <ele>310.2</ele>
        <time>2024-04-28T11:03:15Z</time>
      </trkpt>
      <trkpt lat="45.92338" lon="3.27491">
        <ele>310.2</ele>
        <time>2024-04-28T11:03:16Z</time>
      </trkpt>
      <trkpt lat="45.92336" lon="3.27499">
        <ele>310.2</ele>
        <time>2024-04-28T11:03:17Z</time>
      </trkpt>
      <trkpt lat="45.92335" lon="3.27507">
        <ele>310.2</ele>
        <time>2024-04-28T11:03:18Z</time>
      </trkpt>
      <trkpt lat="45.92334" lon="3.27515">
        <ele>310.2</ele>
        <time>2024-04-28T11:03:19Z</time>
      </trkpt>
      <trkpt lat="45.92333" lon="3.27523">
        <ele>310.2</ele>
        <time>2024-04-28T11:03:20Z</time>
      </trkpt>
      <trkpt lat="45.92332" lon="3.27531">
        <ele>310.2</ele>
        <time>2024-04-28T11:03:21Z</time>
      </trkpt>
      <trkpt lat="45.92331" lon="3.27539">
        <ele>310.2</ele>
        <time>2024-04-28T11:03:22Z</time>
      </trkpt>
      <trkpt lat="45.9233" lon="3.27547">
        <ele>310.2</ele>
        <time>2024-04-28T11:03:23Z</time>
      </trkpt>
      <trkpt lat="45.92328" lon="3.27556">
        <ele>310.2</ele>
        <time>2024-04-28T11:03:24Z</time>
      </trkpt>
      <trkpt lat="45.92327" lon="3.27564">
        <ele>310.2</ele>
        <time>2024-04-28T11:03:25Z</time>
      </trkpt>
      <trkpt lat="45.92326" lon="3.27572">
        <ele>310</ele>
        <time>2024-04-28T11:03:26Z</time>
      </trkpt>
      <trkpt lat="45.92325" lon="3.2758">
        <ele>310.2</ele>
        <time>2024-04-28T11:03:27Z</time>
      </trkpt>
      <trkpt lat="45.92324" lon="3.27587">
        <ele>310.2</ele>
        <time>2024-04-28T11:03:28Z</time>
      </trkpt>
      <trkpt lat="45.92323" lon="3.27596">
        <ele>310.2</ele>
        <time>2024-04-28T11:03:29Z</time>
      </trkpt>
      <trkpt lat="45.92322" lon="3.27604">
        <ele>310</ele>
        <time>2024-04-28T11:03:30Z</time>
      </trkpt>
      <trkpt lat="45.92321" lon="3.27612">
        <ele>310</ele>
        <time>2024-04-28T11:03:31Z</time>
      </trkpt>
      <trkpt lat="45.9232" lon="3.27621">
        <ele>310</ele>
        <time>2024-04-28T11:03:32Z</time>
      </trkpt>
      <trkpt lat="45.92319" lon="3.27629">
        <ele>310</ele>
        <time>2024-04-28T11:03:33Z</time>
      </trkpt>
      <trkpt lat="45.92318" lon="3.27637">
        <ele>310</ele>
        <time>2024-04-28T11:03:34Z</time>
      </trkpt>
      <trkpt lat="45.92317" lon="3.27646">
        <ele>310.2</ele>
        <time>2024-04-28T11:03:35Z</time>
      </trkpt>
      <trkpt lat="45.92317" lon="3.27654">
        <ele>310.2</ele>
        <time>2024-04-28T11:03:36Z</time>
      </trkpt>
      <trkpt lat="45.92316" lon="3.27662">
        <ele>310.2</ele>
        <time>2024-04-28T11:03:37Z</time>
      </trkpt>
      <trkpt lat="45.92315" lon="3.27671">
        <ele>310.4</ele>
        <time>2024-04-28T11:03:38Z</time>
      </trkpt>
      <trkpt lat="45.92314" lon="3.27679">
        <ele>310.4</ele>
        <time>2024-04-28T11:03:39Z</time>
      </trkpt>
      <trkpt lat="45.92314" lon="3.27688">
        <ele>310.4</ele>
        <time>2024-04-28T11:03:40Z</time>
      </trkpt>
      <trkpt lat="45.92313" lon="3.27696">
        <ele>310.4</ele>
        <time>2024-04-28T11:03:41Z</time>
      </trkpt>
      <trkpt lat="45.92312" lon="3.27704">
        <ele>310.4</ele>
        <time>2024-04-28T11:03:42Z</time>
      </trkpt>
      <trkpt lat="45.92311" lon="3.27712">
        <ele>310.4</ele>
        <time>2024-04-28T11:03:43Z</time>
      </trkpt>
      <trkpt lat="45.9231" lon="3.2772">
        <ele>310.4</ele>
        <time>2024-04-28T11:03:44Z</time>
      </trkpt>
      <trkpt lat="45.9231" lon="3.27728">
        <ele>310.4</ele>
        <time>2024-04-28T11:03:45Z</time>
      </trkpt>
      <trkpt lat="45.92309" lon="3.27737">
        <ele>310.4</ele>
        <time>2024-04-28T11:03:46Z</time>
      </trkpt>
      <trkpt lat="45.92308" lon="3.27745">
        <ele>310.6</ele>
        <time>2024-04-28T11:03:47Z</time>
      </trkpt>
      <trkpt lat="45.92306" lon="3.27753">
        <ele>310.6</ele>
        <time>2024-04-28T11:03:48Z</time>
      </trkpt>
      <trkpt lat="45.92305" lon="3.27761">
        <ele>310.8</ele>
        <time>2024-04-28T11:03:49Z</time>
      </trkpt>
      <trkpt lat="45.92304" lon="3.27769">
        <ele>310.8</ele>
        <time>2024-04-28T11:03:50Z</time>
      </trkpt>
      <trkpt lat="45.92303" lon="3.27777">
        <ele>311</ele>
        <time>2024-04-28T11:03:51Z</time>
      </trkpt>
      <trkpt lat="45.92301" lon="3.27785">
        <ele>311</ele>
        <time>2024-04-28T11:03:52Z</time>
      </trkpt>
      <trkpt lat="45.923" lon="3.27794">
        <ele>311.2</ele>
        <time>2024-04-28T11:03:53Z</time>
      </trkpt>
      <trkpt lat="45.92299" lon="3.27802">
        <ele>311.2</ele>
        <time>2024-04-28T11:03:54Z</time>
      </trkpt>
      <trkpt lat="45.92298" lon="3.2781">
        <ele>311.2</ele>
        <time>2024-04-28T11:03:55Z</time>
      </trkpt>
      <trkpt lat="45.92296" lon="3.27818">
        <ele>311.2</ele>
        <time>2024-04-28T11:03:56Z</time>
      </trkpt>
      <trkpt lat="45.92295" lon="3.27826">
        <ele>311.2</ele>
        <time>2024-04-28T11:03:57Z</time>
      </trkpt>
      <trkpt lat="45.92294" lon="3.27834">
        <ele>311.4</ele>
        <time>2024-04-28T11:03:58Z</time>
      </trkpt>
      <trkpt lat="45.92293" lon="3.27842">
        <ele>311.4</ele>
        <time>2024-04-28T11:03:59Z</time>
      </trkpt>
      <trkpt lat="45.92291" lon="3.2785">
        <ele>311.4</ele>
        <time>2024-04-28T11:04:00Z</time>
      </trkpt>
      <trkpt lat="45.9229" lon="3.27858">
        <ele>311.4</ele>
        <time>2024-04-28T11:04:01Z</time>
      </trkpt>
      <trkpt lat="45.92289" lon="3.27867">
        <ele>311.6</ele>
        <time>2024-04-28T11:04:02Z</time>
      </trkpt>
      <trkpt lat="45.92288" lon="3.27874">
        <ele>311.6</ele>
        <time>2024-04-28T11:04:03Z</time>
      </trkpt>
      <trkpt lat="45.92286" lon="3.27883">
        <ele>311.6</ele>
        <time>2024-04-28T11:04:04Z</time>
      </trkpt>
      <trkpt lat="45.92285" lon="3.27891">
        <ele>311.8</ele>
        <time>2024-04-28T11:04:05Z</time>
      </trkpt>
      <trkpt lat="45.92284" lon="3.27899">
        <ele>311.8</ele>
        <time>2024-04-28T11:04:06Z</time>
      </trkpt>
      <trkpt lat="45.92283" lon="3.27907">
        <ele>312</ele>
        <time>2024-04-28T11:04:07Z</time>
      </trkpt>
      <trkpt lat="45.92282" lon="3.27914">
        <ele>312</ele>
        <time>2024-04-28T11:04:08Z</time>
      </trkpt>
      <trkpt lat="45.9228" lon="3.27922">
        <ele>312</ele>
        <time>2024-04-28T11:04:09Z</time>
      </trkpt>
      <trkpt lat="45.92279" lon="3.2793">
        <ele>312.2</ele>
        <time>2024-04-28T11:04:10Z</time>
      </trkpt>
      <trkpt lat="45.92278" lon="3.27938">
        <ele>312.2</ele>
        <time>2024-04-28T11:04:11Z</time>
      </trkpt>
      <trkpt lat="45.92277" lon="3.27947">
        <ele>312.2</ele>
        <time>2024-04-28T11:04:12Z</time>
      </trkpt>
      <trkpt lat="45.92275" lon="3.27955">
        <ele>312.4</ele>
        <time>2024-04-28T11:04:13Z</time>
      </trkpt>
      <trkpt lat="45.92274" lon="3.27962">
        <ele>312.4</ele>
        <time>2024-04-28T11:04:14Z</time>
      </trkpt>
      <trkpt lat="45.92273" lon="3.2797">
        <ele>312.4</ele>
        <time>2024-04-28T11:04:15Z</time>
      </trkpt>
      <trkpt lat="45.92272" lon="3.27978">
        <ele>312.4</ele>
        <time>2024-04-28T11:04:16Z</time>
      </trkpt>
      <trkpt lat="45.9227" lon="3.27986">
        <ele>312.4</ele>
        <time>2024-04-28T11:04:17Z</time>
      </trkpt>
      <trkpt lat="45.92269" lon="3.27993">
        <ele>312.6</ele>
        <time>2024-04-28T11:04:18Z</time>
      </trkpt>
      <trkpt lat="45.92268" lon="3.28002">
        <ele>312.6</ele>
        <time>2024-04-28T11:04:19Z</time>
      </trkpt>
      <trkpt lat="45.92266" lon="3.2801">
        <ele>312.8</ele>
        <time>2024-04-28T11:04:20Z</time>
      </trkpt>
      <trkpt lat="45.92263" lon="3.28018">
        <ele>312.8</ele>
        <time>2024-04-28T11:04:21Z</time>
      </trkpt>
      <trkpt lat="45.92261" lon="3.28026">
        <ele>312.8</ele>
        <time>2024-04-28T11:04:22Z</time>
      </trkpt>
      <trkpt lat="45.92258" lon="3.28033">
        <ele>313</ele>
        <time>2024-04-28T11:04:23Z</time>
      </trkpt>
      <trkpt lat="45.92256" lon="3.28041">
        <ele>313</ele>
        <time>2024-04-28T11:04:24Z</time>
      </trkpt>
      <trkpt lat="45.92254" lon="3.28049">
        <ele>313</ele>
        <time>2024-04-28T11:04:25Z</time>
      </trkpt>
      <trkpt lat="45.92251" lon="3.28057">
        <ele>313.2</ele>
        <time>2024-04-28T11:04:26Z</time>
      </trkpt>
      <trkpt lat="45.92249" lon="3.28064">
        <ele>313.2</ele>
        <time>2024-04-28T11:04:27Z</time>
      </trkpt>
      <trkpt lat="45.92246" lon="3.28072">
        <ele>313.2</ele>
        <time>2024-04-28T11:04:28Z</time>
      </trkpt>
      <trkpt lat="45.92244" lon="3.2808">
        <ele>313.4</ele>
        <time>2024-04-28T11:04:29Z</time>
      </trkpt>
      <trkpt lat="45.92241" lon="3.28088">
        <ele>313.4</ele>
        <time>2024-04-28T11:04:30Z</time>
      </trkpt>
      <trkpt lat="45.92239" lon="3.28096">
        <ele>313.4</ele>
        <time>2024-04-28T11:04:31Z</time>
      </trkpt>
      <trkpt lat="45.92235" lon="3.28103">
        <ele>313.6</ele>
        <time>2024-04-28T11:04:32Z</time>
      </trkpt>
      <trkpt lat="45.92232" lon="3.2811">
        <ele>313.6</ele>
        <time>2024-04-28T11:04:33Z</time>
      </trkpt>
      <trkpt lat="45.92229" lon="3.28118">
        <ele>313.6</ele>
        <time>2024-04-28T11:04:34Z</time>
      </trkpt>
      <trkpt lat="45.92225" lon="3.28126">
        <ele>313.6</ele>
        <time>2024-04-28T11:04:35Z</time>
      </trkpt>
      <trkpt lat="45.92222" lon="3.28134">
        <ele>313.8</ele>
        <time>2024-04-28T11:04:36Z</time>
      </trkpt>
      <trkpt lat="45.92218" lon="3.28141">
        <ele>313.8</ele>
        <time>2024-04-28T11:04:37Z</time>
      </trkpt>
      <trkpt lat="45.92215" lon="3.28148">
        <ele>313.8</ele>
        <time>2024-04-28T11:04:38Z</time>
      </trkpt>
      <trkpt lat="45.92212" lon="3.28156">
        <ele>314</ele>
        <time>2024-04-28T11:04:39Z</time>
      </trkpt>
      <trkpt lat="45.92208" lon="3.28163">
        <ele>314</ele>
        <time>2024-04-28T11:04:40Z</time>
      </trkpt>
      <trkpt lat="45.92205" lon="3.28171">
        <ele>314</ele>
        <time>2024-04-28T11:04:41Z</time>
      </trkpt>
      <trkpt lat="45.92203" lon="3.28179">
        <ele>314</ele>
        <time>2024-04-28T11:04:42Z</time>
      </trkpt>
      <trkpt lat="45.92201" lon="3.28188">
        <ele>314</ele>
        <time>2024-04-28T11:04:43Z</time>
      </trkpt>
      <trkpt lat="45.92198" lon="3.28196">
        <ele>314</ele>
        <time>2024-04-28T11:04:44Z</time>
      </trkpt>
      <trkpt lat="45.92196" lon="3.28206">
        <ele>313.8</ele>
        <time>2024-04-28T11:04:45Z</time>
      </trkpt>
      <trkpt lat="45.92193" lon="3.28215">
        <ele>313.8</ele>
        <time>2024-04-28T11:04:46Z</time>
      </trkpt>
      <trkpt lat="45.92191" lon="3.28224">
        <ele>314</ele>
        <time>2024-04-28T11:04:47Z</time>
      </trkpt>
      <trkpt lat="45.92189" lon="3.28233">
        <ele>314</ele>
        <time>2024-04-28T11:04:48Z</time>
      </trkpt>
      <trkpt lat="45.92186" lon="3.28242">
        <ele>314</ele>
        <time>2024-04-28T11:04:49Z</time>
      </trkpt>
      <trkpt lat="45.92184" lon="3.2825">
        <ele>314</ele>
        <time>2024-04-28T11:04:50Z</time>
      </trkpt>
      <trkpt lat="45.92181" lon="3.28259">
        <ele>313.8</ele>
        <time>2024-04-28T11:04:51Z</time>
      </trkpt>
      <trkpt lat="45.92179" lon="3.28268">
        <ele>313.8</ele>
        <time>2024-04-28T11:04:52Z</time>
      </trkpt>
      <trkpt lat="45.92176" lon="3.28277">
        <ele>313.8</ele>
        <time>2024-04-28T11:04:53Z</time>
      </trkpt>
      <trkpt lat="45.92174" lon="3.28286">
        <ele>313.8</ele>
        <time>2024-04-28T11:04:54Z</time>
      </trkpt>
      <trkpt lat="45.92172" lon="3.28294">
        <ele>313.8</ele>
        <time>2024-04-28T11:04:55Z</time>
      </trkpt>
      <trkpt lat="45.92169" lon="3.28304">
        <ele>313.8</ele>
        <time>2024-04-28T11:04:56Z</time>
      </trkpt>
      <trkpt lat="45.92167" lon="3.28313">
        <ele>314.2</ele>
        <time>2024-04-28T11:04:57Z</time>
      </trkpt>
      <trkpt lat="45.92165" lon="3.28323">
        <ele>314.2</ele>
        <time>2024-04-28T11:04:58Z</time>
      </trkpt>
      <trkpt lat="45.92164" lon="3.28332">
        <ele>314</ele>
        <time>2024-04-28T11:04:59Z</time>
      </trkpt>
      <trkpt lat="45.92163" lon="3.28342">
        <ele>313.8</ele>
        <time>2024-04-28T11:05:00Z</time>
      </trkpt>
      <trkpt lat="45.92161" lon="3.28353">
        <ele>313.4</ele>
        <time>2024-04-28T11:05:01Z</time>
      </trkpt>
      <trkpt lat="45.9216" lon="3.28363">
        <ele>313.4</ele>
        <time>2024-04-28T11:05:02Z</time>
      </trkpt>
      <trkpt lat="45.92158" lon="3.28373">
        <ele>313.6</ele>
        <time>2024-04-28T11:05:03Z</time>
      </trkpt>
      <trkpt lat="45.92157" lon="3.28383">
        <ele>313.6</ele>
        <time>2024-04-28T11:05:04Z</time>
      </trkpt>
      <trkpt lat="45.92155" lon="3.28394">
        <ele>313.6</ele>
        <time>2024-04-28T11:05:05Z</time>
      </trkpt>
      <trkpt lat="45.92154" lon="3.28404">
        <ele>313.6</ele>
        <time>2024-04-28T11:05:06Z</time>
      </trkpt>
      <trkpt lat="45.92152" lon="3.28415">
        <ele>313.6</ele>
        <time>2024-04-28T11:05:07Z</time>
      </trkpt>
      <trkpt lat="45.92151" lon="3.28425">
        <ele>313.6</ele>
        <time>2024-04-28T11:05:08Z</time>
      </trkpt>
      <trkpt lat="45.92149" lon="3.28435">
        <ele>313.6</ele>
        <time>2024-04-28T11:05:09Z</time>
      </trkpt>
      <trkpt lat="45.92148" lon="3.28446">
        <ele>313.6</ele>
        <time>2024-04-28T11:05:10Z</time>
      </trkpt>
      <trkpt lat="45.92146" lon="3.28456">
        <ele>313.6</ele>
        <time>2024-04-28T11:05:11Z</time>
      </trkpt>
      <trkpt lat="45.92144" lon="3.28466">
        <ele>313.6</ele>
        <time>2024-04-28T11:05:12Z</time>
      </trkpt>
      <trkpt lat="45.92141" lon="3.28477">
        <ele>313.6</ele>
        <time>2024-04-28T11:05:13Z</time>
      </trkpt>
      <trkpt lat="45.92139" lon="3.28487">
        <ele>313.6</ele>
        <time>2024-04-28T11:05:14Z</time>
      </trkpt>
      <trkpt lat="45.92136" lon="3.28497">
        <ele>313.4</ele>
        <time>2024-04-28T11:05:15Z</time>
      </trkpt>
      <trkpt lat="45.92133" lon="3.28507">
        <ele>313.4</ele>
        <time>2024-04-28T11:05:16Z</time>
      </trkpt>
      <trkpt lat="45.9213" lon="3.28517">
        <ele>313.4</ele>
        <time>2024-04-28T11:05:17Z</time>
      </trkpt>
      <trkpt lat="45.92128" lon="3.28527">
        <ele>313.4</ele>
        <time>2024-04-28T11:05:18Z</time>
      </trkpt>
      <trkpt lat="45.92125" lon="3.28537">
        <ele>313.4</ele>
        <time>2024-04-28T11:05:19Z</time>
      </trkpt>
      <trkpt lat="45.92122" lon="3.28547">
        <ele>313.4</ele>
        <time>2024-04-28T11:05:20Z</time>
      </trkpt>
      <trkpt lat="45.9212" lon="3.28557">
        <ele>313.4</ele>
        <time>2024-04-28T11:05:21Z</time>
      </trkpt>
      <trkpt lat="45.92117" lon="3.28567">
        <ele>313.4</ele>
        <time>2024-04-28T11:05:22Z</time>
      </trkpt>
      <trkpt lat="45.92114" lon="3.28576">
        <ele>313.2</ele>
        <time>2024-04-28T11:05:23Z</time>
      </trkpt>
      <trkpt lat="45.92112" lon="3.28586">
        <ele>313.2</ele>
        <time>2024-04-28T11:05:24Z</time>
      </trkpt>
      <trkpt lat="45.92109" lon="3.28596">
        <ele>313</ele>
        <time>2024-04-28T11:05:25Z</time>
      </trkpt>
      <trkpt lat="45.92107" lon="3.28605">
        <ele>313</ele>
        <time>2024-04-28T11:05:26Z</time>
      </trkpt>
      <trkpt lat="45.92104" lon="3.28615">
        <ele>313</ele>
        <time>2024-04-28T11:05:27Z</time>
      </trkpt>
      <trkpt lat="45.92101" lon="3.28624">
        <ele>313</ele>
        <time>2024-04-28T11:05:28Z</time>
      </trkpt>
      <trkpt lat="45.92099" lon="3.28633">
        <ele>313</ele>
        <time>2024-04-28T11:05:29Z</time>
      </trkpt>
      <trkpt lat="45.92096" lon="3.28643">
        <ele>313</ele>
        <time>2024-04-28T11:05:30Z</time>
      </trkpt>
      <trkpt lat="45.92094" lon="3.28652">
        <ele>313</ele>
        <time>2024-04-28T11:05:31Z</time>
      </trkpt>
      <trkpt lat="45.92091" lon="3.28661">
        <ele>313</ele>
        <time>2024-04-28T11:05:32Z</time>
      </trkpt>
      <trkpt lat="45.92089" lon="3.28671">
        <ele>313</ele>
        <time>2024-04-28T11:05:33Z</time>
      </trkpt>
      <trkpt lat="45.92086" lon="3.2868">
        <ele>313</ele>
        <time>2024-04-28T11:05:34Z</time>
      </trkpt>
      <trkpt lat="45.92084" lon="3.28689">
        <ele>312.8</ele>
        <time>2024-04-28T11:05:35Z</time>
      </trkpt>
      <trkpt lat="45.92081" lon="3.28699">
        <ele>312.8</ele>
        <time>2024-04-28T11:05:36Z</time>
      </trkpt>
      <trkpt lat="45.92079" lon="3.28708">
        <ele>312.8</ele>
        <time>2024-04-28T11:05:37Z</time>
      </trkpt>
      <trkpt lat="45.92077" lon="3.28719">
        <ele>312.8</ele>
        <time>2024-04-28T11:05:38Z</time>
      </trkpt>
      <trkpt lat="45.92075" lon="3.28728">
        <ele>312.8</ele>
        <time>2024-04-28T11:05:39Z</time>
      </trkpt>
      <trkpt lat="45.92074" lon="3.28738">
        <ele>312.8</ele>
        <time>2024-04-28T11:05:40Z</time>
      </trkpt>
      <trkpt lat="45.92072" lon="3.28748">
        <ele>312.8</ele>
        <time>2024-04-28T11:05:41Z</time>
      </trkpt>
      <trkpt lat="45.92071" lon="3.28759">
        <ele>312.6</ele>
        <time>2024-04-28T11:05:42Z</time>
      </trkpt>
      <trkpt lat="45.92071" lon="3.28769">
        <ele>312.6</ele>
        <time>2024-04-28T11:05:43Z</time>
      </trkpt>
      <trkpt lat="45.92071" lon="3.28779">
        <ele>312.6</ele>
        <time>2024-04-28T11:05:44Z</time>
      </trkpt>
      <trkpt lat="45.92071" lon="3.28789">
        <ele>312.8</ele>
        <time>2024-04-28T11:05:45Z</time>
      </trkpt>
      <trkpt lat="45.92071" lon="3.28799">
        <ele>312.8</ele>
        <time>2024-04-28T11:05:46Z</time>
      </trkpt>
      <trkpt lat="45.92071" lon="3.2881">
        <ele>312.8</ele>
        <time>2024-04-28T11:05:47Z</time>
      </trkpt>
      <trkpt lat="45.92071" lon="3.2882">
        <ele>312.8</ele>
        <time>2024-04-28T11:05:48Z</time>
      </trkpt>
      <trkpt lat="45.92071" lon="3.2883">
        <ele>312.8</ele>
        <time>2024-04-28T11:05:49Z</time>
      </trkpt>
      <trkpt lat="45.9207" lon="3.2884">
        <ele>312.8</ele>
        <time>2024-04-28T11:05:50Z</time>
      </trkpt>
      <trkpt lat="45.92069" lon="3.2885">
        <ele>312.8</ele>
        <time>2024-04-28T11:05:51Z</time>
      </trkpt>
      <trkpt lat="45.92068" lon="3.2886">
        <ele>312.8</ele>
        <time>2024-04-28T11:05:52Z</time>
      </trkpt>
      <trkpt lat="45.92067" lon="3.2887">
        <ele>312.8</ele>
        <time>2024-04-28T11:05:53Z</time>
      </trkpt>
      <trkpt lat="45.92066" lon="3.2888">
        <ele>312.8</ele>
        <time>2024-04-28T11:05:54Z</time>
      </trkpt>
      <trkpt lat="45.92066" lon="3.28889">
        <ele>312.8</ele>
        <time>2024-04-28T11:05:55Z</time>
      </trkpt>
      <trkpt lat="45.92065" lon="3.28899">
        <ele>312.6</ele>
        <time>2024-04-28T11:05:56Z</time>
      </trkpt>
      <trkpt lat="45.92064" lon="3.28909">
        <ele>312.6</ele>
        <time>2024-04-28T11:05:57Z</time>
      </trkpt>
      <trkpt lat="45.92063" lon="3.28918">
        <ele>312.8</ele>
        <time>2024-04-28T11:05:58Z</time>
      </trkpt>
      <trkpt lat="45.92062" lon="3.28927">
        <ele>313</ele>
        <time>2024-04-28T11:05:59Z</time>
      </trkpt>
      <trkpt lat="45.92062" lon="3.28936">
        <ele>312.8</ele>
        <time>2024-04-28T11:06:00Z</time>
      </trkpt>
      <trkpt lat="45.92061" lon="3.28946">
        <ele>312.8</ele>
        <time>2024-04-28T11:06:01Z</time>
      </trkpt>
      <trkpt lat="45.9206" lon="3.28955">
        <ele>313</ele>
        <time>2024-04-28T11:06:02Z</time>
      </trkpt>
      <trkpt lat="45.92059" lon="3.28964">
        <ele>313</ele>
        <time>2024-04-28T11:06:03Z</time>
      </trkpt>
      <trkpt lat="45.92058" lon="3.28973">
        <ele>313</ele>
        <time>2024-04-28T11:06:04Z</time>
      </trkpt>
      <trkpt lat="45.92058" lon="3.28982">
        <ele>313</ele>
        <time>2024-04-28T11:06:05Z</time>
      </trkpt>
      <trkpt lat="45.92057" lon="3.28991">
        <ele>313</ele>
        <time>2024-04-28T11:06:06Z</time>
      </trkpt>
      <trkpt lat="45.92056" lon="3.29">
        <ele>313</ele>
        <time>2024-04-28T11:06:07Z</time>
      </trkpt>
      <trkpt lat="45.92055" lon="3.29008">
        <ele>313</ele>
        <time>2024-04-28T11:06:08Z</time>
      </trkpt>
      <trkpt lat="45.92054" lon="3.29016">
        <ele>313</ele>
        <time>2024-04-28T11:06:09Z</time>
      </trkpt>
      <trkpt lat="45.92053" lon="3.29025">
        <ele>313</ele>
        <time>2024-04-28T11:06:10Z</time>
      </trkpt>
      <trkpt lat="45.92052" lon="3.29032">
        <ele>313</ele>
        <time>2024-04-28T11:06:11Z</time>
      </trkpt>
      <trkpt lat="45.92051" lon="3.29041">
        <ele>313.2</ele>
        <time>2024-04-28T11:06:12Z</time>
      </trkpt>
      <trkpt lat="45.9205" lon="3.29048">
        <ele>313.2</ele>
        <time>2024-04-28T11:06:13Z</time>
      </trkpt>
      <trkpt lat="45.92049" lon="3.29056">
        <ele>313.2</ele>
        <time>2024-04-28T11:06:14Z</time>
      </trkpt>
      <trkpt lat="45.92048" lon="3.29064">
        <ele>313.2</ele>
        <time>2024-04-28T11:06:15Z</time>
      </trkpt>
      <trkpt lat="45.92047" lon="3.29072">
        <ele>313.2</ele>
        <time>2024-04-28T11:06:16Z</time>
      </trkpt>
      <trkpt lat="45.92046" lon="3.2908">
        <ele>313.2</ele>
        <time>2024-04-28T11:06:17Z</time>
      </trkpt>
      <trkpt lat="45.92045" lon="3.29088">
        <ele>313.4</ele>
        <time>2024-04-28T11:06:18Z</time>
      </trkpt>
      <trkpt lat="45.92044" lon="3.29095">
        <ele>313.4</ele>
        <time>2024-04-28T11:06:19Z</time>
      </trkpt>
      <trkpt lat="45.92044" lon="3.29103">
        <ele>313.4</ele>
        <time>2024-04-28T11:06:20Z</time>
      </trkpt>
      <trkpt lat="45.92043" lon="3.29111">
        <ele>313.6</ele>
        <time>2024-04-28T11:06:21Z</time>
      </trkpt>
      <trkpt lat="45.92042" lon="3.29118">
        <ele>313.6</ele>
        <time>2024-04-28T11:06:22Z</time>
      </trkpt>
      <trkpt lat="45.92041" lon="3.29126">
        <ele>313.6</ele>
        <time>2024-04-28T11:06:23Z</time>
      </trkpt>
      <trkpt lat="45.9204" lon="3.29134">
        <ele>313.6</ele>
        <time>2024-04-28T11:06:24Z</time>
      </trkpt>
      <trkpt lat="45.92039" lon="3.29141">
        <ele>313.6</ele>
        <time>2024-04-28T11:06:25Z</time>
      </trkpt>
      <trkpt lat="45.92038" lon="3.29149">
        <ele>313.8</ele>
        <time>2024-04-28T11:06:26Z</time>
      </trkpt>
      <trkpt lat="45.92037" lon="3.29156">
        <ele>313.8</ele>
        <time>2024-04-28T11:06:27Z</time>
      </trkpt>
      <trkpt lat="45.92036" lon="3.29163">
        <ele>313.8</ele>
        <time>2024-04-28T11:06:28Z</time>
      </trkpt>
      <trkpt lat="45.92036" lon="3.2917">
        <ele>313.8</ele>
        <time>2024-04-28T11:06:29Z</time>
      </trkpt>
      <trkpt lat="45.92035" lon="3.29177">
        <ele>313.8</ele>
        <time>2024-04-28T11:06:30Z</time>
      </trkpt>
      <trkpt lat="45.92034" lon="3.29184">
        <ele>313.8</ele>
        <time>2024-04-28T11:06:31Z</time>
      </trkpt>
      <trkpt lat="45.92033" lon="3.29191">
        <ele>313.8</ele>
        <time>2024-04-28T11:06:32Z</time>
      </trkpt>
      <trkpt lat="45.92032" lon="3.29198">
        <ele>314</ele>
        <time>2024-04-28T11:06:33Z</time>
      </trkpt>
      <trkpt lat="45.92031" lon="3.29205">
        <ele>314</ele>
        <time>2024-04-28T11:06:34Z</time>
      </trkpt>
      <trkpt lat="45.92031" lon="3.29212">
        <ele>314</ele>
        <time>2024-04-28T11:06:35Z</time>
      </trkpt>
      <trkpt lat="45.9203" lon="3.29218">
        <ele>314</ele>
        <time>2024-04-28T11:06:36Z</time>
      </trkpt>
      <trkpt lat="45.92029" lon="3.29225">
        <ele>314</ele>
        <time>2024-04-28T11:06:37Z</time>
      </trkpt>
      <trkpt lat="45.92028" lon="3.29232">
        <ele>314</ele>
        <time>2024-04-28T11:06:38Z</time>
      </trkpt>
      <trkpt lat="45.92027" lon="3.29239">
        <ele>314</ele>
        <time>2024-04-28T11:06:39Z</time>
      </trkpt>
      <trkpt lat="45.92027" lon="3.29245">
        <ele>314.2</ele>
        <time>2024-04-28T11:06:40Z</time>
      </trkpt>
      <trkpt lat="45.92026" lon="3.29252">
        <ele>314.2</ele>
        <time>2024-04-28T11:06:41Z</time>
      </trkpt>
      <trkpt lat="45.92025" lon="3.29259">
        <ele>314.2</ele>
        <time>2024-04-28T11:06:42Z</time>
      </trkpt>
      <trkpt lat="45.92024" lon="3.29266">
        <ele>314.2</ele>
        <time>2024-04-28T11:06:43Z</time>
      </trkpt>
      <trkpt lat="45.92023" lon="3.29273">
        <ele>314.2</ele>
        <time>2024-04-28T11:06:44Z</time>
      </trkpt>
      <trkpt lat="45.92023" lon="3.2928">
        <ele>314.4</ele>
        <time>2024-04-28T11:06:45Z</time>
      </trkpt>
      <trkpt lat="45.92022" lon="3.29287">
        <ele>314.4</ele>
        <time>2024-04-28T11:06:46Z</time>
      </trkpt>
      <trkpt lat="45.92021" lon="3.29294">
        <ele>314.4</ele>
        <time>2024-04-28T11:06:47Z</time>
      </trkpt>
      <trkpt lat="45.92019" lon="3.29301">
        <ele>314.6</ele>
        <time>2024-04-28T11:06:48Z</time>
      </trkpt>
      <trkpt lat="45.92017" lon="3.29307">
        <ele>314.6</ele>
        <time>2024-04-28T11:06:49Z</time>
      </trkpt>
      <trkpt lat="45.92016" lon="3.29314">
        <ele>314.6</ele>
        <time>2024-04-28T11:06:50Z</time>
      </trkpt>
      <trkpt lat="45.92014" lon="3.29321">
        <ele>314.6</ele>
        <time>2024-04-28T11:06:51Z</time>
      </trkpt>
      <trkpt lat="45.92012" lon="3.29327">
        <ele>314.8</ele>
        <time>2024-04-28T11:06:52Z</time>
      </trkpt>
      <trkpt lat="45.92011" lon="3.29333">
        <ele>314.8</ele>
        <time>2024-04-28T11:06:53Z</time>
      </trkpt>
      <trkpt lat="45.92009" lon="3.2934">
        <ele>314.8</ele>
        <time>2024-04-28T11:06:54Z</time>
      </trkpt>
      <trkpt lat="45.92006" lon="3.29346">
        <ele>314.8</ele>
        <time>2024-04-28T11:06:55Z</time>
      </trkpt>
      <trkpt lat="45.92004" lon="3.29352">
        <ele>314.8</ele>
        <time>2024-04-28T11:06:56Z</time>
      </trkpt>
      <trkpt lat="45.92002" lon="3.29358">
        <ele>315</ele>
        <time>2024-04-28T11:06:57Z</time>
      </trkpt>
      <trkpt lat="45.91999" lon="3.29365">
        <ele>315</ele>
        <time>2024-04-28T11:06:58Z</time>
      </trkpt>
      <trkpt lat="45.91997" lon="3.29371">
        <ele>315</ele>
        <time>2024-04-28T11:06:59Z</time>
      </trkpt>
      <trkpt lat="45.91994" lon="3.29377">
        <ele>315.2</ele>
        <time>2024-04-28T11:07:00Z</time>
      </trkpt>
      <trkpt lat="45.91991" lon="3.29382">
        <ele>315.2</ele>
        <time>2024-04-28T11:07:01Z</time>
      </trkpt>
      <trkpt lat="45.91988" lon="3.29388">
        <ele>315.4</ele>
        <time>2024-04-28T11:07:02Z</time>
      </trkpt>
      <trkpt lat="45.91984" lon="3.29394">
        <ele>315.4</ele>
        <time>2024-04-28T11:07:03Z</time>
      </trkpt>
      <trkpt lat="45.91981" lon="3.294">
        <ele>315.4</ele>
        <time>2024-04-28T11:07:04Z</time>
      </trkpt>
      <trkpt lat="45.91978" lon="3.29406">
        <ele>315.6</ele>
        <time>2024-04-28T11:07:05Z</time>
      </trkpt>
      <trkpt lat="45.91974" lon="3.29413">
        <ele>315.6</ele>
        <time>2024-04-28T11:07:06Z</time>
      </trkpt>
      <trkpt lat="45.9197" lon="3.2942">
        <ele>315.6</ele>
        <time>2024-04-28T11:07:07Z</time>
      </trkpt>
      <trkpt lat="45.91967" lon="3.29427">
        <ele>315.6</ele>
        <time>2024-04-28T11:07:08Z</time>
      </trkpt>
      <trkpt lat="45.91963" lon="3.29433">
        <ele>315.6</ele>
        <time>2024-04-28T11:07:09Z</time>
      </trkpt>
      <trkpt lat="45.9196" lon="3.29441">
        <ele>315.6</ele>
        <time>2024-04-28T11:07:10Z</time>
      </trkpt>
      <trkpt lat="45.91957" lon="3.29448">
        <ele>315.6</ele>
        <time>2024-04-28T11:07:11Z</time>
      </trkpt>
      <trkpt lat="45.91954" lon="3.29455">
        <ele>315.6</ele>
        <time>2024-04-28T11:07:12Z</time>
      </trkpt>
      <trkpt lat="45.91951" lon="3.29463">
        <ele>315.6</ele>
        <time>2024-04-28T11:07:13Z</time>
      </trkpt>
      <trkpt lat="45.91947" lon="3.2947">
        <ele>315.6</ele>
        <time>2024-04-28T11:07:14Z</time>
      </trkpt>
      <trkpt lat="45.91944" lon="3.29478">
        <ele>315.6</ele>
        <time>2024-04-28T11:07:15Z</time>
      </trkpt>
      <trkpt lat="45.91941" lon="3.29486">
        <ele>315.6</ele>
        <time>2024-04-28T11:07:16Z</time>
      </trkpt>
      <trkpt lat="45.91939" lon="3.29495">
        <ele>315.6</ele>
        <time>2024-04-28T11:07:17Z</time>
      </trkpt>
      <trkpt lat="45.91937" lon="3.29504">
        <ele>315.6</ele>
        <time>2024-04-28T11:07:18Z</time>
      </trkpt>
      <trkpt lat="45.91935" lon="3.29513">
        <ele>315.6</ele>
        <time>2024-04-28T11:07:19Z</time>
      </trkpt>
      <trkpt lat="45.91934" lon="3.29522">
        <ele>315.4</ele>
        <time>2024-04-28T11:07:20Z</time>
      </trkpt>
      <trkpt lat="45.91932" lon="3.29532">
        <ele>315.4</ele>
        <time>2024-04-28T11:07:21Z</time>
      </trkpt>
      <trkpt lat="45.91931" lon="3.29542">
        <ele>316</ele>
        <time>2024-04-28T11:07:22Z</time>
      </trkpt>
      <trkpt lat="45.91931" lon="3.29551">
        <ele>315.4</ele>
        <time>2024-04-28T11:07:23Z</time>
      </trkpt>
      <trkpt lat="45.91932" lon="3.29561">
        <ele>314.8</ele>
        <time>2024-04-28T11:07:24Z</time>
      </trkpt>
      <trkpt lat="45.91932" lon="3.29571">
        <ele>315</ele>
        <time>2024-04-28T11:07:25Z</time>
      </trkpt>
      <trkpt lat="45.91932" lon="3.29582">
        <ele>315</ele>
        <time>2024-04-28T11:07:26Z</time>
      </trkpt>
      <trkpt lat="45.91933" lon="3.29592">
        <ele>315</ele>
        <time>2024-04-28T11:07:27Z</time>
      </trkpt>
      <trkpt lat="45.91933" lon="3.29603">
        <ele>314.8</ele>
        <time>2024-04-28T11:07:28Z</time>
      </trkpt>
      <trkpt lat="45.91933" lon="3.29613">
        <ele>314.6</ele>
        <time>2024-04-28T11:07:29Z</time>
      </trkpt>
      <trkpt lat="45.91934" lon="3.29624">
        <ele>314.6</ele>
        <time>2024-04-28T11:07:30Z</time>
      </trkpt>
      <trkpt lat="45.91934" lon="3.29635">
        <ele>314.4</ele>
        <time>2024-04-28T11:07:31Z</time>
      </trkpt>
      <trkpt lat="45.91934" lon="3.29646">
        <ele>314.4</ele>
        <time>2024-04-28T11:07:32Z</time>
      </trkpt>
      <trkpt lat="45.91935" lon="3.29657">
        <ele>314.2</ele>
        <time>2024-04-28T11:07:33Z</time>
      </trkpt>
      <trkpt lat="45.91935" lon="3.29668">
        <ele>314.2</ele>
        <time>2024-04-28T11:07:34Z</time>
      </trkpt>
      <trkpt lat="45.91935" lon="3.29679">
        <ele>314.2</ele>
        <time>2024-04-28T11:07:35Z</time>
      </trkpt>
      <trkpt lat="45.91936" lon="3.29689">
        <ele>314</ele>
        <time>2024-04-28T11:07:36Z</time>
      </trkpt>
      <trkpt lat="45.91936" lon="3.297">
        <ele>314</ele>
        <time>2024-04-28T11:07:37Z</time>
      </trkpt>
      <trkpt lat="45.91936" lon="3.29711">
        <ele>313.8</ele>
        <time>2024-04-28T11:07:38Z</time>
      </trkpt>
      <trkpt lat="45.91937" lon="3.29722">
        <ele>313.8</ele>
        <time>2024-04-28T11:07:39Z</time>
      </trkpt>
      <trkpt lat="45.91937" lon="3.29732">
        <ele>313.6</ele>
        <time>2024-04-28T11:07:40Z</time>
      </trkpt>
      <trkpt lat="45.91937" lon="3.29743">
        <ele>313.6</ele>
        <time>2024-04-28T11:07:41Z</time>
      </trkpt>
      <trkpt lat="45.91938" lon="3.29754">
        <ele>313.6</ele>
        <time>2024-04-28T11:07:42Z</time>
      </trkpt>
      <trkpt lat="45.91939" lon="3.29765">
        <ele>313.4</ele>
        <time>2024-04-28T11:07:43Z</time>
      </trkpt>
      <trkpt lat="45.91939" lon="3.29775">
        <ele>313.4</ele>
        <time>2024-04-28T11:07:44Z</time>
      </trkpt>
      <trkpt lat="45.9194" lon="3.29786">
        <ele>313.4</ele>
        <time>2024-04-28T11:07:45Z</time>
      </trkpt>
      <trkpt lat="45.91941" lon="3.29796">
        <ele>313.2</ele>
        <time>2024-04-28T11:07:46Z</time>
      </trkpt>
      <trkpt lat="45.91942" lon="3.29806">
        <ele>313.2</ele>
        <time>2024-04-28T11:07:47Z</time>
      </trkpt>
      <trkpt lat="45.91942" lon="3.29817">
        <ele>313.2</ele>
        <time>2024-04-28T11:07:48Z</time>
      </trkpt>
      <trkpt lat="45.91943" lon="3.29826">
        <ele>313</ele>
        <time>2024-04-28T11:07:49Z</time>
      </trkpt>
      <trkpt lat="45.91944" lon="3.29836">
        <ele>313</ele>
        <time>2024-04-28T11:07:50Z</time>
      </trkpt>
      <trkpt lat="45.91945" lon="3.29847">
        <ele>312.8</ele>
        <time>2024-04-28T11:07:51Z</time>
      </trkpt>
      <trkpt lat="45.91946" lon="3.29857">
        <ele>312.8</ele>
        <time>2024-04-28T11:07:52Z</time>
      </trkpt>
      <trkpt lat="45.91946" lon="3.29868">
        <ele>312.6</ele>
        <time>2024-04-28T11:07:53Z</time>
      </trkpt>
      <trkpt lat="45.91947" lon="3.29878">
        <ele>312.6</ele>
        <time>2024-04-28T11:07:54Z</time>
      </trkpt>
      <trkpt lat="45.91948" lon="3.29888">
        <ele>312.6</ele>
        <time>2024-04-28T11:07:55Z</time>
      </trkpt>
      <trkpt lat="45.91949" lon="3.29899">
        <ele>312.4</ele>
        <time>2024-04-28T11:07:56Z</time>
      </trkpt>
      <trkpt lat="45.91949" lon="3.29909">
        <ele>312.4</ele>
        <time>2024-04-28T11:07:57Z</time>
      </trkpt>
      <trkpt lat="45.9195" lon="3.2992">
        <ele>312.4</ele>
        <time>2024-04-28T11:07:58Z</time>
      </trkpt>
      <trkpt lat="45.91951" lon="3.2993">
        <ele>312.2</ele>
        <time>2024-04-28T11:07:59Z</time>
      </trkpt>
      <trkpt lat="45.91952" lon="3.2994">
        <ele>312.2</ele>
        <time>2024-04-28T11:08:00Z</time>
      </trkpt>
      <trkpt lat="45.91953" lon="3.2995">
        <ele>312.2</ele>
        <time>2024-04-28T11:08:01Z</time>
      </trkpt>
      <trkpt lat="45.91953" lon="3.2996">
        <ele>312</ele>
        <time>2024-04-28T11:08:02Z</time>
      </trkpt>
      <trkpt lat="45.91953" lon="3.2997">
        <ele>312</ele>
        <time>2024-04-28T11:08:03Z</time>
      </trkpt>
      <trkpt lat="45.91953" lon="3.2998">
        <ele>312</ele>
        <time>2024-04-28T11:08:04Z</time>
      </trkpt>
      <trkpt lat="45.91954" lon="3.2999">
        <ele>312</ele>
        <time>2024-04-28T11:08:05Z</time>
      </trkpt>
      <trkpt lat="45.91954" lon="3.3">
        <ele>311.8</ele>
        <time>2024-04-28T11:08:06Z</time>
      </trkpt>
      <trkpt lat="45.91955" lon="3.3001">
        <ele>311.8</ele>
        <time>2024-04-28T11:08:07Z</time>
      </trkpt>
      <trkpt lat="45.91956" lon="3.3002">
        <ele>311.8</ele>
        <time>2024-04-28T11:08:08Z</time>
      </trkpt>
      <trkpt lat="45.91956" lon="3.3003">
        <ele>311.6</ele>
        <time>2024-04-28T11:08:09Z</time>
      </trkpt>
      <trkpt lat="45.91957" lon="3.30039">
        <ele>311.6</ele>
        <time>2024-04-28T11:08:10Z</time>
      </trkpt>
      <trkpt lat="45.91956" lon="3.30049">
        <ele>311.4</ele>
        <time>2024-04-28T11:08:11Z</time>
      </trkpt>
      <trkpt lat="45.91955" lon="3.30059">
        <ele>311.4</ele>
        <time>2024-04-28T11:08:12Z</time>
      </trkpt>
      <trkpt lat="45.91954" lon="3.30068">
        <ele>311.2</ele>
        <time>2024-04-28T11:08:13Z</time>
      </trkpt>
      <trkpt lat="45.91953" lon="3.30078">
        <ele>311.2</ele>
        <time>2024-04-28T11:08:14Z</time>
      </trkpt>
      <trkpt lat="45.91952" lon="3.30087">
        <ele>311.2</ele>
        <time>2024-04-28T11:08:15Z</time>
      </trkpt>
      <trkpt lat="45.91951" lon="3.30096">
        <ele>311.2</ele>
        <time>2024-04-28T11:08:16Z</time>
      </trkpt>
      <trkpt lat="45.9195" lon="3.30106">
        <ele>311.2</ele>
        <time>2024-04-28T11:08:17Z</time>
      </trkpt>
      <trkpt lat="45.91949" lon="3.30116">
        <ele>311</ele>
        <time>2024-04-28T11:08:18Z</time>
      </trkpt>
      <trkpt lat="45.91948" lon="3.30125">
        <ele>311</ele>
        <time>2024-04-28T11:08:19Z</time>
      </trkpt>
      <trkpt lat="45.91947" lon="3.30134">
        <ele>311</ele>
        <time>2024-04-28T11:08:20Z</time>
      </trkpt>
      <trkpt lat="45.91945" lon="3.30144">
        <ele>310.8</ele>
        <time>2024-04-28T11:08:21Z</time>
      </trkpt>
      <trkpt lat="45.91944" lon="3.30153">
        <ele>310.8</ele>
        <time>2024-04-28T11:08:22Z</time>
      </trkpt>
      <trkpt lat="45.91943" lon="3.30162">
        <ele>310.8</ele>
        <time>2024-04-28T11:08:23Z</time>
      </trkpt>
      <trkpt lat="45.91942" lon="3.30172">
        <ele>310.8</ele>
        <time>2024-04-28T11:08:24Z</time>
      </trkpt>
      <trkpt lat="45.91941" lon="3.30181">
        <ele>310.6</ele>
        <time>2024-04-28T11:08:25Z</time>
      </trkpt>
      <trkpt lat="45.9194" lon="3.3019">
        <ele>310.6</ele>
        <time>2024-04-28T11:08:26Z</time>
      </trkpt>
      <trkpt lat="45.91939" lon="3.30199">
        <ele>310.6</ele>
        <time>2024-04-28T11:08:27Z</time>
      </trkpt>
      <trkpt lat="45.91938" lon="3.30208">
        <ele>310.4</ele>
        <time>2024-04-28T11:08:28Z</time>
      </trkpt>
      <trkpt lat="45.91937" lon="3.30217">
        <ele>310.4</ele>
        <time>2024-04-28T11:08:29Z</time>
      </trkpt>
      <trkpt lat="45.91936" lon="3.30226">
        <ele>310.4</ele>
        <time>2024-04-28T11:08:30Z</time>
      </trkpt>
      <trkpt lat="45.91935" lon="3.30235">
        <ele>310.2</ele>
        <time>2024-04-28T11:08:31Z</time>
      </trkpt>
      <trkpt lat="45.91934" lon="3.30244">
        <ele>310.2</ele>
        <time>2024-04-28T11:08:32Z</time>
      </trkpt>
      <trkpt lat="45.91933" lon="3.30253">
        <ele>310.2</ele>
        <time>2024-04-28T11:08:33Z</time>
      </trkpt>
      <trkpt lat="45.91932" lon="3.30262">
        <ele>310</ele>
        <time>2024-04-28T11:08:34Z</time>
      </trkpt>
      <trkpt lat="45.91931" lon="3.30271">
        <ele>310</ele>
        <time>2024-04-28T11:08:35Z</time>
      </trkpt>
      <trkpt lat="45.9193" lon="3.3028">
        <ele>310</ele>
        <time>2024-04-28T11:08:36Z</time>
      </trkpt>
      <trkpt lat="45.91929" lon="3.30289">
        <ele>309.8</ele>
        <time>2024-04-28T11:08:37Z</time>
      </trkpt>
      <trkpt lat="45.91928" lon="3.30298">
        <ele>309.8</ele>
        <time>2024-04-28T11:08:38Z</time>
      </trkpt>
      <trkpt lat="45.91927" lon="3.30307">
        <ele>309.8</ele>
        <time>2024-04-28T11:08:39Z</time>
      </trkpt>
      <trkpt lat="45.91926" lon="3.30315">
        <ele>309.6</ele>
        <time>2024-04-28T11:08:40Z</time>
      </trkpt>
      <trkpt lat="45.91925" lon="3.30324">
        <ele>309.6</ele>
        <time>2024-04-28T11:08:41Z</time>
      </trkpt>
      <trkpt lat="45.91924" lon="3.30333">
        <ele>309.6</ele>
        <time>2024-04-28T11:08:42Z</time>
      </trkpt>
      <trkpt lat="45.91923" lon="3.30341">
        <ele>309.6</ele>
        <time>2024-04-28T11:08:43Z</time>
      </trkpt>
      <trkpt lat="45.91922" lon="3.3035">
        <ele>309.6</ele>
        <time>2024-04-28T11:08:44Z</time>
      </trkpt>
      <trkpt lat="45.91921" lon="3.30358">
        <ele>309.6</ele>
        <time>2024-04-28T11:08:45Z</time>
      </trkpt>
      <trkpt lat="45.9192" lon="3.30367">
        <ele>309.6</ele>
        <time>2024-04-28T11:08:46Z</time>
      </trkpt>
      <trkpt lat="45.91919" lon="3.30375">
        <ele>309.6</ele>
        <time>2024-04-28T11:08:47Z</time>
      </trkpt>
      <trkpt lat="45.91918" lon="3.30384">
        <ele>309.6</ele>
        <time>2024-04-28T11:08:48Z</time>
      </trkpt>
      <trkpt lat="45.91917" lon="3.30392">
        <ele>309.6</ele>
        <time>2024-04-28T11:08:49Z</time>
      </trkpt>
      <trkpt lat="45.91916" lon="3.304">
        <ele>309.6</ele>
        <time>2024-04-28T11:08:50Z</time>
      </trkpt>
      <trkpt lat="45.91915" lon="3.30409">
        <ele>309.4</ele>
        <time>2024-04-28T11:08:51Z</time>
      </trkpt>
      <trkpt lat="45.91914" lon="3.30417">
        <ele>309.4</ele>
        <time>2024-04-28T11:08:52Z</time>
      </trkpt>
      <trkpt lat="45.91913" lon="3.30425">
        <ele>309.4</ele>
        <time>2024-04-28T11:08:53Z</time>
      </trkpt>
      <trkpt lat="45.91912" lon="3.30433">
        <ele>309.6</ele>
        <time>2024-04-28T11:08:54Z</time>
      </trkpt>
      <trkpt lat="45.91911" lon="3.30441">
        <ele>309.6</ele>
        <time>2024-04-28T11:08:55Z</time>
      </trkpt>
      <trkpt lat="45.9191" lon="3.30449">
        <ele>309.4</ele>
        <time>2024-04-28T11:08:56Z</time>
      </trkpt>
      <trkpt lat="45.91909" lon="3.30457">
        <ele>309.4</ele>
        <time>2024-04-28T11:08:57Z</time>
      </trkpt>
      <trkpt lat="45.91909" lon="3.30465">
        <ele>309.4</ele>
        <time>2024-04-28T11:08:58Z</time>
      </trkpt>
      <trkpt lat="45.91908" lon="3.30473">
        <ele>309.4</ele>
        <time>2024-04-28T11:08:59Z</time>
      </trkpt>
      <trkpt lat="45.91907" lon="3.30481">
        <ele>309.6</ele>
        <time>2024-04-28T11:09:00Z</time>
      </trkpt>
      <trkpt lat="45.91906" lon="3.30488">
        <ele>309.6</ele>
        <time>2024-04-28T11:09:01Z</time>
      </trkpt>
      <trkpt lat="45.91905" lon="3.30496">
        <ele>309.6</ele>
        <time>2024-04-28T11:09:02Z</time>
      </trkpt>
      <trkpt lat="45.91904" lon="3.30504">
        <ele>309.6</ele>
        <time>2024-04-28T11:09:03Z</time>
      </trkpt>
      <trkpt lat="45.91903" lon="3.30512">
        <ele>309.6</ele>
        <time>2024-04-28T11:09:04Z</time>
      </trkpt>
      <trkpt lat="45.91903" lon="3.3052">
        <ele>309.2</ele>
        <time>2024-04-28T11:09:05Z</time>
      </trkpt>
      <trkpt lat="45.91902" lon="3.30528">
        <ele>309.6</ele>
        <time>2024-04-28T11:09:06Z</time>
      </trkpt>
      <trkpt lat="45.91902" lon="3.30536">
        <ele>309.8</ele>
        <time>2024-04-28T11:09:07Z</time>
      </trkpt>
      <trkpt lat="45.91902" lon="3.30543">
        <ele>309.8</ele>
        <time>2024-04-28T11:09:08Z</time>
      </trkpt>
      <trkpt lat="45.91901" lon="3.3055">
        <ele>309.8</ele>
        <time>2024-04-28T11:09:09Z</time>
      </trkpt>
      <trkpt lat="45.91901" lon="3.30558">
        <ele>309.8</ele>
        <time>2024-04-28T11:09:10Z</time>
      </trkpt>
      <trkpt lat="45.919" lon="3.30565">
        <ele>309.8</ele>
        <time>2024-04-28T11:09:11Z</time>
      </trkpt>
      <trkpt lat="45.919" lon="3.30573">
        <ele>309.8</ele>
        <time>2024-04-28T11:09:12Z</time>
      </trkpt>
      <trkpt lat="45.91899" lon="3.30581">
        <ele>309.8</ele>
        <time>2024-04-28T11:09:13Z</time>
      </trkpt>
      <trkpt lat="45.91899" lon="3.30588">
        <ele>309.8</ele>
        <time>2024-04-28T11:09:14Z</time>
      </trkpt>
      <trkpt lat="45.91899" lon="3.30596">
        <ele>309.8</ele>
        <time>2024-04-28T11:09:15Z</time>
      </trkpt>
      <trkpt lat="45.91898" lon="3.30604">
        <ele>309.8</ele>
        <time>2024-04-28T11:09:16Z</time>
      </trkpt>
      <trkpt lat="45.91898" lon="3.30612">
        <ele>310</ele>
        <time>2024-04-28T11:09:17Z</time>
      </trkpt>
      <trkpt lat="45.91897" lon="3.3062">
        <ele>310</ele>
        <time>2024-04-28T11:09:18Z</time>
      </trkpt>
      <trkpt lat="45.91897" lon="3.30628">
        <ele>310</ele>
        <time>2024-04-28T11:09:19Z</time>
      </trkpt>
      <trkpt lat="45.91897" lon="3.30636">
        <ele>310</ele>
        <time>2024-04-28T11:09:20Z</time>
      </trkpt>
      <trkpt lat="45.91896" lon="3.30644">
        <ele>310</ele>
        <time>2024-04-28T11:09:21Z</time>
      </trkpt>
      <trkpt lat="45.91896" lon="3.30652">
        <ele>310</ele>
        <time>2024-04-28T11:09:22Z</time>
      </trkpt>
      <trkpt lat="45.91896" lon="3.3066">
        <ele>310</ele>
        <time>2024-04-28T11:09:23Z</time>
      </trkpt>
      <trkpt lat="45.91895" lon="3.30668">
        <ele>310</ele>
        <time>2024-04-28T11:09:24Z</time>
      </trkpt>
      <trkpt lat="45.91895" lon="3.30677">
        <ele>310</ele>
        <time>2024-04-28T11:09:25Z</time>
      </trkpt>
      <trkpt lat="45.91894" lon="3.30685">
        <ele>310</ele>
        <time>2024-04-28T11:09:26Z</time>
      </trkpt>
      <trkpt lat="45.91894" lon="3.30694">
        <ele>310</ele>
        <time>2024-04-28T11:09:27Z</time>
      </trkpt>
      <trkpt lat="45.91894" lon="3.30702">
        <ele>310</ele>
        <time>2024-04-28T11:09:28Z</time>
      </trkpt>
      <trkpt lat="45.91893" lon="3.30711">
        <ele>310</ele>
        <time>2024-04-28T11:09:29Z</time>
      </trkpt>
      <trkpt lat="45.91893" lon="3.3072">
        <ele>310</ele>
        <time>2024-04-28T11:09:30Z</time>
      </trkpt>
      <trkpt lat="45.91893" lon="3.30728">
        <ele>310</ele>
        <time>2024-04-28T11:09:31Z</time>
      </trkpt>
      <trkpt lat="45.91892" lon="3.30737">
        <ele>310.2</ele>
        <time>2024-04-28T11:09:32Z</time>
      </trkpt>
      <trkpt lat="45.91892" lon="3.30746">
        <ele>310.2</ele>
        <time>2024-04-28T11:09:33Z</time>
      </trkpt>
      <trkpt lat="45.91892" lon="3.30754">
        <ele>310.2</ele>
        <time>2024-04-28T11:09:34Z</time>
      </trkpt>
      <trkpt lat="45.91891" lon="3.30763">
        <ele>310.2</ele>
        <time>2024-04-28T11:09:35Z</time>
      </trkpt>
      <trkpt lat="45.91891" lon="3.30771">
        <ele>310.2</ele>
        <time>2024-04-28T11:09:36Z</time>
      </trkpt>
      <trkpt lat="45.9189" lon="3.30779">
        <ele>310.2</ele>
        <time>2024-04-28T11:09:37Z</time>
      </trkpt>
      <trkpt lat="45.9189" lon="3.30787">
        <ele>310.2</ele>
        <time>2024-04-28T11:09:38Z</time>
      </trkpt>
      <trkpt lat="45.9189" lon="3.30795">
        <ele>310.2</ele>
        <time>2024-04-28T11:09:39Z</time>
      </trkpt>
      <trkpt lat="45.91889" lon="3.30803">
        <ele>310.2</ele>
        <time>2024-04-28T11:09:40Z</time>
      </trkpt>
      <trkpt lat="45.91889" lon="3.30811">
        <ele>310.2</ele>
        <time>2024-04-28T11:09:41Z</time>
      </trkpt>
      <trkpt lat="45.91889" lon="3.30819">
        <ele>310.2</ele>
        <time>2024-04-28T11:09:42Z</time>
      </trkpt>
      <trkpt lat="45.91888" lon="3.30826">
        <ele>310.2</ele>
        <time>2024-04-28T11:09:43Z</time>
      </trkpt>
      <trkpt lat="45.91888" lon="3.30833">
        <ele>310.2</ele>
        <time>2024-04-28T11:09:44Z</time>
      </trkpt>
      <trkpt lat="45.91887" lon="3.30841">
        <ele>310.2</ele>
        <time>2024-04-28T11:09:45Z</time>
      </trkpt>
      <trkpt lat="45.91886" lon="3.30848">
        <ele>310.2</ele>
        <time>2024-04-28T11:09:46Z</time>
      </trkpt>
      <trkpt lat="45.91886" lon="3.30855">
        <ele>310.4</ele>
        <time>2024-04-28T11:09:47Z</time>
      </trkpt>
      <trkpt lat="45.91885" lon="3.30862">
        <ele>310.4</ele>
        <time>2024-04-28T11:09:48Z</time>
      </trkpt>
      <trkpt lat="45.91884" lon="3.30869">
        <ele>310.4</ele>
        <time>2024-04-28T11:09:49Z</time>
      </trkpt>
      <trkpt lat="45.91883" lon="3.30876">
        <ele>310.4</ele>
        <time>2024-04-28T11:09:50Z</time>
      </trkpt>
      <trkpt lat="45.91881" lon="3.30882">
        <ele>310.4</ele>
        <time>2024-04-28T11:09:51Z</time>
      </trkpt>
      <trkpt lat="45.9188" lon="3.30889">
        <ele>310.6</ele>
        <time>2024-04-28T11:09:52Z</time>
      </trkpt>
      <trkpt lat="45.91878" lon="3.30895">
        <ele>310.6</ele>
        <time>2024-04-28T11:09:53Z</time>
      </trkpt>
      <trkpt lat="45.91877" lon="3.30902">
        <ele>310.6</ele>
        <time>2024-04-28T11:09:54Z</time>
      </trkpt>
      <trkpt lat="45.91876" lon="3.30908">
        <ele>310.6</ele>
        <time>2024-04-28T11:09:55Z</time>
      </trkpt>
      <trkpt lat="45.91874" lon="3.30914">
        <ele>310.8</ele>
        <time>2024-04-28T11:09:56Z</time>
      </trkpt>
      <trkpt lat="45.91873" lon="3.3092">
        <ele>310.8</ele>
        <time>2024-04-28T11:09:57Z</time>
      </trkpt>
      <trkpt lat="45.91872" lon="3.30927">
        <ele>310.8</ele>
        <time>2024-04-28T11:09:58Z</time>
      </trkpt>
      <trkpt lat="45.9187" lon="3.30933">
        <ele>310.8</ele>
        <time>2024-04-28T11:09:59Z</time>
      </trkpt>
      <trkpt lat="45.91869" lon="3.30939">
        <ele>311</ele>
        <time>2024-04-28T11:10:00Z</time>
      </trkpt>
      <trkpt lat="45.91867" lon="3.30945">
        <ele>311</ele>
        <time>2024-04-28T11:10:01Z</time>
      </trkpt>
      <trkpt lat="45.91866" lon="3.30951">
        <ele>311</ele>
        <time>2024-04-28T11:10:02Z</time>
      </trkpt>
      <trkpt lat="45.91865" lon="3.30957">
        <ele>311</ele>
        <time>2024-04-28T11:10:03Z</time>
      </trkpt>
      <trkpt lat="45.91863" lon="3.30963">
        <ele>311.2</ele>
        <time>2024-04-28T11:10:04Z</time>
      </trkpt>
      <trkpt lat="45.91862" lon="3.30969">
        <ele>311.2</ele>
        <time>2024-04-28T11:10:05Z</time>
      </trkpt>
      <trkpt lat="45.91861" lon="3.30976">
        <ele>311.2</ele>
        <time>2024-04-28T11:10:06Z</time>
      </trkpt>
      <trkpt lat="45.91859" lon="3.30982">
        <ele>311.4</ele>
        <time>2024-04-28T11:10:07Z</time>
      </trkpt>
      <trkpt lat="45.91858" lon="3.30989">
        <ele>311.4</ele>
        <time>2024-04-28T11:10:08Z</time>
      </trkpt>
      <trkpt lat="45.91856" lon="3.30995">
        <ele>311.4</ele>
        <time>2024-04-28T11:10:09Z</time>
      </trkpt>
      <trkpt lat="45.91855" lon="3.31001">
        <ele>311.4</ele>
        <time>2024-04-28T11:10:10Z</time>
      </trkpt>
      <trkpt lat="45.91854" lon="3.31008">
        <ele>311.6</ele>
        <time>2024-04-28T11:10:11Z</time>
      </trkpt>
      <trkpt lat="45.91852" lon="3.31014">
        <ele>311.6</ele>
        <time>2024-04-28T11:10:12Z</time>
      </trkpt>
      <trkpt lat="45.91851" lon="3.3102">
        <ele>311.8</ele>
        <time>2024-04-28T11:10:13Z</time>
      </trkpt>
      <trkpt lat="45.9185" lon="3.31027">
        <ele>311.8</ele>
        <time>2024-04-28T11:10:14Z</time>
      </trkpt>
      <trkpt lat="45.9185" lon="3.31034">
        <ele>311.8</ele>
        <time>2024-04-28T11:10:15Z</time>
      </trkpt>
      <trkpt lat="45.9185" lon="3.31041">
        <ele>312</ele>
        <time>2024-04-28T11:10:16Z</time>
      </trkpt>
      <trkpt lat="45.9185" lon="3.31048">
        <ele>312</ele>
        <time>2024-04-28T11:10:17Z</time>
      </trkpt>
      <trkpt lat="45.9185" lon="3.31055">
        <ele>312</ele>
        <time>2024-04-28T11:10:18Z</time>
      </trkpt>
      <trkpt lat="45.9185" lon="3.31062">
        <ele>312.2</ele>
        <time>2024-04-28T11:10:19Z</time>
      </trkpt>
      <trkpt lat="45.9185" lon="3.31069">
        <ele>312.2</ele>
        <time>2024-04-28T11:10:20Z</time>
      </trkpt>
      <trkpt lat="45.9185" lon="3.31077">
        <ele>312.2</ele>
        <time>2024-04-28T11:10:21Z</time>
      </trkpt>
      <trkpt lat="45.9185" lon="3.31084">
        <ele>312.2</ele>
        <time>2024-04-28T11:10:22Z</time>
      </trkpt>
      <trkpt lat="45.9185" lon="3.31092">
        <ele>312.4</ele>
        <time>2024-04-28T11:10:23Z</time>
      </trkpt>
      <trkpt lat="45.91851" lon="3.311">
        <ele>312.4</ele>
        <time>2024-04-28T11:10:24Z</time>
      </trkpt>
      <trkpt lat="45.91851" lon="3.31108">
        <ele>312.4</ele>
        <time>2024-04-28T11:10:25Z</time>
      </trkpt>
      <trkpt lat="45.91852" lon="3.31116">
        <ele>312.4</ele>
        <time>2024-04-28T11:10:26Z</time>
      </trkpt>
      <trkpt lat="45.91853" lon="3.31125">
        <ele>312.6</ele>
        <time>2024-04-28T11:10:27Z</time>
      </trkpt>
      <trkpt lat="45.91853" lon="3.31133">
        <ele>312.6</ele>
        <time>2024-04-28T11:10:28Z</time>
      </trkpt>
      <trkpt lat="45.91854" lon="3.31141">
        <ele>312.6</ele>
        <time>2024-04-28T11:10:29Z</time>
      </trkpt>
      <trkpt lat="45.91855" lon="3.3115">
        <ele>312.6</ele>
        <time>2024-04-28T11:10:30Z</time>
      </trkpt>
      <trkpt lat="45.91855" lon="3.31158">
        <ele>312.8</ele>
        <time>2024-04-28T11:10:31Z</time>
      </trkpt>
      <trkpt lat="45.91856" lon="3.31167">
        <ele>312.8</ele>
        <time>2024-04-28T11:10:32Z</time>
      </trkpt>
      <trkpt lat="45.91857" lon="3.31175">
        <ele>312.8</ele>
        <time>2024-04-28T11:10:33Z</time>
      </trkpt>
      <trkpt lat="45.91857" lon="3.31184">
        <ele>312.8</ele>
        <time>2024-04-28T11:10:34Z</time>
      </trkpt>
      <trkpt lat="45.91858" lon="3.31193">
        <ele>312.8</ele>
        <time>2024-04-28T11:10:35Z</time>
      </trkpt>
      <trkpt lat="45.91859" lon="3.31202">
        <ele>313</ele>
        <time>2024-04-28T11:10:36Z</time>
      </trkpt>
      <trkpt lat="45.9186" lon="3.31211">
        <ele>313</ele>
        <time>2024-04-28T11:10:37Z</time>
      </trkpt>
      <trkpt lat="45.9186" lon="3.31219">
        <ele>313</ele>
        <time>2024-04-28T11:10:38Z</time>
      </trkpt>
      <trkpt lat="45.91861" lon="3.31228">
        <ele>313</ele>
        <time>2024-04-28T11:10:39Z</time>
      </trkpt>
      <trkpt lat="45.91862" lon="3.31237">
        <ele>313</ele>
        <time>2024-04-28T11:10:40Z</time>
      </trkpt>
      <trkpt lat="45.91862" lon="3.31246">
        <ele>313</ele>
        <time>2024-04-28T11:10:41Z</time>
      </trkpt>
      <trkpt lat="45.91863" lon="3.31255">
        <ele>313.2</ele>
        <time>2024-04-28T11:10:42Z</time>
      </trkpt>
      <trkpt lat="45.91864" lon="3.31264">
        <ele>313.2</ele>
        <time>2024-04-28T11:10:43Z</time>
      </trkpt>
      <trkpt lat="45.91864" lon="3.31273">
        <ele>313.2</ele>
        <time>2024-04-28T11:10:44Z</time>
      </trkpt>
      <trkpt lat="45.91865" lon="3.31282">
        <ele>313.2</ele>
        <time>2024-04-28T11:10:45Z</time>
      </trkpt>
      <trkpt lat="45.91866" lon="3.31291">
        <ele>313.2</ele>
        <time>2024-04-28T11:10:46Z</time>
      </trkpt>
      <trkpt lat="45.91867" lon="3.313">
        <ele>313.2</ele>
        <time>2024-04-28T11:10:47Z</time>
      </trkpt>
      <trkpt lat="45.91867" lon="3.31309">
        <ele>313.2</ele>
        <time>2024-04-28T11:10:48Z</time>
      </trkpt>
      <trkpt lat="45.91868" lon="3.31318">
        <ele>313.2</ele>
        <time>2024-04-28T11:10:49Z</time>
      </trkpt>
      <trkpt lat="45.91869" lon="3.31327">
        <ele>313.2</ele>
        <time>2024-04-28T11:10:50Z</time>
      </trkpt>
      <trkpt lat="45.91869" lon="3.31336">
        <ele>313.2</ele>
        <time>2024-04-28T11:10:51Z</time>
      </trkpt>
      <trkpt lat="45.91869" lon="3.31346">
        <ele>313.2</ele>
        <time>2024-04-28T11:10:52Z</time>
      </trkpt>
      <trkpt lat="45.91869" lon="3.31356">
        <ele>313.2</ele>
        <time>2024-04-28T11:10:53Z</time>
      </trkpt>
      <trkpt lat="45.91869" lon="3.31365">
        <ele>313.2</ele>
        <time>2024-04-28T11:10:54Z</time>
      </trkpt>
      <trkpt lat="45.91869" lon="3.31376">
        <ele>313.2</ele>
        <time>2024-04-28T11:10:55Z</time>
      </trkpt>
      <trkpt lat="45.91869" lon="3.31386">
        <ele>313.2</ele>
        <time>2024-04-28T11:10:56Z</time>
      </trkpt>
      <trkpt lat="45.9187" lon="3.31397">
        <ele>313</ele>
        <time>2024-04-28T11:10:57Z</time>
      </trkpt>
      <trkpt lat="45.9187" lon="3.31408">
        <ele>313</ele>
        <time>2024-04-28T11:10:58Z</time>
      </trkpt>
      <trkpt lat="45.9187" lon="3.31419">
        <ele>313.4</ele>
        <time>2024-04-28T11:10:59Z</time>
      </trkpt>
      <trkpt lat="45.9187" lon="3.3143">
        <ele>313</ele>
        <time>2024-04-28T11:11:00Z</time>
      </trkpt>
      <trkpt lat="45.9187" lon="3.31441">
        <ele>312.8</ele>
        <time>2024-04-28T11:11:01Z</time>
      </trkpt>
      <trkpt lat="45.9187" lon="3.31452">
        <ele>312.8</ele>
        <time>2024-04-28T11:11:02Z</time>
      </trkpt>
      <trkpt lat="45.9187" lon="3.31463">
        <ele>312.8</ele>
        <time>2024-04-28T11:11:03Z</time>
      </trkpt>
      <trkpt lat="45.9187" lon="3.31475">
        <ele>312.8</ele>
        <time>2024-04-28T11:11:04Z</time>
      </trkpt>
      <trkpt lat="45.9187" lon="3.31486">
        <ele>312.6</ele>
        <time>2024-04-28T11:11:05Z</time>
      </trkpt>
      <trkpt lat="45.9187" lon="3.31498">
        <ele>312.6</ele>
        <time>2024-04-28T11:11:06Z</time>
      </trkpt>
      <trkpt lat="45.91871" lon="3.3151">
        <ele>312.6</ele>
        <time>2024-04-28T11:11:07Z</time>
      </trkpt>
      <trkpt lat="45.91871" lon="3.31522">
        <ele>312.4</ele>
        <time>2024-04-28T11:11:08Z</time>
      </trkpt>
      <trkpt lat="45.91871" lon="3.31534">
        <ele>312.4</ele>
        <time>2024-04-28T11:11:09Z</time>
      </trkpt>
      <trkpt lat="45.91871" lon="3.31546">
        <ele>312.2</ele>
        <time>2024-04-28T11:11:10Z</time>
      </trkpt>
      <trkpt lat="45.91871" lon="3.31558">
        <ele>312.2</ele>
        <time>2024-04-28T11:11:11Z</time>
      </trkpt>
      <trkpt lat="45.9187" lon="3.3157">
        <ele>312.2</ele>
        <time>2024-04-28T11:11:12Z</time>
      </trkpt>
      <trkpt lat="45.91868" lon="3.31581">
        <ele>312</ele>
        <time>2024-04-28T11:11:13Z</time>
      </trkpt>
      <trkpt lat="45.91867" lon="3.31593">
        <ele>312</ele>
        <time>2024-04-28T11:11:14Z</time>
      </trkpt>
      <trkpt lat="45.91866" lon="3.31604">
        <ele>312</ele>
        <time>2024-04-28T11:11:15Z</time>
      </trkpt>
      <trkpt lat="45.91865" lon="3.31615">
        <ele>312</ele>
        <time>2024-04-28T11:11:16Z</time>
      </trkpt>
      <trkpt lat="45.91864" lon="3.31627">
        <ele>311.8</ele>
        <time>2024-04-28T11:11:17Z</time>
      </trkpt>
      <trkpt lat="45.91863" lon="3.31638">
        <ele>311.8</ele>
        <time>2024-04-28T11:11:18Z</time>
      </trkpt>
      <trkpt lat="45.91862" lon="3.31649">
        <ele>311.8</ele>
        <time>2024-04-28T11:11:19Z</time>
      </trkpt>
      <trkpt lat="45.9186" lon="3.3166">
        <ele>311.8</ele>
        <time>2024-04-28T11:11:20Z</time>
      </trkpt>
      <trkpt lat="45.91859" lon="3.31671">
        <ele>311.8</ele>
        <time>2024-04-28T11:11:21Z</time>
      </trkpt>
      <trkpt lat="45.91858" lon="3.31682">
        <ele>311.6</ele>
        <time>2024-04-28T11:11:22Z</time>
      </trkpt>
      <trkpt lat="45.91857" lon="3.31693">
        <ele>311.6</ele>
        <time>2024-04-28T11:11:23Z</time>
      </trkpt>
      <trkpt lat="45.91856" lon="3.31704">
        <ele>311.6</ele>
        <time>2024-04-28T11:11:24Z</time>
      </trkpt>
      <trkpt lat="45.91855" lon="3.31715">
        <ele>311.6</ele>
        <time>2024-04-28T11:11:25Z</time>
      </trkpt>
      <trkpt lat="45.91854" lon="3.31726">
        <ele>311.4</ele>
        <time>2024-04-28T11:11:26Z</time>
      </trkpt>
      <trkpt lat="45.91853" lon="3.31737">
        <ele>311.4</ele>
        <time>2024-04-28T11:11:27Z</time>
      </trkpt>
      <trkpt lat="45.91852" lon="3.31748">
        <ele>311.4</ele>
        <time>2024-04-28T11:11:28Z</time>
      </trkpt>
      <trkpt lat="45.9185" lon="3.31758">
        <ele>311.6</ele>
        <time>2024-04-28T11:11:29Z</time>
      </trkpt>
      <trkpt lat="45.91849" lon="3.31769">
        <ele>311.6</ele>
        <time>2024-04-28T11:11:30Z</time>
      </trkpt>
      <trkpt lat="45.91848" lon="3.3178">
        <ele>311.6</ele>
        <time>2024-04-28T11:11:31Z</time>
      </trkpt>
      <trkpt lat="45.91847" lon="3.31791">
        <ele>311.4</ele>
        <time>2024-04-28T11:11:32Z</time>
      </trkpt>
      <trkpt lat="45.91846" lon="3.31802">
        <ele>311.4</ele>
        <time>2024-04-28T11:11:33Z</time>
      </trkpt>
      <trkpt lat="45.91845" lon="3.31813">
        <ele>311.4</ele>
        <time>2024-04-28T11:11:34Z</time>
      </trkpt>
      <trkpt lat="45.91844" lon="3.31823">
        <ele>311.2</ele>
        <time>2024-04-28T11:11:35Z</time>
      </trkpt>
      <trkpt lat="45.91843" lon="3.31834">
        <ele>311.2</ele>
        <time>2024-04-28T11:11:36Z</time>
      </trkpt>
      <trkpt lat="45.91842" lon="3.31845">
        <ele>311.2</ele>
        <time>2024-04-28T11:11:37Z</time>
      </trkpt>
      <trkpt lat="45.91841" lon="3.31855">
        <ele>311</ele>
        <time>2024-04-28T11:11:38Z</time>
      </trkpt>
      <trkpt lat="45.91841" lon="3.31865">
        <ele>311</ele>
        <time>2024-04-28T11:11:39Z</time>
      </trkpt>
      <trkpt lat="45.91841" lon="3.31876">
        <ele>311</ele>
        <time>2024-04-28T11:11:40Z</time>
      </trkpt>
      <trkpt lat="45.91841" lon="3.31886">
        <ele>310.8</ele>
        <time>2024-04-28T11:11:41Z</time>
      </trkpt>
      <trkpt lat="45.91841" lon="3.31897">
        <ele>310.8</ele>
        <time>2024-04-28T11:11:42Z</time>
      </trkpt>
      <trkpt lat="45.91841" lon="3.31907">
        <ele>310.8</ele>
        <time>2024-04-28T11:11:43Z</time>
      </trkpt>
      <trkpt lat="45.91841" lon="3.31917">
        <ele>310.8</ele>
        <time>2024-04-28T11:11:44Z</time>
      </trkpt>
      <trkpt lat="45.91842" lon="3.31927">
        <ele>310.8</ele>
        <time>2024-04-28T11:11:45Z</time>
      </trkpt>
      <trkpt lat="45.91845" lon="3.31937">
        <ele>310.6</ele>
        <time>2024-04-28T11:11:46Z</time>
      </trkpt>
      <trkpt lat="45.91847" lon="3.31946">
        <ele>310.6</ele>
        <time>2024-04-28T11:11:47Z</time>
      </trkpt>
      <trkpt lat="45.9185" lon="3.31956">
        <ele>310.6</ele>
        <time>2024-04-28T11:11:48Z</time>
      </trkpt>
      <trkpt lat="45.91853" lon="3.31966">
        <ele>310.6</ele>
        <time>2024-04-28T11:11:49Z</time>
      </trkpt>
      <trkpt lat="45.91856" lon="3.31975">
        <ele>310.4</ele>
        <time>2024-04-28T11:11:50Z</time>
      </trkpt>
      <trkpt lat="45.91859" lon="3.31985">
        <ele>310.4</ele>
        <time>2024-04-28T11:11:51Z</time>
      </trkpt>
      <trkpt lat="45.91861" lon="3.31995">
        <ele>310.4</ele>
        <time>2024-04-28T11:11:52Z</time>
      </trkpt>
      <trkpt lat="45.91864" lon="3.32005">
        <ele>310.4</ele>
        <time>2024-04-28T11:11:53Z</time>
      </trkpt>
      <trkpt lat="45.91867" lon="3.32015">
        <ele>310.2</ele>
        <time>2024-04-28T11:11:54Z</time>
      </trkpt>
      <trkpt lat="45.9187" lon="3.32025">
        <ele>310.2</ele>
        <time>2024-04-28T11:11:55Z</time>
      </trkpt>
      <trkpt lat="45.91873" lon="3.32035">
        <ele>310</ele>
        <time>2024-04-28T11:11:56Z</time>
      </trkpt>
      <trkpt lat="45.91876" lon="3.32044">
        <ele>310</ele>
        <time>2024-04-28T11:11:57Z</time>
      </trkpt>
      <trkpt lat="45.91878" lon="3.32053">
        <ele>310</ele>
        <time>2024-04-28T11:11:58Z</time>
      </trkpt>
      <trkpt lat="45.91881" lon="3.32062">
        <ele>310</ele>
        <time>2024-04-28T11:11:59Z</time>
      </trkpt>
      <trkpt lat="45.91884" lon="3.32071">
        <ele>310</ele>
        <time>2024-04-28T11:12:00Z</time>
      </trkpt>
      <trkpt lat="45.91886" lon="3.3208">
        <ele>310</ele>
        <time>2024-04-28T11:12:01Z</time>
      </trkpt>
      <trkpt lat="45.91889" lon="3.32089">
        <ele>310</ele>
        <time>2024-04-28T11:12:02Z</time>
      </trkpt>
      <trkpt lat="45.91891" lon="3.32098">
        <ele>310</ele>
        <time>2024-04-28T11:12:03Z</time>
      </trkpt>
      <trkpt lat="45.91894" lon="3.32106">
        <ele>310</ele>
        <time>2024-04-28T11:12:04Z</time>
      </trkpt>
      <trkpt lat="45.91896" lon="3.32115">
        <ele>310</ele>
        <time>2024-04-28T11:12:05Z</time>
      </trkpt>
      <trkpt lat="45.91898" lon="3.32123">
        <ele>310</ele>
        <time>2024-04-28T11:12:06Z</time>
      </trkpt>
      <trkpt lat="45.919" lon="3.32132">
        <ele>310</ele>
        <time>2024-04-28T11:12:07Z</time>
      </trkpt>
      <trkpt lat="45.91901" lon="3.32141">
        <ele>310</ele>
        <time>2024-04-28T11:12:08Z</time>
      </trkpt>
      <trkpt lat="45.91903" lon="3.32151">
        <ele>310</ele>
        <time>2024-04-28T11:12:09Z</time>
      </trkpt>
      <trkpt lat="45.91905" lon="3.3216">
        <ele>310</ele>
        <time>2024-04-28T11:12:10Z</time>
      </trkpt>
      <trkpt lat="45.91907" lon="3.32169">
        <ele>310</ele>
        <time>2024-04-28T11:12:11Z</time>
      </trkpt>
      <trkpt lat="45.91909" lon="3.32178">
        <ele>310</ele>
        <time>2024-04-28T11:12:12Z</time>
      </trkpt>
      <trkpt lat="45.91911" lon="3.32186">
        <ele>310</ele>
        <time>2024-04-28T11:12:13Z</time>
      </trkpt>
      <trkpt lat="45.91913" lon="3.32195">
        <ele>310</ele>
        <time>2024-04-28T11:12:14Z</time>
      </trkpt>
      <trkpt lat="45.91915" lon="3.32205">
        <ele>310</ele>
        <time>2024-04-28T11:12:15Z</time>
      </trkpt>
      <trkpt lat="45.91916" lon="3.32214">
        <ele>310</ele>
        <time>2024-04-28T11:12:16Z</time>
      </trkpt>
      <trkpt lat="45.91918" lon="3.32223">
        <ele>310</ele>
        <time>2024-04-28T11:12:17Z</time>
      </trkpt>
      <trkpt lat="45.9192" lon="3.32232">
        <ele>310</ele>
        <time>2024-04-28T11:12:18Z</time>
      </trkpt>
      <trkpt lat="45.91922" lon="3.3224">
        <ele>309.6</ele>
        <time>2024-04-28T11:12:19Z</time>
      </trkpt>
      <trkpt lat="45.91924" lon="3.32249">
        <ele>309.6</ele>
        <time>2024-04-28T11:12:20Z</time>
      </trkpt>
      <trkpt lat="45.91925" lon="3.32258">
        <ele>309.6</ele>
        <time>2024-04-28T11:12:21Z</time>
      </trkpt>
      <trkpt lat="45.91927" lon="3.32267">
        <ele>309.6</ele>
        <time>2024-04-28T11:12:22Z</time>
      </trkpt>
      <trkpt lat="45.91929" lon="3.32276">
        <ele>309.8</ele>
        <time>2024-04-28T11:12:23Z</time>
      </trkpt>
      <trkpt lat="45.91931" lon="3.32284">
        <ele>309.8</ele>
        <time>2024-04-28T11:12:24Z</time>
      </trkpt>
      <trkpt lat="45.91932" lon="3.32293">
        <ele>309.8</ele>
        <time>2024-04-28T11:12:25Z</time>
      </trkpt>
      <trkpt lat="45.91934" lon="3.32301">
        <ele>309.8</ele>
        <time>2024-04-28T11:12:26Z</time>
      </trkpt>
      <trkpt lat="45.91936" lon="3.3231">
        <ele>309.8</ele>
        <time>2024-04-28T11:12:27Z</time>
      </trkpt>
      <trkpt lat="45.91937" lon="3.32318">
        <ele>309.8</ele>
        <time>2024-04-28T11:12:28Z</time>
      </trkpt>
      <trkpt lat="45.91939" lon="3.32327">
        <ele>309.6</ele>
        <time>2024-04-28T11:12:29Z</time>
      </trkpt>
      <trkpt lat="45.9194" lon="3.32336">
        <ele>309.6</ele>
        <time>2024-04-28T11:12:30Z</time>
      </trkpt>
      <trkpt lat="45.91942" lon="3.32345">
        <ele>309.6</ele>
        <time>2024-04-28T11:12:31Z</time>
      </trkpt>
      <trkpt lat="45.91944" lon="3.32353">
        <ele>309.4</ele>
        <time>2024-04-28T11:12:32Z</time>
      </trkpt>
      <trkpt lat="45.91946" lon="3.32362">
        <ele>309.4</ele>
        <time>2024-04-28T11:12:33Z</time>
      </trkpt>
      <trkpt lat="45.91948" lon="3.32371">
        <ele>309.2</ele>
        <time>2024-04-28T11:12:34Z</time>
      </trkpt>
      <trkpt lat="45.9195" lon="3.3238">
        <ele>309.2</ele>
        <time>2024-04-28T11:12:35Z</time>
      </trkpt>
      <trkpt lat="45.91952" lon="3.32389">
        <ele>309</ele>
        <time>2024-04-28T11:12:36Z</time>
      </trkpt>
      <trkpt lat="45.91954" lon="3.32399">
        <ele>308.8</ele>
        <time>2024-04-28T11:12:37Z</time>
      </trkpt>
      <trkpt lat="45.91957" lon="3.32408">
        <ele>308.8</ele>
        <time>2024-04-28T11:12:38Z</time>
      </trkpt>
      <trkpt lat="45.91959" lon="3.32417">
        <ele>308.6</ele>
        <time>2024-04-28T11:12:39Z</time>
      </trkpt>
      <trkpt lat="45.91961" lon="3.32426">
        <ele>308.4</ele>
        <time>2024-04-28T11:12:40Z</time>
      </trkpt>
      <trkpt lat="45.91963" lon="3.32435">
        <ele>308.2</ele>
        <time>2024-04-28T11:12:41Z</time>
      </trkpt>
      <trkpt lat="45.91965" lon="3.32444">
        <ele>308.2</ele>
        <time>2024-04-28T11:12:42Z</time>
      </trkpt>
      <trkpt lat="45.91967" lon="3.32454">
        <ele>308</ele>
        <time>2024-04-28T11:12:43Z</time>
      </trkpt>
      <trkpt lat="45.91969" lon="3.32463">
        <ele>307.8</ele>
        <time>2024-04-28T11:12:44Z</time>
      </trkpt>
      <trkpt lat="45.91971" lon="3.32472">
        <ele>307.6</ele>
        <time>2024-04-28T11:12:45Z</time>
      </trkpt>
      <trkpt lat="45.91973" lon="3.32481">
        <ele>307.6</ele>
        <time>2024-04-28T11:12:46Z</time>
      </trkpt>
      <trkpt lat="45.91973" lon="3.3249">
        <ele>307.4</ele>
        <time>2024-04-28T11:12:47Z</time>
      </trkpt>
      <trkpt lat="45.91972" lon="3.325">
        <ele>307.4</ele>
        <time>2024-04-28T11:12:48Z</time>
      </trkpt>
      <trkpt lat="45.9197" lon="3.32509">
        <ele>307.2</ele>
        <time>2024-04-28T11:12:49Z</time>
      </trkpt>
      <trkpt lat="45.91969" lon="3.32519">
        <ele>307.2</ele>
        <time>2024-04-28T11:12:50Z</time>
      </trkpt>
      <trkpt lat="45.91967" lon="3.32529">
        <ele>307</ele>
        <time>2024-04-28T11:12:51Z</time>
      </trkpt>
      <trkpt lat="45.91965" lon="3.32539">
        <ele>307</ele>
        <time>2024-04-28T11:12:52Z</time>
      </trkpt>
      <trkpt lat="45.91964" lon="3.32549">
        <ele>306.8</ele>
        <time>2024-04-28T11:12:53Z</time>
      </trkpt>
      <trkpt lat="45.91963" lon="3.3256">
        <ele>306.6</ele>
        <time>2024-04-28T11:12:54Z</time>
      </trkpt>
      <trkpt lat="45.91962" lon="3.32571">
        <ele>306.6</ele>
        <time>2024-04-28T11:12:55Z</time>
      </trkpt>
      <trkpt lat="45.91962" lon="3.32581">
        <ele>306.4</ele>
        <time>2024-04-28T11:12:56Z</time>
      </trkpt>
      <trkpt lat="45.91961" lon="3.32592">
        <ele>306.4</ele>
        <time>2024-04-28T11:12:57Z</time>
      </trkpt>
      <trkpt lat="45.91963" lon="3.32602">
        <ele>306.2</ele>
        <time>2024-04-28T11:12:58Z</time>
      </trkpt>
      <trkpt lat="45.91964" lon="3.32612">
        <ele>306</ele>
        <time>2024-04-28T11:12:59Z</time>
      </trkpt>
      <trkpt lat="45.91966" lon="3.32623">
        <ele>305.8</ele>
        <time>2024-04-28T11:13:00Z</time>
      </trkpt>
      <trkpt lat="45.91967" lon="3.32633">
        <ele>305.6</ele>
        <time>2024-04-28T11:13:01Z</time>
      </trkpt>
      <trkpt lat="45.91969" lon="3.32642">
        <ele>305.4</ele>
        <time>2024-04-28T11:13:02Z</time>
      </trkpt>
      <trkpt lat="45.91973" lon="3.32651">
        <ele>305.2</ele>
        <time>2024-04-28T11:13:03Z</time>
      </trkpt>
      <trkpt lat="45.91976" lon="3.3266">
        <ele>305</ele>
        <time>2024-04-28T11:13:04Z</time>
      </trkpt>
      <trkpt lat="45.91979" lon="3.32669">
        <ele>304.8</ele>
        <time>2024-04-28T11:13:05Z</time>
      </trkpt>
      <trkpt lat="45.91984" lon="3.32677">
        <ele>304.8</ele>
        <time>2024-04-28T11:13:06Z</time>
      </trkpt>
      <trkpt lat="45.91988" lon="3.32684">
        <ele>304.6</ele>
        <time>2024-04-28T11:13:07Z</time>
      </trkpt>
      <trkpt lat="45.91993" lon="3.32691">
        <ele>304.6</ele>
        <time>2024-04-28T11:13:08Z</time>
      </trkpt>
      <trkpt lat="45.91997" lon="3.32697">
        <ele>304.6</ele>
        <time>2024-04-28T11:13:09Z</time>
      </trkpt>
      <trkpt lat="45.92" lon="3.32706">
        <ele>304.4</ele>
        <time>2024-04-28T11:13:10Z</time>
      </trkpt>
      <trkpt lat="45.92003" lon="3.32715">
        <ele>304.4</ele>
        <time>2024-04-28T11:13:11Z</time>
      </trkpt>
      <trkpt lat="45.92005" lon="3.32725">
        <ele>304.4</ele>
        <time>2024-04-28T11:13:12Z</time>
      </trkpt>
      <trkpt lat="45.92007" lon="3.32734">
        <ele>304.4</ele>
        <time>2024-04-28T11:13:13Z</time>
      </trkpt>
      <trkpt lat="45.92009" lon="3.32743">
        <ele>304.4</ele>
        <time>2024-04-28T11:13:14Z</time>
      </trkpt>
      <trkpt lat="45.9201" lon="3.32753">
        <ele>304.2</ele>
        <time>2024-04-28T11:13:15Z</time>
      </trkpt>
      <trkpt lat="45.9201" lon="3.32761">
        <ele>304.2</ele>
        <time>2024-04-28T11:13:16Z</time>
      </trkpt>
      <trkpt lat="45.92009" lon="3.32769">
        <ele>304.2</ele>
        <time>2024-04-28T11:13:17Z</time>
      </trkpt>
      <trkpt lat="45.92009" lon="3.32777">
        <ele>304.2</ele>
        <time>2024-04-28T11:13:18Z</time>
      </trkpt>
      <trkpt lat="45.92009" lon="3.32777">
        <ele>304.2</ele>
        <time>2024-04-28T11:13:19Z</time>
      </trkpt>
      <trkpt lat="45.92008" lon="3.32792">
        <ele>304.2</ele>
        <time>2024-04-28T11:13:20Z</time>
      </trkpt>
      <trkpt lat="45.92008" lon="3.328">
        <ele>304.2</ele>
        <time>2024-04-28T11:13:21Z</time>
      </trkpt>
      <trkpt lat="45.92007" lon="3.32806">
        <ele>304.2</ele>
        <time>2024-04-28T11:13:22Z</time>
      </trkpt>
      <trkpt lat="45.92007" lon="3.32813">
        <ele>304.2</ele>
        <time>2024-04-28T11:13:23Z</time>
      </trkpt>
      <trkpt lat="45.92007" lon="3.32813">
        <ele>304.2</ele>
        <time>2024-04-28T11:13:24Z</time>
      </trkpt>
      <trkpt lat="45.92006" lon="3.32826">
        <ele>304.2</ele>
        <time>2024-04-28T11:13:25Z</time>
      </trkpt>
      <trkpt lat="45.92006" lon="3.32831">
        <ele>304.2</ele>
        <time>2024-04-28T11:13:26Z</time>
      </trkpt>
      <trkpt lat="45.92006" lon="3.32836">
        <ele>304.2</ele>
        <time>2024-04-28T11:13:27Z</time>
      </trkpt>
      <trkpt lat="45.92006" lon="3.32842">
        <ele>304.2</ele>
        <time>2024-04-28T11:13:28Z</time>
      </trkpt>
      <trkpt lat="45.92006" lon="3.32847">
        <ele>304.4</ele>
        <time>2024-04-28T11:13:29Z</time>
      </trkpt>
      <trkpt lat="45.92006" lon="3.32851">
        <ele>304.4</ele>
        <time>2024-04-28T11:13:30Z</time>
      </trkpt>
      <trkpt lat="45.92006" lon="3.32851">
        <ele>303.6</ele>
        <time>2024-04-28T11:13:31Z</time>
      </trkpt>
      <trkpt lat="45.92009" lon="3.32861">
        <ele>304</ele>
        <time>2024-04-28T11:13:32Z</time>
      </trkpt>
      <trkpt lat="45.92011" lon="3.32868">
        <ele>304.2</ele>
        <time>2024-04-28T11:13:33Z</time>
      </trkpt>
      <trkpt lat="45.92013" lon="3.32876">
        <ele>304.4</ele>
        <time>2024-04-28T11:13:34Z</time>
      </trkpt>
      <trkpt lat="45.92016" lon="3.32885">
        <ele>304.6</ele>
        <time>2024-04-28T11:13:35Z</time>
      </trkpt>
      <trkpt lat="45.92019" lon="3.32894">
        <ele>305</ele>
        <time>2024-04-28T11:13:36Z</time>
      </trkpt>
      <trkpt lat="45.92021" lon="3.32903">
        <ele>304.6</ele>
        <time>2024-04-28T11:13:37Z</time>
      </trkpt>
      <trkpt lat="45.92022" lon="3.32914">
        <ele>304.8</ele>
        <time>2024-04-28T11:13:38Z</time>
      </trkpt>
      <trkpt lat="45.92023" lon="3.32926">
        <ele>304.6</ele>
        <time>2024-04-28T11:13:39Z</time>
      </trkpt>
      <trkpt lat="45.92024" lon="3.32938">
        <ele>304.4</ele>
        <time>2024-04-28T11:13:40Z</time>
      </trkpt>
      <trkpt lat="45.92026" lon="3.3295">
        <ele>304.2</ele>
        <time>2024-04-28T11:13:41Z</time>
      </trkpt>
      <trkpt lat="45.92025" lon="3.32959">
        <ele>304.2</ele>
        <time>2024-04-28T11:13:42Z</time>
      </trkpt>
      <trkpt lat="45.92024" lon="3.32969">
        <ele>304.2</ele>
        <time>2024-04-28T11:13:43Z</time>
      </trkpt>
      <trkpt lat="45.92024" lon="3.32977">
        <ele>304.2</ele>
        <time>2024-04-28T11:13:44Z</time>
      </trkpt>
      <trkpt lat="45.92024" lon="3.32977">
        <ele>304</ele>
        <time>2024-04-28T11:13:45Z</time>
      </trkpt>
      <trkpt lat="45.92023" lon="3.32989">
        <ele>304.2</ele>
        <time>2024-04-28T11:13:46Z</time>
      </trkpt>
      <trkpt lat="45.92013" lon="3.3299">
        <ele>304.2</ele>
        <time>2024-04-28T11:13:47Z</time>
      </trkpt>
      <trkpt lat="45.92013" lon="3.3299">
        <ele>304</ele>
        <time>2024-04-28T11:13:48Z</time>
      </trkpt>
      <trkpt lat="45.92001" lon="3.32991">
        <ele>304</ele>
        <time>2024-04-28T11:13:49Z</time>
      </trkpt>
      <trkpt lat="45.91994" lon="3.32993">
        <ele>304</ele>
        <time>2024-04-28T11:13:50Z</time>
      </trkpt>
      <trkpt lat="45.91994" lon="3.32993">
        <ele>303.8</ele>
        <time>2024-04-28T11:13:51Z</time>
      </trkpt>
      <trkpt lat="45.91988" lon="3.32995">
        <ele>304</ele>
        <time>2024-04-28T11:13:52Z</time>
      </trkpt>
      <trkpt lat="45.91981" lon="3.32996">
        <ele>303.8</ele>
        <time>2024-04-28T11:13:53Z</time>
      </trkpt>
      <trkpt lat="45.9197" lon="3.32998">
        <ele>303.8</ele>
        <time>2024-04-28T11:13:54Z</time>
      </trkpt>
      <trkpt lat="45.91965" lon="3.32999">
        <ele>303.8</ele>
        <time>2024-04-28T11:13:55Z</time>
      </trkpt>
      <trkpt lat="45.91965" lon="3.32999">
        <ele>303.8</ele>
        <time>2024-04-28T11:13:56Z</time>
      </trkpt>
      <trkpt lat="45.9196" lon="3.33008">
        <ele>303.8</ele>
        <time>2024-04-28T11:13:57Z</time>
      </trkpt>
      <trkpt lat="45.91962" lon="3.33013">
        <ele>303.8</ele>
        <time>2024-04-28T11:13:58Z</time>
      </trkpt>
      <trkpt lat="45.91964" lon="3.33019">
        <ele>303.6</ele>
        <time>2024-04-28T11:13:59Z</time>
      </trkpt>
      <trkpt lat="45.9197" lon="3.33035">
        <ele>303.6</ele>
        <time>2024-04-28T11:14:00Z</time>
      </trkpt>
      <trkpt lat="45.91973" lon="3.33043">
        <ele>303.6</ele>
        <time>2024-04-28T11:14:01Z</time>
      </trkpt>
      <trkpt lat="45.91976" lon="3.33051">
        <ele>303.6</ele>
        <time>2024-04-28T11:14:02Z</time>
      </trkpt>
      <trkpt lat="45.91976" lon="3.33051">
        <ele>303.4</ele>
        <time>2024-04-28T11:14:03Z</time>
      </trkpt>
      <trkpt lat="45.91981" lon="3.33067">
        <ele>303.4</ele>
        <time>2024-04-28T11:14:04Z</time>
      </trkpt>
      <trkpt lat="45.91984" lon="3.33076">
        <ele>303.4</ele>
        <time>2024-04-28T11:14:05Z</time>
      </trkpt>
      <trkpt lat="45.91984" lon="3.33076">
        <ele>303.2</ele>
        <time>2024-04-28T11:14:06Z</time>
      </trkpt>
      <trkpt lat="45.91988" lon="3.33093">
        <ele>303.2</ele>
        <time>2024-04-28T11:14:07Z</time>
      </trkpt>
      <trkpt lat="45.91991" lon="3.33102">
        <ele>303</ele>
        <time>2024-04-28T11:14:08Z</time>
      </trkpt>
      <trkpt lat="45.91993" lon="3.3311">
        <ele>303</ele>
        <time>2024-04-28T11:14:09Z</time>
      </trkpt>
      <trkpt lat="45.91993" lon="3.3311">
        <ele>302.8</ele>
        <time>2024-04-28T11:14:10Z</time>
      </trkpt>
      <trkpt lat="45.91998" lon="3.33127">
        <ele>302.6</ele>
        <time>2024-04-28T11:14:11Z</time>
      </trkpt>
      <trkpt lat="45.92" lon="3.33136">
        <ele>302.6</ele>
        <time>2024-04-28T11:14:12Z</time>
      </trkpt>
      <trkpt lat="45.92002" lon="3.33144">
        <ele>302.4</ele>
        <time>2024-04-28T11:14:13Z</time>
      </trkpt>
      <trkpt lat="45.92003" lon="3.33153">
        <ele>302.4</ele>
        <time>2024-04-28T11:14:14Z</time>
      </trkpt>
      <trkpt lat="45.92004" lon="3.33162">
        <ele>302.2</ele>
        <time>2024-04-28T11:14:15Z</time>
      </trkpt>
      <trkpt lat="45.92005" lon="3.33171">
        <ele>302.2</ele>
        <time>2024-04-28T11:14:16Z</time>
      </trkpt>
      <trkpt lat="45.92006" lon="3.3318">
        <ele>302</ele>
        <time>2024-04-28T11:14:17Z</time>
      </trkpt>
      <trkpt lat="45.92007" lon="3.33189">
        <ele>302</ele>
        <time>2024-04-28T11:14:18Z</time>
      </trkpt>
      <trkpt lat="45.92008" lon="3.33198">
        <ele>301.8</ele>
        <time>2024-04-28T11:14:19Z</time>
      </trkpt>
      <trkpt lat="45.92008" lon="3.33207">
        <ele>301.8</ele>
        <time>2024-04-28T11:14:20Z</time>
      </trkpt>
      <trkpt lat="45.92009" lon="3.33216">
        <ele>301.6</ele>
        <time>2024-04-28T11:14:21Z</time>
      </trkpt>
      <trkpt lat="45.9201" lon="3.33224">
        <ele>301.6</ele>
        <time>2024-04-28T11:14:22Z</time>
      </trkpt>
      <trkpt lat="45.92011" lon="3.33233">
        <ele>301.4</ele>
        <time>2024-04-28T11:14:23Z</time>
      </trkpt>
      <trkpt lat="45.92012" lon="3.33242">
        <ele>301.2</ele>
        <time>2024-04-28T11:14:24Z</time>
      </trkpt>
      <trkpt lat="45.92013" lon="3.33251">
        <ele>301.2</ele>
        <time>2024-04-28T11:14:25Z</time>
      </trkpt>
      <trkpt lat="45.92014" lon="3.33261">
        <ele>301</ele>
        <time>2024-04-28T11:14:26Z</time>
      </trkpt>
      <trkpt lat="45.92015" lon="3.3327">
        <ele>300.8</ele>
        <time>2024-04-28T11:14:27Z</time>
      </trkpt>
      <trkpt lat="45.92016" lon="3.33279">
        <ele>300.8</ele>
        <time>2024-04-28T11:14:28Z</time>
      </trkpt>
      <trkpt lat="45.92017" lon="3.33288">
        <ele>300.6</ele>
        <time>2024-04-28T11:14:29Z</time>
      </trkpt>
      <trkpt lat="45.92018" lon="3.33298">
        <ele>300.6</ele>
        <time>2024-04-28T11:14:30Z</time>
      </trkpt>
      <trkpt lat="45.92019" lon="3.33306">
        <ele>300.4</ele>
        <time>2024-04-28T11:14:31Z</time>
      </trkpt>
      <trkpt lat="45.9202" lon="3.33315">
        <ele>300.4</ele>
        <time>2024-04-28T11:14:32Z</time>
      </trkpt>
      <trkpt lat="45.92023" lon="3.33324">
        <ele>300.2</ele>
        <time>2024-04-28T11:14:33Z</time>
      </trkpt>
      <trkpt lat="45.92025" lon="3.33332">
        <ele>300.2</ele>
        <time>2024-04-28T11:14:34Z</time>
      </trkpt>
      <trkpt lat="45.92028" lon="3.33341">
        <ele>300</ele>
        <time>2024-04-28T11:14:35Z</time>
      </trkpt>
      <trkpt lat="45.9203" lon="3.33349">
        <ele>300</ele>
        <time>2024-04-28T11:14:36Z</time>
      </trkpt>
      <trkpt lat="45.92033" lon="3.33358">
        <ele>300</ele>
        <time>2024-04-28T11:14:37Z</time>
      </trkpt>
      <trkpt lat="45.92037" lon="3.33365">
        <ele>300</ele>
        <time>2024-04-28T11:14:38Z</time>
      </trkpt>
      <trkpt lat="45.92041" lon="3.33372">
        <ele>300</ele>
        <time>2024-04-28T11:14:39Z</time>
      </trkpt>
      <trkpt lat="45.92045" lon="3.3338">
        <ele>299.8</ele>
        <time>2024-04-28T11:14:40Z</time>
      </trkpt>
      <trkpt lat="45.92049" lon="3.33388">
        <ele>299.8</ele>
        <time>2024-04-28T11:14:41Z</time>
      </trkpt>
      <trkpt lat="45.92053" lon="3.33395">
        <ele>299.8</ele>
        <time>2024-04-28T11:14:42Z</time>
      </trkpt>
      <trkpt lat="45.92057" lon="3.33403">
        <ele>299.6</ele>
        <time>2024-04-28T11:14:43Z</time>
      </trkpt>
      <trkpt lat="45.92061" lon="3.33411">
        <ele>299.6</ele>
        <time>2024-04-28T11:14:44Z</time>
      </trkpt>
      <trkpt lat="45.92065" lon="3.33419">
        <ele>299.6</ele>
        <time>2024-04-28T11:14:45Z</time>
      </trkpt>
      <trkpt lat="45.92068" lon="3.33427">
        <ele>299.4</ele>
        <time>2024-04-28T11:14:46Z</time>
      </trkpt>
      <trkpt lat="45.92071" lon="3.33435">
        <ele>299.4</ele>
        <time>2024-04-28T11:14:47Z</time>
      </trkpt>
      <trkpt lat="45.92074" lon="3.33443">
        <ele>299.4</ele>
        <time>2024-04-28T11:14:48Z</time>
      </trkpt>
      <trkpt lat="45.92077" lon="3.33452">
        <ele>299.4</ele>
        <time>2024-04-28T11:14:49Z</time>
      </trkpt>
      <trkpt lat="45.92079" lon="3.33461">
        <ele>299.4</ele>
        <time>2024-04-28T11:14:50Z</time>
      </trkpt>
      <trkpt lat="45.9208" lon="3.3347">
        <ele>299.4</ele>
        <time>2024-04-28T11:14:51Z</time>
      </trkpt>
      <trkpt lat="45.92082" lon="3.33479">
        <ele>299.2</ele>
        <time>2024-04-28T11:14:52Z</time>
      </trkpt>
      <trkpt lat="45.92083" lon="3.33487">
        <ele>299.2</ele>
        <time>2024-04-28T11:14:53Z</time>
      </trkpt>
      <trkpt lat="45.92084" lon="3.33496">
        <ele>299.2</ele>
        <time>2024-04-28T11:14:54Z</time>
      </trkpt>
      <trkpt lat="45.92086" lon="3.33505">
        <ele>299</ele>
        <time>2024-04-28T11:14:55Z</time>
      </trkpt>
      <trkpt lat="45.92087" lon="3.33514">
        <ele>299</ele>
        <time>2024-04-28T11:14:56Z</time>
      </trkpt>
      <trkpt lat="45.92089" lon="3.33523">
        <ele>299</ele>
        <time>2024-04-28T11:14:57Z</time>
      </trkpt>
      <trkpt lat="45.9209" lon="3.33532">
        <ele>299</ele>
        <time>2024-04-28T11:14:58Z</time>
      </trkpt>
      <trkpt lat="45.92089" lon="3.33542">
        <ele>298.8</ele>
        <time>2024-04-28T11:14:59Z</time>
      </trkpt>
      <trkpt lat="45.92089" lon="3.33551">
        <ele>298.8</ele>
        <time>2024-04-28T11:15:00Z</time>
      </trkpt>
      <trkpt lat="45.92089" lon="3.33561">
        <ele>298.8</ele>
        <time>2024-04-28T11:15:01Z</time>
      </trkpt>
      <trkpt lat="45.92088" lon="3.3357">
        <ele>298.8</ele>
        <time>2024-04-28T11:15:02Z</time>
      </trkpt>
      <trkpt lat="45.92088" lon="3.33579">
        <ele>298.8</ele>
        <time>2024-04-28T11:15:03Z</time>
      </trkpt>
      <trkpt lat="45.92087" lon="3.33589">
        <ele>298.8</ele>
        <time>2024-04-28T11:15:04Z</time>
      </trkpt>
      <trkpt lat="45.92085" lon="3.33598">
        <ele>298.8</ele>
        <time>2024-04-28T11:15:05Z</time>
      </trkpt>
      <trkpt lat="45.92084" lon="3.33607">
        <ele>298.8</ele>
        <time>2024-04-28T11:15:06Z</time>
      </trkpt>
      <trkpt lat="45.92082" lon="3.33616">
        <ele>298.8</ele>
        <time>2024-04-28T11:15:07Z</time>
      </trkpt>
      <trkpt lat="45.9208" lon="3.33625">
        <ele>298.8</ele>
        <time>2024-04-28T11:15:08Z</time>
      </trkpt>
      <trkpt lat="45.92078" lon="3.33633">
        <ele>298.8</ele>
        <time>2024-04-28T11:15:09Z</time>
      </trkpt>
      <trkpt lat="45.92076" lon="3.33642">
        <ele>298.8</ele>
        <time>2024-04-28T11:15:10Z</time>
      </trkpt>
      <trkpt lat="45.92073" lon="3.3365">
        <ele>298.8</ele>
        <time>2024-04-28T11:15:11Z</time>
      </trkpt>
      <trkpt lat="45.92071" lon="3.33659">
        <ele>298.8</ele>
        <time>2024-04-28T11:15:12Z</time>
      </trkpt>
      <trkpt lat="45.92069" lon="3.33667">
        <ele>298.8</ele>
        <time>2024-04-28T11:15:13Z</time>
      </trkpt>
      <trkpt lat="45.92067" lon="3.33675">
        <ele>299</ele>
        <time>2024-04-28T11:15:14Z</time>
      </trkpt>
      <trkpt lat="45.92065" lon="3.33684">
        <ele>298.6</ele>
        <time>2024-04-28T11:15:15Z</time>
      </trkpt>
      <trkpt lat="45.92063" lon="3.33692">
        <ele>298.8</ele>
        <time>2024-04-28T11:15:16Z</time>
      </trkpt>
      <trkpt lat="45.92061" lon="3.33701">
        <ele>299.2</ele>
        <time>2024-04-28T11:15:17Z</time>
      </trkpt>
      <trkpt lat="45.92059" lon="3.33709">
        <ele>299.6</ele>
        <time>2024-04-28T11:15:18Z</time>
      </trkpt>
      <trkpt lat="45.92056" lon="3.33717">
        <ele>299.2</ele>
        <time>2024-04-28T11:15:19Z</time>
      </trkpt>
      <trkpt lat="45.92056" lon="3.33717">
        <ele>299.2</ele>
        <time>2024-04-28T11:15:20Z</time>
      </trkpt>
      <trkpt lat="45.92052" lon="3.33733">
        <ele>299.2</ele>
        <time>2024-04-28T11:15:21Z</time>
      </trkpt>
      <trkpt lat="45.92048" lon="3.33741">
        <ele>299.4</ele>
        <time>2024-04-28T11:15:22Z</time>
      </trkpt>
      <trkpt lat="45.92048" lon="3.33741">
        <ele>299.4</ele>
        <time>2024-04-28T11:15:23Z</time>
      </trkpt>
      <trkpt lat="45.92042" lon="3.33757">
        <ele>299.6</ele>
        <time>2024-04-28T11:15:24Z</time>
      </trkpt>
      <trkpt lat="45.92038" lon="3.33765">
        <ele>299.6</ele>
        <time>2024-04-28T11:15:25Z</time>
      </trkpt>
      <trkpt lat="45.92038" lon="3.33765">
        <ele>299.6</ele>
        <time>2024-04-28T11:15:26Z</time>
      </trkpt>
      <trkpt lat="45.92032" lon="3.33781">
        <ele>299.6</ele>
        <time>2024-04-28T11:15:27Z</time>
      </trkpt>
      <trkpt lat="45.92029" lon="3.33789">
        <ele>299.6</ele>
        <time>2024-04-28T11:15:28Z</time>
      </trkpt>
      <trkpt lat="45.92025" lon="3.33794">
        <ele>299.6</ele>
        <time>2024-04-28T11:15:29Z</time>
      </trkpt>
      <trkpt lat="45.92017" lon="3.33802">
        <ele>299.8</ele>
        <time>2024-04-28T11:15:30Z</time>
      </trkpt>
      <trkpt lat="45.92015" lon="3.3381">
        <ele>299.8</ele>
        <time>2024-04-28T11:15:31Z</time>
      </trkpt>
      <trkpt lat="45.92014" lon="3.33818">
        <ele>299.8</ele>
        <time>2024-04-28T11:15:32Z</time>
      </trkpt>
      <trkpt lat="45.92013" lon="3.33827">
        <ele>300</ele>
        <time>2024-04-28T11:15:33Z</time>
      </trkpt>
      <trkpt lat="45.92016" lon="3.33838">
        <ele>300</ele>
        <time>2024-04-28T11:15:34Z</time>
      </trkpt>
      <trkpt lat="45.9202" lon="3.33846">
        <ele>300</ele>
        <time>2024-04-28T11:15:35Z</time>
      </trkpt>
      <trkpt lat="45.92022" lon="3.33855">
        <ele>300</ele>
        <time>2024-04-28T11:15:36Z</time>
      </trkpt>
      <trkpt lat="45.92022" lon="3.33855">
        <ele>300</ele>
        <time>2024-04-28T11:15:37Z</time>
      </trkpt>
      <trkpt lat="45.92024" lon="3.33875">
        <ele>300</ele>
        <time>2024-04-28T11:15:38Z</time>
      </trkpt>
      <trkpt lat="45.92025" lon="3.33886">
        <ele>300</ele>
        <time>2024-04-28T11:15:39Z</time>
      </trkpt>
      <trkpt lat="45.92026" lon="3.33896">
        <ele>300.2</ele>
        <time>2024-04-28T11:15:40Z</time>
      </trkpt>
      <trkpt lat="45.92027" lon="3.33906">
        <ele>300.2</ele>
        <time>2024-04-28T11:15:41Z</time>
      </trkpt>
      <trkpt lat="45.92028" lon="3.33916">
        <ele>300.2</ele>
        <time>2024-04-28T11:15:42Z</time>
      </trkpt>
      <trkpt lat="45.92029" lon="3.33926">
        <ele>300.2</ele>
        <time>2024-04-28T11:15:43Z</time>
      </trkpt>
      <trkpt lat="45.92029" lon="3.33936">
        <ele>300.4</ele>
        <time>2024-04-28T11:15:44Z</time>
      </trkpt>
      <trkpt lat="45.92031" lon="3.33946">
        <ele>300.4</ele>
        <time>2024-04-28T11:15:45Z</time>
      </trkpt>
      <trkpt lat="45.92034" lon="3.33956">
        <ele>300.4</ele>
        <time>2024-04-28T11:15:46Z</time>
      </trkpt>
      <trkpt lat="45.92036" lon="3.33965">
        <ele>300.6</ele>
        <time>2024-04-28T11:15:47Z</time>
      </trkpt>
      <trkpt lat="45.92038" lon="3.33975">
        <ele>300.6</ele>
        <time>2024-04-28T11:15:48Z</time>
      </trkpt>
      <trkpt lat="45.92041" lon="3.33985">
        <ele>300.6</ele>
        <time>2024-04-28T11:15:49Z</time>
      </trkpt>
      <trkpt lat="45.92043" lon="3.33994">
        <ele>300.8</ele>
        <time>2024-04-28T11:15:50Z</time>
      </trkpt>
      <trkpt lat="45.92045" lon="3.34004">
        <ele>300.8</ele>
        <time>2024-04-28T11:15:51Z</time>
      </trkpt>
      <trkpt lat="45.92047" lon="3.34014">
        <ele>300.8</ele>
        <time>2024-04-28T11:15:52Z</time>
      </trkpt>
      <trkpt lat="45.9205" lon="3.34023">
        <ele>301</ele>
        <time>2024-04-28T11:15:53Z</time>
      </trkpt>
      <trkpt lat="45.92054" lon="3.34031">
        <ele>301</ele>
        <time>2024-04-28T11:15:54Z</time>
      </trkpt>
      <trkpt lat="45.92058" lon="3.3404">
        <ele>301</ele>
        <time>2024-04-28T11:15:55Z</time>
      </trkpt>
      <trkpt lat="45.92062" lon="3.34049">
        <ele>301</ele>
        <time>2024-04-28T11:15:56Z</time>
      </trkpt>
      <trkpt lat="45.92066" lon="3.34058">
        <ele>301.2</ele>
        <time>2024-04-28T11:15:57Z</time>
      </trkpt>
      <trkpt lat="45.9207" lon="3.34067">
        <ele>301.2</ele>
        <time>2024-04-28T11:15:58Z</time>
      </trkpt>
      <trkpt lat="45.92074" lon="3.34076">
        <ele>301.2</ele>
        <time>2024-04-28T11:15:59Z</time>
      </trkpt>
      <trkpt lat="45.92078" lon="3.34084">
        <ele>301.2</ele>
        <time>2024-04-28T11:16:00Z</time>
      </trkpt>
      <trkpt lat="45.92082" lon="3.34094">
        <ele>301.2</ele>
        <time>2024-04-28T11:16:01Z</time>
      </trkpt>
      <trkpt lat="45.92086" lon="3.34103">
        <ele>301.2</ele>
        <time>2024-04-28T11:16:02Z</time>
      </trkpt>
      <trkpt lat="45.92088" lon="3.34113">
        <ele>301.4</ele>
        <time>2024-04-28T11:16:03Z</time>
      </trkpt>
      <trkpt lat="45.92089" lon="3.34124">
        <ele>301.2</ele>
        <time>2024-04-28T11:16:04Z</time>
      </trkpt>
      <trkpt lat="45.9209" lon="3.34134">
        <ele>301.2</ele>
        <time>2024-04-28T11:16:05Z</time>
      </trkpt>
      <trkpt lat="45.92091" lon="3.34145">
        <ele>301.2</ele>
        <time>2024-04-28T11:16:06Z</time>
      </trkpt>
      <trkpt lat="45.92092" lon="3.34155">
        <ele>301.2</ele>
        <time>2024-04-28T11:16:07Z</time>
      </trkpt>
      <trkpt lat="45.92093" lon="3.34167">
        <ele>301.2</ele>
        <time>2024-04-28T11:16:08Z</time>
      </trkpt>
      <trkpt lat="45.92094" lon="3.34177">
        <ele>301.2</ele>
        <time>2024-04-28T11:16:09Z</time>
      </trkpt>
      <trkpt lat="45.92094" lon="3.34187">
        <ele>301.2</ele>
        <time>2024-04-28T11:16:10Z</time>
      </trkpt>
      <trkpt lat="45.92095" lon="3.34197">
        <ele>301</ele>
        <time>2024-04-28T11:16:11Z</time>
      </trkpt>
      <trkpt lat="45.92096" lon="3.34208">
        <ele>301</ele>
        <time>2024-04-28T11:16:12Z</time>
      </trkpt>
      <trkpt lat="45.92097" lon="3.34218">
        <ele>301.4</ele>
        <time>2024-04-28T11:16:13Z</time>
      </trkpt>
      <trkpt lat="45.92098" lon="3.34229">
        <ele>301.2</ele>
        <time>2024-04-28T11:16:14Z</time>
      </trkpt>
      <trkpt lat="45.92099" lon="3.34239">
        <ele>301</ele>
        <time>2024-04-28T11:16:15Z</time>
      </trkpt>
      <trkpt lat="45.92099" lon="3.34249">
        <ele>300.8</ele>
        <time>2024-04-28T11:16:16Z</time>
      </trkpt>
      <trkpt lat="45.921" lon="3.3426">
        <ele>300.6</ele>
        <time>2024-04-28T11:16:17Z</time>
      </trkpt>
      <trkpt lat="45.92101" lon="3.3427">
        <ele>300.6</ele>
        <time>2024-04-28T11:16:18Z</time>
      </trkpt>
      <trkpt lat="45.92101" lon="3.34281">
        <ele>300.6</ele>
        <time>2024-04-28T11:16:19Z</time>
      </trkpt>
      <trkpt lat="45.92101" lon="3.34291">
        <ele>300.8</ele>
        <time>2024-04-28T11:16:20Z</time>
      </trkpt>
      <trkpt lat="45.92101" lon="3.34302">
        <ele>300.8</ele>
        <time>2024-04-28T11:16:21Z</time>
      </trkpt>
      <trkpt lat="45.92101" lon="3.34312">
        <ele>300.8</ele>
        <time>2024-04-28T11:16:22Z</time>
      </trkpt>
      <trkpt lat="45.92101" lon="3.34323">
        <ele>301</ele>
        <time>2024-04-28T11:16:23Z</time>
      </trkpt>
      <trkpt lat="45.92101" lon="3.34333">
        <ele>301</ele>
        <time>2024-04-28T11:16:24Z</time>
      </trkpt>
      <trkpt lat="45.92101" lon="3.34343">
        <ele>301</ele>
        <time>2024-04-28T11:16:25Z</time>
      </trkpt>
      <trkpt lat="45.92099" lon="3.34353">
        <ele>301</ele>
        <time>2024-04-28T11:16:26Z</time>
      </trkpt>
      <trkpt lat="45.92096" lon="3.34363">
        <ele>301.4</ele>
        <time>2024-04-28T11:16:27Z</time>
      </trkpt>
      <trkpt lat="45.92094" lon="3.34372">
        <ele>301.4</ele>
        <time>2024-04-28T11:16:28Z</time>
      </trkpt>
      <trkpt lat="45.92092" lon="3.34382">
        <ele>301.4</ele>
        <time>2024-04-28T11:16:29Z</time>
      </trkpt>
      <trkpt lat="45.9209" lon="3.34392">
        <ele>301.4</ele>
        <time>2024-04-28T11:16:30Z</time>
      </trkpt>
      <trkpt lat="45.92086" lon="3.344">
        <ele>301.4</ele>
        <time>2024-04-28T11:16:31Z</time>
      </trkpt>
      <trkpt lat="45.92081" lon="3.34408">
        <ele>301.6</ele>
        <time>2024-04-28T11:16:32Z</time>
      </trkpt>
      <trkpt lat="45.92076" lon="3.34415">
        <ele>301.6</ele>
        <time>2024-04-28T11:16:33Z</time>
      </trkpt>
      <trkpt lat="45.92071" lon="3.34422">
        <ele>301.6</ele>
        <time>2024-04-28T11:16:34Z</time>
      </trkpt>
      <trkpt lat="45.92066" lon="3.34429">
        <ele>301.2</ele>
        <time>2024-04-28T11:16:35Z</time>
      </trkpt>
      <trkpt lat="45.92061" lon="3.34435">
        <ele>301.6</ele>
        <time>2024-04-28T11:16:36Z</time>
      </trkpt>
      <trkpt lat="45.92056" lon="3.3444">
        <ele>301.4</ele>
        <time>2024-04-28T11:16:37Z</time>
      </trkpt>
      <trkpt lat="45.92051" lon="3.34446">
        <ele>301.4</ele>
        <time>2024-04-28T11:16:38Z</time>
      </trkpt>
      <trkpt lat="45.92046" lon="3.34452">
        <ele>301.4</ele>
        <time>2024-04-28T11:16:39Z</time>
      </trkpt>
      <trkpt lat="45.92042" lon="3.34457">
        <ele>301.4</ele>
        <time>2024-04-28T11:16:40Z</time>
      </trkpt>
      <trkpt lat="45.92037" lon="3.34463">
        <ele>301.4</ele>
        <time>2024-04-28T11:16:41Z</time>
      </trkpt>
      <trkpt lat="45.92032" lon="3.34468">
        <ele>301.6</ele>
        <time>2024-04-28T11:16:42Z</time>
      </trkpt>
      <trkpt lat="45.92027" lon="3.34474">
        <ele>301.6</ele>
        <time>2024-04-28T11:16:43Z</time>
      </trkpt>
      <trkpt lat="45.92021" lon="3.34478">
        <ele>301.6</ele>
        <time>2024-04-28T11:16:44Z</time>
      </trkpt>
      <trkpt lat="45.92016" lon="3.34482">
        <ele>301.8</ele>
        <time>2024-04-28T11:16:45Z</time>
      </trkpt>
      <trkpt lat="45.9201" lon="3.34486">
        <ele>301.8</ele>
        <time>2024-04-28T11:16:46Z</time>
      </trkpt>
      <trkpt lat="45.92005" lon="3.34489">
        <ele>301.8</ele>
        <time>2024-04-28T11:16:47Z</time>
      </trkpt>
      <trkpt lat="45.91999" lon="3.34493">
        <ele>302</ele>
        <time>2024-04-28T11:16:48Z</time>
      </trkpt>
      <trkpt lat="45.91993" lon="3.34497">
        <ele>302</ele>
        <time>2024-04-28T11:16:49Z</time>
      </trkpt>
      <trkpt lat="45.91987" lon="3.34501">
        <ele>302</ele>
        <time>2024-04-28T11:16:50Z</time>
      </trkpt>
      <trkpt lat="45.91982" lon="3.34505">
        <ele>302</ele>
        <time>2024-04-28T11:16:51Z</time>
      </trkpt>
      <trkpt lat="45.91976" lon="3.34509">
        <ele>302</ele>
        <time>2024-04-28T11:16:52Z</time>
      </trkpt>
      <trkpt lat="45.91971" lon="3.34514">
        <ele>302.2</ele>
        <time>2024-04-28T11:16:53Z</time>
      </trkpt>
      <trkpt lat="45.91966" lon="3.34517">
        <ele>302.2</ele>
        <time>2024-04-28T11:16:54Z</time>
      </trkpt>
      <trkpt lat="45.9196" lon="3.34521">
        <ele>302.2</ele>
        <time>2024-04-28T11:16:55Z</time>
      </trkpt>
      <trkpt lat="45.91955" lon="3.34526">
        <ele>302.2</ele>
        <time>2024-04-28T11:16:56Z</time>
      </trkpt>
      <trkpt lat="45.91949" lon="3.3453">
        <ele>302.2</ele>
        <time>2024-04-28T11:16:57Z</time>
      </trkpt>
      <trkpt lat="45.91943" lon="3.34535">
        <ele>302.2</ele>
        <time>2024-04-28T11:16:58Z</time>
      </trkpt>
      <trkpt lat="45.91937" lon="3.34542">
        <ele>302.2</ele>
        <time>2024-04-28T11:16:59Z</time>
      </trkpt>
      <trkpt lat="45.91931" lon="3.3455">
        <ele>302.2</ele>
        <time>2024-04-28T11:17:00Z</time>
      </trkpt>
      <trkpt lat="45.91926" lon="3.34558">
        <ele>302.2</ele>
        <time>2024-04-28T11:17:01Z</time>
      </trkpt>
      <trkpt lat="45.91919" lon="3.34566">
        <ele>302.2</ele>
        <time>2024-04-28T11:17:02Z</time>
      </trkpt>
      <trkpt lat="45.91913" lon="3.34575">
        <ele>302.2</ele>
        <time>2024-04-28T11:17:03Z</time>
      </trkpt>
      <trkpt lat="45.91907" lon="3.34583">
        <ele>302</ele>
        <time>2024-04-28T11:17:04Z</time>
      </trkpt>
      <trkpt lat="45.91901" lon="3.34593">
        <ele>302</ele>
        <time>2024-04-28T11:17:05Z</time>
      </trkpt>
      <trkpt lat="45.91895" lon="3.34603">
        <ele>302</ele>
        <time>2024-04-28T11:17:06Z</time>
      </trkpt>
      <trkpt lat="45.91889" lon="3.34613">
        <ele>302</ele>
        <time>2024-04-28T11:17:07Z</time>
      </trkpt>
      <trkpt lat="45.91883" lon="3.34624">
        <ele>302.4</ele>
        <time>2024-04-28T11:17:08Z</time>
      </trkpt>
      <trkpt lat="45.91877" lon="3.34636">
        <ele>302</ele>
        <time>2024-04-28T11:17:09Z</time>
      </trkpt>
      <trkpt lat="45.91872" lon="3.34648">
        <ele>301.6</ele>
        <time>2024-04-28T11:17:10Z</time>
      </trkpt>
      <trkpt lat="45.91866" lon="3.34661">
        <ele>301.8</ele>
        <time>2024-04-28T11:17:11Z</time>
      </trkpt>
      <trkpt lat="45.9186" lon="3.34674">
        <ele>301.6</ele>
        <time>2024-04-28T11:17:12Z</time>
      </trkpt>
      <trkpt lat="45.91854" lon="3.34687">
        <ele>301.6</ele>
        <time>2024-04-28T11:17:13Z</time>
      </trkpt>
      <trkpt lat="45.9185" lon="3.34702">
        <ele>301.4</ele>
        <time>2024-04-28T11:17:14Z</time>
      </trkpt>
      <trkpt lat="45.91846" lon="3.34717">
        <ele>301.2</ele>
        <time>2024-04-28T11:17:15Z</time>
      </trkpt>
      <trkpt lat="45.91842" lon="3.34731">
        <ele>301</ele>
        <time>2024-04-28T11:17:16Z</time>
      </trkpt>
      <trkpt lat="45.91838" lon="3.34746">
        <ele>300.8</ele>
        <time>2024-04-28T11:17:17Z</time>
      </trkpt>
      <trkpt lat="45.91833" lon="3.34761">
        <ele>300.6</ele>
        <time>2024-04-28T11:17:18Z</time>
      </trkpt>
      <trkpt lat="45.91829" lon="3.34776">
        <ele>300.4</ele>
        <time>2024-04-28T11:17:19Z</time>
      </trkpt>
      <trkpt lat="45.91825" lon="3.34792">
        <ele>300.2</ele>
        <time>2024-04-28T11:17:20Z</time>
      </trkpt>
      <trkpt lat="45.91821" lon="3.34807">
        <ele>299.8</ele>
        <time>2024-04-28T11:17:21Z</time>
      </trkpt>
      <trkpt lat="45.91816" lon="3.34822">
        <ele>299.6</ele>
        <time>2024-04-28T11:17:22Z</time>
      </trkpt>
      <trkpt lat="45.91812" lon="3.34838">
        <ele>299.2</ele>
        <time>2024-04-28T11:17:23Z</time>
      </trkpt>
      <trkpt lat="45.91807" lon="3.34854">
        <ele>299</ele>
        <time>2024-04-28T11:17:24Z</time>
      </trkpt>
      <trkpt lat="45.91803" lon="3.3487">
        <ele>298.8</ele>
        <time>2024-04-28T11:17:25Z</time>
      </trkpt>
      <trkpt lat="45.91798" lon="3.34885">
        <ele>298.6</ele>
        <time>2024-04-28T11:17:26Z</time>
      </trkpt>
      <trkpt lat="45.91794" lon="3.34901">
        <ele>298.4</ele>
        <time>2024-04-28T11:17:27Z</time>
      </trkpt>
      <trkpt lat="45.9179" lon="3.34916">
        <ele>298.2</ele>
        <time>2024-04-28T11:17:28Z</time>
      </trkpt>
      <trkpt lat="45.91785" lon="3.34931">
        <ele>298</ele>
        <time>2024-04-28T11:17:29Z</time>
      </trkpt>
      <trkpt lat="45.91782" lon="3.34946">
        <ele>297.8</ele>
        <time>2024-04-28T11:17:30Z</time>
      </trkpt>
      <trkpt lat="45.91779" lon="3.34961">
        <ele>297.6</ele>
        <time>2024-04-28T11:17:31Z</time>
      </trkpt>
      <trkpt lat="45.91776" lon="3.34976">
        <ele>297.6</ele>
        <time>2024-04-28T11:17:32Z</time>
      </trkpt>
      <trkpt lat="45.91773" lon="3.3499">
        <ele>297.4</ele>
        <time>2024-04-28T11:17:33Z</time>
      </trkpt>
      <trkpt lat="45.9177" lon="3.35004">
        <ele>297.4</ele>
        <time>2024-04-28T11:17:34Z</time>
      </trkpt>
      <trkpt lat="45.91767" lon="3.35018">
        <ele>297.2</ele>
        <time>2024-04-28T11:17:35Z</time>
      </trkpt>
      <trkpt lat="45.91765" lon="3.35031">
        <ele>297.2</ele>
        <time>2024-04-28T11:17:36Z</time>
      </trkpt>
      <trkpt lat="45.91762" lon="3.35045">
        <ele>297</ele>
        <time>2024-04-28T11:17:37Z</time>
      </trkpt>
      <trkpt lat="45.91759" lon="3.35058">
        <ele>297</ele>
        <time>2024-04-28T11:17:38Z</time>
      </trkpt>
      <trkpt lat="45.91757" lon="3.3507">
        <ele>296.8</ele>
        <time>2024-04-28T11:17:39Z</time>
      </trkpt>
      <trkpt lat="45.91754" lon="3.35083">
        <ele>296.8</ele>
        <time>2024-04-28T11:17:40Z</time>
      </trkpt>
      <trkpt lat="45.91752" lon="3.35095">
        <ele>296.6</ele>
        <time>2024-04-28T11:17:41Z</time>
      </trkpt>
      <trkpt lat="45.91749" lon="3.35107">
        <ele>296.6</ele>
        <time>2024-04-28T11:17:42Z</time>
      </trkpt>
      <trkpt lat="45.91747" lon="3.35119">
        <ele>296.4</ele>
        <time>2024-04-28T11:17:43Z</time>
      </trkpt>
      <trkpt lat="45.91745" lon="3.35131">
        <ele>296.2</ele>
        <time>2024-04-28T11:17:44Z</time>
      </trkpt>
      <trkpt lat="45.91742" lon="3.35142">
        <ele>296.2</ele>
        <time>2024-04-28T11:17:45Z</time>
      </trkpt>
      <trkpt lat="45.9174" lon="3.35154">
        <ele>296</ele>
        <time>2024-04-28T11:17:46Z</time>
      </trkpt>
      <trkpt lat="45.91738" lon="3.35165">
        <ele>296</ele>
        <time>2024-04-28T11:17:47Z</time>
      </trkpt>
      <trkpt lat="45.91736" lon="3.35176">
        <ele>295.8</ele>
        <time>2024-04-28T11:17:48Z</time>
      </trkpt>
      <trkpt lat="45.91733" lon="3.35186">
        <ele>295.8</ele>
        <time>2024-04-28T11:17:49Z</time>
      </trkpt>
      <trkpt lat="45.9173" lon="3.35197">
        <ele>295.6</ele>
        <time>2024-04-28T11:17:50Z</time>
      </trkpt>
      <trkpt lat="45.91727" lon="3.35207">
        <ele>295.6</ele>
        <time>2024-04-28T11:17:51Z</time>
      </trkpt>
      <trkpt lat="45.91725" lon="3.35218">
        <ele>295.4</ele>
        <time>2024-04-28T11:17:52Z</time>
      </trkpt>
      <trkpt lat="45.91722" lon="3.35228">
        <ele>295.2</ele>
        <time>2024-04-28T11:17:53Z</time>
      </trkpt>
      <trkpt lat="45.91719" lon="3.35239">
        <ele>295.2</ele>
        <time>2024-04-28T11:17:54Z</time>
      </trkpt>
      <trkpt lat="45.91716" lon="3.35249">
        <ele>295</ele>
        <time>2024-04-28T11:17:55Z</time>
      </trkpt>
      <trkpt lat="45.91713" lon="3.3526">
        <ele>295</ele>
        <time>2024-04-28T11:17:56Z</time>
      </trkpt>
      <trkpt lat="45.91711" lon="3.3527">
        <ele>294.8</ele>
        <time>2024-04-28T11:17:57Z</time>
      </trkpt>
      <trkpt lat="45.91708" lon="3.35281">
        <ele>294.8</ele>
        <time>2024-04-28T11:17:58Z</time>
      </trkpt>
      <trkpt lat="45.91705" lon="3.35291">
        <ele>294.6</ele>
        <time>2024-04-28T11:17:59Z</time>
      </trkpt>
      <trkpt lat="45.91703" lon="3.35301">
        <ele>294.6</ele>
        <time>2024-04-28T11:18:00Z</time>
      </trkpt>
      <trkpt lat="45.917" lon="3.35311">
        <ele>294.4</ele>
        <time>2024-04-28T11:18:01Z</time>
      </trkpt>
      <trkpt lat="45.91697" lon="3.35321">
        <ele>294.4</ele>
        <time>2024-04-28T11:18:02Z</time>
      </trkpt>
      <trkpt lat="45.91697" lon="3.35321">
        <ele>294.2</ele>
        <time>2024-04-28T11:18:03Z</time>
      </trkpt>
      <trkpt lat="45.91697" lon="3.35321">
        <ele>294.2</ele>
        <time>2024-04-28T11:18:04Z</time>
      </trkpt>
      <trkpt lat="45.91689" lon="3.35352">
        <ele>294</ele>
        <time>2024-04-28T11:18:05Z</time>
      </trkpt>
      <trkpt lat="45.91686" lon="3.35362">
        <ele>294</ele>
        <time>2024-04-28T11:18:06Z</time>
      </trkpt>
      <trkpt lat="45.91684" lon="3.35372">
        <ele>293.8</ele>
        <time>2024-04-28T11:18:07Z</time>
      </trkpt>
      <trkpt lat="45.91681" lon="3.35383">
        <ele>293.8</ele>
        <time>2024-04-28T11:18:08Z</time>
      </trkpt>
      <trkpt lat="45.91678" lon="3.35393">
        <ele>293.6</ele>
        <time>2024-04-28T11:18:09Z</time>
      </trkpt>
      <trkpt lat="45.91676" lon="3.35403">
        <ele>293.6</ele>
        <time>2024-04-28T11:18:10Z</time>
      </trkpt>
      <trkpt lat="45.91673" lon="3.35413">
        <ele>293.4</ele>
        <time>2024-04-28T11:18:11Z</time>
      </trkpt>
      <trkpt lat="45.9167" lon="3.35423">
        <ele>293.4</ele>
        <time>2024-04-28T11:18:12Z</time>
      </trkpt>
      <trkpt lat="45.91668" lon="3.35434">
        <ele>293.2</ele>
        <time>2024-04-28T11:18:13Z</time>
      </trkpt>
      <trkpt lat="45.91665" lon="3.35444">
        <ele>293.2</ele>
        <time>2024-04-28T11:18:14Z</time>
      </trkpt>
      <trkpt lat="45.91662" lon="3.35454">
        <ele>293</ele>
        <time>2024-04-28T11:18:15Z</time>
      </trkpt>
      <trkpt lat="45.91659" lon="3.35464">
        <ele>293</ele>
        <time>2024-04-28T11:18:16Z</time>
      </trkpt>
      <trkpt lat="45.91657" lon="3.35474">
        <ele>293</ele>
        <time>2024-04-28T11:18:17Z</time>
      </trkpt>
      <trkpt lat="45.91654" lon="3.35484">
        <ele>292.8</ele>
        <time>2024-04-28T11:18:18Z</time>
      </trkpt>
      <trkpt lat="45.91651" lon="3.35494">
        <ele>292.8</ele>
        <time>2024-04-28T11:18:19Z</time>
      </trkpt>
      <trkpt lat="45.91649" lon="3.35504">
        <ele>292.6</ele>
        <time>2024-04-28T11:18:20Z</time>
      </trkpt>
      <trkpt lat="45.91647" lon="3.35515">
        <ele>292.6</ele>
        <time>2024-04-28T11:18:21Z</time>
      </trkpt>
      <trkpt lat="45.91647" lon="3.35526">
        <ele>292.4</ele>
        <time>2024-04-28T11:18:22Z</time>
      </trkpt>
      <trkpt lat="45.91646" lon="3.35537">
        <ele>292.4</ele>
        <time>2024-04-28T11:18:23Z</time>
      </trkpt>
      <trkpt lat="45.91646" lon="3.35547">
        <ele>292.4</ele>
        <time>2024-04-28T11:18:24Z</time>
      </trkpt>
      <trkpt lat="45.91645" lon="3.35558">
        <ele>292.4</ele>
        <time>2024-04-28T11:18:25Z</time>
      </trkpt>
      <trkpt lat="45.91644" lon="3.35569">
        <ele>292.4</ele>
        <time>2024-04-28T11:18:26Z</time>
      </trkpt>
      <trkpt lat="45.91644" lon="3.3558">
        <ele>292.2</ele>
        <time>2024-04-28T11:18:27Z</time>
      </trkpt>
      <trkpt lat="45.91645" lon="3.35591">
        <ele>292.2</ele>
        <time>2024-04-28T11:18:28Z</time>
      </trkpt>
      <trkpt lat="45.91646" lon="3.35602">
        <ele>292.2</ele>
        <time>2024-04-28T11:18:29Z</time>
      </trkpt>
      <trkpt lat="45.91647" lon="3.35612">
        <ele>292</ele>
        <time>2024-04-28T11:18:30Z</time>
      </trkpt>
      <trkpt lat="45.91648" lon="3.35623">
        <ele>292</ele>
        <time>2024-04-28T11:18:31Z</time>
      </trkpt>
      <trkpt lat="45.9165" lon="3.35634">
        <ele>292</ele>
        <time>2024-04-28T11:18:32Z</time>
      </trkpt>
      <trkpt lat="45.91652" lon="3.35645">
        <ele>291.8</ele>
        <time>2024-04-28T11:18:33Z</time>
      </trkpt>
      <trkpt lat="45.91654" lon="3.35655">
        <ele>291.8</ele>
        <time>2024-04-28T11:18:34Z</time>
      </trkpt>
      <trkpt lat="45.91656" lon="3.35665">
        <ele>291.8</ele>
        <time>2024-04-28T11:18:35Z</time>
      </trkpt>
      <trkpt lat="45.91658" lon="3.35676">
        <ele>291.6</ele>
        <time>2024-04-28T11:18:36Z</time>
      </trkpt>
      <trkpt lat="45.9166" lon="3.35686">
        <ele>291.6</ele>
        <time>2024-04-28T11:18:37Z</time>
      </trkpt>
      <trkpt lat="45.91663" lon="3.35697">
        <ele>291.4</ele>
        <time>2024-04-28T11:18:38Z</time>
      </trkpt>
      <trkpt lat="45.91665" lon="3.35707">
        <ele>291.4</ele>
        <time>2024-04-28T11:18:39Z</time>
      </trkpt>
      <trkpt lat="45.91667" lon="3.35718">
        <ele>291.4</ele>
        <time>2024-04-28T11:18:40Z</time>
      </trkpt>
      <trkpt lat="45.91669" lon="3.35728">
        <ele>291.2</ele>
        <time>2024-04-28T11:18:41Z</time>
      </trkpt>
      <trkpt lat="45.91671" lon="3.35739">
        <ele>291.2</ele>
        <time>2024-04-28T11:18:42Z</time>
      </trkpt>
      <trkpt lat="45.91674" lon="3.35749">
        <ele>291.2</ele>
        <time>2024-04-28T11:18:43Z</time>
      </trkpt>
      <trkpt lat="45.91676" lon="3.35759">
        <ele>291</ele>
        <time>2024-04-28T11:18:44Z</time>
      </trkpt>
      <trkpt lat="45.91679" lon="3.35769">
        <ele>291</ele>
        <time>2024-04-28T11:18:45Z</time>
      </trkpt>
      <trkpt lat="45.91681" lon="3.35779">
        <ele>291</ele>
        <time>2024-04-28T11:18:46Z</time>
      </trkpt>
      <trkpt lat="45.91684" lon="3.35789">
        <ele>290.8</ele>
        <time>2024-04-28T11:18:47Z</time>
      </trkpt>
      <trkpt lat="45.91687" lon="3.35799">
        <ele>290.8</ele>
        <time>2024-04-28T11:18:48Z</time>
      </trkpt>
      <trkpt lat="45.9169" lon="3.35809">
        <ele>290.8</ele>
        <time>2024-04-28T11:18:49Z</time>
      </trkpt>
      <trkpt lat="45.91693" lon="3.35818">
        <ele>290.6</ele>
        <time>2024-04-28T11:18:50Z</time>
      </trkpt>
      <trkpt lat="45.91695" lon="3.35828">
        <ele>290.6</ele>
        <time>2024-04-28T11:18:51Z</time>
      </trkpt>
      <trkpt lat="45.91698" lon="3.35838">
        <ele>290.4</ele>
        <time>2024-04-28T11:18:52Z</time>
      </trkpt>
      <trkpt lat="45.91701" lon="3.35847">
        <ele>290.2</ele>
        <time>2024-04-28T11:18:53Z</time>
      </trkpt>
      <trkpt lat="45.91703" lon="3.35857">
        <ele>290.2</ele>
        <time>2024-04-28T11:18:54Z</time>
      </trkpt>
      <trkpt lat="45.91706" lon="3.35866">
        <ele>290</ele>
        <time>2024-04-28T11:18:55Z</time>
      </trkpt>
      <trkpt lat="45.91708" lon="3.35875">
        <ele>289.8</ele>
        <time>2024-04-28T11:18:56Z</time>
      </trkpt>
      <trkpt lat="45.91711" lon="3.35884">
        <ele>289.8</ele>
        <time>2024-04-28T11:18:57Z</time>
      </trkpt>
      <trkpt lat="45.91714" lon="3.35893">
        <ele>289.6</ele>
        <time>2024-04-28T11:18:58Z</time>
      </trkpt>
      <trkpt lat="45.91716" lon="3.35903">
        <ele>289.6</ele>
        <time>2024-04-28T11:18:59Z</time>
      </trkpt>
      <trkpt lat="45.91719" lon="3.35913">
        <ele>289.4</ele>
        <time>2024-04-28T11:19:00Z</time>
      </trkpt>
      <trkpt lat="45.91722" lon="3.35922">
        <ele>289.4</ele>
        <time>2024-04-28T11:19:01Z</time>
      </trkpt>
      <trkpt lat="45.91724" lon="3.35931">
        <ele>289.2</ele>
        <time>2024-04-28T11:19:02Z</time>
      </trkpt>
      <trkpt lat="45.91727" lon="3.35941">
        <ele>289.2</ele>
        <time>2024-04-28T11:19:03Z</time>
      </trkpt>
      <trkpt lat="45.91729" lon="3.3595">
        <ele>289.2</ele>
        <time>2024-04-28T11:19:04Z</time>
      </trkpt>
      <trkpt lat="45.91732" lon="3.35959">
        <ele>289.2</ele>
        <time>2024-04-28T11:19:05Z</time>
      </trkpt>
      <trkpt lat="45.91734" lon="3.35969">
        <ele>289</ele>
        <time>2024-04-28T11:19:06Z</time>
      </trkpt>
      <trkpt lat="45.91736" lon="3.35979">
        <ele>289</ele>
        <time>2024-04-28T11:19:07Z</time>
      </trkpt>
      <trkpt lat="45.91737" lon="3.35988">
        <ele>289</ele>
        <time>2024-04-28T11:19:08Z</time>
      </trkpt>
      <trkpt lat="45.91738" lon="3.35998">
        <ele>289</ele>
        <time>2024-04-28T11:19:09Z</time>
      </trkpt>
      <trkpt lat="45.9174" lon="3.36008">
        <ele>289</ele>
        <time>2024-04-28T11:19:10Z</time>
      </trkpt>
      <trkpt lat="45.9174" lon="3.36018">
        <ele>288.8</ele>
        <time>2024-04-28T11:19:11Z</time>
      </trkpt>
      <trkpt lat="45.9174" lon="3.36028">
        <ele>288.8</ele>
        <time>2024-04-28T11:19:12Z</time>
      </trkpt>
      <trkpt lat="45.9174" lon="3.36037">
        <ele>288.8</ele>
        <time>2024-04-28T11:19:13Z</time>
      </trkpt>
      <trkpt lat="45.9174" lon="3.36047">
        <ele>288.8</ele>
        <time>2024-04-28T11:19:14Z</time>
      </trkpt>
      <trkpt lat="45.91739" lon="3.36057">
        <ele>288.8</ele>
        <time>2024-04-28T11:19:15Z</time>
      </trkpt>
      <trkpt lat="45.91738" lon="3.36066">
        <ele>288.8</ele>
        <time>2024-04-28T11:19:16Z</time>
      </trkpt>
      <trkpt lat="45.91737" lon="3.36076">
        <ele>288.8</ele>
        <time>2024-04-28T11:19:17Z</time>
      </trkpt>
      <trkpt lat="45.91736" lon="3.36086">
        <ele>288.8</ele>
        <time>2024-04-28T11:19:18Z</time>
      </trkpt>
      <trkpt lat="45.91735" lon="3.36096">
        <ele>288.8</ele>
        <time>2024-04-28T11:19:19Z</time>
      </trkpt>
      <trkpt lat="45.91734" lon="3.36106">
        <ele>288.8</ele>
        <time>2024-04-28T11:19:20Z</time>
      </trkpt>
      <trkpt lat="45.91733" lon="3.36116">
        <ele>288.8</ele>
        <time>2024-04-28T11:19:21Z</time>
      </trkpt>
      <trkpt lat="45.91732" lon="3.36126">
        <ele>288.8</ele>
        <time>2024-04-28T11:19:22Z</time>
      </trkpt>
      <trkpt lat="45.9173" lon="3.36135">
        <ele>288.8</ele>
        <time>2024-04-28T11:19:23Z</time>
      </trkpt>
      <trkpt lat="45.91728" lon="3.36144">
        <ele>288.8</ele>
        <time>2024-04-28T11:19:24Z</time>
      </trkpt>
      <trkpt lat="45.91726" lon="3.36153">
        <ele>288.8</ele>
        <time>2024-04-28T11:19:25Z</time>
      </trkpt>
      <trkpt lat="45.91724" lon="3.36162">
        <ele>288.8</ele>
        <time>2024-04-28T11:19:26Z</time>
      </trkpt>
      <trkpt lat="45.91722" lon="3.36171">
        <ele>288.8</ele>
        <time>2024-04-28T11:19:27Z</time>
      </trkpt>
      <trkpt lat="45.9172" lon="3.36179">
        <ele>288.8</ele>
        <time>2024-04-28T11:19:28Z</time>
      </trkpt>
      <trkpt lat="45.91718" lon="3.36188">
        <ele>288.8</ele>
        <time>2024-04-28T11:19:29Z</time>
      </trkpt>
      <trkpt lat="45.91716" lon="3.36197">
        <ele>288.8</ele>
        <time>2024-04-28T11:19:30Z</time>
      </trkpt>
      <trkpt lat="45.91714" lon="3.36205">
        <ele>288.8</ele>
        <time>2024-04-28T11:19:31Z</time>
      </trkpt>
      <trkpt lat="45.91712" lon="3.36214">
        <ele>288.8</ele>
        <time>2024-04-28T11:19:32Z</time>
      </trkpt>
      <trkpt lat="45.9171" lon="3.36223">
        <ele>288.8</ele>
        <time>2024-04-28T11:19:33Z</time>
      </trkpt>
      <trkpt lat="45.91708" lon="3.36232">
        <ele>288.8</ele>
        <time>2024-04-28T11:19:34Z</time>
      </trkpt>
      <trkpt lat="45.91706" lon="3.3624">
        <ele>288.6</ele>
        <time>2024-04-28T11:19:35Z</time>
      </trkpt>
      <trkpt lat="45.91705" lon="3.36249">
        <ele>288.8</ele>
        <time>2024-04-28T11:19:36Z</time>
      </trkpt>
      <trkpt lat="45.91703" lon="3.36258">
        <ele>289</ele>
        <time>2024-04-28T11:19:37Z</time>
      </trkpt>
      <trkpt lat="45.91701" lon="3.36267">
        <ele>289</ele>
        <time>2024-04-28T11:19:38Z</time>
      </trkpt>
      <trkpt lat="45.91699" lon="3.36275">
        <ele>289</ele>
        <time>2024-04-28T11:19:39Z</time>
      </trkpt>
      <trkpt lat="45.91697" lon="3.36284">
        <ele>289</ele>
        <time>2024-04-28T11:19:40Z</time>
      </trkpt>
      <trkpt lat="45.91695" lon="3.36292">
        <ele>288.8</ele>
        <time>2024-04-28T11:19:41Z</time>
      </trkpt>
      <trkpt lat="45.91693" lon="3.363">
        <ele>289</ele>
        <time>2024-04-28T11:19:42Z</time>
      </trkpt>
      <trkpt lat="45.91692" lon="3.36308">
        <ele>289</ele>
        <time>2024-04-28T11:19:43Z</time>
      </trkpt>
      <trkpt lat="45.9169" lon="3.36316">
        <ele>289</ele>
        <time>2024-04-28T11:19:44Z</time>
      </trkpt>
      <trkpt lat="45.91688" lon="3.36324">
        <ele>289</ele>
        <time>2024-04-28T11:19:45Z</time>
      </trkpt>
      <trkpt lat="45.91686" lon="3.36333">
        <ele>289</ele>
        <time>2024-04-28T11:19:46Z</time>
      </trkpt>
      <trkpt lat="45.91684" lon="3.36342">
        <ele>289</ele>
        <time>2024-04-28T11:19:47Z</time>
      </trkpt>
      <trkpt lat="45.91682" lon="3.3635">
        <ele>289</ele>
        <time>2024-04-28T11:19:48Z</time>
      </trkpt>
      <trkpt lat="45.9168" lon="3.36359">
        <ele>289</ele>
        <time>2024-04-28T11:19:49Z</time>
      </trkpt>
      <trkpt lat="45.91679" lon="3.36368">
        <ele>289</ele>
        <time>2024-04-28T11:19:50Z</time>
      </trkpt>
      <trkpt lat="45.91677" lon="3.36377">
        <ele>289</ele>
        <time>2024-04-28T11:19:51Z</time>
      </trkpt>
      <trkpt lat="45.91675" lon="3.36386">
        <ele>289</ele>
        <time>2024-04-28T11:19:52Z</time>
      </trkpt>
      <trkpt lat="45.91673" lon="3.36395">
        <ele>289</ele>
        <time>2024-04-28T11:19:53Z</time>
      </trkpt>
      <trkpt lat="45.9167" lon="3.36404">
        <ele>289</ele>
        <time>2024-04-28T11:19:54Z</time>
      </trkpt>
      <trkpt lat="45.91668" lon="3.36413">
        <ele>289</ele>
        <time>2024-04-28T11:19:55Z</time>
      </trkpt>
      <trkpt lat="45.91666" lon="3.36422">
        <ele>289</ele>
        <time>2024-04-28T11:19:56Z</time>
      </trkpt>
      <trkpt lat="45.91664" lon="3.36431">
        <ele>289</ele>
        <time>2024-04-28T11:19:57Z</time>
      </trkpt>
      <trkpt lat="45.91662" lon="3.3644">
        <ele>289.2</ele>
        <time>2024-04-28T11:19:58Z</time>
      </trkpt>
      <trkpt lat="45.9166" lon="3.3645">
        <ele>289.2</ele>
        <time>2024-04-28T11:19:59Z</time>
      </trkpt>
      <trkpt lat="45.91658" lon="3.36459">
        <ele>289.2</ele>
        <time>2024-04-28T11:20:00Z</time>
      </trkpt>
      <trkpt lat="45.91656" lon="3.36468">
        <ele>289.2</ele>
        <time>2024-04-28T11:20:01Z</time>
      </trkpt>
      <trkpt lat="45.91654" lon="3.36477">
        <ele>289.2</ele>
        <time>2024-04-28T11:20:02Z</time>
      </trkpt>
      <trkpt lat="45.91652" lon="3.36487">
        <ele>289.2</ele>
        <time>2024-04-28T11:20:03Z</time>
      </trkpt>
      <trkpt lat="45.9165" lon="3.36496">
        <ele>289.2</ele>
        <time>2024-04-28T11:20:04Z</time>
      </trkpt>
      <trkpt lat="45.91648" lon="3.36505">
        <ele>289.2</ele>
        <time>2024-04-28T11:20:05Z</time>
      </trkpt>
      <trkpt lat="45.91646" lon="3.36514">
        <ele>289.2</ele>
        <time>2024-04-28T11:20:06Z</time>
      </trkpt>
      <trkpt lat="45.91644" lon="3.36523">
        <ele>289.4</ele>
        <time>2024-04-28T11:20:07Z</time>
      </trkpt>
      <trkpt lat="45.91642" lon="3.36532">
        <ele>289.4</ele>
        <time>2024-04-28T11:20:08Z</time>
      </trkpt>
      <trkpt lat="45.9164" lon="3.36541">
        <ele>289.4</ele>
        <time>2024-04-28T11:20:09Z</time>
      </trkpt>
      <trkpt lat="45.91638" lon="3.3655">
        <ele>289.4</ele>
        <time>2024-04-28T11:20:10Z</time>
      </trkpt>
      <trkpt lat="45.91636" lon="3.36558">
        <ele>289.4</ele>
        <time>2024-04-28T11:20:11Z</time>
      </trkpt>
      <trkpt lat="45.91634" lon="3.36568">
        <ele>289.4</ele>
        <time>2024-04-28T11:20:12Z</time>
      </trkpt>
      <trkpt lat="45.91632" lon="3.36577">
        <ele>289.6</ele>
        <time>2024-04-28T11:20:13Z</time>
      </trkpt>
      <trkpt lat="45.9163" lon="3.36586">
        <ele>289.6</ele>
        <time>2024-04-28T11:20:14Z</time>
      </trkpt>
      <trkpt lat="45.91628" lon="3.36595">
        <ele>289.6</ele>
        <time>2024-04-28T11:20:15Z</time>
      </trkpt>
      <trkpt lat="45.91627" lon="3.36604">
        <ele>289.6</ele>
        <time>2024-04-28T11:20:16Z</time>
      </trkpt>
      <trkpt lat="45.91626" lon="3.36613">
        <ele>289.6</ele>
        <time>2024-04-28T11:20:17Z</time>
      </trkpt>
      <trkpt lat="45.91625" lon="3.36622">
        <ele>289.6</ele>
        <time>2024-04-28T11:20:18Z</time>
      </trkpt>
      <trkpt lat="45.91623" lon="3.36631">
        <ele>289.6</ele>
        <time>2024-04-28T11:20:19Z</time>
      </trkpt>
      <trkpt lat="45.91622" lon="3.3664">
        <ele>289.6</ele>
        <time>2024-04-28T11:20:20Z</time>
      </trkpt>
      <trkpt lat="45.9162" lon="3.3665">
        <ele>289.6</ele>
        <time>2024-04-28T11:20:21Z</time>
      </trkpt>
      <trkpt lat="45.9162" lon="3.3666">
        <ele>289.6</ele>
        <time>2024-04-28T11:20:22Z</time>
      </trkpt>
      <trkpt lat="45.9162" lon="3.3667">
        <ele>289.6</ele>
        <time>2024-04-28T11:20:23Z</time>
      </trkpt>
      <trkpt lat="45.9162" lon="3.3668">
        <ele>289.8</ele>
        <time>2024-04-28T11:20:24Z</time>
      </trkpt>
      <trkpt lat="45.9162" lon="3.3669">
        <ele>289.8</ele>
        <time>2024-04-28T11:20:25Z</time>
      </trkpt>
      <trkpt lat="45.9162" lon="3.367">
        <ele>289.8</ele>
        <time>2024-04-28T11:20:26Z</time>
      </trkpt>
      <trkpt lat="45.9162" lon="3.3671">
        <ele>289.8</ele>
        <time>2024-04-28T11:20:27Z</time>
      </trkpt>
      <trkpt lat="45.9162" lon="3.3672">
        <ele>289.8</ele>
        <time>2024-04-28T11:20:28Z</time>
      </trkpt>
      <trkpt lat="45.9162" lon="3.3673">
        <ele>290</ele>
        <time>2024-04-28T11:20:29Z</time>
      </trkpt>
      <trkpt lat="45.9162" lon="3.36741">
        <ele>290</ele>
        <time>2024-04-28T11:20:30Z</time>
      </trkpt>
      <trkpt lat="45.9162" lon="3.36751">
        <ele>290</ele>
        <time>2024-04-28T11:20:31Z</time>
      </trkpt>
      <trkpt lat="45.9162" lon="3.3676">
        <ele>290</ele>
        <time>2024-04-28T11:20:32Z</time>
      </trkpt>
      <trkpt lat="45.9162" lon="3.3677">
        <ele>290</ele>
        <time>2024-04-28T11:20:33Z</time>
      </trkpt>
      <trkpt lat="45.91619" lon="3.3678">
        <ele>290</ele>
        <time>2024-04-28T11:20:34Z</time>
      </trkpt>
      <trkpt lat="45.91619" lon="3.36791">
        <ele>290</ele>
        <time>2024-04-28T11:20:35Z</time>
      </trkpt>
      <trkpt lat="45.91619" lon="3.36801">
        <ele>290.2</ele>
        <time>2024-04-28T11:20:36Z</time>
      </trkpt>
      <trkpt lat="45.91619" lon="3.36811">
        <ele>290.2</ele>
        <time>2024-04-28T11:20:37Z</time>
      </trkpt>
      <trkpt lat="45.91619" lon="3.36821">
        <ele>290.2</ele>
        <time>2024-04-28T11:20:38Z</time>
      </trkpt>
      <trkpt lat="45.91619" lon="3.36831">
        <ele>290.2</ele>
        <time>2024-04-28T11:20:39Z</time>
      </trkpt>
      <trkpt lat="45.91619" lon="3.36841">
        <ele>290.2</ele>
        <time>2024-04-28T11:20:40Z</time>
      </trkpt>
      <trkpt lat="45.91619" lon="3.3685">
        <ele>290.4</ele>
        <time>2024-04-28T11:20:41Z</time>
      </trkpt>
      <trkpt lat="45.91619" lon="3.3686">
        <ele>290.4</ele>
        <time>2024-04-28T11:20:42Z</time>
      </trkpt>
      <trkpt lat="45.91619" lon="3.3687">
        <ele>290.4</ele>
        <time>2024-04-28T11:20:43Z</time>
      </trkpt>
      <trkpt lat="45.91619" lon="3.3688">
        <ele>290.4</ele>
        <time>2024-04-28T11:20:44Z</time>
      </trkpt>
      <trkpt lat="45.91619" lon="3.36889">
        <ele>290.4</ele>
        <time>2024-04-28T11:20:45Z</time>
      </trkpt>
      <trkpt lat="45.91619" lon="3.36899">
        <ele>290.6</ele>
        <time>2024-04-28T11:20:46Z</time>
      </trkpt>
      <trkpt lat="45.91619" lon="3.36908">
        <ele>290.6</ele>
        <time>2024-04-28T11:20:47Z</time>
      </trkpt>
      <trkpt lat="45.91619" lon="3.36918">
        <ele>290.6</ele>
        <time>2024-04-28T11:20:48Z</time>
      </trkpt>
      <trkpt lat="45.91619" lon="3.36927">
        <ele>290.6</ele>
        <time>2024-04-28T11:20:49Z</time>
      </trkpt>
      <trkpt lat="45.91619" lon="3.36936">
        <ele>290.6</ele>
        <time>2024-04-28T11:20:50Z</time>
      </trkpt>
      <trkpt lat="45.91619" lon="3.36946">
        <ele>290.6</ele>
        <time>2024-04-28T11:20:51Z</time>
      </trkpt>
      <trkpt lat="45.91619" lon="3.36956">
        <ele>290.6</ele>
        <time>2024-04-28T11:20:52Z</time>
      </trkpt>
      <trkpt lat="45.91619" lon="3.36965">
        <ele>290.6</ele>
        <time>2024-04-28T11:20:53Z</time>
      </trkpt>
      <trkpt lat="45.91619" lon="3.36975">
        <ele>290.4</ele>
        <time>2024-04-28T11:20:54Z</time>
      </trkpt>
      <trkpt lat="45.91619" lon="3.36984">
        <ele>290.6</ele>
        <time>2024-04-28T11:20:55Z</time>
      </trkpt>
      <trkpt lat="45.91619" lon="3.36994">
        <ele>290.4</ele>
        <time>2024-04-28T11:20:56Z</time>
      </trkpt>
      <trkpt lat="45.91619" lon="3.37004">
        <ele>290.4</ele>
        <time>2024-04-28T11:20:57Z</time>
      </trkpt>
      <trkpt lat="45.91619" lon="3.37013">
        <ele>290.6</ele>
        <time>2024-04-28T11:20:58Z</time>
      </trkpt>
      <trkpt lat="45.91619" lon="3.37023">
        <ele>290.6</ele>
        <time>2024-04-28T11:20:59Z</time>
      </trkpt>
      <trkpt lat="45.91619" lon="3.37033">
        <ele>290.6</ele>
        <time>2024-04-28T11:21:00Z</time>
      </trkpt>
      <trkpt lat="45.91619" lon="3.37042">
        <ele>290.6</ele>
        <time>2024-04-28T11:21:01Z</time>
      </trkpt>
      <trkpt lat="45.91618" lon="3.37052">
        <ele>290.6</ele>
        <time>2024-04-28T11:21:02Z</time>
      </trkpt>
      <trkpt lat="45.91618" lon="3.37061">
        <ele>290.6</ele>
        <time>2024-04-28T11:21:03Z</time>
      </trkpt>
      <trkpt lat="45.91618" lon="3.37071">
        <ele>290.6</ele>
        <time>2024-04-28T11:21:04Z</time>
      </trkpt>
      <trkpt lat="45.91618" lon="3.37081">
        <ele>290.8</ele>
        <time>2024-04-28T11:21:05Z</time>
      </trkpt>
      <trkpt lat="45.91618" lon="3.3709">
        <ele>290.8</ele>
        <time>2024-04-28T11:21:06Z</time>
      </trkpt>
      <trkpt lat="45.91618" lon="3.371">
        <ele>290.8</ele>
        <time>2024-04-28T11:21:07Z</time>
      </trkpt>
      <trkpt lat="45.91618" lon="3.37109">
        <ele>290.8</ele>
        <time>2024-04-28T11:21:08Z</time>
      </trkpt>
      <trkpt lat="45.91618" lon="3.37119">
        <ele>290.8</ele>
        <time>2024-04-28T11:21:09Z</time>
      </trkpt>
      <trkpt lat="45.91618" lon="3.37129">
        <ele>290.8</ele>
        <time>2024-04-28T11:21:10Z</time>
      </trkpt>
      <trkpt lat="45.91618" lon="3.37138">
        <ele>290.8</ele>
        <time>2024-04-28T11:21:11Z</time>
      </trkpt>
      <trkpt lat="45.91618" lon="3.37148">
        <ele>290.8</ele>
        <time>2024-04-28T11:21:12Z</time>
      </trkpt>
      <trkpt lat="45.91618" lon="3.37157">
        <ele>290.8</ele>
        <time>2024-04-28T11:21:13Z</time>
      </trkpt>
      <trkpt lat="45.91618" lon="3.37167">
        <ele>291</ele>
        <time>2024-04-28T11:21:14Z</time>
      </trkpt>
      <trkpt lat="45.91618" lon="3.37176">
        <ele>291</ele>
        <time>2024-04-28T11:21:15Z</time>
      </trkpt>
      <trkpt lat="45.91618" lon="3.37185">
        <ele>291</ele>
        <time>2024-04-28T11:21:16Z</time>
      </trkpt>
      <trkpt lat="45.91618" lon="3.37194">
        <ele>291</ele>
        <time>2024-04-28T11:21:17Z</time>
      </trkpt>
      <trkpt lat="45.91618" lon="3.37203">
        <ele>291</ele>
        <time>2024-04-28T11:21:18Z</time>
      </trkpt>
      <trkpt lat="45.91618" lon="3.37212">
        <ele>291.2</ele>
        <time>2024-04-28T11:21:19Z</time>
      </trkpt>
      <trkpt lat="45.91618" lon="3.37222">
        <ele>291.2</ele>
        <time>2024-04-28T11:21:20Z</time>
      </trkpt>
      <trkpt lat="45.91618" lon="3.3723">
        <ele>291.2</ele>
        <time>2024-04-28T11:21:21Z</time>
      </trkpt>
      <trkpt lat="45.91616" lon="3.37239">
        <ele>291.4</ele>
        <time>2024-04-28T11:21:22Z</time>
      </trkpt>
      <trkpt lat="45.91614" lon="3.37247">
        <ele>291.4</ele>
        <time>2024-04-28T11:21:23Z</time>
      </trkpt>
      <trkpt lat="45.91612" lon="3.37255">
        <ele>291.4</ele>
        <time>2024-04-28T11:21:24Z</time>
      </trkpt>
      <trkpt lat="45.91609" lon="3.37263">
        <ele>291.4</ele>
        <time>2024-04-28T11:21:25Z</time>
      </trkpt>
      <trkpt lat="45.91607" lon="3.3727">
        <ele>291.4</ele>
        <time>2024-04-28T11:21:26Z</time>
      </trkpt>
      <trkpt lat="45.91605" lon="3.37277">
        <ele>291.6</ele>
        <time>2024-04-28T11:21:27Z</time>
      </trkpt>
      <trkpt lat="45.91603" lon="3.37285">
        <ele>291.6</ele>
        <time>2024-04-28T11:21:28Z</time>
      </trkpt>
      <trkpt lat="45.91601" lon="3.37292">
        <ele>291.6</ele>
        <time>2024-04-28T11:21:29Z</time>
      </trkpt>
      <trkpt lat="45.91599" lon="3.37298">
        <ele>291.8</ele>
        <time>2024-04-28T11:21:30Z</time>
      </trkpt>
      <trkpt lat="45.91597" lon="3.37305">
        <ele>291.8</ele>
        <time>2024-04-28T11:21:31Z</time>
      </trkpt>
      <trkpt lat="45.91595" lon="3.37312">
        <ele>291.8</ele>
        <time>2024-04-28T11:21:32Z</time>
      </trkpt>
      <trkpt lat="45.91593" lon="3.37319">
        <ele>291.8</ele>
        <time>2024-04-28T11:21:33Z</time>
      </trkpt>
      <trkpt lat="45.91591" lon="3.37326">
        <ele>292</ele>
        <time>2024-04-28T11:21:34Z</time>
      </trkpt>
      <trkpt lat="45.91589" lon="3.37332">
        <ele>292</ele>
        <time>2024-04-28T11:21:35Z</time>
      </trkpt>
      <trkpt lat="45.91587" lon="3.37339">
        <ele>292</ele>
        <time>2024-04-28T11:21:36Z</time>
      </trkpt>
      <trkpt lat="45.91585" lon="3.37346">
        <ele>292</ele>
        <time>2024-04-28T11:21:37Z</time>
      </trkpt>
      <trkpt lat="45.91583" lon="3.37353">
        <ele>292.2</ele>
        <time>2024-04-28T11:21:38Z</time>
      </trkpt>
      <trkpt lat="45.91581" lon="3.3736">
        <ele>292.2</ele>
        <time>2024-04-28T11:21:39Z</time>
      </trkpt>
      <trkpt lat="45.91579" lon="3.37367">
        <ele>292.2</ele>
        <time>2024-04-28T11:21:40Z</time>
      </trkpt>
      <trkpt lat="45.91577" lon="3.37374">
        <ele>292.4</ele>
        <time>2024-04-28T11:21:41Z</time>
      </trkpt>
      <trkpt lat="45.91576" lon="3.3738">
        <ele>292.4</ele>
        <time>2024-04-28T11:21:42Z</time>
      </trkpt>
      <trkpt lat="45.91574" lon="3.37387">
        <ele>292.6</ele>
        <time>2024-04-28T11:21:43Z</time>
      </trkpt>
      <trkpt lat="45.91572" lon="3.37394">
        <ele>292.6</ele>
        <time>2024-04-28T11:21:44Z</time>
      </trkpt>
      <trkpt lat="45.9157" lon="3.374">
        <ele>292.8</ele>
        <time>2024-04-28T11:21:45Z</time>
      </trkpt>
      <trkpt lat="45.91568" lon="3.37407">
        <ele>292.8</ele>
        <time>2024-04-28T11:21:46Z</time>
      </trkpt>
      <trkpt lat="45.91566" lon="3.37413">
        <ele>293</ele>
        <time>2024-04-28T11:21:47Z</time>
      </trkpt>
      <trkpt lat="45.91564" lon="3.3742">
        <ele>293</ele>
        <time>2024-04-28T11:21:48Z</time>
      </trkpt>
      <trkpt lat="45.91562" lon="3.37426">
        <ele>293</ele>
        <time>2024-04-28T11:21:49Z</time>
      </trkpt>
      <trkpt lat="45.91561" lon="3.37432">
        <ele>293.2</ele>
        <time>2024-04-28T11:21:50Z</time>
      </trkpt>
      <trkpt lat="45.91559" lon="3.37439">
        <ele>293.4</ele>
        <time>2024-04-28T11:21:51Z</time>
      </trkpt>
      <trkpt lat="45.91557" lon="3.37444">
        <ele>293.4</ele>
        <time>2024-04-28T11:21:52Z</time>
      </trkpt>
      <trkpt lat="45.91556" lon="3.3745">
        <ele>293.4</ele>
        <time>2024-04-28T11:21:53Z</time>
      </trkpt>
      <trkpt lat="45.91554" lon="3.37456">
        <ele>293.6</ele>
        <time>2024-04-28T11:21:54Z</time>
      </trkpt>
      <trkpt lat="45.91553" lon="3.37462">
        <ele>293.6</ele>
        <time>2024-04-28T11:21:55Z</time>
      </trkpt>
      <trkpt lat="45.91552" lon="3.37467">
        <ele>293.8</ele>
        <time>2024-04-28T11:21:56Z</time>
      </trkpt>
      <trkpt lat="45.91551" lon="3.37473">
        <ele>293.8</ele>
        <time>2024-04-28T11:21:57Z</time>
      </trkpt>
      <trkpt lat="45.9155" lon="3.37478">
        <ele>294</ele>
        <time>2024-04-28T11:21:58Z</time>
      </trkpt>
      <trkpt lat="45.91549" lon="3.37484">
        <ele>294</ele>
        <time>2024-04-28T11:21:59Z</time>
      </trkpt>
      <trkpt lat="45.91548" lon="3.3749">
        <ele>294.2</ele>
        <time>2024-04-28T11:22:00Z</time>
      </trkpt>
      <trkpt lat="45.91546" lon="3.37496">
        <ele>294.2</ele>
        <time>2024-04-28T11:22:01Z</time>
      </trkpt>
      <trkpt lat="45.91545" lon="3.37502">
        <ele>294.4</ele>
        <time>2024-04-28T11:22:02Z</time>
      </trkpt>
      <trkpt lat="45.91544" lon="3.37508">
        <ele>294.4</ele>
        <time>2024-04-28T11:22:03Z</time>
      </trkpt>
      <trkpt lat="45.91543" lon="3.37513">
        <ele>294.6</ele>
        <time>2024-04-28T11:22:04Z</time>
      </trkpt>
      <trkpt lat="45.91542" lon="3.37519">
        <ele>294.6</ele>
        <time>2024-04-28T11:22:05Z</time>
      </trkpt>
      <trkpt lat="45.91542" lon="3.37525">
        <ele>294.8</ele>
        <time>2024-04-28T11:22:06Z</time>
      </trkpt>
      <trkpt lat="45.91542" lon="3.37531">
        <ele>294.8</ele>
        <time>2024-04-28T11:22:07Z</time>
      </trkpt>
      <trkpt lat="45.91542" lon="3.37537">
        <ele>295</ele>
        <time>2024-04-28T11:22:08Z</time>
      </trkpt>
      <trkpt lat="45.91541" lon="3.37542">
        <ele>295</ele>
        <time>2024-04-28T11:22:09Z</time>
      </trkpt>
      <trkpt lat="45.91541" lon="3.37547">
        <ele>295.2</ele>
        <time>2024-04-28T11:22:10Z</time>
      </trkpt>
      <trkpt lat="45.91541" lon="3.37552">
        <ele>295.2</ele>
        <time>2024-04-28T11:22:11Z</time>
      </trkpt>
      <trkpt lat="45.91541" lon="3.37558">
        <ele>295.2</ele>
        <time>2024-04-28T11:22:12Z</time>
      </trkpt>
      <trkpt lat="45.91541" lon="3.37564">
        <ele>295.4</ele>
        <time>2024-04-28T11:22:13Z</time>
      </trkpt>
      <trkpt lat="45.91542" lon="3.37569">
        <ele>295.4</ele>
        <time>2024-04-28T11:22:14Z</time>
      </trkpt>
      <trkpt lat="45.91542" lon="3.37573">
        <ele>295.6</ele>
        <time>2024-04-28T11:22:15Z</time>
      </trkpt>
      <trkpt lat="45.91543" lon="3.37577">
        <ele>295.6</ele>
        <time>2024-04-28T11:22:16Z</time>
      </trkpt>
      <trkpt lat="45.91543" lon="3.37583">
        <ele>295.6</ele>
        <time>2024-04-28T11:22:17Z</time>
      </trkpt>
      <trkpt lat="45.91544" lon="3.37589">
        <ele>295.8</ele>
        <time>2024-04-28T11:22:18Z</time>
      </trkpt>
      <trkpt lat="45.91545" lon="3.37597">
        <ele>295.8</ele>
        <time>2024-04-28T11:22:19Z</time>
      </trkpt>
      <trkpt lat="45.91545" lon="3.37604">
        <ele>296</ele>
        <time>2024-04-28T11:22:20Z</time>
      </trkpt>
      <trkpt lat="45.91546" lon="3.3761">
        <ele>296</ele>
        <time>2024-04-28T11:22:21Z</time>
      </trkpt>
      <trkpt lat="45.91546" lon="3.37617">
        <ele>296.2</ele>
        <time>2024-04-28T11:22:22Z</time>
      </trkpt>
      <trkpt lat="45.91547" lon="3.37623">
        <ele>296.4</ele>
        <time>2024-04-28T11:22:23Z</time>
      </trkpt>
      <trkpt lat="45.91548" lon="3.37629">
        <ele>296.4</ele>
        <time>2024-04-28T11:22:24Z</time>
      </trkpt>
      <trkpt lat="45.91548" lon="3.37636">
        <ele>296.6</ele>
        <time>2024-04-28T11:22:25Z</time>
      </trkpt>
      <trkpt lat="45.91549" lon="3.37641">
        <ele>296.8</ele>
        <time>2024-04-28T11:22:26Z</time>
      </trkpt>
      <trkpt lat="45.91547" lon="3.37654">
        <ele>296.8</ele>
        <time>2024-04-28T11:22:27Z</time>
      </trkpt>
      <trkpt lat="45.91543" lon="3.37654">
        <ele>297</ele>
        <time>2024-04-28T11:22:28Z</time>
      </trkpt>
      <trkpt lat="45.91539" lon="3.37655">
        <ele>297.2</ele>
        <time>2024-04-28T11:22:29Z</time>
      </trkpt>
      <trkpt lat="45.91534" lon="3.37656">
        <ele>297.2</ele>
        <time>2024-04-28T11:22:30Z</time>
      </trkpt>
      <trkpt lat="45.9153" lon="3.37656">
        <ele>297.4</ele>
        <time>2024-04-28T11:22:31Z</time>
      </trkpt>
      <trkpt lat="45.91525" lon="3.37657">
        <ele>297.6</ele>
        <time>2024-04-28T11:22:32Z</time>
      </trkpt>
      <trkpt lat="45.9152" lon="3.37657">
        <ele>297.6</ele>
        <time>2024-04-28T11:22:33Z</time>
      </trkpt>
      <trkpt lat="45.91515" lon="3.37657">
        <ele>297.8</ele>
        <time>2024-04-28T11:22:34Z</time>
      </trkpt>
      <trkpt lat="45.91511" lon="3.37656">
        <ele>297.8</ele>
        <time>2024-04-28T11:22:35Z</time>
      </trkpt>
      <trkpt lat="45.91507" lon="3.37654">
        <ele>298</ele>
        <time>2024-04-28T11:22:36Z</time>
      </trkpt>
      <trkpt lat="45.91502" lon="3.37652">
        <ele>298.2</ele>
        <time>2024-04-28T11:22:37Z</time>
      </trkpt>
      <trkpt lat="45.91498" lon="3.37648">
        <ele>298.4</ele>
        <time>2024-04-28T11:22:38Z</time>
      </trkpt>
      <trkpt lat="45.91496" lon="3.37643">
        <ele>298.4</ele>
        <time>2024-04-28T11:22:39Z</time>
      </trkpt>
      <trkpt lat="45.91493" lon="3.37638">
        <ele>298.6</ele>
        <time>2024-04-28T11:22:40Z</time>
      </trkpt>
      <trkpt lat="45.91492" lon="3.37633">
        <ele>298.8</ele>
        <time>2024-04-28T11:22:41Z</time>
      </trkpt>
      <trkpt lat="45.91491" lon="3.37627">
        <ele>298.8</ele>
        <time>2024-04-28T11:22:42Z</time>
      </trkpt>
      <trkpt lat="45.9149" lon="3.37621">
        <ele>299</ele>
        <time>2024-04-28T11:22:43Z</time>
      </trkpt>
      <trkpt lat="45.91489" lon="3.37616">
        <ele>299.2</ele>
        <time>2024-04-28T11:22:44Z</time>
      </trkpt>
      <trkpt lat="45.91488" lon="3.3761">
        <ele>299.2</ele>
        <time>2024-04-28T11:22:45Z</time>
      </trkpt>
      <trkpt lat="45.91487" lon="3.37605">
        <ele>299.4</ele>
        <time>2024-04-28T11:22:46Z</time>
      </trkpt>
      <trkpt lat="45.91485" lon="3.37599">
        <ele>299.6</ele>
        <time>2024-04-28T11:22:47Z</time>
      </trkpt>
      <trkpt lat="45.91484" lon="3.37593">
        <ele>299.6</ele>
        <time>2024-04-28T11:22:48Z</time>
      </trkpt>
      <trkpt lat="45.91483" lon="3.37587">
        <ele>299.8</ele>
        <time>2024-04-28T11:22:49Z</time>
      </trkpt>
      <trkpt lat="45.91482" lon="3.3758">
        <ele>300</ele>
        <time>2024-04-28T11:22:50Z</time>
      </trkpt>
      <trkpt lat="45.9148" lon="3.37574">
        <ele>300</ele>
        <time>2024-04-28T11:22:51Z</time>
      </trkpt>
      <trkpt lat="45.91479" lon="3.37568">
        <ele>300.2</ele>
        <time>2024-04-28T11:22:52Z</time>
      </trkpt>
      <trkpt lat="45.91478" lon="3.37562">
        <ele>300.4</ele>
        <time>2024-04-28T11:22:53Z</time>
      </trkpt>
      <trkpt lat="45.91477" lon="3.37555">
        <ele>300.6</ele>
        <time>2024-04-28T11:22:54Z</time>
      </trkpt>
      <trkpt lat="45.91475" lon="3.37549">
        <ele>300.8</ele>
        <time>2024-04-28T11:22:55Z</time>
      </trkpt>
      <trkpt lat="45.91474" lon="3.37543">
        <ele>301</ele>
        <time>2024-04-28T11:22:56Z</time>
      </trkpt>
      <trkpt lat="45.91472" lon="3.37538">
        <ele>301.2</ele>
        <time>2024-04-28T11:22:57Z</time>
      </trkpt>
      <trkpt lat="45.91469" lon="3.37533">
        <ele>301.2</ele>
        <time>2024-04-28T11:22:58Z</time>
      </trkpt>
      <trkpt lat="45.91466" lon="3.37528">
        <ele>301.4</ele>
        <time>2024-04-28T11:22:59Z</time>
      </trkpt>
      <trkpt lat="45.91463" lon="3.37523">
        <ele>301.6</ele>
        <time>2024-04-28T11:23:00Z</time>
      </trkpt>
      <trkpt lat="45.9146" lon="3.37518">
        <ele>301.8</ele>
        <time>2024-04-28T11:23:01Z</time>
      </trkpt>
      <trkpt lat="45.91457" lon="3.37513">
        <ele>302</ele>
        <time>2024-04-28T11:23:02Z</time>
      </trkpt>
      <trkpt lat="45.91454" lon="3.3751">
        <ele>302.2</ele>
        <time>2024-04-28T11:23:03Z</time>
      </trkpt>
      <trkpt lat="45.91449" lon="3.37508">
        <ele>302.4</ele>
        <time>2024-04-28T11:23:04Z</time>
      </trkpt>
      <trkpt lat="45.91446" lon="3.37505">
        <ele>302.6</ele>
        <time>2024-04-28T11:23:05Z</time>
      </trkpt>
      <trkpt lat="45.91442" lon="3.37503">
        <ele>302.8</ele>
        <time>2024-04-28T11:23:06Z</time>
      </trkpt>
      <trkpt lat="45.91438" lon="3.375">
        <ele>303</ele>
        <time>2024-04-28T11:23:07Z</time>
      </trkpt>
      <trkpt lat="45.91433" lon="3.37493">
        <ele>303.2</ele>
        <time>2024-04-28T11:23:08Z</time>
      </trkpt>
      <trkpt lat="45.91431" lon="3.37487">
        <ele>303.4</ele>
        <time>2024-04-28T11:23:09Z</time>
      </trkpt>
      <trkpt lat="45.91429" lon="3.37481">
        <ele>303.4</ele>
        <time>2024-04-28T11:23:10Z</time>
      </trkpt>
      <trkpt lat="45.91427" lon="3.37475">
        <ele>303.6</ele>
        <time>2024-04-28T11:23:11Z</time>
      </trkpt>
      <trkpt lat="45.91425" lon="3.37469">
        <ele>303.8</ele>
        <time>2024-04-28T11:23:12Z</time>
      </trkpt>
      <trkpt lat="45.91423" lon="3.37462">
        <ele>304</ele>
        <time>2024-04-28T11:23:13Z</time>
      </trkpt>
      <trkpt lat="45.91421" lon="3.37455">
        <ele>304.2</ele>
        <time>2024-04-28T11:23:14Z</time>
      </trkpt>
      <trkpt lat="45.91418" lon="3.37448">
        <ele>304.2</ele>
        <time>2024-04-28T11:23:15Z</time>
      </trkpt>
      <trkpt lat="45.91415" lon="3.3744">
        <ele>304.4</ele>
        <time>2024-04-28T11:23:16Z</time>
      </trkpt>
      <trkpt lat="45.91413" lon="3.37432">
        <ele>304.6</ele>
        <time>2024-04-28T11:23:17Z</time>
      </trkpt>
      <trkpt lat="45.9141" lon="3.37423">
        <ele>304.6</ele>
        <time>2024-04-28T11:23:18Z</time>
      </trkpt>
      <trkpt lat="45.91407" lon="3.37414">
        <ele>304.8</ele>
        <time>2024-04-28T11:23:19Z</time>
      </trkpt>
      <trkpt lat="45.91404" lon="3.37406">
        <ele>305</ele>
        <time>2024-04-28T11:23:20Z</time>
      </trkpt>
      <trkpt lat="45.91401" lon="3.37397">
        <ele>305.2</ele>
        <time>2024-04-28T11:23:21Z</time>
      </trkpt>
      <trkpt lat="45.91398" lon="3.37387">
        <ele>305.2</ele>
        <time>2024-04-28T11:23:22Z</time>
      </trkpt>
      <trkpt lat="45.91395" lon="3.37378">
        <ele>305.2</ele>
        <time>2024-04-28T11:23:23Z</time>
      </trkpt>
      <trkpt lat="45.91392" lon="3.37369">
        <ele>305.4</ele>
        <time>2024-04-28T11:23:24Z</time>
      </trkpt>
      <trkpt lat="45.91389" lon="3.37361">
        <ele>305.6</ele>
        <time>2024-04-28T11:23:25Z</time>
      </trkpt>
      <trkpt lat="45.91386" lon="3.37353">
        <ele>305.6</ele>
        <time>2024-04-28T11:23:26Z</time>
      </trkpt>
      <trkpt lat="45.91383" lon="3.37345">
        <ele>305.8</ele>
        <time>2024-04-28T11:23:27Z</time>
      </trkpt>
      <trkpt lat="45.91381" lon="3.37338">
        <ele>305.8</ele>
        <time>2024-04-28T11:23:28Z</time>
      </trkpt>
      <trkpt lat="45.91373" lon="3.37336">
        <ele>306</ele>
        <time>2024-04-28T11:23:29Z</time>
      </trkpt>
      <trkpt lat="45.91369" lon="3.37338">
        <ele>306</ele>
        <time>2024-04-28T11:23:30Z</time>
      </trkpt>
      <trkpt lat="45.91364" lon="3.3734">
        <ele>306.2</ele>
        <time>2024-04-28T11:23:31Z</time>
      </trkpt>
      <trkpt lat="45.9136" lon="3.37342">
        <ele>306.2</ele>
        <time>2024-04-28T11:23:32Z</time>
      </trkpt>
      <trkpt lat="45.91356" lon="3.37344">
        <ele>306.4</ele>
        <time>2024-04-28T11:23:33Z</time>
      </trkpt>
      <trkpt lat="45.91352" lon="3.37345">
        <ele>306.4</ele>
        <time>2024-04-28T11:23:34Z</time>
      </trkpt>
      <trkpt lat="45.91348" lon="3.37347">
        <ele>306.6</ele>
        <time>2024-04-28T11:23:35Z</time>
      </trkpt>
    </trkseg>
  </trk>
</gpx>